<?xml version="1.0" encoding="UTF-8" standalone="no" ?>
<gpx xmlns="http://www.topografix.com/GPX/1/1" xmlns:xsi="http://www.w3.org/2001/XMLSchema-instance" xsi:schemaLocation="http://www.topografix.com/GPX/1/1 http://www.topografix.com/GPX/1/1/gpx.xsd" version="1.1" creator="VisuGPX - https://www.visugpx.com">
  <metadata>
    <name>VTTAE Montjay-Col Lèbre Cuite-St Cyrice-Col Reychasset-Sironne</name>
    <desc><![CDATA[VTTAE au départ de St-André de Rosans. Prendre la route (peu fréquentée) jusqu'à la sortie de Montjay, à droite direction Col de la Lèbre Cuite et descente sur la Chapelle St-Cyrice, rejoindre la D130 (très peu fréquentée) direction Villebois les Pins, ensuite prendre la piste qui méne au Col de l'Ebastier puis Col du Reychasset et Col de Montaux, là prendre à gauche sur les crêtes pour rejoindre Sironne et St André de Rosans. Remarque: réalisable en VTT musculaire avec une bonne condition physique pour la section Montjay - Col de la Lèbre. ]]></desc>
  </metadata>
  <trk>
    <name><![CDATA[VTTAE Montjay-Col Lèbre Cuite-St Cyrice-Col Reychasset-Sironne]]></name>
    <trkseg>
      <trkpt lat="44.37733" lon="5.51292">
        <ele>731.8</ele>
        <time>2023-04-06T09:22:18Z</time>
      </trkpt>
      <trkpt lat="44.37733" lon="5.51293">
        <ele>731.8</ele>
        <time>2023-04-06T09:22:19Z</time>
      </trkpt>
      <trkpt lat="44.37733" lon="5.51293">
        <ele>731.8</ele>
        <time>2023-04-06T09:22:20Z</time>
      </trkpt>
      <trkpt lat="44.37734" lon="5.51293">
        <ele>731.8</ele>
        <time>2023-04-06T09:22:21Z</time>
      </trkpt>
      <trkpt lat="44.37734" lon="5.51293">
        <ele>731.8</ele>
        <time>2023-04-06T09:22:22Z</time>
      </trkpt>
      <trkpt lat="44.37734" lon="5.51293">
        <ele>731.8</ele>
        <time>2023-04-06T09:22:23Z</time>
      </trkpt>
      <trkpt lat="44.37734" lon="5.51293">
        <ele>731.8</ele>
        <time>2023-04-06T09:22:24Z</time>
      </trkpt>
      <trkpt lat="44.37734" lon="5.51293">
        <ele>731.8</ele>
        <time>2023-04-06T09:22:25Z</time>
      </trkpt>
      <trkpt lat="44.37734" lon="5.51293">
        <ele>731.8</ele>
        <time>2023-04-06T09:22:27Z</time>
      </trkpt>
      <trkpt lat="44.37734" lon="5.51293">
        <ele>731.8</ele>
        <time>2023-04-06T09:22:28Z</time>
      </trkpt>
      <trkpt lat="44.37734" lon="5.51293">
        <ele>731.8</ele>
        <time>2023-04-06T09:22:30Z</time>
      </trkpt>
      <trkpt lat="44.3773" lon="5.5129">
        <ele>731.9</ele>
        <time>2023-04-06T09:22:51Z</time>
      </trkpt>
      <trkpt lat="44.37728" lon="5.51289">
        <ele>731.9</ele>
        <time>2023-04-06T09:22:53Z</time>
      </trkpt>
      <trkpt lat="44.37728" lon="5.51288">
        <ele>731.9</ele>
        <time>2023-04-06T09:22:54Z</time>
      </trkpt>
      <trkpt lat="44.37728" lon="5.51288">
        <ele>731.9</ele>
        <time>2023-04-06T09:22:56Z</time>
      </trkpt>
      <trkpt lat="44.37728" lon="5.51288">
        <ele>731.9</ele>
        <time>2023-04-06T09:22:57Z</time>
      </trkpt>
      <trkpt lat="44.37728" lon="5.51288">
        <ele>731.9</ele>
        <time>2023-04-06T09:22:58Z</time>
      </trkpt>
      <trkpt lat="44.37728" lon="5.51288">
        <ele>731.9</ele>
        <time>2023-04-06T09:22:59Z</time>
      </trkpt>
      <trkpt lat="44.37728" lon="5.51288">
        <ele>731.9</ele>
        <time>2023-04-06T09:23:00Z</time>
      </trkpt>
      <trkpt lat="44.37728" lon="5.51288">
        <ele>731.9</ele>
        <time>2023-04-06T09:23:01Z</time>
      </trkpt>
      <trkpt lat="44.37728" lon="5.51288">
        <ele>731.9</ele>
        <time>2023-04-06T09:23:02Z</time>
      </trkpt>
      <trkpt lat="44.37728" lon="5.51288">
        <ele>731.9</ele>
        <time>2023-04-06T09:23:03Z</time>
      </trkpt>
      <trkpt lat="44.37728" lon="5.51288">
        <ele>731.9</ele>
        <time>2023-04-06T09:23:04Z</time>
      </trkpt>
      <trkpt lat="44.37728" lon="5.51288">
        <ele>731.9</ele>
        <time>2023-04-06T09:23:05Z</time>
      </trkpt>
      <trkpt lat="44.37729" lon="5.5128">
        <ele>731.9</ele>
        <time>2023-04-06T09:23:42Z</time>
      </trkpt>
      <trkpt lat="44.37728" lon="5.51273">
        <ele>732</ele>
        <time>2023-04-06T09:23:44Z</time>
      </trkpt>
      <trkpt lat="44.37728" lon="5.51269">
        <ele>732</ele>
        <time>2023-04-06T09:23:45Z</time>
      </trkpt>
      <trkpt lat="44.37728" lon="5.51265">
        <ele>732.1</ele>
        <time>2023-04-06T09:23:46Z</time>
      </trkpt>
      <trkpt lat="44.37729" lon="5.51264">
        <ele>732.1</ele>
        <time>2023-04-06T09:23:47Z</time>
      </trkpt>
      <trkpt lat="44.37732" lon="5.51263">
        <ele>732.1</ele>
        <time>2023-04-06T09:23:48Z</time>
      </trkpt>
      <trkpt lat="44.37734" lon="5.51264">
        <ele>732.1</ele>
        <time>2023-04-06T09:23:49Z</time>
      </trkpt>
      <trkpt lat="44.37737" lon="5.51264">
        <ele>732.2</ele>
        <time>2023-04-06T09:23:50Z</time>
      </trkpt>
      <trkpt lat="44.3774" lon="5.51265">
        <ele>732.2</ele>
        <time>2023-04-06T09:23:51Z</time>
      </trkpt>
      <trkpt lat="44.37743" lon="5.51266">
        <ele>732.2</ele>
        <time>2023-04-06T09:23:52Z</time>
      </trkpt>
      <trkpt lat="44.37746" lon="5.51268">
        <ele>732.3</ele>
        <time>2023-04-06T09:23:53Z</time>
      </trkpt>
      <trkpt lat="44.37754" lon="5.51274">
        <ele>732.4</ele>
        <time>2023-04-06T09:23:55Z</time>
      </trkpt>
      <trkpt lat="44.37759" lon="5.51278">
        <ele>732.4</ele>
        <time>2023-04-06T09:23:56Z</time>
      </trkpt>
      <trkpt lat="44.37764" lon="5.51283">
        <ele>732.5</ele>
        <time>2023-04-06T09:23:57Z</time>
      </trkpt>
      <trkpt lat="44.37768" lon="5.51289">
        <ele>732.5</ele>
        <time>2023-04-06T09:23:58Z</time>
      </trkpt>
      <trkpt lat="44.37772" lon="5.51295">
        <ele>732.6</ele>
        <time>2023-04-06T09:23:59Z</time>
      </trkpt>
      <trkpt lat="44.37776" lon="5.51305">
        <ele>732.7</ele>
        <time>2023-04-06T09:24:01Z</time>
      </trkpt>
      <trkpt lat="44.37775" lon="5.51309">
        <ele>732.7</ele>
        <time>2023-04-06T09:24:02Z</time>
      </trkpt>
      <trkpt lat="44.37774" lon="5.51313">
        <ele>732.7</ele>
        <time>2023-04-06T09:24:03Z</time>
      </trkpt>
      <trkpt lat="44.37773" lon="5.51317">
        <ele>732.8</ele>
        <time>2023-04-06T09:24:04Z</time>
      </trkpt>
      <trkpt lat="44.37771" lon="5.51321">
        <ele>732.8</ele>
        <time>2023-04-06T09:24:05Z</time>
      </trkpt>
      <trkpt lat="44.3777" lon="5.51325">
        <ele>732.8</ele>
        <time>2023-04-06T09:24:06Z</time>
      </trkpt>
      <trkpt lat="44.37768" lon="5.51329">
        <ele>732.9</ele>
        <time>2023-04-06T09:24:07Z</time>
      </trkpt>
      <trkpt lat="44.37767" lon="5.51333">
        <ele>732.9</ele>
        <time>2023-04-06T09:24:08Z</time>
      </trkpt>
      <trkpt lat="44.37766" lon="5.51336">
        <ele>733</ele>
        <time>2023-04-06T09:24:09Z</time>
      </trkpt>
      <trkpt lat="44.37764" lon="5.5134">
        <ele>733.1</ele>
        <time>2023-04-06T09:24:10Z</time>
      </trkpt>
      <trkpt lat="44.37761" lon="5.51342">
        <ele>733.1</ele>
        <time>2023-04-06T09:24:11Z</time>
      </trkpt>
      <trkpt lat="44.37758" lon="5.51344">
        <ele>733.1</ele>
        <time>2023-04-06T09:24:12Z</time>
      </trkpt>
      <trkpt lat="44.37756" lon="5.51345">
        <ele>733.2</ele>
        <time>2023-04-06T09:24:13Z</time>
      </trkpt>
      <trkpt lat="44.37753" lon="5.51348">
        <ele>733.2</ele>
        <time>2023-04-06T09:24:14Z</time>
      </trkpt>
      <trkpt lat="44.37751" lon="5.51349">
        <ele>733.2</ele>
        <time>2023-04-06T09:24:15Z</time>
      </trkpt>
      <trkpt lat="44.37746" lon="5.51353">
        <ele>733.2</ele>
        <time>2023-04-06T09:24:17Z</time>
      </trkpt>
      <trkpt lat="44.37744" lon="5.51355">
        <ele>733.2</ele>
        <time>2023-04-06T09:24:18Z</time>
      </trkpt>
      <trkpt lat="44.3774" lon="5.51358">
        <ele>733.2</ele>
        <time>2023-04-06T09:24:19Z</time>
      </trkpt>
      <trkpt lat="44.37738" lon="5.5136">
        <ele>733.2</ele>
        <time>2023-04-06T09:24:20Z</time>
      </trkpt>
      <trkpt lat="44.37735" lon="5.51363">
        <ele>733.2</ele>
        <time>2023-04-06T09:24:21Z</time>
      </trkpt>
      <trkpt lat="44.37733" lon="5.51365">
        <ele>733.2</ele>
        <time>2023-04-06T09:24:22Z</time>
      </trkpt>
      <trkpt lat="44.37731" lon="5.51368">
        <ele>733.2</ele>
        <time>2023-04-06T09:24:23Z</time>
      </trkpt>
      <trkpt lat="44.3773" lon="5.5137">
        <ele>733.2</ele>
        <time>2023-04-06T09:24:24Z</time>
      </trkpt>
      <trkpt lat="44.37728" lon="5.51374">
        <ele>733.2</ele>
        <time>2023-04-06T09:24:25Z</time>
      </trkpt>
      <trkpt lat="44.37726" lon="5.51378">
        <ele>733.2</ele>
        <time>2023-04-06T09:24:26Z</time>
      </trkpt>
      <trkpt lat="44.37723" lon="5.51386">
        <ele>733.1</ele>
        <time>2023-04-06T09:24:28Z</time>
      </trkpt>
      <trkpt lat="44.37722" lon="5.5139">
        <ele>733.1</ele>
        <time>2023-04-06T09:24:29Z</time>
      </trkpt>
      <trkpt lat="44.37721" lon="5.51394">
        <ele>733.1</ele>
        <time>2023-04-06T09:24:30Z</time>
      </trkpt>
      <trkpt lat="44.37719" lon="5.51398">
        <ele>733.1</ele>
        <time>2023-04-06T09:24:31Z</time>
      </trkpt>
      <trkpt lat="44.37717" lon="5.51402">
        <ele>733</ele>
        <time>2023-04-06T09:24:32Z</time>
      </trkpt>
      <trkpt lat="44.37714" lon="5.51407">
        <ele>733</ele>
        <time>2023-04-06T09:24:33Z</time>
      </trkpt>
      <trkpt lat="44.37711" lon="5.51411">
        <ele>733</ele>
        <time>2023-04-06T09:24:34Z</time>
      </trkpt>
      <trkpt lat="44.37709" lon="5.51416">
        <ele>732.9</ele>
        <time>2023-04-06T09:24:35Z</time>
      </trkpt>
      <trkpt lat="44.37707" lon="5.51421">
        <ele>732.8</ele>
        <time>2023-04-06T09:24:36Z</time>
      </trkpt>
      <trkpt lat="44.37705" lon="5.51425">
        <ele>732.8</ele>
        <time>2023-04-06T09:24:37Z</time>
      </trkpt>
      <trkpt lat="44.37703" lon="5.51429">
        <ele>732.7</ele>
        <time>2023-04-06T09:24:38Z</time>
      </trkpt>
      <trkpt lat="44.37701" lon="5.51433">
        <ele>732.7</ele>
        <time>2023-04-06T09:24:39Z</time>
      </trkpt>
      <trkpt lat="44.37699" lon="5.51437">
        <ele>732.6</ele>
        <time>2023-04-06T09:24:40Z</time>
      </trkpt>
      <trkpt lat="44.37697" lon="5.51442">
        <ele>732.6</ele>
        <time>2023-04-06T09:24:41Z</time>
      </trkpt>
      <trkpt lat="44.37695" lon="5.51446">
        <ele>732.5</ele>
        <time>2023-04-06T09:24:42Z</time>
      </trkpt>
      <trkpt lat="44.37691" lon="5.51456">
        <ele>732.3</ele>
        <time>2023-04-06T09:24:44Z</time>
      </trkpt>
      <trkpt lat="44.37689" lon="5.51462">
        <ele>732.1</ele>
        <time>2023-04-06T09:24:45Z</time>
      </trkpt>
      <trkpt lat="44.37687" lon="5.51468">
        <ele>731.9</ele>
        <time>2023-04-06T09:24:46Z</time>
      </trkpt>
      <trkpt lat="44.37685" lon="5.51474">
        <ele>731.6</ele>
        <time>2023-04-06T09:24:47Z</time>
      </trkpt>
      <trkpt lat="44.37683" lon="5.5148">
        <ele>731.4</ele>
        <time>2023-04-06T09:24:48Z</time>
      </trkpt>
      <trkpt lat="44.37681" lon="5.51485">
        <ele>731.2</ele>
        <time>2023-04-06T09:24:49Z</time>
      </trkpt>
      <trkpt lat="44.37678" lon="5.5149">
        <ele>730.9</ele>
        <time>2023-04-06T09:24:50Z</time>
      </trkpt>
      <trkpt lat="44.37676" lon="5.51496">
        <ele>730.7</ele>
        <time>2023-04-06T09:24:51Z</time>
      </trkpt>
      <trkpt lat="44.37674" lon="5.51502">
        <ele>730.4</ele>
        <time>2023-04-06T09:24:52Z</time>
      </trkpt>
      <trkpt lat="44.37671" lon="5.51508">
        <ele>730.2</ele>
        <time>2023-04-06T09:24:53Z</time>
      </trkpt>
      <trkpt lat="44.37667" lon="5.51521">
        <ele>729.7</ele>
        <time>2023-04-06T09:24:55Z</time>
      </trkpt>
      <trkpt lat="44.37664" lon="5.51527">
        <ele>729.4</ele>
        <time>2023-04-06T09:24:56Z</time>
      </trkpt>
      <trkpt lat="44.37662" lon="5.51534">
        <ele>729.2</ele>
        <time>2023-04-06T09:24:57Z</time>
      </trkpt>
      <trkpt lat="44.37659" lon="5.51541">
        <ele>728.9</ele>
        <time>2023-04-06T09:24:58Z</time>
      </trkpt>
      <trkpt lat="44.37656" lon="5.51548">
        <ele>728.6</ele>
        <time>2023-04-06T09:24:59Z</time>
      </trkpt>
      <trkpt lat="44.37653" lon="5.51555">
        <ele>728.3</ele>
        <time>2023-04-06T09:25:00Z</time>
      </trkpt>
      <trkpt lat="44.3765" lon="5.51562">
        <ele>728.1</ele>
        <time>2023-04-06T09:25:01Z</time>
      </trkpt>
      <trkpt lat="44.37648" lon="5.5157">
        <ele>727.8</ele>
        <time>2023-04-06T09:25:02Z</time>
      </trkpt>
      <trkpt lat="44.37645" lon="5.51577">
        <ele>727.5</ele>
        <time>2023-04-06T09:25:03Z</time>
      </trkpt>
      <trkpt lat="44.37642" lon="5.51585">
        <ele>727.2</ele>
        <time>2023-04-06T09:25:04Z</time>
      </trkpt>
      <trkpt lat="44.37635" lon="5.516">
        <ele>726.7</ele>
        <time>2023-04-06T09:25:06Z</time>
      </trkpt>
      <trkpt lat="44.37632" lon="5.51608">
        <ele>726.4</ele>
        <time>2023-04-06T09:25:07Z</time>
      </trkpt>
      <trkpt lat="44.37629" lon="5.51615">
        <ele>726.2</ele>
        <time>2023-04-06T09:25:08Z</time>
      </trkpt>
      <trkpt lat="44.37625" lon="5.51624">
        <ele>725.9</ele>
        <time>2023-04-06T09:25:09Z</time>
      </trkpt>
      <trkpt lat="44.37622" lon="5.51632">
        <ele>725.7</ele>
        <time>2023-04-06T09:25:10Z</time>
      </trkpt>
      <trkpt lat="44.37615" lon="5.51648">
        <ele>725.2</ele>
        <time>2023-04-06T09:25:12Z</time>
      </trkpt>
      <trkpt lat="44.37612" lon="5.51655">
        <ele>725</ele>
        <time>2023-04-06T09:25:13Z</time>
      </trkpt>
      <trkpt lat="44.37608" lon="5.51663">
        <ele>724.8</ele>
        <time>2023-04-06T09:25:14Z</time>
      </trkpt>
      <trkpt lat="44.37605" lon="5.51671">
        <ele>724.6</ele>
        <time>2023-04-06T09:25:15Z</time>
      </trkpt>
      <trkpt lat="44.37602" lon="5.51679">
        <ele>724.4</ele>
        <time>2023-04-06T09:25:16Z</time>
      </trkpt>
      <trkpt lat="44.37599" lon="5.51687">
        <ele>724.3</ele>
        <time>2023-04-06T09:25:17Z</time>
      </trkpt>
      <trkpt lat="44.37596" lon="5.51694">
        <ele>724.1</ele>
        <time>2023-04-06T09:25:18Z</time>
      </trkpt>
      <trkpt lat="44.37593" lon="5.51702">
        <ele>723.9</ele>
        <time>2023-04-06T09:25:19Z</time>
      </trkpt>
      <trkpt lat="44.3759" lon="5.51711">
        <ele>723.7</ele>
        <time>2023-04-06T09:25:20Z</time>
      </trkpt>
      <trkpt lat="44.37587" lon="5.51719">
        <ele>723.6</ele>
        <time>2023-04-06T09:25:21Z</time>
      </trkpt>
      <trkpt lat="44.37582" lon="5.51734">
        <ele>723.2</ele>
        <time>2023-04-06T09:25:23Z</time>
      </trkpt>
      <trkpt lat="44.37578" lon="5.51741">
        <ele>723.1</ele>
        <time>2023-04-06T09:25:24Z</time>
      </trkpt>
      <trkpt lat="44.37575" lon="5.51748">
        <ele>722.9</ele>
        <time>2023-04-06T09:25:25Z</time>
      </trkpt>
      <trkpt lat="44.37572" lon="5.51755">
        <ele>722.7</ele>
        <time>2023-04-06T09:25:26Z</time>
      </trkpt>
      <trkpt lat="44.37568" lon="5.51761">
        <ele>722.4</ele>
        <time>2023-04-06T09:25:27Z</time>
      </trkpt>
      <trkpt lat="44.37564" lon="5.51768">
        <ele>722.3</ele>
        <time>2023-04-06T09:25:28Z</time>
      </trkpt>
      <trkpt lat="44.3756" lon="5.51775">
        <ele>722.1</ele>
        <time>2023-04-06T09:25:29Z</time>
      </trkpt>
      <trkpt lat="44.37556" lon="5.51782">
        <ele>721.9</ele>
        <time>2023-04-06T09:25:30Z</time>
      </trkpt>
      <trkpt lat="44.37552" lon="5.51787">
        <ele>721.6</ele>
        <time>2023-04-06T09:25:31Z</time>
      </trkpt>
      <trkpt lat="44.37547" lon="5.51793">
        <ele>721.4</ele>
        <time>2023-04-06T09:25:32Z</time>
      </trkpt>
      <trkpt lat="44.37538" lon="5.51805">
        <ele>720.9</ele>
        <time>2023-04-06T09:25:34Z</time>
      </trkpt>
      <trkpt lat="44.37533" lon="5.51811">
        <ele>720.6</ele>
        <time>2023-04-06T09:25:35Z</time>
      </trkpt>
      <trkpt lat="44.37529" lon="5.51817">
        <ele>720.3</ele>
        <time>2023-04-06T09:25:36Z</time>
      </trkpt>
      <trkpt lat="44.37524" lon="5.51823">
        <ele>720</ele>
        <time>2023-04-06T09:25:37Z</time>
      </trkpt>
      <trkpt lat="44.37519" lon="5.5183">
        <ele>719.7</ele>
        <time>2023-04-06T09:25:38Z</time>
      </trkpt>
      <trkpt lat="44.37514" lon="5.51836">
        <ele>719.4</ele>
        <time>2023-04-06T09:25:39Z</time>
      </trkpt>
      <trkpt lat="44.37509" lon="5.51844">
        <ele>719.1</ele>
        <time>2023-04-06T09:25:40Z</time>
      </trkpt>
      <trkpt lat="44.37504" lon="5.51851">
        <ele>718.7</ele>
        <time>2023-04-06T09:25:41Z</time>
      </trkpt>
      <trkpt lat="44.37499" lon="5.51859">
        <ele>718.3</ele>
        <time>2023-04-06T09:25:42Z</time>
      </trkpt>
      <trkpt lat="44.37494" lon="5.51866">
        <ele>717.9</ele>
        <time>2023-04-06T09:25:43Z</time>
      </trkpt>
      <trkpt lat="44.37483" lon="5.5188">
        <ele>717.2</ele>
        <time>2023-04-06T09:25:45Z</time>
      </trkpt>
      <trkpt lat="44.37478" lon="5.51887">
        <ele>716.8</ele>
        <time>2023-04-06T09:25:46Z</time>
      </trkpt>
      <trkpt lat="44.37472" lon="5.51895">
        <ele>716.3</ele>
        <time>2023-04-06T09:25:47Z</time>
      </trkpt>
      <trkpt lat="44.37466" lon="5.51903">
        <ele>715.8</ele>
        <time>2023-04-06T09:25:48Z</time>
      </trkpt>
      <trkpt lat="44.3746" lon="5.51912">
        <ele>715.4</ele>
        <time>2023-04-06T09:25:49Z</time>
      </trkpt>
      <trkpt lat="44.37454" lon="5.5192">
        <ele>714.9</ele>
        <time>2023-04-06T09:25:50Z</time>
      </trkpt>
      <trkpt lat="44.37447" lon="5.51928">
        <ele>714.5</ele>
        <time>2023-04-06T09:25:51Z</time>
      </trkpt>
      <trkpt lat="44.37441" lon="5.51936">
        <ele>714</ele>
        <time>2023-04-06T09:25:52Z</time>
      </trkpt>
      <trkpt lat="44.37435" lon="5.51944">
        <ele>713.6</ele>
        <time>2023-04-06T09:25:53Z</time>
      </trkpt>
      <trkpt lat="44.37429" lon="5.51953">
        <ele>713.2</ele>
        <time>2023-04-06T09:25:54Z</time>
      </trkpt>
      <trkpt lat="44.37422" lon="5.51961">
        <ele>712.8</ele>
        <time>2023-04-06T09:25:55Z</time>
      </trkpt>
      <trkpt lat="44.37416" lon="5.51969">
        <ele>712.5</ele>
        <time>2023-04-06T09:25:56Z</time>
      </trkpt>
      <trkpt lat="44.37409" lon="5.51976">
        <ele>712.2</ele>
        <time>2023-04-06T09:25:57Z</time>
      </trkpt>
      <trkpt lat="44.37402" lon="5.51983">
        <ele>712</ele>
        <time>2023-04-06T09:25:58Z</time>
      </trkpt>
      <trkpt lat="44.37395" lon="5.51989">
        <ele>711.8</ele>
        <time>2023-04-06T09:25:59Z</time>
      </trkpt>
      <trkpt lat="44.37376" lon="5.52007">
        <ele>711.5</ele>
        <time>2023-04-06T09:26:02Z</time>
      </trkpt>
      <trkpt lat="44.3737" lon="5.52013">
        <ele>711.4</ele>
        <time>2023-04-06T09:26:03Z</time>
      </trkpt>
      <trkpt lat="44.37363" lon="5.52018">
        <ele>711.3</ele>
        <time>2023-04-06T09:26:04Z</time>
      </trkpt>
      <trkpt lat="44.37358" lon="5.52023">
        <ele>711.2</ele>
        <time>2023-04-06T09:26:05Z</time>
      </trkpt>
      <trkpt lat="44.37351" lon="5.52028">
        <ele>711.1</ele>
        <time>2023-04-06T09:26:07Z</time>
      </trkpt>
      <trkpt lat="44.3734" lon="5.52038">
        <ele>711</ele>
        <time>2023-04-06T09:26:08Z</time>
      </trkpt>
      <trkpt lat="44.37335" lon="5.52043">
        <ele>710.9</ele>
        <time>2023-04-06T09:26:09Z</time>
      </trkpt>
      <trkpt lat="44.37329" lon="5.52048">
        <ele>710.8</ele>
        <time>2023-04-06T09:26:10Z</time>
      </trkpt>
      <trkpt lat="44.37325" lon="5.52053">
        <ele>710.7</ele>
        <time>2023-04-06T09:26:11Z</time>
      </trkpt>
      <trkpt lat="44.3732" lon="5.52059">
        <ele>710.5</ele>
        <time>2023-04-06T09:26:12Z</time>
      </trkpt>
      <trkpt lat="44.37317" lon="5.52064">
        <ele>710.4</ele>
        <time>2023-04-06T09:26:13Z</time>
      </trkpt>
      <trkpt lat="44.37313" lon="5.5207">
        <ele>710.3</ele>
        <time>2023-04-06T09:26:14Z</time>
      </trkpt>
      <trkpt lat="44.37309" lon="5.52076">
        <ele>710.2</ele>
        <time>2023-04-06T09:26:15Z</time>
      </trkpt>
      <trkpt lat="44.37305" lon="5.52083">
        <ele>710.1</ele>
        <time>2023-04-06T09:26:16Z</time>
      </trkpt>
      <trkpt lat="44.37302" lon="5.52089">
        <ele>710</ele>
        <time>2023-04-06T09:26:17Z</time>
      </trkpt>
      <trkpt lat="44.37299" lon="5.52095">
        <ele>709.8</ele>
        <time>2023-04-06T09:26:18Z</time>
      </trkpt>
      <trkpt lat="44.37295" lon="5.52102">
        <ele>709.7</ele>
        <time>2023-04-06T09:26:19Z</time>
      </trkpt>
      <trkpt lat="44.37292" lon="5.52109">
        <ele>709.6</ele>
        <time>2023-04-06T09:26:20Z</time>
      </trkpt>
      <trkpt lat="44.37289" lon="5.52116">
        <ele>709.5</ele>
        <time>2023-04-06T09:26:21Z</time>
      </trkpt>
      <trkpt lat="44.37286" lon="5.52123">
        <ele>709.4</ele>
        <time>2023-04-06T09:26:22Z</time>
      </trkpt>
      <trkpt lat="44.37283" lon="5.5213">
        <ele>709.2</ele>
        <time>2023-04-06T09:26:23Z</time>
      </trkpt>
      <trkpt lat="44.3728" lon="5.52137">
        <ele>709.1</ele>
        <time>2023-04-06T09:26:24Z</time>
      </trkpt>
      <trkpt lat="44.37277" lon="5.52144">
        <ele>709</ele>
        <time>2023-04-06T09:26:25Z</time>
      </trkpt>
      <trkpt lat="44.37274" lon="5.52151">
        <ele>708.9</ele>
        <time>2023-04-06T09:26:26Z</time>
      </trkpt>
      <trkpt lat="44.37271" lon="5.52158">
        <ele>708.8</ele>
        <time>2023-04-06T09:26:27Z</time>
      </trkpt>
      <trkpt lat="44.37268" lon="5.52164">
        <ele>708.8</ele>
        <time>2023-04-06T09:26:28Z</time>
      </trkpt>
      <trkpt lat="44.37266" lon="5.52169">
        <ele>708.7</ele>
        <time>2023-04-06T09:26:29Z</time>
      </trkpt>
      <trkpt lat="44.37264" lon="5.52171">
        <ele>708.7</ele>
        <time>2023-04-06T09:26:30Z</time>
      </trkpt>
      <trkpt lat="44.37263" lon="5.52172">
        <ele>708.7</ele>
        <time>2023-04-06T09:26:31Z</time>
      </trkpt>
      <trkpt lat="44.37263" lon="5.5217">
        <ele>708.7</ele>
        <time>2023-04-06T09:26:32Z</time>
      </trkpt>
      <trkpt lat="44.37263" lon="5.5217">
        <ele>708.7</ele>
        <time>2023-04-06T09:26:33Z</time>
      </trkpt>
      <trkpt lat="44.37263" lon="5.5217">
        <ele>708.7</ele>
        <time>2023-04-06T09:26:34Z</time>
      </trkpt>
      <trkpt lat="44.37264" lon="5.5217">
        <ele>708.7</ele>
        <time>2023-04-06T09:26:35Z</time>
      </trkpt>
      <trkpt lat="44.37264" lon="5.5217">
        <ele>708.7</ele>
        <time>2023-04-06T09:26:36Z</time>
      </trkpt>
      <trkpt lat="44.37264" lon="5.52169">
        <ele>708.7</ele>
        <time>2023-04-06T09:26:37Z</time>
      </trkpt>
      <trkpt lat="44.37264" lon="5.52169">
        <ele>708.7</ele>
        <time>2023-04-06T09:26:38Z</time>
      </trkpt>
      <trkpt lat="44.37264" lon="5.52169">
        <ele>708.7</ele>
        <time>2023-04-06T09:26:39Z</time>
      </trkpt>
      <trkpt lat="44.37264" lon="5.52169">
        <ele>708.7</ele>
        <time>2023-04-06T09:26:40Z</time>
      </trkpt>
      <trkpt lat="44.37264" lon="5.52169">
        <ele>708.7</ele>
        <time>2023-04-06T09:26:41Z</time>
      </trkpt>
      <trkpt lat="44.37264" lon="5.52169">
        <ele>708.7</ele>
        <time>2023-04-06T09:26:42Z</time>
      </trkpt>
      <trkpt lat="44.37264" lon="5.52169">
        <ele>708.7</ele>
        <time>2023-04-06T09:26:43Z</time>
      </trkpt>
      <trkpt lat="44.37264" lon="5.52169">
        <ele>708.7</ele>
        <time>2023-04-06T09:26:44Z</time>
      </trkpt>
      <trkpt lat="44.37264" lon="5.52169">
        <ele>708.7</ele>
        <time>2023-04-06T09:26:45Z</time>
      </trkpt>
      <trkpt lat="44.37259" lon="5.52182">
        <ele>708.6</ele>
        <time>2023-04-06T09:26:56Z</time>
      </trkpt>
      <trkpt lat="44.37257" lon="5.52187">
        <ele>708.5</ele>
        <time>2023-04-06T09:26:57Z</time>
      </trkpt>
      <trkpt lat="44.37254" lon="5.52192">
        <ele>708.5</ele>
        <time>2023-04-06T09:26:58Z</time>
      </trkpt>
      <trkpt lat="44.37251" lon="5.52198">
        <ele>708.4</ele>
        <time>2023-04-06T09:26:59Z</time>
      </trkpt>
      <trkpt lat="44.37248" lon="5.52204">
        <ele>708.4</ele>
        <time>2023-04-06T09:27:00Z</time>
      </trkpt>
      <trkpt lat="44.37245" lon="5.52211">
        <ele>708.3</ele>
        <time>2023-04-06T09:27:01Z</time>
      </trkpt>
      <trkpt lat="44.37243" lon="5.52218">
        <ele>708.2</ele>
        <time>2023-04-06T09:27:02Z</time>
      </trkpt>
      <trkpt lat="44.3724" lon="5.52225">
        <ele>708.2</ele>
        <time>2023-04-06T09:27:03Z</time>
      </trkpt>
      <trkpt lat="44.37237" lon="5.52231">
        <ele>708.2</ele>
        <time>2023-04-06T09:27:04Z</time>
      </trkpt>
      <trkpt lat="44.37231" lon="5.52244">
        <ele>708.1</ele>
        <time>2023-04-06T09:27:06Z</time>
      </trkpt>
      <trkpt lat="44.37227" lon="5.52251">
        <ele>708</ele>
        <time>2023-04-06T09:27:07Z</time>
      </trkpt>
      <trkpt lat="44.37223" lon="5.52257">
        <ele>708</ele>
        <time>2023-04-06T09:27:08Z</time>
      </trkpt>
      <trkpt lat="44.37218" lon="5.52262">
        <ele>707.9</ele>
        <time>2023-04-06T09:27:09Z</time>
      </trkpt>
      <trkpt lat="44.37213" lon="5.52267">
        <ele>707.9</ele>
        <time>2023-04-06T09:27:10Z</time>
      </trkpt>
      <trkpt lat="44.37208" lon="5.52271">
        <ele>707.8</ele>
        <time>2023-04-06T09:27:11Z</time>
      </trkpt>
      <trkpt lat="44.37204" lon="5.52276">
        <ele>707.8</ele>
        <time>2023-04-06T09:27:12Z</time>
      </trkpt>
      <trkpt lat="44.37194" lon="5.52285">
        <ele>707.6</ele>
        <time>2023-04-06T09:27:14Z</time>
      </trkpt>
      <trkpt lat="44.37189" lon="5.5229">
        <ele>707.6</ele>
        <time>2023-04-06T09:27:15Z</time>
      </trkpt>
      <trkpt lat="44.37184" lon="5.52295">
        <ele>707.5</ele>
        <time>2023-04-06T09:27:16Z</time>
      </trkpt>
      <trkpt lat="44.37179" lon="5.523">
        <ele>707.4</ele>
        <time>2023-04-06T09:27:17Z</time>
      </trkpt>
      <trkpt lat="44.37174" lon="5.52304">
        <ele>707.3</ele>
        <time>2023-04-06T09:27:18Z</time>
      </trkpt>
      <trkpt lat="44.37165" lon="5.52314">
        <ele>707</ele>
        <time>2023-04-06T09:27:20Z</time>
      </trkpt>
      <trkpt lat="44.3716" lon="5.52319">
        <ele>706.9</ele>
        <time>2023-04-06T09:27:21Z</time>
      </trkpt>
      <trkpt lat="44.37155" lon="5.52323">
        <ele>706.7</ele>
        <time>2023-04-06T09:27:22Z</time>
      </trkpt>
      <trkpt lat="44.3715" lon="5.52328">
        <ele>706.6</ele>
        <time>2023-04-06T09:27:23Z</time>
      </trkpt>
      <trkpt lat="44.37145" lon="5.52332">
        <ele>706.4</ele>
        <time>2023-04-06T09:27:24Z</time>
      </trkpt>
      <trkpt lat="44.3714" lon="5.52337">
        <ele>706.3</ele>
        <time>2023-04-06T09:27:25Z</time>
      </trkpt>
      <trkpt lat="44.37134" lon="5.52341">
        <ele>706.1</ele>
        <time>2023-04-06T09:27:26Z</time>
      </trkpt>
      <trkpt lat="44.37129" lon="5.52345">
        <ele>705.9</ele>
        <time>2023-04-06T09:27:27Z</time>
      </trkpt>
      <trkpt lat="44.37123" lon="5.52349">
        <ele>705.7</ele>
        <time>2023-04-06T09:27:28Z</time>
      </trkpt>
      <trkpt lat="44.37118" lon="5.52353">
        <ele>705.6</ele>
        <time>2023-04-06T09:27:29Z</time>
      </trkpt>
      <trkpt lat="44.37107" lon="5.5236">
        <ele>705.3</ele>
        <time>2023-04-06T09:27:31Z</time>
      </trkpt>
      <trkpt lat="44.37102" lon="5.52364">
        <ele>705.2</ele>
        <time>2023-04-06T09:27:32Z</time>
      </trkpt>
      <trkpt lat="44.37096" lon="5.52367">
        <ele>705</ele>
        <time>2023-04-06T09:27:33Z</time>
      </trkpt>
      <trkpt lat="44.37091" lon="5.5237">
        <ele>704.8</ele>
        <time>2023-04-06T09:27:34Z</time>
      </trkpt>
      <trkpt lat="44.37085" lon="5.52374">
        <ele>704.7</ele>
        <time>2023-04-06T09:27:35Z</time>
      </trkpt>
      <trkpt lat="44.3708" lon="5.52377">
        <ele>704.6</ele>
        <time>2023-04-06T09:27:36Z</time>
      </trkpt>
      <trkpt lat="44.37074" lon="5.5238">
        <ele>704.4</ele>
        <time>2023-04-06T09:27:37Z</time>
      </trkpt>
      <trkpt lat="44.37069" lon="5.52382">
        <ele>704.3</ele>
        <time>2023-04-06T09:27:38Z</time>
      </trkpt>
      <trkpt lat="44.37063" lon="5.52384">
        <ele>704.1</ele>
        <time>2023-04-06T09:27:39Z</time>
      </trkpt>
      <trkpt lat="44.37058" lon="5.52387">
        <ele>704</ele>
        <time>2023-04-06T09:27:40Z</time>
      </trkpt>
      <trkpt lat="44.37046" lon="5.52391">
        <ele>703.7</ele>
        <time>2023-04-06T09:27:42Z</time>
      </trkpt>
      <trkpt lat="44.3704" lon="5.52394">
        <ele>703.6</ele>
        <time>2023-04-06T09:27:43Z</time>
      </trkpt>
      <trkpt lat="44.37034" lon="5.52396">
        <ele>703.4</ele>
        <time>2023-04-06T09:27:44Z</time>
      </trkpt>
      <trkpt lat="44.37028" lon="5.52398">
        <ele>703.2</ele>
        <time>2023-04-06T09:27:45Z</time>
      </trkpt>
      <trkpt lat="44.37023" lon="5.52399">
        <ele>703.1</ele>
        <time>2023-04-06T09:27:46Z</time>
      </trkpt>
      <trkpt lat="44.37017" lon="5.52401">
        <ele>703</ele>
        <time>2023-04-06T09:27:47Z</time>
      </trkpt>
      <trkpt lat="44.37011" lon="5.52402">
        <ele>702.8</ele>
        <time>2023-04-06T09:27:48Z</time>
      </trkpt>
      <trkpt lat="44.37005" lon="5.52404">
        <ele>702.7</ele>
        <time>2023-04-06T09:27:49Z</time>
      </trkpt>
      <trkpt lat="44.36999" lon="5.52406">
        <ele>702.6</ele>
        <time>2023-04-06T09:27:50Z</time>
      </trkpt>
      <trkpt lat="44.36994" lon="5.52407">
        <ele>702.4</ele>
        <time>2023-04-06T09:27:51Z</time>
      </trkpt>
      <trkpt lat="44.36987" lon="5.52409">
        <ele>702.3</ele>
        <time>2023-04-06T09:27:52Z</time>
      </trkpt>
      <trkpt lat="44.36981" lon="5.52411">
        <ele>702.1</ele>
        <time>2023-04-06T09:27:53Z</time>
      </trkpt>
      <trkpt lat="44.36975" lon="5.52412">
        <ele>701.9</ele>
        <time>2023-04-06T09:27:54Z</time>
      </trkpt>
      <trkpt lat="44.36968" lon="5.52414">
        <ele>701.8</ele>
        <time>2023-04-06T09:27:55Z</time>
      </trkpt>
      <trkpt lat="44.36962" lon="5.52415">
        <ele>701.6</ele>
        <time>2023-04-06T09:27:56Z</time>
      </trkpt>
      <trkpt lat="44.36951" lon="5.52418">
        <ele>701.2</ele>
        <time>2023-04-06T09:27:58Z</time>
      </trkpt>
      <trkpt lat="44.36945" lon="5.5242">
        <ele>701</ele>
        <time>2023-04-06T09:27:59Z</time>
      </trkpt>
      <trkpt lat="44.36939" lon="5.52421">
        <ele>700.9</ele>
        <time>2023-04-06T09:28:00Z</time>
      </trkpt>
      <trkpt lat="44.36933" lon="5.52424">
        <ele>700.7</ele>
        <time>2023-04-06T09:28:01Z</time>
      </trkpt>
      <trkpt lat="44.36928" lon="5.52428">
        <ele>700.5</ele>
        <time>2023-04-06T09:28:02Z</time>
      </trkpt>
      <trkpt lat="44.3692" lon="5.52442">
        <ele>700</ele>
        <time>2023-04-06T09:28:04Z</time>
      </trkpt>
      <trkpt lat="44.36917" lon="5.5245">
        <ele>699.8</ele>
        <time>2023-04-06T09:28:05Z</time>
      </trkpt>
      <trkpt lat="44.36916" lon="5.52459">
        <ele>699.6</ele>
        <time>2023-04-06T09:28:06Z</time>
      </trkpt>
      <trkpt lat="44.36917" lon="5.52469">
        <ele>699.4</ele>
        <time>2023-04-06T09:28:07Z</time>
      </trkpt>
      <trkpt lat="44.3692" lon="5.52478">
        <ele>699.2</ele>
        <time>2023-04-06T09:28:08Z</time>
      </trkpt>
      <trkpt lat="44.36924" lon="5.52486">
        <ele>699</ele>
        <time>2023-04-06T09:28:09Z</time>
      </trkpt>
      <trkpt lat="44.3693" lon="5.52492">
        <ele>698.8</ele>
        <time>2023-04-06T09:28:10Z</time>
      </trkpt>
      <trkpt lat="44.36936" lon="5.52495">
        <ele>698.5</ele>
        <time>2023-04-06T09:28:11Z</time>
      </trkpt>
      <trkpt lat="44.36943" lon="5.52496">
        <ele>698.2</ele>
        <time>2023-04-06T09:28:12Z</time>
      </trkpt>
      <trkpt lat="44.36949" lon="5.52497">
        <ele>698</ele>
        <time>2023-04-06T09:28:13Z</time>
      </trkpt>
      <trkpt lat="44.36962" lon="5.525">
        <ele>697.4</ele>
        <time>2023-04-06T09:28:15Z</time>
      </trkpt>
      <trkpt lat="44.36968" lon="5.52501">
        <ele>697.2</ele>
        <time>2023-04-06T09:28:16Z</time>
      </trkpt>
      <trkpt lat="44.36974" lon="5.52503">
        <ele>697</ele>
        <time>2023-04-06T09:28:17Z</time>
      </trkpt>
      <trkpt lat="44.3698" lon="5.52504">
        <ele>696.7</ele>
        <time>2023-04-06T09:28:18Z</time>
      </trkpt>
      <trkpt lat="44.36987" lon="5.52505">
        <ele>696.5</ele>
        <time>2023-04-06T09:28:19Z</time>
      </trkpt>
      <trkpt lat="44.36993" lon="5.52507">
        <ele>696.2</ele>
        <time>2023-04-06T09:28:20Z</time>
      </trkpt>
      <trkpt lat="44.36999" lon="5.52509">
        <ele>695.9</ele>
        <time>2023-04-06T09:28:21Z</time>
      </trkpt>
      <trkpt lat="44.37005" lon="5.5251">
        <ele>695.7</ele>
        <time>2023-04-06T09:28:22Z</time>
      </trkpt>
      <trkpt lat="44.3701" lon="5.52512">
        <ele>695.5</ele>
        <time>2023-04-06T09:28:23Z</time>
      </trkpt>
      <trkpt lat="44.37016" lon="5.52513">
        <ele>695.2</ele>
        <time>2023-04-06T09:28:24Z</time>
      </trkpt>
      <trkpt lat="44.37022" lon="5.52514">
        <ele>695</ele>
        <time>2023-04-06T09:28:25Z</time>
      </trkpt>
      <trkpt lat="44.37028" lon="5.52514">
        <ele>694.7</ele>
        <time>2023-04-06T09:28:26Z</time>
      </trkpt>
      <trkpt lat="44.37035" lon="5.52515">
        <ele>694.4</ele>
        <time>2023-04-06T09:28:27Z</time>
      </trkpt>
      <trkpt lat="44.37041" lon="5.52516">
        <ele>694.2</ele>
        <time>2023-04-06T09:28:28Z</time>
      </trkpt>
      <trkpt lat="44.37048" lon="5.52518">
        <ele>694</ele>
        <time>2023-04-06T09:28:29Z</time>
      </trkpt>
      <trkpt lat="44.3706" lon="5.52526">
        <ele>693.5</ele>
        <time>2023-04-06T09:28:31Z</time>
      </trkpt>
      <trkpt lat="44.37065" lon="5.52533">
        <ele>693.3</ele>
        <time>2023-04-06T09:28:32Z</time>
      </trkpt>
      <trkpt lat="44.37068" lon="5.52542">
        <ele>693.1</ele>
        <time>2023-04-06T09:28:33Z</time>
      </trkpt>
      <trkpt lat="44.3707" lon="5.52552">
        <ele>692.8</ele>
        <time>2023-04-06T09:28:34Z</time>
      </trkpt>
      <trkpt lat="44.37072" lon="5.52563">
        <ele>692.5</ele>
        <time>2023-04-06T09:28:35Z</time>
      </trkpt>
      <trkpt lat="44.37073" lon="5.52574">
        <ele>692.1</ele>
        <time>2023-04-06T09:28:36Z</time>
      </trkpt>
      <trkpt lat="44.37074" lon="5.52585">
        <ele>691.8</ele>
        <time>2023-04-06T09:28:37Z</time>
      </trkpt>
      <trkpt lat="44.37075" lon="5.52596">
        <ele>691.5</ele>
        <time>2023-04-06T09:28:38Z</time>
      </trkpt>
      <trkpt lat="44.37076" lon="5.52606">
        <ele>691.2</ele>
        <time>2023-04-06T09:28:39Z</time>
      </trkpt>
      <trkpt lat="44.37077" lon="5.52617">
        <ele>690.8</ele>
        <time>2023-04-06T09:28:40Z</time>
      </trkpt>
      <trkpt lat="44.37082" lon="5.52638">
        <ele>690.1</ele>
        <time>2023-04-06T09:28:42Z</time>
      </trkpt>
      <trkpt lat="44.37085" lon="5.52647">
        <ele>689.7</ele>
        <time>2023-04-06T09:28:43Z</time>
      </trkpt>
      <trkpt lat="44.37089" lon="5.52657">
        <ele>689.4</ele>
        <time>2023-04-06T09:28:44Z</time>
      </trkpt>
      <trkpt lat="44.37093" lon="5.52666">
        <ele>689</ele>
        <time>2023-04-06T09:28:45Z</time>
      </trkpt>
      <trkpt lat="44.37097" lon="5.52675">
        <ele>688.5</ele>
        <time>2023-04-06T09:28:46Z</time>
      </trkpt>
      <trkpt lat="44.37104" lon="5.52695">
        <ele>687.6</ele>
        <time>2023-04-06T09:28:48Z</time>
      </trkpt>
      <trkpt lat="44.37106" lon="5.52705">
        <ele>687.1</ele>
        <time>2023-04-06T09:28:49Z</time>
      </trkpt>
      <trkpt lat="44.37109" lon="5.52716">
        <ele>686.7</ele>
        <time>2023-04-06T09:28:50Z</time>
      </trkpt>
      <trkpt lat="44.37111" lon="5.52727">
        <ele>686.3</ele>
        <time>2023-04-06T09:28:51Z</time>
      </trkpt>
      <trkpt lat="44.37113" lon="5.52737">
        <ele>685.9</ele>
        <time>2023-04-06T09:28:52Z</time>
      </trkpt>
      <trkpt lat="44.37116" lon="5.52759">
        <ele>685.1</ele>
        <time>2023-04-06T09:28:54Z</time>
      </trkpt>
      <trkpt lat="44.37118" lon="5.52769">
        <ele>684.6</ele>
        <time>2023-04-06T09:28:55Z</time>
      </trkpt>
      <trkpt lat="44.3712" lon="5.5278">
        <ele>684.1</ele>
        <time>2023-04-06T09:28:56Z</time>
      </trkpt>
      <trkpt lat="44.37123" lon="5.5279">
        <ele>683.6</ele>
        <time>2023-04-06T09:28:57Z</time>
      </trkpt>
      <trkpt lat="44.37126" lon="5.52801">
        <ele>683.2</ele>
        <time>2023-04-06T09:28:58Z</time>
      </trkpt>
      <trkpt lat="44.37129" lon="5.52823">
        <ele>682.3</ele>
        <time>2023-04-06T09:29:00Z</time>
      </trkpt>
      <trkpt lat="44.37131" lon="5.52835">
        <ele>681.9</ele>
        <time>2023-04-06T09:29:01Z</time>
      </trkpt>
      <trkpt lat="44.37131" lon="5.52847">
        <ele>681.4</ele>
        <time>2023-04-06T09:29:02Z</time>
      </trkpt>
      <trkpt lat="44.37132" lon="5.52858">
        <ele>681</ele>
        <time>2023-04-06T09:29:03Z</time>
      </trkpt>
      <trkpt lat="44.37132" lon="5.52869">
        <ele>680.5</ele>
        <time>2023-04-06T09:29:04Z</time>
      </trkpt>
      <trkpt lat="44.37131" lon="5.52881">
        <ele>680.1</ele>
        <time>2023-04-06T09:29:05Z</time>
      </trkpt>
      <trkpt lat="44.37129" lon="5.52892">
        <ele>679.7</ele>
        <time>2023-04-06T09:29:06Z</time>
      </trkpt>
      <trkpt lat="44.37127" lon="5.52904">
        <ele>679.2</ele>
        <time>2023-04-06T09:29:07Z</time>
      </trkpt>
      <trkpt lat="44.37125" lon="5.52915">
        <ele>678.7</ele>
        <time>2023-04-06T09:29:08Z</time>
      </trkpt>
      <trkpt lat="44.37125" lon="5.52928">
        <ele>678.3</ele>
        <time>2023-04-06T09:29:09Z</time>
      </trkpt>
      <trkpt lat="44.37126" lon="5.52951">
        <ele>677.3</ele>
        <time>2023-04-06T09:29:11Z</time>
      </trkpt>
      <trkpt lat="44.37126" lon="5.52963">
        <ele>676.8</ele>
        <time>2023-04-06T09:29:12Z</time>
      </trkpt>
      <trkpt lat="44.37125" lon="5.52975">
        <ele>676.3</ele>
        <time>2023-04-06T09:29:13Z</time>
      </trkpt>
      <trkpt lat="44.37122" lon="5.52985">
        <ele>675.8</ele>
        <time>2023-04-06T09:29:14Z</time>
      </trkpt>
      <trkpt lat="44.37116" lon="5.52994">
        <ele>675.4</ele>
        <time>2023-04-06T09:29:15Z</time>
      </trkpt>
      <trkpt lat="44.37108" lon="5.53002">
        <ele>674.9</ele>
        <time>2023-04-06T09:29:16Z</time>
      </trkpt>
      <trkpt lat="44.371" lon="5.53009">
        <ele>674.5</ele>
        <time>2023-04-06T09:29:17Z</time>
      </trkpt>
      <trkpt lat="44.37094" lon="5.53017">
        <ele>674.1</ele>
        <time>2023-04-06T09:29:18Z</time>
      </trkpt>
      <trkpt lat="44.3709" lon="5.53027">
        <ele>673.7</ele>
        <time>2023-04-06T09:29:19Z</time>
      </trkpt>
      <trkpt lat="44.3709" lon="5.53041">
        <ele>673.2</ele>
        <time>2023-04-06T09:29:20Z</time>
      </trkpt>
      <trkpt lat="44.37096" lon="5.53067">
        <ele>672.6</ele>
        <time>2023-04-06T09:29:22Z</time>
      </trkpt>
      <trkpt lat="44.371" lon="5.53079">
        <ele>672.3</ele>
        <time>2023-04-06T09:29:23Z</time>
      </trkpt>
      <trkpt lat="44.37104" lon="5.5309">
        <ele>672</ele>
        <time>2023-04-06T09:29:24Z</time>
      </trkpt>
      <trkpt lat="44.37108" lon="5.53101">
        <ele>671.8</ele>
        <time>2023-04-06T09:29:25Z</time>
      </trkpt>
      <trkpt lat="44.37111" lon="5.53111">
        <ele>671.5</ele>
        <time>2023-04-06T09:29:26Z</time>
      </trkpt>
      <trkpt lat="44.37113" lon="5.53121">
        <ele>671.2</ele>
        <time>2023-04-06T09:29:27Z</time>
      </trkpt>
      <trkpt lat="44.37116" lon="5.53131">
        <ele>670.8</ele>
        <time>2023-04-06T09:29:28Z</time>
      </trkpt>
      <trkpt lat="44.37119" lon="5.53141">
        <ele>670.5</ele>
        <time>2023-04-06T09:29:29Z</time>
      </trkpt>
      <trkpt lat="44.37122" lon="5.53151">
        <ele>670.1</ele>
        <time>2023-04-06T09:29:30Z</time>
      </trkpt>
      <trkpt lat="44.37126" lon="5.53162">
        <ele>669.7</ele>
        <time>2023-04-06T09:29:31Z</time>
      </trkpt>
      <trkpt lat="44.3713" lon="5.53172">
        <ele>669.4</ele>
        <time>2023-04-06T09:29:32Z</time>
      </trkpt>
      <trkpt lat="44.37134" lon="5.53182">
        <ele>669.1</ele>
        <time>2023-04-06T09:29:33Z</time>
      </trkpt>
      <trkpt lat="44.37137" lon="5.53193">
        <ele>668.8</ele>
        <time>2023-04-06T09:29:34Z</time>
      </trkpt>
      <trkpt lat="44.3714" lon="5.53202">
        <ele>668.6</ele>
        <time>2023-04-06T09:29:35Z</time>
      </trkpt>
      <trkpt lat="44.37142" lon="5.53213">
        <ele>668.3</ele>
        <time>2023-04-06T09:29:36Z</time>
      </trkpt>
      <trkpt lat="44.37142" lon="5.53224">
        <ele>668</ele>
        <time>2023-04-06T09:29:37Z</time>
      </trkpt>
      <trkpt lat="44.37141" lon="5.53235">
        <ele>667.6</ele>
        <time>2023-04-06T09:29:38Z</time>
      </trkpt>
      <trkpt lat="44.37138" lon="5.53245">
        <ele>667.3</ele>
        <time>2023-04-06T09:29:39Z</time>
      </trkpt>
      <trkpt lat="44.37134" lon="5.53254">
        <ele>667.1</ele>
        <time>2023-04-06T09:29:40Z</time>
      </trkpt>
      <trkpt lat="44.37127" lon="5.53263">
        <ele>666.9</ele>
        <time>2023-04-06T09:29:41Z</time>
      </trkpt>
      <trkpt lat="44.37115" lon="5.53279">
        <ele>666.8</ele>
        <time>2023-04-06T09:29:43Z</time>
      </trkpt>
      <trkpt lat="44.37109" lon="5.53286">
        <ele>666.8</ele>
        <time>2023-04-06T09:29:44Z</time>
      </trkpt>
      <trkpt lat="44.37104" lon="5.53292">
        <ele>666.9</ele>
        <time>2023-04-06T09:29:45Z</time>
      </trkpt>
      <trkpt lat="44.37099" lon="5.53298">
        <ele>666.9</ele>
        <time>2023-04-06T09:29:46Z</time>
      </trkpt>
      <trkpt lat="44.37095" lon="5.53304">
        <ele>666.9</ele>
        <time>2023-04-06T09:29:47Z</time>
      </trkpt>
      <trkpt lat="44.37091" lon="5.5331">
        <ele>666.9</ele>
        <time>2023-04-06T09:29:48Z</time>
      </trkpt>
      <trkpt lat="44.37086" lon="5.53315">
        <ele>667</ele>
        <time>2023-04-06T09:29:49Z</time>
      </trkpt>
      <trkpt lat="44.37082" lon="5.53319">
        <ele>667.1</ele>
        <time>2023-04-06T09:29:50Z</time>
      </trkpt>
      <trkpt lat="44.37078" lon="5.53323">
        <ele>667.3</ele>
        <time>2023-04-06T09:29:51Z</time>
      </trkpt>
      <trkpt lat="44.37073" lon="5.53325">
        <ele>667.4</ele>
        <time>2023-04-06T09:29:52Z</time>
      </trkpt>
      <trkpt lat="44.37069" lon="5.53327">
        <ele>667.6</ele>
        <time>2023-04-06T09:29:53Z</time>
      </trkpt>
      <trkpt lat="44.37065" lon="5.53328">
        <ele>667.7</ele>
        <time>2023-04-06T09:29:54Z</time>
      </trkpt>
      <trkpt lat="44.37061" lon="5.53328">
        <ele>667.8</ele>
        <time>2023-04-06T09:29:55Z</time>
      </trkpt>
      <trkpt lat="44.37057" lon="5.53327">
        <ele>667.9</ele>
        <time>2023-04-06T09:29:56Z</time>
      </trkpt>
      <trkpt lat="44.37053" lon="5.53326">
        <ele>668.1</ele>
        <time>2023-04-06T09:29:57Z</time>
      </trkpt>
      <trkpt lat="44.37048" lon="5.53324">
        <ele>668.2</ele>
        <time>2023-04-06T09:29:58Z</time>
      </trkpt>
      <trkpt lat="44.37044" lon="5.53322">
        <ele>668.3</ele>
        <time>2023-04-06T09:29:59Z</time>
      </trkpt>
      <trkpt lat="44.3704" lon="5.5332">
        <ele>668.5</ele>
        <time>2023-04-06T09:30:00Z</time>
      </trkpt>
      <trkpt lat="44.37036" lon="5.53318">
        <ele>668.6</ele>
        <time>2023-04-06T09:30:01Z</time>
      </trkpt>
      <trkpt lat="44.37032" lon="5.53315">
        <ele>668.7</ele>
        <time>2023-04-06T09:30:02Z</time>
      </trkpt>
      <trkpt lat="44.37029" lon="5.53313">
        <ele>668.9</ele>
        <time>2023-04-06T09:30:03Z</time>
      </trkpt>
      <trkpt lat="44.37026" lon="5.5331">
        <ele>669</ele>
        <time>2023-04-06T09:30:04Z</time>
      </trkpt>
      <trkpt lat="44.37023" lon="5.53307">
        <ele>669.2</ele>
        <time>2023-04-06T09:30:05Z</time>
      </trkpt>
      <trkpt lat="44.3702" lon="5.53305">
        <ele>669.3</ele>
        <time>2023-04-06T09:30:06Z</time>
      </trkpt>
      <trkpt lat="44.37017" lon="5.53303">
        <ele>669.5</ele>
        <time>2023-04-06T09:30:07Z</time>
      </trkpt>
      <trkpt lat="44.37015" lon="5.533">
        <ele>669.6</ele>
        <time>2023-04-06T09:30:08Z</time>
      </trkpt>
      <trkpt lat="44.37012" lon="5.53298">
        <ele>669.8</ele>
        <time>2023-04-06T09:30:09Z</time>
      </trkpt>
      <trkpt lat="44.37009" lon="5.53296">
        <ele>669.9</ele>
        <time>2023-04-06T09:30:10Z</time>
      </trkpt>
      <trkpt lat="44.37006" lon="5.53293">
        <ele>670.1</ele>
        <time>2023-04-06T09:30:11Z</time>
      </trkpt>
      <trkpt lat="44.37004" lon="5.53291">
        <ele>670.2</ele>
        <time>2023-04-06T09:30:12Z</time>
      </trkpt>
      <trkpt lat="44.37" lon="5.5329">
        <ele>670.4</ele>
        <time>2023-04-06T09:30:13Z</time>
      </trkpt>
      <trkpt lat="44.36997" lon="5.53288">
        <ele>670.6</ele>
        <time>2023-04-06T09:30:14Z</time>
      </trkpt>
      <trkpt lat="44.36994" lon="5.53287">
        <ele>670.8</ele>
        <time>2023-04-06T09:30:15Z</time>
      </trkpt>
      <trkpt lat="44.3699" lon="5.53285">
        <ele>670.9</ele>
        <time>2023-04-06T09:30:16Z</time>
      </trkpt>
      <trkpt lat="44.36987" lon="5.53284">
        <ele>671.1</ele>
        <time>2023-04-06T09:30:17Z</time>
      </trkpt>
      <trkpt lat="44.36984" lon="5.53283">
        <ele>671.3</ele>
        <time>2023-04-06T09:30:18Z</time>
      </trkpt>
      <trkpt lat="44.3698" lon="5.53284">
        <ele>671.4</ele>
        <time>2023-04-06T09:30:19Z</time>
      </trkpt>
      <trkpt lat="44.36977" lon="5.53285">
        <ele>671.6</ele>
        <time>2023-04-06T09:30:20Z</time>
      </trkpt>
      <trkpt lat="44.36974" lon="5.53287">
        <ele>671.7</ele>
        <time>2023-04-06T09:30:21Z</time>
      </trkpt>
      <trkpt lat="44.36971" lon="5.5329">
        <ele>671.8</ele>
        <time>2023-04-06T09:30:22Z</time>
      </trkpt>
      <trkpt lat="44.36967" lon="5.53293">
        <ele>672</ele>
        <time>2023-04-06T09:30:23Z</time>
      </trkpt>
      <trkpt lat="44.36964" lon="5.53296">
        <ele>672.1</ele>
        <time>2023-04-06T09:30:24Z</time>
      </trkpt>
      <trkpt lat="44.36962" lon="5.53299">
        <ele>672.2</ele>
        <time>2023-04-06T09:30:25Z</time>
      </trkpt>
      <trkpt lat="44.36959" lon="5.53302">
        <ele>672.2</ele>
        <time>2023-04-06T09:30:26Z</time>
      </trkpt>
      <trkpt lat="44.36957" lon="5.53306">
        <ele>672.3</ele>
        <time>2023-04-06T09:30:27Z</time>
      </trkpt>
      <trkpt lat="44.36954" lon="5.53309">
        <ele>672.4</ele>
        <time>2023-04-06T09:30:28Z</time>
      </trkpt>
      <trkpt lat="44.36951" lon="5.53312">
        <ele>672.5</ele>
        <time>2023-04-06T09:30:29Z</time>
      </trkpt>
      <trkpt lat="44.36948" lon="5.53316">
        <ele>672.6</ele>
        <time>2023-04-06T09:30:30Z</time>
      </trkpt>
      <trkpt lat="44.36946" lon="5.5332">
        <ele>672.7</ele>
        <time>2023-04-06T09:30:31Z</time>
      </trkpt>
      <trkpt lat="44.36943" lon="5.53323">
        <ele>672.8</ele>
        <time>2023-04-06T09:30:32Z</time>
      </trkpt>
      <trkpt lat="44.3694" lon="5.53327">
        <ele>672.9</ele>
        <time>2023-04-06T09:30:33Z</time>
      </trkpt>
      <trkpt lat="44.36938" lon="5.5333">
        <ele>673</ele>
        <time>2023-04-06T09:30:34Z</time>
      </trkpt>
      <trkpt lat="44.36935" lon="5.53333">
        <ele>673.1</ele>
        <time>2023-04-06T09:30:35Z</time>
      </trkpt>
      <trkpt lat="44.36932" lon="5.53336">
        <ele>673.2</ele>
        <time>2023-04-06T09:30:36Z</time>
      </trkpt>
      <trkpt lat="44.36929" lon="5.5334">
        <ele>673.3</ele>
        <time>2023-04-06T09:30:37Z</time>
      </trkpt>
      <trkpt lat="44.36927" lon="5.53343">
        <ele>673.4</ele>
        <time>2023-04-06T09:30:38Z</time>
      </trkpt>
      <trkpt lat="44.36924" lon="5.53347">
        <ele>673.5</ele>
        <time>2023-04-06T09:30:39Z</time>
      </trkpt>
      <trkpt lat="44.36922" lon="5.53351">
        <ele>673.7</ele>
        <time>2023-04-06T09:30:40Z</time>
      </trkpt>
      <trkpt lat="44.3692" lon="5.53354">
        <ele>673.8</ele>
        <time>2023-04-06T09:30:41Z</time>
      </trkpt>
      <trkpt lat="44.36917" lon="5.53358">
        <ele>673.9</ele>
        <time>2023-04-06T09:30:42Z</time>
      </trkpt>
      <trkpt lat="44.36915" lon="5.53361">
        <ele>674</ele>
        <time>2023-04-06T09:30:43Z</time>
      </trkpt>
      <trkpt lat="44.36913" lon="5.53365">
        <ele>674.1</ele>
        <time>2023-04-06T09:30:44Z</time>
      </trkpt>
      <trkpt lat="44.3691" lon="5.53368">
        <ele>674.2</ele>
        <time>2023-04-06T09:30:45Z</time>
      </trkpt>
      <trkpt lat="44.36908" lon="5.53371">
        <ele>674.4</ele>
        <time>2023-04-06T09:30:46Z</time>
      </trkpt>
      <trkpt lat="44.36906" lon="5.53375">
        <ele>674.5</ele>
        <time>2023-04-06T09:30:47Z</time>
      </trkpt>
      <trkpt lat="44.36903" lon="5.53378">
        <ele>674.6</ele>
        <time>2023-04-06T09:30:48Z</time>
      </trkpt>
      <trkpt lat="44.36901" lon="5.53382">
        <ele>674.7</ele>
        <time>2023-04-06T09:30:49Z</time>
      </trkpt>
      <trkpt lat="44.36898" lon="5.53385">
        <ele>674.8</ele>
        <time>2023-04-06T09:30:50Z</time>
      </trkpt>
      <trkpt lat="44.36896" lon="5.53389">
        <ele>674.9</ele>
        <time>2023-04-06T09:30:51Z</time>
      </trkpt>
      <trkpt lat="44.36893" lon="5.53393">
        <ele>675</ele>
        <time>2023-04-06T09:30:52Z</time>
      </trkpt>
      <trkpt lat="44.3689" lon="5.53396">
        <ele>675.1</ele>
        <time>2023-04-06T09:30:53Z</time>
      </trkpt>
      <trkpt lat="44.36888" lon="5.534">
        <ele>675.2</ele>
        <time>2023-04-06T09:30:54Z</time>
      </trkpt>
      <trkpt lat="44.36886" lon="5.53404">
        <ele>675.3</ele>
        <time>2023-04-06T09:30:55Z</time>
      </trkpt>
      <trkpt lat="44.36884" lon="5.53408">
        <ele>675.3</ele>
        <time>2023-04-06T09:30:56Z</time>
      </trkpt>
      <trkpt lat="44.36883" lon="5.53413">
        <ele>675.4</ele>
        <time>2023-04-06T09:30:57Z</time>
      </trkpt>
      <trkpt lat="44.36881" lon="5.53417">
        <ele>675.5</ele>
        <time>2023-04-06T09:30:58Z</time>
      </trkpt>
      <trkpt lat="44.3688" lon="5.53422">
        <ele>675.6</ele>
        <time>2023-04-06T09:30:59Z</time>
      </trkpt>
      <trkpt lat="44.36879" lon="5.53427">
        <ele>675.7</ele>
        <time>2023-04-06T09:31:00Z</time>
      </trkpt>
      <trkpt lat="44.36878" lon="5.53432">
        <ele>675.8</ele>
        <time>2023-04-06T09:31:01Z</time>
      </trkpt>
      <trkpt lat="44.36877" lon="5.53438">
        <ele>675.9</ele>
        <time>2023-04-06T09:31:02Z</time>
      </trkpt>
      <trkpt lat="44.36876" lon="5.53444">
        <ele>676</ele>
        <time>2023-04-06T09:31:03Z</time>
      </trkpt>
      <trkpt lat="44.36876" lon="5.5345">
        <ele>676.1</ele>
        <time>2023-04-06T09:31:04Z</time>
      </trkpt>
      <trkpt lat="44.36875" lon="5.53456">
        <ele>676.2</ele>
        <time>2023-04-06T09:31:05Z</time>
      </trkpt>
      <trkpt lat="44.36875" lon="5.53461">
        <ele>676.3</ele>
        <time>2023-04-06T09:31:06Z</time>
      </trkpt>
      <trkpt lat="44.36874" lon="5.53466">
        <ele>676.4</ele>
        <time>2023-04-06T09:31:07Z</time>
      </trkpt>
      <trkpt lat="44.36873" lon="5.53471">
        <ele>676.5</ele>
        <time>2023-04-06T09:31:08Z</time>
      </trkpt>
      <trkpt lat="44.36872" lon="5.53477">
        <ele>676.6</ele>
        <time>2023-04-06T09:31:09Z</time>
      </trkpt>
      <trkpt lat="44.36871" lon="5.53482">
        <ele>676.7</ele>
        <time>2023-04-06T09:31:10Z</time>
      </trkpt>
      <trkpt lat="44.3687" lon="5.53487">
        <ele>676.8</ele>
        <time>2023-04-06T09:31:11Z</time>
      </trkpt>
      <trkpt lat="44.36869" lon="5.53492">
        <ele>676.9</ele>
        <time>2023-04-06T09:31:12Z</time>
      </trkpt>
      <trkpt lat="44.36868" lon="5.53497">
        <ele>677.1</ele>
        <time>2023-04-06T09:31:13Z</time>
      </trkpt>
      <trkpt lat="44.36867" lon="5.53502">
        <ele>677.2</ele>
        <time>2023-04-06T09:31:14Z</time>
      </trkpt>
      <trkpt lat="44.36866" lon="5.53507">
        <ele>677.3</ele>
        <time>2023-04-06T09:31:15Z</time>
      </trkpt>
      <trkpt lat="44.36865" lon="5.53512">
        <ele>677.3</ele>
        <time>2023-04-06T09:31:16Z</time>
      </trkpt>
      <trkpt lat="44.36864" lon="5.53517">
        <ele>677.4</ele>
        <time>2023-04-06T09:31:17Z</time>
      </trkpt>
      <trkpt lat="44.36862" lon="5.53522">
        <ele>677.5</ele>
        <time>2023-04-06T09:31:18Z</time>
      </trkpt>
      <trkpt lat="44.3686" lon="5.53526">
        <ele>677.6</ele>
        <time>2023-04-06T09:31:19Z</time>
      </trkpt>
      <trkpt lat="44.36859" lon="5.5353">
        <ele>677.7</ele>
        <time>2023-04-06T09:31:20Z</time>
      </trkpt>
      <trkpt lat="44.36857" lon="5.53535">
        <ele>677.8</ele>
        <time>2023-04-06T09:31:21Z</time>
      </trkpt>
      <trkpt lat="44.36855" lon="5.5354">
        <ele>677.9</ele>
        <time>2023-04-06T09:31:22Z</time>
      </trkpt>
      <trkpt lat="44.36853" lon="5.53545">
        <ele>678</ele>
        <time>2023-04-06T09:31:23Z</time>
      </trkpt>
      <trkpt lat="44.36851" lon="5.53549">
        <ele>678</ele>
        <time>2023-04-06T09:31:24Z</time>
      </trkpt>
      <trkpt lat="44.3685" lon="5.53553">
        <ele>678.1</ele>
        <time>2023-04-06T09:31:25Z</time>
      </trkpt>
      <trkpt lat="44.36848" lon="5.53557">
        <ele>678.2</ele>
        <time>2023-04-06T09:31:26Z</time>
      </trkpt>
      <trkpt lat="44.36846" lon="5.53561">
        <ele>678.3</ele>
        <time>2023-04-06T09:31:27Z</time>
      </trkpt>
      <trkpt lat="44.36845" lon="5.53566">
        <ele>678.4</ele>
        <time>2023-04-06T09:31:28Z</time>
      </trkpt>
      <trkpt lat="44.36843" lon="5.53571">
        <ele>678.5</ele>
        <time>2023-04-06T09:31:29Z</time>
      </trkpt>
      <trkpt lat="44.36841" lon="5.53575">
        <ele>678.6</ele>
        <time>2023-04-06T09:31:30Z</time>
      </trkpt>
      <trkpt lat="44.36839" lon="5.5358">
        <ele>678.7</ele>
        <time>2023-04-06T09:31:31Z</time>
      </trkpt>
      <trkpt lat="44.36838" lon="5.53584">
        <ele>678.8</ele>
        <time>2023-04-06T09:31:32Z</time>
      </trkpt>
      <trkpt lat="44.36836" lon="5.53589">
        <ele>678.9</ele>
        <time>2023-04-06T09:31:33Z</time>
      </trkpt>
      <trkpt lat="44.36835" lon="5.53593">
        <ele>678.9</ele>
        <time>2023-04-06T09:31:34Z</time>
      </trkpt>
      <trkpt lat="44.36833" lon="5.53597">
        <ele>679</ele>
        <time>2023-04-06T09:31:35Z</time>
      </trkpt>
      <trkpt lat="44.36832" lon="5.53602">
        <ele>679.1</ele>
        <time>2023-04-06T09:31:36Z</time>
      </trkpt>
      <trkpt lat="44.3683" lon="5.53606">
        <ele>679.2</ele>
        <time>2023-04-06T09:31:37Z</time>
      </trkpt>
      <trkpt lat="44.36828" lon="5.53611">
        <ele>679.3</ele>
        <time>2023-04-06T09:31:38Z</time>
      </trkpt>
      <trkpt lat="44.36825" lon="5.53617">
        <ele>679.4</ele>
        <time>2023-04-06T09:31:39Z</time>
      </trkpt>
      <trkpt lat="44.36824" lon="5.53622">
        <ele>679.5</ele>
        <time>2023-04-06T09:31:40Z</time>
      </trkpt>
      <trkpt lat="44.36822" lon="5.53627">
        <ele>679.5</ele>
        <time>2023-04-06T09:31:41Z</time>
      </trkpt>
      <trkpt lat="44.3682" lon="5.53631">
        <ele>679.6</ele>
        <time>2023-04-06T09:31:42Z</time>
      </trkpt>
      <trkpt lat="44.36819" lon="5.53635">
        <ele>679.7</ele>
        <time>2023-04-06T09:31:43Z</time>
      </trkpt>
      <trkpt lat="44.36817" lon="5.5364">
        <ele>679.8</ele>
        <time>2023-04-06T09:31:44Z</time>
      </trkpt>
      <trkpt lat="44.36815" lon="5.53644">
        <ele>679.8</ele>
        <time>2023-04-06T09:31:45Z</time>
      </trkpt>
      <trkpt lat="44.36814" lon="5.53648">
        <ele>679.9</ele>
        <time>2023-04-06T09:31:46Z</time>
      </trkpt>
      <trkpt lat="44.36812" lon="5.53653">
        <ele>680</ele>
        <time>2023-04-06T09:31:47Z</time>
      </trkpt>
      <trkpt lat="44.3681" lon="5.53657">
        <ele>680</ele>
        <time>2023-04-06T09:31:48Z</time>
      </trkpt>
      <trkpt lat="44.36808" lon="5.53661">
        <ele>680.1</ele>
        <time>2023-04-06T09:31:49Z</time>
      </trkpt>
      <trkpt lat="44.36806" lon="5.53666">
        <ele>680.2</ele>
        <time>2023-04-06T09:31:50Z</time>
      </trkpt>
      <trkpt lat="44.36804" lon="5.53671">
        <ele>680.3</ele>
        <time>2023-04-06T09:31:51Z</time>
      </trkpt>
      <trkpt lat="44.36801" lon="5.53677">
        <ele>680.3</ele>
        <time>2023-04-06T09:31:52Z</time>
      </trkpt>
      <trkpt lat="44.36799" lon="5.53682">
        <ele>680.4</ele>
        <time>2023-04-06T09:31:53Z</time>
      </trkpt>
      <trkpt lat="44.36796" lon="5.53687">
        <ele>680.5</ele>
        <time>2023-04-06T09:31:54Z</time>
      </trkpt>
      <trkpt lat="44.36794" lon="5.53692">
        <ele>680.5</ele>
        <time>2023-04-06T09:31:55Z</time>
      </trkpt>
      <trkpt lat="44.36791" lon="5.53696">
        <ele>680.6</ele>
        <time>2023-04-06T09:31:56Z</time>
      </trkpt>
      <trkpt lat="44.36788" lon="5.537">
        <ele>680.6</ele>
        <time>2023-04-06T09:31:57Z</time>
      </trkpt>
      <trkpt lat="44.36786" lon="5.53704">
        <ele>680.7</ele>
        <time>2023-04-06T09:31:58Z</time>
      </trkpt>
      <trkpt lat="44.36784" lon="5.53708">
        <ele>680.7</ele>
        <time>2023-04-06T09:31:59Z</time>
      </trkpt>
      <trkpt lat="44.36781" lon="5.53712">
        <ele>680.8</ele>
        <time>2023-04-06T09:32:00Z</time>
      </trkpt>
      <trkpt lat="44.36778" lon="5.53717">
        <ele>680.8</ele>
        <time>2023-04-06T09:32:01Z</time>
      </trkpt>
      <trkpt lat="44.36775" lon="5.53722">
        <ele>680.9</ele>
        <time>2023-04-06T09:32:02Z</time>
      </trkpt>
      <trkpt lat="44.36773" lon="5.53725">
        <ele>681.1</ele>
        <time>2023-04-06T09:32:03Z</time>
      </trkpt>
      <trkpt lat="44.3677" lon="5.53728">
        <ele>681.2</ele>
        <time>2023-04-06T09:32:04Z</time>
      </trkpt>
      <trkpt lat="44.36767" lon="5.53731">
        <ele>681.3</ele>
        <time>2023-04-06T09:32:05Z</time>
      </trkpt>
      <trkpt lat="44.36763" lon="5.53734">
        <ele>681.4</ele>
        <time>2023-04-06T09:32:06Z</time>
      </trkpt>
      <trkpt lat="44.3676" lon="5.53736">
        <ele>681.6</ele>
        <time>2023-04-06T09:32:07Z</time>
      </trkpt>
      <trkpt lat="44.36756" lon="5.53739">
        <ele>681.8</ele>
        <time>2023-04-06T09:32:08Z</time>
      </trkpt>
      <trkpt lat="44.36753" lon="5.53741">
        <ele>681.9</ele>
        <time>2023-04-06T09:32:09Z</time>
      </trkpt>
      <trkpt lat="44.3675" lon="5.53743">
        <ele>682</ele>
        <time>2023-04-06T09:32:10Z</time>
      </trkpt>
      <trkpt lat="44.36747" lon="5.53746">
        <ele>682.2</ele>
        <time>2023-04-06T09:32:11Z</time>
      </trkpt>
      <trkpt lat="44.36744" lon="5.53748">
        <ele>682.3</ele>
        <time>2023-04-06T09:32:12Z</time>
      </trkpt>
      <trkpt lat="44.36741" lon="5.5375">
        <ele>682.4</ele>
        <time>2023-04-06T09:32:13Z</time>
      </trkpt>
      <trkpt lat="44.36738" lon="5.53753">
        <ele>682.6</ele>
        <time>2023-04-06T09:32:14Z</time>
      </trkpt>
      <trkpt lat="44.36736" lon="5.53756">
        <ele>682.7</ele>
        <time>2023-04-06T09:32:15Z</time>
      </trkpt>
      <trkpt lat="44.36733" lon="5.53759">
        <ele>682.9</ele>
        <time>2023-04-06T09:32:16Z</time>
      </trkpt>
      <trkpt lat="44.3673" lon="5.53761">
        <ele>683</ele>
        <time>2023-04-06T09:32:17Z</time>
      </trkpt>
      <trkpt lat="44.36728" lon="5.53764">
        <ele>683.1</ele>
        <time>2023-04-06T09:32:18Z</time>
      </trkpt>
      <trkpt lat="44.36726" lon="5.53767">
        <ele>683.3</ele>
        <time>2023-04-06T09:32:19Z</time>
      </trkpt>
      <trkpt lat="44.36724" lon="5.5377">
        <ele>683.4</ele>
        <time>2023-04-06T09:32:20Z</time>
      </trkpt>
      <trkpt lat="44.36722" lon="5.53774">
        <ele>683.5</ele>
        <time>2023-04-06T09:32:21Z</time>
      </trkpt>
      <trkpt lat="44.3672" lon="5.53777">
        <ele>683.6</ele>
        <time>2023-04-06T09:32:22Z</time>
      </trkpt>
      <trkpt lat="44.36718" lon="5.53781">
        <ele>683.8</ele>
        <time>2023-04-06T09:32:23Z</time>
      </trkpt>
      <trkpt lat="44.36717" lon="5.53784">
        <ele>683.9</ele>
        <time>2023-04-06T09:32:24Z</time>
      </trkpt>
      <trkpt lat="44.36715" lon="5.53788">
        <ele>684</ele>
        <time>2023-04-06T09:32:25Z</time>
      </trkpt>
      <trkpt lat="44.36713" lon="5.53792">
        <ele>684.1</ele>
        <time>2023-04-06T09:32:26Z</time>
      </trkpt>
      <trkpt lat="44.36712" lon="5.53797">
        <ele>684.2</ele>
        <time>2023-04-06T09:32:27Z</time>
      </trkpt>
      <trkpt lat="44.36711" lon="5.53801">
        <ele>684.3</ele>
        <time>2023-04-06T09:32:28Z</time>
      </trkpt>
      <trkpt lat="44.36709" lon="5.53806">
        <ele>684.4</ele>
        <time>2023-04-06T09:32:29Z</time>
      </trkpt>
      <trkpt lat="44.36708" lon="5.5381">
        <ele>684.5</ele>
        <time>2023-04-06T09:32:30Z</time>
      </trkpt>
      <trkpt lat="44.36707" lon="5.53815">
        <ele>684.6</ele>
        <time>2023-04-06T09:32:31Z</time>
      </trkpt>
      <trkpt lat="44.36706" lon="5.5382">
        <ele>684.7</ele>
        <time>2023-04-06T09:32:32Z</time>
      </trkpt>
      <trkpt lat="44.36704" lon="5.53824">
        <ele>684.9</ele>
        <time>2023-04-06T09:32:33Z</time>
      </trkpt>
      <trkpt lat="44.36703" lon="5.53829">
        <ele>685</ele>
        <time>2023-04-06T09:32:34Z</time>
      </trkpt>
      <trkpt lat="44.36702" lon="5.53833">
        <ele>685.1</ele>
        <time>2023-04-06T09:32:35Z</time>
      </trkpt>
      <trkpt lat="44.36701" lon="5.53837">
        <ele>685.2</ele>
        <time>2023-04-06T09:32:36Z</time>
      </trkpt>
      <trkpt lat="44.36699" lon="5.53842">
        <ele>685.3</ele>
        <time>2023-04-06T09:32:37Z</time>
      </trkpt>
      <trkpt lat="44.36699" lon="5.53846">
        <ele>685.5</ele>
        <time>2023-04-06T09:32:38Z</time>
      </trkpt>
      <trkpt lat="44.36698" lon="5.53851">
        <ele>685.6</ele>
        <time>2023-04-06T09:32:39Z</time>
      </trkpt>
      <trkpt lat="44.36698" lon="5.53855">
        <ele>685.7</ele>
        <time>2023-04-06T09:32:40Z</time>
      </trkpt>
      <trkpt lat="44.36698" lon="5.5386">
        <ele>685.8</ele>
        <time>2023-04-06T09:32:41Z</time>
      </trkpt>
      <trkpt lat="44.36698" lon="5.53864">
        <ele>685.9</ele>
        <time>2023-04-06T09:32:42Z</time>
      </trkpt>
      <trkpt lat="44.36697" lon="5.53872">
        <ele>686.1</ele>
        <time>2023-04-06T09:32:44Z</time>
      </trkpt>
      <trkpt lat="44.36697" lon="5.53877">
        <ele>686.2</ele>
        <time>2023-04-06T09:32:45Z</time>
      </trkpt>
      <trkpt lat="44.36698" lon="5.53882">
        <ele>686.4</ele>
        <time>2023-04-06T09:32:46Z</time>
      </trkpt>
      <trkpt lat="44.36698" lon="5.53887">
        <ele>686.5</ele>
        <time>2023-04-06T09:32:47Z</time>
      </trkpt>
      <trkpt lat="44.36699" lon="5.53891">
        <ele>686.6</ele>
        <time>2023-04-06T09:32:48Z</time>
      </trkpt>
      <trkpt lat="44.367" lon="5.53895">
        <ele>686.8</ele>
        <time>2023-04-06T09:32:49Z</time>
      </trkpt>
      <trkpt lat="44.36702" lon="5.539">
        <ele>686.9</ele>
        <time>2023-04-06T09:32:50Z</time>
      </trkpt>
      <trkpt lat="44.36703" lon="5.53904">
        <ele>687</ele>
        <time>2023-04-06T09:32:51Z</time>
      </trkpt>
      <trkpt lat="44.36704" lon="5.53908">
        <ele>687.1</ele>
        <time>2023-04-06T09:32:52Z</time>
      </trkpt>
      <trkpt lat="44.36706" lon="5.53912">
        <ele>687.2</ele>
        <time>2023-04-06T09:32:53Z</time>
      </trkpt>
      <trkpt lat="44.3671" lon="5.53921">
        <ele>687.4</ele>
        <time>2023-04-06T09:32:55Z</time>
      </trkpt>
      <trkpt lat="44.36712" lon="5.53925">
        <ele>687.4</ele>
        <time>2023-04-06T09:32:56Z</time>
      </trkpt>
      <trkpt lat="44.36714" lon="5.53929">
        <ele>687.5</ele>
        <time>2023-04-06T09:32:57Z</time>
      </trkpt>
      <trkpt lat="44.36716" lon="5.53933">
        <ele>687.6</ele>
        <time>2023-04-06T09:32:58Z</time>
      </trkpt>
      <trkpt lat="44.36718" lon="5.53937">
        <ele>687.7</ele>
        <time>2023-04-06T09:32:59Z</time>
      </trkpt>
      <trkpt lat="44.3672" lon="5.53941">
        <ele>687.9</ele>
        <time>2023-04-06T09:33:00Z</time>
      </trkpt>
      <trkpt lat="44.36721" lon="5.53945">
        <ele>688</ele>
        <time>2023-04-06T09:33:01Z</time>
      </trkpt>
      <trkpt lat="44.36723" lon="5.53948">
        <ele>688.1</ele>
        <time>2023-04-06T09:33:02Z</time>
      </trkpt>
      <trkpt lat="44.36725" lon="5.53952">
        <ele>688.2</ele>
        <time>2023-04-06T09:33:03Z</time>
      </trkpt>
      <trkpt lat="44.36727" lon="5.53955">
        <ele>688.4</ele>
        <time>2023-04-06T09:33:04Z</time>
      </trkpt>
      <trkpt lat="44.36731" lon="5.53962">
        <ele>688.6</ele>
        <time>2023-04-06T09:33:06Z</time>
      </trkpt>
      <trkpt lat="44.36733" lon="5.53966">
        <ele>688.8</ele>
        <time>2023-04-06T09:33:07Z</time>
      </trkpt>
      <trkpt lat="44.36735" lon="5.5397">
        <ele>688.9</ele>
        <time>2023-04-06T09:33:08Z</time>
      </trkpt>
      <trkpt lat="44.36737" lon="5.53973">
        <ele>689</ele>
        <time>2023-04-06T09:33:09Z</time>
      </trkpt>
      <trkpt lat="44.36739" lon="5.53977">
        <ele>689.1</ele>
        <time>2023-04-06T09:33:10Z</time>
      </trkpt>
      <trkpt lat="44.36741" lon="5.5398">
        <ele>689.2</ele>
        <time>2023-04-06T09:33:11Z</time>
      </trkpt>
      <trkpt lat="44.36743" lon="5.53983">
        <ele>689.4</ele>
        <time>2023-04-06T09:33:12Z</time>
      </trkpt>
      <trkpt lat="44.36745" lon="5.53987">
        <ele>689.5</ele>
        <time>2023-04-06T09:33:13Z</time>
      </trkpt>
      <trkpt lat="44.36748" lon="5.5399">
        <ele>689.6</ele>
        <time>2023-04-06T09:33:14Z</time>
      </trkpt>
      <trkpt lat="44.3675" lon="5.53993">
        <ele>689.8</ele>
        <time>2023-04-06T09:33:15Z</time>
      </trkpt>
      <trkpt lat="44.36753" lon="5.54">
        <ele>690.1</ele>
        <time>2023-04-06T09:33:17Z</time>
      </trkpt>
      <trkpt lat="44.36755" lon="5.54004">
        <ele>690.2</ele>
        <time>2023-04-06T09:33:18Z</time>
      </trkpt>
      <trkpt lat="44.36757" lon="5.54009">
        <ele>690.4</ele>
        <time>2023-04-06T09:33:19Z</time>
      </trkpt>
      <trkpt lat="44.36758" lon="5.54014">
        <ele>690.5</ele>
        <time>2023-04-06T09:33:20Z</time>
      </trkpt>
      <trkpt lat="44.36759" lon="5.54019">
        <ele>690.7</ele>
        <time>2023-04-06T09:33:21Z</time>
      </trkpt>
      <trkpt lat="44.3676" lon="5.54024">
        <ele>690.7</ele>
        <time>2023-04-06T09:33:22Z</time>
      </trkpt>
      <trkpt lat="44.3676" lon="5.54028">
        <ele>690.8</ele>
        <time>2023-04-06T09:33:23Z</time>
      </trkpt>
      <trkpt lat="44.3676" lon="5.54032">
        <ele>690.9</ele>
        <time>2023-04-06T09:33:24Z</time>
      </trkpt>
      <trkpt lat="44.3676" lon="5.54036">
        <ele>691</ele>
        <time>2023-04-06T09:33:25Z</time>
      </trkpt>
      <trkpt lat="44.3676" lon="5.54041">
        <ele>691</ele>
        <time>2023-04-06T09:33:26Z</time>
      </trkpt>
      <trkpt lat="44.3676" lon="5.54043">
        <ele>691.1</ele>
        <time>2023-04-06T09:33:27Z</time>
      </trkpt>
      <trkpt lat="44.3676" lon="5.54048">
        <ele>691.1</ele>
        <time>2023-04-06T09:33:28Z</time>
      </trkpt>
      <trkpt lat="44.3676" lon="5.54049">
        <ele>691.2</ele>
        <time>2023-04-06T09:33:29Z</time>
      </trkpt>
      <trkpt lat="44.3676" lon="5.54049">
        <ele>691.2</ele>
        <time>2023-04-06T09:33:30Z</time>
      </trkpt>
      <trkpt lat="44.3676" lon="5.54049">
        <ele>691.2</ele>
        <time>2023-04-06T09:33:31Z</time>
      </trkpt>
      <trkpt lat="44.3676" lon="5.54049">
        <ele>691.2</ele>
        <time>2023-04-06T09:33:33Z</time>
      </trkpt>
      <trkpt lat="44.3676" lon="5.54049">
        <ele>691.2</ele>
        <time>2023-04-06T09:33:34Z</time>
      </trkpt>
      <trkpt lat="44.3676" lon="5.54049">
        <ele>691.2</ele>
        <time>2023-04-06T09:33:35Z</time>
      </trkpt>
      <trkpt lat="44.3676" lon="5.54049">
        <ele>691.2</ele>
        <time>2023-04-06T09:33:36Z</time>
      </trkpt>
      <trkpt lat="44.3676" lon="5.54049">
        <ele>691.2</ele>
        <time>2023-04-06T09:33:37Z</time>
      </trkpt>
      <trkpt lat="44.3676" lon="5.54049">
        <ele>691.2</ele>
        <time>2023-04-06T09:33:38Z</time>
      </trkpt>
      <trkpt lat="44.3676" lon="5.54049">
        <ele>691.2</ele>
        <time>2023-04-06T09:33:39Z</time>
      </trkpt>
      <trkpt lat="44.3676" lon="5.54049">
        <ele>691.2</ele>
        <time>2023-04-06T09:33:40Z</time>
      </trkpt>
      <trkpt lat="44.3676" lon="5.54049">
        <ele>691.2</ele>
        <time>2023-04-06T09:33:41Z</time>
      </trkpt>
      <trkpt lat="44.36761" lon="5.54053">
        <ele>691.3</ele>
        <time>2023-04-06T09:34:22Z</time>
      </trkpt>
      <trkpt lat="44.36761" lon="5.5406">
        <ele>691.4</ele>
        <time>2023-04-06T09:34:24Z</time>
      </trkpt>
      <trkpt lat="44.36761" lon="5.54064">
        <ele>691.5</ele>
        <time>2023-04-06T09:34:25Z</time>
      </trkpt>
      <trkpt lat="44.36761" lon="5.54068">
        <ele>691.7</ele>
        <time>2023-04-06T09:34:26Z</time>
      </trkpt>
      <trkpt lat="44.36761" lon="5.54073">
        <ele>691.8</ele>
        <time>2023-04-06T09:34:27Z</time>
      </trkpt>
      <trkpt lat="44.36761" lon="5.54077">
        <ele>691.9</ele>
        <time>2023-04-06T09:34:28Z</time>
      </trkpt>
      <trkpt lat="44.36762" lon="5.54082">
        <ele>692.1</ele>
        <time>2023-04-06T09:34:29Z</time>
      </trkpt>
      <trkpt lat="44.36762" lon="5.54087">
        <ele>692.2</ele>
        <time>2023-04-06T09:34:30Z</time>
      </trkpt>
      <trkpt lat="44.36763" lon="5.54091">
        <ele>692.4</ele>
        <time>2023-04-06T09:34:31Z</time>
      </trkpt>
      <trkpt lat="44.36763" lon="5.54095">
        <ele>692.5</ele>
        <time>2023-04-06T09:34:32Z</time>
      </trkpt>
      <trkpt lat="44.36763" lon="5.541">
        <ele>692.7</ele>
        <time>2023-04-06T09:34:33Z</time>
      </trkpt>
      <trkpt lat="44.36763" lon="5.54108">
        <ele>693</ele>
        <time>2023-04-06T09:34:35Z</time>
      </trkpt>
      <trkpt lat="44.36763" lon="5.54113">
        <ele>693.1</ele>
        <time>2023-04-06T09:34:36Z</time>
      </trkpt>
      <trkpt lat="44.36764" lon="5.54117">
        <ele>693.2</ele>
        <time>2023-04-06T09:34:37Z</time>
      </trkpt>
      <trkpt lat="44.36764" lon="5.54121">
        <ele>693.4</ele>
        <time>2023-04-06T09:34:38Z</time>
      </trkpt>
      <trkpt lat="44.36764" lon="5.54125">
        <ele>693.5</ele>
        <time>2023-04-06T09:34:39Z</time>
      </trkpt>
      <trkpt lat="44.36765" lon="5.54135">
        <ele>693.7</ele>
        <time>2023-04-06T09:34:41Z</time>
      </trkpt>
      <trkpt lat="44.36765" lon="5.5414">
        <ele>693.9</ele>
        <time>2023-04-06T09:34:42Z</time>
      </trkpt>
      <trkpt lat="44.36765" lon="5.54145">
        <ele>694</ele>
        <time>2023-04-06T09:34:43Z</time>
      </trkpt>
      <trkpt lat="44.36765" lon="5.54149">
        <ele>694.1</ele>
        <time>2023-04-06T09:34:44Z</time>
      </trkpt>
      <trkpt lat="44.36765" lon="5.54154">
        <ele>694.2</ele>
        <time>2023-04-06T09:34:45Z</time>
      </trkpt>
      <trkpt lat="44.36765" lon="5.54159">
        <ele>694.3</ele>
        <time>2023-04-06T09:34:46Z</time>
      </trkpt>
      <trkpt lat="44.36765" lon="5.54164">
        <ele>694.4</ele>
        <time>2023-04-06T09:34:47Z</time>
      </trkpt>
      <trkpt lat="44.36765" lon="5.54168">
        <ele>694.5</ele>
        <time>2023-04-06T09:34:48Z</time>
      </trkpt>
      <trkpt lat="44.36765" lon="5.54173">
        <ele>694.6</ele>
        <time>2023-04-06T09:34:49Z</time>
      </trkpt>
      <trkpt lat="44.36764" lon="5.54177">
        <ele>694.6</ele>
        <time>2023-04-06T09:34:50Z</time>
      </trkpt>
      <trkpt lat="44.36764" lon="5.54182">
        <ele>694.7</ele>
        <time>2023-04-06T09:34:51Z</time>
      </trkpt>
      <trkpt lat="44.36763" lon="5.54187">
        <ele>694.8</ele>
        <time>2023-04-06T09:34:52Z</time>
      </trkpt>
      <trkpt lat="44.36763" lon="5.54192">
        <ele>694.9</ele>
        <time>2023-04-06T09:34:53Z</time>
      </trkpt>
      <trkpt lat="44.36763" lon="5.54197">
        <ele>695</ele>
        <time>2023-04-06T09:34:54Z</time>
      </trkpt>
      <trkpt lat="44.36762" lon="5.54202">
        <ele>695.1</ele>
        <time>2023-04-06T09:34:55Z</time>
      </trkpt>
      <trkpt lat="44.36761" lon="5.54213">
        <ele>695.2</ele>
        <time>2023-04-06T09:34:57Z</time>
      </trkpt>
      <trkpt lat="44.36761" lon="5.54218">
        <ele>695.3</ele>
        <time>2023-04-06T09:34:58Z</time>
      </trkpt>
      <trkpt lat="44.3676" lon="5.54223">
        <ele>695.4</ele>
        <time>2023-04-06T09:34:59Z</time>
      </trkpt>
      <trkpt lat="44.36759" lon="5.54228">
        <ele>695.5</ele>
        <time>2023-04-06T09:35:00Z</time>
      </trkpt>
      <trkpt lat="44.36759" lon="5.54234">
        <ele>695.6</ele>
        <time>2023-04-06T09:35:01Z</time>
      </trkpt>
      <trkpt lat="44.36758" lon="5.54239">
        <ele>695.7</ele>
        <time>2023-04-06T09:35:02Z</time>
      </trkpt>
      <trkpt lat="44.36757" lon="5.54244">
        <ele>695.8</ele>
        <time>2023-04-06T09:35:03Z</time>
      </trkpt>
      <trkpt lat="44.36756" lon="5.54249">
        <ele>695.9</ele>
        <time>2023-04-06T09:35:04Z</time>
      </trkpt>
      <trkpt lat="44.36756" lon="5.54254">
        <ele>696.1</ele>
        <time>2023-04-06T09:35:05Z</time>
      </trkpt>
      <trkpt lat="44.36756" lon="5.54259">
        <ele>696.2</ele>
        <time>2023-04-06T09:35:06Z</time>
      </trkpt>
      <trkpt lat="44.36755" lon="5.54268">
        <ele>696.5</ele>
        <time>2023-04-06T09:35:08Z</time>
      </trkpt>
      <trkpt lat="44.36754" lon="5.54273">
        <ele>696.7</ele>
        <time>2023-04-06T09:35:09Z</time>
      </trkpt>
      <trkpt lat="44.36754" lon="5.54277">
        <ele>696.8</ele>
        <time>2023-04-06T09:35:10Z</time>
      </trkpt>
      <trkpt lat="44.36753" lon="5.54282">
        <ele>697</ele>
        <time>2023-04-06T09:35:11Z</time>
      </trkpt>
      <trkpt lat="44.36752" lon="5.54286">
        <ele>697.2</ele>
        <time>2023-04-06T09:35:12Z</time>
      </trkpt>
      <trkpt lat="44.36752" lon="5.54291">
        <ele>697.3</ele>
        <time>2023-04-06T09:35:13Z</time>
      </trkpt>
      <trkpt lat="44.36752" lon="5.54295">
        <ele>697.5</ele>
        <time>2023-04-06T09:35:14Z</time>
      </trkpt>
      <trkpt lat="44.36751" lon="5.54299">
        <ele>697.6</ele>
        <time>2023-04-06T09:35:15Z</time>
      </trkpt>
      <trkpt lat="44.3675" lon="5.54304">
        <ele>697.8</ele>
        <time>2023-04-06T09:35:16Z</time>
      </trkpt>
      <trkpt lat="44.3675" lon="5.54309">
        <ele>697.9</ele>
        <time>2023-04-06T09:35:17Z</time>
      </trkpt>
      <trkpt lat="44.3675" lon="5.54314">
        <ele>698.1</ele>
        <time>2023-04-06T09:35:18Z</time>
      </trkpt>
      <trkpt lat="44.3675" lon="5.54319">
        <ele>698.2</ele>
        <time>2023-04-06T09:35:19Z</time>
      </trkpt>
      <trkpt lat="44.36751" lon="5.54324">
        <ele>698.3</ele>
        <time>2023-04-06T09:35:20Z</time>
      </trkpt>
      <trkpt lat="44.36751" lon="5.54329">
        <ele>698.4</ele>
        <time>2023-04-06T09:35:21Z</time>
      </trkpt>
      <trkpt lat="44.36752" lon="5.54334">
        <ele>698.6</ele>
        <time>2023-04-06T09:35:22Z</time>
      </trkpt>
      <trkpt lat="44.36753" lon="5.54339">
        <ele>698.7</ele>
        <time>2023-04-06T09:35:23Z</time>
      </trkpt>
      <trkpt lat="44.36754" lon="5.54345">
        <ele>698.8</ele>
        <time>2023-04-06T09:35:24Z</time>
      </trkpt>
      <trkpt lat="44.36756" lon="5.5435">
        <ele>698.9</ele>
        <time>2023-04-06T09:35:25Z</time>
      </trkpt>
      <trkpt lat="44.36757" lon="5.54356">
        <ele>699</ele>
        <time>2023-04-06T09:35:26Z</time>
      </trkpt>
      <trkpt lat="44.36758" lon="5.54362">
        <ele>699</ele>
        <time>2023-04-06T09:35:27Z</time>
      </trkpt>
      <trkpt lat="44.36759" lon="5.54368">
        <ele>699.1</ele>
        <time>2023-04-06T09:35:28Z</time>
      </trkpt>
      <trkpt lat="44.36762" lon="5.54379">
        <ele>699.1</ele>
        <time>2023-04-06T09:35:30Z</time>
      </trkpt>
      <trkpt lat="44.36764" lon="5.54384">
        <ele>699.2</ele>
        <time>2023-04-06T09:35:31Z</time>
      </trkpt>
      <trkpt lat="44.36765" lon="5.5439">
        <ele>699.2</ele>
        <time>2023-04-06T09:35:32Z</time>
      </trkpt>
      <trkpt lat="44.36766" lon="5.54395">
        <ele>699.2</ele>
        <time>2023-04-06T09:35:33Z</time>
      </trkpt>
      <trkpt lat="44.36768" lon="5.54401">
        <ele>699.3</ele>
        <time>2023-04-06T09:35:34Z</time>
      </trkpt>
      <trkpt lat="44.36769" lon="5.54406">
        <ele>699.3</ele>
        <time>2023-04-06T09:35:35Z</time>
      </trkpt>
      <trkpt lat="44.3677" lon="5.54411">
        <ele>699.3</ele>
        <time>2023-04-06T09:35:36Z</time>
      </trkpt>
      <trkpt lat="44.36771" lon="5.54416">
        <ele>699.4</ele>
        <time>2023-04-06T09:35:37Z</time>
      </trkpt>
      <trkpt lat="44.36773" lon="5.54422">
        <ele>699.4</ele>
        <time>2023-04-06T09:35:38Z</time>
      </trkpt>
      <trkpt lat="44.36774" lon="5.54427">
        <ele>699.4</ele>
        <time>2023-04-06T09:35:39Z</time>
      </trkpt>
      <trkpt lat="44.36775" lon="5.54432">
        <ele>699.5</ele>
        <time>2023-04-06T09:35:40Z</time>
      </trkpt>
      <trkpt lat="44.36776" lon="5.54438">
        <ele>699.5</ele>
        <time>2023-04-06T09:35:41Z</time>
      </trkpt>
      <trkpt lat="44.36778" lon="5.54443">
        <ele>699.5</ele>
        <time>2023-04-06T09:35:42Z</time>
      </trkpt>
      <trkpt lat="44.36779" lon="5.54449">
        <ele>699.5</ele>
        <time>2023-04-06T09:35:43Z</time>
      </trkpt>
      <trkpt lat="44.36781" lon="5.54454">
        <ele>699.5</ele>
        <time>2023-04-06T09:35:44Z</time>
      </trkpt>
      <trkpt lat="44.36782" lon="5.54459">
        <ele>699.5</ele>
        <time>2023-04-06T09:35:45Z</time>
      </trkpt>
      <trkpt lat="44.36784" lon="5.54464">
        <ele>699.5</ele>
        <time>2023-04-06T09:35:46Z</time>
      </trkpt>
      <trkpt lat="44.36785" lon="5.5447">
        <ele>699.5</ele>
        <time>2023-04-06T09:35:47Z</time>
      </trkpt>
      <trkpt lat="44.36786" lon="5.54475">
        <ele>699.5</ele>
        <time>2023-04-06T09:35:48Z</time>
      </trkpt>
      <trkpt lat="44.36788" lon="5.5448">
        <ele>699.5</ele>
        <time>2023-04-06T09:35:49Z</time>
      </trkpt>
      <trkpt lat="44.3679" lon="5.54485">
        <ele>699.5</ele>
        <time>2023-04-06T09:35:50Z</time>
      </trkpt>
      <trkpt lat="44.36792" lon="5.5449">
        <ele>699.5</ele>
        <time>2023-04-06T09:35:51Z</time>
      </trkpt>
      <trkpt lat="44.36794" lon="5.54495">
        <ele>699.5</ele>
        <time>2023-04-06T09:35:52Z</time>
      </trkpt>
      <trkpt lat="44.36795" lon="5.545">
        <ele>699.6</ele>
        <time>2023-04-06T09:35:53Z</time>
      </trkpt>
      <trkpt lat="44.36797" lon="5.54506">
        <ele>699.6</ele>
        <time>2023-04-06T09:35:54Z</time>
      </trkpt>
      <trkpt lat="44.36799" lon="5.54511">
        <ele>699.6</ele>
        <time>2023-04-06T09:35:55Z</time>
      </trkpt>
      <trkpt lat="44.36801" lon="5.54515">
        <ele>699.6</ele>
        <time>2023-04-06T09:35:56Z</time>
      </trkpt>
      <trkpt lat="44.36804" lon="5.54519">
        <ele>699.6</ele>
        <time>2023-04-06T09:35:57Z</time>
      </trkpt>
      <trkpt lat="44.36806" lon="5.54524">
        <ele>699.6</ele>
        <time>2023-04-06T09:35:58Z</time>
      </trkpt>
      <trkpt lat="44.36808" lon="5.54529">
        <ele>699.6</ele>
        <time>2023-04-06T09:35:59Z</time>
      </trkpt>
      <trkpt lat="44.3681" lon="5.54534">
        <ele>699.6</ele>
        <time>2023-04-06T09:36:00Z</time>
      </trkpt>
      <trkpt lat="44.36812" lon="5.54539">
        <ele>699.7</ele>
        <time>2023-04-06T09:36:01Z</time>
      </trkpt>
      <trkpt lat="44.36814" lon="5.54544">
        <ele>699.7</ele>
        <time>2023-04-06T09:36:02Z</time>
      </trkpt>
      <trkpt lat="44.36816" lon="5.54549">
        <ele>699.8</ele>
        <time>2023-04-06T09:36:03Z</time>
      </trkpt>
      <trkpt lat="44.36818" lon="5.54553">
        <ele>699.8</ele>
        <time>2023-04-06T09:36:04Z</time>
      </trkpt>
      <trkpt lat="44.3682" lon="5.54558">
        <ele>699.8</ele>
        <time>2023-04-06T09:36:05Z</time>
      </trkpt>
      <trkpt lat="44.36822" lon="5.54562">
        <ele>699.9</ele>
        <time>2023-04-06T09:36:06Z</time>
      </trkpt>
      <trkpt lat="44.36824" lon="5.54567">
        <ele>699.9</ele>
        <time>2023-04-06T09:36:07Z</time>
      </trkpt>
      <trkpt lat="44.36826" lon="5.54572">
        <ele>700</ele>
        <time>2023-04-06T09:36:08Z</time>
      </trkpt>
      <trkpt lat="44.36828" lon="5.54577">
        <ele>700</ele>
        <time>2023-04-06T09:36:09Z</time>
      </trkpt>
      <trkpt lat="44.36829" lon="5.54582">
        <ele>700.1</ele>
        <time>2023-04-06T09:36:10Z</time>
      </trkpt>
      <trkpt lat="44.36831" lon="5.54588">
        <ele>700.1</ele>
        <time>2023-04-06T09:36:11Z</time>
      </trkpt>
      <trkpt lat="44.36833" lon="5.54593">
        <ele>700.1</ele>
        <time>2023-04-06T09:36:12Z</time>
      </trkpt>
      <trkpt lat="44.36835" lon="5.54598">
        <ele>700.1</ele>
        <time>2023-04-06T09:36:13Z</time>
      </trkpt>
      <trkpt lat="44.36838" lon="5.54602">
        <ele>700.2</ele>
        <time>2023-04-06T09:36:14Z</time>
      </trkpt>
      <trkpt lat="44.3684" lon="5.54607">
        <ele>700.2</ele>
        <time>2023-04-06T09:36:15Z</time>
      </trkpt>
      <trkpt lat="44.36843" lon="5.54612">
        <ele>700.2</ele>
        <time>2023-04-06T09:36:16Z</time>
      </trkpt>
      <trkpt lat="44.36846" lon="5.54617">
        <ele>700.3</ele>
        <time>2023-04-06T09:36:17Z</time>
      </trkpt>
      <trkpt lat="44.36848" lon="5.54621">
        <ele>700.3</ele>
        <time>2023-04-06T09:36:18Z</time>
      </trkpt>
      <trkpt lat="44.36851" lon="5.54626">
        <ele>700.3</ele>
        <time>2023-04-06T09:36:19Z</time>
      </trkpt>
      <trkpt lat="44.36853" lon="5.54631">
        <ele>700.3</ele>
        <time>2023-04-06T09:36:20Z</time>
      </trkpt>
      <trkpt lat="44.36855" lon="5.54636">
        <ele>700.2</ele>
        <time>2023-04-06T09:36:21Z</time>
      </trkpt>
      <trkpt lat="44.36857" lon="5.54642">
        <ele>700.2</ele>
        <time>2023-04-06T09:36:22Z</time>
      </trkpt>
      <trkpt lat="44.36857" lon="5.54648">
        <ele>700.2</ele>
        <time>2023-04-06T09:36:23Z</time>
      </trkpt>
      <trkpt lat="44.36857" lon="5.54653">
        <ele>700.2</ele>
        <time>2023-04-06T09:36:24Z</time>
      </trkpt>
      <trkpt lat="44.36856" lon="5.54659">
        <ele>700.2</ele>
        <time>2023-04-06T09:36:25Z</time>
      </trkpt>
      <trkpt lat="44.36855" lon="5.54663">
        <ele>700.2</ele>
        <time>2023-04-06T09:36:26Z</time>
      </trkpt>
      <trkpt lat="44.36853" lon="5.54667">
        <ele>700.3</ele>
        <time>2023-04-06T09:36:27Z</time>
      </trkpt>
      <trkpt lat="44.3685" lon="5.54671">
        <ele>700.3</ele>
        <time>2023-04-06T09:36:28Z</time>
      </trkpt>
      <trkpt lat="44.36842" lon="5.54676">
        <ele>700.4</ele>
        <time>2023-04-06T09:36:30Z</time>
      </trkpt>
      <trkpt lat="44.36838" lon="5.54677">
        <ele>700.4</ele>
        <time>2023-04-06T09:36:31Z</time>
      </trkpt>
      <trkpt lat="44.36834" lon="5.54678">
        <ele>700.5</ele>
        <time>2023-04-06T09:36:32Z</time>
      </trkpt>
      <trkpt lat="44.3683" lon="5.54678">
        <ele>700.5</ele>
        <time>2023-04-06T09:36:33Z</time>
      </trkpt>
      <trkpt lat="44.36826" lon="5.54679">
        <ele>700.6</ele>
        <time>2023-04-06T09:36:34Z</time>
      </trkpt>
      <trkpt lat="44.36819" lon="5.5468">
        <ele>700.7</ele>
        <time>2023-04-06T09:36:36Z</time>
      </trkpt>
      <trkpt lat="44.36816" lon="5.54681">
        <ele>700.8</ele>
        <time>2023-04-06T09:36:37Z</time>
      </trkpt>
      <trkpt lat="44.36812" lon="5.54682">
        <ele>700.9</ele>
        <time>2023-04-06T09:36:38Z</time>
      </trkpt>
      <trkpt lat="44.36808" lon="5.54682">
        <ele>701</ele>
        <time>2023-04-06T09:36:39Z</time>
      </trkpt>
      <trkpt lat="44.36802" lon="5.54683">
        <ele>701.2</ele>
        <time>2023-04-06T09:36:41Z</time>
      </trkpt>
      <trkpt lat="44.36799" lon="5.54683">
        <ele>701.3</ele>
        <time>2023-04-06T09:36:42Z</time>
      </trkpt>
      <trkpt lat="44.36792" lon="5.54684">
        <ele>701.5</ele>
        <time>2023-04-06T09:36:44Z</time>
      </trkpt>
      <trkpt lat="44.36789" lon="5.54684">
        <ele>701.6</ele>
        <time>2023-04-06T09:36:45Z</time>
      </trkpt>
      <trkpt lat="44.36786" lon="5.54684">
        <ele>701.8</ele>
        <time>2023-04-06T09:36:46Z</time>
      </trkpt>
      <trkpt lat="44.36782" lon="5.54685">
        <ele>701.9</ele>
        <time>2023-04-06T09:36:47Z</time>
      </trkpt>
      <trkpt lat="44.36779" lon="5.54685">
        <ele>702.1</ele>
        <time>2023-04-06T09:36:48Z</time>
      </trkpt>
      <trkpt lat="44.36775" lon="5.54685">
        <ele>702.2</ele>
        <time>2023-04-06T09:36:49Z</time>
      </trkpt>
      <trkpt lat="44.36772" lon="5.54686">
        <ele>702.3</ele>
        <time>2023-04-06T09:36:50Z</time>
      </trkpt>
      <trkpt lat="44.36769" lon="5.54687">
        <ele>702.5</ele>
        <time>2023-04-06T09:36:51Z</time>
      </trkpt>
      <trkpt lat="44.36762" lon="5.54689">
        <ele>702.7</ele>
        <time>2023-04-06T09:36:53Z</time>
      </trkpt>
      <trkpt lat="44.36758" lon="5.5469">
        <ele>702.9</ele>
        <time>2023-04-06T09:36:54Z</time>
      </trkpt>
      <trkpt lat="44.36755" lon="5.54692">
        <ele>703</ele>
        <time>2023-04-06T09:36:55Z</time>
      </trkpt>
      <trkpt lat="44.36751" lon="5.54694">
        <ele>703.2</ele>
        <time>2023-04-06T09:36:56Z</time>
      </trkpt>
      <trkpt lat="44.36748" lon="5.54696">
        <ele>703.3</ele>
        <time>2023-04-06T09:36:57Z</time>
      </trkpt>
      <trkpt lat="44.36743" lon="5.547">
        <ele>703.5</ele>
        <time>2023-04-06T09:36:59Z</time>
      </trkpt>
      <trkpt lat="44.3674" lon="5.54703">
        <ele>703.6</ele>
        <time>2023-04-06T09:37:00Z</time>
      </trkpt>
      <trkpt lat="44.36737" lon="5.54707">
        <ele>703.7</ele>
        <time>2023-04-06T09:37:01Z</time>
      </trkpt>
      <trkpt lat="44.36735" lon="5.5471">
        <ele>703.8</ele>
        <time>2023-04-06T09:37:02Z</time>
      </trkpt>
      <trkpt lat="44.36733" lon="5.54713">
        <ele>703.9</ele>
        <time>2023-04-06T09:37:03Z</time>
      </trkpt>
      <trkpt lat="44.36728" lon="5.54719">
        <ele>704</ele>
        <time>2023-04-06T09:37:05Z</time>
      </trkpt>
      <trkpt lat="44.36724" lon="5.54722">
        <ele>704.1</ele>
        <time>2023-04-06T09:37:06Z</time>
      </trkpt>
      <trkpt lat="44.36719" lon="5.54728">
        <ele>704.3</ele>
        <time>2023-04-06T09:37:08Z</time>
      </trkpt>
      <trkpt lat="44.36717" lon="5.54731">
        <ele>704.4</ele>
        <time>2023-04-06T09:37:09Z</time>
      </trkpt>
      <trkpt lat="44.36715" lon="5.54735">
        <ele>704.4</ele>
        <time>2023-04-06T09:37:10Z</time>
      </trkpt>
      <trkpt lat="44.36712" lon="5.54738">
        <ele>704.5</ele>
        <time>2023-04-06T09:37:11Z</time>
      </trkpt>
      <trkpt lat="44.36711" lon="5.54742">
        <ele>704.6</ele>
        <time>2023-04-06T09:37:12Z</time>
      </trkpt>
      <trkpt lat="44.36708" lon="5.54746">
        <ele>704.7</ele>
        <time>2023-04-06T09:37:13Z</time>
      </trkpt>
      <trkpt lat="44.36706" lon="5.54749">
        <ele>704.8</ele>
        <time>2023-04-06T09:37:14Z</time>
      </trkpt>
      <trkpt lat="44.36702" lon="5.54756">
        <ele>704.9</ele>
        <time>2023-04-06T09:37:16Z</time>
      </trkpt>
      <trkpt lat="44.367" lon="5.5476">
        <ele>705</ele>
        <time>2023-04-06T09:37:17Z</time>
      </trkpt>
      <trkpt lat="44.36698" lon="5.54764">
        <ele>705.1</ele>
        <time>2023-04-06T09:37:18Z</time>
      </trkpt>
      <trkpt lat="44.36696" lon="5.54768">
        <ele>705.2</ele>
        <time>2023-04-06T09:37:19Z</time>
      </trkpt>
      <trkpt lat="44.36695" lon="5.54772">
        <ele>705.3</ele>
        <time>2023-04-06T09:37:20Z</time>
      </trkpt>
      <trkpt lat="44.36692" lon="5.54779">
        <ele>705.6</ele>
        <time>2023-04-06T09:37:22Z</time>
      </trkpt>
      <trkpt lat="44.36691" lon="5.54783">
        <ele>705.7</ele>
        <time>2023-04-06T09:37:23Z</time>
      </trkpt>
      <trkpt lat="44.3669" lon="5.54788">
        <ele>705.8</ele>
        <time>2023-04-06T09:37:24Z</time>
      </trkpt>
      <trkpt lat="44.36689" lon="5.54792">
        <ele>706</ele>
        <time>2023-04-06T09:37:25Z</time>
      </trkpt>
      <trkpt lat="44.36688" lon="5.54796">
        <ele>706.1</ele>
        <time>2023-04-06T09:37:26Z</time>
      </trkpt>
      <trkpt lat="44.36686" lon="5.548">
        <ele>706.3</ele>
        <time>2023-04-06T09:37:27Z</time>
      </trkpt>
      <trkpt lat="44.36685" lon="5.54805">
        <ele>706.4</ele>
        <time>2023-04-06T09:37:28Z</time>
      </trkpt>
      <trkpt lat="44.36684" lon="5.54809">
        <ele>706.6</ele>
        <time>2023-04-06T09:37:29Z</time>
      </trkpt>
      <trkpt lat="44.36683" lon="5.54814">
        <ele>706.8</ele>
        <time>2023-04-06T09:37:30Z</time>
      </trkpt>
      <trkpt lat="44.36682" lon="5.54819">
        <ele>706.9</ele>
        <time>2023-04-06T09:37:31Z</time>
      </trkpt>
      <trkpt lat="44.36679" lon="5.54828">
        <ele>707.2</ele>
        <time>2023-04-06T09:37:33Z</time>
      </trkpt>
      <trkpt lat="44.36677" lon="5.54832">
        <ele>707.4</ele>
        <time>2023-04-06T09:37:34Z</time>
      </trkpt>
      <trkpt lat="44.36676" lon="5.54836">
        <ele>707.5</ele>
        <time>2023-04-06T09:37:35Z</time>
      </trkpt>
      <trkpt lat="44.36675" lon="5.54841">
        <ele>707.7</ele>
        <time>2023-04-06T09:37:36Z</time>
      </trkpt>
      <trkpt lat="44.36674" lon="5.54846">
        <ele>707.8</ele>
        <time>2023-04-06T09:37:37Z</time>
      </trkpt>
      <trkpt lat="44.36673" lon="5.5485">
        <ele>708</ele>
        <time>2023-04-06T09:37:38Z</time>
      </trkpt>
      <trkpt lat="44.36672" lon="5.54855">
        <ele>708.1</ele>
        <time>2023-04-06T09:37:39Z</time>
      </trkpt>
      <trkpt lat="44.36672" lon="5.5486">
        <ele>708.2</ele>
        <time>2023-04-06T09:37:40Z</time>
      </trkpt>
      <trkpt lat="44.36671" lon="5.54865">
        <ele>708.3</ele>
        <time>2023-04-06T09:37:41Z</time>
      </trkpt>
      <trkpt lat="44.36671" lon="5.5487">
        <ele>708.4</ele>
        <time>2023-04-06T09:37:42Z</time>
      </trkpt>
      <trkpt lat="44.3667" lon="5.54881">
        <ele>708.6</ele>
        <time>2023-04-06T09:37:44Z</time>
      </trkpt>
      <trkpt lat="44.3667" lon="5.54886">
        <ele>708.7</ele>
        <time>2023-04-06T09:37:45Z</time>
      </trkpt>
      <trkpt lat="44.36669" lon="5.54893">
        <ele>708.8</ele>
        <time>2023-04-06T09:37:46Z</time>
      </trkpt>
      <trkpt lat="44.36669" lon="5.54898">
        <ele>708.9</ele>
        <time>2023-04-06T09:37:47Z</time>
      </trkpt>
      <trkpt lat="44.3667" lon="5.54903">
        <ele>709</ele>
        <time>2023-04-06T09:37:48Z</time>
      </trkpt>
      <trkpt lat="44.3667" lon="5.54908">
        <ele>709.1</ele>
        <time>2023-04-06T09:37:49Z</time>
      </trkpt>
      <trkpt lat="44.3667" lon="5.54912">
        <ele>709.2</ele>
        <time>2023-04-06T09:37:50Z</time>
      </trkpt>
      <trkpt lat="44.3667" lon="5.54917">
        <ele>709.3</ele>
        <time>2023-04-06T09:37:51Z</time>
      </trkpt>
      <trkpt lat="44.36671" lon="5.54922">
        <ele>709.4</ele>
        <time>2023-04-06T09:37:52Z</time>
      </trkpt>
      <trkpt lat="44.36671" lon="5.54926">
        <ele>709.5</ele>
        <time>2023-04-06T09:37:53Z</time>
      </trkpt>
      <trkpt lat="44.36672" lon="5.54931">
        <ele>709.6</ele>
        <time>2023-04-06T09:37:54Z</time>
      </trkpt>
      <trkpt lat="44.36672" lon="5.54936">
        <ele>709.7</ele>
        <time>2023-04-06T09:37:55Z</time>
      </trkpt>
      <trkpt lat="44.36672" lon="5.5494">
        <ele>709.9</ele>
        <time>2023-04-06T09:37:56Z</time>
      </trkpt>
      <trkpt lat="44.36672" lon="5.54945">
        <ele>710</ele>
        <time>2023-04-06T09:37:57Z</time>
      </trkpt>
      <trkpt lat="44.36672" lon="5.5495">
        <ele>710.1</ele>
        <time>2023-04-06T09:37:58Z</time>
      </trkpt>
      <trkpt lat="44.36673" lon="5.54959">
        <ele>710.4</ele>
        <time>2023-04-06T09:38:00Z</time>
      </trkpt>
      <trkpt lat="44.36673" lon="5.54964">
        <ele>710.5</ele>
        <time>2023-04-06T09:38:01Z</time>
      </trkpt>
      <trkpt lat="44.36673" lon="5.54968">
        <ele>710.7</ele>
        <time>2023-04-06T09:38:02Z</time>
      </trkpt>
      <trkpt lat="44.36672" lon="5.54973">
        <ele>710.8</ele>
        <time>2023-04-06T09:38:03Z</time>
      </trkpt>
      <trkpt lat="44.36672" lon="5.54977">
        <ele>711</ele>
        <time>2023-04-06T09:38:04Z</time>
      </trkpt>
      <trkpt lat="44.36672" lon="5.54987">
        <ele>711.3</ele>
        <time>2023-04-06T09:38:06Z</time>
      </trkpt>
      <trkpt lat="44.36673" lon="5.54991">
        <ele>711.4</ele>
        <time>2023-04-06T09:38:07Z</time>
      </trkpt>
      <trkpt lat="44.36673" lon="5.54996">
        <ele>711.6</ele>
        <time>2023-04-06T09:38:08Z</time>
      </trkpt>
      <trkpt lat="44.36673" lon="5.55001">
        <ele>711.7</ele>
        <time>2023-04-06T09:38:09Z</time>
      </trkpt>
      <trkpt lat="44.36674" lon="5.55005">
        <ele>711.9</ele>
        <time>2023-04-06T09:38:10Z</time>
      </trkpt>
      <trkpt lat="44.36674" lon="5.5501">
        <ele>712.1</ele>
        <time>2023-04-06T09:38:11Z</time>
      </trkpt>
      <trkpt lat="44.36674" lon="5.55014">
        <ele>712.2</ele>
        <time>2023-04-06T09:38:12Z</time>
      </trkpt>
      <trkpt lat="44.36674" lon="5.55019">
        <ele>712.3</ele>
        <time>2023-04-06T09:38:13Z</time>
      </trkpt>
      <trkpt lat="44.36673" lon="5.55023">
        <ele>712.5</ele>
        <time>2023-04-06T09:38:14Z</time>
      </trkpt>
      <trkpt lat="44.36673" lon="5.55028">
        <ele>712.7</ele>
        <time>2023-04-06T09:38:15Z</time>
      </trkpt>
      <trkpt lat="44.36673" lon="5.55032">
        <ele>712.8</ele>
        <time>2023-04-06T09:38:16Z</time>
      </trkpt>
      <trkpt lat="44.36672" lon="5.55036">
        <ele>712.9</ele>
        <time>2023-04-06T09:38:17Z</time>
      </trkpt>
      <trkpt lat="44.36672" lon="5.5504">
        <ele>713.1</ele>
        <time>2023-04-06T09:38:18Z</time>
      </trkpt>
      <trkpt lat="44.36671" lon="5.55044">
        <ele>713.2</ele>
        <time>2023-04-06T09:38:19Z</time>
      </trkpt>
      <trkpt lat="44.36671" lon="5.55048">
        <ele>713.4</ele>
        <time>2023-04-06T09:38:20Z</time>
      </trkpt>
      <trkpt lat="44.36669" lon="5.55055">
        <ele>713.6</ele>
        <time>2023-04-06T09:38:22Z</time>
      </trkpt>
      <trkpt lat="44.36669" lon="5.55059">
        <ele>713.7</ele>
        <time>2023-04-06T09:38:23Z</time>
      </trkpt>
      <trkpt lat="44.36668" lon="5.55063">
        <ele>713.9</ele>
        <time>2023-04-06T09:38:24Z</time>
      </trkpt>
      <trkpt lat="44.36667" lon="5.55068">
        <ele>714</ele>
        <time>2023-04-06T09:38:25Z</time>
      </trkpt>
      <trkpt lat="44.36667" lon="5.5507">
        <ele>714.1</ele>
        <time>2023-04-06T09:38:26Z</time>
      </trkpt>
      <trkpt lat="44.36665" lon="5.55079">
        <ele>714.4</ele>
        <time>2023-04-06T09:38:28Z</time>
      </trkpt>
      <trkpt lat="44.36665" lon="5.55081">
        <ele>714.4</ele>
        <time>2023-04-06T09:38:29Z</time>
      </trkpt>
      <trkpt lat="44.36664" lon="5.55085">
        <ele>714.6</ele>
        <time>2023-04-06T09:38:30Z</time>
      </trkpt>
      <trkpt lat="44.36663" lon="5.55089">
        <ele>714.7</ele>
        <time>2023-04-06T09:38:31Z</time>
      </trkpt>
      <trkpt lat="44.36663" lon="5.55093">
        <ele>714.8</ele>
        <time>2023-04-06T09:38:32Z</time>
      </trkpt>
      <trkpt lat="44.36662" lon="5.55096">
        <ele>714.9</ele>
        <time>2023-04-06T09:38:33Z</time>
      </trkpt>
      <trkpt lat="44.36661" lon="5.551">
        <ele>715.1</ele>
        <time>2023-04-06T09:38:34Z</time>
      </trkpt>
      <trkpt lat="44.3666" lon="5.55104">
        <ele>715.2</ele>
        <time>2023-04-06T09:38:35Z</time>
      </trkpt>
      <trkpt lat="44.36659" lon="5.55108">
        <ele>715.4</ele>
        <time>2023-04-06T09:38:36Z</time>
      </trkpt>
      <trkpt lat="44.36658" lon="5.55111">
        <ele>715.5</ele>
        <time>2023-04-06T09:38:37Z</time>
      </trkpt>
      <trkpt lat="44.36655" lon="5.55118">
        <ele>715.8</ele>
        <time>2023-04-06T09:38:39Z</time>
      </trkpt>
      <trkpt lat="44.36654" lon="5.55121">
        <ele>715.9</ele>
        <time>2023-04-06T09:38:40Z</time>
      </trkpt>
      <trkpt lat="44.36652" lon="5.55126">
        <ele>716.2</ele>
        <time>2023-04-06T09:38:41Z</time>
      </trkpt>
      <trkpt lat="44.36651" lon="5.55127">
        <ele>716.2</ele>
        <time>2023-04-06T09:38:42Z</time>
      </trkpt>
      <trkpt lat="44.36649" lon="5.55129">
        <ele>716.4</ele>
        <time>2023-04-06T09:38:43Z</time>
      </trkpt>
      <trkpt lat="44.36645" lon="5.55134">
        <ele>716.7</ele>
        <time>2023-04-06T09:38:45Z</time>
      </trkpt>
      <trkpt lat="44.36642" lon="5.55135">
        <ele>716.8</ele>
        <time>2023-04-06T09:38:46Z</time>
      </trkpt>
      <trkpt lat="44.3664" lon="5.55137">
        <ele>717</ele>
        <time>2023-04-06T09:38:47Z</time>
      </trkpt>
      <trkpt lat="44.36637" lon="5.55139">
        <ele>717.1</ele>
        <time>2023-04-06T09:38:48Z</time>
      </trkpt>
      <trkpt lat="44.36635" lon="5.55141">
        <ele>717.3</ele>
        <time>2023-04-06T09:38:49Z</time>
      </trkpt>
      <trkpt lat="44.36632" lon="5.55143">
        <ele>717.5</ele>
        <time>2023-04-06T09:38:50Z</time>
      </trkpt>
      <trkpt lat="44.36629" lon="5.55145">
        <ele>717.7</ele>
        <time>2023-04-06T09:38:51Z</time>
      </trkpt>
      <trkpt lat="44.36628" lon="5.55146">
        <ele>717.8</ele>
        <time>2023-04-06T09:38:52Z</time>
      </trkpt>
      <trkpt lat="44.36624" lon="5.55148">
        <ele>718</ele>
        <time>2023-04-06T09:38:53Z</time>
      </trkpt>
      <trkpt lat="44.36623" lon="5.5515">
        <ele>718.1</ele>
        <time>2023-04-06T09:38:54Z</time>
      </trkpt>
      <trkpt lat="44.3662" lon="5.55151">
        <ele>718.2</ele>
        <time>2023-04-06T09:38:55Z</time>
      </trkpt>
      <trkpt lat="44.36615" lon="5.55153">
        <ele>718.5</ele>
        <time>2023-04-06T09:38:57Z</time>
      </trkpt>
      <trkpt lat="44.36612" lon="5.55154">
        <ele>718.7</ele>
        <time>2023-04-06T09:38:58Z</time>
      </trkpt>
      <trkpt lat="44.3661" lon="5.55156">
        <ele>718.8</ele>
        <time>2023-04-06T09:38:59Z</time>
      </trkpt>
      <trkpt lat="44.36607" lon="5.55159">
        <ele>719</ele>
        <time>2023-04-06T09:39:00Z</time>
      </trkpt>
      <trkpt lat="44.36606" lon="5.5516">
        <ele>719.1</ele>
        <time>2023-04-06T09:39:01Z</time>
      </trkpt>
      <trkpt lat="44.36603" lon="5.55162">
        <ele>719.2</ele>
        <time>2023-04-06T09:39:02Z</time>
      </trkpt>
      <trkpt lat="44.366" lon="5.55164">
        <ele>719.4</ele>
        <time>2023-04-06T09:39:03Z</time>
      </trkpt>
      <trkpt lat="44.36598" lon="5.55166">
        <ele>719.5</ele>
        <time>2023-04-06T09:39:04Z</time>
      </trkpt>
      <trkpt lat="44.36595" lon="5.55169">
        <ele>719.7</ele>
        <time>2023-04-06T09:39:05Z</time>
      </trkpt>
      <trkpt lat="44.36593" lon="5.55171">
        <ele>719.8</ele>
        <time>2023-04-06T09:39:06Z</time>
      </trkpt>
      <trkpt lat="44.36591" lon="5.55173">
        <ele>720</ele>
        <time>2023-04-06T09:39:07Z</time>
      </trkpt>
      <trkpt lat="44.36588" lon="5.55176">
        <ele>720.1</ele>
        <time>2023-04-06T09:39:08Z</time>
      </trkpt>
      <trkpt lat="44.36585" lon="5.55178">
        <ele>720.2</ele>
        <time>2023-04-06T09:39:09Z</time>
      </trkpt>
      <trkpt lat="44.36583" lon="5.55181">
        <ele>720.3</ele>
        <time>2023-04-06T09:39:10Z</time>
      </trkpt>
      <trkpt lat="44.36581" lon="5.55184">
        <ele>720.4</ele>
        <time>2023-04-06T09:39:11Z</time>
      </trkpt>
      <trkpt lat="44.36578" lon="5.55186">
        <ele>720.6</ele>
        <time>2023-04-06T09:39:12Z</time>
      </trkpt>
      <trkpt lat="44.36573" lon="5.55191">
        <ele>720.8</ele>
        <time>2023-04-06T09:39:14Z</time>
      </trkpt>
      <trkpt lat="44.36572" lon="5.55193">
        <ele>720.9</ele>
        <time>2023-04-06T09:39:15Z</time>
      </trkpt>
      <trkpt lat="44.36569" lon="5.55195">
        <ele>721</ele>
        <time>2023-04-06T09:39:16Z</time>
      </trkpt>
      <trkpt lat="44.36567" lon="5.55197">
        <ele>721.2</ele>
        <time>2023-04-06T09:39:17Z</time>
      </trkpt>
      <trkpt lat="44.36563" lon="5.552">
        <ele>721.4</ele>
        <time>2023-04-06T09:39:18Z</time>
      </trkpt>
      <trkpt lat="44.36562" lon="5.55201">
        <ele>721.4</ele>
        <time>2023-04-06T09:39:19Z</time>
      </trkpt>
      <trkpt lat="44.3656" lon="5.55203">
        <ele>721.5</ele>
        <time>2023-04-06T09:39:20Z</time>
      </trkpt>
      <trkpt lat="44.36558" lon="5.55206">
        <ele>721.7</ele>
        <time>2023-04-06T09:39:21Z</time>
      </trkpt>
      <trkpt lat="44.36556" lon="5.55208">
        <ele>721.8</ele>
        <time>2023-04-06T09:39:22Z</time>
      </trkpt>
      <trkpt lat="44.36553" lon="5.5521">
        <ele>722</ele>
        <time>2023-04-06T09:39:23Z</time>
      </trkpt>
      <trkpt lat="44.36551" lon="5.55213">
        <ele>722.1</ele>
        <time>2023-04-06T09:39:24Z</time>
      </trkpt>
      <trkpt lat="44.36548" lon="5.55216">
        <ele>722.4</ele>
        <time>2023-04-06T09:39:25Z</time>
      </trkpt>
      <trkpt lat="44.36547" lon="5.55217">
        <ele>722.4</ele>
        <time>2023-04-06T09:39:26Z</time>
      </trkpt>
      <trkpt lat="44.36545" lon="5.55219">
        <ele>722.6</ele>
        <time>2023-04-06T09:39:27Z</time>
      </trkpt>
      <trkpt lat="44.36542" lon="5.55222">
        <ele>722.8</ele>
        <time>2023-04-06T09:39:28Z</time>
      </trkpt>
      <trkpt lat="44.36541" lon="5.55223">
        <ele>722.9</ele>
        <time>2023-04-06T09:39:29Z</time>
      </trkpt>
      <trkpt lat="44.36538" lon="5.55227">
        <ele>723.1</ele>
        <time>2023-04-06T09:39:30Z</time>
      </trkpt>
      <trkpt lat="44.36537" lon="5.55228">
        <ele>723.2</ele>
        <time>2023-04-06T09:39:31Z</time>
      </trkpt>
      <trkpt lat="44.36534" lon="5.5523">
        <ele>723.4</ele>
        <time>2023-04-06T09:39:32Z</time>
      </trkpt>
      <trkpt lat="44.36533" lon="5.55231">
        <ele>723.5</ele>
        <time>2023-04-06T09:39:33Z</time>
      </trkpt>
      <trkpt lat="44.36529" lon="5.55234">
        <ele>723.7</ele>
        <time>2023-04-06T09:39:34Z</time>
      </trkpt>
      <trkpt lat="44.36528" lon="5.55235">
        <ele>723.8</ele>
        <time>2023-04-06T09:39:35Z</time>
      </trkpt>
      <trkpt lat="44.36526" lon="5.55237">
        <ele>723.9</ele>
        <time>2023-04-06T09:39:36Z</time>
      </trkpt>
      <trkpt lat="44.36523" lon="5.55239">
        <ele>724.1</ele>
        <time>2023-04-06T09:39:37Z</time>
      </trkpt>
      <trkpt lat="44.3652" lon="5.55242">
        <ele>724.3</ele>
        <time>2023-04-06T09:39:38Z</time>
      </trkpt>
      <trkpt lat="44.36519" lon="5.55243">
        <ele>724.3</ele>
        <time>2023-04-06T09:39:39Z</time>
      </trkpt>
      <trkpt lat="44.36516" lon="5.55245">
        <ele>724.5</ele>
        <time>2023-04-06T09:39:40Z</time>
      </trkpt>
      <trkpt lat="44.36513" lon="5.55247">
        <ele>724.6</ele>
        <time>2023-04-06T09:39:41Z</time>
      </trkpt>
      <trkpt lat="44.3651" lon="5.55249">
        <ele>724.8</ele>
        <time>2023-04-06T09:39:42Z</time>
      </trkpt>
      <trkpt lat="44.36508" lon="5.55251">
        <ele>724.9</ele>
        <time>2023-04-06T09:39:43Z</time>
      </trkpt>
      <trkpt lat="44.36505" lon="5.55255">
        <ele>725.1</ele>
        <time>2023-04-06T09:39:44Z</time>
      </trkpt>
      <trkpt lat="44.36504" lon="5.55256">
        <ele>725.1</ele>
        <time>2023-04-06T09:39:45Z</time>
      </trkpt>
      <trkpt lat="44.36502" lon="5.5526">
        <ele>725.3</ele>
        <time>2023-04-06T09:39:46Z</time>
      </trkpt>
      <trkpt lat="44.36501" lon="5.55262">
        <ele>725.3</ele>
        <time>2023-04-06T09:39:47Z</time>
      </trkpt>
      <trkpt lat="44.36499" lon="5.55265">
        <ele>725.5</ele>
        <time>2023-04-06T09:39:48Z</time>
      </trkpt>
      <trkpt lat="44.36497" lon="5.55268">
        <ele>725.6</ele>
        <time>2023-04-06T09:39:49Z</time>
      </trkpt>
      <trkpt lat="44.36495" lon="5.55271">
        <ele>725.7</ele>
        <time>2023-04-06T09:39:50Z</time>
      </trkpt>
      <trkpt lat="44.36493" lon="5.55275">
        <ele>725.9</ele>
        <time>2023-04-06T09:39:51Z</time>
      </trkpt>
      <trkpt lat="44.36492" lon="5.55279">
        <ele>726</ele>
        <time>2023-04-06T09:39:52Z</time>
      </trkpt>
      <trkpt lat="44.3649" lon="5.55283">
        <ele>726.2</ele>
        <time>2023-04-06T09:39:53Z</time>
      </trkpt>
      <trkpt lat="44.36489" lon="5.55287">
        <ele>726.3</ele>
        <time>2023-04-06T09:39:54Z</time>
      </trkpt>
      <trkpt lat="44.36489" lon="5.55292">
        <ele>726.5</ele>
        <time>2023-04-06T09:39:55Z</time>
      </trkpt>
      <trkpt lat="44.36489" lon="5.55294">
        <ele>726.6</ele>
        <time>2023-04-06T09:39:56Z</time>
      </trkpt>
      <trkpt lat="44.36488" lon="5.553">
        <ele>726.7</ele>
        <time>2023-04-06T09:39:57Z</time>
      </trkpt>
      <trkpt lat="44.36488" lon="5.55302">
        <ele>726.8</ele>
        <time>2023-04-06T09:39:58Z</time>
      </trkpt>
      <trkpt lat="44.36487" lon="5.55306">
        <ele>726.9</ele>
        <time>2023-04-06T09:39:59Z</time>
      </trkpt>
      <trkpt lat="44.36487" lon="5.5531">
        <ele>727.1</ele>
        <time>2023-04-06T09:40:00Z</time>
      </trkpt>
      <trkpt lat="44.36487" lon="5.55314">
        <ele>727.2</ele>
        <time>2023-04-06T09:40:01Z</time>
      </trkpt>
      <trkpt lat="44.36487" lon="5.55318">
        <ele>727.3</ele>
        <time>2023-04-06T09:40:02Z</time>
      </trkpt>
      <trkpt lat="44.36487" lon="5.55323">
        <ele>727.5</ele>
        <time>2023-04-06T09:40:03Z</time>
      </trkpt>
      <trkpt lat="44.36487" lon="5.55327">
        <ele>727.6</ele>
        <time>2023-04-06T09:40:04Z</time>
      </trkpt>
      <trkpt lat="44.36487" lon="5.55332">
        <ele>727.8</ele>
        <time>2023-04-06T09:40:05Z</time>
      </trkpt>
      <trkpt lat="44.36487" lon="5.55336">
        <ele>727.9</ele>
        <time>2023-04-06T09:40:06Z</time>
      </trkpt>
      <trkpt lat="44.36486" lon="5.5534">
        <ele>728.1</ele>
        <time>2023-04-06T09:40:07Z</time>
      </trkpt>
      <trkpt lat="44.36486" lon="5.55344">
        <ele>728.2</ele>
        <time>2023-04-06T09:40:08Z</time>
      </trkpt>
      <trkpt lat="44.36487" lon="5.55348">
        <ele>728.3</ele>
        <time>2023-04-06T09:40:09Z</time>
      </trkpt>
      <trkpt lat="44.36487" lon="5.55352">
        <ele>728.5</ele>
        <time>2023-04-06T09:40:10Z</time>
      </trkpt>
      <trkpt lat="44.36487" lon="5.55358">
        <ele>728.7</ele>
        <time>2023-04-06T09:40:11Z</time>
      </trkpt>
      <trkpt lat="44.36487" lon="5.55359">
        <ele>728.8</ele>
        <time>2023-04-06T09:40:12Z</time>
      </trkpt>
      <trkpt lat="44.36487" lon="5.55363">
        <ele>728.9</ele>
        <time>2023-04-06T09:40:13Z</time>
      </trkpt>
      <trkpt lat="44.36487" lon="5.55369">
        <ele>729.1</ele>
        <time>2023-04-06T09:40:14Z</time>
      </trkpt>
      <trkpt lat="44.36487" lon="5.55371">
        <ele>729.2</ele>
        <time>2023-04-06T09:40:15Z</time>
      </trkpt>
      <trkpt lat="44.36487" lon="5.55376">
        <ele>729.4</ele>
        <time>2023-04-06T09:40:16Z</time>
      </trkpt>
      <trkpt lat="44.36487" lon="5.55378">
        <ele>729.5</ele>
        <time>2023-04-06T09:40:17Z</time>
      </trkpt>
      <trkpt lat="44.36487" lon="5.55383">
        <ele>729.7</ele>
        <time>2023-04-06T09:40:18Z</time>
      </trkpt>
      <trkpt lat="44.36487" lon="5.55385">
        <ele>729.8</ele>
        <time>2023-04-06T09:40:19Z</time>
      </trkpt>
      <trkpt lat="44.36487" lon="5.55389">
        <ele>729.9</ele>
        <time>2023-04-06T09:40:20Z</time>
      </trkpt>
      <trkpt lat="44.36487" lon="5.55395">
        <ele>730.2</ele>
        <time>2023-04-06T09:40:21Z</time>
      </trkpt>
      <trkpt lat="44.36487" lon="5.55397">
        <ele>730.3</ele>
        <time>2023-04-06T09:40:22Z</time>
      </trkpt>
      <trkpt lat="44.36486" lon="5.55402">
        <ele>730.5</ele>
        <time>2023-04-06T09:40:23Z</time>
      </trkpt>
      <trkpt lat="44.36486" lon="5.55404">
        <ele>730.6</ele>
        <time>2023-04-06T09:40:24Z</time>
      </trkpt>
      <trkpt lat="44.36485" lon="5.55409">
        <ele>730.8</ele>
        <time>2023-04-06T09:40:25Z</time>
      </trkpt>
      <trkpt lat="44.36485" lon="5.5541">
        <ele>730.9</ele>
        <time>2023-04-06T09:40:26Z</time>
      </trkpt>
      <trkpt lat="44.36484" lon="5.55416">
        <ele>731.1</ele>
        <time>2023-04-06T09:40:27Z</time>
      </trkpt>
      <trkpt lat="44.36483" lon="5.55417">
        <ele>731.1</ele>
        <time>2023-04-06T09:40:28Z</time>
      </trkpt>
      <trkpt lat="44.36481" lon="5.55421">
        <ele>731.4</ele>
        <time>2023-04-06T09:40:29Z</time>
      </trkpt>
      <trkpt lat="44.3648" lon="5.55423">
        <ele>731.4</ele>
        <time>2023-04-06T09:40:30Z</time>
      </trkpt>
      <trkpt lat="44.36478" lon="5.55427">
        <ele>731.6</ele>
        <time>2023-04-06T09:40:31Z</time>
      </trkpt>
      <trkpt lat="44.36477" lon="5.55428">
        <ele>731.7</ele>
        <time>2023-04-06T09:40:32Z</time>
      </trkpt>
      <trkpt lat="44.36474" lon="5.55432">
        <ele>732</ele>
        <time>2023-04-06T09:40:33Z</time>
      </trkpt>
      <trkpt lat="44.36473" lon="5.55433">
        <ele>732</ele>
        <time>2023-04-06T09:40:34Z</time>
      </trkpt>
      <trkpt lat="44.3647" lon="5.55437">
        <ele>732.3</ele>
        <time>2023-04-06T09:40:35Z</time>
      </trkpt>
      <trkpt lat="44.36469" lon="5.55439">
        <ele>732.4</ele>
        <time>2023-04-06T09:40:36Z</time>
      </trkpt>
      <trkpt lat="44.36466" lon="5.55442">
        <ele>732.6</ele>
        <time>2023-04-06T09:40:37Z</time>
      </trkpt>
      <trkpt lat="44.36465" lon="5.55443">
        <ele>732.7</ele>
        <time>2023-04-06T09:40:38Z</time>
      </trkpt>
      <trkpt lat="44.36463" lon="5.55445">
        <ele>732.9</ele>
        <time>2023-04-06T09:40:39Z</time>
      </trkpt>
      <trkpt lat="44.3646" lon="5.55448">
        <ele>733.1</ele>
        <time>2023-04-06T09:40:40Z</time>
      </trkpt>
      <trkpt lat="44.36457" lon="5.55451">
        <ele>733.3</ele>
        <time>2023-04-06T09:40:41Z</time>
      </trkpt>
      <trkpt lat="44.36456" lon="5.55452">
        <ele>733.4</ele>
        <time>2023-04-06T09:40:42Z</time>
      </trkpt>
      <trkpt lat="44.36453" lon="5.55454">
        <ele>733.7</ele>
        <time>2023-04-06T09:40:43Z</time>
      </trkpt>
      <trkpt lat="44.36452" lon="5.55455">
        <ele>733.8</ele>
        <time>2023-04-06T09:40:44Z</time>
      </trkpt>
      <trkpt lat="44.36449" lon="5.55458">
        <ele>734.1</ele>
        <time>2023-04-06T09:40:45Z</time>
      </trkpt>
      <trkpt lat="44.36448" lon="5.55459">
        <ele>734.1</ele>
        <time>2023-04-06T09:40:46Z</time>
      </trkpt>
      <trkpt lat="44.36445" lon="5.55461">
        <ele>734.4</ele>
        <time>2023-04-06T09:40:47Z</time>
      </trkpt>
      <trkpt lat="44.36444" lon="5.55462">
        <ele>734.5</ele>
        <time>2023-04-06T09:40:48Z</time>
      </trkpt>
      <trkpt lat="44.36441" lon="5.55465">
        <ele>734.7</ele>
        <time>2023-04-06T09:40:49Z</time>
      </trkpt>
      <trkpt lat="44.3644" lon="5.55466">
        <ele>734.8</ele>
        <time>2023-04-06T09:40:50Z</time>
      </trkpt>
      <trkpt lat="44.36437" lon="5.55468">
        <ele>735</ele>
        <time>2023-04-06T09:40:51Z</time>
      </trkpt>
      <trkpt lat="44.36436" lon="5.55469">
        <ele>735</ele>
        <time>2023-04-06T09:40:52Z</time>
      </trkpt>
      <trkpt lat="44.36433" lon="5.5547">
        <ele>735.2</ele>
        <time>2023-04-06T09:40:53Z</time>
      </trkpt>
      <trkpt lat="44.36432" lon="5.55471">
        <ele>735.3</ele>
        <time>2023-04-06T09:40:54Z</time>
      </trkpt>
      <trkpt lat="44.36428" lon="5.55472">
        <ele>735.5</ele>
        <time>2023-04-06T09:40:55Z</time>
      </trkpt>
      <trkpt lat="44.36427" lon="5.55473">
        <ele>735.5</ele>
        <time>2023-04-06T09:40:56Z</time>
      </trkpt>
      <trkpt lat="44.36423" lon="5.55474">
        <ele>735.7</ele>
        <time>2023-04-06T09:40:57Z</time>
      </trkpt>
      <trkpt lat="44.36422" lon="5.55474">
        <ele>735.8</ele>
        <time>2023-04-06T09:40:58Z</time>
      </trkpt>
      <trkpt lat="44.36418" lon="5.55475">
        <ele>735.9</ele>
        <time>2023-04-06T09:40:59Z</time>
      </trkpt>
      <trkpt lat="44.36417" lon="5.55475">
        <ele>736</ele>
        <time>2023-04-06T09:41:00Z</time>
      </trkpt>
      <trkpt lat="44.36414" lon="5.55475">
        <ele>736.1</ele>
        <time>2023-04-06T09:41:01Z</time>
      </trkpt>
      <trkpt lat="44.36413" lon="5.55474">
        <ele>736.2</ele>
        <time>2023-04-06T09:41:02Z</time>
      </trkpt>
      <trkpt lat="44.3641" lon="5.55471">
        <ele>736.3</ele>
        <time>2023-04-06T09:41:03Z</time>
      </trkpt>
      <trkpt lat="44.36409" lon="5.5547">
        <ele>736.3</ele>
        <time>2023-04-06T09:41:04Z</time>
      </trkpt>
      <trkpt lat="44.36406" lon="5.55466">
        <ele>736.5</ele>
        <time>2023-04-06T09:41:05Z</time>
      </trkpt>
      <trkpt lat="44.36405" lon="5.55465">
        <ele>736.5</ele>
        <time>2023-04-06T09:41:06Z</time>
      </trkpt>
      <trkpt lat="44.36404" lon="5.55461">
        <ele>736.7</ele>
        <time>2023-04-06T09:41:07Z</time>
      </trkpt>
      <trkpt lat="44.36403" lon="5.55459">
        <ele>736.7</ele>
        <time>2023-04-06T09:41:08Z</time>
      </trkpt>
      <trkpt lat="44.36402" lon="5.55456">
        <ele>736.8</ele>
        <time>2023-04-06T09:41:09Z</time>
      </trkpt>
      <trkpt lat="44.364" lon="5.55453">
        <ele>736.9</ele>
        <time>2023-04-06T09:41:10Z</time>
      </trkpt>
      <trkpt lat="44.36399" lon="5.55449">
        <ele>737.1</ele>
        <time>2023-04-06T09:41:11Z</time>
      </trkpt>
      <trkpt lat="44.36397" lon="5.55446">
        <ele>737.2</ele>
        <time>2023-04-06T09:41:12Z</time>
      </trkpt>
      <trkpt lat="44.36395" lon="5.55441">
        <ele>737.4</ele>
        <time>2023-04-06T09:41:13Z</time>
      </trkpt>
      <trkpt lat="44.36394" lon="5.5544">
        <ele>737.5</ele>
        <time>2023-04-06T09:41:14Z</time>
      </trkpt>
      <trkpt lat="44.36392" lon="5.55435">
        <ele>737.7</ele>
        <time>2023-04-06T09:41:15Z</time>
      </trkpt>
      <trkpt lat="44.36392" lon="5.55433">
        <ele>737.8</ele>
        <time>2023-04-06T09:41:16Z</time>
      </trkpt>
      <trkpt lat="44.36391" lon="5.55429">
        <ele>737.9</ele>
        <time>2023-04-06T09:41:17Z</time>
      </trkpt>
      <trkpt lat="44.3639" lon="5.55425">
        <ele>738.1</ele>
        <time>2023-04-06T09:41:18Z</time>
      </trkpt>
      <trkpt lat="44.36389" lon="5.55421">
        <ele>738.2</ele>
        <time>2023-04-06T09:41:19Z</time>
      </trkpt>
      <trkpt lat="44.36388" lon="5.55417">
        <ele>738.4</ele>
        <time>2023-04-06T09:41:20Z</time>
      </trkpt>
      <trkpt lat="44.36387" lon="5.55416">
        <ele>738.5</ele>
        <time>2023-04-06T09:41:21Z</time>
      </trkpt>
      <trkpt lat="44.36385" lon="5.55412">
        <ele>738.7</ele>
        <time>2023-04-06T09:41:22Z</time>
      </trkpt>
      <trkpt lat="44.36384" lon="5.5541">
        <ele>738.8</ele>
        <time>2023-04-06T09:41:23Z</time>
      </trkpt>
      <trkpt lat="44.36382" lon="5.55406">
        <ele>739</ele>
        <time>2023-04-06T09:41:24Z</time>
      </trkpt>
      <trkpt lat="44.36381" lon="5.55405">
        <ele>739.1</ele>
        <time>2023-04-06T09:41:25Z</time>
      </trkpt>
      <trkpt lat="44.36378" lon="5.55401">
        <ele>739.3</ele>
        <time>2023-04-06T09:41:26Z</time>
      </trkpt>
      <trkpt lat="44.36377" lon="5.554">
        <ele>739.4</ele>
        <time>2023-04-06T09:41:27Z</time>
      </trkpt>
      <trkpt lat="44.36374" lon="5.55397">
        <ele>739.6</ele>
        <time>2023-04-06T09:41:28Z</time>
      </trkpt>
      <trkpt lat="44.36373" lon="5.55396">
        <ele>739.7</ele>
        <time>2023-04-06T09:41:29Z</time>
      </trkpt>
      <trkpt lat="44.3637" lon="5.55394">
        <ele>739.8</ele>
        <time>2023-04-06T09:41:30Z</time>
      </trkpt>
      <trkpt lat="44.36367" lon="5.55394">
        <ele>739.9</ele>
        <time>2023-04-06T09:41:31Z</time>
      </trkpt>
      <trkpt lat="44.36364" lon="5.55393">
        <ele>740.1</ele>
        <time>2023-04-06T09:41:32Z</time>
      </trkpt>
      <trkpt lat="44.36361" lon="5.55393">
        <ele>740.2</ele>
        <time>2023-04-06T09:41:33Z</time>
      </trkpt>
      <trkpt lat="44.36359" lon="5.55393">
        <ele>740.3</ele>
        <time>2023-04-06T09:41:34Z</time>
      </trkpt>
      <trkpt lat="44.36357" lon="5.55394">
        <ele>740.3</ele>
        <time>2023-04-06T09:41:35Z</time>
      </trkpt>
      <trkpt lat="44.36354" lon="5.55394">
        <ele>740.4</ele>
        <time>2023-04-06T09:41:36Z</time>
      </trkpt>
      <trkpt lat="44.36351" lon="5.55395">
        <ele>740.5</ele>
        <time>2023-04-06T09:41:37Z</time>
      </trkpt>
      <trkpt lat="44.36348" lon="5.55397">
        <ele>740.6</ele>
        <time>2023-04-06T09:41:38Z</time>
      </trkpt>
      <trkpt lat="44.36346" lon="5.55397">
        <ele>740.6</ele>
        <time>2023-04-06T09:41:39Z</time>
      </trkpt>
      <trkpt lat="44.36343" lon="5.554">
        <ele>740.7</ele>
        <time>2023-04-06T09:41:40Z</time>
      </trkpt>
      <trkpt lat="44.36342" lon="5.554">
        <ele>740.8</ele>
        <time>2023-04-06T09:41:41Z</time>
      </trkpt>
      <trkpt lat="44.36339" lon="5.55403">
        <ele>740.9</ele>
        <time>2023-04-06T09:41:43Z</time>
      </trkpt>
      <trkpt lat="44.36337" lon="5.55404">
        <ele>741</ele>
        <time>2023-04-06T09:41:44Z</time>
      </trkpt>
      <trkpt lat="44.36336" lon="5.55404">
        <ele>741</ele>
        <time>2023-04-06T09:41:45Z</time>
      </trkpt>
      <trkpt lat="44.36336" lon="5.55404">
        <ele>741</ele>
        <time>2023-04-06T09:41:46Z</time>
      </trkpt>
      <trkpt lat="44.36336" lon="5.55405">
        <ele>741</ele>
        <time>2023-04-06T09:41:47Z</time>
      </trkpt>
      <trkpt lat="44.36336" lon="5.55405">
        <ele>741</ele>
        <time>2023-04-06T09:41:48Z</time>
      </trkpt>
      <trkpt lat="44.36336" lon="5.55405">
        <ele>741</ele>
        <time>2023-04-06T09:41:50Z</time>
      </trkpt>
      <trkpt lat="44.36336" lon="5.55405">
        <ele>741</ele>
        <time>2023-04-06T09:41:51Z</time>
      </trkpt>
      <trkpt lat="44.36335" lon="5.55404">
        <ele>741.1</ele>
        <time>2023-04-06T09:41:52Z</time>
      </trkpt>
      <trkpt lat="44.36335" lon="5.55404">
        <ele>741.1</ele>
        <time>2023-04-06T09:41:53Z</time>
      </trkpt>
      <trkpt lat="44.36335" lon="5.55405">
        <ele>741.1</ele>
        <time>2023-04-06T09:41:54Z</time>
      </trkpt>
      <trkpt lat="44.36335" lon="5.55406">
        <ele>741.1</ele>
        <time>2023-04-06T09:41:55Z</time>
      </trkpt>
      <trkpt lat="44.36333" lon="5.55409">
        <ele>741.3</ele>
        <time>2023-04-06T09:41:57Z</time>
      </trkpt>
      <trkpt lat="44.36331" lon="5.55412">
        <ele>741.4</ele>
        <time>2023-04-06T09:41:58Z</time>
      </trkpt>
      <trkpt lat="44.36328" lon="5.55418">
        <ele>741.6</ele>
        <time>2023-04-06T09:42:00Z</time>
      </trkpt>
      <trkpt lat="44.36326" lon="5.55421">
        <ele>741.8</ele>
        <time>2023-04-06T09:42:01Z</time>
      </trkpt>
      <trkpt lat="44.36325" lon="5.55423">
        <ele>741.8</ele>
        <time>2023-04-06T09:42:02Z</time>
      </trkpt>
      <trkpt lat="44.36322" lon="5.55428">
        <ele>742</ele>
        <time>2023-04-06T09:42:04Z</time>
      </trkpt>
      <trkpt lat="44.3632" lon="5.55431">
        <ele>742.2</ele>
        <time>2023-04-06T09:42:05Z</time>
      </trkpt>
      <trkpt lat="44.36319" lon="5.55433">
        <ele>742.3</ele>
        <time>2023-04-06T09:42:06Z</time>
      </trkpt>
      <trkpt lat="44.36316" lon="5.55438">
        <ele>742.5</ele>
        <time>2023-04-06T09:42:08Z</time>
      </trkpt>
      <trkpt lat="44.36313" lon="5.55441">
        <ele>742.6</ele>
        <time>2023-04-06T09:42:09Z</time>
      </trkpt>
      <trkpt lat="44.36312" lon="5.55441">
        <ele>742.7</ele>
        <time>2023-04-06T09:42:10Z</time>
      </trkpt>
      <trkpt lat="44.36309" lon="5.55444">
        <ele>742.8</ele>
        <time>2023-04-06T09:42:11Z</time>
      </trkpt>
      <trkpt lat="44.36308" lon="5.55445">
        <ele>742.9</ele>
        <time>2023-04-06T09:42:12Z</time>
      </trkpt>
      <trkpt lat="44.36306" lon="5.55446">
        <ele>743</ele>
        <time>2023-04-06T09:42:13Z</time>
      </trkpt>
      <trkpt lat="44.36302" lon="5.55449">
        <ele>743.1</ele>
        <time>2023-04-06T09:42:14Z</time>
      </trkpt>
      <trkpt lat="44.36301" lon="5.55449">
        <ele>743.2</ele>
        <time>2023-04-06T09:42:15Z</time>
      </trkpt>
      <trkpt lat="44.36298" lon="5.55451">
        <ele>743.3</ele>
        <time>2023-04-06T09:42:16Z</time>
      </trkpt>
      <trkpt lat="44.36295" lon="5.55452">
        <ele>743.4</ele>
        <time>2023-04-06T09:42:17Z</time>
      </trkpt>
      <trkpt lat="44.36289" lon="5.55453">
        <ele>743.7</ele>
        <time>2023-04-06T09:42:19Z</time>
      </trkpt>
      <trkpt lat="44.36286" lon="5.55454">
        <ele>743.8</ele>
        <time>2023-04-06T09:42:20Z</time>
      </trkpt>
      <trkpt lat="44.36284" lon="5.55456">
        <ele>743.9</ele>
        <time>2023-04-06T09:42:21Z</time>
      </trkpt>
      <trkpt lat="44.36281" lon="5.55457">
        <ele>744.1</ele>
        <time>2023-04-06T09:42:22Z</time>
      </trkpt>
      <trkpt lat="44.36278" lon="5.55458">
        <ele>744.2</ele>
        <time>2023-04-06T09:42:23Z</time>
      </trkpt>
      <trkpt lat="44.36273" lon="5.5546">
        <ele>744.4</ele>
        <time>2023-04-06T09:42:25Z</time>
      </trkpt>
      <trkpt lat="44.36271" lon="5.55461">
        <ele>744.5</ele>
        <time>2023-04-06T09:42:26Z</time>
      </trkpt>
      <trkpt lat="44.36267" lon="5.55462">
        <ele>744.7</ele>
        <time>2023-04-06T09:42:27Z</time>
      </trkpt>
      <trkpt lat="44.36266" lon="5.55462">
        <ele>744.8</ele>
        <time>2023-04-06T09:42:28Z</time>
      </trkpt>
      <trkpt lat="44.36263" lon="5.55463">
        <ele>744.9</ele>
        <time>2023-04-06T09:42:29Z</time>
      </trkpt>
      <trkpt lat="44.36258" lon="5.55465">
        <ele>745.1</ele>
        <time>2023-04-06T09:42:31Z</time>
      </trkpt>
      <trkpt lat="44.36256" lon="5.55466">
        <ele>745.2</ele>
        <time>2023-04-06T09:42:32Z</time>
      </trkpt>
      <trkpt lat="44.36253" lon="5.55467">
        <ele>745.4</ele>
        <time>2023-04-06T09:42:33Z</time>
      </trkpt>
      <trkpt lat="44.36251" lon="5.55469">
        <ele>745.5</ele>
        <time>2023-04-06T09:42:34Z</time>
      </trkpt>
      <trkpt lat="44.36248" lon="5.5547">
        <ele>745.6</ele>
        <time>2023-04-06T09:42:35Z</time>
      </trkpt>
      <trkpt lat="44.36243" lon="5.55472">
        <ele>745.9</ele>
        <time>2023-04-06T09:42:37Z</time>
      </trkpt>
      <trkpt lat="44.36241" lon="5.55472">
        <ele>746</ele>
        <time>2023-04-06T09:42:38Z</time>
      </trkpt>
      <trkpt lat="44.36237" lon="5.55474">
        <ele>746.2</ele>
        <time>2023-04-06T09:42:39Z</time>
      </trkpt>
      <trkpt lat="44.36236" lon="5.55474">
        <ele>746.3</ele>
        <time>2023-04-06T09:42:40Z</time>
      </trkpt>
      <trkpt lat="44.36233" lon="5.55476">
        <ele>746.4</ele>
        <time>2023-04-06T09:42:41Z</time>
      </trkpt>
      <trkpt lat="44.36229" lon="5.55477">
        <ele>746.5</ele>
        <time>2023-04-06T09:42:42Z</time>
      </trkpt>
      <trkpt lat="44.36229" lon="5.55478">
        <ele>746.6</ele>
        <time>2023-04-06T09:42:43Z</time>
      </trkpt>
      <trkpt lat="44.36225" lon="5.55479">
        <ele>746.7</ele>
        <time>2023-04-06T09:42:44Z</time>
      </trkpt>
      <trkpt lat="44.36224" lon="5.55479">
        <ele>746.8</ele>
        <time>2023-04-06T09:42:45Z</time>
      </trkpt>
      <trkpt lat="44.36221" lon="5.5548">
        <ele>746.9</ele>
        <time>2023-04-06T09:42:46Z</time>
      </trkpt>
      <trkpt lat="44.36216" lon="5.55482">
        <ele>747.1</ele>
        <time>2023-04-06T09:42:48Z</time>
      </trkpt>
      <trkpt lat="44.36213" lon="5.55483">
        <ele>747.2</ele>
        <time>2023-04-06T09:42:49Z</time>
      </trkpt>
      <trkpt lat="44.3621" lon="5.55484">
        <ele>747.3</ele>
        <time>2023-04-06T09:42:50Z</time>
      </trkpt>
      <trkpt lat="44.36208" lon="5.55485">
        <ele>747.5</ele>
        <time>2023-04-06T09:42:51Z</time>
      </trkpt>
      <trkpt lat="44.36205" lon="5.55486">
        <ele>747.6</ele>
        <time>2023-04-06T09:42:52Z</time>
      </trkpt>
      <trkpt lat="44.36202" lon="5.55488">
        <ele>747.7</ele>
        <time>2023-04-06T09:42:53Z</time>
      </trkpt>
      <trkpt lat="44.362" lon="5.55489">
        <ele>747.8</ele>
        <time>2023-04-06T09:42:54Z</time>
      </trkpt>
      <trkpt lat="44.36197" lon="5.55491">
        <ele>747.9</ele>
        <time>2023-04-06T09:42:55Z</time>
      </trkpt>
      <trkpt lat="44.36195" lon="5.55493">
        <ele>748</ele>
        <time>2023-04-06T09:42:56Z</time>
      </trkpt>
      <trkpt lat="44.36192" lon="5.55495">
        <ele>748.2</ele>
        <time>2023-04-06T09:42:57Z</time>
      </trkpt>
      <trkpt lat="44.36187" lon="5.55499">
        <ele>748.4</ele>
        <time>2023-04-06T09:42:59Z</time>
      </trkpt>
      <trkpt lat="44.36184" lon="5.55501">
        <ele>748.5</ele>
        <time>2023-04-06T09:43:00Z</time>
      </trkpt>
      <trkpt lat="44.36182" lon="5.55503">
        <ele>748.7</ele>
        <time>2023-04-06T09:43:01Z</time>
      </trkpt>
      <trkpt lat="44.36178" lon="5.55506">
        <ele>748.8</ele>
        <time>2023-04-06T09:43:02Z</time>
      </trkpt>
      <trkpt lat="44.36177" lon="5.55507">
        <ele>748.9</ele>
        <time>2023-04-06T09:43:03Z</time>
      </trkpt>
      <trkpt lat="44.36174" lon="5.55511">
        <ele>749.1</ele>
        <time>2023-04-06T09:43:05Z</time>
      </trkpt>
      <trkpt lat="44.36172" lon="5.55514">
        <ele>749.2</ele>
        <time>2023-04-06T09:43:06Z</time>
      </trkpt>
      <trkpt lat="44.36169" lon="5.55516">
        <ele>749.3</ele>
        <time>2023-04-06T09:43:07Z</time>
      </trkpt>
      <trkpt lat="44.36166" lon="5.55519">
        <ele>749.5</ele>
        <time>2023-04-06T09:43:08Z</time>
      </trkpt>
      <trkpt lat="44.36164" lon="5.5552">
        <ele>749.6</ele>
        <time>2023-04-06T09:43:09Z</time>
      </trkpt>
      <trkpt lat="44.36161" lon="5.55523">
        <ele>749.7</ele>
        <time>2023-04-06T09:43:10Z</time>
      </trkpt>
      <trkpt lat="44.3616" lon="5.55524">
        <ele>749.8</ele>
        <time>2023-04-06T09:43:11Z</time>
      </trkpt>
      <trkpt lat="44.36158" lon="5.55526">
        <ele>749.9</ele>
        <time>2023-04-06T09:43:12Z</time>
      </trkpt>
      <trkpt lat="44.36156" lon="5.55529">
        <ele>750.1</ele>
        <time>2023-04-06T09:43:13Z</time>
      </trkpt>
      <trkpt lat="44.36154" lon="5.55532">
        <ele>750.2</ele>
        <time>2023-04-06T09:43:14Z</time>
      </trkpt>
      <trkpt lat="44.36152" lon="5.55535">
        <ele>750.4</ele>
        <time>2023-04-06T09:43:15Z</time>
      </trkpt>
      <trkpt lat="44.3615" lon="5.55538">
        <ele>750.5</ele>
        <time>2023-04-06T09:43:16Z</time>
      </trkpt>
      <trkpt lat="44.36149" lon="5.55542">
        <ele>750.7</ele>
        <time>2023-04-06T09:43:17Z</time>
      </trkpt>
      <trkpt lat="44.36146" lon="5.55546">
        <ele>750.8</ele>
        <time>2023-04-06T09:43:18Z</time>
      </trkpt>
      <trkpt lat="44.36145" lon="5.55547">
        <ele>750.9</ele>
        <time>2023-04-06T09:43:19Z</time>
      </trkpt>
      <trkpt lat="44.36143" lon="5.5555">
        <ele>751</ele>
        <time>2023-04-06T09:43:20Z</time>
      </trkpt>
      <trkpt lat="44.36139" lon="5.55556">
        <ele>751.3</ele>
        <time>2023-04-06T09:43:22Z</time>
      </trkpt>
      <trkpt lat="44.36138" lon="5.55559">
        <ele>751.4</ele>
        <time>2023-04-06T09:43:23Z</time>
      </trkpt>
      <trkpt lat="44.36137" lon="5.55563">
        <ele>751.6</ele>
        <time>2023-04-06T09:43:24Z</time>
      </trkpt>
      <trkpt lat="44.36135" lon="5.55566">
        <ele>751.7</ele>
        <time>2023-04-06T09:43:25Z</time>
      </trkpt>
      <trkpt lat="44.36134" lon="5.55571">
        <ele>751.9</ele>
        <time>2023-04-06T09:43:26Z</time>
      </trkpt>
      <trkpt lat="44.36133" lon="5.55572">
        <ele>751.9</ele>
        <time>2023-04-06T09:43:27Z</time>
      </trkpt>
      <trkpt lat="44.36131" lon="5.55577">
        <ele>752.1</ele>
        <time>2023-04-06T09:43:28Z</time>
      </trkpt>
      <trkpt lat="44.3613" lon="5.55579">
        <ele>752.2</ele>
        <time>2023-04-06T09:43:29Z</time>
      </trkpt>
      <trkpt lat="44.36129" lon="5.55582">
        <ele>752.3</ele>
        <time>2023-04-06T09:43:30Z</time>
      </trkpt>
      <trkpt lat="44.36128" lon="5.55586">
        <ele>752.5</ele>
        <time>2023-04-06T09:43:31Z</time>
      </trkpt>
      <trkpt lat="44.36125" lon="5.55594">
        <ele>752.8</ele>
        <time>2023-04-06T09:43:33Z</time>
      </trkpt>
      <trkpt lat="44.36124" lon="5.55595">
        <ele>752.9</ele>
        <time>2023-04-06T09:43:34Z</time>
      </trkpt>
      <trkpt lat="44.36122" lon="5.556">
        <ele>753</ele>
        <time>2023-04-06T09:43:35Z</time>
      </trkpt>
      <trkpt lat="44.36121" lon="5.55601">
        <ele>753.1</ele>
        <time>2023-04-06T09:43:36Z</time>
      </trkpt>
      <trkpt lat="44.36119" lon="5.55605">
        <ele>753.2</ele>
        <time>2023-04-06T09:43:37Z</time>
      </trkpt>
      <trkpt lat="44.36115" lon="5.55612">
        <ele>753.5</ele>
        <time>2023-04-06T09:43:39Z</time>
      </trkpt>
      <trkpt lat="44.36114" lon="5.55613">
        <ele>753.6</ele>
        <time>2023-04-06T09:43:40Z</time>
      </trkpt>
      <trkpt lat="44.36112" lon="5.55616">
        <ele>753.7</ele>
        <time>2023-04-06T09:43:41Z</time>
      </trkpt>
      <trkpt lat="44.3611" lon="5.55619">
        <ele>753.8</ele>
        <time>2023-04-06T09:43:42Z</time>
      </trkpt>
      <trkpt lat="44.36108" lon="5.55622">
        <ele>754</ele>
        <time>2023-04-06T09:43:43Z</time>
      </trkpt>
      <trkpt lat="44.36106" lon="5.55624">
        <ele>754.1</ele>
        <time>2023-04-06T09:43:44Z</time>
      </trkpt>
      <trkpt lat="44.36104" lon="5.55627">
        <ele>754.2</ele>
        <time>2023-04-06T09:43:45Z</time>
      </trkpt>
      <trkpt lat="44.36101" lon="5.5563">
        <ele>754.4</ele>
        <time>2023-04-06T09:43:46Z</time>
      </trkpt>
      <trkpt lat="44.361" lon="5.55631">
        <ele>754.4</ele>
        <time>2023-04-06T09:43:47Z</time>
      </trkpt>
      <trkpt lat="44.36097" lon="5.55634">
        <ele>754.6</ele>
        <time>2023-04-06T09:43:48Z</time>
      </trkpt>
      <trkpt lat="44.36095" lon="5.55636">
        <ele>754.7</ele>
        <time>2023-04-06T09:43:49Z</time>
      </trkpt>
      <trkpt lat="44.36093" lon="5.55639">
        <ele>754.8</ele>
        <time>2023-04-06T09:43:50Z</time>
      </trkpt>
      <trkpt lat="44.36088" lon="5.55643">
        <ele>755.1</ele>
        <time>2023-04-06T09:43:52Z</time>
      </trkpt>
      <trkpt lat="44.36086" lon="5.55646">
        <ele>755.3</ele>
        <time>2023-04-06T09:43:53Z</time>
      </trkpt>
      <trkpt lat="44.36084" lon="5.55648">
        <ele>755.4</ele>
        <time>2023-04-06T09:43:54Z</time>
      </trkpt>
      <trkpt lat="44.36082" lon="5.55651">
        <ele>755.5</ele>
        <time>2023-04-06T09:43:55Z</time>
      </trkpt>
      <trkpt lat="44.36079" lon="5.55653">
        <ele>755.7</ele>
        <time>2023-04-06T09:43:56Z</time>
      </trkpt>
      <trkpt lat="44.36075" lon="5.5566">
        <ele>756</ele>
        <time>2023-04-06T09:43:58Z</time>
      </trkpt>
      <trkpt lat="44.36074" lon="5.55661">
        <ele>756.1</ele>
        <time>2023-04-06T09:43:59Z</time>
      </trkpt>
      <trkpt lat="44.36072" lon="5.55664">
        <ele>756.2</ele>
        <time>2023-04-06T09:44:00Z</time>
      </trkpt>
      <trkpt lat="44.3607" lon="5.55667">
        <ele>756.3</ele>
        <time>2023-04-06T09:44:01Z</time>
      </trkpt>
      <trkpt lat="44.36068" lon="5.5567">
        <ele>756.4</ele>
        <time>2023-04-06T09:44:02Z</time>
      </trkpt>
      <trkpt lat="44.36065" lon="5.55676">
        <ele>756.7</ele>
        <time>2023-04-06T09:44:04Z</time>
      </trkpt>
      <trkpt lat="44.36063" lon="5.55679">
        <ele>756.8</ele>
        <time>2023-04-06T09:44:05Z</time>
      </trkpt>
      <trkpt lat="44.36061" lon="5.55683">
        <ele>756.9</ele>
        <time>2023-04-06T09:44:06Z</time>
      </trkpt>
      <trkpt lat="44.3606" lon="5.55686">
        <ele>757</ele>
        <time>2023-04-06T09:44:07Z</time>
      </trkpt>
      <trkpt lat="44.36058" lon="5.55691">
        <ele>757.2</ele>
        <time>2023-04-06T09:44:08Z</time>
      </trkpt>
      <trkpt lat="44.36058" lon="5.55693">
        <ele>757.2</ele>
        <time>2023-04-06T09:44:09Z</time>
      </trkpt>
      <trkpt lat="44.36056" lon="5.55698">
        <ele>757.4</ele>
        <time>2023-04-06T09:44:10Z</time>
      </trkpt>
      <trkpt lat="44.36055" lon="5.55699">
        <ele>757.4</ele>
        <time>2023-04-06T09:44:11Z</time>
      </trkpt>
      <trkpt lat="44.36053" lon="5.55704">
        <ele>757.6</ele>
        <time>2023-04-06T09:44:12Z</time>
      </trkpt>
      <trkpt lat="44.36052" lon="5.55705">
        <ele>757.6</ele>
        <time>2023-04-06T09:44:13Z</time>
      </trkpt>
      <trkpt lat="44.36048" lon="5.55712">
        <ele>757.8</ele>
        <time>2023-04-06T09:44:15Z</time>
      </trkpt>
      <trkpt lat="44.36047" lon="5.55715">
        <ele>757.9</ele>
        <time>2023-04-06T09:44:16Z</time>
      </trkpt>
      <trkpt lat="44.36045" lon="5.55718">
        <ele>758.1</ele>
        <time>2023-04-06T09:44:17Z</time>
      </trkpt>
      <trkpt lat="44.36043" lon="5.55721">
        <ele>758.2</ele>
        <time>2023-04-06T09:44:18Z</time>
      </trkpt>
      <trkpt lat="44.36042" lon="5.55724">
        <ele>758.3</ele>
        <time>2023-04-06T09:44:19Z</time>
      </trkpt>
      <trkpt lat="44.36041" lon="5.55727">
        <ele>758.4</ele>
        <time>2023-04-06T09:44:20Z</time>
      </trkpt>
      <trkpt lat="44.36038" lon="5.55732">
        <ele>758.6</ele>
        <time>2023-04-06T09:44:21Z</time>
      </trkpt>
      <trkpt lat="44.36037" lon="5.55733">
        <ele>758.7</ele>
        <time>2023-04-06T09:44:22Z</time>
      </trkpt>
      <trkpt lat="44.36035" lon="5.55736">
        <ele>758.8</ele>
        <time>2023-04-06T09:44:23Z</time>
      </trkpt>
      <trkpt lat="44.36033" lon="5.55738">
        <ele>758.9</ele>
        <time>2023-04-06T09:44:24Z</time>
      </trkpt>
      <trkpt lat="44.36032" lon="5.55741">
        <ele>759.1</ele>
        <time>2023-04-06T09:44:25Z</time>
      </trkpt>
      <trkpt lat="44.3603" lon="5.55744">
        <ele>759.2</ele>
        <time>2023-04-06T09:44:26Z</time>
      </trkpt>
      <trkpt lat="44.36028" lon="5.55747">
        <ele>759.3</ele>
        <time>2023-04-06T09:44:27Z</time>
      </trkpt>
      <trkpt lat="44.36025" lon="5.5575">
        <ele>759.5</ele>
        <time>2023-04-06T09:44:28Z</time>
      </trkpt>
      <trkpt lat="44.36023" lon="5.55752">
        <ele>759.7</ele>
        <time>2023-04-06T09:44:29Z</time>
      </trkpt>
      <trkpt lat="44.36021" lon="5.55755">
        <ele>759.8</ele>
        <time>2023-04-06T09:44:30Z</time>
      </trkpt>
      <trkpt lat="44.36019" lon="5.55758">
        <ele>760</ele>
        <time>2023-04-06T09:44:31Z</time>
      </trkpt>
      <trkpt lat="44.36017" lon="5.55761">
        <ele>760.1</ele>
        <time>2023-04-06T09:44:32Z</time>
      </trkpt>
      <trkpt lat="44.36015" lon="5.55763">
        <ele>760.3</ele>
        <time>2023-04-06T09:44:33Z</time>
      </trkpt>
      <trkpt lat="44.36013" lon="5.55767">
        <ele>760.4</ele>
        <time>2023-04-06T09:44:34Z</time>
      </trkpt>
      <trkpt lat="44.36011" lon="5.55769">
        <ele>760.6</ele>
        <time>2023-04-06T09:44:35Z</time>
      </trkpt>
      <trkpt lat="44.36008" lon="5.55772">
        <ele>760.8</ele>
        <time>2023-04-06T09:44:36Z</time>
      </trkpt>
      <trkpt lat="44.36006" lon="5.55775">
        <ele>761</ele>
        <time>2023-04-06T09:44:37Z</time>
      </trkpt>
      <trkpt lat="44.36003" lon="5.55778">
        <ele>761.2</ele>
        <time>2023-04-06T09:44:38Z</time>
      </trkpt>
      <trkpt lat="44.36001" lon="5.55781">
        <ele>761.4</ele>
        <time>2023-04-06T09:44:39Z</time>
      </trkpt>
      <trkpt lat="44.35998" lon="5.55784">
        <ele>761.6</ele>
        <time>2023-04-06T09:44:40Z</time>
      </trkpt>
      <trkpt lat="44.35995" lon="5.55787">
        <ele>761.8</ele>
        <time>2023-04-06T09:44:41Z</time>
      </trkpt>
      <trkpt lat="44.35993" lon="5.5579">
        <ele>762</ele>
        <time>2023-04-06T09:44:42Z</time>
      </trkpt>
      <trkpt lat="44.35988" lon="5.55796">
        <ele>762.4</ele>
        <time>2023-04-06T09:44:44Z</time>
      </trkpt>
      <trkpt lat="44.35986" lon="5.55799">
        <ele>762.6</ele>
        <time>2023-04-06T09:44:45Z</time>
      </trkpt>
      <trkpt lat="44.35984" lon="5.55801">
        <ele>762.8</ele>
        <time>2023-04-06T09:44:46Z</time>
      </trkpt>
      <trkpt lat="44.35981" lon="5.55804">
        <ele>762.9</ele>
        <time>2023-04-06T09:44:47Z</time>
      </trkpt>
      <trkpt lat="44.35979" lon="5.55807">
        <ele>763.1</ele>
        <time>2023-04-06T09:44:48Z</time>
      </trkpt>
      <trkpt lat="44.35977" lon="5.5581">
        <ele>763.3</ele>
        <time>2023-04-06T09:44:49Z</time>
      </trkpt>
      <trkpt lat="44.35975" lon="5.55813">
        <ele>763.4</ele>
        <time>2023-04-06T09:44:50Z</time>
      </trkpt>
      <trkpt lat="44.35973" lon="5.55816">
        <ele>763.6</ele>
        <time>2023-04-06T09:44:51Z</time>
      </trkpt>
      <trkpt lat="44.35972" lon="5.55819">
        <ele>763.8</ele>
        <time>2023-04-06T09:44:52Z</time>
      </trkpt>
      <trkpt lat="44.3597" lon="5.55822">
        <ele>763.9</ele>
        <time>2023-04-06T09:44:53Z</time>
      </trkpt>
      <trkpt lat="44.35966" lon="5.55828">
        <ele>764.3</ele>
        <time>2023-04-06T09:44:55Z</time>
      </trkpt>
      <trkpt lat="44.35964" lon="5.55831">
        <ele>764.5</ele>
        <time>2023-04-06T09:44:56Z</time>
      </trkpt>
      <trkpt lat="44.35962" lon="5.55834">
        <ele>764.6</ele>
        <time>2023-04-06T09:44:57Z</time>
      </trkpt>
      <trkpt lat="44.3596" lon="5.55837">
        <ele>764.8</ele>
        <time>2023-04-06T09:44:58Z</time>
      </trkpt>
      <trkpt lat="44.35959" lon="5.55842">
        <ele>765.1</ele>
        <time>2023-04-06T09:44:59Z</time>
      </trkpt>
      <trkpt lat="44.35958" lon="5.55844">
        <ele>765.2</ele>
        <time>2023-04-06T09:45:00Z</time>
      </trkpt>
      <trkpt lat="44.35956" lon="5.55848">
        <ele>765.4</ele>
        <time>2023-04-06T09:45:01Z</time>
      </trkpt>
      <trkpt lat="44.35955" lon="5.5585">
        <ele>765.5</ele>
        <time>2023-04-06T09:45:02Z</time>
      </trkpt>
      <trkpt lat="44.35954" lon="5.55853">
        <ele>765.7</ele>
        <time>2023-04-06T09:45:03Z</time>
      </trkpt>
      <trkpt lat="44.35953" lon="5.55858">
        <ele>765.9</ele>
        <time>2023-04-06T09:45:04Z</time>
      </trkpt>
      <trkpt lat="44.35952" lon="5.5586">
        <ele>766</ele>
        <time>2023-04-06T09:45:05Z</time>
      </trkpt>
      <trkpt lat="44.35951" lon="5.55863">
        <ele>766.2</ele>
        <time>2023-04-06T09:45:06Z</time>
      </trkpt>
      <trkpt lat="44.3595" lon="5.55867">
        <ele>766.4</ele>
        <time>2023-04-06T09:45:07Z</time>
      </trkpt>
      <trkpt lat="44.35948" lon="5.55872">
        <ele>766.6</ele>
        <time>2023-04-06T09:45:08Z</time>
      </trkpt>
      <trkpt lat="44.35948" lon="5.55874">
        <ele>766.7</ele>
        <time>2023-04-06T09:45:09Z</time>
      </trkpt>
      <trkpt lat="44.35947" lon="5.55879">
        <ele>766.9</ele>
        <time>2023-04-06T09:45:10Z</time>
      </trkpt>
      <trkpt lat="44.35947" lon="5.55881">
        <ele>767</ele>
        <time>2023-04-06T09:45:11Z</time>
      </trkpt>
      <trkpt lat="44.35946" lon="5.55885">
        <ele>767.2</ele>
        <time>2023-04-06T09:45:12Z</time>
      </trkpt>
      <trkpt lat="44.35946" lon="5.55887">
        <ele>767.3</ele>
        <time>2023-04-06T09:45:13Z</time>
      </trkpt>
      <trkpt lat="44.35945" lon="5.55891">
        <ele>767.5</ele>
        <time>2023-04-06T09:45:14Z</time>
      </trkpt>
      <trkpt lat="44.35945" lon="5.55893">
        <ele>767.6</ele>
        <time>2023-04-06T09:45:15Z</time>
      </trkpt>
      <trkpt lat="44.35943" lon="5.55897">
        <ele>767.8</ele>
        <time>2023-04-06T09:45:16Z</time>
      </trkpt>
      <trkpt lat="44.35943" lon="5.55898">
        <ele>767.9</ele>
        <time>2023-04-06T09:45:17Z</time>
      </trkpt>
      <trkpt lat="44.35943" lon="5.55901">
        <ele>768</ele>
        <time>2023-04-06T09:45:18Z</time>
      </trkpt>
      <trkpt lat="44.35942" lon="5.55903">
        <ele>768.2</ele>
        <time>2023-04-06T09:45:19Z</time>
      </trkpt>
      <trkpt lat="44.35942" lon="5.55907">
        <ele>768.4</ele>
        <time>2023-04-06T09:45:20Z</time>
      </trkpt>
      <trkpt lat="44.35942" lon="5.55909">
        <ele>768.5</ele>
        <time>2023-04-06T09:45:21Z</time>
      </trkpt>
      <trkpt lat="44.35941" lon="5.55913">
        <ele>768.7</ele>
        <time>2023-04-06T09:45:22Z</time>
      </trkpt>
      <trkpt lat="44.3594" lon="5.55914">
        <ele>768.8</ele>
        <time>2023-04-06T09:45:23Z</time>
      </trkpt>
      <trkpt lat="44.35939" lon="5.55918">
        <ele>769</ele>
        <time>2023-04-06T09:45:24Z</time>
      </trkpt>
      <trkpt lat="44.35939" lon="5.5592">
        <ele>769.1</ele>
        <time>2023-04-06T09:45:25Z</time>
      </trkpt>
      <trkpt lat="44.35937" lon="5.55924">
        <ele>769.3</ele>
        <time>2023-04-06T09:45:26Z</time>
      </trkpt>
      <trkpt lat="44.35936" lon="5.55925">
        <ele>769.4</ele>
        <time>2023-04-06T09:45:27Z</time>
      </trkpt>
      <trkpt lat="44.35934" lon="5.55929">
        <ele>769.6</ele>
        <time>2023-04-06T09:45:28Z</time>
      </trkpt>
      <trkpt lat="44.35933" lon="5.5593">
        <ele>769.7</ele>
        <time>2023-04-06T09:45:29Z</time>
      </trkpt>
      <trkpt lat="44.35931" lon="5.55935">
        <ele>769.9</ele>
        <time>2023-04-06T09:45:30Z</time>
      </trkpt>
      <trkpt lat="44.3593" lon="5.55936">
        <ele>770</ele>
        <time>2023-04-06T09:45:31Z</time>
      </trkpt>
      <trkpt lat="44.35927" lon="5.5594">
        <ele>770.2</ele>
        <time>2023-04-06T09:45:32Z</time>
      </trkpt>
      <trkpt lat="44.35927" lon="5.55941">
        <ele>770.2</ele>
        <time>2023-04-06T09:45:33Z</time>
      </trkpt>
      <trkpt lat="44.35925" lon="5.55945">
        <ele>770.4</ele>
        <time>2023-04-06T09:45:34Z</time>
      </trkpt>
      <trkpt lat="44.35924" lon="5.55946">
        <ele>770.5</ele>
        <time>2023-04-06T09:45:35Z</time>
      </trkpt>
      <trkpt lat="44.35921" lon="5.55949">
        <ele>770.7</ele>
        <time>2023-04-06T09:45:36Z</time>
      </trkpt>
      <trkpt lat="44.3592" lon="5.5595">
        <ele>770.7</ele>
        <time>2023-04-06T09:45:37Z</time>
      </trkpt>
      <trkpt lat="44.35917" lon="5.55954">
        <ele>771</ele>
        <time>2023-04-06T09:45:38Z</time>
      </trkpt>
      <trkpt lat="44.35916" lon="5.55955">
        <ele>771</ele>
        <time>2023-04-06T09:45:39Z</time>
      </trkpt>
      <trkpt lat="44.35914" lon="5.55958">
        <ele>771.2</ele>
        <time>2023-04-06T09:45:40Z</time>
      </trkpt>
      <trkpt lat="44.35911" lon="5.55961">
        <ele>771.4</ele>
        <time>2023-04-06T09:45:41Z</time>
      </trkpt>
      <trkpt lat="44.3591" lon="5.55963">
        <ele>771.5</ele>
        <time>2023-04-06T09:45:42Z</time>
      </trkpt>
      <trkpt lat="44.35908" lon="5.55966">
        <ele>771.6</ele>
        <time>2023-04-06T09:45:43Z</time>
      </trkpt>
      <trkpt lat="44.35907" lon="5.55967">
        <ele>771.7</ele>
        <time>2023-04-06T09:45:44Z</time>
      </trkpt>
      <trkpt lat="44.35904" lon="5.55971">
        <ele>771.9</ele>
        <time>2023-04-06T09:45:45Z</time>
      </trkpt>
      <trkpt lat="44.35903" lon="5.55972">
        <ele>772</ele>
        <time>2023-04-06T09:45:46Z</time>
      </trkpt>
      <trkpt lat="44.35901" lon="5.55975">
        <ele>772.2</ele>
        <time>2023-04-06T09:45:47Z</time>
      </trkpt>
      <trkpt lat="44.359" lon="5.55977">
        <ele>772.2</ele>
        <time>2023-04-06T09:45:48Z</time>
      </trkpt>
      <trkpt lat="44.35898" lon="5.5598">
        <ele>772.4</ele>
        <time>2023-04-06T09:45:49Z</time>
      </trkpt>
      <trkpt lat="44.35897" lon="5.55981">
        <ele>772.5</ele>
        <time>2023-04-06T09:45:50Z</time>
      </trkpt>
      <trkpt lat="44.35894" lon="5.55985">
        <ele>772.7</ele>
        <time>2023-04-06T09:45:51Z</time>
      </trkpt>
      <trkpt lat="44.35894" lon="5.55986">
        <ele>772.7</ele>
        <time>2023-04-06T09:45:52Z</time>
      </trkpt>
      <trkpt lat="44.35891" lon="5.55989">
        <ele>772.9</ele>
        <time>2023-04-06T09:45:53Z</time>
      </trkpt>
      <trkpt lat="44.3589" lon="5.5599">
        <ele>773</ele>
        <time>2023-04-06T09:45:54Z</time>
      </trkpt>
      <trkpt lat="44.35887" lon="5.55992">
        <ele>773.1</ele>
        <time>2023-04-06T09:45:55Z</time>
      </trkpt>
      <trkpt lat="44.35886" lon="5.55993">
        <ele>773.2</ele>
        <time>2023-04-06T09:45:56Z</time>
      </trkpt>
      <trkpt lat="44.35884" lon="5.55997">
        <ele>773.4</ele>
        <time>2023-04-06T09:45:57Z</time>
      </trkpt>
      <trkpt lat="44.35883" lon="5.55998">
        <ele>773.4</ele>
        <time>2023-04-06T09:45:58Z</time>
      </trkpt>
      <trkpt lat="44.35881" lon="5.56002">
        <ele>773.6</ele>
        <time>2023-04-06T09:45:59Z</time>
      </trkpt>
      <trkpt lat="44.3588" lon="5.56003">
        <ele>773.7</ele>
        <time>2023-04-06T09:46:00Z</time>
      </trkpt>
      <trkpt lat="44.35878" lon="5.56007">
        <ele>773.8</ele>
        <time>2023-04-06T09:46:01Z</time>
      </trkpt>
      <trkpt lat="44.35878" lon="5.56008">
        <ele>773.9</ele>
        <time>2023-04-06T09:46:02Z</time>
      </trkpt>
      <trkpt lat="44.35875" lon="5.56012">
        <ele>774.1</ele>
        <time>2023-04-06T09:46:03Z</time>
      </trkpt>
      <trkpt lat="44.35875" lon="5.56013">
        <ele>774.1</ele>
        <time>2023-04-06T09:46:04Z</time>
      </trkpt>
      <trkpt lat="44.35872" lon="5.56017">
        <ele>774.3</ele>
        <time>2023-04-06T09:46:05Z</time>
      </trkpt>
      <trkpt lat="44.35871" lon="5.56018">
        <ele>774.4</ele>
        <time>2023-04-06T09:46:06Z</time>
      </trkpt>
      <trkpt lat="44.35869" lon="5.56021">
        <ele>774.6</ele>
        <time>2023-04-06T09:46:07Z</time>
      </trkpt>
      <trkpt lat="44.35868" lon="5.56022">
        <ele>774.6</ele>
        <time>2023-04-06T09:46:08Z</time>
      </trkpt>
      <trkpt lat="44.35867" lon="5.56025">
        <ele>774.8</ele>
        <time>2023-04-06T09:46:09Z</time>
      </trkpt>
      <trkpt lat="44.35863" lon="5.56031">
        <ele>775</ele>
        <time>2023-04-06T09:46:11Z</time>
      </trkpt>
      <trkpt lat="44.35861" lon="5.56034">
        <ele>775.2</ele>
        <time>2023-04-06T09:46:12Z</time>
      </trkpt>
      <trkpt lat="44.3586" lon="5.56035">
        <ele>775.3</ele>
        <time>2023-04-06T09:46:13Z</time>
      </trkpt>
      <trkpt lat="44.35856" lon="5.5604">
        <ele>775.5</ele>
        <time>2023-04-06T09:46:15Z</time>
      </trkpt>
      <trkpt lat="44.35854" lon="5.56044">
        <ele>775.7</ele>
        <time>2023-04-06T09:46:16Z</time>
      </trkpt>
      <trkpt lat="44.35854" lon="5.56045">
        <ele>775.8</ele>
        <time>2023-04-06T09:46:17Z</time>
      </trkpt>
      <trkpt lat="44.3585" lon="5.5605">
        <ele>776</ele>
        <time>2023-04-06T09:46:19Z</time>
      </trkpt>
      <trkpt lat="44.35848" lon="5.56053">
        <ele>776.2</ele>
        <time>2023-04-06T09:46:20Z</time>
      </trkpt>
      <trkpt lat="44.35846" lon="5.56055">
        <ele>776.3</ele>
        <time>2023-04-06T09:46:21Z</time>
      </trkpt>
      <trkpt lat="44.35844" lon="5.56059">
        <ele>776.5</ele>
        <time>2023-04-06T09:46:22Z</time>
      </trkpt>
      <trkpt lat="44.35843" lon="5.5606">
        <ele>776.6</ele>
        <time>2023-04-06T09:46:23Z</time>
      </trkpt>
      <trkpt lat="44.3584" lon="5.56064">
        <ele>776.8</ele>
        <time>2023-04-06T09:46:24Z</time>
      </trkpt>
      <trkpt lat="44.3584" lon="5.56065">
        <ele>776.9</ele>
        <time>2023-04-06T09:46:25Z</time>
      </trkpt>
      <trkpt lat="44.35837" lon="5.56069">
        <ele>777.2</ele>
        <time>2023-04-06T09:46:26Z</time>
      </trkpt>
      <trkpt lat="44.35836" lon="5.5607">
        <ele>777.3</ele>
        <time>2023-04-06T09:46:27Z</time>
      </trkpt>
      <trkpt lat="44.35834" lon="5.56074">
        <ele>777.5</ele>
        <time>2023-04-06T09:46:28Z</time>
      </trkpt>
      <trkpt lat="44.35833" lon="5.56075">
        <ele>777.6</ele>
        <time>2023-04-06T09:46:29Z</time>
      </trkpt>
      <trkpt lat="44.35829" lon="5.5608">
        <ele>777.9</ele>
        <time>2023-04-06T09:46:31Z</time>
      </trkpt>
      <trkpt lat="44.35826" lon="5.56084">
        <ele>778</ele>
        <time>2023-04-06T09:46:32Z</time>
      </trkpt>
      <trkpt lat="44.35825" lon="5.56085">
        <ele>778.1</ele>
        <time>2023-04-06T09:46:33Z</time>
      </trkpt>
      <trkpt lat="44.35823" lon="5.56088">
        <ele>778.3</ele>
        <time>2023-04-06T09:46:34Z</time>
      </trkpt>
      <trkpt lat="44.35822" lon="5.56089">
        <ele>778.3</ele>
        <time>2023-04-06T09:46:35Z</time>
      </trkpt>
      <trkpt lat="44.3582" lon="5.56092">
        <ele>778.5</ele>
        <time>2023-04-06T09:46:36Z</time>
      </trkpt>
      <trkpt lat="44.35819" lon="5.56093">
        <ele>778.5</ele>
        <time>2023-04-06T09:46:37Z</time>
      </trkpt>
      <trkpt lat="44.35817" lon="5.56097">
        <ele>778.7</ele>
        <time>2023-04-06T09:46:38Z</time>
      </trkpt>
      <trkpt lat="44.35816" lon="5.56098">
        <ele>778.8</ele>
        <time>2023-04-06T09:46:39Z</time>
      </trkpt>
      <trkpt lat="44.35814" lon="5.561">
        <ele>778.9</ele>
        <time>2023-04-06T09:46:40Z</time>
      </trkpt>
      <trkpt lat="44.35812" lon="5.56105">
        <ele>779.2</ele>
        <time>2023-04-06T09:46:42Z</time>
      </trkpt>
      <trkpt lat="44.3581" lon="5.56107">
        <ele>779.3</ele>
        <time>2023-04-06T09:46:43Z</time>
      </trkpt>
      <trkpt lat="44.35807" lon="5.5611">
        <ele>779.5</ele>
        <time>2023-04-06T09:46:44Z</time>
      </trkpt>
      <trkpt lat="44.35806" lon="5.56111">
        <ele>779.6</ele>
        <time>2023-04-06T09:46:45Z</time>
      </trkpt>
      <trkpt lat="44.35803" lon="5.56113">
        <ele>779.8</ele>
        <time>2023-04-06T09:46:46Z</time>
      </trkpt>
      <trkpt lat="44.35799" lon="5.56118">
        <ele>780.1</ele>
        <time>2023-04-06T09:46:48Z</time>
      </trkpt>
      <trkpt lat="44.35797" lon="5.56121">
        <ele>780.3</ele>
        <time>2023-04-06T09:46:49Z</time>
      </trkpt>
      <trkpt lat="44.35796" lon="5.56123">
        <ele>780.3</ele>
        <time>2023-04-06T09:46:50Z</time>
      </trkpt>
      <trkpt lat="44.35794" lon="5.56125">
        <ele>780.5</ele>
        <time>2023-04-06T09:46:51Z</time>
      </trkpt>
      <trkpt lat="44.35792" lon="5.56128">
        <ele>780.6</ele>
        <time>2023-04-06T09:46:52Z</time>
      </trkpt>
      <trkpt lat="44.35788" lon="5.56132">
        <ele>780.9</ele>
        <time>2023-04-06T09:46:54Z</time>
      </trkpt>
      <trkpt lat="44.35787" lon="5.56135">
        <ele>781</ele>
        <time>2023-04-06T09:46:55Z</time>
      </trkpt>
      <trkpt lat="44.35784" lon="5.56138">
        <ele>781.2</ele>
        <time>2023-04-06T09:46:56Z</time>
      </trkpt>
      <trkpt lat="44.35783" lon="5.56139">
        <ele>781.3</ele>
        <time>2023-04-06T09:46:57Z</time>
      </trkpt>
      <trkpt lat="44.3578" lon="5.56143">
        <ele>781.5</ele>
        <time>2023-04-06T09:46:58Z</time>
      </trkpt>
      <trkpt lat="44.35779" lon="5.56144">
        <ele>781.6</ele>
        <time>2023-04-06T09:46:59Z</time>
      </trkpt>
      <trkpt lat="44.35777" lon="5.56147">
        <ele>781.9</ele>
        <time>2023-04-06T09:47:00Z</time>
      </trkpt>
      <trkpt lat="44.35776" lon="5.56148">
        <ele>781.9</ele>
        <time>2023-04-06T09:47:01Z</time>
      </trkpt>
      <trkpt lat="44.35773" lon="5.56152">
        <ele>782.2</ele>
        <time>2023-04-06T09:47:02Z</time>
      </trkpt>
      <trkpt lat="44.35772" lon="5.56153">
        <ele>782.2</ele>
        <time>2023-04-06T09:47:03Z</time>
      </trkpt>
      <trkpt lat="44.35769" lon="5.56157">
        <ele>782.5</ele>
        <time>2023-04-06T09:47:05Z</time>
      </trkpt>
      <trkpt lat="44.35767" lon="5.56161">
        <ele>782.8</ele>
        <time>2023-04-06T09:47:06Z</time>
      </trkpt>
      <trkpt lat="44.35767" lon="5.56162">
        <ele>782.8</ele>
        <time>2023-04-06T09:47:07Z</time>
      </trkpt>
      <trkpt lat="44.35766" lon="5.56166">
        <ele>783.1</ele>
        <time>2023-04-06T09:47:08Z</time>
      </trkpt>
      <trkpt lat="44.35766" lon="5.56168">
        <ele>783.1</ele>
        <time>2023-04-06T09:47:09Z</time>
      </trkpt>
      <trkpt lat="44.35765" lon="5.56172">
        <ele>783.3</ele>
        <time>2023-04-06T09:47:10Z</time>
      </trkpt>
      <trkpt lat="44.35765" lon="5.56174">
        <ele>783.4</ele>
        <time>2023-04-06T09:47:11Z</time>
      </trkpt>
      <trkpt lat="44.35764" lon="5.56177">
        <ele>783.6</ele>
        <time>2023-04-06T09:47:12Z</time>
      </trkpt>
      <trkpt lat="44.35764" lon="5.56179">
        <ele>783.6</ele>
        <time>2023-04-06T09:47:13Z</time>
      </trkpt>
      <trkpt lat="44.35764" lon="5.56181">
        <ele>783.8</ele>
        <time>2023-04-06T09:47:14Z</time>
      </trkpt>
      <trkpt lat="44.35763" lon="5.56187">
        <ele>784</ele>
        <time>2023-04-06T09:47:16Z</time>
      </trkpt>
      <trkpt lat="44.35763" lon="5.5619">
        <ele>784.1</ele>
        <time>2023-04-06T09:47:17Z</time>
      </trkpt>
      <trkpt lat="44.35762" lon="5.56194">
        <ele>784.3</ele>
        <time>2023-04-06T09:47:18Z</time>
      </trkpt>
      <trkpt lat="44.35761" lon="5.56195">
        <ele>784.3</ele>
        <time>2023-04-06T09:47:19Z</time>
      </trkpt>
      <trkpt lat="44.3576" lon="5.56199">
        <ele>784.5</ele>
        <time>2023-04-06T09:47:20Z</time>
      </trkpt>
      <trkpt lat="44.3576" lon="5.562">
        <ele>784.6</ele>
        <time>2023-04-06T09:47:21Z</time>
      </trkpt>
      <trkpt lat="44.35758" lon="5.56205">
        <ele>784.8</ele>
        <time>2023-04-06T09:47:22Z</time>
      </trkpt>
      <trkpt lat="44.35758" lon="5.56206">
        <ele>784.8</ele>
        <time>2023-04-06T09:47:23Z</time>
      </trkpt>
      <trkpt lat="44.35756" lon="5.56209">
        <ele>784.9</ele>
        <time>2023-04-06T09:47:24Z</time>
      </trkpt>
      <trkpt lat="44.35754" lon="5.56212">
        <ele>785.1</ele>
        <time>2023-04-06T09:47:25Z</time>
      </trkpt>
      <trkpt lat="44.35747" lon="5.56214">
        <ele>785.3</ele>
        <time>2023-04-06T09:47:27Z</time>
      </trkpt>
      <trkpt lat="44.35746" lon="5.56214">
        <ele>785.4</ele>
        <time>2023-04-06T09:47:28Z</time>
      </trkpt>
      <trkpt lat="44.35743" lon="5.56215">
        <ele>785.5</ele>
        <time>2023-04-06T09:47:29Z</time>
      </trkpt>
      <trkpt lat="44.3574" lon="5.56215">
        <ele>785.6</ele>
        <time>2023-04-06T09:47:30Z</time>
      </trkpt>
      <trkpt lat="44.35737" lon="5.56215">
        <ele>785.7</ele>
        <time>2023-04-06T09:47:31Z</time>
      </trkpt>
      <trkpt lat="44.35735" lon="5.56215">
        <ele>785.8</ele>
        <time>2023-04-06T09:47:32Z</time>
      </trkpt>
      <trkpt lat="44.35732" lon="5.56215">
        <ele>785.9</ele>
        <time>2023-04-06T09:47:33Z</time>
      </trkpt>
      <trkpt lat="44.35731" lon="5.56215">
        <ele>785.9</ele>
        <time>2023-04-06T09:47:34Z</time>
      </trkpt>
      <trkpt lat="44.35728" lon="5.56215">
        <ele>786.1</ele>
        <time>2023-04-06T09:47:35Z</time>
      </trkpt>
      <trkpt lat="44.35725" lon="5.56215">
        <ele>786.2</ele>
        <time>2023-04-06T09:47:36Z</time>
      </trkpt>
      <trkpt lat="44.3572" lon="5.56216">
        <ele>786.4</ele>
        <time>2023-04-06T09:47:38Z</time>
      </trkpt>
      <trkpt lat="44.35718" lon="5.56217">
        <ele>786.5</ele>
        <time>2023-04-06T09:47:39Z</time>
      </trkpt>
      <trkpt lat="44.35714" lon="5.56218">
        <ele>786.7</ele>
        <time>2023-04-06T09:47:40Z</time>
      </trkpt>
      <trkpt lat="44.35713" lon="5.56218">
        <ele>786.8</ele>
        <time>2023-04-06T09:47:41Z</time>
      </trkpt>
      <trkpt lat="44.3571" lon="5.5622">
        <ele>786.9</ele>
        <time>2023-04-06T09:47:42Z</time>
      </trkpt>
      <trkpt lat="44.35708" lon="5.56221">
        <ele>787</ele>
        <time>2023-04-06T09:47:43Z</time>
      </trkpt>
      <trkpt lat="44.35705" lon="5.56225">
        <ele>787.2</ele>
        <time>2023-04-06T09:47:44Z</time>
      </trkpt>
      <trkpt lat="44.35704" lon="5.56226">
        <ele>787.3</ele>
        <time>2023-04-06T09:47:45Z</time>
      </trkpt>
      <trkpt lat="44.35701" lon="5.56229">
        <ele>787.4</ele>
        <time>2023-04-06T09:47:46Z</time>
      </trkpt>
      <trkpt lat="44.357" lon="5.5623">
        <ele>787.5</ele>
        <time>2023-04-06T09:47:47Z</time>
      </trkpt>
      <trkpt lat="44.35696" lon="5.56234">
        <ele>787.7</ele>
        <time>2023-04-06T09:47:49Z</time>
      </trkpt>
      <trkpt lat="44.35693" lon="5.56236">
        <ele>787.8</ele>
        <time>2023-04-06T09:47:50Z</time>
      </trkpt>
      <trkpt lat="44.3569" lon="5.56239">
        <ele>788</ele>
        <time>2023-04-06T09:47:51Z</time>
      </trkpt>
      <trkpt lat="44.35689" lon="5.5624">
        <ele>788.1</ele>
        <time>2023-04-06T09:47:52Z</time>
      </trkpt>
      <trkpt lat="44.35686" lon="5.56243">
        <ele>788.2</ele>
        <time>2023-04-06T09:47:53Z</time>
      </trkpt>
      <trkpt lat="44.35685" lon="5.56245">
        <ele>788.3</ele>
        <time>2023-04-06T09:47:54Z</time>
      </trkpt>
      <trkpt lat="44.35683" lon="5.56247">
        <ele>788.4</ele>
        <time>2023-04-06T09:47:55Z</time>
      </trkpt>
      <trkpt lat="44.35682" lon="5.56251">
        <ele>788.6</ele>
        <time>2023-04-06T09:47:56Z</time>
      </trkpt>
      <trkpt lat="44.35679" lon="5.56255">
        <ele>788.8</ele>
        <time>2023-04-06T09:47:57Z</time>
      </trkpt>
      <trkpt lat="44.35679" lon="5.56256">
        <ele>788.8</ele>
        <time>2023-04-06T09:47:58Z</time>
      </trkpt>
      <trkpt lat="44.35676" lon="5.56263">
        <ele>789.1</ele>
        <time>2023-04-06T09:48:00Z</time>
      </trkpt>
      <trkpt lat="44.35675" lon="5.56267">
        <ele>789.4</ele>
        <time>2023-04-06T09:48:01Z</time>
      </trkpt>
      <trkpt lat="44.35674" lon="5.56269">
        <ele>789.4</ele>
        <time>2023-04-06T09:48:02Z</time>
      </trkpt>
      <trkpt lat="44.35673" lon="5.56274">
        <ele>789.7</ele>
        <time>2023-04-06T09:48:03Z</time>
      </trkpt>
      <trkpt lat="44.35673" lon="5.56275">
        <ele>789.7</ele>
        <time>2023-04-06T09:48:04Z</time>
      </trkpt>
      <trkpt lat="44.35671" lon="5.56282">
        <ele>790.1</ele>
        <time>2023-04-06T09:48:06Z</time>
      </trkpt>
      <trkpt lat="44.35671" lon="5.56287">
        <ele>790.4</ele>
        <time>2023-04-06T09:48:07Z</time>
      </trkpt>
      <trkpt lat="44.35671" lon="5.56289">
        <ele>790.5</ele>
        <time>2023-04-06T09:48:08Z</time>
      </trkpt>
      <trkpt lat="44.35671" lon="5.56295">
        <ele>790.7</ele>
        <time>2023-04-06T09:48:09Z</time>
      </trkpt>
      <trkpt lat="44.35671" lon="5.56297">
        <ele>790.8</ele>
        <time>2023-04-06T09:48:10Z</time>
      </trkpt>
      <trkpt lat="44.35671" lon="5.56301">
        <ele>791</ele>
        <time>2023-04-06T09:48:11Z</time>
      </trkpt>
      <trkpt lat="44.35672" lon="5.56306">
        <ele>791.3</ele>
        <time>2023-04-06T09:48:12Z</time>
      </trkpt>
      <trkpt lat="44.35672" lon="5.56307">
        <ele>791.3</ele>
        <time>2023-04-06T09:48:13Z</time>
      </trkpt>
      <trkpt lat="44.35673" lon="5.56312">
        <ele>791.6</ele>
        <time>2023-04-06T09:48:14Z</time>
      </trkpt>
      <trkpt lat="44.35673" lon="5.56314">
        <ele>791.6</ele>
        <time>2023-04-06T09:48:15Z</time>
      </trkpt>
      <trkpt lat="44.35674" lon="5.56319">
        <ele>791.9</ele>
        <time>2023-04-06T09:48:16Z</time>
      </trkpt>
      <trkpt lat="44.35674" lon="5.56321">
        <ele>792</ele>
        <time>2023-04-06T09:48:17Z</time>
      </trkpt>
      <trkpt lat="44.35675" lon="5.56327">
        <ele>792.2</ele>
        <time>2023-04-06T09:48:18Z</time>
      </trkpt>
      <trkpt lat="44.35675" lon="5.56328">
        <ele>792.3</ele>
        <time>2023-04-06T09:48:19Z</time>
      </trkpt>
      <trkpt lat="44.35675" lon="5.56334">
        <ele>792.5</ele>
        <time>2023-04-06T09:48:20Z</time>
      </trkpt>
      <trkpt lat="44.35675" lon="5.56336">
        <ele>792.6</ele>
        <time>2023-04-06T09:48:21Z</time>
      </trkpt>
      <trkpt lat="44.35675" lon="5.5634">
        <ele>792.7</ele>
        <time>2023-04-06T09:48:22Z</time>
      </trkpt>
      <trkpt lat="44.35674" lon="5.56344">
        <ele>792.8</ele>
        <time>2023-04-06T09:48:23Z</time>
      </trkpt>
      <trkpt lat="44.35673" lon="5.56347">
        <ele>793</ele>
        <time>2023-04-06T09:48:24Z</time>
      </trkpt>
      <trkpt lat="44.35672" lon="5.56351">
        <ele>793.1</ele>
        <time>2023-04-06T09:48:25Z</time>
      </trkpt>
      <trkpt lat="44.35671" lon="5.56354">
        <ele>793.2</ele>
        <time>2023-04-06T09:48:26Z</time>
      </trkpt>
      <trkpt lat="44.35669" lon="5.56357">
        <ele>793.4</ele>
        <time>2023-04-06T09:48:27Z</time>
      </trkpt>
      <trkpt lat="44.35667" lon="5.5636">
        <ele>793.5</ele>
        <time>2023-04-06T09:48:28Z</time>
      </trkpt>
      <trkpt lat="44.35664" lon="5.56362">
        <ele>793.6</ele>
        <time>2023-04-06T09:48:29Z</time>
      </trkpt>
      <trkpt lat="44.35661" lon="5.56363">
        <ele>793.7</ele>
        <time>2023-04-06T09:48:30Z</time>
      </trkpt>
      <trkpt lat="44.35658" lon="5.56364">
        <ele>793.9</ele>
        <time>2023-04-06T09:48:31Z</time>
      </trkpt>
      <trkpt lat="44.35655" lon="5.56366">
        <ele>794</ele>
        <time>2023-04-06T09:48:32Z</time>
      </trkpt>
      <trkpt lat="44.35652" lon="5.56367">
        <ele>794.1</ele>
        <time>2023-04-06T09:48:33Z</time>
      </trkpt>
      <trkpt lat="44.35649" lon="5.56368">
        <ele>794.3</ele>
        <time>2023-04-06T09:48:34Z</time>
      </trkpt>
      <trkpt lat="44.35647" lon="5.56369">
        <ele>794.4</ele>
        <time>2023-04-06T09:48:35Z</time>
      </trkpt>
      <trkpt lat="44.35644" lon="5.56369">
        <ele>794.5</ele>
        <time>2023-04-06T09:48:36Z</time>
      </trkpt>
      <trkpt lat="44.35641" lon="5.5637">
        <ele>794.7</ele>
        <time>2023-04-06T09:48:37Z</time>
      </trkpt>
      <trkpt lat="44.35639" lon="5.56371">
        <ele>794.8</ele>
        <time>2023-04-06T09:48:38Z</time>
      </trkpt>
      <trkpt lat="44.35636" lon="5.56373">
        <ele>795</ele>
        <time>2023-04-06T09:48:39Z</time>
      </trkpt>
      <trkpt lat="44.35632" lon="5.56376">
        <ele>795.2</ele>
        <time>2023-04-06T09:48:40Z</time>
      </trkpt>
      <trkpt lat="44.35631" lon="5.56376">
        <ele>795.2</ele>
        <time>2023-04-06T09:48:41Z</time>
      </trkpt>
      <trkpt lat="44.35629" lon="5.56378">
        <ele>795.4</ele>
        <time>2023-04-06T09:48:42Z</time>
      </trkpt>
      <trkpt lat="44.35625" lon="5.56381">
        <ele>795.5</ele>
        <time>2023-04-06T09:48:43Z</time>
      </trkpt>
      <trkpt lat="44.35624" lon="5.56382">
        <ele>795.6</ele>
        <time>2023-04-06T09:48:44Z</time>
      </trkpt>
      <trkpt lat="44.35622" lon="5.56384">
        <ele>795.7</ele>
        <time>2023-04-06T09:48:45Z</time>
      </trkpt>
      <trkpt lat="44.35619" lon="5.56388">
        <ele>795.9</ele>
        <time>2023-04-06T09:48:46Z</time>
      </trkpt>
      <trkpt lat="44.35618" lon="5.56389">
        <ele>796</ele>
        <time>2023-04-06T09:48:47Z</time>
      </trkpt>
      <trkpt lat="44.35616" lon="5.56393">
        <ele>796.1</ele>
        <time>2023-04-06T09:48:48Z</time>
      </trkpt>
      <trkpt lat="44.35615" lon="5.56395">
        <ele>796.2</ele>
        <time>2023-04-06T09:48:49Z</time>
      </trkpt>
      <trkpt lat="44.35614" lon="5.564">
        <ele>796.3</ele>
        <time>2023-04-06T09:48:50Z</time>
      </trkpt>
      <trkpt lat="44.35613" lon="5.56402">
        <ele>796.4</ele>
        <time>2023-04-06T09:48:51Z</time>
      </trkpt>
      <trkpt lat="44.35613" lon="5.56406">
        <ele>796.5</ele>
        <time>2023-04-06T09:48:52Z</time>
      </trkpt>
      <trkpt lat="44.35613" lon="5.5641">
        <ele>796.7</ele>
        <time>2023-04-06T09:48:53Z</time>
      </trkpt>
      <trkpt lat="44.35613" lon="5.56414">
        <ele>796.8</ele>
        <time>2023-04-06T09:48:54Z</time>
      </trkpt>
      <trkpt lat="44.35613" lon="5.56418">
        <ele>796.9</ele>
        <time>2023-04-06T09:48:55Z</time>
      </trkpt>
      <trkpt lat="44.35614" lon="5.56422">
        <ele>797</ele>
        <time>2023-04-06T09:48:56Z</time>
      </trkpt>
      <trkpt lat="44.35615" lon="5.56426">
        <ele>797.2</ele>
        <time>2023-04-06T09:48:57Z</time>
      </trkpt>
      <trkpt lat="44.35615" lon="5.5643">
        <ele>797.3</ele>
        <time>2023-04-06T09:48:58Z</time>
      </trkpt>
      <trkpt lat="44.35616" lon="5.56433">
        <ele>797.4</ele>
        <time>2023-04-06T09:48:59Z</time>
      </trkpt>
      <trkpt lat="44.35617" lon="5.56437">
        <ele>797.6</ele>
        <time>2023-04-06T09:49:00Z</time>
      </trkpt>
      <trkpt lat="44.35618" lon="5.56443">
        <ele>797.8</ele>
        <time>2023-04-06T09:49:01Z</time>
      </trkpt>
      <trkpt lat="44.35618" lon="5.56445">
        <ele>797.8</ele>
        <time>2023-04-06T09:49:02Z</time>
      </trkpt>
      <trkpt lat="44.35619" lon="5.56448">
        <ele>798</ele>
        <time>2023-04-06T09:49:03Z</time>
      </trkpt>
      <trkpt lat="44.35621" lon="5.56452">
        <ele>798.2</ele>
        <time>2023-04-06T09:49:04Z</time>
      </trkpt>
      <trkpt lat="44.35622" lon="5.56456">
        <ele>798.3</ele>
        <time>2023-04-06T09:49:05Z</time>
      </trkpt>
      <trkpt lat="44.35624" lon="5.56459">
        <ele>798.5</ele>
        <time>2023-04-06T09:49:06Z</time>
      </trkpt>
      <trkpt lat="44.35626" lon="5.56463">
        <ele>798.7</ele>
        <time>2023-04-06T09:49:07Z</time>
      </trkpt>
      <trkpt lat="44.35627" lon="5.56465">
        <ele>798.8</ele>
        <time>2023-04-06T09:49:08Z</time>
      </trkpt>
      <trkpt lat="44.35629" lon="5.5647">
        <ele>799</ele>
        <time>2023-04-06T09:49:09Z</time>
      </trkpt>
      <trkpt lat="44.35629" lon="5.56471">
        <ele>799.1</ele>
        <time>2023-04-06T09:49:10Z</time>
      </trkpt>
      <trkpt lat="44.35631" lon="5.56475">
        <ele>799.3</ele>
        <time>2023-04-06T09:49:11Z</time>
      </trkpt>
      <trkpt lat="44.35632" lon="5.56478">
        <ele>799.4</ele>
        <time>2023-04-06T09:49:12Z</time>
      </trkpt>
      <trkpt lat="44.35634" lon="5.56483">
        <ele>799.6</ele>
        <time>2023-04-06T09:49:13Z</time>
      </trkpt>
      <trkpt lat="44.35634" lon="5.56484">
        <ele>799.7</ele>
        <time>2023-04-06T09:49:14Z</time>
      </trkpt>
      <trkpt lat="44.35635" lon="5.56488">
        <ele>799.9</ele>
        <time>2023-04-06T09:49:15Z</time>
      </trkpt>
      <trkpt lat="44.35636" lon="5.56492">
        <ele>800</ele>
        <time>2023-04-06T09:49:16Z</time>
      </trkpt>
      <trkpt lat="44.35637" lon="5.56496">
        <ele>800.2</ele>
        <time>2023-04-06T09:49:17Z</time>
      </trkpt>
      <trkpt lat="44.35637" lon="5.56504">
        <ele>800.4</ele>
        <time>2023-04-06T09:49:19Z</time>
      </trkpt>
      <trkpt lat="44.35637" lon="5.56508">
        <ele>800.5</ele>
        <time>2023-04-06T09:49:20Z</time>
      </trkpt>
      <trkpt lat="44.35636" lon="5.56513">
        <ele>800.7</ele>
        <time>2023-04-06T09:49:21Z</time>
      </trkpt>
      <trkpt lat="44.35636" lon="5.56514">
        <ele>800.7</ele>
        <time>2023-04-06T09:49:22Z</time>
      </trkpt>
      <trkpt lat="44.35635" lon="5.56517">
        <ele>800.8</ele>
        <time>2023-04-06T09:49:23Z</time>
      </trkpt>
      <trkpt lat="44.35634" lon="5.5652">
        <ele>800.9</ele>
        <time>2023-04-06T09:49:25Z</time>
      </trkpt>
      <trkpt lat="44.35632" lon="5.56526">
        <ele>801.1</ele>
        <time>2023-04-06T09:49:26Z</time>
      </trkpt>
      <trkpt lat="44.3563" lon="5.5653">
        <ele>801.2</ele>
        <time>2023-04-06T09:49:27Z</time>
      </trkpt>
      <trkpt lat="44.3563" lon="5.56532">
        <ele>801.3</ele>
        <time>2023-04-06T09:49:28Z</time>
      </trkpt>
      <trkpt lat="44.35627" lon="5.56538">
        <ele>801.5</ele>
        <time>2023-04-06T09:49:30Z</time>
      </trkpt>
      <trkpt lat="44.35625" lon="5.56542">
        <ele>801.6</ele>
        <time>2023-04-06T09:49:31Z</time>
      </trkpt>
      <trkpt lat="44.35624" lon="5.56544">
        <ele>801.7</ele>
        <time>2023-04-06T09:49:32Z</time>
      </trkpt>
      <trkpt lat="44.35622" lon="5.56548">
        <ele>801.8</ele>
        <time>2023-04-06T09:49:33Z</time>
      </trkpt>
      <trkpt lat="44.35621" lon="5.56549">
        <ele>801.8</ele>
        <time>2023-04-06T09:49:34Z</time>
      </trkpt>
      <trkpt lat="44.35618" lon="5.56558">
        <ele>802.1</ele>
        <time>2023-04-06T09:49:36Z</time>
      </trkpt>
      <trkpt lat="44.35618" lon="5.5656">
        <ele>802.2</ele>
        <time>2023-04-06T09:49:37Z</time>
      </trkpt>
      <trkpt lat="44.35617" lon="5.56564">
        <ele>802.3</ele>
        <time>2023-04-06T09:49:38Z</time>
      </trkpt>
      <trkpt lat="44.35616" lon="5.56569">
        <ele>802.4</ele>
        <time>2023-04-06T09:49:39Z</time>
      </trkpt>
      <trkpt lat="44.35615" lon="5.5657">
        <ele>802.5</ele>
        <time>2023-04-06T09:49:40Z</time>
      </trkpt>
      <trkpt lat="44.35613" lon="5.56577">
        <ele>802.7</ele>
        <time>2023-04-06T09:49:42Z</time>
      </trkpt>
      <trkpt lat="44.35612" lon="5.56582">
        <ele>802.9</ele>
        <time>2023-04-06T09:49:43Z</time>
      </trkpt>
      <trkpt lat="44.35611" lon="5.56584">
        <ele>802.9</ele>
        <time>2023-04-06T09:49:44Z</time>
      </trkpt>
      <trkpt lat="44.35611" lon="5.56588">
        <ele>803</ele>
        <time>2023-04-06T09:49:45Z</time>
      </trkpt>
      <trkpt lat="44.3561" lon="5.56593">
        <ele>803.2</ele>
        <time>2023-04-06T09:49:46Z</time>
      </trkpt>
      <trkpt lat="44.35609" lon="5.56594">
        <ele>803.2</ele>
        <time>2023-04-06T09:49:47Z</time>
      </trkpt>
      <trkpt lat="44.35608" lon="5.56599">
        <ele>803.4</ele>
        <time>2023-04-06T09:49:48Z</time>
      </trkpt>
      <trkpt lat="44.35607" lon="5.566">
        <ele>803.5</ele>
        <time>2023-04-06T09:49:49Z</time>
      </trkpt>
      <trkpt lat="44.35606" lon="5.56605">
        <ele>803.6</ele>
        <time>2023-04-06T09:49:50Z</time>
      </trkpt>
      <trkpt lat="44.35605" lon="5.56607">
        <ele>803.7</ele>
        <time>2023-04-06T09:49:51Z</time>
      </trkpt>
      <trkpt lat="44.35603" lon="5.56614">
        <ele>804</ele>
        <time>2023-04-06T09:49:53Z</time>
      </trkpt>
      <trkpt lat="44.35602" lon="5.56617">
        <ele>804.1</ele>
        <time>2023-04-06T09:49:54Z</time>
      </trkpt>
      <trkpt lat="44.356" lon="5.56621">
        <ele>804.3</ele>
        <time>2023-04-06T09:49:55Z</time>
      </trkpt>
      <trkpt lat="44.35597" lon="5.56625">
        <ele>804.5</ele>
        <time>2023-04-06T09:49:56Z</time>
      </trkpt>
      <trkpt lat="44.35597" lon="5.56626">
        <ele>804.5</ele>
        <time>2023-04-06T09:49:57Z</time>
      </trkpt>
      <trkpt lat="44.35593" lon="5.56633">
        <ele>804.8</ele>
        <time>2023-04-06T09:49:59Z</time>
      </trkpt>
      <trkpt lat="44.35592" lon="5.56636">
        <ele>804.9</ele>
        <time>2023-04-06T09:50:00Z</time>
      </trkpt>
      <trkpt lat="44.35591" lon="5.56639">
        <ele>805.1</ele>
        <time>2023-04-06T09:50:01Z</time>
      </trkpt>
      <trkpt lat="44.35589" lon="5.56644">
        <ele>805.3</ele>
        <time>2023-04-06T09:50:02Z</time>
      </trkpt>
      <trkpt lat="44.35588" lon="5.56646">
        <ele>805.3</ele>
        <time>2023-04-06T09:50:03Z</time>
      </trkpt>
      <trkpt lat="44.35586" lon="5.5665">
        <ele>805.6</ele>
        <time>2023-04-06T09:50:04Z</time>
      </trkpt>
      <trkpt lat="44.35586" lon="5.56652">
        <ele>805.6</ele>
        <time>2023-04-06T09:50:05Z</time>
      </trkpt>
      <trkpt lat="44.35583" lon="5.56657">
        <ele>805.9</ele>
        <time>2023-04-06T09:50:06Z</time>
      </trkpt>
      <trkpt lat="44.35583" lon="5.56658">
        <ele>806</ele>
        <time>2023-04-06T09:50:07Z</time>
      </trkpt>
      <trkpt lat="44.35582" lon="5.56661">
        <ele>806.1</ele>
        <time>2023-04-06T09:50:08Z</time>
      </trkpt>
      <trkpt lat="44.35579" lon="5.56667">
        <ele>806.4</ele>
        <time>2023-04-06T09:50:10Z</time>
      </trkpt>
      <trkpt lat="44.35578" lon="5.5667">
        <ele>806.6</ele>
        <time>2023-04-06T09:50:11Z</time>
      </trkpt>
      <trkpt lat="44.35576" lon="5.56675">
        <ele>806.9</ele>
        <time>2023-04-06T09:50:12Z</time>
      </trkpt>
      <trkpt lat="44.35575" lon="5.56676">
        <ele>806.9</ele>
        <time>2023-04-06T09:50:13Z</time>
      </trkpt>
      <trkpt lat="44.35573" lon="5.5668">
        <ele>807.2</ele>
        <time>2023-04-06T09:50:14Z</time>
      </trkpt>
      <trkpt lat="44.35572" lon="5.56682">
        <ele>807.3</ele>
        <time>2023-04-06T09:50:15Z</time>
      </trkpt>
      <trkpt lat="44.35571" lon="5.56686">
        <ele>807.6</ele>
        <time>2023-04-06T09:50:16Z</time>
      </trkpt>
      <trkpt lat="44.3557" lon="5.56688">
        <ele>807.7</ele>
        <time>2023-04-06T09:50:17Z</time>
      </trkpt>
      <trkpt lat="44.35567" lon="5.56692">
        <ele>808</ele>
        <time>2023-04-06T09:50:18Z</time>
      </trkpt>
      <trkpt lat="44.35567" lon="5.56694">
        <ele>808.1</ele>
        <time>2023-04-06T09:50:19Z</time>
      </trkpt>
      <trkpt lat="44.35564" lon="5.56701">
        <ele>808.5</ele>
        <time>2023-04-06T09:50:21Z</time>
      </trkpt>
      <trkpt lat="44.35563" lon="5.56704">
        <ele>808.7</ele>
        <time>2023-04-06T09:50:22Z</time>
      </trkpt>
      <trkpt lat="44.35562" lon="5.56709">
        <ele>808.9</ele>
        <time>2023-04-06T09:50:23Z</time>
      </trkpt>
      <trkpt lat="44.35562" lon="5.5671">
        <ele>809</ele>
        <time>2023-04-06T09:50:24Z</time>
      </trkpt>
      <trkpt lat="44.35561" lon="5.56715">
        <ele>809.3</ele>
        <time>2023-04-06T09:50:25Z</time>
      </trkpt>
      <trkpt lat="44.3556" lon="5.56717">
        <ele>809.3</ele>
        <time>2023-04-06T09:50:26Z</time>
      </trkpt>
      <trkpt lat="44.3556" lon="5.56721">
        <ele>809.5</ele>
        <time>2023-04-06T09:50:27Z</time>
      </trkpt>
      <trkpt lat="44.35559" lon="5.56726">
        <ele>809.8</ele>
        <time>2023-04-06T09:50:28Z</time>
      </trkpt>
      <trkpt lat="44.35559" lon="5.56727">
        <ele>809.8</ele>
        <time>2023-04-06T09:50:29Z</time>
      </trkpt>
      <trkpt lat="44.35559" lon="5.56731">
        <ele>810</ele>
        <time>2023-04-06T09:50:30Z</time>
      </trkpt>
      <trkpt lat="44.35559" lon="5.56738">
        <ele>810.3</ele>
        <time>2023-04-06T09:50:32Z</time>
      </trkpt>
      <trkpt lat="44.35559" lon="5.56742">
        <ele>810.5</ele>
        <time>2023-04-06T09:50:33Z</time>
      </trkpt>
      <trkpt lat="44.3556" lon="5.56746">
        <ele>810.7</ele>
        <time>2023-04-06T09:50:34Z</time>
      </trkpt>
      <trkpt lat="44.3556" lon="5.5675">
        <ele>810.9</ele>
        <time>2023-04-06T09:50:35Z</time>
      </trkpt>
      <trkpt lat="44.35561" lon="5.56756">
        <ele>811.1</ele>
        <time>2023-04-06T09:50:36Z</time>
      </trkpt>
      <trkpt lat="44.35562" lon="5.56757">
        <ele>811.2</ele>
        <time>2023-04-06T09:50:37Z</time>
      </trkpt>
      <trkpt lat="44.35563" lon="5.56761">
        <ele>811.3</ele>
        <time>2023-04-06T09:50:38Z</time>
      </trkpt>
      <trkpt lat="44.35564" lon="5.56765">
        <ele>811.4</ele>
        <time>2023-04-06T09:50:39Z</time>
      </trkpt>
      <trkpt lat="44.35566" lon="5.56769">
        <ele>811.6</ele>
        <time>2023-04-06T09:50:40Z</time>
      </trkpt>
      <trkpt lat="44.35566" lon="5.56771">
        <ele>811.7</ele>
        <time>2023-04-06T09:50:41Z</time>
      </trkpt>
      <trkpt lat="44.35569" lon="5.56777">
        <ele>811.9</ele>
        <time>2023-04-06T09:50:43Z</time>
      </trkpt>
      <trkpt lat="44.35572" lon="5.56779">
        <ele>812.1</ele>
        <time>2023-04-06T09:50:44Z</time>
      </trkpt>
      <trkpt lat="44.35574" lon="5.56782">
        <ele>812.2</ele>
        <time>2023-04-06T09:50:45Z</time>
      </trkpt>
      <trkpt lat="44.35576" lon="5.56784">
        <ele>812.4</ele>
        <time>2023-04-06T09:50:46Z</time>
      </trkpt>
      <trkpt lat="44.35578" lon="5.56786">
        <ele>812.5</ele>
        <time>2023-04-06T09:50:47Z</time>
      </trkpt>
      <trkpt lat="44.3558" lon="5.56789">
        <ele>812.6</ele>
        <time>2023-04-06T09:50:48Z</time>
      </trkpt>
      <trkpt lat="44.35583" lon="5.56791">
        <ele>812.8</ele>
        <time>2023-04-06T09:50:49Z</time>
      </trkpt>
      <trkpt lat="44.35585" lon="5.56793">
        <ele>812.9</ele>
        <time>2023-04-06T09:50:50Z</time>
      </trkpt>
      <trkpt lat="44.35587" lon="5.56796">
        <ele>813</ele>
        <time>2023-04-06T09:50:51Z</time>
      </trkpt>
      <trkpt lat="44.35589" lon="5.56799">
        <ele>813.2</ele>
        <time>2023-04-06T09:50:52Z</time>
      </trkpt>
      <trkpt lat="44.35593" lon="5.56805">
        <ele>813.5</ele>
        <time>2023-04-06T09:50:54Z</time>
      </trkpt>
      <trkpt lat="44.35594" lon="5.56809">
        <ele>813.6</ele>
        <time>2023-04-06T09:50:55Z</time>
      </trkpt>
      <trkpt lat="44.35595" lon="5.56812">
        <ele>813.7</ele>
        <time>2023-04-06T09:50:56Z</time>
      </trkpt>
      <trkpt lat="44.35597" lon="5.56816">
        <ele>813.9</ele>
        <time>2023-04-06T09:50:57Z</time>
      </trkpt>
      <trkpt lat="44.35598" lon="5.56819">
        <ele>814</ele>
        <time>2023-04-06T09:50:58Z</time>
      </trkpt>
      <trkpt lat="44.35599" lon="5.56825">
        <ele>814.2</ele>
        <time>2023-04-06T09:50:59Z</time>
      </trkpt>
      <trkpt lat="44.35599" lon="5.56826">
        <ele>814.2</ele>
        <time>2023-04-06T09:51:00Z</time>
      </trkpt>
      <trkpt lat="44.356" lon="5.56832">
        <ele>814.4</ele>
        <time>2023-04-06T09:51:01Z</time>
      </trkpt>
      <trkpt lat="44.356" lon="5.56834">
        <ele>814.5</ele>
        <time>2023-04-06T09:51:02Z</time>
      </trkpt>
      <trkpt lat="44.35601" lon="5.56838">
        <ele>814.7</ele>
        <time>2023-04-06T09:51:03Z</time>
      </trkpt>
      <trkpt lat="44.35601" lon="5.56842">
        <ele>814.8</ele>
        <time>2023-04-06T09:51:04Z</time>
      </trkpt>
      <trkpt lat="44.35602" lon="5.56848">
        <ele>815</ele>
        <time>2023-04-06T09:51:05Z</time>
      </trkpt>
      <trkpt lat="44.35602" lon="5.5685">
        <ele>815.1</ele>
        <time>2023-04-06T09:51:06Z</time>
      </trkpt>
      <trkpt lat="44.35603" lon="5.56855">
        <ele>815.3</ele>
        <time>2023-04-06T09:51:07Z</time>
      </trkpt>
      <trkpt lat="44.35603" lon="5.56857">
        <ele>815.4</ele>
        <time>2023-04-06T09:51:08Z</time>
      </trkpt>
      <trkpt lat="44.35604" lon="5.56864">
        <ele>815.6</ele>
        <time>2023-04-06T09:51:10Z</time>
      </trkpt>
      <trkpt lat="44.35605" lon="5.56869">
        <ele>815.8</ele>
        <time>2023-04-06T09:51:11Z</time>
      </trkpt>
      <trkpt lat="44.35605" lon="5.5687">
        <ele>815.9</ele>
        <time>2023-04-06T09:51:12Z</time>
      </trkpt>
      <trkpt lat="44.35607" lon="5.56875">
        <ele>816.1</ele>
        <time>2023-04-06T09:51:13Z</time>
      </trkpt>
      <trkpt lat="44.35607" lon="5.56877">
        <ele>816.1</ele>
        <time>2023-04-06T09:51:14Z</time>
      </trkpt>
      <trkpt lat="44.35609" lon="5.56882">
        <ele>816.3</ele>
        <time>2023-04-06T09:51:15Z</time>
      </trkpt>
      <trkpt lat="44.3561" lon="5.56884">
        <ele>816.4</ele>
        <time>2023-04-06T09:51:16Z</time>
      </trkpt>
      <trkpt lat="44.35611" lon="5.56888">
        <ele>816.5</ele>
        <time>2023-04-06T09:51:17Z</time>
      </trkpt>
      <trkpt lat="44.35612" lon="5.56891">
        <ele>816.7</ele>
        <time>2023-04-06T09:51:18Z</time>
      </trkpt>
      <trkpt lat="44.35614" lon="5.56895">
        <ele>816.8</ele>
        <time>2023-04-06T09:51:19Z</time>
      </trkpt>
      <trkpt lat="44.35617" lon="5.56902">
        <ele>817.1</ele>
        <time>2023-04-06T09:51:21Z</time>
      </trkpt>
      <trkpt lat="44.35619" lon="5.56905">
        <ele>817.2</ele>
        <time>2023-04-06T09:51:22Z</time>
      </trkpt>
      <trkpt lat="44.35621" lon="5.56908">
        <ele>817.3</ele>
        <time>2023-04-06T09:51:23Z</time>
      </trkpt>
      <trkpt lat="44.35623" lon="5.56912">
        <ele>817.5</ele>
        <time>2023-04-06T09:51:24Z</time>
      </trkpt>
      <trkpt lat="44.35624" lon="5.56913">
        <ele>817.6</ele>
        <time>2023-04-06T09:51:25Z</time>
      </trkpt>
      <trkpt lat="44.35627" lon="5.56917">
        <ele>817.7</ele>
        <time>2023-04-06T09:51:26Z</time>
      </trkpt>
      <trkpt lat="44.35629" lon="5.56918">
        <ele>817.8</ele>
        <time>2023-04-06T09:51:27Z</time>
      </trkpt>
      <trkpt lat="44.35631" lon="5.56921">
        <ele>817.9</ele>
        <time>2023-04-06T09:51:28Z</time>
      </trkpt>
      <trkpt lat="44.35633" lon="5.56923">
        <ele>818.1</ele>
        <time>2023-04-06T09:51:29Z</time>
      </trkpt>
      <trkpt lat="44.35636" lon="5.56927">
        <ele>818.2</ele>
        <time>2023-04-06T09:51:30Z</time>
      </trkpt>
      <trkpt lat="44.35637" lon="5.56928">
        <ele>818.3</ele>
        <time>2023-04-06T09:51:31Z</time>
      </trkpt>
      <trkpt lat="44.35639" lon="5.56931">
        <ele>818.4</ele>
        <time>2023-04-06T09:51:32Z</time>
      </trkpt>
      <trkpt lat="44.35641" lon="5.56934">
        <ele>818.6</ele>
        <time>2023-04-06T09:51:33Z</time>
      </trkpt>
      <trkpt lat="44.35644" lon="5.56938">
        <ele>818.7</ele>
        <time>2023-04-06T09:51:34Z</time>
      </trkpt>
      <trkpt lat="44.35645" lon="5.56939">
        <ele>818.8</ele>
        <time>2023-04-06T09:51:35Z</time>
      </trkpt>
      <trkpt lat="44.35647" lon="5.56942">
        <ele>818.9</ele>
        <time>2023-04-06T09:51:36Z</time>
      </trkpt>
      <trkpt lat="44.3565" lon="5.56948">
        <ele>819.2</ele>
        <time>2023-04-06T09:51:38Z</time>
      </trkpt>
      <trkpt lat="44.35652" lon="5.56953">
        <ele>819.4</ele>
        <time>2023-04-06T09:51:39Z</time>
      </trkpt>
      <trkpt lat="44.35652" lon="5.56954">
        <ele>819.5</ele>
        <time>2023-04-06T09:51:40Z</time>
      </trkpt>
      <trkpt lat="44.35655" lon="5.56959">
        <ele>819.7</ele>
        <time>2023-04-06T09:51:41Z</time>
      </trkpt>
      <trkpt lat="44.35655" lon="5.56961">
        <ele>819.8</ele>
        <time>2023-04-06T09:51:42Z</time>
      </trkpt>
      <trkpt lat="44.35658" lon="5.56967">
        <ele>820.1</ele>
        <time>2023-04-06T09:51:44Z</time>
      </trkpt>
      <trkpt lat="44.3566" lon="5.5697">
        <ele>820.2</ele>
        <time>2023-04-06T09:51:45Z</time>
      </trkpt>
      <trkpt lat="44.35662" lon="5.56974">
        <ele>820.4</ele>
        <time>2023-04-06T09:51:46Z</time>
      </trkpt>
      <trkpt lat="44.35663" lon="5.56978">
        <ele>820.6</ele>
        <time>2023-04-06T09:51:47Z</time>
      </trkpt>
      <trkpt lat="44.35664" lon="5.56981">
        <ele>820.7</ele>
        <time>2023-04-06T09:51:48Z</time>
      </trkpt>
      <trkpt lat="44.35666" lon="5.56986">
        <ele>820.9</ele>
        <time>2023-04-06T09:51:49Z</time>
      </trkpt>
      <trkpt lat="44.35667" lon="5.56987">
        <ele>821</ele>
        <time>2023-04-06T09:51:50Z</time>
      </trkpt>
      <trkpt lat="44.35669" lon="5.56992">
        <ele>821.2</ele>
        <time>2023-04-06T09:51:51Z</time>
      </trkpt>
      <trkpt lat="44.35669" lon="5.56993">
        <ele>821.3</ele>
        <time>2023-04-06T09:51:52Z</time>
      </trkpt>
      <trkpt lat="44.35672" lon="5.56998">
        <ele>821.5</ele>
        <time>2023-04-06T09:51:53Z</time>
      </trkpt>
      <trkpt lat="44.35673" lon="5.57">
        <ele>821.6</ele>
        <time>2023-04-06T09:51:54Z</time>
      </trkpt>
      <trkpt lat="44.35674" lon="5.57003">
        <ele>821.8</ele>
        <time>2023-04-06T09:51:55Z</time>
      </trkpt>
      <trkpt lat="44.35676" lon="5.57008">
        <ele>822</ele>
        <time>2023-04-06T09:51:56Z</time>
      </trkpt>
      <trkpt lat="44.35677" lon="5.57009">
        <ele>822.1</ele>
        <time>2023-04-06T09:51:57Z</time>
      </trkpt>
      <trkpt lat="44.35679" lon="5.57013">
        <ele>822.3</ele>
        <time>2023-04-06T09:51:58Z</time>
      </trkpt>
      <trkpt lat="44.3568" lon="5.57015">
        <ele>822.3</ele>
        <time>2023-04-06T09:51:59Z</time>
      </trkpt>
      <trkpt lat="44.35682" lon="5.57019">
        <ele>822.6</ele>
        <time>2023-04-06T09:52:00Z</time>
      </trkpt>
      <trkpt lat="44.35683" lon="5.57021">
        <ele>822.6</ele>
        <time>2023-04-06T09:52:01Z</time>
      </trkpt>
      <trkpt lat="44.35685" lon="5.57025">
        <ele>822.8</ele>
        <time>2023-04-06T09:52:02Z</time>
      </trkpt>
      <trkpt lat="44.35686" lon="5.57026">
        <ele>822.9</ele>
        <time>2023-04-06T09:52:03Z</time>
      </trkpt>
      <trkpt lat="44.35689" lon="5.5703">
        <ele>823.1</ele>
        <time>2023-04-06T09:52:04Z</time>
      </trkpt>
      <trkpt lat="44.35689" lon="5.57032">
        <ele>823.1</ele>
        <time>2023-04-06T09:52:05Z</time>
      </trkpt>
      <trkpt lat="44.35692" lon="5.57036">
        <ele>823.3</ele>
        <time>2023-04-06T09:52:06Z</time>
      </trkpt>
      <trkpt lat="44.35692" lon="5.57038">
        <ele>823.3</ele>
        <time>2023-04-06T09:52:07Z</time>
      </trkpt>
      <trkpt lat="44.35694" lon="5.5704">
        <ele>823.5</ele>
        <time>2023-04-06T09:52:08Z</time>
      </trkpt>
      <trkpt lat="44.35696" lon="5.57044">
        <ele>823.6</ele>
        <time>2023-04-06T09:52:09Z</time>
      </trkpt>
      <trkpt lat="44.35698" lon="5.57047">
        <ele>823.8</ele>
        <time>2023-04-06T09:52:10Z</time>
      </trkpt>
      <trkpt lat="44.357" lon="5.5705">
        <ele>824</ele>
        <time>2023-04-06T09:52:11Z</time>
      </trkpt>
      <trkpt lat="44.35702" lon="5.57053">
        <ele>824.1</ele>
        <time>2023-04-06T09:52:12Z</time>
      </trkpt>
      <trkpt lat="44.35704" lon="5.57056">
        <ele>824.3</ele>
        <time>2023-04-06T09:52:13Z</time>
      </trkpt>
      <trkpt lat="44.35706" lon="5.57059">
        <ele>824.5</ele>
        <time>2023-04-06T09:52:14Z</time>
      </trkpt>
      <trkpt lat="44.35708" lon="5.57062">
        <ele>824.7</ele>
        <time>2023-04-06T09:52:15Z</time>
      </trkpt>
      <trkpt lat="44.35709" lon="5.57063">
        <ele>824.8</ele>
        <time>2023-04-06T09:52:16Z</time>
      </trkpt>
      <trkpt lat="44.35712" lon="5.57067">
        <ele>825</ele>
        <time>2023-04-06T09:52:17Z</time>
      </trkpt>
      <trkpt lat="44.35713" lon="5.57068">
        <ele>825</ele>
        <time>2023-04-06T09:52:18Z</time>
      </trkpt>
      <trkpt lat="44.35715" lon="5.57072">
        <ele>825.2</ele>
        <time>2023-04-06T09:52:19Z</time>
      </trkpt>
      <trkpt lat="44.35716" lon="5.57073">
        <ele>825.3</ele>
        <time>2023-04-06T09:52:20Z</time>
      </trkpt>
      <trkpt lat="44.35719" lon="5.57077">
        <ele>825.5</ele>
        <time>2023-04-06T09:52:21Z</time>
      </trkpt>
      <trkpt lat="44.3572" lon="5.57078">
        <ele>825.5</ele>
        <time>2023-04-06T09:52:22Z</time>
      </trkpt>
      <trkpt lat="44.35723" lon="5.57081">
        <ele>825.7</ele>
        <time>2023-04-06T09:52:23Z</time>
      </trkpt>
      <trkpt lat="44.35724" lon="5.57082">
        <ele>825.8</ele>
        <time>2023-04-06T09:52:24Z</time>
      </trkpt>
      <trkpt lat="44.35726" lon="5.57085">
        <ele>825.9</ele>
        <time>2023-04-06T09:52:25Z</time>
      </trkpt>
      <trkpt lat="44.35728" lon="5.57087">
        <ele>826.1</ele>
        <time>2023-04-06T09:52:26Z</time>
      </trkpt>
      <trkpt lat="44.3573" lon="5.5709">
        <ele>826.2</ele>
        <time>2023-04-06T09:52:27Z</time>
      </trkpt>
      <trkpt lat="44.35733" lon="5.57094">
        <ele>826.4</ele>
        <time>2023-04-06T09:52:28Z</time>
      </trkpt>
      <trkpt lat="44.35733" lon="5.57096">
        <ele>826.5</ele>
        <time>2023-04-06T09:52:29Z</time>
      </trkpt>
      <trkpt lat="44.35736" lon="5.57099">
        <ele>826.7</ele>
        <time>2023-04-06T09:52:30Z</time>
      </trkpt>
      <trkpt lat="44.35737" lon="5.57101">
        <ele>826.7</ele>
        <time>2023-04-06T09:52:31Z</time>
      </trkpt>
      <trkpt lat="44.35739" lon="5.57103">
        <ele>826.9</ele>
        <time>2023-04-06T09:52:32Z</time>
      </trkpt>
      <trkpt lat="44.35742" lon="5.57108">
        <ele>827.1</ele>
        <time>2023-04-06T09:52:33Z</time>
      </trkpt>
      <trkpt lat="44.35743" lon="5.57109">
        <ele>827.1</ele>
        <time>2023-04-06T09:52:34Z</time>
      </trkpt>
      <trkpt lat="44.35745" lon="5.57113">
        <ele>827.3</ele>
        <time>2023-04-06T09:52:35Z</time>
      </trkpt>
      <trkpt lat="44.35746" lon="5.57117">
        <ele>827.4</ele>
        <time>2023-04-06T09:52:36Z</time>
      </trkpt>
      <trkpt lat="44.35748" lon="5.57121">
        <ele>827.6</ele>
        <time>2023-04-06T09:52:37Z</time>
      </trkpt>
      <trkpt lat="44.35749" lon="5.57124">
        <ele>827.7</ele>
        <time>2023-04-06T09:52:38Z</time>
      </trkpt>
      <trkpt lat="44.35751" lon="5.57128">
        <ele>827.9</ele>
        <time>2023-04-06T09:52:39Z</time>
      </trkpt>
      <trkpt lat="44.35752" lon="5.57131">
        <ele>828</ele>
        <time>2023-04-06T09:52:40Z</time>
      </trkpt>
      <trkpt lat="44.35754" lon="5.57134">
        <ele>828.2</ele>
        <time>2023-04-06T09:52:41Z</time>
      </trkpt>
      <trkpt lat="44.35756" lon="5.57139">
        <ele>828.4</ele>
        <time>2023-04-06T09:52:42Z</time>
      </trkpt>
      <trkpt lat="44.35757" lon="5.5714">
        <ele>828.5</ele>
        <time>2023-04-06T09:52:43Z</time>
      </trkpt>
      <trkpt lat="44.35759" lon="5.57145">
        <ele>828.7</ele>
        <time>2023-04-06T09:52:44Z</time>
      </trkpt>
      <trkpt lat="44.3576" lon="5.57146">
        <ele>828.7</ele>
        <time>2023-04-06T09:52:45Z</time>
      </trkpt>
      <trkpt lat="44.35763" lon="5.5715">
        <ele>829</ele>
        <time>2023-04-06T09:52:46Z</time>
      </trkpt>
      <trkpt lat="44.35764" lon="5.57151">
        <ele>829</ele>
        <time>2023-04-06T09:52:47Z</time>
      </trkpt>
      <trkpt lat="44.35766" lon="5.57154">
        <ele>829.2</ele>
        <time>2023-04-06T09:52:48Z</time>
      </trkpt>
      <trkpt lat="44.35768" lon="5.57156">
        <ele>829.4</ele>
        <time>2023-04-06T09:52:49Z</time>
      </trkpt>
      <trkpt lat="44.3577" lon="5.57159">
        <ele>829.5</ele>
        <time>2023-04-06T09:52:50Z</time>
      </trkpt>
      <trkpt lat="44.35774" lon="5.57161">
        <ele>829.8</ele>
        <time>2023-04-06T09:52:51Z</time>
      </trkpt>
      <trkpt lat="44.35775" lon="5.57162">
        <ele>829.8</ele>
        <time>2023-04-06T09:52:52Z</time>
      </trkpt>
      <trkpt lat="44.35778" lon="5.57165">
        <ele>830</ele>
        <time>2023-04-06T09:52:53Z</time>
      </trkpt>
      <trkpt lat="44.35779" lon="5.57166">
        <ele>830.1</ele>
        <time>2023-04-06T09:52:54Z</time>
      </trkpt>
      <trkpt lat="44.35782" lon="5.57169">
        <ele>830.3</ele>
        <time>2023-04-06T09:52:55Z</time>
      </trkpt>
      <trkpt lat="44.35783" lon="5.5717">
        <ele>830.4</ele>
        <time>2023-04-06T09:52:56Z</time>
      </trkpt>
      <trkpt lat="44.35785" lon="5.57173">
        <ele>830.6</ele>
        <time>2023-04-06T09:52:57Z</time>
      </trkpt>
      <trkpt lat="44.35787" lon="5.5718">
        <ele>830.9</ele>
        <time>2023-04-06T09:52:59Z</time>
      </trkpt>
      <trkpt lat="44.35788" lon="5.57183">
        <ele>831</ele>
        <time>2023-04-06T09:53:00Z</time>
      </trkpt>
      <trkpt lat="44.35789" lon="5.57189">
        <ele>831.3</ele>
        <time>2023-04-06T09:53:01Z</time>
      </trkpt>
      <trkpt lat="44.35789" lon="5.5719">
        <ele>831.4</ele>
        <time>2023-04-06T09:53:02Z</time>
      </trkpt>
      <trkpt lat="44.35788" lon="5.57197">
        <ele>831.7</ele>
        <time>2023-04-06T09:53:04Z</time>
      </trkpt>
      <trkpt lat="44.35787" lon="5.57201">
        <ele>831.8</ele>
        <time>2023-04-06T09:53:05Z</time>
      </trkpt>
      <trkpt lat="44.35786" lon="5.57204">
        <ele>831.9</ele>
        <time>2023-04-06T09:53:06Z</time>
      </trkpt>
      <trkpt lat="44.35784" lon="5.57209">
        <ele>832.2</ele>
        <time>2023-04-06T09:53:08Z</time>
      </trkpt>
      <trkpt lat="44.35783" lon="5.57212">
        <ele>832.4</ele>
        <time>2023-04-06T09:53:09Z</time>
      </trkpt>
      <trkpt lat="44.3578" lon="5.57217">
        <ele>832.6</ele>
        <time>2023-04-06T09:53:11Z</time>
      </trkpt>
      <trkpt lat="44.35778" lon="5.5722">
        <ele>832.8</ele>
        <time>2023-04-06T09:53:12Z</time>
      </trkpt>
      <trkpt lat="44.35776" lon="5.57224">
        <ele>833</ele>
        <time>2023-04-06T09:53:13Z</time>
      </trkpt>
      <trkpt lat="44.35775" lon="5.57225">
        <ele>833</ele>
        <time>2023-04-06T09:53:14Z</time>
      </trkpt>
      <trkpt lat="44.35774" lon="5.57228">
        <ele>833.2</ele>
        <time>2023-04-06T09:53:15Z</time>
      </trkpt>
      <trkpt lat="44.35772" lon="5.57234">
        <ele>833.4</ele>
        <time>2023-04-06T09:53:17Z</time>
      </trkpt>
      <trkpt lat="44.35771" lon="5.57237">
        <ele>833.5</ele>
        <time>2023-04-06T09:53:18Z</time>
      </trkpt>
      <trkpt lat="44.3577" lon="5.57242">
        <ele>833.7</ele>
        <time>2023-04-06T09:53:19Z</time>
      </trkpt>
      <trkpt lat="44.3577" lon="5.57244">
        <ele>833.8</ele>
        <time>2023-04-06T09:53:20Z</time>
      </trkpt>
      <trkpt lat="44.35769" lon="5.57248">
        <ele>833.9</ele>
        <time>2023-04-06T09:53:21Z</time>
      </trkpt>
      <trkpt lat="44.35768" lon="5.57258">
        <ele>834.2</ele>
        <time>2023-04-06T09:53:23Z</time>
      </trkpt>
      <trkpt lat="44.35768" lon="5.57259">
        <ele>834.3</ele>
        <time>2023-04-06T09:53:24Z</time>
      </trkpt>
      <trkpt lat="44.35767" lon="5.57265">
        <ele>834.5</ele>
        <time>2023-04-06T09:53:25Z</time>
      </trkpt>
      <trkpt lat="44.35767" lon="5.57267">
        <ele>834.5</ele>
        <time>2023-04-06T09:53:26Z</time>
      </trkpt>
      <trkpt lat="44.35767" lon="5.5727">
        <ele>834.7</ele>
        <time>2023-04-06T09:53:27Z</time>
      </trkpt>
      <trkpt lat="44.35766" lon="5.57275">
        <ele>834.8</ele>
        <time>2023-04-06T09:53:28Z</time>
      </trkpt>
      <trkpt lat="44.35766" lon="5.57278">
        <ele>834.9</ele>
        <time>2023-04-06T09:53:29Z</time>
      </trkpt>
      <trkpt lat="44.35765" lon="5.57284">
        <ele>835.1</ele>
        <time>2023-04-06T09:53:30Z</time>
      </trkpt>
      <trkpt lat="44.35765" lon="5.57286">
        <ele>835.2</ele>
        <time>2023-04-06T09:53:31Z</time>
      </trkpt>
      <trkpt lat="44.35766" lon="5.5729">
        <ele>835.3</ele>
        <time>2023-04-06T09:53:32Z</time>
      </trkpt>
      <trkpt lat="44.35767" lon="5.57298">
        <ele>835.6</ele>
        <time>2023-04-06T09:53:34Z</time>
      </trkpt>
      <trkpt lat="44.35767" lon="5.57302">
        <ele>835.7</ele>
        <time>2023-04-06T09:53:35Z</time>
      </trkpt>
      <trkpt lat="44.35767" lon="5.57306">
        <ele>835.8</ele>
        <time>2023-04-06T09:53:36Z</time>
      </trkpt>
      <trkpt lat="44.35766" lon="5.5731">
        <ele>836</ele>
        <time>2023-04-06T09:53:37Z</time>
      </trkpt>
      <trkpt lat="44.35765" lon="5.57313">
        <ele>836.1</ele>
        <time>2023-04-06T09:53:38Z</time>
      </trkpt>
      <trkpt lat="44.35763" lon="5.5732">
        <ele>836.4</ele>
        <time>2023-04-06T09:53:40Z</time>
      </trkpt>
      <trkpt lat="44.35762" lon="5.57325">
        <ele>836.5</ele>
        <time>2023-04-06T09:53:41Z</time>
      </trkpt>
      <trkpt lat="44.35761" lon="5.57327">
        <ele>836.6</ele>
        <time>2023-04-06T09:53:42Z</time>
      </trkpt>
      <trkpt lat="44.3576" lon="5.57333">
        <ele>836.8</ele>
        <time>2023-04-06T09:53:43Z</time>
      </trkpt>
      <trkpt lat="44.3576" lon="5.57335">
        <ele>836.9</ele>
        <time>2023-04-06T09:53:44Z</time>
      </trkpt>
      <trkpt lat="44.3576" lon="5.57339">
        <ele>837</ele>
        <time>2023-04-06T09:53:45Z</time>
      </trkpt>
      <trkpt lat="44.3576" lon="5.57343">
        <ele>837.1</ele>
        <time>2023-04-06T09:53:46Z</time>
      </trkpt>
      <trkpt lat="44.35759" lon="5.57346">
        <ele>837.3</ele>
        <time>2023-04-06T09:53:47Z</time>
      </trkpt>
      <trkpt lat="44.35759" lon="5.57352">
        <ele>837.5</ele>
        <time>2023-04-06T09:53:48Z</time>
      </trkpt>
      <trkpt lat="44.35759" lon="5.57354">
        <ele>837.5</ele>
        <time>2023-04-06T09:53:49Z</time>
      </trkpt>
      <trkpt lat="44.35758" lon="5.57359">
        <ele>837.7</ele>
        <time>2023-04-06T09:53:50Z</time>
      </trkpt>
      <trkpt lat="44.35758" lon="5.57361">
        <ele>837.8</ele>
        <time>2023-04-06T09:53:51Z</time>
      </trkpt>
      <trkpt lat="44.35758" lon="5.57371">
        <ele>838.1</ele>
        <time>2023-04-06T09:53:53Z</time>
      </trkpt>
      <trkpt lat="44.35758" lon="5.57372">
        <ele>838.2</ele>
        <time>2023-04-06T09:53:54Z</time>
      </trkpt>
      <trkpt lat="44.35758" lon="5.57378">
        <ele>838.4</ele>
        <time>2023-04-06T09:53:55Z</time>
      </trkpt>
      <trkpt lat="44.35758" lon="5.5738">
        <ele>838.4</ele>
        <time>2023-04-06T09:53:56Z</time>
      </trkpt>
      <trkpt lat="44.35758" lon="5.57385">
        <ele>838.6</ele>
        <time>2023-04-06T09:53:57Z</time>
      </trkpt>
      <trkpt lat="44.35758" lon="5.57387">
        <ele>838.7</ele>
        <time>2023-04-06T09:53:58Z</time>
      </trkpt>
      <trkpt lat="44.35757" lon="5.57391">
        <ele>838.8</ele>
        <time>2023-04-06T09:53:59Z</time>
      </trkpt>
      <trkpt lat="44.35757" lon="5.57395">
        <ele>839</ele>
        <time>2023-04-06T09:54:00Z</time>
      </trkpt>
      <trkpt lat="44.35757" lon="5.57401">
        <ele>839.2</ele>
        <time>2023-04-06T09:54:01Z</time>
      </trkpt>
      <trkpt lat="44.35756" lon="5.57402">
        <ele>839.3</ele>
        <time>2023-04-06T09:54:02Z</time>
      </trkpt>
      <trkpt lat="44.35756" lon="5.57406">
        <ele>839.4</ele>
        <time>2023-04-06T09:54:03Z</time>
      </trkpt>
      <trkpt lat="44.35754" lon="5.57413">
        <ele>839.7</ele>
        <time>2023-04-06T09:54:05Z</time>
      </trkpt>
      <trkpt lat="44.35753" lon="5.57419">
        <ele>839.9</ele>
        <time>2023-04-06T09:54:06Z</time>
      </trkpt>
      <trkpt lat="44.35753" lon="5.5742">
        <ele>840</ele>
        <time>2023-04-06T09:54:07Z</time>
      </trkpt>
      <trkpt lat="44.35752" lon="5.57424">
        <ele>840.1</ele>
        <time>2023-04-06T09:54:08Z</time>
      </trkpt>
      <trkpt lat="44.35751" lon="5.5743">
        <ele>840.3</ele>
        <time>2023-04-06T09:54:09Z</time>
      </trkpt>
      <trkpt lat="44.35751" lon="5.57432">
        <ele>840.4</ele>
        <time>2023-04-06T09:54:10Z</time>
      </trkpt>
      <trkpt lat="44.3575" lon="5.57435">
        <ele>840.6</ele>
        <time>2023-04-06T09:54:11Z</time>
      </trkpt>
      <trkpt lat="44.35749" lon="5.57439">
        <ele>840.7</ele>
        <time>2023-04-06T09:54:12Z</time>
      </trkpt>
      <trkpt lat="44.35748" lon="5.57444">
        <ele>840.9</ele>
        <time>2023-04-06T09:54:13Z</time>
      </trkpt>
      <trkpt lat="44.35747" lon="5.57446">
        <ele>841</ele>
        <time>2023-04-06T09:54:14Z</time>
      </trkpt>
      <trkpt lat="44.35745" lon="5.57453">
        <ele>841.3</ele>
        <time>2023-04-06T09:54:16Z</time>
      </trkpt>
      <trkpt lat="44.35743" lon="5.57456">
        <ele>841.5</ele>
        <time>2023-04-06T09:54:17Z</time>
      </trkpt>
      <trkpt lat="44.35741" lon="5.57459">
        <ele>841.6</ele>
        <time>2023-04-06T09:54:18Z</time>
      </trkpt>
      <trkpt lat="44.35739" lon="5.57462">
        <ele>841.8</ele>
        <time>2023-04-06T09:54:19Z</time>
      </trkpt>
      <trkpt lat="44.35737" lon="5.57465">
        <ele>841.9</ele>
        <time>2023-04-06T09:54:20Z</time>
      </trkpt>
      <trkpt lat="44.35733" lon="5.57472">
        <ele>842.3</ele>
        <time>2023-04-06T09:54:22Z</time>
      </trkpt>
      <trkpt lat="44.35732" lon="5.57473">
        <ele>842.4</ele>
        <time>2023-04-06T09:54:23Z</time>
      </trkpt>
      <trkpt lat="44.3573" lon="5.57477">
        <ele>842.6</ele>
        <time>2023-04-06T09:54:24Z</time>
      </trkpt>
      <trkpt lat="44.35729" lon="5.57479">
        <ele>842.6</ele>
        <time>2023-04-06T09:54:25Z</time>
      </trkpt>
      <trkpt lat="44.35727" lon="5.57481">
        <ele>842.8</ele>
        <time>2023-04-06T09:54:26Z</time>
      </trkpt>
      <trkpt lat="44.35725" lon="5.57484">
        <ele>842.9</ele>
        <time>2023-04-06T09:54:28Z</time>
      </trkpt>
      <trkpt lat="44.35722" lon="5.5749">
        <ele>843.2</ele>
        <time>2023-04-06T09:54:29Z</time>
      </trkpt>
      <trkpt lat="44.35721" lon="5.57495">
        <ele>843.4</ele>
        <time>2023-04-06T09:54:30Z</time>
      </trkpt>
      <trkpt lat="44.35721" lon="5.57496">
        <ele>843.5</ele>
        <time>2023-04-06T09:54:31Z</time>
      </trkpt>
      <trkpt lat="44.35719" lon="5.57501">
        <ele>843.7</ele>
        <time>2023-04-06T09:54:32Z</time>
      </trkpt>
      <trkpt lat="44.35719" lon="5.57503">
        <ele>843.7</ele>
        <time>2023-04-06T09:54:33Z</time>
      </trkpt>
      <trkpt lat="44.35718" lon="5.57507">
        <ele>843.9</ele>
        <time>2023-04-06T09:54:34Z</time>
      </trkpt>
      <trkpt lat="44.35718" lon="5.57509">
        <ele>844</ele>
        <time>2023-04-06T09:54:35Z</time>
      </trkpt>
      <trkpt lat="44.35716" lon="5.57513">
        <ele>844.2</ele>
        <time>2023-04-06T09:54:36Z</time>
      </trkpt>
      <trkpt lat="44.35716" lon="5.57515">
        <ele>844.3</ele>
        <time>2023-04-06T09:54:37Z</time>
      </trkpt>
      <trkpt lat="44.35715" lon="5.57521">
        <ele>844.5</ele>
        <time>2023-04-06T09:54:39Z</time>
      </trkpt>
      <trkpt lat="44.35714" lon="5.57526">
        <ele>844.8</ele>
        <time>2023-04-06T09:54:40Z</time>
      </trkpt>
      <trkpt lat="44.35713" lon="5.57528">
        <ele>844.8</ele>
        <time>2023-04-06T09:54:41Z</time>
      </trkpt>
      <trkpt lat="44.35712" lon="5.57533">
        <ele>845</ele>
        <time>2023-04-06T09:54:42Z</time>
      </trkpt>
      <trkpt lat="44.35712" lon="5.57535">
        <ele>845.1</ele>
        <time>2023-04-06T09:54:43Z</time>
      </trkpt>
      <trkpt lat="44.35712" lon="5.57539">
        <ele>845.3</ele>
        <time>2023-04-06T09:54:44Z</time>
      </trkpt>
      <trkpt lat="44.35711" lon="5.57543">
        <ele>845.4</ele>
        <time>2023-04-06T09:54:45Z</time>
      </trkpt>
      <trkpt lat="44.35711" lon="5.57548">
        <ele>845.6</ele>
        <time>2023-04-06T09:54:46Z</time>
      </trkpt>
      <trkpt lat="44.35711" lon="5.57552">
        <ele>845.8</ele>
        <time>2023-04-06T09:54:47Z</time>
      </trkpt>
      <trkpt lat="44.35711" lon="5.57556">
        <ele>845.9</ele>
        <time>2023-04-06T09:54:48Z</time>
      </trkpt>
      <trkpt lat="44.3571" lon="5.57565">
        <ele>846.3</ele>
        <time>2023-04-06T09:54:50Z</time>
      </trkpt>
      <trkpt lat="44.3571" lon="5.57567">
        <ele>846.4</ele>
        <time>2023-04-06T09:54:51Z</time>
      </trkpt>
      <trkpt lat="44.3571" lon="5.57571">
        <ele>846.5</ele>
        <time>2023-04-06T09:54:52Z</time>
      </trkpt>
      <trkpt lat="44.3571" lon="5.57576">
        <ele>846.7</ele>
        <time>2023-04-06T09:54:53Z</time>
      </trkpt>
      <trkpt lat="44.3571" lon="5.57578">
        <ele>846.8</ele>
        <time>2023-04-06T09:54:54Z</time>
      </trkpt>
      <trkpt lat="44.35709" lon="5.57582">
        <ele>847</ele>
        <time>2023-04-06T09:54:55Z</time>
      </trkpt>
      <trkpt lat="44.35709" lon="5.57588">
        <ele>847.2</ele>
        <time>2023-04-06T09:54:56Z</time>
      </trkpt>
      <trkpt lat="44.35709" lon="5.5759">
        <ele>847.2</ele>
        <time>2023-04-06T09:54:57Z</time>
      </trkpt>
      <trkpt lat="44.35709" lon="5.57593">
        <ele>847.4</ele>
        <time>2023-04-06T09:54:58Z</time>
      </trkpt>
      <trkpt lat="44.35708" lon="5.57597">
        <ele>847.5</ele>
        <time>2023-04-06T09:54:59Z</time>
      </trkpt>
      <trkpt lat="44.35708" lon="5.57605">
        <ele>847.8</ele>
        <time>2023-04-06T09:55:01Z</time>
      </trkpt>
      <trkpt lat="44.35708" lon="5.57609">
        <ele>848</ele>
        <time>2023-04-06T09:55:02Z</time>
      </trkpt>
      <trkpt lat="44.35707" lon="5.57615">
        <ele>848.2</ele>
        <time>2023-04-06T09:55:03Z</time>
      </trkpt>
      <trkpt lat="44.35707" lon="5.57617">
        <ele>848.3</ele>
        <time>2023-04-06T09:55:04Z</time>
      </trkpt>
      <trkpt lat="44.35707" lon="5.57622">
        <ele>848.5</ele>
        <time>2023-04-06T09:55:05Z</time>
      </trkpt>
      <trkpt lat="44.35706" lon="5.57624">
        <ele>848.6</ele>
        <time>2023-04-06T09:55:06Z</time>
      </trkpt>
      <trkpt lat="44.35706" lon="5.57628">
        <ele>848.8</ele>
        <time>2023-04-06T09:55:07Z</time>
      </trkpt>
      <trkpt lat="44.35707" lon="5.57632">
        <ele>849</ele>
        <time>2023-04-06T09:55:08Z</time>
      </trkpt>
      <trkpt lat="44.35707" lon="5.57636">
        <ele>848.9</ele>
        <time>2023-04-06T09:55:09Z</time>
      </trkpt>
      <trkpt lat="44.35707" lon="5.57641">
        <ele>848.9</ele>
        <time>2023-04-06T09:55:10Z</time>
      </trkpt>
      <trkpt lat="44.35708" lon="5.57645">
        <ele>848.9</ele>
        <time>2023-04-06T09:55:11Z</time>
      </trkpt>
      <trkpt lat="44.35708" lon="5.5765">
        <ele>848.9</ele>
        <time>2023-04-06T09:55:12Z</time>
      </trkpt>
      <trkpt lat="44.35708" lon="5.57656">
        <ele>848.8</ele>
        <time>2023-04-06T09:55:13Z</time>
      </trkpt>
      <trkpt lat="44.35708" lon="5.57661">
        <ele>848.8</ele>
        <time>2023-04-06T09:55:14Z</time>
      </trkpt>
      <trkpt lat="44.35708" lon="5.57666">
        <ele>848.7</ele>
        <time>2023-04-06T09:55:15Z</time>
      </trkpt>
      <trkpt lat="44.35707" lon="5.57673">
        <ele>848.6</ele>
        <time>2023-04-06T09:55:16Z</time>
      </trkpt>
      <trkpt lat="44.35707" lon="5.5768">
        <ele>848.5</ele>
        <time>2023-04-06T09:55:17Z</time>
      </trkpt>
      <trkpt lat="44.35707" lon="5.57687">
        <ele>848.4</ele>
        <time>2023-04-06T09:55:18Z</time>
      </trkpt>
      <trkpt lat="44.35707" lon="5.57694">
        <ele>848.3</ele>
        <time>2023-04-06T09:55:19Z</time>
      </trkpt>
      <trkpt lat="44.35708" lon="5.57701">
        <ele>848.1</ele>
        <time>2023-04-06T09:55:20Z</time>
      </trkpt>
      <trkpt lat="44.35708" lon="5.57708">
        <ele>848</ele>
        <time>2023-04-06T09:55:21Z</time>
      </trkpt>
      <trkpt lat="44.35709" lon="5.57716">
        <ele>847.8</ele>
        <time>2023-04-06T09:55:22Z</time>
      </trkpt>
      <trkpt lat="44.3571" lon="5.57723">
        <ele>847.6</ele>
        <time>2023-04-06T09:55:23Z</time>
      </trkpt>
      <trkpt lat="44.3571" lon="5.57731">
        <ele>847.4</ele>
        <time>2023-04-06T09:55:24Z</time>
      </trkpt>
      <trkpt lat="44.35711" lon="5.57738">
        <ele>847.2</ele>
        <time>2023-04-06T09:55:25Z</time>
      </trkpt>
      <trkpt lat="44.35712" lon="5.57746">
        <ele>847</ele>
        <time>2023-04-06T09:55:26Z</time>
      </trkpt>
      <trkpt lat="44.35714" lon="5.57753">
        <ele>846.8</ele>
        <time>2023-04-06T09:55:27Z</time>
      </trkpt>
      <trkpt lat="44.35717" lon="5.5776">
        <ele>846.6</ele>
        <time>2023-04-06T09:55:28Z</time>
      </trkpt>
      <trkpt lat="44.35719" lon="5.57768">
        <ele>846.4</ele>
        <time>2023-04-06T09:55:29Z</time>
      </trkpt>
      <trkpt lat="44.35721" lon="5.57775">
        <ele>846.1</ele>
        <time>2023-04-06T09:55:30Z</time>
      </trkpt>
      <trkpt lat="44.35722" lon="5.57783">
        <ele>845.9</ele>
        <time>2023-04-06T09:55:31Z</time>
      </trkpt>
      <trkpt lat="44.35724" lon="5.5779">
        <ele>845.7</ele>
        <time>2023-04-06T09:55:32Z</time>
      </trkpt>
      <trkpt lat="44.35726" lon="5.57798">
        <ele>845.5</ele>
        <time>2023-04-06T09:55:33Z</time>
      </trkpt>
      <trkpt lat="44.35727" lon="5.57805">
        <ele>845.3</ele>
        <time>2023-04-06T09:55:34Z</time>
      </trkpt>
      <trkpt lat="44.35728" lon="5.57812">
        <ele>845.1</ele>
        <time>2023-04-06T09:55:35Z</time>
      </trkpt>
      <trkpt lat="44.35728" lon="5.5782">
        <ele>844.9</ele>
        <time>2023-04-06T09:55:36Z</time>
      </trkpt>
      <trkpt lat="44.35728" lon="5.57829">
        <ele>844.7</ele>
        <time>2023-04-06T09:55:37Z</time>
      </trkpt>
      <trkpt lat="44.35728" lon="5.57838">
        <ele>844.4</ele>
        <time>2023-04-06T09:55:38Z</time>
      </trkpt>
      <trkpt lat="44.35728" lon="5.57846">
        <ele>844.2</ele>
        <time>2023-04-06T09:55:39Z</time>
      </trkpt>
      <trkpt lat="44.35727" lon="5.57854">
        <ele>844</ele>
        <time>2023-04-06T09:55:40Z</time>
      </trkpt>
      <trkpt lat="44.35726" lon="5.57863">
        <ele>843.8</ele>
        <time>2023-04-06T09:55:41Z</time>
      </trkpt>
      <trkpt lat="44.35726" lon="5.57871">
        <ele>843.6</ele>
        <time>2023-04-06T09:55:42Z</time>
      </trkpt>
      <trkpt lat="44.35726" lon="5.57879">
        <ele>843.4</ele>
        <time>2023-04-06T09:55:43Z</time>
      </trkpt>
      <trkpt lat="44.35726" lon="5.57887">
        <ele>843.2</ele>
        <time>2023-04-06T09:55:44Z</time>
      </trkpt>
      <trkpt lat="44.35726" lon="5.57895">
        <ele>843</ele>
        <time>2023-04-06T09:55:45Z</time>
      </trkpt>
      <trkpt lat="44.35726" lon="5.57903">
        <ele>842.8</ele>
        <time>2023-04-06T09:55:46Z</time>
      </trkpt>
      <trkpt lat="44.35726" lon="5.57912">
        <ele>842.6</ele>
        <time>2023-04-06T09:55:47Z</time>
      </trkpt>
      <trkpt lat="44.35727" lon="5.5792">
        <ele>842.4</ele>
        <time>2023-04-06T09:55:48Z</time>
      </trkpt>
      <trkpt lat="44.35728" lon="5.57928">
        <ele>842.2</ele>
        <time>2023-04-06T09:55:49Z</time>
      </trkpt>
      <trkpt lat="44.3573" lon="5.57936">
        <ele>842</ele>
        <time>2023-04-06T09:55:50Z</time>
      </trkpt>
      <trkpt lat="44.35731" lon="5.57944">
        <ele>841.7</ele>
        <time>2023-04-06T09:55:51Z</time>
      </trkpt>
      <trkpt lat="44.35732" lon="5.57952">
        <ele>841.5</ele>
        <time>2023-04-06T09:55:52Z</time>
      </trkpt>
      <trkpt lat="44.35733" lon="5.5796">
        <ele>841.3</ele>
        <time>2023-04-06T09:55:53Z</time>
      </trkpt>
      <trkpt lat="44.35734" lon="5.57967">
        <ele>841.1</ele>
        <time>2023-04-06T09:55:54Z</time>
      </trkpt>
      <trkpt lat="44.35735" lon="5.57975">
        <ele>840.9</ele>
        <time>2023-04-06T09:55:55Z</time>
      </trkpt>
      <trkpt lat="44.35736" lon="5.57982">
        <ele>840.7</ele>
        <time>2023-04-06T09:55:56Z</time>
      </trkpt>
      <trkpt lat="44.35738" lon="5.57989">
        <ele>840.4</ele>
        <time>2023-04-06T09:55:57Z</time>
      </trkpt>
      <trkpt lat="44.35739" lon="5.57996">
        <ele>840.2</ele>
        <time>2023-04-06T09:55:58Z</time>
      </trkpt>
      <trkpt lat="44.35741" lon="5.58004">
        <ele>839.9</ele>
        <time>2023-04-06T09:55:59Z</time>
      </trkpt>
      <trkpt lat="44.35743" lon="5.58013">
        <ele>839.7</ele>
        <time>2023-04-06T09:56:00Z</time>
      </trkpt>
      <trkpt lat="44.35745" lon="5.58021">
        <ele>839.4</ele>
        <time>2023-04-06T09:56:01Z</time>
      </trkpt>
      <trkpt lat="44.35746" lon="5.58029">
        <ele>839.2</ele>
        <time>2023-04-06T09:56:02Z</time>
      </trkpt>
      <trkpt lat="44.35748" lon="5.58038">
        <ele>838.9</ele>
        <time>2023-04-06T09:56:03Z</time>
      </trkpt>
      <trkpt lat="44.35749" lon="5.58047">
        <ele>838.6</ele>
        <time>2023-04-06T09:56:04Z</time>
      </trkpt>
      <trkpt lat="44.35751" lon="5.58056">
        <ele>838.4</ele>
        <time>2023-04-06T09:56:05Z</time>
      </trkpt>
      <trkpt lat="44.35752" lon="5.58066">
        <ele>838.1</ele>
        <time>2023-04-06T09:56:06Z</time>
      </trkpt>
      <trkpt lat="44.35754" lon="5.58075">
        <ele>837.9</ele>
        <time>2023-04-06T09:56:07Z</time>
      </trkpt>
      <trkpt lat="44.35756" lon="5.58084">
        <ele>837.7</ele>
        <time>2023-04-06T09:56:08Z</time>
      </trkpt>
      <trkpt lat="44.35757" lon="5.58094">
        <ele>837.5</ele>
        <time>2023-04-06T09:56:09Z</time>
      </trkpt>
      <trkpt lat="44.3576" lon="5.58103">
        <ele>837.3</ele>
        <time>2023-04-06T09:56:10Z</time>
      </trkpt>
      <trkpt lat="44.35762" lon="5.58112">
        <ele>837.1</ele>
        <time>2023-04-06T09:56:11Z</time>
      </trkpt>
      <trkpt lat="44.35765" lon="5.58121">
        <ele>837</ele>
        <time>2023-04-06T09:56:12Z</time>
      </trkpt>
      <trkpt lat="44.35768" lon="5.58129">
        <ele>836.8</ele>
        <time>2023-04-06T09:56:13Z</time>
      </trkpt>
      <trkpt lat="44.35773" lon="5.58138">
        <ele>836.6</ele>
        <time>2023-04-06T09:56:14Z</time>
      </trkpt>
      <trkpt lat="44.35778" lon="5.58145">
        <ele>836.5</ele>
        <time>2023-04-06T09:56:15Z</time>
      </trkpt>
      <trkpt lat="44.35782" lon="5.5815">
        <ele>836.3</ele>
        <time>2023-04-06T09:56:16Z</time>
      </trkpt>
      <trkpt lat="44.35787" lon="5.58155">
        <ele>836.2</ele>
        <time>2023-04-06T09:56:17Z</time>
      </trkpt>
      <trkpt lat="44.35793" lon="5.5816">
        <ele>836.1</ele>
        <time>2023-04-06T09:56:18Z</time>
      </trkpt>
      <trkpt lat="44.35804" lon="5.58167">
        <ele>836</ele>
        <time>2023-04-06T09:56:20Z</time>
      </trkpt>
      <trkpt lat="44.35809" lon="5.58172">
        <ele>835.9</ele>
        <time>2023-04-06T09:56:21Z</time>
      </trkpt>
      <trkpt lat="44.35815" lon="5.58176">
        <ele>835.8</ele>
        <time>2023-04-06T09:56:22Z</time>
      </trkpt>
      <trkpt lat="44.3582" lon="5.5818">
        <ele>835.7</ele>
        <time>2023-04-06T09:56:24Z</time>
      </trkpt>
      <trkpt lat="44.35825" lon="5.58184">
        <ele>835.6</ele>
        <time>2023-04-06T09:56:25Z</time>
      </trkpt>
      <trkpt lat="44.35835" lon="5.58191">
        <ele>835.4</ele>
        <time>2023-04-06T09:56:26Z</time>
      </trkpt>
      <trkpt lat="44.3584" lon="5.58194">
        <ele>835.3</ele>
        <time>2023-04-06T09:56:27Z</time>
      </trkpt>
      <trkpt lat="44.35844" lon="5.58197">
        <ele>835.2</ele>
        <time>2023-04-06T09:56:28Z</time>
      </trkpt>
      <trkpt lat="44.35851" lon="5.58199">
        <ele>835.1</ele>
        <time>2023-04-06T09:56:30Z</time>
      </trkpt>
      <trkpt lat="44.35854" lon="5.58201">
        <ele>835</ele>
        <time>2023-04-06T09:56:31Z</time>
      </trkpt>
      <trkpt lat="44.35854" lon="5.58202">
        <ele>835</ele>
        <time>2023-04-06T09:56:32Z</time>
      </trkpt>
      <trkpt lat="44.35855" lon="5.58202">
        <ele>835</ele>
        <time>2023-04-06T09:56:33Z</time>
      </trkpt>
      <trkpt lat="44.35855" lon="5.58202">
        <ele>835</ele>
        <time>2023-04-06T09:56:34Z</time>
      </trkpt>
      <trkpt lat="44.35854" lon="5.58201">
        <ele>835</ele>
        <time>2023-04-06T09:56:36Z</time>
      </trkpt>
      <trkpt lat="44.35854" lon="5.58201">
        <ele>835</ele>
        <time>2023-04-06T09:56:37Z</time>
      </trkpt>
      <trkpt lat="44.35854" lon="5.58201">
        <ele>835</ele>
        <time>2023-04-06T09:56:38Z</time>
      </trkpt>
      <trkpt lat="44.35854" lon="5.58201">
        <ele>835</ele>
        <time>2023-04-06T09:56:39Z</time>
      </trkpt>
      <trkpt lat="44.35854" lon="5.58201">
        <ele>835</ele>
        <time>2023-04-06T09:56:40Z</time>
      </trkpt>
      <trkpt lat="44.35854" lon="5.58201">
        <ele>835</ele>
        <time>2023-04-06T09:56:42Z</time>
      </trkpt>
      <trkpt lat="44.35854" lon="5.58202">
        <ele>834.9</ele>
        <time>2023-04-06T09:56:44Z</time>
      </trkpt>
      <trkpt lat="44.35854" lon="5.58202">
        <ele>834.9</ele>
        <time>2023-04-06T09:56:45Z</time>
      </trkpt>
      <trkpt lat="44.35855" lon="5.58202">
        <ele>834.9</ele>
        <time>2023-04-06T09:56:46Z</time>
      </trkpt>
      <trkpt lat="44.35856" lon="5.58202">
        <ele>834.9</ele>
        <time>2023-04-06T09:56:47Z</time>
      </trkpt>
      <trkpt lat="44.35857" lon="5.58202">
        <ele>834.9</ele>
        <time>2023-04-06T09:56:48Z</time>
      </trkpt>
      <trkpt lat="44.35858" lon="5.58202">
        <ele>834.8</ele>
        <time>2023-04-06T09:56:49Z</time>
      </trkpt>
      <trkpt lat="44.35858" lon="5.58203">
        <ele>834.8</ele>
        <time>2023-04-06T09:56:50Z</time>
      </trkpt>
      <trkpt lat="44.3586" lon="5.58203">
        <ele>834.8</ele>
        <time>2023-04-06T09:56:52Z</time>
      </trkpt>
      <trkpt lat="44.35861" lon="5.58203">
        <ele>834.7</ele>
        <time>2023-04-06T09:56:53Z</time>
      </trkpt>
      <trkpt lat="44.35861" lon="5.58204">
        <ele>834.7</ele>
        <time>2023-04-06T09:56:54Z</time>
      </trkpt>
      <trkpt lat="44.35861" lon="5.58205">
        <ele>834.7</ele>
        <time>2023-04-06T09:56:55Z</time>
      </trkpt>
      <trkpt lat="44.35861" lon="5.58206">
        <ele>834.7</ele>
        <time>2023-04-06T09:56:56Z</time>
      </trkpt>
      <trkpt lat="44.35861" lon="5.58206">
        <ele>834.7</ele>
        <time>2023-04-06T09:56:57Z</time>
      </trkpt>
      <trkpt lat="44.35861" lon="5.58207">
        <ele>834.7</ele>
        <time>2023-04-06T09:56:58Z</time>
      </trkpt>
      <trkpt lat="44.35861" lon="5.58207">
        <ele>834.7</ele>
        <time>2023-04-06T09:56:59Z</time>
      </trkpt>
      <trkpt lat="44.35861" lon="5.58208">
        <ele>834.6</ele>
        <time>2023-04-06T09:57:00Z</time>
      </trkpt>
      <trkpt lat="44.35861" lon="5.58209">
        <ele>834.6</ele>
        <time>2023-04-06T09:57:01Z</time>
      </trkpt>
      <trkpt lat="44.35861" lon="5.58209">
        <ele>834.6</ele>
        <time>2023-04-06T09:57:02Z</time>
      </trkpt>
      <trkpt lat="44.35861" lon="5.5821">
        <ele>834.6</ele>
        <time>2023-04-06T09:57:03Z</time>
      </trkpt>
      <trkpt lat="44.35861" lon="5.58211">
        <ele>834.6</ele>
        <time>2023-04-06T09:57:04Z</time>
      </trkpt>
      <trkpt lat="44.35861" lon="5.58211">
        <ele>834.6</ele>
        <time>2023-04-06T09:57:05Z</time>
      </trkpt>
      <trkpt lat="44.35861" lon="5.58212">
        <ele>834.6</ele>
        <time>2023-04-06T09:57:06Z</time>
      </trkpt>
      <trkpt lat="44.35861" lon="5.58212">
        <ele>834.5</ele>
        <time>2023-04-06T09:57:08Z</time>
      </trkpt>
      <trkpt lat="44.35861" lon="5.58213">
        <ele>834.5</ele>
        <time>2023-04-06T09:58:28Z</time>
      </trkpt>
      <trkpt lat="44.35861" lon="5.58214">
        <ele>834.5</ele>
        <time>2023-04-06T09:58:29Z</time>
      </trkpt>
      <trkpt lat="44.35861" lon="5.58214">
        <ele>834.5</ele>
        <time>2023-04-06T09:58:30Z</time>
      </trkpt>
      <trkpt lat="44.35862" lon="5.58219">
        <ele>834.4</ele>
        <time>2023-04-06T09:58:31Z</time>
      </trkpt>
      <trkpt lat="44.35864" lon="5.58224">
        <ele>834.3</ele>
        <time>2023-04-06T09:58:32Z</time>
      </trkpt>
      <trkpt lat="44.35865" lon="5.5823">
        <ele>834.1</ele>
        <time>2023-04-06T09:58:33Z</time>
      </trkpt>
      <trkpt lat="44.35868" lon="5.58236">
        <ele>834</ele>
        <time>2023-04-06T09:58:34Z</time>
      </trkpt>
      <trkpt lat="44.3587" lon="5.58242">
        <ele>833.8</ele>
        <time>2023-04-06T09:58:35Z</time>
      </trkpt>
      <trkpt lat="44.35873" lon="5.58248">
        <ele>833.7</ele>
        <time>2023-04-06T09:58:36Z</time>
      </trkpt>
      <trkpt lat="44.35876" lon="5.58254">
        <ele>833.6</ele>
        <time>2023-04-06T09:58:37Z</time>
      </trkpt>
      <trkpt lat="44.35879" lon="5.5826">
        <ele>833.4</ele>
        <time>2023-04-06T09:58:38Z</time>
      </trkpt>
      <trkpt lat="44.35882" lon="5.58266">
        <ele>833.3</ele>
        <time>2023-04-06T09:58:39Z</time>
      </trkpt>
      <trkpt lat="44.35886" lon="5.58272">
        <ele>833.2</ele>
        <time>2023-04-06T09:58:40Z</time>
      </trkpt>
      <trkpt lat="44.35891" lon="5.58277">
        <ele>833</ele>
        <time>2023-04-06T09:58:41Z</time>
      </trkpt>
      <trkpt lat="44.35896" lon="5.58281">
        <ele>832.8</ele>
        <time>2023-04-06T09:58:42Z</time>
      </trkpt>
      <trkpt lat="44.35901" lon="5.58285">
        <ele>832.6</ele>
        <time>2023-04-06T09:58:43Z</time>
      </trkpt>
      <trkpt lat="44.35906" lon="5.58287">
        <ele>832.5</ele>
        <time>2023-04-06T09:58:44Z</time>
      </trkpt>
      <trkpt lat="44.35912" lon="5.58289">
        <ele>832.3</ele>
        <time>2023-04-06T09:58:45Z</time>
      </trkpt>
      <trkpt lat="44.35918" lon="5.58292">
        <ele>832.2</ele>
        <time>2023-04-06T09:58:46Z</time>
      </trkpt>
      <trkpt lat="44.35923" lon="5.58294">
        <ele>832.1</ele>
        <time>2023-04-06T09:58:47Z</time>
      </trkpt>
      <trkpt lat="44.35929" lon="5.58297">
        <ele>831.9</ele>
        <time>2023-04-06T09:58:48Z</time>
      </trkpt>
      <trkpt lat="44.35935" lon="5.583">
        <ele>831.7</ele>
        <time>2023-04-06T09:58:49Z</time>
      </trkpt>
      <trkpt lat="44.35941" lon="5.58302">
        <ele>831.5</ele>
        <time>2023-04-06T09:58:50Z</time>
      </trkpt>
      <trkpt lat="44.35947" lon="5.58303">
        <ele>831.3</ele>
        <time>2023-04-06T09:58:51Z</time>
      </trkpt>
      <trkpt lat="44.35953" lon="5.58303">
        <ele>831.2</ele>
        <time>2023-04-06T09:58:52Z</time>
      </trkpt>
      <trkpt lat="44.35959" lon="5.58304">
        <ele>831</ele>
        <time>2023-04-06T09:58:53Z</time>
      </trkpt>
      <trkpt lat="44.35965" lon="5.58305">
        <ele>830.8</ele>
        <time>2023-04-06T09:58:54Z</time>
      </trkpt>
      <trkpt lat="44.3597" lon="5.58305">
        <ele>830.6</ele>
        <time>2023-04-06T09:58:55Z</time>
      </trkpt>
      <trkpt lat="44.35976" lon="5.58305">
        <ele>830.4</ele>
        <time>2023-04-06T09:58:56Z</time>
      </trkpt>
      <trkpt lat="44.35982" lon="5.58305">
        <ele>830.3</ele>
        <time>2023-04-06T09:58:57Z</time>
      </trkpt>
      <trkpt lat="44.35989" lon="5.58306">
        <ele>830.1</ele>
        <time>2023-04-06T09:58:58Z</time>
      </trkpt>
      <trkpt lat="44.35995" lon="5.58307">
        <ele>829.9</ele>
        <time>2023-04-06T09:58:59Z</time>
      </trkpt>
      <trkpt lat="44.36001" lon="5.58308">
        <ele>829.7</ele>
        <time>2023-04-06T09:59:00Z</time>
      </trkpt>
      <trkpt lat="44.36007" lon="5.58308">
        <ele>829.5</ele>
        <time>2023-04-06T09:59:01Z</time>
      </trkpt>
      <trkpt lat="44.36013" lon="5.58308">
        <ele>829.3</ele>
        <time>2023-04-06T09:59:02Z</time>
      </trkpt>
      <trkpt lat="44.36018" lon="5.58309">
        <ele>829.1</ele>
        <time>2023-04-06T09:59:03Z</time>
      </trkpt>
      <trkpt lat="44.36023" lon="5.58308">
        <ele>828.9</ele>
        <time>2023-04-06T09:59:04Z</time>
      </trkpt>
      <trkpt lat="44.36028" lon="5.58308">
        <ele>828.7</ele>
        <time>2023-04-06T09:59:05Z</time>
      </trkpt>
      <trkpt lat="44.36034" lon="5.58307">
        <ele>828.5</ele>
        <time>2023-04-06T09:59:06Z</time>
      </trkpt>
      <trkpt lat="44.3604" lon="5.58308">
        <ele>828.3</ele>
        <time>2023-04-06T09:59:07Z</time>
      </trkpt>
      <trkpt lat="44.36046" lon="5.58308">
        <ele>828.1</ele>
        <time>2023-04-06T09:59:08Z</time>
      </trkpt>
      <trkpt lat="44.36052" lon="5.58309">
        <ele>827.8</ele>
        <time>2023-04-06T09:59:09Z</time>
      </trkpt>
      <trkpt lat="44.36059" lon="5.5831">
        <ele>827.6</ele>
        <time>2023-04-06T09:59:10Z</time>
      </trkpt>
      <trkpt lat="44.36067" lon="5.58311">
        <ele>827.3</ele>
        <time>2023-04-06T09:59:11Z</time>
      </trkpt>
      <trkpt lat="44.36075" lon="5.58313">
        <ele>827</ele>
        <time>2023-04-06T09:59:12Z</time>
      </trkpt>
      <trkpt lat="44.36083" lon="5.58315">
        <ele>826.7</ele>
        <time>2023-04-06T09:59:13Z</time>
      </trkpt>
      <trkpt lat="44.36091" lon="5.58318">
        <ele>826.5</ele>
        <time>2023-04-06T09:59:14Z</time>
      </trkpt>
      <trkpt lat="44.36099" lon="5.58322">
        <ele>826.3</ele>
        <time>2023-04-06T09:59:15Z</time>
      </trkpt>
      <trkpt lat="44.36106" lon="5.58325">
        <ele>826.2</ele>
        <time>2023-04-06T09:59:16Z</time>
      </trkpt>
      <trkpt lat="44.36113" lon="5.58329">
        <ele>826</ele>
        <time>2023-04-06T09:59:17Z</time>
      </trkpt>
      <trkpt lat="44.3612" lon="5.58333">
        <ele>825.8</ele>
        <time>2023-04-06T09:59:18Z</time>
      </trkpt>
      <trkpt lat="44.36126" lon="5.58337">
        <ele>825.6</ele>
        <time>2023-04-06T09:59:19Z</time>
      </trkpt>
      <trkpt lat="44.36132" lon="5.5834">
        <ele>825.4</ele>
        <time>2023-04-06T09:59:20Z</time>
      </trkpt>
      <trkpt lat="44.36139" lon="5.58344">
        <ele>825.2</ele>
        <time>2023-04-06T09:59:21Z</time>
      </trkpt>
      <trkpt lat="44.36145" lon="5.58346">
        <ele>825</ele>
        <time>2023-04-06T09:59:22Z</time>
      </trkpt>
      <trkpt lat="44.36151" lon="5.58349">
        <ele>824.8</ele>
        <time>2023-04-06T09:59:23Z</time>
      </trkpt>
      <trkpt lat="44.36157" lon="5.58352">
        <ele>824.7</ele>
        <time>2023-04-06T09:59:25Z</time>
      </trkpt>
      <trkpt lat="44.36163" lon="5.58356">
        <ele>824.5</ele>
        <time>2023-04-06T09:59:26Z</time>
      </trkpt>
      <trkpt lat="44.36176" lon="5.58362">
        <ele>824.2</ele>
        <time>2023-04-06T09:59:27Z</time>
      </trkpt>
      <trkpt lat="44.36189" lon="5.58369">
        <ele>823.8</ele>
        <time>2023-04-06T09:59:29Z</time>
      </trkpt>
      <trkpt lat="44.36196" lon="5.58372">
        <ele>823.6</ele>
        <time>2023-04-06T09:59:30Z</time>
      </trkpt>
      <trkpt lat="44.36202" lon="5.58376">
        <ele>823.4</ele>
        <time>2023-04-06T09:59:32Z</time>
      </trkpt>
      <trkpt lat="44.36208" lon="5.58379">
        <ele>823.2</ele>
        <time>2023-04-06T09:59:33Z</time>
      </trkpt>
      <trkpt lat="44.3622" lon="5.58384">
        <ele>822.7</ele>
        <time>2023-04-06T09:59:34Z</time>
      </trkpt>
      <trkpt lat="44.36227" lon="5.58386">
        <ele>822.5</ele>
        <time>2023-04-06T09:59:35Z</time>
      </trkpt>
      <trkpt lat="44.36234" lon="5.58387">
        <ele>822.3</ele>
        <time>2023-04-06T09:59:36Z</time>
      </trkpt>
      <trkpt lat="44.36241" lon="5.58387">
        <ele>822.1</ele>
        <time>2023-04-06T09:59:38Z</time>
      </trkpt>
      <trkpt lat="44.36254" lon="5.58385">
        <ele>821.7</ele>
        <time>2023-04-06T09:59:39Z</time>
      </trkpt>
      <trkpt lat="44.3626" lon="5.58383">
        <ele>821.4</ele>
        <time>2023-04-06T09:59:40Z</time>
      </trkpt>
      <trkpt lat="44.36267" lon="5.58383">
        <ele>821.2</ele>
        <time>2023-04-06T09:59:41Z</time>
      </trkpt>
      <trkpt lat="44.36274" lon="5.58383">
        <ele>820.9</ele>
        <time>2023-04-06T09:59:42Z</time>
      </trkpt>
      <trkpt lat="44.36281" lon="5.58384">
        <ele>820.7</ele>
        <time>2023-04-06T09:59:44Z</time>
      </trkpt>
      <trkpt lat="44.36294" lon="5.58388">
        <ele>820.3</ele>
        <time>2023-04-06T09:59:45Z</time>
      </trkpt>
      <trkpt lat="44.36301" lon="5.58392">
        <ele>820.2</ele>
        <time>2023-04-06T09:59:46Z</time>
      </trkpt>
      <trkpt lat="44.36307" lon="5.58396">
        <ele>820</ele>
        <time>2023-04-06T09:59:47Z</time>
      </trkpt>
      <trkpt lat="44.36312" lon="5.584">
        <ele>819.9</ele>
        <time>2023-04-06T09:59:48Z</time>
      </trkpt>
      <trkpt lat="44.36318" lon="5.58405">
        <ele>819.7</ele>
        <time>2023-04-06T09:59:49Z</time>
      </trkpt>
      <trkpt lat="44.36323" lon="5.5841">
        <ele>819.6</ele>
        <time>2023-04-06T09:59:50Z</time>
      </trkpt>
      <trkpt lat="44.36329" lon="5.58414">
        <ele>819.4</ele>
        <time>2023-04-06T09:59:51Z</time>
      </trkpt>
      <trkpt lat="44.36335" lon="5.58418">
        <ele>819.3</ele>
        <time>2023-04-06T09:59:52Z</time>
      </trkpt>
      <trkpt lat="44.3634" lon="5.58422">
        <ele>819.1</ele>
        <time>2023-04-06T09:59:53Z</time>
      </trkpt>
      <trkpt lat="44.36345" lon="5.58427">
        <ele>819</ele>
        <time>2023-04-06T09:59:54Z</time>
      </trkpt>
      <trkpt lat="44.3635" lon="5.58433">
        <ele>818.8</ele>
        <time>2023-04-06T09:59:55Z</time>
      </trkpt>
      <trkpt lat="44.36354" lon="5.5844">
        <ele>818.7</ele>
        <time>2023-04-06T09:59:56Z</time>
      </trkpt>
      <trkpt lat="44.36356" lon="5.58448">
        <ele>818.6</ele>
        <time>2023-04-06T09:59:57Z</time>
      </trkpt>
      <trkpt lat="44.36358" lon="5.58457">
        <ele>818.4</ele>
        <time>2023-04-06T09:59:58Z</time>
      </trkpt>
      <trkpt lat="44.36359" lon="5.58466">
        <ele>818.2</ele>
        <time>2023-04-06T09:59:59Z</time>
      </trkpt>
      <trkpt lat="44.36357" lon="5.58486">
        <ele>817.9</ele>
        <time>2023-04-06T10:00:01Z</time>
      </trkpt>
      <trkpt lat="44.36356" lon="5.58496">
        <ele>817.8</ele>
        <time>2023-04-06T10:00:02Z</time>
      </trkpt>
      <trkpt lat="44.36355" lon="5.58505">
        <ele>817.6</ele>
        <time>2023-04-06T10:00:03Z</time>
      </trkpt>
      <trkpt lat="44.36354" lon="5.58515">
        <ele>817.5</ele>
        <time>2023-04-06T10:00:04Z</time>
      </trkpt>
      <trkpt lat="44.36353" lon="5.58524">
        <ele>817.4</ele>
        <time>2023-04-06T10:00:05Z</time>
      </trkpt>
      <trkpt lat="44.36352" lon="5.58533">
        <ele>817.3</ele>
        <time>2023-04-06T10:00:06Z</time>
      </trkpt>
      <trkpt lat="44.36352" lon="5.58542">
        <ele>817.2</ele>
        <time>2023-04-06T10:00:07Z</time>
      </trkpt>
      <trkpt lat="44.36351" lon="5.5855">
        <ele>817.1</ele>
        <time>2023-04-06T10:00:08Z</time>
      </trkpt>
      <trkpt lat="44.3635" lon="5.58558">
        <ele>817.1</ele>
        <time>2023-04-06T10:00:09Z</time>
      </trkpt>
      <trkpt lat="44.3635" lon="5.58566">
        <ele>817</ele>
        <time>2023-04-06T10:00:10Z</time>
      </trkpt>
      <trkpt lat="44.36349" lon="5.58582">
        <ele>816.8</ele>
        <time>2023-04-06T10:00:12Z</time>
      </trkpt>
      <trkpt lat="44.36348" lon="5.5859">
        <ele>816.8</ele>
        <time>2023-04-06T10:00:13Z</time>
      </trkpt>
      <trkpt lat="44.36347" lon="5.58598">
        <ele>816.7</ele>
        <time>2023-04-06T10:00:14Z</time>
      </trkpt>
      <trkpt lat="44.36347" lon="5.58605">
        <ele>816.6</ele>
        <time>2023-04-06T10:00:15Z</time>
      </trkpt>
      <trkpt lat="44.36346" lon="5.58613">
        <ele>816.5</ele>
        <time>2023-04-06T10:00:16Z</time>
      </trkpt>
      <trkpt lat="44.36346" lon="5.58628">
        <ele>816.4</ele>
        <time>2023-04-06T10:00:18Z</time>
      </trkpt>
      <trkpt lat="44.36345" lon="5.58636">
        <ele>816.3</ele>
        <time>2023-04-06T10:00:20Z</time>
      </trkpt>
      <trkpt lat="44.36345" lon="5.58643">
        <ele>816.2</ele>
        <time>2023-04-06T10:00:21Z</time>
      </trkpt>
      <trkpt lat="44.36346" lon="5.58658">
        <ele>815.9</ele>
        <time>2023-04-06T10:00:22Z</time>
      </trkpt>
      <trkpt lat="44.36347" lon="5.58667">
        <ele>815.8</ele>
        <time>2023-04-06T10:00:23Z</time>
      </trkpt>
      <trkpt lat="44.36348" lon="5.58675">
        <ele>815.7</ele>
        <time>2023-04-06T10:00:24Z</time>
      </trkpt>
      <trkpt lat="44.3635" lon="5.58683">
        <ele>815.5</ele>
        <time>2023-04-06T10:00:25Z</time>
      </trkpt>
      <trkpt lat="44.36351" lon="5.58691">
        <ele>815.4</ele>
        <time>2023-04-06T10:00:26Z</time>
      </trkpt>
      <trkpt lat="44.36352" lon="5.58699">
        <ele>815.3</ele>
        <time>2023-04-06T10:00:27Z</time>
      </trkpt>
      <trkpt lat="44.36354" lon="5.58707">
        <ele>815.2</ele>
        <time>2023-04-06T10:00:28Z</time>
      </trkpt>
      <trkpt lat="44.36356" lon="5.58714">
        <ele>815.1</ele>
        <time>2023-04-06T10:00:29Z</time>
      </trkpt>
      <trkpt lat="44.36358" lon="5.58722">
        <ele>815.1</ele>
        <time>2023-04-06T10:00:30Z</time>
      </trkpt>
      <trkpt lat="44.36359" lon="5.5873">
        <ele>815</ele>
        <time>2023-04-06T10:00:31Z</time>
      </trkpt>
      <trkpt lat="44.3636" lon="5.58738">
        <ele>814.9</ele>
        <time>2023-04-06T10:00:32Z</time>
      </trkpt>
      <trkpt lat="44.36362" lon="5.58753">
        <ele>814.8</ele>
        <time>2023-04-06T10:00:34Z</time>
      </trkpt>
      <trkpt lat="44.36362" lon="5.58761">
        <ele>814.8</ele>
        <time>2023-04-06T10:00:35Z</time>
      </trkpt>
      <trkpt lat="44.36362" lon="5.58768">
        <ele>814.8</ele>
        <time>2023-04-06T10:00:36Z</time>
      </trkpt>
      <trkpt lat="44.36362" lon="5.58776">
        <ele>814.7</ele>
        <time>2023-04-06T10:00:37Z</time>
      </trkpt>
      <trkpt lat="44.36362" lon="5.58783">
        <ele>814.7</ele>
        <time>2023-04-06T10:00:38Z</time>
      </trkpt>
      <trkpt lat="44.36361" lon="5.58797">
        <ele>814.6</ele>
        <time>2023-04-06T10:00:40Z</time>
      </trkpt>
      <trkpt lat="44.3636" lon="5.58805">
        <ele>814.6</ele>
        <time>2023-04-06T10:00:41Z</time>
      </trkpt>
      <trkpt lat="44.36358" lon="5.58813">
        <ele>814.6</ele>
        <time>2023-04-06T10:00:42Z</time>
      </trkpt>
      <trkpt lat="44.36357" lon="5.5882">
        <ele>814.6</ele>
        <time>2023-04-06T10:00:43Z</time>
      </trkpt>
      <trkpt lat="44.36356" lon="5.58827">
        <ele>814.5</ele>
        <time>2023-04-06T10:00:44Z</time>
      </trkpt>
      <trkpt lat="44.36353" lon="5.5884">
        <ele>814.4</ele>
        <time>2023-04-06T10:00:46Z</time>
      </trkpt>
      <trkpt lat="44.36351" lon="5.58847">
        <ele>814.3</ele>
        <time>2023-04-06T10:00:47Z</time>
      </trkpt>
      <trkpt lat="44.36349" lon="5.58854">
        <ele>814.3</ele>
        <time>2023-04-06T10:00:48Z</time>
      </trkpt>
      <trkpt lat="44.36346" lon="5.5886">
        <ele>814.2</ele>
        <time>2023-04-06T10:00:49Z</time>
      </trkpt>
      <trkpt lat="44.36344" lon="5.58867">
        <ele>814.1</ele>
        <time>2023-04-06T10:00:50Z</time>
      </trkpt>
      <trkpt lat="44.36341" lon="5.58872">
        <ele>814.1</ele>
        <time>2023-04-06T10:00:51Z</time>
      </trkpt>
      <trkpt lat="44.36337" lon="5.58878">
        <ele>814</ele>
        <time>2023-04-06T10:00:52Z</time>
      </trkpt>
      <trkpt lat="44.36334" lon="5.58885">
        <ele>813.9</ele>
        <time>2023-04-06T10:00:53Z</time>
      </trkpt>
      <trkpt lat="44.36331" lon="5.58892">
        <ele>813.8</ele>
        <time>2023-04-06T10:00:54Z</time>
      </trkpt>
      <trkpt lat="44.36328" lon="5.58899">
        <ele>813.7</ele>
        <time>2023-04-06T10:00:55Z</time>
      </trkpt>
      <trkpt lat="44.36325" lon="5.58906">
        <ele>813.5</ele>
        <time>2023-04-06T10:00:56Z</time>
      </trkpt>
      <trkpt lat="44.36321" lon="5.58912">
        <ele>813.4</ele>
        <time>2023-04-06T10:00:57Z</time>
      </trkpt>
      <trkpt lat="44.36318" lon="5.58917">
        <ele>813.3</ele>
        <time>2023-04-06T10:00:58Z</time>
      </trkpt>
      <trkpt lat="44.36313" lon="5.58923">
        <ele>813.2</ele>
        <time>2023-04-06T10:00:59Z</time>
      </trkpt>
      <trkpt lat="44.36309" lon="5.58929">
        <ele>813</ele>
        <time>2023-04-06T10:01:00Z</time>
      </trkpt>
      <trkpt lat="44.36304" lon="5.58936">
        <ele>812.9</ele>
        <time>2023-04-06T10:01:01Z</time>
      </trkpt>
      <trkpt lat="44.363" lon="5.58942">
        <ele>812.7</ele>
        <time>2023-04-06T10:01:02Z</time>
      </trkpt>
      <trkpt lat="44.36295" lon="5.58949">
        <ele>812.6</ele>
        <time>2023-04-06T10:01:03Z</time>
      </trkpt>
      <trkpt lat="44.36291" lon="5.58954">
        <ele>812.4</ele>
        <time>2023-04-06T10:01:04Z</time>
      </trkpt>
      <trkpt lat="44.36287" lon="5.5896">
        <ele>812.3</ele>
        <time>2023-04-06T10:01:05Z</time>
      </trkpt>
      <trkpt lat="44.36282" lon="5.58964">
        <ele>812.1</ele>
        <time>2023-04-06T10:01:06Z</time>
      </trkpt>
      <trkpt lat="44.36279" lon="5.5897">
        <ele>812</ele>
        <time>2023-04-06T10:01:07Z</time>
      </trkpt>
      <trkpt lat="44.36275" lon="5.58976">
        <ele>811.9</ele>
        <time>2023-04-06T10:01:08Z</time>
      </trkpt>
      <trkpt lat="44.36272" lon="5.58983">
        <ele>811.7</ele>
        <time>2023-04-06T10:01:09Z</time>
      </trkpt>
      <trkpt lat="44.36269" lon="5.5899">
        <ele>811.7</ele>
        <time>2023-04-06T10:01:10Z</time>
      </trkpt>
      <trkpt lat="44.36268" lon="5.58999">
        <ele>811.5</ele>
        <time>2023-04-06T10:01:11Z</time>
      </trkpt>
      <trkpt lat="44.36268" lon="5.59008">
        <ele>811.4</ele>
        <time>2023-04-06T10:01:12Z</time>
      </trkpt>
      <trkpt lat="44.36268" lon="5.59016">
        <ele>811.4</ele>
        <time>2023-04-06T10:01:13Z</time>
      </trkpt>
      <trkpt lat="44.36268" lon="5.59024">
        <ele>811.3</ele>
        <time>2023-04-06T10:01:14Z</time>
      </trkpt>
      <trkpt lat="44.36268" lon="5.59032">
        <ele>811.2</ele>
        <time>2023-04-06T10:01:15Z</time>
      </trkpt>
      <trkpt lat="44.36269" lon="5.5904">
        <ele>811.1</ele>
        <time>2023-04-06T10:01:16Z</time>
      </trkpt>
      <trkpt lat="44.36269" lon="5.59048">
        <ele>811</ele>
        <time>2023-04-06T10:01:17Z</time>
      </trkpt>
      <trkpt lat="44.3627" lon="5.59057">
        <ele>811</ele>
        <time>2023-04-06T10:01:18Z</time>
      </trkpt>
      <trkpt lat="44.3627" lon="5.59065">
        <ele>810.9</ele>
        <time>2023-04-06T10:01:19Z</time>
      </trkpt>
      <trkpt lat="44.3627" lon="5.59073">
        <ele>810.9</ele>
        <time>2023-04-06T10:01:20Z</time>
      </trkpt>
      <trkpt lat="44.3627" lon="5.59081">
        <ele>810.8</ele>
        <time>2023-04-06T10:01:21Z</time>
      </trkpt>
      <trkpt lat="44.3627" lon="5.59089">
        <ele>810.7</ele>
        <time>2023-04-06T10:01:22Z</time>
      </trkpt>
      <trkpt lat="44.36269" lon="5.59098">
        <ele>810.6</ele>
        <time>2023-04-06T10:01:23Z</time>
      </trkpt>
      <trkpt lat="44.36269" lon="5.59107">
        <ele>810.5</ele>
        <time>2023-04-06T10:01:24Z</time>
      </trkpt>
      <trkpt lat="44.36269" lon="5.59115">
        <ele>810.5</ele>
        <time>2023-04-06T10:01:25Z</time>
      </trkpt>
      <trkpt lat="44.36269" lon="5.59123">
        <ele>810.4</ele>
        <time>2023-04-06T10:01:26Z</time>
      </trkpt>
      <trkpt lat="44.36269" lon="5.59131">
        <ele>810.4</ele>
        <time>2023-04-06T10:01:27Z</time>
      </trkpt>
      <trkpt lat="44.36269" lon="5.59139">
        <ele>810.4</ele>
        <time>2023-04-06T10:01:28Z</time>
      </trkpt>
      <trkpt lat="44.36269" lon="5.59147">
        <ele>810.3</ele>
        <time>2023-04-06T10:01:29Z</time>
      </trkpt>
      <trkpt lat="44.36269" lon="5.59156">
        <ele>810.3</ele>
        <time>2023-04-06T10:01:30Z</time>
      </trkpt>
      <trkpt lat="44.36269" lon="5.59164">
        <ele>810.3</ele>
        <time>2023-04-06T10:01:31Z</time>
      </trkpt>
      <trkpt lat="44.36269" lon="5.59172">
        <ele>810.2</ele>
        <time>2023-04-06T10:01:32Z</time>
      </trkpt>
      <trkpt lat="44.36269" lon="5.5918">
        <ele>810.2</ele>
        <time>2023-04-06T10:01:33Z</time>
      </trkpt>
      <trkpt lat="44.36268" lon="5.59188">
        <ele>810.2</ele>
        <time>2023-04-06T10:01:34Z</time>
      </trkpt>
      <trkpt lat="44.36268" lon="5.59196">
        <ele>810.2</ele>
        <time>2023-04-06T10:01:35Z</time>
      </trkpt>
      <trkpt lat="44.36269" lon="5.59204">
        <ele>810.2</ele>
        <time>2023-04-06T10:01:36Z</time>
      </trkpt>
      <trkpt lat="44.36269" lon="5.59212">
        <ele>810.2</ele>
        <time>2023-04-06T10:01:37Z</time>
      </trkpt>
      <trkpt lat="44.36269" lon="5.5922">
        <ele>810.2</ele>
        <time>2023-04-06T10:01:38Z</time>
      </trkpt>
      <trkpt lat="44.3627" lon="5.59228">
        <ele>810.3</ele>
        <time>2023-04-06T10:01:39Z</time>
      </trkpt>
      <trkpt lat="44.3627" lon="5.59235">
        <ele>810.3</ele>
        <time>2023-04-06T10:01:40Z</time>
      </trkpt>
      <trkpt lat="44.3627" lon="5.59243">
        <ele>810.3</ele>
        <time>2023-04-06T10:01:41Z</time>
      </trkpt>
      <trkpt lat="44.3627" lon="5.59251">
        <ele>810.4</ele>
        <time>2023-04-06T10:01:42Z</time>
      </trkpt>
      <trkpt lat="44.3627" lon="5.59259">
        <ele>810.4</ele>
        <time>2023-04-06T10:01:43Z</time>
      </trkpt>
      <trkpt lat="44.3627" lon="5.59266">
        <ele>810.5</ele>
        <time>2023-04-06T10:01:44Z</time>
      </trkpt>
      <trkpt lat="44.3627" lon="5.59274">
        <ele>810.6</ele>
        <time>2023-04-06T10:01:45Z</time>
      </trkpt>
      <trkpt lat="44.3627" lon="5.59282">
        <ele>810.7</ele>
        <time>2023-04-06T10:01:46Z</time>
      </trkpt>
      <trkpt lat="44.3627" lon="5.5929">
        <ele>810.8</ele>
        <time>2023-04-06T10:01:47Z</time>
      </trkpt>
      <trkpt lat="44.3627" lon="5.59298">
        <ele>810.9</ele>
        <time>2023-04-06T10:01:48Z</time>
      </trkpt>
      <trkpt lat="44.3627" lon="5.59306">
        <ele>810.9</ele>
        <time>2023-04-06T10:01:49Z</time>
      </trkpt>
      <trkpt lat="44.3627" lon="5.59319">
        <ele>811.1</ele>
        <time>2023-04-06T10:01:51Z</time>
      </trkpt>
      <trkpt lat="44.3627" lon="5.59326">
        <ele>811.1</ele>
        <time>2023-04-06T10:01:52Z</time>
      </trkpt>
      <trkpt lat="44.3627" lon="5.59334">
        <ele>811</ele>
        <time>2023-04-06T10:01:53Z</time>
      </trkpt>
      <trkpt lat="44.3627" lon="5.59341">
        <ele>811</ele>
        <time>2023-04-06T10:01:54Z</time>
      </trkpt>
      <trkpt lat="44.3627" lon="5.59349">
        <ele>811</ele>
        <time>2023-04-06T10:01:55Z</time>
      </trkpt>
      <trkpt lat="44.36269" lon="5.59356">
        <ele>810.9</ele>
        <time>2023-04-06T10:01:56Z</time>
      </trkpt>
      <trkpt lat="44.36269" lon="5.59363">
        <ele>810.8</ele>
        <time>2023-04-06T10:01:57Z</time>
      </trkpt>
      <trkpt lat="44.36269" lon="5.5937">
        <ele>810.7</ele>
        <time>2023-04-06T10:01:58Z</time>
      </trkpt>
      <trkpt lat="44.36268" lon="5.59378">
        <ele>810.6</ele>
        <time>2023-04-06T10:01:59Z</time>
      </trkpt>
      <trkpt lat="44.36268" lon="5.59386">
        <ele>810.4</ele>
        <time>2023-04-06T10:02:00Z</time>
      </trkpt>
      <trkpt lat="44.36268" lon="5.59394">
        <ele>810.2</ele>
        <time>2023-04-06T10:02:01Z</time>
      </trkpt>
      <trkpt lat="44.36269" lon="5.59401">
        <ele>810</ele>
        <time>2023-04-06T10:02:02Z</time>
      </trkpt>
      <trkpt lat="44.3627" lon="5.59408">
        <ele>809.8</ele>
        <time>2023-04-06T10:02:03Z</time>
      </trkpt>
      <trkpt lat="44.36274" lon="5.59422">
        <ele>809.3</ele>
        <time>2023-04-06T10:02:05Z</time>
      </trkpt>
      <trkpt lat="44.36277" lon="5.5943">
        <ele>809.1</ele>
        <time>2023-04-06T10:02:06Z</time>
      </trkpt>
      <trkpt lat="44.3628" lon="5.59438">
        <ele>808.9</ele>
        <time>2023-04-06T10:02:07Z</time>
      </trkpt>
      <trkpt lat="44.36282" lon="5.59446">
        <ele>808.6</ele>
        <time>2023-04-06T10:02:08Z</time>
      </trkpt>
      <trkpt lat="44.36285" lon="5.59454">
        <ele>808.4</ele>
        <time>2023-04-06T10:02:09Z</time>
      </trkpt>
      <trkpt lat="44.36288" lon="5.59462">
        <ele>808.1</ele>
        <time>2023-04-06T10:02:10Z</time>
      </trkpt>
      <trkpt lat="44.36291" lon="5.59469">
        <ele>807.9</ele>
        <time>2023-04-06T10:02:11Z</time>
      </trkpt>
      <trkpt lat="44.36294" lon="5.59477">
        <ele>807.7</ele>
        <time>2023-04-06T10:02:12Z</time>
      </trkpt>
      <trkpt lat="44.36297" lon="5.59485">
        <ele>807.4</ele>
        <time>2023-04-06T10:02:13Z</time>
      </trkpt>
      <trkpt lat="44.363" lon="5.59493">
        <ele>807.2</ele>
        <time>2023-04-06T10:02:14Z</time>
      </trkpt>
      <trkpt lat="44.36305" lon="5.5951">
        <ele>806.8</ele>
        <time>2023-04-06T10:02:16Z</time>
      </trkpt>
      <trkpt lat="44.36307" lon="5.59519">
        <ele>806.6</ele>
        <time>2023-04-06T10:02:17Z</time>
      </trkpt>
      <trkpt lat="44.3631" lon="5.59528">
        <ele>806.5</ele>
        <time>2023-04-06T10:02:18Z</time>
      </trkpt>
      <trkpt lat="44.36312" lon="5.59538">
        <ele>806.4</ele>
        <time>2023-04-06T10:02:19Z</time>
      </trkpt>
      <trkpt lat="44.36315" lon="5.59548">
        <ele>806.3</ele>
        <time>2023-04-06T10:02:20Z</time>
      </trkpt>
      <trkpt lat="44.36317" lon="5.59557">
        <ele>806.2</ele>
        <time>2023-04-06T10:02:21Z</time>
      </trkpt>
      <trkpt lat="44.36319" lon="5.59566">
        <ele>806.1</ele>
        <time>2023-04-06T10:02:22Z</time>
      </trkpt>
      <trkpt lat="44.36321" lon="5.59575">
        <ele>806.1</ele>
        <time>2023-04-06T10:02:23Z</time>
      </trkpt>
      <trkpt lat="44.36323" lon="5.59583">
        <ele>806</ele>
        <time>2023-04-06T10:02:24Z</time>
      </trkpt>
      <trkpt lat="44.36324" lon="5.59591">
        <ele>806</ele>
        <time>2023-04-06T10:02:25Z</time>
      </trkpt>
      <trkpt lat="44.36327" lon="5.59607">
        <ele>805.9</ele>
        <time>2023-04-06T10:02:27Z</time>
      </trkpt>
      <trkpt lat="44.36328" lon="5.59615">
        <ele>805.9</ele>
        <time>2023-04-06T10:02:28Z</time>
      </trkpt>
      <trkpt lat="44.36329" lon="5.59623">
        <ele>805.9</ele>
        <time>2023-04-06T10:02:29Z</time>
      </trkpt>
      <trkpt lat="44.36329" lon="5.59631">
        <ele>805.8</ele>
        <time>2023-04-06T10:02:30Z</time>
      </trkpt>
      <trkpt lat="44.36329" lon="5.59639">
        <ele>805.8</ele>
        <time>2023-04-06T10:02:31Z</time>
      </trkpt>
      <trkpt lat="44.36328" lon="5.59657">
        <ele>805.6</ele>
        <time>2023-04-06T10:02:33Z</time>
      </trkpt>
      <trkpt lat="44.36327" lon="5.59665">
        <ele>805.5</ele>
        <time>2023-04-06T10:02:34Z</time>
      </trkpt>
      <trkpt lat="44.36326" lon="5.59674">
        <ele>805.4</ele>
        <time>2023-04-06T10:02:35Z</time>
      </trkpt>
      <trkpt lat="44.36323" lon="5.59682">
        <ele>805.3</ele>
        <time>2023-04-06T10:02:36Z</time>
      </trkpt>
      <trkpt lat="44.36321" lon="5.59691">
        <ele>805.2</ele>
        <time>2023-04-06T10:02:37Z</time>
      </trkpt>
      <trkpt lat="44.36319" lon="5.59699">
        <ele>805</ele>
        <time>2023-04-06T10:02:38Z</time>
      </trkpt>
      <trkpt lat="44.36316" lon="5.59707">
        <ele>804.8</ele>
        <time>2023-04-06T10:02:39Z</time>
      </trkpt>
      <trkpt lat="44.36313" lon="5.59716">
        <ele>804.6</ele>
        <time>2023-04-06T10:02:40Z</time>
      </trkpt>
      <trkpt lat="44.3631" lon="5.59724">
        <ele>804.4</ele>
        <time>2023-04-06T10:02:41Z</time>
      </trkpt>
      <trkpt lat="44.36306" lon="5.59732">
        <ele>804.1</ele>
        <time>2023-04-06T10:02:42Z</time>
      </trkpt>
      <trkpt lat="44.36301" lon="5.5974">
        <ele>803.8</ele>
        <time>2023-04-06T10:02:43Z</time>
      </trkpt>
      <trkpt lat="44.36297" lon="5.59748">
        <ele>803.5</ele>
        <time>2023-04-06T10:02:44Z</time>
      </trkpt>
      <trkpt lat="44.36292" lon="5.59756">
        <ele>803.3</ele>
        <time>2023-04-06T10:02:45Z</time>
      </trkpt>
      <trkpt lat="44.36287" lon="5.59764">
        <ele>803</ele>
        <time>2023-04-06T10:02:46Z</time>
      </trkpt>
      <trkpt lat="44.36282" lon="5.59771">
        <ele>802.8</ele>
        <time>2023-04-06T10:02:47Z</time>
      </trkpt>
      <trkpt lat="44.36277" lon="5.59779">
        <ele>802.6</ele>
        <time>2023-04-06T10:02:48Z</time>
      </trkpt>
      <trkpt lat="44.36272" lon="5.59786">
        <ele>802.4</ele>
        <time>2023-04-06T10:02:49Z</time>
      </trkpt>
      <trkpt lat="44.36268" lon="5.59794">
        <ele>802.3</ele>
        <time>2023-04-06T10:02:50Z</time>
      </trkpt>
      <trkpt lat="44.36264" lon="5.59801">
        <ele>802.2</ele>
        <time>2023-04-06T10:02:51Z</time>
      </trkpt>
      <trkpt lat="44.3626" lon="5.59808">
        <ele>802.1</ele>
        <time>2023-04-06T10:02:52Z</time>
      </trkpt>
      <trkpt lat="44.36252" lon="5.59822">
        <ele>802</ele>
        <time>2023-04-06T10:02:54Z</time>
      </trkpt>
      <trkpt lat="44.36248" lon="5.59828">
        <ele>802</ele>
        <time>2023-04-06T10:02:55Z</time>
      </trkpt>
      <trkpt lat="44.36244" lon="5.59835">
        <ele>801.9</ele>
        <time>2023-04-06T10:02:56Z</time>
      </trkpt>
      <trkpt lat="44.3624" lon="5.59841">
        <ele>801.9</ele>
        <time>2023-04-06T10:02:57Z</time>
      </trkpt>
      <trkpt lat="44.36236" lon="5.59848">
        <ele>801.8</ele>
        <time>2023-04-06T10:02:58Z</time>
      </trkpt>
      <trkpt lat="44.36229" lon="5.59861">
        <ele>801.7</ele>
        <time>2023-04-06T10:03:00Z</time>
      </trkpt>
      <trkpt lat="44.36225" lon="5.59868">
        <ele>801.7</ele>
        <time>2023-04-06T10:03:01Z</time>
      </trkpt>
      <trkpt lat="44.36222" lon="5.59874">
        <ele>801.7</ele>
        <time>2023-04-06T10:03:02Z</time>
      </trkpt>
      <trkpt lat="44.36218" lon="5.59881">
        <ele>801.7</ele>
        <time>2023-04-06T10:03:03Z</time>
      </trkpt>
      <trkpt lat="44.36214" lon="5.59887">
        <ele>801.7</ele>
        <time>2023-04-06T10:03:04Z</time>
      </trkpt>
      <trkpt lat="44.36207" lon="5.599">
        <ele>801.8</ele>
        <time>2023-04-06T10:03:06Z</time>
      </trkpt>
      <trkpt lat="44.36203" lon="5.59906">
        <ele>801.8</ele>
        <time>2023-04-06T10:03:07Z</time>
      </trkpt>
      <trkpt lat="44.36199" lon="5.59913">
        <ele>801.8</ele>
        <time>2023-04-06T10:03:08Z</time>
      </trkpt>
      <trkpt lat="44.36195" lon="5.59919">
        <ele>801.9</ele>
        <time>2023-04-06T10:03:09Z</time>
      </trkpt>
      <trkpt lat="44.36192" lon="5.59925">
        <ele>801.9</ele>
        <time>2023-04-06T10:03:10Z</time>
      </trkpt>
      <trkpt lat="44.36188" lon="5.59931">
        <ele>802</ele>
        <time>2023-04-06T10:03:11Z</time>
      </trkpt>
      <trkpt lat="44.36185" lon="5.59936">
        <ele>802.1</ele>
        <time>2023-04-06T10:03:12Z</time>
      </trkpt>
      <trkpt lat="44.36182" lon="5.59942">
        <ele>802.1</ele>
        <time>2023-04-06T10:03:13Z</time>
      </trkpt>
      <trkpt lat="44.36178" lon="5.59948">
        <ele>802.2</ele>
        <time>2023-04-06T10:03:14Z</time>
      </trkpt>
      <trkpt lat="44.36176" lon="5.59955">
        <ele>802.3</ele>
        <time>2023-04-06T10:03:15Z</time>
      </trkpt>
      <trkpt lat="44.3617" lon="5.59966">
        <ele>802.4</ele>
        <time>2023-04-06T10:03:17Z</time>
      </trkpt>
      <trkpt lat="44.36167" lon="5.59972">
        <ele>802.4</ele>
        <time>2023-04-06T10:03:18Z</time>
      </trkpt>
      <trkpt lat="44.36164" lon="5.59977">
        <ele>802.4</ele>
        <time>2023-04-06T10:03:19Z</time>
      </trkpt>
      <trkpt lat="44.36162" lon="5.59983">
        <ele>802.3</ele>
        <time>2023-04-06T10:03:20Z</time>
      </trkpt>
      <trkpt lat="44.36159" lon="5.59989">
        <ele>802.3</ele>
        <time>2023-04-06T10:03:21Z</time>
      </trkpt>
      <trkpt lat="44.36156" lon="5.59995">
        <ele>802.2</ele>
        <time>2023-04-06T10:03:22Z</time>
      </trkpt>
      <trkpt lat="44.36152" lon="5.60001">
        <ele>802</ele>
        <time>2023-04-06T10:03:23Z</time>
      </trkpt>
      <trkpt lat="44.36148" lon="5.60007">
        <ele>801.8</ele>
        <time>2023-04-06T10:03:24Z</time>
      </trkpt>
      <trkpt lat="44.36144" lon="5.60013">
        <ele>801.6</ele>
        <time>2023-04-06T10:03:25Z</time>
      </trkpt>
      <trkpt lat="44.36138" lon="5.60018">
        <ele>801.4</ele>
        <time>2023-04-06T10:03:26Z</time>
      </trkpt>
      <trkpt lat="44.36133" lon="5.60024">
        <ele>801.1</ele>
        <time>2023-04-06T10:03:27Z</time>
      </trkpt>
      <trkpt lat="44.36127" lon="5.60029">
        <ele>800.8</ele>
        <time>2023-04-06T10:03:28Z</time>
      </trkpt>
      <trkpt lat="44.36121" lon="5.60035">
        <ele>800.6</ele>
        <time>2023-04-06T10:03:29Z</time>
      </trkpt>
      <trkpt lat="44.36116" lon="5.60041">
        <ele>800.3</ele>
        <time>2023-04-06T10:03:30Z</time>
      </trkpt>
      <trkpt lat="44.3611" lon="5.60046">
        <ele>800</ele>
        <time>2023-04-06T10:03:31Z</time>
      </trkpt>
      <trkpt lat="44.36104" lon="5.60051">
        <ele>799.7</ele>
        <time>2023-04-06T10:03:32Z</time>
      </trkpt>
      <trkpt lat="44.36092" lon="5.60061">
        <ele>799.1</ele>
        <time>2023-04-06T10:03:34Z</time>
      </trkpt>
      <trkpt lat="44.36086" lon="5.60067">
        <ele>798.9</ele>
        <time>2023-04-06T10:03:35Z</time>
      </trkpt>
      <trkpt lat="44.3608" lon="5.60071">
        <ele>798.6</ele>
        <time>2023-04-06T10:03:36Z</time>
      </trkpt>
      <trkpt lat="44.36073" lon="5.60076">
        <ele>798.3</ele>
        <time>2023-04-06T10:03:37Z</time>
      </trkpt>
      <trkpt lat="44.36067" lon="5.60081">
        <ele>798</ele>
        <time>2023-04-06T10:03:38Z</time>
      </trkpt>
      <trkpt lat="44.36054" lon="5.60089">
        <ele>797.6</ele>
        <time>2023-04-06T10:03:40Z</time>
      </trkpt>
      <trkpt lat="44.36047" lon="5.60093">
        <ele>797.4</ele>
        <time>2023-04-06T10:03:41Z</time>
      </trkpt>
      <trkpt lat="44.36042" lon="5.60098">
        <ele>797.3</ele>
        <time>2023-04-06T10:03:42Z</time>
      </trkpt>
      <trkpt lat="44.36037" lon="5.60104">
        <ele>797.2</ele>
        <time>2023-04-06T10:03:43Z</time>
      </trkpt>
      <trkpt lat="44.36033" lon="5.60111">
        <ele>797.1</ele>
        <time>2023-04-06T10:03:44Z</time>
      </trkpt>
      <trkpt lat="44.36029" lon="5.60118">
        <ele>797</ele>
        <time>2023-04-06T10:03:45Z</time>
      </trkpt>
      <trkpt lat="44.36025" lon="5.60125">
        <ele>796.9</ele>
        <time>2023-04-06T10:03:46Z</time>
      </trkpt>
      <trkpt lat="44.36021" lon="5.60133">
        <ele>796.9</ele>
        <time>2023-04-06T10:03:47Z</time>
      </trkpt>
      <trkpt lat="44.36017" lon="5.6014">
        <ele>796.8</ele>
        <time>2023-04-06T10:03:48Z</time>
      </trkpt>
      <trkpt lat="44.36014" lon="5.60147">
        <ele>796.7</ele>
        <time>2023-04-06T10:03:49Z</time>
      </trkpt>
      <trkpt lat="44.3601" lon="5.60154">
        <ele>796.6</ele>
        <time>2023-04-06T10:03:50Z</time>
      </trkpt>
      <trkpt lat="44.36006" lon="5.6016">
        <ele>796.5</ele>
        <time>2023-04-06T10:03:51Z</time>
      </trkpt>
      <trkpt lat="44.36" lon="5.60174">
        <ele>796.3</ele>
        <time>2023-04-06T10:03:53Z</time>
      </trkpt>
      <trkpt lat="44.35998" lon="5.60182">
        <ele>796.2</ele>
        <time>2023-04-06T10:03:54Z</time>
      </trkpt>
      <trkpt lat="44.35995" lon="5.6019">
        <ele>796.1</ele>
        <time>2023-04-06T10:03:55Z</time>
      </trkpt>
      <trkpt lat="44.35992" lon="5.60197">
        <ele>796</ele>
        <time>2023-04-06T10:03:56Z</time>
      </trkpt>
      <trkpt lat="44.3599" lon="5.60204">
        <ele>795.9</ele>
        <time>2023-04-06T10:03:57Z</time>
      </trkpt>
      <trkpt lat="44.35987" lon="5.60212">
        <ele>795.8</ele>
        <time>2023-04-06T10:03:58Z</time>
      </trkpt>
      <trkpt lat="44.35985" lon="5.60219">
        <ele>795.7</ele>
        <time>2023-04-06T10:03:59Z</time>
      </trkpt>
      <trkpt lat="44.35983" lon="5.60227">
        <ele>795.6</ele>
        <time>2023-04-06T10:04:00Z</time>
      </trkpt>
      <trkpt lat="44.35981" lon="5.60236">
        <ele>795.5</ele>
        <time>2023-04-06T10:04:01Z</time>
      </trkpt>
      <trkpt lat="44.3598" lon="5.60243">
        <ele>795.4</ele>
        <time>2023-04-06T10:04:02Z</time>
      </trkpt>
      <trkpt lat="44.35979" lon="5.60251">
        <ele>795.3</ele>
        <time>2023-04-06T10:04:03Z</time>
      </trkpt>
      <trkpt lat="44.35978" lon="5.6026">
        <ele>795.3</ele>
        <time>2023-04-06T10:04:04Z</time>
      </trkpt>
      <trkpt lat="44.35977" lon="5.60269">
        <ele>795.2</ele>
        <time>2023-04-06T10:04:05Z</time>
      </trkpt>
      <trkpt lat="44.35977" lon="5.60277">
        <ele>795.1</ele>
        <time>2023-04-06T10:04:06Z</time>
      </trkpt>
      <trkpt lat="44.35977" lon="5.60285">
        <ele>795.1</ele>
        <time>2023-04-06T10:04:07Z</time>
      </trkpt>
      <trkpt lat="44.35977" lon="5.60293">
        <ele>795.1</ele>
        <time>2023-04-06T10:04:08Z</time>
      </trkpt>
      <trkpt lat="44.35977" lon="5.60301">
        <ele>795</ele>
        <time>2023-04-06T10:04:09Z</time>
      </trkpt>
      <trkpt lat="44.35977" lon="5.60309">
        <ele>795</ele>
        <time>2023-04-06T10:04:10Z</time>
      </trkpt>
      <trkpt lat="44.35978" lon="5.60317">
        <ele>795</ele>
        <time>2023-04-06T10:04:11Z</time>
      </trkpt>
      <trkpt lat="44.35978" lon="5.60325">
        <ele>795</ele>
        <time>2023-04-06T10:04:12Z</time>
      </trkpt>
      <trkpt lat="44.35978" lon="5.60333">
        <ele>795</ele>
        <time>2023-04-06T10:04:13Z</time>
      </trkpt>
      <trkpt lat="44.35979" lon="5.60341">
        <ele>795</ele>
        <time>2023-04-06T10:04:14Z</time>
      </trkpt>
      <trkpt lat="44.3598" lon="5.60349">
        <ele>795</ele>
        <time>2023-04-06T10:04:15Z</time>
      </trkpt>
      <trkpt lat="44.3598" lon="5.60356">
        <ele>795</ele>
        <time>2023-04-06T10:04:16Z</time>
      </trkpt>
      <trkpt lat="44.35981" lon="5.60363">
        <ele>794.9</ele>
        <time>2023-04-06T10:04:17Z</time>
      </trkpt>
      <trkpt lat="44.35981" lon="5.60371">
        <ele>794.9</ele>
        <time>2023-04-06T10:04:18Z</time>
      </trkpt>
      <trkpt lat="44.35982" lon="5.60378">
        <ele>794.8</ele>
        <time>2023-04-06T10:04:19Z</time>
      </trkpt>
      <trkpt lat="44.35983" lon="5.60385">
        <ele>794.7</ele>
        <time>2023-04-06T10:04:20Z</time>
      </trkpt>
      <trkpt lat="44.35984" lon="5.60391">
        <ele>794.6</ele>
        <time>2023-04-06T10:04:21Z</time>
      </trkpt>
      <trkpt lat="44.35985" lon="5.60398">
        <ele>794.5</ele>
        <time>2023-04-06T10:04:22Z</time>
      </trkpt>
      <trkpt lat="44.35986" lon="5.60404">
        <ele>794.3</ele>
        <time>2023-04-06T10:04:23Z</time>
      </trkpt>
      <trkpt lat="44.35987" lon="5.6041">
        <ele>794.2</ele>
        <time>2023-04-06T10:04:24Z</time>
      </trkpt>
      <trkpt lat="44.35989" lon="5.60417">
        <ele>794</ele>
        <time>2023-04-06T10:04:25Z</time>
      </trkpt>
      <trkpt lat="44.3599" lon="5.60423">
        <ele>793.7</ele>
        <time>2023-04-06T10:04:26Z</time>
      </trkpt>
      <trkpt lat="44.35992" lon="5.6043">
        <ele>793.5</ele>
        <time>2023-04-06T10:04:27Z</time>
      </trkpt>
      <trkpt lat="44.35994" lon="5.60438">
        <ele>793.1</ele>
        <time>2023-04-06T10:04:28Z</time>
      </trkpt>
      <trkpt lat="44.35997" lon="5.60446">
        <ele>792.8</ele>
        <time>2023-04-06T10:04:29Z</time>
      </trkpt>
      <trkpt lat="44.35999" lon="5.60454">
        <ele>792.4</ele>
        <time>2023-04-06T10:04:30Z</time>
      </trkpt>
      <trkpt lat="44.36002" lon="5.60464">
        <ele>792</ele>
        <time>2023-04-06T10:04:31Z</time>
      </trkpt>
      <trkpt lat="44.36004" lon="5.60473">
        <ele>791.5</ele>
        <time>2023-04-06T10:04:32Z</time>
      </trkpt>
      <trkpt lat="44.36004" lon="5.60482">
        <ele>791.2</ele>
        <time>2023-04-06T10:04:33Z</time>
      </trkpt>
      <trkpt lat="44.36004" lon="5.60491">
        <ele>790.9</ele>
        <time>2023-04-06T10:04:34Z</time>
      </trkpt>
      <trkpt lat="44.36002" lon="5.60499">
        <ele>790.6</ele>
        <time>2023-04-06T10:04:35Z</time>
      </trkpt>
      <trkpt lat="44.36001" lon="5.60507">
        <ele>790.4</ele>
        <time>2023-04-06T10:04:36Z</time>
      </trkpt>
      <trkpt lat="44.36" lon="5.60515">
        <ele>790.2</ele>
        <time>2023-04-06T10:04:37Z</time>
      </trkpt>
      <trkpt lat="44.35999" lon="5.60522">
        <ele>790.1</ele>
        <time>2023-04-06T10:04:38Z</time>
      </trkpt>
      <trkpt lat="44.35997" lon="5.6053">
        <ele>789.9</ele>
        <time>2023-04-06T10:04:39Z</time>
      </trkpt>
      <trkpt lat="44.35996" lon="5.60536">
        <ele>789.8</ele>
        <time>2023-04-06T10:04:40Z</time>
      </trkpt>
      <trkpt lat="44.35995" lon="5.60543">
        <ele>789.7</ele>
        <time>2023-04-06T10:04:41Z</time>
      </trkpt>
      <trkpt lat="44.35993" lon="5.60551">
        <ele>789.6</ele>
        <time>2023-04-06T10:04:42Z</time>
      </trkpt>
      <trkpt lat="44.3599" lon="5.60558">
        <ele>789.4</ele>
        <time>2023-04-06T10:04:43Z</time>
      </trkpt>
      <trkpt lat="44.35987" lon="5.60566">
        <ele>789.3</ele>
        <time>2023-04-06T10:04:44Z</time>
      </trkpt>
      <trkpt lat="44.35984" lon="5.60574">
        <ele>789.2</ele>
        <time>2023-04-06T10:04:45Z</time>
      </trkpt>
      <trkpt lat="44.35981" lon="5.60582">
        <ele>789.2</ele>
        <time>2023-04-06T10:04:46Z</time>
      </trkpt>
      <trkpt lat="44.35979" lon="5.6059">
        <ele>789.1</ele>
        <time>2023-04-06T10:04:47Z</time>
      </trkpt>
      <trkpt lat="44.35977" lon="5.60599">
        <ele>789</ele>
        <time>2023-04-06T10:04:48Z</time>
      </trkpt>
      <trkpt lat="44.35975" lon="5.60606">
        <ele>789</ele>
        <time>2023-04-06T10:04:49Z</time>
      </trkpt>
      <trkpt lat="44.35973" lon="5.60613">
        <ele>788.9</ele>
        <time>2023-04-06T10:04:50Z</time>
      </trkpt>
      <trkpt lat="44.35972" lon="5.60621">
        <ele>788.9</ele>
        <time>2023-04-06T10:04:51Z</time>
      </trkpt>
      <trkpt lat="44.3597" lon="5.60628">
        <ele>788.8</ele>
        <time>2023-04-06T10:04:52Z</time>
      </trkpt>
      <trkpt lat="44.35968" lon="5.60636">
        <ele>788.7</ele>
        <time>2023-04-06T10:04:53Z</time>
      </trkpt>
      <trkpt lat="44.35965" lon="5.60643">
        <ele>788.7</ele>
        <time>2023-04-06T10:04:54Z</time>
      </trkpt>
      <trkpt lat="44.35963" lon="5.60649">
        <ele>788.7</ele>
        <time>2023-04-06T10:04:55Z</time>
      </trkpt>
      <trkpt lat="44.3596" lon="5.60655">
        <ele>788.6</ele>
        <time>2023-04-06T10:04:56Z</time>
      </trkpt>
      <trkpt lat="44.35957" lon="5.60662">
        <ele>788.6</ele>
        <time>2023-04-06T10:04:57Z</time>
      </trkpt>
      <trkpt lat="44.35954" lon="5.60667">
        <ele>788.6</ele>
        <time>2023-04-06T10:04:58Z</time>
      </trkpt>
      <trkpt lat="44.35951" lon="5.60673">
        <ele>788.6</ele>
        <time>2023-04-06T10:04:59Z</time>
      </trkpt>
      <trkpt lat="44.35945" lon="5.60685">
        <ele>788.5</ele>
        <time>2023-04-06T10:05:01Z</time>
      </trkpt>
      <trkpt lat="44.35942" lon="5.60692">
        <ele>788.5</ele>
        <time>2023-04-06T10:05:02Z</time>
      </trkpt>
      <trkpt lat="44.35939" lon="5.60698">
        <ele>788.4</ele>
        <time>2023-04-06T10:05:03Z</time>
      </trkpt>
      <trkpt lat="44.35935" lon="5.60704">
        <ele>788.4</ele>
        <time>2023-04-06T10:05:04Z</time>
      </trkpt>
      <trkpt lat="44.35931" lon="5.6071">
        <ele>788.3</ele>
        <time>2023-04-06T10:05:05Z</time>
      </trkpt>
      <trkpt lat="44.35927" lon="5.60716">
        <ele>788.2</ele>
        <time>2023-04-06T10:05:07Z</time>
      </trkpt>
      <trkpt lat="44.35918" lon="5.60727">
        <ele>788.1</ele>
        <time>2023-04-06T10:05:08Z</time>
      </trkpt>
      <trkpt lat="44.35914" lon="5.60732">
        <ele>788</ele>
        <time>2023-04-06T10:05:09Z</time>
      </trkpt>
      <trkpt lat="44.35909" lon="5.60739">
        <ele>787.9</ele>
        <time>2023-04-06T10:05:10Z</time>
      </trkpt>
      <trkpt lat="44.35905" lon="5.60745">
        <ele>787.9</ele>
        <time>2023-04-06T10:05:11Z</time>
      </trkpt>
      <trkpt lat="44.35899" lon="5.60759">
        <ele>787.8</ele>
        <time>2023-04-06T10:05:13Z</time>
      </trkpt>
      <trkpt lat="44.35897" lon="5.60767">
        <ele>787.7</ele>
        <time>2023-04-06T10:05:14Z</time>
      </trkpt>
      <trkpt lat="44.35895" lon="5.60774">
        <ele>787.7</ele>
        <time>2023-04-06T10:05:15Z</time>
      </trkpt>
      <trkpt lat="44.35894" lon="5.60782">
        <ele>787.6</ele>
        <time>2023-04-06T10:05:16Z</time>
      </trkpt>
      <trkpt lat="44.35893" lon="5.6079">
        <ele>787.6</ele>
        <time>2023-04-06T10:05:17Z</time>
      </trkpt>
      <trkpt lat="44.35893" lon="5.60798">
        <ele>787.6</ele>
        <time>2023-04-06T10:05:18Z</time>
      </trkpt>
      <trkpt lat="44.35892" lon="5.60806">
        <ele>787.6</ele>
        <time>2023-04-06T10:05:19Z</time>
      </trkpt>
      <trkpt lat="44.35891" lon="5.60813">
        <ele>787.6</ele>
        <time>2023-04-06T10:05:20Z</time>
      </trkpt>
      <trkpt lat="44.35891" lon="5.60821">
        <ele>787.7</ele>
        <time>2023-04-06T10:05:21Z</time>
      </trkpt>
      <trkpt lat="44.3589" lon="5.60828">
        <ele>787.7</ele>
        <time>2023-04-06T10:05:22Z</time>
      </trkpt>
      <trkpt lat="44.35889" lon="5.60844">
        <ele>787.8</ele>
        <time>2023-04-06T10:05:24Z</time>
      </trkpt>
      <trkpt lat="44.35889" lon="5.60851">
        <ele>787.8</ele>
        <time>2023-04-06T10:05:25Z</time>
      </trkpt>
      <trkpt lat="44.35889" lon="5.60859">
        <ele>787.9</ele>
        <time>2023-04-06T10:05:26Z</time>
      </trkpt>
      <trkpt lat="44.35889" lon="5.60867">
        <ele>787.9</ele>
        <time>2023-04-06T10:05:27Z</time>
      </trkpt>
      <trkpt lat="44.35889" lon="5.60875">
        <ele>788</ele>
        <time>2023-04-06T10:05:28Z</time>
      </trkpt>
      <trkpt lat="44.35888" lon="5.60883">
        <ele>788</ele>
        <time>2023-04-06T10:05:29Z</time>
      </trkpt>
      <trkpt lat="44.35887" lon="5.60891">
        <ele>788.1</ele>
        <time>2023-04-06T10:05:30Z</time>
      </trkpt>
      <trkpt lat="44.35887" lon="5.60898">
        <ele>788.1</ele>
        <time>2023-04-06T10:05:31Z</time>
      </trkpt>
      <trkpt lat="44.35887" lon="5.60905">
        <ele>788.2</ele>
        <time>2023-04-06T10:05:32Z</time>
      </trkpt>
      <trkpt lat="44.35887" lon="5.60913">
        <ele>788.2</ele>
        <time>2023-04-06T10:05:33Z</time>
      </trkpt>
      <trkpt lat="44.35885" lon="5.60926">
        <ele>788.3</ele>
        <time>2023-04-06T10:05:35Z</time>
      </trkpt>
      <trkpt lat="44.35885" lon="5.60932">
        <ele>788.4</ele>
        <time>2023-04-06T10:05:36Z</time>
      </trkpt>
      <trkpt lat="44.35884" lon="5.6094">
        <ele>788.5</ele>
        <time>2023-04-06T10:05:37Z</time>
      </trkpt>
      <trkpt lat="44.35883" lon="5.60947">
        <ele>788.5</ele>
        <time>2023-04-06T10:05:38Z</time>
      </trkpt>
      <trkpt lat="44.35882" lon="5.60954">
        <ele>788.6</ele>
        <time>2023-04-06T10:05:39Z</time>
      </trkpt>
      <trkpt lat="44.35882" lon="5.6096">
        <ele>788.7</ele>
        <time>2023-04-06T10:05:40Z</time>
      </trkpt>
      <trkpt lat="44.35882" lon="5.60967">
        <ele>788.7</ele>
        <time>2023-04-06T10:05:41Z</time>
      </trkpt>
      <trkpt lat="44.35882" lon="5.60974">
        <ele>788.8</ele>
        <time>2023-04-06T10:05:42Z</time>
      </trkpt>
      <trkpt lat="44.35882" lon="5.60981">
        <ele>788.8</ele>
        <time>2023-04-06T10:05:43Z</time>
      </trkpt>
      <trkpt lat="44.35882" lon="5.60987">
        <ele>788.9</ele>
        <time>2023-04-06T10:05:44Z</time>
      </trkpt>
      <trkpt lat="44.35883" lon="5.61">
        <ele>789</ele>
        <time>2023-04-06T10:05:46Z</time>
      </trkpt>
      <trkpt lat="44.35884" lon="5.61007">
        <ele>789</ele>
        <time>2023-04-06T10:05:47Z</time>
      </trkpt>
      <trkpt lat="44.35884" lon="5.61014">
        <ele>789.1</ele>
        <time>2023-04-06T10:05:48Z</time>
      </trkpt>
      <trkpt lat="44.35885" lon="5.61021">
        <ele>789.1</ele>
        <time>2023-04-06T10:05:49Z</time>
      </trkpt>
      <trkpt lat="44.35886" lon="5.61028">
        <ele>789.1</ele>
        <time>2023-04-06T10:05:50Z</time>
      </trkpt>
      <trkpt lat="44.35887" lon="5.61035">
        <ele>789.2</ele>
        <time>2023-04-06T10:05:51Z</time>
      </trkpt>
      <trkpt lat="44.35888" lon="5.61043">
        <ele>789.2</ele>
        <time>2023-04-06T10:05:52Z</time>
      </trkpt>
      <trkpt lat="44.35889" lon="5.6105">
        <ele>789.2</ele>
        <time>2023-04-06T10:05:53Z</time>
      </trkpt>
      <trkpt lat="44.3589" lon="5.61058">
        <ele>789.2</ele>
        <time>2023-04-06T10:05:54Z</time>
      </trkpt>
      <trkpt lat="44.35891" lon="5.61065">
        <ele>789.2</ele>
        <time>2023-04-06T10:05:55Z</time>
      </trkpt>
      <trkpt lat="44.35894" lon="5.61079">
        <ele>789.1</ele>
        <time>2023-04-06T10:05:57Z</time>
      </trkpt>
      <trkpt lat="44.35894" lon="5.61087">
        <ele>789</ele>
        <time>2023-04-06T10:05:58Z</time>
      </trkpt>
      <trkpt lat="44.35896" lon="5.61096">
        <ele>788.9</ele>
        <time>2023-04-06T10:05:59Z</time>
      </trkpt>
      <trkpt lat="44.35897" lon="5.61104">
        <ele>788.8</ele>
        <time>2023-04-06T10:06:00Z</time>
      </trkpt>
      <trkpt lat="44.35899" lon="5.61112">
        <ele>788.7</ele>
        <time>2023-04-06T10:06:01Z</time>
      </trkpt>
      <trkpt lat="44.359" lon="5.6112">
        <ele>788.6</ele>
        <time>2023-04-06T10:06:02Z</time>
      </trkpt>
      <trkpt lat="44.35901" lon="5.61129">
        <ele>788.4</ele>
        <time>2023-04-06T10:06:03Z</time>
      </trkpt>
      <trkpt lat="44.35903" lon="5.61137">
        <ele>788.3</ele>
        <time>2023-04-06T10:06:04Z</time>
      </trkpt>
      <trkpt lat="44.35905" lon="5.61145">
        <ele>788.2</ele>
        <time>2023-04-06T10:06:05Z</time>
      </trkpt>
      <trkpt lat="44.35907" lon="5.61152">
        <ele>788</ele>
        <time>2023-04-06T10:06:06Z</time>
      </trkpt>
      <trkpt lat="44.35911" lon="5.61167">
        <ele>787.8</ele>
        <time>2023-04-06T10:06:08Z</time>
      </trkpt>
      <trkpt lat="44.35912" lon="5.61175">
        <ele>787.6</ele>
        <time>2023-04-06T10:06:09Z</time>
      </trkpt>
      <trkpt lat="44.35914" lon="5.61183">
        <ele>787.5</ele>
        <time>2023-04-06T10:06:10Z</time>
      </trkpt>
      <trkpt lat="44.35915" lon="5.61191">
        <ele>787.4</ele>
        <time>2023-04-06T10:06:11Z</time>
      </trkpt>
      <trkpt lat="44.35917" lon="5.61199">
        <ele>787.2</ele>
        <time>2023-04-06T10:06:12Z</time>
      </trkpt>
      <trkpt lat="44.3592" lon="5.61215">
        <ele>787</ele>
        <time>2023-04-06T10:06:14Z</time>
      </trkpt>
      <trkpt lat="44.35922" lon="5.61223">
        <ele>786.8</ele>
        <time>2023-04-06T10:06:15Z</time>
      </trkpt>
      <trkpt lat="44.35923" lon="5.61232">
        <ele>786.6</ele>
        <time>2023-04-06T10:06:16Z</time>
      </trkpt>
      <trkpt lat="44.35922" lon="5.61241">
        <ele>786.4</ele>
        <time>2023-04-06T10:06:17Z</time>
      </trkpt>
      <trkpt lat="44.35921" lon="5.6125">
        <ele>786.2</ele>
        <time>2023-04-06T10:06:18Z</time>
      </trkpt>
      <trkpt lat="44.3592" lon="5.61258">
        <ele>785.9</ele>
        <time>2023-04-06T10:06:19Z</time>
      </trkpt>
      <trkpt lat="44.35918" lon="5.61266">
        <ele>785.6</ele>
        <time>2023-04-06T10:06:20Z</time>
      </trkpt>
      <trkpt lat="44.35916" lon="5.61275">
        <ele>785.3</ele>
        <time>2023-04-06T10:06:21Z</time>
      </trkpt>
      <trkpt lat="44.35915" lon="5.61283">
        <ele>785</ele>
        <time>2023-04-06T10:06:22Z</time>
      </trkpt>
      <trkpt lat="44.35915" lon="5.61292">
        <ele>784.7</ele>
        <time>2023-04-06T10:06:23Z</time>
      </trkpt>
      <trkpt lat="44.35916" lon="5.61301">
        <ele>784.4</ele>
        <time>2023-04-06T10:06:24Z</time>
      </trkpt>
      <trkpt lat="44.35919" lon="5.61309">
        <ele>784.1</ele>
        <time>2023-04-06T10:06:25Z</time>
      </trkpt>
      <trkpt lat="44.35923" lon="5.61316">
        <ele>783.8</ele>
        <time>2023-04-06T10:06:26Z</time>
      </trkpt>
      <trkpt lat="44.35926" lon="5.61321">
        <ele>783.5</ele>
        <time>2023-04-06T10:06:27Z</time>
      </trkpt>
      <trkpt lat="44.35928" lon="5.61326">
        <ele>782.9</ele>
        <time>2023-04-06T10:06:28Z</time>
      </trkpt>
      <trkpt lat="44.35926" lon="5.61332">
        <ele>782.8</ele>
        <time>2023-04-06T10:06:30Z</time>
      </trkpt>
      <trkpt lat="44.35923" lon="5.61333">
        <ele>782.8</ele>
        <time>2023-04-06T10:06:31Z</time>
      </trkpt>
      <trkpt lat="44.35919" lon="5.61333">
        <ele>782.7</ele>
        <time>2023-04-06T10:06:32Z</time>
      </trkpt>
      <trkpt lat="44.35915" lon="5.61331">
        <ele>782.6</ele>
        <time>2023-04-06T10:06:33Z</time>
      </trkpt>
      <trkpt lat="44.35911" lon="5.61326">
        <ele>782.5</ele>
        <time>2023-04-06T10:06:34Z</time>
      </trkpt>
      <trkpt lat="44.35906" lon="5.61321">
        <ele>782.5</ele>
        <time>2023-04-06T10:06:35Z</time>
      </trkpt>
      <trkpt lat="44.359" lon="5.61319">
        <ele>782.4</ele>
        <time>2023-04-06T10:06:36Z</time>
      </trkpt>
      <trkpt lat="44.35894" lon="5.61319">
        <ele>782.3</ele>
        <time>2023-04-06T10:06:37Z</time>
      </trkpt>
      <trkpt lat="44.35888" lon="5.61324">
        <ele>782.2</ele>
        <time>2023-04-06T10:06:38Z</time>
      </trkpt>
      <trkpt lat="44.35883" lon="5.6133">
        <ele>782.1</ele>
        <time>2023-04-06T10:06:39Z</time>
      </trkpt>
      <trkpt lat="44.35875" lon="5.61344">
        <ele>782.1</ele>
        <time>2023-04-06T10:06:41Z</time>
      </trkpt>
      <trkpt lat="44.35871" lon="5.61351">
        <ele>782.2</ele>
        <time>2023-04-06T10:06:42Z</time>
      </trkpt>
      <trkpt lat="44.35868" lon="5.61359">
        <ele>782.3</ele>
        <time>2023-04-06T10:06:43Z</time>
      </trkpt>
      <trkpt lat="44.35866" lon="5.61366">
        <ele>782.5</ele>
        <time>2023-04-06T10:06:44Z</time>
      </trkpt>
      <trkpt lat="44.35863" lon="5.61373">
        <ele>782.7</ele>
        <time>2023-04-06T10:06:45Z</time>
      </trkpt>
      <trkpt lat="44.3586" lon="5.6138">
        <ele>782.9</ele>
        <time>2023-04-06T10:06:46Z</time>
      </trkpt>
      <trkpt lat="44.35856" lon="5.61384">
        <ele>783.1</ele>
        <time>2023-04-06T10:06:47Z</time>
      </trkpt>
      <trkpt lat="44.35851" lon="5.61388">
        <ele>783.3</ele>
        <time>2023-04-06T10:06:48Z</time>
      </trkpt>
      <trkpt lat="44.35846" lon="5.61392">
        <ele>783.6</ele>
        <time>2023-04-06T10:06:49Z</time>
      </trkpt>
      <trkpt lat="44.3584" lon="5.61395">
        <ele>783.9</ele>
        <time>2023-04-06T10:06:50Z</time>
      </trkpt>
      <trkpt lat="44.3583" lon="5.614">
        <ele>784.7</ele>
        <time>2023-04-06T10:06:52Z</time>
      </trkpt>
      <trkpt lat="44.35825" lon="5.61404">
        <ele>785.1</ele>
        <time>2023-04-06T10:06:53Z</time>
      </trkpt>
      <trkpt lat="44.35821" lon="5.61408">
        <ele>785.5</ele>
        <time>2023-04-06T10:06:54Z</time>
      </trkpt>
      <trkpt lat="44.35817" lon="5.61411">
        <ele>785.8</ele>
        <time>2023-04-06T10:06:55Z</time>
      </trkpt>
      <trkpt lat="44.35813" lon="5.61414">
        <ele>786.1</ele>
        <time>2023-04-06T10:06:56Z</time>
      </trkpt>
      <trkpt lat="44.35809" lon="5.61416">
        <ele>786</ele>
        <time>2023-04-06T10:06:57Z</time>
      </trkpt>
      <trkpt lat="44.35805" lon="5.61416">
        <ele>785.9</ele>
        <time>2023-04-06T10:06:58Z</time>
      </trkpt>
      <trkpt lat="44.358" lon="5.61416">
        <ele>785.9</ele>
        <time>2023-04-06T10:06:59Z</time>
      </trkpt>
      <trkpt lat="44.35796" lon="5.61415">
        <ele>785.9</ele>
        <time>2023-04-06T10:07:00Z</time>
      </trkpt>
      <trkpt lat="44.35792" lon="5.61414">
        <ele>786</ele>
        <time>2023-04-06T10:07:01Z</time>
      </trkpt>
      <trkpt lat="44.35784" lon="5.61414">
        <ele>786.3</ele>
        <time>2023-04-06T10:07:03Z</time>
      </trkpt>
      <trkpt lat="44.3578" lon="5.61415">
        <ele>786.4</ele>
        <time>2023-04-06T10:07:04Z</time>
      </trkpt>
      <trkpt lat="44.35776" lon="5.61415">
        <ele>786.6</ele>
        <time>2023-04-06T10:07:05Z</time>
      </trkpt>
      <trkpt lat="44.35772" lon="5.61416">
        <ele>786.7</ele>
        <time>2023-04-06T10:07:06Z</time>
      </trkpt>
      <trkpt lat="44.35768" lon="5.61417">
        <ele>786.8</ele>
        <time>2023-04-06T10:07:07Z</time>
      </trkpt>
      <trkpt lat="44.35765" lon="5.61418">
        <ele>786.9</ele>
        <time>2023-04-06T10:07:08Z</time>
      </trkpt>
      <trkpt lat="44.35761" lon="5.61418">
        <ele>787</ele>
        <time>2023-04-06T10:07:09Z</time>
      </trkpt>
      <trkpt lat="44.35758" lon="5.61419">
        <ele>787.1</ele>
        <time>2023-04-06T10:07:10Z</time>
      </trkpt>
      <trkpt lat="44.35755" lon="5.61419">
        <ele>787.2</ele>
        <time>2023-04-06T10:07:11Z</time>
      </trkpt>
      <trkpt lat="44.35752" lon="5.6142">
        <ele>787.3</ele>
        <time>2023-04-06T10:07:12Z</time>
      </trkpt>
      <trkpt lat="44.35746" lon="5.61423">
        <ele>787.6</ele>
        <time>2023-04-06T10:07:14Z</time>
      </trkpt>
      <trkpt lat="44.35743" lon="5.61424">
        <ele>787.7</ele>
        <time>2023-04-06T10:07:15Z</time>
      </trkpt>
      <trkpt lat="44.3574" lon="5.61425">
        <ele>787.9</ele>
        <time>2023-04-06T10:07:16Z</time>
      </trkpt>
      <trkpt lat="44.35739" lon="5.61426">
        <ele>788</ele>
        <time>2023-04-06T10:07:17Z</time>
      </trkpt>
      <trkpt lat="44.35735" lon="5.61428">
        <ele>788.1</ele>
        <time>2023-04-06T10:07:18Z</time>
      </trkpt>
      <trkpt lat="44.35734" lon="5.61429">
        <ele>788.2</ele>
        <time>2023-04-06T10:07:19Z</time>
      </trkpt>
      <trkpt lat="44.35731" lon="5.61431">
        <ele>788.4</ele>
        <time>2023-04-06T10:07:20Z</time>
      </trkpt>
      <trkpt lat="44.3573" lon="5.61432">
        <ele>788.4</ele>
        <time>2023-04-06T10:07:21Z</time>
      </trkpt>
      <trkpt lat="44.35727" lon="5.61435">
        <ele>788.6</ele>
        <time>2023-04-06T10:07:22Z</time>
      </trkpt>
      <trkpt lat="44.35726" lon="5.61435">
        <ele>788.6</ele>
        <time>2023-04-06T10:07:23Z</time>
      </trkpt>
      <trkpt lat="44.35723" lon="5.61437">
        <ele>788.8</ele>
        <time>2023-04-06T10:07:24Z</time>
      </trkpt>
      <trkpt lat="44.35721" lon="5.61438">
        <ele>788.9</ele>
        <time>2023-04-06T10:07:25Z</time>
      </trkpt>
      <trkpt lat="44.35718" lon="5.61439">
        <ele>789</ele>
        <time>2023-04-06T10:07:26Z</time>
      </trkpt>
      <trkpt lat="44.35715" lon="5.61441">
        <ele>789.1</ele>
        <time>2023-04-06T10:07:27Z</time>
      </trkpt>
      <trkpt lat="44.35711" lon="5.61442">
        <ele>789.2</ele>
        <time>2023-04-06T10:07:28Z</time>
      </trkpt>
      <trkpt lat="44.35707" lon="5.61443">
        <ele>789.3</ele>
        <time>2023-04-06T10:07:29Z</time>
      </trkpt>
      <trkpt lat="44.35704" lon="5.61444">
        <ele>789.4</ele>
        <time>2023-04-06T10:07:30Z</time>
      </trkpt>
      <trkpt lat="44.357" lon="5.61446">
        <ele>789.5</ele>
        <time>2023-04-06T10:07:31Z</time>
      </trkpt>
      <trkpt lat="44.35697" lon="5.61447">
        <ele>789.5</ele>
        <time>2023-04-06T10:07:32Z</time>
      </trkpt>
      <trkpt lat="44.35694" lon="5.61448">
        <ele>789.6</ele>
        <time>2023-04-06T10:07:33Z</time>
      </trkpt>
      <trkpt lat="44.35691" lon="5.6145">
        <ele>789.7</ele>
        <time>2023-04-06T10:07:34Z</time>
      </trkpt>
      <trkpt lat="44.35688" lon="5.61451">
        <ele>789.8</ele>
        <time>2023-04-06T10:07:35Z</time>
      </trkpt>
      <trkpt lat="44.35684" lon="5.61452">
        <ele>789.9</ele>
        <time>2023-04-06T10:07:36Z</time>
      </trkpt>
      <trkpt lat="44.35681" lon="5.61454">
        <ele>790.1</ele>
        <time>2023-04-06T10:07:37Z</time>
      </trkpt>
      <trkpt lat="44.35677" lon="5.61455">
        <ele>790.2</ele>
        <time>2023-04-06T10:07:38Z</time>
      </trkpt>
      <trkpt lat="44.35674" lon="5.61457">
        <ele>790.4</ele>
        <time>2023-04-06T10:07:39Z</time>
      </trkpt>
      <trkpt lat="44.35671" lon="5.61459">
        <ele>790.5</ele>
        <time>2023-04-06T10:07:40Z</time>
      </trkpt>
      <trkpt lat="44.35668" lon="5.6146">
        <ele>790.6</ele>
        <time>2023-04-06T10:07:41Z</time>
      </trkpt>
      <trkpt lat="44.35665" lon="5.61463">
        <ele>790.7</ele>
        <time>2023-04-06T10:07:42Z</time>
      </trkpt>
      <trkpt lat="44.35663" lon="5.61465">
        <ele>790.8</ele>
        <time>2023-04-06T10:07:43Z</time>
      </trkpt>
      <trkpt lat="44.3566" lon="5.61467">
        <ele>790.9</ele>
        <time>2023-04-06T10:07:44Z</time>
      </trkpt>
      <trkpt lat="44.35658" lon="5.6147">
        <ele>791</ele>
        <time>2023-04-06T10:07:45Z</time>
      </trkpt>
      <trkpt lat="44.35655" lon="5.61473">
        <ele>791.1</ele>
        <time>2023-04-06T10:07:46Z</time>
      </trkpt>
      <trkpt lat="44.35652" lon="5.61476">
        <ele>791.2</ele>
        <time>2023-04-06T10:07:47Z</time>
      </trkpt>
      <trkpt lat="44.35651" lon="5.61478">
        <ele>791.3</ele>
        <time>2023-04-06T10:07:48Z</time>
      </trkpt>
      <trkpt lat="44.35648" lon="5.61481">
        <ele>791.4</ele>
        <time>2023-04-06T10:07:49Z</time>
      </trkpt>
      <trkpt lat="44.35645" lon="5.61484">
        <ele>791.5</ele>
        <time>2023-04-06T10:07:50Z</time>
      </trkpt>
      <trkpt lat="44.35642" lon="5.61487">
        <ele>791.6</ele>
        <time>2023-04-06T10:07:51Z</time>
      </trkpt>
      <trkpt lat="44.35639" lon="5.61491">
        <ele>791.7</ele>
        <time>2023-04-06T10:07:52Z</time>
      </trkpt>
      <trkpt lat="44.35636" lon="5.61494">
        <ele>791.7</ele>
        <time>2023-04-06T10:07:53Z</time>
      </trkpt>
      <trkpt lat="44.35633" lon="5.61498">
        <ele>791.8</ele>
        <time>2023-04-06T10:07:54Z</time>
      </trkpt>
      <trkpt lat="44.3563" lon="5.61501">
        <ele>791.9</ele>
        <time>2023-04-06T10:07:55Z</time>
      </trkpt>
      <trkpt lat="44.35627" lon="5.61505">
        <ele>792</ele>
        <time>2023-04-06T10:07:56Z</time>
      </trkpt>
      <trkpt lat="44.35624" lon="5.61508">
        <ele>792.1</ele>
        <time>2023-04-06T10:07:57Z</time>
      </trkpt>
      <trkpt lat="44.35621" lon="5.61511">
        <ele>792.2</ele>
        <time>2023-04-06T10:07:58Z</time>
      </trkpt>
      <trkpt lat="44.35618" lon="5.61513">
        <ele>792.2</ele>
        <time>2023-04-06T10:07:59Z</time>
      </trkpt>
      <trkpt lat="44.35615" lon="5.61516">
        <ele>792.3</ele>
        <time>2023-04-06T10:08:00Z</time>
      </trkpt>
      <trkpt lat="44.35611" lon="5.61519">
        <ele>792.4</ele>
        <time>2023-04-06T10:08:01Z</time>
      </trkpt>
      <trkpt lat="44.35608" lon="5.61522">
        <ele>792.4</ele>
        <time>2023-04-06T10:08:02Z</time>
      </trkpt>
      <trkpt lat="44.35605" lon="5.61523">
        <ele>792.5</ele>
        <time>2023-04-06T10:08:03Z</time>
      </trkpt>
      <trkpt lat="44.35601" lon="5.61525">
        <ele>792.6</ele>
        <time>2023-04-06T10:08:04Z</time>
      </trkpt>
      <trkpt lat="44.35598" lon="5.61527">
        <ele>792.7</ele>
        <time>2023-04-06T10:08:05Z</time>
      </trkpt>
      <trkpt lat="44.35594" lon="5.61529">
        <ele>792.7</ele>
        <time>2023-04-06T10:08:06Z</time>
      </trkpt>
      <trkpt lat="44.35591" lon="5.61531">
        <ele>792.8</ele>
        <time>2023-04-06T10:08:07Z</time>
      </trkpt>
      <trkpt lat="44.35588" lon="5.61533">
        <ele>792.9</ele>
        <time>2023-04-06T10:08:08Z</time>
      </trkpt>
      <trkpt lat="44.35585" lon="5.61535">
        <ele>793</ele>
        <time>2023-04-06T10:08:09Z</time>
      </trkpt>
      <trkpt lat="44.35583" lon="5.61538">
        <ele>793</ele>
        <time>2023-04-06T10:08:10Z</time>
      </trkpt>
      <trkpt lat="44.35581" lon="5.61542">
        <ele>793.2</ele>
        <time>2023-04-06T10:08:11Z</time>
      </trkpt>
      <trkpt lat="44.35578" lon="5.61547">
        <ele>793.3</ele>
        <time>2023-04-06T10:08:12Z</time>
      </trkpt>
      <trkpt lat="44.35577" lon="5.61552">
        <ele>793.4</ele>
        <time>2023-04-06T10:08:13Z</time>
      </trkpt>
      <trkpt lat="44.35576" lon="5.61556">
        <ele>793.5</ele>
        <time>2023-04-06T10:08:14Z</time>
      </trkpt>
      <trkpt lat="44.35575" lon="5.6156">
        <ele>793.6</ele>
        <time>2023-04-06T10:08:15Z</time>
      </trkpt>
      <trkpt lat="44.35575" lon="5.61565">
        <ele>793.7</ele>
        <time>2023-04-06T10:08:16Z</time>
      </trkpt>
      <trkpt lat="44.35575" lon="5.61569">
        <ele>793.8</ele>
        <time>2023-04-06T10:08:17Z</time>
      </trkpt>
      <trkpt lat="44.35575" lon="5.61573">
        <ele>793.9</ele>
        <time>2023-04-06T10:08:18Z</time>
      </trkpt>
      <trkpt lat="44.35576" lon="5.61578">
        <ele>794.1</ele>
        <time>2023-04-06T10:08:19Z</time>
      </trkpt>
      <trkpt lat="44.35576" lon="5.61582">
        <ele>794.2</ele>
        <time>2023-04-06T10:08:20Z</time>
      </trkpt>
      <trkpt lat="44.35576" lon="5.61587">
        <ele>794.3</ele>
        <time>2023-04-06T10:08:21Z</time>
      </trkpt>
      <trkpt lat="44.35575" lon="5.61592">
        <ele>794.4</ele>
        <time>2023-04-06T10:08:22Z</time>
      </trkpt>
      <trkpt lat="44.35575" lon="5.61597">
        <ele>794.5</ele>
        <time>2023-04-06T10:08:23Z</time>
      </trkpt>
      <trkpt lat="44.35575" lon="5.61602">
        <ele>794.6</ele>
        <time>2023-04-06T10:08:24Z</time>
      </trkpt>
      <trkpt lat="44.35574" lon="5.61606">
        <ele>794.6</ele>
        <time>2023-04-06T10:08:25Z</time>
      </trkpt>
      <trkpt lat="44.35573" lon="5.61611">
        <ele>794.7</ele>
        <time>2023-04-06T10:08:26Z</time>
      </trkpt>
      <trkpt lat="44.35572" lon="5.61615">
        <ele>794.8</ele>
        <time>2023-04-06T10:08:27Z</time>
      </trkpt>
      <trkpt lat="44.35571" lon="5.61619">
        <ele>795</ele>
        <time>2023-04-06T10:08:28Z</time>
      </trkpt>
      <trkpt lat="44.3557" lon="5.61623">
        <ele>795.1</ele>
        <time>2023-04-06T10:08:29Z</time>
      </trkpt>
      <trkpt lat="44.35569" lon="5.61628">
        <ele>795.2</ele>
        <time>2023-04-06T10:08:30Z</time>
      </trkpt>
      <trkpt lat="44.35568" lon="5.61631">
        <ele>795.3</ele>
        <time>2023-04-06T10:08:31Z</time>
      </trkpt>
      <trkpt lat="44.35567" lon="5.61635">
        <ele>795.4</ele>
        <time>2023-04-06T10:08:32Z</time>
      </trkpt>
      <trkpt lat="44.35565" lon="5.61638">
        <ele>795.6</ele>
        <time>2023-04-06T10:08:33Z</time>
      </trkpt>
      <trkpt lat="44.35562" lon="5.61642">
        <ele>795.7</ele>
        <time>2023-04-06T10:08:34Z</time>
      </trkpt>
      <trkpt lat="44.35561" lon="5.61645">
        <ele>795.8</ele>
        <time>2023-04-06T10:08:35Z</time>
      </trkpt>
      <trkpt lat="44.3556" lon="5.61651">
        <ele>796</ele>
        <time>2023-04-06T10:08:36Z</time>
      </trkpt>
      <trkpt lat="44.35559" lon="5.61653">
        <ele>796.1</ele>
        <time>2023-04-06T10:08:37Z</time>
      </trkpt>
      <trkpt lat="44.35559" lon="5.61657">
        <ele>796.3</ele>
        <time>2023-04-06T10:08:38Z</time>
      </trkpt>
      <trkpt lat="44.35558" lon="5.61661">
        <ele>796.5</ele>
        <time>2023-04-06T10:08:39Z</time>
      </trkpt>
      <trkpt lat="44.35558" lon="5.61665">
        <ele>796.7</ele>
        <time>2023-04-06T10:08:40Z</time>
      </trkpt>
      <trkpt lat="44.35556" lon="5.61669">
        <ele>796.9</ele>
        <time>2023-04-06T10:08:41Z</time>
      </trkpt>
      <trkpt lat="44.35555" lon="5.61673">
        <ele>797.1</ele>
        <time>2023-04-06T10:08:42Z</time>
      </trkpt>
      <trkpt lat="44.35553" lon="5.61677">
        <ele>797.4</ele>
        <time>2023-04-06T10:08:43Z</time>
      </trkpt>
      <trkpt lat="44.35551" lon="5.6168">
        <ele>797.6</ele>
        <time>2023-04-06T10:08:44Z</time>
      </trkpt>
      <trkpt lat="44.35549" lon="5.61682">
        <ele>797.8</ele>
        <time>2023-04-06T10:08:45Z</time>
      </trkpt>
      <trkpt lat="44.35546" lon="5.61685">
        <ele>798.1</ele>
        <time>2023-04-06T10:08:46Z</time>
      </trkpt>
      <trkpt lat="44.35544" lon="5.61687">
        <ele>798.3</ele>
        <time>2023-04-06T10:08:47Z</time>
      </trkpt>
      <trkpt lat="44.35541" lon="5.61689">
        <ele>798.5</ele>
        <time>2023-04-06T10:08:48Z</time>
      </trkpt>
      <trkpt lat="44.35539" lon="5.61692">
        <ele>798.7</ele>
        <time>2023-04-06T10:08:49Z</time>
      </trkpt>
      <trkpt lat="44.35538" lon="5.61695">
        <ele>798.9</ele>
        <time>2023-04-06T10:08:50Z</time>
      </trkpt>
      <trkpt lat="44.35537" lon="5.61699">
        <ele>799.1</ele>
        <time>2023-04-06T10:08:51Z</time>
      </trkpt>
      <trkpt lat="44.35537" lon="5.61703">
        <ele>799.3</ele>
        <time>2023-04-06T10:08:52Z</time>
      </trkpt>
      <trkpt lat="44.35536" lon="5.6171">
        <ele>799.7</ele>
        <time>2023-04-06T10:08:54Z</time>
      </trkpt>
      <trkpt lat="44.35536" lon="5.61714">
        <ele>800</ele>
        <time>2023-04-06T10:08:55Z</time>
      </trkpt>
      <trkpt lat="44.35535" lon="5.6172">
        <ele>800.3</ele>
        <time>2023-04-06T10:08:56Z</time>
      </trkpt>
      <trkpt lat="44.35535" lon="5.61721">
        <ele>800.4</ele>
        <time>2023-04-06T10:08:57Z</time>
      </trkpt>
      <trkpt lat="44.35535" lon="5.61724">
        <ele>800.6</ele>
        <time>2023-04-06T10:08:58Z</time>
      </trkpt>
      <trkpt lat="44.35535" lon="5.61732">
        <ele>801.1</ele>
        <time>2023-04-06T10:09:00Z</time>
      </trkpt>
      <trkpt lat="44.35534" lon="5.61737">
        <ele>801.5</ele>
        <time>2023-04-06T10:09:01Z</time>
      </trkpt>
      <trkpt lat="44.35534" lon="5.61738">
        <ele>801.6</ele>
        <time>2023-04-06T10:09:02Z</time>
      </trkpt>
      <trkpt lat="44.35532" lon="5.61741">
        <ele>802</ele>
        <time>2023-04-06T10:09:03Z</time>
      </trkpt>
      <trkpt lat="44.35528" lon="5.61743">
        <ele>802.4</ele>
        <time>2023-04-06T10:09:04Z</time>
      </trkpt>
      <trkpt lat="44.35527" lon="5.61744">
        <ele>802.6</ele>
        <time>2023-04-06T10:09:05Z</time>
      </trkpt>
      <trkpt lat="44.35524" lon="5.61743">
        <ele>802.9</ele>
        <time>2023-04-06T10:09:06Z</time>
      </trkpt>
      <trkpt lat="44.35522" lon="5.61743">
        <ele>803.2</ele>
        <time>2023-04-06T10:09:07Z</time>
      </trkpt>
      <trkpt lat="44.35519" lon="5.61743">
        <ele>803.5</ele>
        <time>2023-04-06T10:09:08Z</time>
      </trkpt>
      <trkpt lat="44.35516" lon="5.61741">
        <ele>803.8</ele>
        <time>2023-04-06T10:09:09Z</time>
      </trkpt>
      <trkpt lat="44.35512" lon="5.61739">
        <ele>804.2</ele>
        <time>2023-04-06T10:09:11Z</time>
      </trkpt>
      <trkpt lat="44.35511" lon="5.61735">
        <ele>804.5</ele>
        <time>2023-04-06T10:09:12Z</time>
      </trkpt>
      <trkpt lat="44.3551" lon="5.61734">
        <ele>804.6</ele>
        <time>2023-04-06T10:09:13Z</time>
      </trkpt>
      <trkpt lat="44.35509" lon="5.61732">
        <ele>804.8</ele>
        <time>2023-04-06T10:09:14Z</time>
      </trkpt>
      <trkpt lat="44.35508" lon="5.6173">
        <ele>804.9</ele>
        <time>2023-04-06T10:09:15Z</time>
      </trkpt>
      <trkpt lat="44.35508" lon="5.61728">
        <ele>805.1</ele>
        <time>2023-04-06T10:09:16Z</time>
      </trkpt>
      <trkpt lat="44.35508" lon="5.61725">
        <ele>805.3</ele>
        <time>2023-04-06T10:09:17Z</time>
      </trkpt>
      <trkpt lat="44.35509" lon="5.61721">
        <ele>805.7</ele>
        <time>2023-04-06T10:09:18Z</time>
      </trkpt>
      <trkpt lat="44.35509" lon="5.61719">
        <ele>805.8</ele>
        <time>2023-04-06T10:09:19Z</time>
      </trkpt>
      <trkpt lat="44.3551" lon="5.61716">
        <ele>806.1</ele>
        <time>2023-04-06T10:09:20Z</time>
      </trkpt>
      <trkpt lat="44.35511" lon="5.61711">
        <ele>806.6</ele>
        <time>2023-04-06T10:09:22Z</time>
      </trkpt>
      <trkpt lat="44.35512" lon="5.61708">
        <ele>806.9</ele>
        <time>2023-04-06T10:09:23Z</time>
      </trkpt>
      <trkpt lat="44.35513" lon="5.61704">
        <ele>807.3</ele>
        <time>2023-04-06T10:09:24Z</time>
      </trkpt>
      <trkpt lat="44.35513" lon="5.61702">
        <ele>807.4</ele>
        <time>2023-04-06T10:09:25Z</time>
      </trkpt>
      <trkpt lat="44.35514" lon="5.61699">
        <ele>807.7</ele>
        <time>2023-04-06T10:09:26Z</time>
      </trkpt>
      <trkpt lat="44.35515" lon="5.61692">
        <ele>808.2</ele>
        <time>2023-04-06T10:09:28Z</time>
      </trkpt>
      <trkpt lat="44.35515" lon="5.61688">
        <ele>808.5</ele>
        <time>2023-04-06T10:09:29Z</time>
      </trkpt>
      <trkpt lat="44.35516" lon="5.61685">
        <ele>808.8</ele>
        <time>2023-04-06T10:09:30Z</time>
      </trkpt>
      <trkpt lat="44.35516" lon="5.61681">
        <ele>809.1</ele>
        <time>2023-04-06T10:09:31Z</time>
      </trkpt>
      <trkpt lat="44.35516" lon="5.61677">
        <ele>809.4</ele>
        <time>2023-04-06T10:09:32Z</time>
      </trkpt>
      <trkpt lat="44.35516" lon="5.61672">
        <ele>809.8</ele>
        <time>2023-04-06T10:09:33Z</time>
      </trkpt>
      <trkpt lat="44.35516" lon="5.6167">
        <ele>809.9</ele>
        <time>2023-04-06T10:09:34Z</time>
      </trkpt>
      <trkpt lat="44.35516" lon="5.61665">
        <ele>810.3</ele>
        <time>2023-04-06T10:09:35Z</time>
      </trkpt>
      <trkpt lat="44.35516" lon="5.61663">
        <ele>810.5</ele>
        <time>2023-04-06T10:09:36Z</time>
      </trkpt>
      <trkpt lat="44.35516" lon="5.61659">
        <ele>810.8</ele>
        <time>2023-04-06T10:09:37Z</time>
      </trkpt>
      <trkpt lat="44.35517" lon="5.61657">
        <ele>810.9</ele>
        <time>2023-04-06T10:09:38Z</time>
      </trkpt>
      <trkpt lat="44.35517" lon="5.61653">
        <ele>811.2</ele>
        <time>2023-04-06T10:09:39Z</time>
      </trkpt>
      <trkpt lat="44.35517" lon="5.61652">
        <ele>811.3</ele>
        <time>2023-04-06T10:09:40Z</time>
      </trkpt>
      <trkpt lat="44.35517" lon="5.6165">
        <ele>811.4</ele>
        <time>2023-04-06T10:09:41Z</time>
      </trkpt>
      <trkpt lat="44.35517" lon="5.61647">
        <ele>811.6</ele>
        <time>2023-04-06T10:09:42Z</time>
      </trkpt>
      <trkpt lat="44.35518" lon="5.61642">
        <ele>812</ele>
        <time>2023-04-06T10:09:44Z</time>
      </trkpt>
      <trkpt lat="44.35519" lon="5.61639">
        <ele>812.1</ele>
        <time>2023-04-06T10:09:45Z</time>
      </trkpt>
      <trkpt lat="44.35519" lon="5.61637">
        <ele>812.3</ele>
        <time>2023-04-06T10:09:46Z</time>
      </trkpt>
      <trkpt lat="44.35519" lon="5.61632">
        <ele>812.7</ele>
        <time>2023-04-06T10:09:47Z</time>
      </trkpt>
      <trkpt lat="44.35519" lon="5.6163">
        <ele>812.9</ele>
        <time>2023-04-06T10:09:48Z</time>
      </trkpt>
      <trkpt lat="44.3552" lon="5.6162">
        <ele>813.7</ele>
        <time>2023-04-06T10:09:50Z</time>
      </trkpt>
      <trkpt lat="44.3552" lon="5.61618">
        <ele>813.8</ele>
        <time>2023-04-06T10:09:51Z</time>
      </trkpt>
      <trkpt lat="44.3552" lon="5.61615">
        <ele>814.1</ele>
        <time>2023-04-06T10:09:52Z</time>
      </trkpt>
      <trkpt lat="44.35521" lon="5.61609">
        <ele>814.6</ele>
        <time>2023-04-06T10:09:53Z</time>
      </trkpt>
      <trkpt lat="44.35521" lon="5.61607">
        <ele>814.7</ele>
        <time>2023-04-06T10:09:54Z</time>
      </trkpt>
      <trkpt lat="44.35521" lon="5.61601">
        <ele>815.2</ele>
        <time>2023-04-06T10:09:56Z</time>
      </trkpt>
      <trkpt lat="44.35522" lon="5.61596">
        <ele>815.5</ele>
        <time>2023-04-06T10:09:57Z</time>
      </trkpt>
      <trkpt lat="44.35522" lon="5.61594">
        <ele>815.7</ele>
        <time>2023-04-06T10:09:58Z</time>
      </trkpt>
      <trkpt lat="44.35522" lon="5.61592">
        <ele>815.8</ele>
        <time>2023-04-06T10:09:59Z</time>
      </trkpt>
      <trkpt lat="44.35522" lon="5.6159">
        <ele>816</ele>
        <time>2023-04-06T10:10:00Z</time>
      </trkpt>
      <trkpt lat="44.35521" lon="5.61589">
        <ele>816.1</ele>
        <time>2023-04-06T10:10:02Z</time>
      </trkpt>
      <trkpt lat="44.35519" lon="5.61589">
        <ele>816.3</ele>
        <time>2023-04-06T10:10:03Z</time>
      </trkpt>
      <trkpt lat="44.35516" lon="5.61589">
        <ele>816.6</ele>
        <time>2023-04-06T10:10:04Z</time>
      </trkpt>
      <trkpt lat="44.35515" lon="5.61589">
        <ele>816.7</ele>
        <time>2023-04-06T10:10:05Z</time>
      </trkpt>
      <trkpt lat="44.35511" lon="5.61589">
        <ele>817.1</ele>
        <time>2023-04-06T10:10:06Z</time>
      </trkpt>
      <trkpt lat="44.3551" lon="5.61589">
        <ele>817.2</ele>
        <time>2023-04-06T10:10:07Z</time>
      </trkpt>
      <trkpt lat="44.35507" lon="5.6159">
        <ele>817.4</ele>
        <time>2023-04-06T10:10:08Z</time>
      </trkpt>
      <trkpt lat="44.35506" lon="5.6159">
        <ele>817.5</ele>
        <time>2023-04-06T10:10:09Z</time>
      </trkpt>
      <trkpt lat="44.35504" lon="5.6159">
        <ele>817.7</ele>
        <time>2023-04-06T10:10:10Z</time>
      </trkpt>
      <trkpt lat="44.35503" lon="5.6159">
        <ele>817.8</ele>
        <time>2023-04-06T10:10:11Z</time>
      </trkpt>
      <trkpt lat="44.35498" lon="5.6159">
        <ele>818.2</ele>
        <time>2023-04-06T10:10:13Z</time>
      </trkpt>
      <trkpt lat="44.35497" lon="5.6159">
        <ele>818.3</ele>
        <time>2023-04-06T10:10:14Z</time>
      </trkpt>
      <trkpt lat="44.35496" lon="5.6159">
        <ele>818.4</ele>
        <time>2023-04-06T10:10:15Z</time>
      </trkpt>
      <trkpt lat="44.35492" lon="5.61589">
        <ele>818.7</ele>
        <time>2023-04-06T10:10:16Z</time>
      </trkpt>
      <trkpt lat="44.35491" lon="5.61589">
        <ele>818.8</ele>
        <time>2023-04-06T10:10:17Z</time>
      </trkpt>
      <trkpt lat="44.35488" lon="5.61587">
        <ele>819.1</ele>
        <time>2023-04-06T10:10:18Z</time>
      </trkpt>
      <trkpt lat="44.35487" lon="5.61587">
        <ele>819.2</ele>
        <time>2023-04-06T10:10:19Z</time>
      </trkpt>
      <trkpt lat="44.35484" lon="5.61586">
        <ele>819.5</ele>
        <time>2023-04-06T10:10:20Z</time>
      </trkpt>
      <trkpt lat="44.35483" lon="5.61585">
        <ele>819.6</ele>
        <time>2023-04-06T10:10:21Z</time>
      </trkpt>
      <trkpt lat="44.35481" lon="5.61585">
        <ele>819.8</ele>
        <time>2023-04-06T10:10:22Z</time>
      </trkpt>
      <trkpt lat="44.35478" lon="5.61583">
        <ele>820.1</ele>
        <time>2023-04-06T10:10:24Z</time>
      </trkpt>
      <trkpt lat="44.35476" lon="5.61583">
        <ele>820.4</ele>
        <time>2023-04-06T10:10:25Z</time>
      </trkpt>
      <trkpt lat="44.35473" lon="5.61581">
        <ele>820.7</ele>
        <time>2023-04-06T10:10:26Z</time>
      </trkpt>
      <trkpt lat="44.35471" lon="5.61581">
        <ele>820.8</ele>
        <time>2023-04-06T10:10:27Z</time>
      </trkpt>
      <trkpt lat="44.35469" lon="5.6158">
        <ele>821.1</ele>
        <time>2023-04-06T10:10:28Z</time>
      </trkpt>
      <trkpt lat="44.35466" lon="5.61577">
        <ele>821.5</ele>
        <time>2023-04-06T10:10:30Z</time>
      </trkpt>
      <trkpt lat="44.35464" lon="5.61576">
        <ele>821.6</ele>
        <time>2023-04-06T10:10:31Z</time>
      </trkpt>
      <trkpt lat="44.35462" lon="5.61575">
        <ele>821.8</ele>
        <time>2023-04-06T10:10:32Z</time>
      </trkpt>
      <trkpt lat="44.35461" lon="5.61574">
        <ele>821.9</ele>
        <time>2023-04-06T10:10:33Z</time>
      </trkpt>
      <trkpt lat="44.35459" lon="5.61573">
        <ele>822.1</ele>
        <time>2023-04-06T10:10:34Z</time>
      </trkpt>
      <trkpt lat="44.35455" lon="5.61571">
        <ele>822.5</ele>
        <time>2023-04-06T10:10:36Z</time>
      </trkpt>
      <trkpt lat="44.35453" lon="5.61569">
        <ele>822.6</ele>
        <time>2023-04-06T10:10:37Z</time>
      </trkpt>
      <trkpt lat="44.3545" lon="5.61568">
        <ele>822.8</ele>
        <time>2023-04-06T10:10:38Z</time>
      </trkpt>
      <trkpt lat="44.35449" lon="5.61567">
        <ele>822.9</ele>
        <time>2023-04-06T10:10:39Z</time>
      </trkpt>
      <trkpt lat="44.35447" lon="5.61565">
        <ele>823.2</ele>
        <time>2023-04-06T10:10:40Z</time>
      </trkpt>
      <trkpt lat="44.35445" lon="5.61564">
        <ele>823.3</ele>
        <time>2023-04-06T10:10:41Z</time>
      </trkpt>
      <trkpt lat="44.35442" lon="5.61562">
        <ele>823.6</ele>
        <time>2023-04-06T10:10:42Z</time>
      </trkpt>
      <trkpt lat="44.35441" lon="5.61561">
        <ele>823.7</ele>
        <time>2023-04-06T10:10:43Z</time>
      </trkpt>
      <trkpt lat="44.35439" lon="5.61558">
        <ele>824</ele>
        <time>2023-04-06T10:10:44Z</time>
      </trkpt>
      <trkpt lat="44.35438" lon="5.61558">
        <ele>824.2</ele>
        <time>2023-04-06T10:10:45Z</time>
      </trkpt>
      <trkpt lat="44.35435" lon="5.61555">
        <ele>823.4</ele>
        <time>2023-04-06T10:10:46Z</time>
      </trkpt>
      <trkpt lat="44.35435" lon="5.61554">
        <ele>823.7</ele>
        <time>2023-04-06T10:10:47Z</time>
      </trkpt>
      <trkpt lat="44.35432" lon="5.61551">
        <ele>823.9</ele>
        <time>2023-04-06T10:10:48Z</time>
      </trkpt>
      <trkpt lat="44.35432" lon="5.6155">
        <ele>824.2</ele>
        <time>2023-04-06T10:10:49Z</time>
      </trkpt>
      <trkpt lat="44.35429" lon="5.61547">
        <ele>827.1</ele>
        <time>2023-04-06T10:10:50Z</time>
      </trkpt>
      <trkpt lat="44.35428" lon="5.61546">
        <ele>827.4</ele>
        <time>2023-04-06T10:10:51Z</time>
      </trkpt>
      <trkpt lat="44.35425" lon="5.61546">
        <ele>827.7</ele>
        <time>2023-04-06T10:10:52Z</time>
      </trkpt>
      <trkpt lat="44.35424" lon="5.61547">
        <ele>827.9</ele>
        <time>2023-04-06T10:10:53Z</time>
      </trkpt>
      <trkpt lat="44.35423" lon="5.61549">
        <ele>828.2</ele>
        <time>2023-04-06T10:10:54Z</time>
      </trkpt>
      <trkpt lat="44.35423" lon="5.61551">
        <ele>828.4</ele>
        <time>2023-04-06T10:10:55Z</time>
      </trkpt>
      <trkpt lat="44.35424" lon="5.61553">
        <ele>828.7</ele>
        <time>2023-04-06T10:10:56Z</time>
      </trkpt>
      <trkpt lat="44.35426" lon="5.61554">
        <ele>829</ele>
        <time>2023-04-06T10:10:57Z</time>
      </trkpt>
      <trkpt lat="44.35427" lon="5.61555">
        <ele>829.2</ele>
        <time>2023-04-06T10:10:58Z</time>
      </trkpt>
      <trkpt lat="44.35429" lon="5.61556">
        <ele>829.5</ele>
        <time>2023-04-06T10:10:59Z</time>
      </trkpt>
      <trkpt lat="44.3543" lon="5.61557">
        <ele>831.1</ele>
        <time>2023-04-06T10:11:00Z</time>
      </trkpt>
      <trkpt lat="44.35431" lon="5.61559">
        <ele>828.4</ele>
        <time>2023-04-06T10:11:01Z</time>
      </trkpt>
      <trkpt lat="44.35433" lon="5.61561">
        <ele>828.6</ele>
        <time>2023-04-06T10:11:02Z</time>
      </trkpt>
      <trkpt lat="44.35434" lon="5.61562">
        <ele>828.9</ele>
        <time>2023-04-06T10:11:03Z</time>
      </trkpt>
      <trkpt lat="44.35436" lon="5.61565">
        <ele>829.1</ele>
        <time>2023-04-06T10:11:04Z</time>
      </trkpt>
      <trkpt lat="44.35436" lon="5.61566">
        <ele>829.2</ele>
        <time>2023-04-06T10:11:05Z</time>
      </trkpt>
      <trkpt lat="44.35437" lon="5.61568">
        <ele>829.3</ele>
        <time>2023-04-06T10:11:06Z</time>
      </trkpt>
      <trkpt lat="44.35437" lon="5.6157">
        <ele>829.5</ele>
        <time>2023-04-06T10:11:07Z</time>
      </trkpt>
      <trkpt lat="44.35439" lon="5.61574">
        <ele>829.7</ele>
        <time>2023-04-06T10:11:08Z</time>
      </trkpt>
      <trkpt lat="44.3544" lon="5.61575">
        <ele>829.8</ele>
        <time>2023-04-06T10:11:09Z</time>
      </trkpt>
      <trkpt lat="44.35442" lon="5.61579">
        <ele>830</ele>
        <time>2023-04-06T10:11:10Z</time>
      </trkpt>
      <trkpt lat="44.35443" lon="5.6158">
        <ele>830.1</ele>
        <time>2023-04-06T10:11:11Z</time>
      </trkpt>
      <trkpt lat="44.35445" lon="5.61583">
        <ele>830.4</ele>
        <time>2023-04-06T10:11:12Z</time>
      </trkpt>
      <trkpt lat="44.35446" lon="5.61585">
        <ele>830.5</ele>
        <time>2023-04-06T10:11:13Z</time>
      </trkpt>
      <trkpt lat="44.35448" lon="5.61587">
        <ele>830.7</ele>
        <time>2023-04-06T10:11:14Z</time>
      </trkpt>
      <trkpt lat="44.35449" lon="5.61588">
        <ele>830.8</ele>
        <time>2023-04-06T10:11:15Z</time>
      </trkpt>
      <trkpt lat="44.35451" lon="5.61591">
        <ele>831</ele>
        <time>2023-04-06T10:11:16Z</time>
      </trkpt>
      <trkpt lat="44.35452" lon="5.61591">
        <ele>831.1</ele>
        <time>2023-04-06T10:11:17Z</time>
      </trkpt>
      <trkpt lat="44.35455" lon="5.61594">
        <ele>831.4</ele>
        <time>2023-04-06T10:11:18Z</time>
      </trkpt>
      <trkpt lat="44.35456" lon="5.61595">
        <ele>831.5</ele>
        <time>2023-04-06T10:11:19Z</time>
      </trkpt>
      <trkpt lat="44.35459" lon="5.61597">
        <ele>831.8</ele>
        <time>2023-04-06T10:11:20Z</time>
      </trkpt>
      <trkpt lat="44.3546" lon="5.61598">
        <ele>831.9</ele>
        <time>2023-04-06T10:11:21Z</time>
      </trkpt>
      <trkpt lat="44.35461" lon="5.61602">
        <ele>832.2</ele>
        <time>2023-04-06T10:11:22Z</time>
      </trkpt>
      <trkpt lat="44.35462" lon="5.61603">
        <ele>832.3</ele>
        <time>2023-04-06T10:11:23Z</time>
      </trkpt>
      <trkpt lat="44.35464" lon="5.61608">
        <ele>832.6</ele>
        <time>2023-04-06T10:11:24Z</time>
      </trkpt>
      <trkpt lat="44.35464" lon="5.61609">
        <ele>832.7</ele>
        <time>2023-04-06T10:11:25Z</time>
      </trkpt>
      <trkpt lat="44.35465" lon="5.61614">
        <ele>833</ele>
        <time>2023-04-06T10:11:26Z</time>
      </trkpt>
      <trkpt lat="44.35466" lon="5.61616">
        <ele>833.1</ele>
        <time>2023-04-06T10:11:27Z</time>
      </trkpt>
      <trkpt lat="44.35465" lon="5.6162">
        <ele>833.4</ele>
        <time>2023-04-06T10:11:28Z</time>
      </trkpt>
      <trkpt lat="44.35465" lon="5.61622">
        <ele>833.5</ele>
        <time>2023-04-06T10:11:29Z</time>
      </trkpt>
      <trkpt lat="44.35465" lon="5.61626">
        <ele>833.8</ele>
        <time>2023-04-06T10:11:30Z</time>
      </trkpt>
      <trkpt lat="44.35465" lon="5.61627">
        <ele>833.8</ele>
        <time>2023-04-06T10:11:31Z</time>
      </trkpt>
      <trkpt lat="44.35463" lon="5.6163">
        <ele>834.1</ele>
        <time>2023-04-06T10:11:32Z</time>
      </trkpt>
      <trkpt lat="44.35463" lon="5.61632">
        <ele>834.2</ele>
        <time>2023-04-06T10:11:33Z</time>
      </trkpt>
      <trkpt lat="44.35461" lon="5.61635">
        <ele>834.5</ele>
        <time>2023-04-06T10:11:34Z</time>
      </trkpt>
      <trkpt lat="44.3546" lon="5.61636">
        <ele>834.7</ele>
        <time>2023-04-06T10:11:35Z</time>
      </trkpt>
      <trkpt lat="44.35457" lon="5.61638">
        <ele>835.1</ele>
        <time>2023-04-06T10:11:36Z</time>
      </trkpt>
      <trkpt lat="44.35456" lon="5.61639">
        <ele>835.2</ele>
        <time>2023-04-06T10:11:37Z</time>
      </trkpt>
      <trkpt lat="44.35453" lon="5.61641">
        <ele>835.6</ele>
        <time>2023-04-06T10:11:38Z</time>
      </trkpt>
      <trkpt lat="44.35452" lon="5.61642">
        <ele>835.7</ele>
        <time>2023-04-06T10:11:39Z</time>
      </trkpt>
      <trkpt lat="44.3545" lon="5.61645">
        <ele>836</ele>
        <time>2023-04-06T10:11:40Z</time>
      </trkpt>
      <trkpt lat="44.35449" lon="5.61646">
        <ele>836.1</ele>
        <time>2023-04-06T10:11:41Z</time>
      </trkpt>
      <trkpt lat="44.35447" lon="5.61648">
        <ele>836.4</ele>
        <time>2023-04-06T10:11:42Z</time>
      </trkpt>
      <trkpt lat="44.35446" lon="5.61649">
        <ele>836.5</ele>
        <time>2023-04-06T10:11:43Z</time>
      </trkpt>
      <trkpt lat="44.35444" lon="5.61651">
        <ele>836.8</ele>
        <time>2023-04-06T10:11:44Z</time>
      </trkpt>
      <trkpt lat="44.35443" lon="5.61652">
        <ele>836.9</ele>
        <time>2023-04-06T10:11:45Z</time>
      </trkpt>
      <trkpt lat="44.35441" lon="5.61655">
        <ele>837.2</ele>
        <time>2023-04-06T10:11:46Z</time>
      </trkpt>
      <trkpt lat="44.3544" lon="5.61656">
        <ele>837.3</ele>
        <time>2023-04-06T10:11:47Z</time>
      </trkpt>
      <trkpt lat="44.35438" lon="5.61659">
        <ele>837.6</ele>
        <time>2023-04-06T10:11:48Z</time>
      </trkpt>
      <trkpt lat="44.35437" lon="5.6166">
        <ele>837.7</ele>
        <time>2023-04-06T10:11:49Z</time>
      </trkpt>
      <trkpt lat="44.35434" lon="5.61663">
        <ele>838</ele>
        <time>2023-04-06T10:11:50Z</time>
      </trkpt>
      <trkpt lat="44.35433" lon="5.61664">
        <ele>838.1</ele>
        <time>2023-04-06T10:11:51Z</time>
      </trkpt>
      <trkpt lat="44.3543" lon="5.61667">
        <ele>838.4</ele>
        <time>2023-04-06T10:11:52Z</time>
      </trkpt>
      <trkpt lat="44.35429" lon="5.61668">
        <ele>838.5</ele>
        <time>2023-04-06T10:11:53Z</time>
      </trkpt>
      <trkpt lat="44.35426" lon="5.61671">
        <ele>838.7</ele>
        <time>2023-04-06T10:11:54Z</time>
      </trkpt>
      <trkpt lat="44.35425" lon="5.61671">
        <ele>838.8</ele>
        <time>2023-04-06T10:11:55Z</time>
      </trkpt>
      <trkpt lat="44.35423" lon="5.61674">
        <ele>839.1</ele>
        <time>2023-04-06T10:11:56Z</time>
      </trkpt>
      <trkpt lat="44.35422" lon="5.61675">
        <ele>839.2</ele>
        <time>2023-04-06T10:11:57Z</time>
      </trkpt>
      <trkpt lat="44.35419" lon="5.61677">
        <ele>839.5</ele>
        <time>2023-04-06T10:11:58Z</time>
      </trkpt>
      <trkpt lat="44.35418" lon="5.61678">
        <ele>839.6</ele>
        <time>2023-04-06T10:11:59Z</time>
      </trkpt>
      <trkpt lat="44.35416" lon="5.6168">
        <ele>839.9</ele>
        <time>2023-04-06T10:12:00Z</time>
      </trkpt>
      <trkpt lat="44.35415" lon="5.6168">
        <ele>840</ele>
        <time>2023-04-06T10:12:01Z</time>
      </trkpt>
      <trkpt lat="44.35412" lon="5.61682">
        <ele>840.3</ele>
        <time>2023-04-06T10:12:02Z</time>
      </trkpt>
      <trkpt lat="44.35411" lon="5.61683">
        <ele>840.4</ele>
        <time>2023-04-06T10:12:03Z</time>
      </trkpt>
      <trkpt lat="44.35408" lon="5.61684">
        <ele>840.8</ele>
        <time>2023-04-06T10:12:04Z</time>
      </trkpt>
      <trkpt lat="44.35407" lon="5.61685">
        <ele>840.9</ele>
        <time>2023-04-06T10:12:05Z</time>
      </trkpt>
      <trkpt lat="44.35404" lon="5.61687">
        <ele>841.2</ele>
        <time>2023-04-06T10:12:06Z</time>
      </trkpt>
      <trkpt lat="44.35402" lon="5.61688">
        <ele>841.3</ele>
        <time>2023-04-06T10:12:07Z</time>
      </trkpt>
      <trkpt lat="44.35399" lon="5.6169">
        <ele>841.7</ele>
        <time>2023-04-06T10:12:08Z</time>
      </trkpt>
      <trkpt lat="44.35398" lon="5.61691">
        <ele>841.8</ele>
        <time>2023-04-06T10:12:09Z</time>
      </trkpt>
      <trkpt lat="44.35395" lon="5.61692">
        <ele>842.1</ele>
        <time>2023-04-06T10:12:10Z</time>
      </trkpt>
      <trkpt lat="44.35394" lon="5.61692">
        <ele>842.2</ele>
        <time>2023-04-06T10:12:11Z</time>
      </trkpt>
      <trkpt lat="44.3539" lon="5.61693">
        <ele>842.5</ele>
        <time>2023-04-06T10:12:12Z</time>
      </trkpt>
      <trkpt lat="44.35389" lon="5.61693">
        <ele>842.6</ele>
        <time>2023-04-06T10:12:13Z</time>
      </trkpt>
      <trkpt lat="44.35385" lon="5.61694">
        <ele>842.9</ele>
        <time>2023-04-06T10:12:14Z</time>
      </trkpt>
      <trkpt lat="44.35384" lon="5.61695">
        <ele>843</ele>
        <time>2023-04-06T10:12:15Z</time>
      </trkpt>
      <trkpt lat="44.35381" lon="5.61696">
        <ele>843.3</ele>
        <time>2023-04-06T10:12:16Z</time>
      </trkpt>
      <trkpt lat="44.3538" lon="5.61696">
        <ele>843.4</ele>
        <time>2023-04-06T10:12:17Z</time>
      </trkpt>
      <trkpt lat="44.35377" lon="5.61697">
        <ele>843.7</ele>
        <time>2023-04-06T10:12:18Z</time>
      </trkpt>
      <trkpt lat="44.35376" lon="5.61697">
        <ele>843.7</ele>
        <time>2023-04-06T10:12:19Z</time>
      </trkpt>
      <trkpt lat="44.35372" lon="5.61698">
        <ele>844</ele>
        <time>2023-04-06T10:12:21Z</time>
      </trkpt>
      <trkpt lat="44.35369" lon="5.61699">
        <ele>844.2</ele>
        <time>2023-04-06T10:12:22Z</time>
      </trkpt>
      <trkpt lat="44.35368" lon="5.617">
        <ele>844.2</ele>
        <time>2023-04-06T10:12:23Z</time>
      </trkpt>
      <trkpt lat="44.35364" lon="5.61703">
        <ele>844.5</ele>
        <time>2023-04-06T10:12:25Z</time>
      </trkpt>
      <trkpt lat="44.35362" lon="5.61706">
        <ele>844.7</ele>
        <time>2023-04-06T10:12:27Z</time>
      </trkpt>
      <trkpt lat="44.35361" lon="5.61708">
        <ele>844.8</ele>
        <time>2023-04-06T10:12:28Z</time>
      </trkpt>
      <trkpt lat="44.3536" lon="5.6171">
        <ele>845</ele>
        <time>2023-04-06T10:12:29Z</time>
      </trkpt>
      <trkpt lat="44.3536" lon="5.61713">
        <ele>845.1</ele>
        <time>2023-04-06T10:12:30Z</time>
      </trkpt>
      <trkpt lat="44.35359" lon="5.61715">
        <ele>845.2</ele>
        <time>2023-04-06T10:12:31Z</time>
      </trkpt>
      <trkpt lat="44.35359" lon="5.61721">
        <ele>845.6</ele>
        <time>2023-04-06T10:12:33Z</time>
      </trkpt>
      <trkpt lat="44.3536" lon="5.61723">
        <ele>845.7</ele>
        <time>2023-04-06T10:12:34Z</time>
      </trkpt>
      <trkpt lat="44.3536" lon="5.61726">
        <ele>845.9</ele>
        <time>2023-04-06T10:12:35Z</time>
      </trkpt>
      <trkpt lat="44.3536" lon="5.61728">
        <ele>846.1</ele>
        <time>2023-04-06T10:12:36Z</time>
      </trkpt>
      <trkpt lat="44.3536" lon="5.6173">
        <ele>846.2</ele>
        <time>2023-04-06T10:12:37Z</time>
      </trkpt>
      <trkpt lat="44.3536" lon="5.61733">
        <ele>846.3</ele>
        <time>2023-04-06T10:12:38Z</time>
      </trkpt>
      <trkpt lat="44.3536" lon="5.61735">
        <ele>846.5</ele>
        <time>2023-04-06T10:12:39Z</time>
      </trkpt>
      <trkpt lat="44.35359" lon="5.61737">
        <ele>846.6</ele>
        <time>2023-04-06T10:12:40Z</time>
      </trkpt>
      <trkpt lat="44.35359" lon="5.61739">
        <ele>846.7</ele>
        <time>2023-04-06T10:12:41Z</time>
      </trkpt>
      <trkpt lat="44.35359" lon="5.61741">
        <ele>846.9</ele>
        <time>2023-04-06T10:12:42Z</time>
      </trkpt>
      <trkpt lat="44.35358" lon="5.61745">
        <ele>847.2</ele>
        <time>2023-04-06T10:12:44Z</time>
      </trkpt>
      <trkpt lat="44.35358" lon="5.61748">
        <ele>847.4</ele>
        <time>2023-04-06T10:12:45Z</time>
      </trkpt>
      <trkpt lat="44.35358" lon="5.61752">
        <ele>847.7</ele>
        <time>2023-04-06T10:12:46Z</time>
      </trkpt>
      <trkpt lat="44.35358" lon="5.61753">
        <ele>847.8</ele>
        <time>2023-04-06T10:12:47Z</time>
      </trkpt>
      <trkpt lat="44.35358" lon="5.61755">
        <ele>847.9</ele>
        <time>2023-04-06T10:12:48Z</time>
      </trkpt>
      <trkpt lat="44.35358" lon="5.61758">
        <ele>848.2</ele>
        <time>2023-04-06T10:12:49Z</time>
      </trkpt>
      <trkpt lat="44.35358" lon="5.61762">
        <ele>848.6</ele>
        <time>2023-04-06T10:12:50Z</time>
      </trkpt>
      <trkpt lat="44.35358" lon="5.61764">
        <ele>848.7</ele>
        <time>2023-04-06T10:12:51Z</time>
      </trkpt>
      <trkpt lat="44.35359" lon="5.61768">
        <ele>849</ele>
        <time>2023-04-06T10:12:52Z</time>
      </trkpt>
      <trkpt lat="44.35359" lon="5.61769">
        <ele>849.2</ele>
        <time>2023-04-06T10:12:53Z</time>
      </trkpt>
      <trkpt lat="44.3536" lon="5.61774">
        <ele>849.7</ele>
        <time>2023-04-06T10:12:55Z</time>
      </trkpt>
      <trkpt lat="44.3536" lon="5.61779">
        <ele>850.1</ele>
        <time>2023-04-06T10:12:56Z</time>
      </trkpt>
      <trkpt lat="44.3536" lon="5.6178">
        <ele>850.2</ele>
        <time>2023-04-06T10:12:57Z</time>
      </trkpt>
      <trkpt lat="44.35361" lon="5.61784">
        <ele>850.5</ele>
        <time>2023-04-06T10:12:58Z</time>
      </trkpt>
      <trkpt lat="44.35361" lon="5.61785">
        <ele>850.6</ele>
        <time>2023-04-06T10:12:59Z</time>
      </trkpt>
      <trkpt lat="44.35361" lon="5.61788">
        <ele>850.8</ele>
        <time>2023-04-06T10:13:00Z</time>
      </trkpt>
      <trkpt lat="44.35361" lon="5.6179">
        <ele>851</ele>
        <time>2023-04-06T10:13:01Z</time>
      </trkpt>
      <trkpt lat="44.35362" lon="5.61794">
        <ele>851.3</ele>
        <time>2023-04-06T10:13:02Z</time>
      </trkpt>
      <trkpt lat="44.35362" lon="5.61795">
        <ele>851.4</ele>
        <time>2023-04-06T10:13:03Z</time>
      </trkpt>
      <trkpt lat="44.35362" lon="5.61797">
        <ele>851.5</ele>
        <time>2023-04-06T10:13:04Z</time>
      </trkpt>
      <trkpt lat="44.35362" lon="5.61802">
        <ele>851.9</ele>
        <time>2023-04-06T10:13:06Z</time>
      </trkpt>
      <trkpt lat="44.35363" lon="5.61805">
        <ele>852.1</ele>
        <time>2023-04-06T10:13:07Z</time>
      </trkpt>
      <trkpt lat="44.35363" lon="5.61809">
        <ele>852.4</ele>
        <time>2023-04-06T10:13:08Z</time>
      </trkpt>
      <trkpt lat="44.35363" lon="5.61811">
        <ele>852.5</ele>
        <time>2023-04-06T10:13:09Z</time>
      </trkpt>
      <trkpt lat="44.35364" lon="5.61815">
        <ele>852.8</ele>
        <time>2023-04-06T10:13:10Z</time>
      </trkpt>
      <trkpt lat="44.35364" lon="5.61817">
        <ele>852.9</ele>
        <time>2023-04-06T10:13:11Z</time>
      </trkpt>
      <trkpt lat="44.35365" lon="5.61821">
        <ele>853.1</ele>
        <time>2023-04-06T10:13:12Z</time>
      </trkpt>
      <trkpt lat="44.35365" lon="5.61822">
        <ele>853.2</ele>
        <time>2023-04-06T10:13:13Z</time>
      </trkpt>
      <trkpt lat="44.35366" lon="5.61826">
        <ele>853.4</ele>
        <time>2023-04-06T10:13:14Z</time>
      </trkpt>
      <trkpt lat="44.35366" lon="5.61827">
        <ele>853.5</ele>
        <time>2023-04-06T10:13:15Z</time>
      </trkpt>
      <trkpt lat="44.35368" lon="5.61831">
        <ele>853.8</ele>
        <time>2023-04-06T10:13:16Z</time>
      </trkpt>
      <trkpt lat="44.35368" lon="5.61832">
        <ele>853.9</ele>
        <time>2023-04-06T10:13:17Z</time>
      </trkpt>
      <trkpt lat="44.35369" lon="5.61836">
        <ele>854.2</ele>
        <time>2023-04-06T10:13:18Z</time>
      </trkpt>
      <trkpt lat="44.3537" lon="5.61838">
        <ele>854.3</ele>
        <time>2023-04-06T10:13:19Z</time>
      </trkpt>
      <trkpt lat="44.3537" lon="5.61841">
        <ele>854.5</ele>
        <time>2023-04-06T10:13:20Z</time>
      </trkpt>
      <trkpt lat="44.35372" lon="5.61846">
        <ele>854.8</ele>
        <time>2023-04-06T10:13:22Z</time>
      </trkpt>
      <trkpt lat="44.35372" lon="5.61849">
        <ele>855</ele>
        <time>2023-04-06T10:13:23Z</time>
      </trkpt>
      <trkpt lat="44.35373" lon="5.61852">
        <ele>855.3</ele>
        <time>2023-04-06T10:13:24Z</time>
      </trkpt>
      <trkpt lat="44.35373" lon="5.61853">
        <ele>855.4</ele>
        <time>2023-04-06T10:13:25Z</time>
      </trkpt>
      <trkpt lat="44.35374" lon="5.61855">
        <ele>855.5</ele>
        <time>2023-04-06T10:13:26Z</time>
      </trkpt>
      <trkpt lat="44.35374" lon="5.61857">
        <ele>855.7</ele>
        <time>2023-04-06T10:13:27Z</time>
      </trkpt>
      <trkpt lat="44.35375" lon="5.6186">
        <ele>855.8</ele>
        <time>2023-04-06T10:13:28Z</time>
      </trkpt>
      <trkpt lat="44.35375" lon="5.61862">
        <ele>856</ele>
        <time>2023-04-06T10:13:29Z</time>
      </trkpt>
      <trkpt lat="44.35375" lon="5.61864">
        <ele>856.2</ele>
        <time>2023-04-06T10:13:30Z</time>
      </trkpt>
      <trkpt lat="44.35375" lon="5.61866">
        <ele>856.3</ele>
        <time>2023-04-06T10:13:31Z</time>
      </trkpt>
      <trkpt lat="44.35374" lon="5.61872">
        <ele>856.7</ele>
        <time>2023-04-06T10:13:33Z</time>
      </trkpt>
      <trkpt lat="44.35373" lon="5.61874">
        <ele>856.8</ele>
        <time>2023-04-06T10:13:34Z</time>
      </trkpt>
      <trkpt lat="44.35373" lon="5.61876">
        <ele>857</ele>
        <time>2023-04-06T10:13:35Z</time>
      </trkpt>
      <trkpt lat="44.35372" lon="5.6188">
        <ele>857.3</ele>
        <time>2023-04-06T10:13:36Z</time>
      </trkpt>
      <trkpt lat="44.35371" lon="5.61881">
        <ele>857.4</ele>
        <time>2023-04-06T10:13:37Z</time>
      </trkpt>
      <trkpt lat="44.35369" lon="5.61886">
        <ele>857.7</ele>
        <time>2023-04-06T10:13:39Z</time>
      </trkpt>
      <trkpt lat="44.35367" lon="5.61889">
        <ele>858</ele>
        <time>2023-04-06T10:13:40Z</time>
      </trkpt>
      <trkpt lat="44.35366" lon="5.6189">
        <ele>858.1</ele>
        <time>2023-04-06T10:13:41Z</time>
      </trkpt>
      <trkpt lat="44.35365" lon="5.61894">
        <ele>858.4</ele>
        <time>2023-04-06T10:13:42Z</time>
      </trkpt>
      <trkpt lat="44.35364" lon="5.61895">
        <ele>858.5</ele>
        <time>2023-04-06T10:13:43Z</time>
      </trkpt>
      <trkpt lat="44.35361" lon="5.619">
        <ele>858.9</ele>
        <time>2023-04-06T10:13:44Z</time>
      </trkpt>
      <trkpt lat="44.3536" lon="5.61901">
        <ele>859.1</ele>
        <time>2023-04-06T10:13:45Z</time>
      </trkpt>
      <trkpt lat="44.35357" lon="5.61904">
        <ele>859.5</ele>
        <time>2023-04-06T10:13:46Z</time>
      </trkpt>
      <trkpt lat="44.35356" lon="5.61905">
        <ele>859.6</ele>
        <time>2023-04-06T10:13:47Z</time>
      </trkpt>
      <trkpt lat="44.35353" lon="5.61908">
        <ele>860</ele>
        <time>2023-04-06T10:13:48Z</time>
      </trkpt>
      <trkpt lat="44.35352" lon="5.61909">
        <ele>860.2</ele>
        <time>2023-04-06T10:13:49Z</time>
      </trkpt>
      <trkpt lat="44.35349" lon="5.61913">
        <ele>860.6</ele>
        <time>2023-04-06T10:13:50Z</time>
      </trkpt>
      <trkpt lat="44.35348" lon="5.61914">
        <ele>860.8</ele>
        <time>2023-04-06T10:13:51Z</time>
      </trkpt>
      <trkpt lat="44.35346" lon="5.61917">
        <ele>861.2</ele>
        <time>2023-04-06T10:13:52Z</time>
      </trkpt>
      <trkpt lat="44.35345" lon="5.61918">
        <ele>861.4</ele>
        <time>2023-04-06T10:13:53Z</time>
      </trkpt>
      <trkpt lat="44.35342" lon="5.61921">
        <ele>861.9</ele>
        <time>2023-04-06T10:13:55Z</time>
      </trkpt>
      <trkpt lat="44.35339" lon="5.61923">
        <ele>862.4</ele>
        <time>2023-04-06T10:13:56Z</time>
      </trkpt>
      <trkpt lat="44.35338" lon="5.61923">
        <ele>862.5</ele>
        <time>2023-04-06T10:13:57Z</time>
      </trkpt>
      <trkpt lat="44.35335" lon="5.61925">
        <ele>863</ele>
        <time>2023-04-06T10:13:58Z</time>
      </trkpt>
      <trkpt lat="44.35334" lon="5.61926">
        <ele>863.1</ele>
        <time>2023-04-06T10:13:59Z</time>
      </trkpt>
      <trkpt lat="44.35331" lon="5.61928">
        <ele>863.7</ele>
        <time>2023-04-06T10:14:00Z</time>
      </trkpt>
      <trkpt lat="44.3533" lon="5.61929">
        <ele>863.8</ele>
        <time>2023-04-06T10:14:01Z</time>
      </trkpt>
      <trkpt lat="44.35327" lon="5.61931">
        <ele>864.3</ele>
        <time>2023-04-06T10:14:02Z</time>
      </trkpt>
      <trkpt lat="44.35326" lon="5.61932">
        <ele>864.5</ele>
        <time>2023-04-06T10:14:03Z</time>
      </trkpt>
      <trkpt lat="44.35325" lon="5.61934">
        <ele>864.8</ele>
        <time>2023-04-06T10:14:04Z</time>
      </trkpt>
      <trkpt lat="44.35322" lon="5.61936">
        <ele>865.4</ele>
        <time>2023-04-06T10:14:06Z</time>
      </trkpt>
      <trkpt lat="44.3532" lon="5.61937">
        <ele>865.7</ele>
        <time>2023-04-06T10:14:07Z</time>
      </trkpt>
      <trkpt lat="44.35317" lon="5.6194">
        <ele>866.2</ele>
        <time>2023-04-06T10:14:08Z</time>
      </trkpt>
      <trkpt lat="44.35316" lon="5.61941">
        <ele>866.3</ele>
        <time>2023-04-06T10:14:09Z</time>
      </trkpt>
      <trkpt lat="44.35314" lon="5.61942">
        <ele>866.6</ele>
        <time>2023-04-06T10:14:10Z</time>
      </trkpt>
      <trkpt lat="44.3531" lon="5.61944">
        <ele>867.2</ele>
        <time>2023-04-06T10:14:12Z</time>
      </trkpt>
      <trkpt lat="44.35308" lon="5.61946">
        <ele>867.6</ele>
        <time>2023-04-06T10:14:13Z</time>
      </trkpt>
      <trkpt lat="44.35305" lon="5.61947">
        <ele>868</ele>
        <time>2023-04-06T10:14:14Z</time>
      </trkpt>
      <trkpt lat="44.35304" lon="5.61948">
        <ele>868.1</ele>
        <time>2023-04-06T10:14:15Z</time>
      </trkpt>
      <trkpt lat="44.35301" lon="5.61949">
        <ele>868.4</ele>
        <time>2023-04-06T10:14:16Z</time>
      </trkpt>
      <trkpt lat="44.353" lon="5.61949">
        <ele>868.6</ele>
        <time>2023-04-06T10:14:17Z</time>
      </trkpt>
      <trkpt lat="44.35297" lon="5.6195">
        <ele>868.9</ele>
        <time>2023-04-06T10:14:18Z</time>
      </trkpt>
      <trkpt lat="44.35297" lon="5.61951">
        <ele>869</ele>
        <time>2023-04-06T10:14:19Z</time>
      </trkpt>
      <trkpt lat="44.35295" lon="5.61952">
        <ele>869.2</ele>
        <time>2023-04-06T10:14:20Z</time>
      </trkpt>
      <trkpt lat="44.35293" lon="5.61952">
        <ele>869.4</ele>
        <time>2023-04-06T10:14:21Z</time>
      </trkpt>
      <trkpt lat="44.35292" lon="5.61953">
        <ele>869.6</ele>
        <time>2023-04-06T10:14:22Z</time>
      </trkpt>
      <trkpt lat="44.3529" lon="5.61953">
        <ele>869.8</ele>
        <time>2023-04-06T10:14:23Z</time>
      </trkpt>
      <trkpt lat="44.35289" lon="5.61954">
        <ele>870</ele>
        <time>2023-04-06T10:14:24Z</time>
      </trkpt>
      <trkpt lat="44.35287" lon="5.61955">
        <ele>870.2</ele>
        <time>2023-04-06T10:14:25Z</time>
      </trkpt>
      <trkpt lat="44.35284" lon="5.61956">
        <ele>870.6</ele>
        <time>2023-04-06T10:14:26Z</time>
      </trkpt>
      <trkpt lat="44.35283" lon="5.61957">
        <ele>870.7</ele>
        <time>2023-04-06T10:14:27Z</time>
      </trkpt>
      <trkpt lat="44.3528" lon="5.61959">
        <ele>871.1</ele>
        <time>2023-04-06T10:14:29Z</time>
      </trkpt>
      <trkpt lat="44.35277" lon="5.61961">
        <ele>871.4</ele>
        <time>2023-04-06T10:14:30Z</time>
      </trkpt>
      <trkpt lat="44.35277" lon="5.61961">
        <ele>871.5</ele>
        <time>2023-04-06T10:14:31Z</time>
      </trkpt>
      <trkpt lat="44.35274" lon="5.61962">
        <ele>871.8</ele>
        <time>2023-04-06T10:14:32Z</time>
      </trkpt>
      <trkpt lat="44.35273" lon="5.61963">
        <ele>871.9</ele>
        <time>2023-04-06T10:14:33Z</time>
      </trkpt>
      <trkpt lat="44.3527" lon="5.61964">
        <ele>872.2</ele>
        <time>2023-04-06T10:14:34Z</time>
      </trkpt>
      <trkpt lat="44.35269" lon="5.61965">
        <ele>872.3</ele>
        <time>2023-04-06T10:14:35Z</time>
      </trkpt>
      <trkpt lat="44.35268" lon="5.61967">
        <ele>872.5</ele>
        <time>2023-04-06T10:14:36Z</time>
      </trkpt>
      <trkpt lat="44.35267" lon="5.61968">
        <ele>872.6</ele>
        <time>2023-04-06T10:14:37Z</time>
      </trkpt>
      <trkpt lat="44.35266" lon="5.61969">
        <ele>872.7</ele>
        <time>2023-04-06T10:14:38Z</time>
      </trkpt>
      <trkpt lat="44.35264" lon="5.61972">
        <ele>873</ele>
        <time>2023-04-06T10:14:39Z</time>
      </trkpt>
      <trkpt lat="44.35263" lon="5.61973">
        <ele>873</ele>
        <time>2023-04-06T10:14:40Z</time>
      </trkpt>
      <trkpt lat="44.35262" lon="5.61974">
        <ele>873.2</ele>
        <time>2023-04-06T10:14:41Z</time>
      </trkpt>
      <trkpt lat="44.35261" lon="5.61975">
        <ele>873.3</ele>
        <time>2023-04-06T10:14:42Z</time>
      </trkpt>
      <trkpt lat="44.3526" lon="5.61977">
        <ele>873.4</ele>
        <time>2023-04-06T10:14:43Z</time>
      </trkpt>
      <trkpt lat="44.35258" lon="5.61978">
        <ele>873.5</ele>
        <time>2023-04-06T10:14:44Z</time>
      </trkpt>
      <trkpt lat="44.35256" lon="5.61981">
        <ele>873.7</ele>
        <time>2023-04-06T10:14:45Z</time>
      </trkpt>
      <trkpt lat="44.35255" lon="5.61981">
        <ele>873.8</ele>
        <time>2023-04-06T10:14:46Z</time>
      </trkpt>
      <trkpt lat="44.35253" lon="5.61984">
        <ele>874</ele>
        <time>2023-04-06T10:14:47Z</time>
      </trkpt>
      <trkpt lat="44.35252" lon="5.61985">
        <ele>874.1</ele>
        <time>2023-04-06T10:14:48Z</time>
      </trkpt>
      <trkpt lat="44.3525" lon="5.61987">
        <ele>874.3</ele>
        <time>2023-04-06T10:14:49Z</time>
      </trkpt>
      <trkpt lat="44.35249" lon="5.61988">
        <ele>874.4</ele>
        <time>2023-04-06T10:14:50Z</time>
      </trkpt>
      <trkpt lat="44.35247" lon="5.61991">
        <ele>874.6</ele>
        <time>2023-04-06T10:14:52Z</time>
      </trkpt>
      <trkpt lat="44.35245" lon="5.61993">
        <ele>874.8</ele>
        <time>2023-04-06T10:14:53Z</time>
      </trkpt>
      <trkpt lat="44.35244" lon="5.61994">
        <ele>874.9</ele>
        <time>2023-04-06T10:14:54Z</time>
      </trkpt>
      <trkpt lat="44.35241" lon="5.61997">
        <ele>875.2</ele>
        <time>2023-04-06T10:14:55Z</time>
      </trkpt>
      <trkpt lat="44.3524" lon="5.61998">
        <ele>875.3</ele>
        <time>2023-04-06T10:14:56Z</time>
      </trkpt>
      <trkpt lat="44.35239" lon="5.61999">
        <ele>875.5</ele>
        <time>2023-04-06T10:14:57Z</time>
      </trkpt>
      <trkpt lat="44.35238" lon="5.62001">
        <ele>875.6</ele>
        <time>2023-04-06T10:14:58Z</time>
      </trkpt>
      <trkpt lat="44.35236" lon="5.62002">
        <ele>875.8</ele>
        <time>2023-04-06T10:14:59Z</time>
      </trkpt>
      <trkpt lat="44.35235" lon="5.62003">
        <ele>876</ele>
        <time>2023-04-06T10:15:00Z</time>
      </trkpt>
      <trkpt lat="44.35232" lon="5.62006">
        <ele>876.4</ele>
        <time>2023-04-06T10:15:01Z</time>
      </trkpt>
      <trkpt lat="44.35231" lon="5.62007">
        <ele>876.5</ele>
        <time>2023-04-06T10:15:02Z</time>
      </trkpt>
      <trkpt lat="44.35229" lon="5.62009">
        <ele>876.9</ele>
        <time>2023-04-06T10:15:03Z</time>
      </trkpt>
      <trkpt lat="44.35228" lon="5.6201">
        <ele>877</ele>
        <time>2023-04-06T10:15:04Z</time>
      </trkpt>
      <trkpt lat="44.35225" lon="5.62011">
        <ele>877.4</ele>
        <time>2023-04-06T10:15:05Z</time>
      </trkpt>
      <trkpt lat="44.35224" lon="5.62012">
        <ele>877.6</ele>
        <time>2023-04-06T10:15:06Z</time>
      </trkpt>
      <trkpt lat="44.35221" lon="5.62013">
        <ele>878.1</ele>
        <time>2023-04-06T10:15:07Z</time>
      </trkpt>
      <trkpt lat="44.3522" lon="5.62014">
        <ele>878.3</ele>
        <time>2023-04-06T10:15:08Z</time>
      </trkpt>
      <trkpt lat="44.35218" lon="5.62014">
        <ele>878.6</ele>
        <time>2023-04-06T10:15:09Z</time>
      </trkpt>
      <trkpt lat="44.35217" lon="5.62015">
        <ele>879</ele>
        <time>2023-04-06T10:15:10Z</time>
      </trkpt>
      <trkpt lat="44.35215" lon="5.62016">
        <ele>879.3</ele>
        <time>2023-04-06T10:15:11Z</time>
      </trkpt>
      <trkpt lat="44.35213" lon="5.62016">
        <ele>879.7</ele>
        <time>2023-04-06T10:15:12Z</time>
      </trkpt>
      <trkpt lat="44.3521" lon="5.62016">
        <ele>880.3</ele>
        <time>2023-04-06T10:15:13Z</time>
      </trkpt>
      <trkpt lat="44.35209" lon="5.62016">
        <ele>880.4</ele>
        <time>2023-04-06T10:15:14Z</time>
      </trkpt>
      <trkpt lat="44.35208" lon="5.62016">
        <ele>880.8</ele>
        <time>2023-04-06T10:15:15Z</time>
      </trkpt>
      <trkpt lat="44.35206" lon="5.62016">
        <ele>881.2</ele>
        <time>2023-04-06T10:15:16Z</time>
      </trkpt>
      <trkpt lat="44.35203" lon="5.62016">
        <ele>881.7</ele>
        <time>2023-04-06T10:15:17Z</time>
      </trkpt>
      <trkpt lat="44.35202" lon="5.62016">
        <ele>881.9</ele>
        <time>2023-04-06T10:15:18Z</time>
      </trkpt>
      <trkpt lat="44.352" lon="5.62016">
        <ele>882.3</ele>
        <time>2023-04-06T10:15:19Z</time>
      </trkpt>
      <trkpt lat="44.35199" lon="5.62015">
        <ele>882.6</ele>
        <time>2023-04-06T10:15:20Z</time>
      </trkpt>
      <trkpt lat="44.35197" lon="5.62015">
        <ele>882.9</ele>
        <time>2023-04-06T10:15:21Z</time>
      </trkpt>
      <trkpt lat="44.35195" lon="5.62015">
        <ele>883.2</ele>
        <time>2023-04-06T10:15:22Z</time>
      </trkpt>
      <trkpt lat="44.35193" lon="5.62015">
        <ele>883.5</ele>
        <time>2023-04-06T10:15:23Z</time>
      </trkpt>
      <trkpt lat="44.35192" lon="5.62015">
        <ele>883.8</ele>
        <time>2023-04-06T10:15:24Z</time>
      </trkpt>
      <trkpt lat="44.3519" lon="5.62015">
        <ele>884.1</ele>
        <time>2023-04-06T10:15:25Z</time>
      </trkpt>
      <trkpt lat="44.35188" lon="5.62015">
        <ele>884.3</ele>
        <time>2023-04-06T10:15:26Z</time>
      </trkpt>
      <trkpt lat="44.35187" lon="5.62015">
        <ele>884.5</ele>
        <time>2023-04-06T10:15:27Z</time>
      </trkpt>
      <trkpt lat="44.35185" lon="5.62015">
        <ele>884.8</ele>
        <time>2023-04-06T10:15:28Z</time>
      </trkpt>
      <trkpt lat="44.35182" lon="5.62015">
        <ele>885.1</ele>
        <time>2023-04-06T10:15:29Z</time>
      </trkpt>
      <trkpt lat="44.35181" lon="5.62015">
        <ele>885.3</ele>
        <time>2023-04-06T10:15:30Z</time>
      </trkpt>
      <trkpt lat="44.35178" lon="5.62015">
        <ele>885.7</ele>
        <time>2023-04-06T10:15:31Z</time>
      </trkpt>
      <trkpt lat="44.35177" lon="5.62015">
        <ele>885.8</ele>
        <time>2023-04-06T10:15:32Z</time>
      </trkpt>
      <trkpt lat="44.35175" lon="5.62015">
        <ele>886.1</ele>
        <time>2023-04-06T10:15:33Z</time>
      </trkpt>
      <trkpt lat="44.35174" lon="5.62015">
        <ele>886.3</ele>
        <time>2023-04-06T10:15:34Z</time>
      </trkpt>
      <trkpt lat="44.35172" lon="5.62015">
        <ele>886.5</ele>
        <time>2023-04-06T10:15:35Z</time>
      </trkpt>
      <trkpt lat="44.3517" lon="5.62015">
        <ele>886.7</ele>
        <time>2023-04-06T10:15:36Z</time>
      </trkpt>
      <trkpt lat="44.35168" lon="5.62014">
        <ele>887.1</ele>
        <time>2023-04-06T10:15:37Z</time>
      </trkpt>
      <trkpt lat="44.35167" lon="5.62014">
        <ele>887.2</ele>
        <time>2023-04-06T10:15:38Z</time>
      </trkpt>
      <trkpt lat="44.35166" lon="5.62014">
        <ele>887.3</ele>
        <time>2023-04-06T10:15:39Z</time>
      </trkpt>
      <trkpt lat="44.35164" lon="5.62013">
        <ele>887.6</ele>
        <time>2023-04-06T10:15:40Z</time>
      </trkpt>
      <trkpt lat="44.35163" lon="5.62013">
        <ele>887.8</ele>
        <time>2023-04-06T10:15:41Z</time>
      </trkpt>
      <trkpt lat="44.35161" lon="5.62012">
        <ele>888.1</ele>
        <time>2023-04-06T10:15:42Z</time>
      </trkpt>
      <trkpt lat="44.3516" lon="5.62011">
        <ele>888.3</ele>
        <time>2023-04-06T10:15:43Z</time>
      </trkpt>
      <trkpt lat="44.35159" lon="5.6201">
        <ele>888.5</ele>
        <time>2023-04-06T10:15:44Z</time>
      </trkpt>
      <trkpt lat="44.35157" lon="5.62009">
        <ele>888.7</ele>
        <time>2023-04-06T10:15:45Z</time>
      </trkpt>
      <trkpt lat="44.35156" lon="5.62008">
        <ele>889</ele>
        <time>2023-04-06T10:15:46Z</time>
      </trkpt>
      <trkpt lat="44.35155" lon="5.62006">
        <ele>889.2</ele>
        <time>2023-04-06T10:15:47Z</time>
      </trkpt>
      <trkpt lat="44.35154" lon="5.62005">
        <ele>889.4</ele>
        <time>2023-04-06T10:15:48Z</time>
      </trkpt>
      <trkpt lat="44.35153" lon="5.62004">
        <ele>889.6</ele>
        <time>2023-04-06T10:15:49Z</time>
      </trkpt>
      <trkpt lat="44.35152" lon="5.62002">
        <ele>889.9</ele>
        <time>2023-04-06T10:15:50Z</time>
      </trkpt>
      <trkpt lat="44.3515" lon="5.62001">
        <ele>890.1</ele>
        <time>2023-04-06T10:15:51Z</time>
      </trkpt>
      <trkpt lat="44.35149" lon="5.62">
        <ele>890.3</ele>
        <time>2023-04-06T10:15:52Z</time>
      </trkpt>
      <trkpt lat="44.35147" lon="5.62">
        <ele>890.6</ele>
        <time>2023-04-06T10:15:53Z</time>
      </trkpt>
      <trkpt lat="44.35146" lon="5.61999">
        <ele>890.8</ele>
        <time>2023-04-06T10:15:54Z</time>
      </trkpt>
      <trkpt lat="44.35144" lon="5.61999">
        <ele>891.1</ele>
        <time>2023-04-06T10:15:55Z</time>
      </trkpt>
      <trkpt lat="44.35142" lon="5.61999">
        <ele>891.3</ele>
        <time>2023-04-06T10:15:56Z</time>
      </trkpt>
      <trkpt lat="44.3514" lon="5.62">
        <ele>891.5</ele>
        <time>2023-04-06T10:15:57Z</time>
      </trkpt>
      <trkpt lat="44.35139" lon="5.62001">
        <ele>891.7</ele>
        <time>2023-04-06T10:15:58Z</time>
      </trkpt>
      <trkpt lat="44.35137" lon="5.62001">
        <ele>891.8</ele>
        <time>2023-04-06T10:15:59Z</time>
      </trkpt>
      <trkpt lat="44.35135" lon="5.62002">
        <ele>892.1</ele>
        <time>2023-04-06T10:16:00Z</time>
      </trkpt>
      <trkpt lat="44.35134" lon="5.62002">
        <ele>892.2</ele>
        <time>2023-04-06T10:16:01Z</time>
      </trkpt>
      <trkpt lat="44.35134" lon="5.62002">
        <ele>892.3</ele>
        <time>2023-04-06T10:16:02Z</time>
      </trkpt>
      <trkpt lat="44.35132" lon="5.62002">
        <ele>892.4</ele>
        <time>2023-04-06T10:16:03Z</time>
      </trkpt>
      <trkpt lat="44.35131" lon="5.62002">
        <ele>892.6</ele>
        <time>2023-04-06T10:16:04Z</time>
      </trkpt>
      <trkpt lat="44.35129" lon="5.62002">
        <ele>892.7</ele>
        <time>2023-04-06T10:16:05Z</time>
      </trkpt>
      <trkpt lat="44.35128" lon="5.62001">
        <ele>892.8</ele>
        <time>2023-04-06T10:16:06Z</time>
      </trkpt>
      <trkpt lat="44.35127" lon="5.62001">
        <ele>893</ele>
        <time>2023-04-06T10:16:07Z</time>
      </trkpt>
      <trkpt lat="44.35126" lon="5.62001">
        <ele>893.1</ele>
        <time>2023-04-06T10:16:08Z</time>
      </trkpt>
      <trkpt lat="44.35125" lon="5.62002">
        <ele>893.2</ele>
        <time>2023-04-06T10:16:09Z</time>
      </trkpt>
      <trkpt lat="44.35123" lon="5.62002">
        <ele>893.5</ele>
        <time>2023-04-06T10:16:10Z</time>
      </trkpt>
      <trkpt lat="44.35122" lon="5.62002">
        <ele>893.5</ele>
        <time>2023-04-06T10:16:11Z</time>
      </trkpt>
      <trkpt lat="44.35121" lon="5.62002">
        <ele>893.6</ele>
        <time>2023-04-06T10:16:12Z</time>
      </trkpt>
      <trkpt lat="44.35116" lon="5.62002">
        <ele>894.2</ele>
        <time>2023-04-06T10:16:14Z</time>
      </trkpt>
      <trkpt lat="44.35115" lon="5.62002">
        <ele>894.3</ele>
        <time>2023-04-06T10:16:15Z</time>
      </trkpt>
      <trkpt lat="44.35114" lon="5.62002">
        <ele>894.4</ele>
        <time>2023-04-06T10:16:16Z</time>
      </trkpt>
      <trkpt lat="44.35112" lon="5.62003">
        <ele>894.6</ele>
        <time>2023-04-06T10:16:17Z</time>
      </trkpt>
      <trkpt lat="44.3511" lon="5.62003">
        <ele>894.8</ele>
        <time>2023-04-06T10:16:18Z</time>
      </trkpt>
      <trkpt lat="44.35107" lon="5.62005">
        <ele>895.1</ele>
        <time>2023-04-06T10:16:20Z</time>
      </trkpt>
      <trkpt lat="44.35106" lon="5.62005">
        <ele>895.3</ele>
        <time>2023-04-06T10:16:21Z</time>
      </trkpt>
      <trkpt lat="44.35104" lon="5.62006">
        <ele>895.5</ele>
        <time>2023-04-06T10:16:22Z</time>
      </trkpt>
      <trkpt lat="44.35101" lon="5.62007">
        <ele>895.9</ele>
        <time>2023-04-06T10:16:23Z</time>
      </trkpt>
      <trkpt lat="44.351" lon="5.62008">
        <ele>896</ele>
        <time>2023-04-06T10:16:24Z</time>
      </trkpt>
      <trkpt lat="44.35097" lon="5.62009">
        <ele>896.5</ele>
        <time>2023-04-06T10:16:26Z</time>
      </trkpt>
      <trkpt lat="44.35095" lon="5.6201">
        <ele>896.8</ele>
        <time>2023-04-06T10:16:27Z</time>
      </trkpt>
      <trkpt lat="44.35093" lon="5.6201">
        <ele>897</ele>
        <time>2023-04-06T10:16:28Z</time>
      </trkpt>
      <trkpt lat="44.35092" lon="5.62011">
        <ele>897.3</ele>
        <time>2023-04-06T10:16:29Z</time>
      </trkpt>
      <trkpt lat="44.3509" lon="5.62012">
        <ele>897.6</ele>
        <time>2023-04-06T10:16:30Z</time>
      </trkpt>
      <trkpt lat="44.35087" lon="5.62015">
        <ele>898.2</ele>
        <time>2023-04-06T10:16:32Z</time>
      </trkpt>
      <trkpt lat="44.35084" lon="5.62016">
        <ele>898.6</ele>
        <time>2023-04-06T10:16:33Z</time>
      </trkpt>
      <trkpt lat="44.35083" lon="5.62017">
        <ele>898.8</ele>
        <time>2023-04-06T10:16:34Z</time>
      </trkpt>
      <trkpt lat="44.3508" lon="5.62018">
        <ele>899.3</ele>
        <time>2023-04-06T10:16:35Z</time>
      </trkpt>
      <trkpt lat="44.35079" lon="5.62018">
        <ele>899.5</ele>
        <time>2023-04-06T10:16:36Z</time>
      </trkpt>
      <trkpt lat="44.35077" lon="5.6202">
        <ele>899.8</ele>
        <time>2023-04-06T10:16:37Z</time>
      </trkpt>
      <trkpt lat="44.35076" lon="5.62021">
        <ele>900</ele>
        <time>2023-04-06T10:16:38Z</time>
      </trkpt>
      <trkpt lat="44.35075" lon="5.62022">
        <ele>900.2</ele>
        <time>2023-04-06T10:16:39Z</time>
      </trkpt>
      <trkpt lat="44.35073" lon="5.62023">
        <ele>900.5</ele>
        <time>2023-04-06T10:16:40Z</time>
      </trkpt>
      <trkpt lat="44.35071" lon="5.62025">
        <ele>900.9</ele>
        <time>2023-04-06T10:16:41Z</time>
      </trkpt>
      <trkpt lat="44.3507" lon="5.62025">
        <ele>901.1</ele>
        <time>2023-04-06T10:16:42Z</time>
      </trkpt>
      <trkpt lat="44.35069" lon="5.62027">
        <ele>901.3</ele>
        <time>2023-04-06T10:16:43Z</time>
      </trkpt>
      <trkpt lat="44.35067" lon="5.62028">
        <ele>901.6</ele>
        <time>2023-04-06T10:16:44Z</time>
      </trkpt>
      <trkpt lat="44.35066" lon="5.62029">
        <ele>901.9</ele>
        <time>2023-04-06T10:16:45Z</time>
      </trkpt>
      <trkpt lat="44.35064" lon="5.6203">
        <ele>902.2</ele>
        <time>2023-04-06T10:16:46Z</time>
      </trkpt>
      <trkpt lat="44.35061" lon="5.6203">
        <ele>902.7</ele>
        <time>2023-04-06T10:16:48Z</time>
      </trkpt>
      <trkpt lat="44.35059" lon="5.62031">
        <ele>902.9</ele>
        <time>2023-04-06T10:16:49Z</time>
      </trkpt>
      <trkpt lat="44.35058" lon="5.62032">
        <ele>903.2</ele>
        <time>2023-04-06T10:16:50Z</time>
      </trkpt>
      <trkpt lat="44.35057" lon="5.62033">
        <ele>903.4</ele>
        <time>2023-04-06T10:16:51Z</time>
      </trkpt>
      <trkpt lat="44.35056" lon="5.62034">
        <ele>903.6</ele>
        <time>2023-04-06T10:16:52Z</time>
      </trkpt>
      <trkpt lat="44.35054" lon="5.62035">
        <ele>903.8</ele>
        <time>2023-04-06T10:16:53Z</time>
      </trkpt>
      <trkpt lat="44.35052" lon="5.62036">
        <ele>904.1</ele>
        <time>2023-04-06T10:16:54Z</time>
      </trkpt>
      <trkpt lat="44.35051" lon="5.62037">
        <ele>904.4</ele>
        <time>2023-04-06T10:16:55Z</time>
      </trkpt>
      <trkpt lat="44.3505" lon="5.62039">
        <ele>904.6</ele>
        <time>2023-04-06T10:16:56Z</time>
      </trkpt>
      <trkpt lat="44.35048" lon="5.62041">
        <ele>904.9</ele>
        <time>2023-04-06T10:16:57Z</time>
      </trkpt>
      <trkpt lat="44.35045" lon="5.62044">
        <ele>905.5</ele>
        <time>2023-04-06T10:16:59Z</time>
      </trkpt>
      <trkpt lat="44.35043" lon="5.62045">
        <ele>905.7</ele>
        <time>2023-04-06T10:17:00Z</time>
      </trkpt>
      <trkpt lat="44.35042" lon="5.62047">
        <ele>906</ele>
        <time>2023-04-06T10:17:01Z</time>
      </trkpt>
      <trkpt lat="44.3504" lon="5.62048">
        <ele>906.3</ele>
        <time>2023-04-06T10:17:02Z</time>
      </trkpt>
      <trkpt lat="44.35039" lon="5.62049">
        <ele>906.5</ele>
        <time>2023-04-06T10:17:03Z</time>
      </trkpt>
      <trkpt lat="44.35037" lon="5.62051">
        <ele>906.9</ele>
        <time>2023-04-06T10:17:05Z</time>
      </trkpt>
      <trkpt lat="44.35036" lon="5.62053">
        <ele>907.1</ele>
        <time>2023-04-06T10:17:06Z</time>
      </trkpt>
      <trkpt lat="44.35035" lon="5.62054">
        <ele>907.3</ele>
        <time>2023-04-06T10:17:07Z</time>
      </trkpt>
      <trkpt lat="44.35033" lon="5.62055">
        <ele>907.5</ele>
        <time>2023-04-06T10:17:08Z</time>
      </trkpt>
      <trkpt lat="44.35032" lon="5.62056">
        <ele>907.8</ele>
        <time>2023-04-06T10:17:09Z</time>
      </trkpt>
      <trkpt lat="44.35028" lon="5.62057">
        <ele>908.3</ele>
        <time>2023-04-06T10:17:11Z</time>
      </trkpt>
      <trkpt lat="44.35027" lon="5.62057">
        <ele>908.6</ele>
        <time>2023-04-06T10:17:12Z</time>
      </trkpt>
      <trkpt lat="44.35025" lon="5.62059">
        <ele>908.9</ele>
        <time>2023-04-06T10:17:13Z</time>
      </trkpt>
      <trkpt lat="44.35024" lon="5.6206">
        <ele>909.1</ele>
        <time>2023-04-06T10:17:14Z</time>
      </trkpt>
      <trkpt lat="44.35023" lon="5.62063">
        <ele>909.4</ele>
        <time>2023-04-06T10:17:15Z</time>
      </trkpt>
      <trkpt lat="44.35022" lon="5.62064">
        <ele>909.6</ele>
        <time>2023-04-06T10:17:16Z</time>
      </trkpt>
      <trkpt lat="44.35022" lon="5.62065">
        <ele>909.7</ele>
        <time>2023-04-06T10:17:17Z</time>
      </trkpt>
      <trkpt lat="44.35021" lon="5.62067">
        <ele>910</ele>
        <time>2023-04-06T10:17:18Z</time>
      </trkpt>
      <trkpt lat="44.35019" lon="5.62068">
        <ele>910.3</ele>
        <time>2023-04-06T10:17:19Z</time>
      </trkpt>
      <trkpt lat="44.35017" lon="5.62068">
        <ele>910.6</ele>
        <time>2023-04-06T10:17:20Z</time>
      </trkpt>
      <trkpt lat="44.35014" lon="5.62069">
        <ele>911.1</ele>
        <time>2023-04-06T10:17:22Z</time>
      </trkpt>
      <trkpt lat="44.35012" lon="5.6207">
        <ele>911.4</ele>
        <time>2023-04-06T10:17:23Z</time>
      </trkpt>
      <trkpt lat="44.3501" lon="5.62072">
        <ele>911.9</ele>
        <time>2023-04-06T10:17:24Z</time>
      </trkpt>
      <trkpt lat="44.35009" lon="5.62072">
        <ele>912</ele>
        <time>2023-04-06T10:17:25Z</time>
      </trkpt>
      <trkpt lat="44.35008" lon="5.62074">
        <ele>912.3</ele>
        <time>2023-04-06T10:17:26Z</time>
      </trkpt>
      <trkpt lat="44.35007" lon="5.62075">
        <ele>912.6</ele>
        <time>2023-04-06T10:17:27Z</time>
      </trkpt>
      <trkpt lat="44.35005" lon="5.62077">
        <ele>912.9</ele>
        <time>2023-04-06T10:17:28Z</time>
      </trkpt>
      <trkpt lat="44.35004" lon="5.62079">
        <ele>913.2</ele>
        <time>2023-04-06T10:17:29Z</time>
      </trkpt>
      <trkpt lat="44.35002" lon="5.62081">
        <ele>913.7</ele>
        <time>2023-04-06T10:17:30Z</time>
      </trkpt>
      <trkpt lat="44.35001" lon="5.62082">
        <ele>913.8</ele>
        <time>2023-04-06T10:17:31Z</time>
      </trkpt>
      <trkpt lat="44.34998" lon="5.62085">
        <ele>914.5</ele>
        <time>2023-04-06T10:17:33Z</time>
      </trkpt>
      <trkpt lat="44.34997" lon="5.62085">
        <ele>914.6</ele>
        <time>2023-04-06T10:17:34Z</time>
      </trkpt>
      <trkpt lat="44.34996" lon="5.62086">
        <ele>914.8</ele>
        <time>2023-04-06T10:17:35Z</time>
      </trkpt>
      <trkpt lat="44.34995" lon="5.62086">
        <ele>914.9</ele>
        <time>2023-04-06T10:17:36Z</time>
      </trkpt>
      <trkpt lat="44.34994" lon="5.62087">
        <ele>915.1</ele>
        <time>2023-04-06T10:17:37Z</time>
      </trkpt>
      <trkpt lat="44.34992" lon="5.62089">
        <ele>915.6</ele>
        <time>2023-04-06T10:17:39Z</time>
      </trkpt>
      <trkpt lat="44.34989" lon="5.62091">
        <ele>916</ele>
        <time>2023-04-06T10:17:40Z</time>
      </trkpt>
      <trkpt lat="44.34989" lon="5.62091">
        <ele>916.2</ele>
        <time>2023-04-06T10:17:41Z</time>
      </trkpt>
      <trkpt lat="44.34987" lon="5.62093">
        <ele>916.4</ele>
        <time>2023-04-06T10:17:42Z</time>
      </trkpt>
      <trkpt lat="44.34986" lon="5.62094">
        <ele>916.7</ele>
        <time>2023-04-06T10:17:43Z</time>
      </trkpt>
      <trkpt lat="44.34985" lon="5.62095">
        <ele>916.9</ele>
        <time>2023-04-06T10:17:44Z</time>
      </trkpt>
      <trkpt lat="44.34983" lon="5.62096">
        <ele>917.1</ele>
        <time>2023-04-06T10:17:45Z</time>
      </trkpt>
      <trkpt lat="44.34982" lon="5.62097">
        <ele>917.3</ele>
        <time>2023-04-06T10:17:46Z</time>
      </trkpt>
      <trkpt lat="44.34981" lon="5.62098">
        <ele>917.6</ele>
        <time>2023-04-06T10:17:47Z</time>
      </trkpt>
      <trkpt lat="44.34979" lon="5.62099">
        <ele>917.8</ele>
        <time>2023-04-06T10:17:48Z</time>
      </trkpt>
      <trkpt lat="44.34977" lon="5.621">
        <ele>918.1</ele>
        <time>2023-04-06T10:17:49Z</time>
      </trkpt>
      <trkpt lat="44.34975" lon="5.62101">
        <ele>918.5</ele>
        <time>2023-04-06T10:17:50Z</time>
      </trkpt>
      <trkpt lat="44.34974" lon="5.62102">
        <ele>918.6</ele>
        <time>2023-04-06T10:17:51Z</time>
      </trkpt>
      <trkpt lat="44.34971" lon="5.62103">
        <ele>919</ele>
        <time>2023-04-06T10:17:52Z</time>
      </trkpt>
      <trkpt lat="44.3497" lon="5.62104">
        <ele>919.1</ele>
        <time>2023-04-06T10:17:53Z</time>
      </trkpt>
      <trkpt lat="44.34967" lon="5.62106">
        <ele>919.7</ele>
        <time>2023-04-06T10:17:55Z</time>
      </trkpt>
      <trkpt lat="44.34964" lon="5.62107">
        <ele>920.1</ele>
        <time>2023-04-06T10:17:56Z</time>
      </trkpt>
      <trkpt lat="44.34963" lon="5.62108">
        <ele>920.2</ele>
        <time>2023-04-06T10:17:57Z</time>
      </trkpt>
      <trkpt lat="44.3496" lon="5.62109">
        <ele>920.7</ele>
        <time>2023-04-06T10:17:58Z</time>
      </trkpt>
      <trkpt lat="44.34959" lon="5.62109">
        <ele>920.8</ele>
        <time>2023-04-06T10:17:59Z</time>
      </trkpt>
      <trkpt lat="44.34957" lon="5.62111">
        <ele>921.3</ele>
        <time>2023-04-06T10:18:00Z</time>
      </trkpt>
      <trkpt lat="44.34956" lon="5.62112">
        <ele>921.5</ele>
        <time>2023-04-06T10:18:01Z</time>
      </trkpt>
      <trkpt lat="44.34953" lon="5.62113">
        <ele>922</ele>
        <time>2023-04-06T10:18:02Z</time>
      </trkpt>
      <trkpt lat="44.34953" lon="5.62114">
        <ele>922.1</ele>
        <time>2023-04-06T10:18:03Z</time>
      </trkpt>
      <trkpt lat="44.34951" lon="5.62115">
        <ele>922.4</ele>
        <time>2023-04-06T10:18:04Z</time>
      </trkpt>
      <trkpt lat="44.34948" lon="5.62116">
        <ele>923</ele>
        <time>2023-04-06T10:18:06Z</time>
      </trkpt>
      <trkpt lat="44.34946" lon="5.62117">
        <ele>923.3</ele>
        <time>2023-04-06T10:18:07Z</time>
      </trkpt>
      <trkpt lat="44.34945" lon="5.62118">
        <ele>923.6</ele>
        <time>2023-04-06T10:18:08Z</time>
      </trkpt>
      <trkpt lat="44.34943" lon="5.62118">
        <ele>923.8</ele>
        <time>2023-04-06T10:18:09Z</time>
      </trkpt>
      <trkpt lat="44.34942" lon="5.62119">
        <ele>924</ele>
        <time>2023-04-06T10:18:10Z</time>
      </trkpt>
      <trkpt lat="44.34941" lon="5.62119">
        <ele>924.2</ele>
        <time>2023-04-06T10:18:11Z</time>
      </trkpt>
      <trkpt lat="44.3494" lon="5.62119">
        <ele>924.4</ele>
        <time>2023-04-06T10:18:12Z</time>
      </trkpt>
      <trkpt lat="44.34939" lon="5.6212">
        <ele>924.6</ele>
        <time>2023-04-06T10:18:13Z</time>
      </trkpt>
      <trkpt lat="44.34939" lon="5.62121">
        <ele>924.8</ele>
        <time>2023-04-06T10:18:14Z</time>
      </trkpt>
      <trkpt lat="44.34937" lon="5.62122">
        <ele>925</ele>
        <time>2023-04-06T10:18:15Z</time>
      </trkpt>
      <trkpt lat="44.34935" lon="5.62124">
        <ele>925.6</ele>
        <time>2023-04-06T10:18:17Z</time>
      </trkpt>
      <trkpt lat="44.34934" lon="5.62124">
        <ele>925.8</ele>
        <time>2023-04-06T10:18:18Z</time>
      </trkpt>
      <trkpt lat="44.34933" lon="5.62125">
        <ele>925.9</ele>
        <time>2023-04-06T10:18:19Z</time>
      </trkpt>
      <trkpt lat="44.34932" lon="5.62126">
        <ele>926.1</ele>
        <time>2023-04-06T10:18:20Z</time>
      </trkpt>
      <trkpt lat="44.34931" lon="5.62127">
        <ele>926.4</ele>
        <time>2023-04-06T10:18:21Z</time>
      </trkpt>
      <trkpt lat="44.3493" lon="5.62128">
        <ele>926.6</ele>
        <time>2023-04-06T10:18:22Z</time>
      </trkpt>
      <trkpt lat="44.34927" lon="5.62131">
        <ele>927.2</ele>
        <time>2023-04-06T10:18:23Z</time>
      </trkpt>
      <trkpt lat="44.34926" lon="5.62132">
        <ele>927.4</ele>
        <time>2023-04-06T10:18:24Z</time>
      </trkpt>
      <trkpt lat="44.34924" lon="5.62135">
        <ele>927.9</ele>
        <time>2023-04-06T10:18:25Z</time>
      </trkpt>
      <trkpt lat="44.34924" lon="5.62136">
        <ele>928</ele>
        <time>2023-04-06T10:18:26Z</time>
      </trkpt>
      <trkpt lat="44.34923" lon="5.62138">
        <ele>928.3</ele>
        <time>2023-04-06T10:18:27Z</time>
      </trkpt>
      <trkpt lat="44.34921" lon="5.62139">
        <ele>928.6</ele>
        <time>2023-04-06T10:18:28Z</time>
      </trkpt>
      <trkpt lat="44.34919" lon="5.62141">
        <ele>929</ele>
        <time>2023-04-06T10:18:29Z</time>
      </trkpt>
      <trkpt lat="44.34918" lon="5.62142">
        <ele>929.2</ele>
        <time>2023-04-06T10:18:30Z</time>
      </trkpt>
      <trkpt lat="44.34916" lon="5.62144">
        <ele>929.5</ele>
        <time>2023-04-06T10:18:31Z</time>
      </trkpt>
      <trkpt lat="44.34913" lon="5.62146">
        <ele>930</ele>
        <time>2023-04-06T10:18:33Z</time>
      </trkpt>
      <trkpt lat="44.34912" lon="5.62147">
        <ele>930.2</ele>
        <time>2023-04-06T10:18:34Z</time>
      </trkpt>
      <trkpt lat="44.34909" lon="5.6215">
        <ele>930.6</ele>
        <time>2023-04-06T10:18:35Z</time>
      </trkpt>
      <trkpt lat="44.34909" lon="5.62151">
        <ele>930.8</ele>
        <time>2023-04-06T10:18:36Z</time>
      </trkpt>
      <trkpt lat="44.34906" lon="5.62154">
        <ele>931.2</ele>
        <time>2023-04-06T10:18:37Z</time>
      </trkpt>
      <trkpt lat="44.34905" lon="5.62155">
        <ele>931.3</ele>
        <time>2023-04-06T10:18:38Z</time>
      </trkpt>
      <trkpt lat="44.34903" lon="5.62157">
        <ele>931.6</ele>
        <time>2023-04-06T10:18:39Z</time>
      </trkpt>
      <trkpt lat="44.34903" lon="5.62158">
        <ele>931.8</ele>
        <time>2023-04-06T10:18:40Z</time>
      </trkpt>
      <trkpt lat="44.34901" lon="5.62159">
        <ele>932</ele>
        <time>2023-04-06T10:18:41Z</time>
      </trkpt>
      <trkpt lat="44.349" lon="5.62161">
        <ele>932.2</ele>
        <time>2023-04-06T10:18:42Z</time>
      </trkpt>
      <trkpt lat="44.34898" lon="5.62164">
        <ele>932.6</ele>
        <time>2023-04-06T10:18:44Z</time>
      </trkpt>
      <trkpt lat="44.34896" lon="5.62165">
        <ele>932.8</ele>
        <time>2023-04-06T10:18:45Z</time>
      </trkpt>
      <trkpt lat="44.34895" lon="5.62166">
        <ele>933.1</ele>
        <time>2023-04-06T10:18:46Z</time>
      </trkpt>
      <trkpt lat="44.34893" lon="5.62168">
        <ele>933.4</ele>
        <time>2023-04-06T10:18:47Z</time>
      </trkpt>
      <trkpt lat="44.34892" lon="5.62169">
        <ele>933.6</ele>
        <time>2023-04-06T10:18:48Z</time>
      </trkpt>
      <trkpt lat="44.34889" lon="5.62172">
        <ele>934</ele>
        <time>2023-04-06T10:18:49Z</time>
      </trkpt>
      <trkpt lat="44.34889" lon="5.62173">
        <ele>934.2</ele>
        <time>2023-04-06T10:18:50Z</time>
      </trkpt>
      <trkpt lat="44.34886" lon="5.62175">
        <ele>934.6</ele>
        <time>2023-04-06T10:18:51Z</time>
      </trkpt>
      <trkpt lat="44.34886" lon="5.62176">
        <ele>934.7</ele>
        <time>2023-04-06T10:18:52Z</time>
      </trkpt>
      <trkpt lat="44.34884" lon="5.62178">
        <ele>935</ele>
        <time>2023-04-06T10:18:53Z</time>
      </trkpt>
      <trkpt lat="44.34881" lon="5.62181">
        <ele>935.6</ele>
        <time>2023-04-06T10:18:55Z</time>
      </trkpt>
      <trkpt lat="44.3488" lon="5.62183">
        <ele>935.9</ele>
        <time>2023-04-06T10:18:56Z</time>
      </trkpt>
      <trkpt lat="44.34878" lon="5.62186">
        <ele>936.3</ele>
        <time>2023-04-06T10:18:57Z</time>
      </trkpt>
      <trkpt lat="44.34877" lon="5.62187">
        <ele>936.5</ele>
        <time>2023-04-06T10:18:58Z</time>
      </trkpt>
      <trkpt lat="44.34875" lon="5.6219">
        <ele>936.9</ele>
        <time>2023-04-06T10:18:59Z</time>
      </trkpt>
      <trkpt lat="44.34875" lon="5.62191">
        <ele>937</ele>
        <time>2023-04-06T10:19:00Z</time>
      </trkpt>
      <trkpt lat="44.34873" lon="5.62194">
        <ele>937.4</ele>
        <time>2023-04-06T10:19:01Z</time>
      </trkpt>
      <trkpt lat="44.34872" lon="5.62195">
        <ele>937.6</ele>
        <time>2023-04-06T10:19:02Z</time>
      </trkpt>
      <trkpt lat="44.34871" lon="5.62196">
        <ele>937.8</ele>
        <time>2023-04-06T10:19:03Z</time>
      </trkpt>
      <trkpt lat="44.3487" lon="5.62197">
        <ele>938</ele>
        <time>2023-04-06T10:19:04Z</time>
      </trkpt>
      <trkpt lat="44.34868" lon="5.62201">
        <ele>938.5</ele>
        <time>2023-04-06T10:19:06Z</time>
      </trkpt>
      <trkpt lat="44.34867" lon="5.62203">
        <ele>938.8</ele>
        <time>2023-04-06T10:19:07Z</time>
      </trkpt>
      <trkpt lat="44.34866" lon="5.62204">
        <ele>939</ele>
        <time>2023-04-06T10:19:08Z</time>
      </trkpt>
      <trkpt lat="44.34864" lon="5.62206">
        <ele>939.3</ele>
        <time>2023-04-06T10:19:09Z</time>
      </trkpt>
      <trkpt lat="44.34861" lon="5.62208">
        <ele>939.9</ele>
        <time>2023-04-06T10:19:10Z</time>
      </trkpt>
      <trkpt lat="44.3486" lon="5.62209">
        <ele>940</ele>
        <time>2023-04-06T10:19:11Z</time>
      </trkpt>
      <trkpt lat="44.34858" lon="5.62211">
        <ele>940.5</ele>
        <time>2023-04-06T10:19:12Z</time>
      </trkpt>
      <trkpt lat="44.34857" lon="5.62212">
        <ele>940.7</ele>
        <time>2023-04-06T10:19:13Z</time>
      </trkpt>
      <trkpt lat="44.34856" lon="5.62213">
        <ele>941</ele>
        <time>2023-04-06T10:19:14Z</time>
      </trkpt>
      <trkpt lat="44.34855" lon="5.62214">
        <ele>941.2</ele>
        <time>2023-04-06T10:19:15Z</time>
      </trkpt>
      <trkpt lat="44.34853" lon="5.62217">
        <ele>941.6</ele>
        <time>2023-04-06T10:19:16Z</time>
      </trkpt>
      <trkpt lat="44.34853" lon="5.62217">
        <ele>941.8</ele>
        <time>2023-04-06T10:19:17Z</time>
      </trkpt>
      <trkpt lat="44.34852" lon="5.62218">
        <ele>941.9</ele>
        <time>2023-04-06T10:19:18Z</time>
      </trkpt>
      <trkpt lat="44.34851" lon="5.62219">
        <ele>942.2</ele>
        <time>2023-04-06T10:19:19Z</time>
      </trkpt>
      <trkpt lat="44.3485" lon="5.62221">
        <ele>942.5</ele>
        <time>2023-04-06T10:19:20Z</time>
      </trkpt>
      <trkpt lat="44.34848" lon="5.62223">
        <ele>942.8</ele>
        <time>2023-04-06T10:19:21Z</time>
      </trkpt>
      <trkpt lat="44.34847" lon="5.62225">
        <ele>943.1</ele>
        <time>2023-04-06T10:19:22Z</time>
      </trkpt>
      <trkpt lat="44.34846" lon="5.62226">
        <ele>943.4</ele>
        <time>2023-04-06T10:19:23Z</time>
      </trkpt>
      <trkpt lat="44.34845" lon="5.62228">
        <ele>943.7</ele>
        <time>2023-04-06T10:19:24Z</time>
      </trkpt>
      <trkpt lat="44.34844" lon="5.6223">
        <ele>944</ele>
        <time>2023-04-06T10:19:25Z</time>
      </trkpt>
      <trkpt lat="44.34844" lon="5.62232">
        <ele>944.3</ele>
        <time>2023-04-06T10:19:26Z</time>
      </trkpt>
      <trkpt lat="44.34843" lon="5.62234">
        <ele>944.6</ele>
        <time>2023-04-06T10:19:27Z</time>
      </trkpt>
      <trkpt lat="44.34842" lon="5.62236">
        <ele>944.8</ele>
        <time>2023-04-06T10:19:28Z</time>
      </trkpt>
      <trkpt lat="44.34841" lon="5.62238">
        <ele>945.1</ele>
        <time>2023-04-06T10:19:29Z</time>
      </trkpt>
      <trkpt lat="44.3484" lon="5.62239">
        <ele>945.3</ele>
        <time>2023-04-06T10:19:30Z</time>
      </trkpt>
      <trkpt lat="44.34839" lon="5.6224">
        <ele>945.6</ele>
        <time>2023-04-06T10:19:31Z</time>
      </trkpt>
      <trkpt lat="44.34837" lon="5.62242">
        <ele>945.8</ele>
        <time>2023-04-06T10:19:32Z</time>
      </trkpt>
      <trkpt lat="44.34836" lon="5.62244">
        <ele>946.1</ele>
        <time>2023-04-06T10:19:33Z</time>
      </trkpt>
      <trkpt lat="44.34835" lon="5.62245">
        <ele>946.4</ele>
        <time>2023-04-06T10:19:34Z</time>
      </trkpt>
      <trkpt lat="44.34834" lon="5.62247">
        <ele>946.6</ele>
        <time>2023-04-06T10:19:35Z</time>
      </trkpt>
      <trkpt lat="44.34834" lon="5.62249">
        <ele>946.8</ele>
        <time>2023-04-06T10:19:36Z</time>
      </trkpt>
      <trkpt lat="44.34832" lon="5.62251">
        <ele>947.2</ele>
        <time>2023-04-06T10:19:37Z</time>
      </trkpt>
      <trkpt lat="44.34832" lon="5.62253">
        <ele>947.4</ele>
        <time>2023-04-06T10:19:38Z</time>
      </trkpt>
      <trkpt lat="44.34832" lon="5.62254">
        <ele>947.5</ele>
        <time>2023-04-06T10:19:39Z</time>
      </trkpt>
      <trkpt lat="44.34831" lon="5.62256">
        <ele>947.8</ele>
        <time>2023-04-06T10:19:40Z</time>
      </trkpt>
      <trkpt lat="44.34831" lon="5.62258">
        <ele>948.1</ele>
        <time>2023-04-06T10:19:41Z</time>
      </trkpt>
      <trkpt lat="44.3483" lon="5.6226">
        <ele>948.4</ele>
        <time>2023-04-06T10:19:42Z</time>
      </trkpt>
      <trkpt lat="44.34829" lon="5.62263">
        <ele>948.7</ele>
        <time>2023-04-06T10:19:43Z</time>
      </trkpt>
      <trkpt lat="44.34828" lon="5.62266">
        <ele>949.2</ele>
        <time>2023-04-06T10:19:44Z</time>
      </trkpt>
      <trkpt lat="44.34827" lon="5.62268">
        <ele>949.3</ele>
        <time>2023-04-06T10:19:45Z</time>
      </trkpt>
      <trkpt lat="44.34826" lon="5.6227">
        <ele>949.7</ele>
        <time>2023-04-06T10:19:46Z</time>
      </trkpt>
      <trkpt lat="44.34826" lon="5.62272">
        <ele>949.9</ele>
        <time>2023-04-06T10:19:47Z</time>
      </trkpt>
      <trkpt lat="44.34825" lon="5.62274">
        <ele>950.3</ele>
        <time>2023-04-06T10:19:48Z</time>
      </trkpt>
      <trkpt lat="44.34824" lon="5.62276">
        <ele>950.5</ele>
        <time>2023-04-06T10:19:49Z</time>
      </trkpt>
      <trkpt lat="44.34823" lon="5.62278">
        <ele>950.8</ele>
        <time>2023-04-06T10:19:50Z</time>
      </trkpt>
      <trkpt lat="44.34821" lon="5.62279">
        <ele>951.1</ele>
        <time>2023-04-06T10:19:51Z</time>
      </trkpt>
      <trkpt lat="44.3482" lon="5.6228">
        <ele>951.4</ele>
        <time>2023-04-06T10:19:52Z</time>
      </trkpt>
      <trkpt lat="44.34819" lon="5.62282">
        <ele>951.6</ele>
        <time>2023-04-06T10:19:53Z</time>
      </trkpt>
      <trkpt lat="44.34818" lon="5.62284">
        <ele>951.9</ele>
        <time>2023-04-06T10:19:54Z</time>
      </trkpt>
      <trkpt lat="44.34817" lon="5.62286">
        <ele>952.2</ele>
        <time>2023-04-06T10:19:55Z</time>
      </trkpt>
      <trkpt lat="44.34816" lon="5.62288">
        <ele>952.5</ele>
        <time>2023-04-06T10:19:56Z</time>
      </trkpt>
      <trkpt lat="44.34815" lon="5.6229">
        <ele>952.8</ele>
        <time>2023-04-06T10:19:57Z</time>
      </trkpt>
      <trkpt lat="44.34813" lon="5.62292">
        <ele>953.2</ele>
        <time>2023-04-06T10:19:58Z</time>
      </trkpt>
      <trkpt lat="44.3481" lon="5.62297">
        <ele>953.9</ele>
        <time>2023-04-06T10:20:00Z</time>
      </trkpt>
      <trkpt lat="44.34809" lon="5.623">
        <ele>954.4</ele>
        <time>2023-04-06T10:20:01Z</time>
      </trkpt>
      <trkpt lat="44.34808" lon="5.62302">
        <ele>954.6</ele>
        <time>2023-04-06T10:20:02Z</time>
      </trkpt>
      <trkpt lat="44.34806" lon="5.62306">
        <ele>955.2</ele>
        <time>2023-04-06T10:20:04Z</time>
      </trkpt>
      <trkpt lat="44.34804" lon="5.6231">
        <ele>955.7</ele>
        <time>2023-04-06T10:20:05Z</time>
      </trkpt>
      <trkpt lat="44.34804" lon="5.62311">
        <ele>955.9</ele>
        <time>2023-04-06T10:20:06Z</time>
      </trkpt>
      <trkpt lat="44.34803" lon="5.62313">
        <ele>956.1</ele>
        <time>2023-04-06T10:20:07Z</time>
      </trkpt>
      <trkpt lat="44.34801" lon="5.62315">
        <ele>956.4</ele>
        <time>2023-04-06T10:20:08Z</time>
      </trkpt>
      <trkpt lat="44.348" lon="5.62316">
        <ele>956.7</ele>
        <time>2023-04-06T10:20:09Z</time>
      </trkpt>
      <trkpt lat="44.34799" lon="5.62318">
        <ele>957</ele>
        <time>2023-04-06T10:20:10Z</time>
      </trkpt>
      <trkpt lat="44.34798" lon="5.6232">
        <ele>957.2</ele>
        <time>2023-04-06T10:20:11Z</time>
      </trkpt>
      <trkpt lat="44.34796" lon="5.62321">
        <ele>957.5</ele>
        <time>2023-04-06T10:20:12Z</time>
      </trkpt>
      <trkpt lat="44.34795" lon="5.62323">
        <ele>957.8</ele>
        <time>2023-04-06T10:20:13Z</time>
      </trkpt>
      <trkpt lat="44.34793" lon="5.62327">
        <ele>958.3</ele>
        <time>2023-04-06T10:20:15Z</time>
      </trkpt>
      <trkpt lat="44.34792" lon="5.62328">
        <ele>958.6</ele>
        <time>2023-04-06T10:20:16Z</time>
      </trkpt>
      <trkpt lat="44.34791" lon="5.6233">
        <ele>958.8</ele>
        <time>2023-04-06T10:20:17Z</time>
      </trkpt>
      <trkpt lat="44.3479" lon="5.62331">
        <ele>959.1</ele>
        <time>2023-04-06T10:20:18Z</time>
      </trkpt>
      <trkpt lat="44.34789" lon="5.62333">
        <ele>959.4</ele>
        <time>2023-04-06T10:20:19Z</time>
      </trkpt>
      <trkpt lat="44.34788" lon="5.62335">
        <ele>959.6</ele>
        <time>2023-04-06T10:20:20Z</time>
      </trkpt>
      <trkpt lat="44.34786" lon="5.62336">
        <ele>959.9</ele>
        <time>2023-04-06T10:20:21Z</time>
      </trkpt>
      <trkpt lat="44.34785" lon="5.62338">
        <ele>960.1</ele>
        <time>2023-04-06T10:20:22Z</time>
      </trkpt>
      <trkpt lat="44.34784" lon="5.62339">
        <ele>960.4</ele>
        <time>2023-04-06T10:20:23Z</time>
      </trkpt>
      <trkpt lat="44.34783" lon="5.62341">
        <ele>960.7</ele>
        <time>2023-04-06T10:20:24Z</time>
      </trkpt>
      <trkpt lat="44.34781" lon="5.62344">
        <ele>961.3</ele>
        <time>2023-04-06T10:20:26Z</time>
      </trkpt>
      <trkpt lat="44.3478" lon="5.62346">
        <ele>961.5</ele>
        <time>2023-04-06T10:20:27Z</time>
      </trkpt>
      <trkpt lat="44.34779" lon="5.62348">
        <ele>961.8</ele>
        <time>2023-04-06T10:20:28Z</time>
      </trkpt>
      <trkpt lat="44.34778" lon="5.62349">
        <ele>962.1</ele>
        <time>2023-04-06T10:20:29Z</time>
      </trkpt>
      <trkpt lat="44.34777" lon="5.62351">
        <ele>962.4</ele>
        <time>2023-04-06T10:20:30Z</time>
      </trkpt>
      <trkpt lat="44.34774" lon="5.62356">
        <ele>963.2</ele>
        <time>2023-04-06T10:20:32Z</time>
      </trkpt>
      <trkpt lat="44.34772" lon="5.62359">
        <ele>963.8</ele>
        <time>2023-04-06T10:20:33Z</time>
      </trkpt>
      <trkpt lat="44.34772" lon="5.62359">
        <ele>963.9</ele>
        <time>2023-04-06T10:20:34Z</time>
      </trkpt>
      <trkpt lat="44.3477" lon="5.62361">
        <ele>964.2</ele>
        <time>2023-04-06T10:20:35Z</time>
      </trkpt>
      <trkpt lat="44.34769" lon="5.62363">
        <ele>964.5</ele>
        <time>2023-04-06T10:20:36Z</time>
      </trkpt>
      <trkpt lat="44.34769" lon="5.62364">
        <ele>964.8</ele>
        <time>2023-04-06T10:20:37Z</time>
      </trkpt>
      <trkpt lat="44.34768" lon="5.62367">
        <ele>965.1</ele>
        <time>2023-04-06T10:20:38Z</time>
      </trkpt>
      <trkpt lat="44.34767" lon="5.62369">
        <ele>965.4</ele>
        <time>2023-04-06T10:20:39Z</time>
      </trkpt>
      <trkpt lat="44.34767" lon="5.62371">
        <ele>965.7</ele>
        <time>2023-04-06T10:20:40Z</time>
      </trkpt>
      <trkpt lat="44.34766" lon="5.62372">
        <ele>965.9</ele>
        <time>2023-04-06T10:20:41Z</time>
      </trkpt>
      <trkpt lat="44.34763" lon="5.62376">
        <ele>966.5</ele>
        <time>2023-04-06T10:20:43Z</time>
      </trkpt>
      <trkpt lat="44.34762" lon="5.62379">
        <ele>966.9</ele>
        <time>2023-04-06T10:20:44Z</time>
      </trkpt>
      <trkpt lat="44.34761" lon="5.62382">
        <ele>967.3</ele>
        <time>2023-04-06T10:20:45Z</time>
      </trkpt>
      <trkpt lat="44.3476" lon="5.62383">
        <ele>967.5</ele>
        <time>2023-04-06T10:20:46Z</time>
      </trkpt>
      <trkpt lat="44.34758" lon="5.62387">
        <ele>968</ele>
        <time>2023-04-06T10:20:47Z</time>
      </trkpt>
      <trkpt lat="44.34758" lon="5.62388">
        <ele>968.1</ele>
        <time>2023-04-06T10:20:48Z</time>
      </trkpt>
      <trkpt lat="44.34757" lon="5.6239">
        <ele>968.4</ele>
        <time>2023-04-06T10:20:49Z</time>
      </trkpt>
      <trkpt lat="44.34756" lon="5.62392">
        <ele>968.6</ele>
        <time>2023-04-06T10:20:50Z</time>
      </trkpt>
      <trkpt lat="44.34755" lon="5.62395">
        <ele>969</ele>
        <time>2023-04-06T10:20:51Z</time>
      </trkpt>
      <trkpt lat="44.34754" lon="5.62396">
        <ele>969.2</ele>
        <time>2023-04-06T10:20:52Z</time>
      </trkpt>
      <trkpt lat="44.34752" lon="5.62399">
        <ele>969.7</ele>
        <time>2023-04-06T10:20:54Z</time>
      </trkpt>
      <trkpt lat="44.34751" lon="5.62402">
        <ele>970</ele>
        <time>2023-04-06T10:20:55Z</time>
      </trkpt>
      <trkpt lat="44.34751" lon="5.62404">
        <ele>970.2</ele>
        <time>2023-04-06T10:20:56Z</time>
      </trkpt>
      <trkpt lat="44.3475" lon="5.62406">
        <ele>970.5</ele>
        <time>2023-04-06T10:20:57Z</time>
      </trkpt>
      <trkpt lat="44.34749" lon="5.62408">
        <ele>970.8</ele>
        <time>2023-04-06T10:20:58Z</time>
      </trkpt>
      <trkpt lat="44.34746" lon="5.6241">
        <ele>971.3</ele>
        <time>2023-04-06T10:20:59Z</time>
      </trkpt>
      <trkpt lat="44.34745" lon="5.62411">
        <ele>971.4</ele>
        <time>2023-04-06T10:21:00Z</time>
      </trkpt>
      <trkpt lat="44.34743" lon="5.62414">
        <ele>971.9</ele>
        <time>2023-04-06T10:21:01Z</time>
      </trkpt>
      <trkpt lat="44.34742" lon="5.62414">
        <ele>972</ele>
        <time>2023-04-06T10:21:02Z</time>
      </trkpt>
      <trkpt lat="44.34741" lon="5.62416">
        <ele>972.3</ele>
        <time>2023-04-06T10:21:03Z</time>
      </trkpt>
      <trkpt lat="44.34738" lon="5.62419">
        <ele>972.9</ele>
        <time>2023-04-06T10:21:05Z</time>
      </trkpt>
      <trkpt lat="44.34737" lon="5.62421">
        <ele>973.2</ele>
        <time>2023-04-06T10:21:06Z</time>
      </trkpt>
      <trkpt lat="44.34735" lon="5.62423">
        <ele>973.5</ele>
        <time>2023-04-06T10:21:07Z</time>
      </trkpt>
      <trkpt lat="44.34734" lon="5.62424">
        <ele>973.8</ele>
        <time>2023-04-06T10:21:08Z</time>
      </trkpt>
      <trkpt lat="44.34733" lon="5.62426">
        <ele>974</ele>
        <time>2023-04-06T10:21:09Z</time>
      </trkpt>
      <trkpt lat="44.34731" lon="5.6243">
        <ele>974.7</ele>
        <time>2023-04-06T10:21:11Z</time>
      </trkpt>
      <trkpt lat="44.34729" lon="5.62432">
        <ele>975</ele>
        <time>2023-04-06T10:21:12Z</time>
      </trkpt>
      <trkpt lat="44.34728" lon="5.62436">
        <ele>975.6</ele>
        <time>2023-04-06T10:21:13Z</time>
      </trkpt>
      <trkpt lat="44.34727" lon="5.62437">
        <ele>975.7</ele>
        <time>2023-04-06T10:21:14Z</time>
      </trkpt>
      <trkpt lat="44.34726" lon="5.6244">
        <ele>976.2</ele>
        <time>2023-04-06T10:21:15Z</time>
      </trkpt>
      <trkpt lat="44.34725" lon="5.62442">
        <ele>976.4</ele>
        <time>2023-04-06T10:21:16Z</time>
      </trkpt>
      <trkpt lat="44.34723" lon="5.62444">
        <ele>976.9</ele>
        <time>2023-04-06T10:21:17Z</time>
      </trkpt>
      <trkpt lat="44.34722" lon="5.62445">
        <ele>977</ele>
        <time>2023-04-06T10:21:18Z</time>
      </trkpt>
      <trkpt lat="44.34722" lon="5.62447">
        <ele>977.2</ele>
        <time>2023-04-06T10:21:19Z</time>
      </trkpt>
      <trkpt lat="44.34721" lon="5.62449">
        <ele>977.5</ele>
        <time>2023-04-06T10:21:20Z</time>
      </trkpt>
      <trkpt lat="44.34719" lon="5.62452">
        <ele>977.9</ele>
        <time>2023-04-06T10:21:21Z</time>
      </trkpt>
      <trkpt lat="44.34719" lon="5.62453">
        <ele>978.1</ele>
        <time>2023-04-06T10:21:22Z</time>
      </trkpt>
      <trkpt lat="44.34718" lon="5.62455">
        <ele>978.4</ele>
        <time>2023-04-06T10:21:23Z</time>
      </trkpt>
      <trkpt lat="44.34717" lon="5.62457">
        <ele>978.7</ele>
        <time>2023-04-06T10:21:24Z</time>
      </trkpt>
      <trkpt lat="44.34715" lon="5.6246">
        <ele>979.2</ele>
        <time>2023-04-06T10:21:25Z</time>
      </trkpt>
      <trkpt lat="44.34714" lon="5.62461">
        <ele>979.3</ele>
        <time>2023-04-06T10:21:26Z</time>
      </trkpt>
      <trkpt lat="44.34713" lon="5.62463">
        <ele>979.6</ele>
        <time>2023-04-06T10:21:27Z</time>
      </trkpt>
      <trkpt lat="44.34712" lon="5.62464">
        <ele>979.8</ele>
        <time>2023-04-06T10:21:28Z</time>
      </trkpt>
      <trkpt lat="44.34711" lon="5.62466">
        <ele>980.1</ele>
        <time>2023-04-06T10:21:29Z</time>
      </trkpt>
      <trkpt lat="44.3471" lon="5.62468">
        <ele>980.4</ele>
        <time>2023-04-06T10:21:30Z</time>
      </trkpt>
      <trkpt lat="44.34708" lon="5.62469">
        <ele>980.6</ele>
        <time>2023-04-06T10:21:31Z</time>
      </trkpt>
      <trkpt lat="44.34706" lon="5.62473">
        <ele>981.3</ele>
        <time>2023-04-06T10:21:33Z</time>
      </trkpt>
      <trkpt lat="44.34704" lon="5.62475">
        <ele>981.6</ele>
        <time>2023-04-06T10:21:34Z</time>
      </trkpt>
      <trkpt lat="44.34702" lon="5.62478">
        <ele>982.1</ele>
        <time>2023-04-06T10:21:35Z</time>
      </trkpt>
      <trkpt lat="44.34701" lon="5.62479">
        <ele>982.2</ele>
        <time>2023-04-06T10:21:36Z</time>
      </trkpt>
      <trkpt lat="44.347" lon="5.6248">
        <ele>982.5</ele>
        <time>2023-04-06T10:21:37Z</time>
      </trkpt>
      <trkpt lat="44.34699" lon="5.62482">
        <ele>982.8</ele>
        <time>2023-04-06T10:21:38Z</time>
      </trkpt>
      <trkpt lat="44.34699" lon="5.62484">
        <ele>983</ele>
        <time>2023-04-06T10:21:39Z</time>
      </trkpt>
      <trkpt lat="44.34699" lon="5.62486">
        <ele>983.3</ele>
        <time>2023-04-06T10:21:40Z</time>
      </trkpt>
      <trkpt lat="44.34698" lon="5.62488">
        <ele>983.6</ele>
        <time>2023-04-06T10:21:41Z</time>
      </trkpt>
      <trkpt lat="44.34698" lon="5.6249">
        <ele>983.8</ele>
        <time>2023-04-06T10:21:42Z</time>
      </trkpt>
      <trkpt lat="44.34695" lon="5.62495">
        <ele>984.6</ele>
        <time>2023-04-06T10:21:44Z</time>
      </trkpt>
      <trkpt lat="44.34694" lon="5.62496">
        <ele>984.8</ele>
        <time>2023-04-06T10:21:45Z</time>
      </trkpt>
      <trkpt lat="44.34693" lon="5.62498">
        <ele>985</ele>
        <time>2023-04-06T10:21:46Z</time>
      </trkpt>
      <trkpt lat="44.34692" lon="5.62501">
        <ele>985.5</ele>
        <time>2023-04-06T10:21:47Z</time>
      </trkpt>
      <trkpt lat="44.34691" lon="5.62502">
        <ele>985.7</ele>
        <time>2023-04-06T10:21:48Z</time>
      </trkpt>
      <trkpt lat="44.34689" lon="5.62504">
        <ele>986.2</ele>
        <time>2023-04-06T10:21:49Z</time>
      </trkpt>
      <trkpt lat="44.34688" lon="5.62505">
        <ele>986.4</ele>
        <time>2023-04-06T10:21:50Z</time>
      </trkpt>
      <trkpt lat="44.34687" lon="5.62507">
        <ele>986.7</ele>
        <time>2023-04-06T10:21:51Z</time>
      </trkpt>
      <trkpt lat="44.34685" lon="5.62508">
        <ele>986.9</ele>
        <time>2023-04-06T10:21:52Z</time>
      </trkpt>
      <trkpt lat="44.34684" lon="5.62509">
        <ele>987.2</ele>
        <time>2023-04-06T10:21:53Z</time>
      </trkpt>
      <trkpt lat="44.34681" lon="5.62512">
        <ele>987.8</ele>
        <time>2023-04-06T10:21:55Z</time>
      </trkpt>
      <trkpt lat="44.3468" lon="5.62514">
        <ele>988.2</ele>
        <time>2023-04-06T10:21:56Z</time>
      </trkpt>
      <trkpt lat="44.34677" lon="5.62516">
        <ele>988.7</ele>
        <time>2023-04-06T10:21:57Z</time>
      </trkpt>
      <trkpt lat="44.34676" lon="5.62516">
        <ele>988.9</ele>
        <time>2023-04-06T10:21:58Z</time>
      </trkpt>
      <trkpt lat="44.34674" lon="5.62518">
        <ele>989.5</ele>
        <time>2023-04-06T10:21:59Z</time>
      </trkpt>
      <trkpt lat="44.34673" lon="5.62519">
        <ele>989.6</ele>
        <time>2023-04-06T10:22:00Z</time>
      </trkpt>
      <trkpt lat="44.3467" lon="5.62521">
        <ele>990.2</ele>
        <time>2023-04-06T10:22:01Z</time>
      </trkpt>
      <trkpt lat="44.34669" lon="5.62521">
        <ele>990.4</ele>
        <time>2023-04-06T10:22:02Z</time>
      </trkpt>
      <trkpt lat="44.34668" lon="5.62522">
        <ele>990.6</ele>
        <time>2023-04-06T10:22:03Z</time>
      </trkpt>
      <trkpt lat="44.34666" lon="5.62523">
        <ele>991</ele>
        <time>2023-04-06T10:22:04Z</time>
      </trkpt>
      <trkpt lat="44.34665" lon="5.62524">
        <ele>991.2</ele>
        <time>2023-04-06T10:22:05Z</time>
      </trkpt>
      <trkpt lat="44.34664" lon="5.62524">
        <ele>991.4</ele>
        <time>2023-04-06T10:22:06Z</time>
      </trkpt>
      <trkpt lat="44.34663" lon="5.62525">
        <ele>991.6</ele>
        <time>2023-04-06T10:22:07Z</time>
      </trkpt>
      <trkpt lat="44.34662" lon="5.62526">
        <ele>991.8</ele>
        <time>2023-04-06T10:22:08Z</time>
      </trkpt>
      <trkpt lat="44.34661" lon="5.62528">
        <ele>992.1</ele>
        <time>2023-04-06T10:22:09Z</time>
      </trkpt>
      <trkpt lat="44.34658" lon="5.62531">
        <ele>992.7</ele>
        <time>2023-04-06T10:22:11Z</time>
      </trkpt>
      <trkpt lat="44.34656" lon="5.62533">
        <ele>993.1</ele>
        <time>2023-04-06T10:22:12Z</time>
      </trkpt>
      <trkpt lat="44.34655" lon="5.62534">
        <ele>993.4</ele>
        <time>2023-04-06T10:22:13Z</time>
      </trkpt>
      <trkpt lat="44.34654" lon="5.62538">
        <ele>993.9</ele>
        <time>2023-04-06T10:22:14Z</time>
      </trkpt>
      <trkpt lat="44.34653" lon="5.62538">
        <ele>994.1</ele>
        <time>2023-04-06T10:22:15Z</time>
      </trkpt>
      <trkpt lat="44.34652" lon="5.6254">
        <ele>994.4</ele>
        <time>2023-04-06T10:22:16Z</time>
      </trkpt>
      <trkpt lat="44.3465" lon="5.62541">
        <ele>994.8</ele>
        <time>2023-04-06T10:22:17Z</time>
      </trkpt>
      <trkpt lat="44.34649" lon="5.62543">
        <ele>995.2</ele>
        <time>2023-04-06T10:22:18Z</time>
      </trkpt>
      <trkpt lat="44.34648" lon="5.62545">
        <ele>995.5</ele>
        <time>2023-04-06T10:22:19Z</time>
      </trkpt>
      <trkpt lat="44.34647" lon="5.62546">
        <ele>995.8</ele>
        <time>2023-04-06T10:22:20Z</time>
      </trkpt>
      <trkpt lat="44.34646" lon="5.62548">
        <ele>996.2</ele>
        <time>2023-04-06T10:22:21Z</time>
      </trkpt>
      <trkpt lat="44.34645" lon="5.6255">
        <ele>996.5</ele>
        <time>2023-04-06T10:22:22Z</time>
      </trkpt>
      <trkpt lat="44.34644" lon="5.62552">
        <ele>996.9</ele>
        <time>2023-04-06T10:22:23Z</time>
      </trkpt>
      <trkpt lat="44.34643" lon="5.62555">
        <ele>997.5</ele>
        <time>2023-04-06T10:22:24Z</time>
      </trkpt>
      <trkpt lat="44.34642" lon="5.62556">
        <ele>997.7</ele>
        <time>2023-04-06T10:22:25Z</time>
      </trkpt>
      <trkpt lat="44.34641" lon="5.62558">
        <ele>998.2</ele>
        <time>2023-04-06T10:22:26Z</time>
      </trkpt>
      <trkpt lat="44.3464" lon="5.62562">
        <ele>998.9</ele>
        <time>2023-04-06T10:22:28Z</time>
      </trkpt>
      <trkpt lat="44.34639" lon="5.62564">
        <ele>999.3</ele>
        <time>2023-04-06T10:22:29Z</time>
      </trkpt>
      <trkpt lat="44.34638" lon="5.62566">
        <ele>999.7</ele>
        <time>2023-04-06T10:22:30Z</time>
      </trkpt>
      <trkpt lat="44.34637" lon="5.62567">
        <ele>1000</ele>
        <time>2023-04-06T10:22:31Z</time>
      </trkpt>
      <trkpt lat="44.34636" lon="5.62569">
        <ele>1000.3</ele>
        <time>2023-04-06T10:22:32Z</time>
      </trkpt>
      <trkpt lat="44.34634" lon="5.62572">
        <ele>1001</ele>
        <time>2023-04-06T10:22:34Z</time>
      </trkpt>
      <trkpt lat="44.34633" lon="5.62573">
        <ele>1001.3</ele>
        <time>2023-04-06T10:22:35Z</time>
      </trkpt>
      <trkpt lat="44.34632" lon="5.62574">
        <ele>1001.7</ele>
        <time>2023-04-06T10:22:36Z</time>
      </trkpt>
      <trkpt lat="44.3463" lon="5.62576">
        <ele>1002.1</ele>
        <time>2023-04-06T10:22:37Z</time>
      </trkpt>
      <trkpt lat="44.34628" lon="5.62578">
        <ele>1002.7</ele>
        <time>2023-04-06T10:22:38Z</time>
      </trkpt>
      <trkpt lat="44.34628" lon="5.62579">
        <ele>1002.9</ele>
        <time>2023-04-06T10:22:39Z</time>
      </trkpt>
      <trkpt lat="44.34626" lon="5.62581">
        <ele>1003.3</ele>
        <time>2023-04-06T10:22:40Z</time>
      </trkpt>
      <trkpt lat="44.34625" lon="5.62582">
        <ele>1003.7</ele>
        <time>2023-04-06T10:22:41Z</time>
      </trkpt>
      <trkpt lat="44.34624" lon="5.62584">
        <ele>1004.1</ele>
        <time>2023-04-06T10:22:42Z</time>
      </trkpt>
      <trkpt lat="44.34623" lon="5.62585">
        <ele>1004.5</ele>
        <time>2023-04-06T10:22:43Z</time>
      </trkpt>
      <trkpt lat="44.34621" lon="5.62589">
        <ele>1005.1</ele>
        <time>2023-04-06T10:22:44Z</time>
      </trkpt>
      <trkpt lat="44.34621" lon="5.6259">
        <ele>1005.4</ele>
        <time>2023-04-06T10:22:45Z</time>
      </trkpt>
      <trkpt lat="44.3462" lon="5.62592">
        <ele>1005.8</ele>
        <time>2023-04-06T10:22:46Z</time>
      </trkpt>
      <trkpt lat="44.34619" lon="5.62594">
        <ele>1006.1</ele>
        <time>2023-04-06T10:22:47Z</time>
      </trkpt>
      <trkpt lat="44.34618" lon="5.62596">
        <ele>1006.5</ele>
        <time>2023-04-06T10:22:48Z</time>
      </trkpt>
      <trkpt lat="44.34617" lon="5.62597">
        <ele>1006.8</ele>
        <time>2023-04-06T10:22:49Z</time>
      </trkpt>
      <trkpt lat="44.34616" lon="5.62599">
        <ele>1007.1</ele>
        <time>2023-04-06T10:22:50Z</time>
      </trkpt>
      <trkpt lat="44.34615" lon="5.626">
        <ele>1007.5</ele>
        <time>2023-04-06T10:22:51Z</time>
      </trkpt>
      <trkpt lat="44.34614" lon="5.62602">
        <ele>1007.8</ele>
        <time>2023-04-06T10:22:52Z</time>
      </trkpt>
      <trkpt lat="44.34614" lon="5.62604">
        <ele>1008.1</ele>
        <time>2023-04-06T10:22:53Z</time>
      </trkpt>
      <trkpt lat="44.34613" lon="5.62607">
        <ele>1008.7</ele>
        <time>2023-04-06T10:22:54Z</time>
      </trkpt>
      <trkpt lat="44.34613" lon="5.62608">
        <ele>1008.9</ele>
        <time>2023-04-06T10:22:55Z</time>
      </trkpt>
      <trkpt lat="44.34611" lon="5.62611">
        <ele>1009.6</ele>
        <time>2023-04-06T10:22:56Z</time>
      </trkpt>
      <trkpt lat="44.3461" lon="5.62612">
        <ele>1009.8</ele>
        <time>2023-04-06T10:22:57Z</time>
      </trkpt>
      <trkpt lat="44.34607" lon="5.62614">
        <ele>1010.4</ele>
        <time>2023-04-06T10:22:58Z</time>
      </trkpt>
      <trkpt lat="44.34607" lon="5.62615">
        <ele>1010.6</ele>
        <time>2023-04-06T10:22:59Z</time>
      </trkpt>
      <trkpt lat="44.34604" lon="5.62618">
        <ele>1011.4</ele>
        <time>2023-04-06T10:23:00Z</time>
      </trkpt>
      <trkpt lat="44.34604" lon="5.62619">
        <ele>1011.6</ele>
        <time>2023-04-06T10:23:01Z</time>
      </trkpt>
      <trkpt lat="44.34602" lon="5.62621">
        <ele>1012.1</ele>
        <time>2023-04-06T10:23:02Z</time>
      </trkpt>
      <trkpt lat="44.34601" lon="5.62622">
        <ele>1012.5</ele>
        <time>2023-04-06T10:23:03Z</time>
      </trkpt>
      <trkpt lat="44.34599" lon="5.62624">
        <ele>1013.2</ele>
        <time>2023-04-06T10:23:04Z</time>
      </trkpt>
      <trkpt lat="44.34598" lon="5.62625">
        <ele>1013.4</ele>
        <time>2023-04-06T10:23:05Z</time>
      </trkpt>
      <trkpt lat="44.34596" lon="5.62628">
        <ele>1014.1</ele>
        <time>2023-04-06T10:23:06Z</time>
      </trkpt>
      <trkpt lat="44.34596" lon="5.62629">
        <ele>1014.3</ele>
        <time>2023-04-06T10:23:07Z</time>
      </trkpt>
      <trkpt lat="44.34593" lon="5.62631">
        <ele>1015</ele>
        <time>2023-04-06T10:23:08Z</time>
      </trkpt>
      <trkpt lat="44.34592" lon="5.62632">
        <ele>1015.2</ele>
        <time>2023-04-06T10:23:09Z</time>
      </trkpt>
      <trkpt lat="44.3459" lon="5.62634">
        <ele>1015.9</ele>
        <time>2023-04-06T10:23:10Z</time>
      </trkpt>
      <trkpt lat="44.34589" lon="5.62635">
        <ele>1016.1</ele>
        <time>2023-04-06T10:23:11Z</time>
      </trkpt>
      <trkpt lat="44.34587" lon="5.62639">
        <ele>1016.8</ele>
        <time>2023-04-06T10:23:12Z</time>
      </trkpt>
      <trkpt lat="44.34586" lon="5.6264">
        <ele>1017</ele>
        <time>2023-04-06T10:23:13Z</time>
      </trkpt>
      <trkpt lat="44.34584" lon="5.62642">
        <ele>1017.6</ele>
        <time>2023-04-06T10:23:14Z</time>
      </trkpt>
      <trkpt lat="44.34583" lon="5.62643">
        <ele>1017.8</ele>
        <time>2023-04-06T10:23:15Z</time>
      </trkpt>
      <trkpt lat="44.34582" lon="5.62645">
        <ele>1018.2</ele>
        <time>2023-04-06T10:23:16Z</time>
      </trkpt>
      <trkpt lat="44.34581" lon="5.62646">
        <ele>1018.5</ele>
        <time>2023-04-06T10:23:17Z</time>
      </trkpt>
      <trkpt lat="44.34579" lon="5.62649">
        <ele>1019</ele>
        <time>2023-04-06T10:23:18Z</time>
      </trkpt>
      <trkpt lat="44.34579" lon="5.6265">
        <ele>1019.2</ele>
        <time>2023-04-06T10:23:19Z</time>
      </trkpt>
      <trkpt lat="44.34578" lon="5.62651">
        <ele>1019.4</ele>
        <time>2023-04-06T10:23:20Z</time>
      </trkpt>
      <trkpt lat="44.34578" lon="5.62653">
        <ele>1019.7</ele>
        <time>2023-04-06T10:23:21Z</time>
      </trkpt>
      <trkpt lat="44.34577" lon="5.62655">
        <ele>1020.1</ele>
        <time>2023-04-06T10:23:22Z</time>
      </trkpt>
      <trkpt lat="44.34576" lon="5.62657">
        <ele>1020.5</ele>
        <time>2023-04-06T10:23:23Z</time>
      </trkpt>
      <trkpt lat="44.34576" lon="5.62659">
        <ele>1020.9</ele>
        <time>2023-04-06T10:23:24Z</time>
      </trkpt>
      <trkpt lat="44.34575" lon="5.62663">
        <ele>1021.5</ele>
        <time>2023-04-06T10:23:25Z</time>
      </trkpt>
      <trkpt lat="44.34574" lon="5.62664">
        <ele>1021.8</ele>
        <time>2023-04-06T10:23:26Z</time>
      </trkpt>
      <trkpt lat="44.34572" lon="5.62668">
        <ele>1022.4</ele>
        <time>2023-04-06T10:23:27Z</time>
      </trkpt>
      <trkpt lat="44.34572" lon="5.62668">
        <ele>1022.6</ele>
        <time>2023-04-06T10:23:28Z</time>
      </trkpt>
      <trkpt lat="44.34569" lon="5.62671">
        <ele>1023.3</ele>
        <time>2023-04-06T10:23:29Z</time>
      </trkpt>
      <trkpt lat="44.34568" lon="5.62672">
        <ele>1023.5</ele>
        <time>2023-04-06T10:23:30Z</time>
      </trkpt>
      <trkpt lat="44.34566" lon="5.62675">
        <ele>1024.1</ele>
        <time>2023-04-06T10:23:31Z</time>
      </trkpt>
      <trkpt lat="44.34565" lon="5.62676">
        <ele>1024.3</ele>
        <time>2023-04-06T10:23:32Z</time>
      </trkpt>
      <trkpt lat="44.34563" lon="5.62678">
        <ele>1024.8</ele>
        <time>2023-04-06T10:23:33Z</time>
      </trkpt>
      <trkpt lat="44.34562" lon="5.62679">
        <ele>1025</ele>
        <time>2023-04-06T10:23:34Z</time>
      </trkpt>
      <trkpt lat="44.34561" lon="5.62681">
        <ele>1025.3</ele>
        <time>2023-04-06T10:23:35Z</time>
      </trkpt>
      <trkpt lat="44.34559" lon="5.62682">
        <ele>1025.6</ele>
        <time>2023-04-06T10:23:36Z</time>
      </trkpt>
      <trkpt lat="44.34557" lon="5.62684">
        <ele>1026.2</ele>
        <time>2023-04-06T10:23:37Z</time>
      </trkpt>
      <trkpt lat="44.34556" lon="5.62685">
        <ele>1026.4</ele>
        <time>2023-04-06T10:23:38Z</time>
      </trkpt>
      <trkpt lat="44.34553" lon="5.62686">
        <ele>1027</ele>
        <time>2023-04-06T10:23:39Z</time>
      </trkpt>
      <trkpt lat="44.34552" lon="5.62687">
        <ele>1027.3</ele>
        <time>2023-04-06T10:23:40Z</time>
      </trkpt>
      <trkpt lat="44.3455" lon="5.6269">
        <ele>1027.9</ele>
        <time>2023-04-06T10:23:41Z</time>
      </trkpt>
      <trkpt lat="44.3455" lon="5.62691">
        <ele>1028.2</ele>
        <time>2023-04-06T10:23:42Z</time>
      </trkpt>
      <trkpt lat="44.34546" lon="5.62696">
        <ele>1029.2</ele>
        <time>2023-04-06T10:23:44Z</time>
      </trkpt>
      <trkpt lat="44.34545" lon="5.62698">
        <ele>1029.6</ele>
        <time>2023-04-06T10:23:45Z</time>
      </trkpt>
      <trkpt lat="44.34544" lon="5.627">
        <ele>1029.9</ele>
        <time>2023-04-06T10:23:46Z</time>
      </trkpt>
      <trkpt lat="44.34543" lon="5.62702">
        <ele>1030.2</ele>
        <time>2023-04-06T10:23:47Z</time>
      </trkpt>
      <trkpt lat="44.34542" lon="5.62703">
        <ele>1030.5</ele>
        <time>2023-04-06T10:23:48Z</time>
      </trkpt>
      <trkpt lat="44.34541" lon="5.62705">
        <ele>1030.7</ele>
        <time>2023-04-06T10:23:49Z</time>
      </trkpt>
      <trkpt lat="44.34541" lon="5.62707">
        <ele>1030.9</ele>
        <time>2023-04-06T10:23:50Z</time>
      </trkpt>
      <trkpt lat="44.34539" lon="5.6271">
        <ele>1031.4</ele>
        <time>2023-04-06T10:23:52Z</time>
      </trkpt>
      <trkpt lat="44.34538" lon="5.62712">
        <ele>1031.6</ele>
        <time>2023-04-06T10:23:53Z</time>
      </trkpt>
      <trkpt lat="44.34537" lon="5.62714">
        <ele>1031.8</ele>
        <time>2023-04-06T10:23:54Z</time>
      </trkpt>
      <trkpt lat="44.34537" lon="5.62716">
        <ele>1031.9</ele>
        <time>2023-04-06T10:23:55Z</time>
      </trkpt>
      <trkpt lat="44.34535" lon="5.62717">
        <ele>1032.1</ele>
        <time>2023-04-06T10:23:56Z</time>
      </trkpt>
      <trkpt lat="44.34533" lon="5.62721">
        <ele>1032.5</ele>
        <time>2023-04-06T10:23:58Z</time>
      </trkpt>
      <trkpt lat="44.34532" lon="5.62722">
        <ele>1032.7</ele>
        <time>2023-04-06T10:23:59Z</time>
      </trkpt>
      <trkpt lat="44.34531" lon="5.62724">
        <ele>1032.9</ele>
        <time>2023-04-06T10:24:00Z</time>
      </trkpt>
      <trkpt lat="44.3453" lon="5.62725">
        <ele>1033.1</ele>
        <time>2023-04-06T10:24:01Z</time>
      </trkpt>
      <trkpt lat="44.34529" lon="5.62727">
        <ele>1033.2</ele>
        <time>2023-04-06T10:24:02Z</time>
      </trkpt>
      <trkpt lat="44.34528" lon="5.62729">
        <ele>1033.4</ele>
        <time>2023-04-06T10:24:03Z</time>
      </trkpt>
      <trkpt lat="44.34528" lon="5.62731">
        <ele>1033.6</ele>
        <time>2023-04-06T10:24:04Z</time>
      </trkpt>
      <trkpt lat="44.34527" lon="5.62732">
        <ele>1033.8</ele>
        <time>2023-04-06T10:24:05Z</time>
      </trkpt>
      <trkpt lat="44.34526" lon="5.62734">
        <ele>1034</ele>
        <time>2023-04-06T10:24:06Z</time>
      </trkpt>
      <trkpt lat="44.34525" lon="5.62736">
        <ele>1034.2</ele>
        <time>2023-04-06T10:24:07Z</time>
      </trkpt>
      <trkpt lat="44.34522" lon="5.6274">
        <ele>1034.5</ele>
        <time>2023-04-06T10:24:09Z</time>
      </trkpt>
      <trkpt lat="44.34521" lon="5.62742">
        <ele>1034.7</ele>
        <time>2023-04-06T10:24:10Z</time>
      </trkpt>
      <trkpt lat="44.34519" lon="5.62745">
        <ele>1035</ele>
        <time>2023-04-06T10:24:11Z</time>
      </trkpt>
      <trkpt lat="44.34518" lon="5.62746">
        <ele>1035.1</ele>
        <time>2023-04-06T10:24:12Z</time>
      </trkpt>
      <trkpt lat="44.34516" lon="5.62749">
        <ele>1035.5</ele>
        <time>2023-04-06T10:24:13Z</time>
      </trkpt>
      <trkpt lat="44.34515" lon="5.6275">
        <ele>1035.6</ele>
        <time>2023-04-06T10:24:14Z</time>
      </trkpt>
      <trkpt lat="44.34513" lon="5.62752">
        <ele>1035.9</ele>
        <time>2023-04-06T10:24:15Z</time>
      </trkpt>
      <trkpt lat="44.34512" lon="5.62753">
        <ele>1036</ele>
        <time>2023-04-06T10:24:16Z</time>
      </trkpt>
      <trkpt lat="44.3451" lon="5.62754">
        <ele>1036.2</ele>
        <time>2023-04-06T10:24:17Z</time>
      </trkpt>
      <trkpt lat="44.34509" lon="5.62756">
        <ele>1036.4</ele>
        <time>2023-04-06T10:24:18Z</time>
      </trkpt>
      <trkpt lat="44.34505" lon="5.62761">
        <ele>1037</ele>
        <time>2023-04-06T10:24:20Z</time>
      </trkpt>
      <trkpt lat="44.34504" lon="5.62763">
        <ele>1037.2</ele>
        <time>2023-04-06T10:24:21Z</time>
      </trkpt>
      <trkpt lat="44.34503" lon="5.62764">
        <ele>1037.3</ele>
        <time>2023-04-06T10:24:22Z</time>
      </trkpt>
      <trkpt lat="44.34502" lon="5.62766">
        <ele>1037.5</ele>
        <time>2023-04-06T10:24:23Z</time>
      </trkpt>
      <trkpt lat="44.34501" lon="5.62768">
        <ele>1037.7</ele>
        <time>2023-04-06T10:24:24Z</time>
      </trkpt>
      <trkpt lat="44.34498" lon="5.62772">
        <ele>1038.1</ele>
        <time>2023-04-06T10:24:26Z</time>
      </trkpt>
      <trkpt lat="44.34497" lon="5.62773">
        <ele>1038.3</ele>
        <time>2023-04-06T10:24:27Z</time>
      </trkpt>
      <trkpt lat="44.34496" lon="5.62774">
        <ele>1038.4</ele>
        <time>2023-04-06T10:24:28Z</time>
      </trkpt>
      <trkpt lat="44.34494" lon="5.62775">
        <ele>1038.5</ele>
        <time>2023-04-06T10:24:29Z</time>
      </trkpt>
      <trkpt lat="44.34493" lon="5.62776">
        <ele>1038.7</ele>
        <time>2023-04-06T10:24:30Z</time>
      </trkpt>
      <trkpt lat="44.34491" lon="5.62778">
        <ele>1038.9</ele>
        <time>2023-04-06T10:24:31Z</time>
      </trkpt>
      <trkpt lat="44.3449" lon="5.62779">
        <ele>1039</ele>
        <time>2023-04-06T10:24:32Z</time>
      </trkpt>
      <trkpt lat="44.34488" lon="5.62781">
        <ele>1039.3</ele>
        <time>2023-04-06T10:24:33Z</time>
      </trkpt>
      <trkpt lat="44.34487" lon="5.62783">
        <ele>1039.4</ele>
        <time>2023-04-06T10:24:34Z</time>
      </trkpt>
      <trkpt lat="44.34486" lon="5.62786">
        <ele>1039.7</ele>
        <time>2023-04-06T10:24:35Z</time>
      </trkpt>
      <trkpt lat="44.34485" lon="5.62787">
        <ele>1039.8</ele>
        <time>2023-04-06T10:24:36Z</time>
      </trkpt>
      <trkpt lat="44.34483" lon="5.62791">
        <ele>1040.2</ele>
        <time>2023-04-06T10:24:38Z</time>
      </trkpt>
      <trkpt lat="44.3448" lon="5.62794">
        <ele>1040.6</ele>
        <time>2023-04-06T10:24:39Z</time>
      </trkpt>
      <trkpt lat="44.3448" lon="5.62795">
        <ele>1040.7</ele>
        <time>2023-04-06T10:24:40Z</time>
      </trkpt>
      <trkpt lat="44.34477" lon="5.62797">
        <ele>1041.1</ele>
        <time>2023-04-06T10:24:41Z</time>
      </trkpt>
      <trkpt lat="44.34476" lon="5.62797">
        <ele>1041.2</ele>
        <time>2023-04-06T10:24:42Z</time>
      </trkpt>
      <trkpt lat="44.34474" lon="5.628">
        <ele>1041.6</ele>
        <time>2023-04-06T10:24:43Z</time>
      </trkpt>
      <trkpt lat="44.34473" lon="5.628">
        <ele>1041.7</ele>
        <time>2023-04-06T10:24:44Z</time>
      </trkpt>
      <trkpt lat="44.34472" lon="5.62802">
        <ele>1041.9</ele>
        <time>2023-04-06T10:24:45Z</time>
      </trkpt>
      <trkpt lat="44.3447" lon="5.62803">
        <ele>1042.2</ele>
        <time>2023-04-06T10:24:46Z</time>
      </trkpt>
      <trkpt lat="44.34469" lon="5.62804">
        <ele>1042.5</ele>
        <time>2023-04-06T10:24:47Z</time>
      </trkpt>
      <trkpt lat="44.34465" lon="5.62807">
        <ele>1043.1</ele>
        <time>2023-04-06T10:24:49Z</time>
      </trkpt>
      <trkpt lat="44.34464" lon="5.62808">
        <ele>1043.3</ele>
        <time>2023-04-06T10:24:50Z</time>
      </trkpt>
      <trkpt lat="44.34463" lon="5.62809">
        <ele>1043.6</ele>
        <time>2023-04-06T10:24:51Z</time>
      </trkpt>
      <trkpt lat="44.34461" lon="5.62809">
        <ele>1043.8</ele>
        <time>2023-04-06T10:24:52Z</time>
      </trkpt>
      <trkpt lat="44.3446" lon="5.6281">
        <ele>1044</ele>
        <time>2023-04-06T10:24:53Z</time>
      </trkpt>
      <trkpt lat="44.34457" lon="5.62812">
        <ele>1044.5</ele>
        <time>2023-04-06T10:24:55Z</time>
      </trkpt>
      <trkpt lat="44.34455" lon="5.62813">
        <ele>1044.8</ele>
        <time>2023-04-06T10:24:56Z</time>
      </trkpt>
      <trkpt lat="44.34454" lon="5.62815">
        <ele>1045</ele>
        <time>2023-04-06T10:24:57Z</time>
      </trkpt>
      <trkpt lat="44.34454" lon="5.62817">
        <ele>1045.2</ele>
        <time>2023-04-06T10:24:58Z</time>
      </trkpt>
      <trkpt lat="44.34453" lon="5.62819">
        <ele>1045.4</ele>
        <time>2023-04-06T10:24:59Z</time>
      </trkpt>
      <trkpt lat="44.34453" lon="5.62821">
        <ele>1045.6</ele>
        <time>2023-04-06T10:25:00Z</time>
      </trkpt>
      <trkpt lat="44.34452" lon="5.62823">
        <ele>1045.8</ele>
        <time>2023-04-06T10:25:01Z</time>
      </trkpt>
      <trkpt lat="44.3445" lon="5.62825">
        <ele>1046</ele>
        <time>2023-04-06T10:25:02Z</time>
      </trkpt>
      <trkpt lat="44.34448" lon="5.62828">
        <ele>1046.2</ele>
        <time>2023-04-06T10:25:03Z</time>
      </trkpt>
      <trkpt lat="44.34448" lon="5.62828">
        <ele>1046.3</ele>
        <time>2023-04-06T10:25:04Z</time>
      </trkpt>
      <trkpt lat="44.34445" lon="5.62832">
        <ele>1046.6</ele>
        <time>2023-04-06T10:25:06Z</time>
      </trkpt>
      <trkpt lat="44.34442" lon="5.62834">
        <ele>1046.7</ele>
        <time>2023-04-06T10:25:07Z</time>
      </trkpt>
      <trkpt lat="44.34441" lon="5.62835">
        <ele>1046.8</ele>
        <time>2023-04-06T10:25:08Z</time>
      </trkpt>
      <trkpt lat="44.34439" lon="5.62838">
        <ele>1047</ele>
        <time>2023-04-06T10:25:09Z</time>
      </trkpt>
      <trkpt lat="44.34439" lon="5.6284">
        <ele>1047.1</ele>
        <time>2023-04-06T10:25:10Z</time>
      </trkpt>
      <trkpt lat="44.34438" lon="5.62844">
        <ele>1047.3</ele>
        <time>2023-04-06T10:25:11Z</time>
      </trkpt>
      <trkpt lat="44.34437" lon="5.62845">
        <ele>1047.4</ele>
        <time>2023-04-06T10:25:12Z</time>
      </trkpt>
      <trkpt lat="44.34435" lon="5.62848">
        <ele>1047.6</ele>
        <time>2023-04-06T10:25:13Z</time>
      </trkpt>
      <trkpt lat="44.34434" lon="5.62849">
        <ele>1047.7</ele>
        <time>2023-04-06T10:25:14Z</time>
      </trkpt>
      <trkpt lat="44.34432" lon="5.62851">
        <ele>1047.9</ele>
        <time>2023-04-06T10:25:15Z</time>
      </trkpt>
      <trkpt lat="44.34429" lon="5.62854">
        <ele>1048.2</ele>
        <time>2023-04-06T10:25:17Z</time>
      </trkpt>
      <trkpt lat="44.34428" lon="5.62856">
        <ele>1048.3</ele>
        <time>2023-04-06T10:25:18Z</time>
      </trkpt>
      <trkpt lat="44.34427" lon="5.62858">
        <ele>1048.4</ele>
        <time>2023-04-06T10:25:19Z</time>
      </trkpt>
      <trkpt lat="44.34425" lon="5.62859">
        <ele>1048.5</ele>
        <time>2023-04-06T10:25:20Z</time>
      </trkpt>
      <trkpt lat="44.34423" lon="5.62863">
        <ele>1048.8</ele>
        <time>2023-04-06T10:25:21Z</time>
      </trkpt>
      <trkpt lat="44.34422" lon="5.62864">
        <ele>1048.8</ele>
        <time>2023-04-06T10:25:22Z</time>
      </trkpt>
      <trkpt lat="44.34419" lon="5.62866">
        <ele>1049</ele>
        <time>2023-04-06T10:25:23Z</time>
      </trkpt>
      <trkpt lat="44.34418" lon="5.62867">
        <ele>1049.1</ele>
        <time>2023-04-06T10:25:24Z</time>
      </trkpt>
      <trkpt lat="44.34416" lon="5.62869">
        <ele>1049.3</ele>
        <time>2023-04-06T10:25:25Z</time>
      </trkpt>
      <trkpt lat="44.34415" lon="5.6287">
        <ele>1049.4</ele>
        <time>2023-04-06T10:25:26Z</time>
      </trkpt>
      <trkpt lat="44.34412" lon="5.62873">
        <ele>1049.6</ele>
        <time>2023-04-06T10:25:27Z</time>
      </trkpt>
      <trkpt lat="44.34412" lon="5.62874">
        <ele>1049.6</ele>
        <time>2023-04-06T10:25:28Z</time>
      </trkpt>
      <trkpt lat="44.34409" lon="5.62877">
        <ele>1049.9</ele>
        <time>2023-04-06T10:25:29Z</time>
      </trkpt>
      <trkpt lat="44.34409" lon="5.62878">
        <ele>1049.9</ele>
        <time>2023-04-06T10:25:30Z</time>
      </trkpt>
      <trkpt lat="44.34407" lon="5.62881">
        <ele>1050.2</ele>
        <time>2023-04-06T10:25:31Z</time>
      </trkpt>
      <trkpt lat="44.34406" lon="5.62882">
        <ele>1050.3</ele>
        <time>2023-04-06T10:25:32Z</time>
      </trkpt>
      <trkpt lat="44.34404" lon="5.62885">
        <ele>1050.5</ele>
        <time>2023-04-06T10:25:33Z</time>
      </trkpt>
      <trkpt lat="44.34403" lon="5.62886">
        <ele>1050.6</ele>
        <time>2023-04-06T10:25:34Z</time>
      </trkpt>
      <trkpt lat="44.34402" lon="5.6289">
        <ele>1050.9</ele>
        <time>2023-04-06T10:25:35Z</time>
      </trkpt>
      <trkpt lat="44.34401" lon="5.62891">
        <ele>1051</ele>
        <time>2023-04-06T10:25:36Z</time>
      </trkpt>
      <trkpt lat="44.34399" lon="5.62894">
        <ele>1051.4</ele>
        <time>2023-04-06T10:25:37Z</time>
      </trkpt>
      <trkpt lat="44.34399" lon="5.62895">
        <ele>1051.5</ele>
        <time>2023-04-06T10:25:38Z</time>
      </trkpt>
      <trkpt lat="44.34397" lon="5.62897">
        <ele>1051.8</ele>
        <time>2023-04-06T10:25:39Z</time>
      </trkpt>
      <trkpt lat="44.34396" lon="5.62898">
        <ele>1052</ele>
        <time>2023-04-06T10:25:40Z</time>
      </trkpt>
      <trkpt lat="44.34393" lon="5.62901">
        <ele>1052.4</ele>
        <time>2023-04-06T10:25:41Z</time>
      </trkpt>
      <trkpt lat="44.34393" lon="5.62902">
        <ele>1052.5</ele>
        <time>2023-04-06T10:25:42Z</time>
      </trkpt>
      <trkpt lat="44.34391" lon="5.62905">
        <ele>1052.9</ele>
        <time>2023-04-06T10:25:43Z</time>
      </trkpt>
      <trkpt lat="44.3439" lon="5.62906">
        <ele>1053.1</ele>
        <time>2023-04-06T10:25:44Z</time>
      </trkpt>
      <trkpt lat="44.34388" lon="5.62908">
        <ele>1053.5</ele>
        <time>2023-04-06T10:25:45Z</time>
      </trkpt>
      <trkpt lat="44.34387" lon="5.62909">
        <ele>1053.6</ele>
        <time>2023-04-06T10:25:46Z</time>
      </trkpt>
      <trkpt lat="44.34385" lon="5.62913">
        <ele>1054</ele>
        <time>2023-04-06T10:25:47Z</time>
      </trkpt>
      <trkpt lat="44.34384" lon="5.62914">
        <ele>1054.1</ele>
        <time>2023-04-06T10:25:48Z</time>
      </trkpt>
      <trkpt lat="44.34383" lon="5.62917">
        <ele>1054.5</ele>
        <time>2023-04-06T10:25:49Z</time>
      </trkpt>
      <trkpt lat="44.34382" lon="5.62918">
        <ele>1054.7</ele>
        <time>2023-04-06T10:25:50Z</time>
      </trkpt>
      <trkpt lat="44.3438" lon="5.62922">
        <ele>1055</ele>
        <time>2023-04-06T10:25:51Z</time>
      </trkpt>
      <trkpt lat="44.3438" lon="5.62923">
        <ele>1055.1</ele>
        <time>2023-04-06T10:25:52Z</time>
      </trkpt>
      <trkpt lat="44.34378" lon="5.62926">
        <ele>1055.5</ele>
        <time>2023-04-06T10:25:53Z</time>
      </trkpt>
      <trkpt lat="44.34378" lon="5.62927">
        <ele>1055.7</ele>
        <time>2023-04-06T10:25:54Z</time>
      </trkpt>
      <trkpt lat="44.34376" lon="5.62929">
        <ele>1055.9</ele>
        <time>2023-04-06T10:25:55Z</time>
      </trkpt>
      <trkpt lat="44.34375" lon="5.6293">
        <ele>1056.2</ele>
        <time>2023-04-06T10:25:56Z</time>
      </trkpt>
      <trkpt lat="44.34374" lon="5.62932">
        <ele>1056.5</ele>
        <time>2023-04-06T10:25:57Z</time>
      </trkpt>
      <trkpt lat="44.34373" lon="5.62934">
        <ele>1056.8</ele>
        <time>2023-04-06T10:25:58Z</time>
      </trkpt>
      <trkpt lat="44.34372" lon="5.62936">
        <ele>1057.1</ele>
        <time>2023-04-06T10:25:59Z</time>
      </trkpt>
      <trkpt lat="44.34371" lon="5.62937">
        <ele>1057.4</ele>
        <time>2023-04-06T10:26:00Z</time>
      </trkpt>
      <trkpt lat="44.3437" lon="5.62939">
        <ele>1057.7</ele>
        <time>2023-04-06T10:26:01Z</time>
      </trkpt>
      <trkpt lat="44.34369" lon="5.62941">
        <ele>1058</ele>
        <time>2023-04-06T10:26:02Z</time>
      </trkpt>
      <trkpt lat="44.34366" lon="5.62944">
        <ele>1058.5</ele>
        <time>2023-04-06T10:26:03Z</time>
      </trkpt>
      <trkpt lat="44.34366" lon="5.62945">
        <ele>1058.7</ele>
        <time>2023-04-06T10:26:04Z</time>
      </trkpt>
      <trkpt lat="44.34364" lon="5.62948">
        <ele>1059.1</ele>
        <time>2023-04-06T10:26:05Z</time>
      </trkpt>
      <trkpt lat="44.34363" lon="5.62949">
        <ele>1059.3</ele>
        <time>2023-04-06T10:26:06Z</time>
      </trkpt>
      <trkpt lat="44.3436" lon="5.62951">
        <ele>1059.7</ele>
        <time>2023-04-06T10:26:07Z</time>
      </trkpt>
      <trkpt lat="44.3436" lon="5.62952">
        <ele>1059.9</ele>
        <time>2023-04-06T10:26:08Z</time>
      </trkpt>
      <trkpt lat="44.34357" lon="5.62955">
        <ele>1060.4</ele>
        <time>2023-04-06T10:26:09Z</time>
      </trkpt>
      <trkpt lat="44.34357" lon="5.62956">
        <ele>1060.5</ele>
        <time>2023-04-06T10:26:10Z</time>
      </trkpt>
      <trkpt lat="44.34355" lon="5.62957">
        <ele>1060.8</ele>
        <time>2023-04-06T10:26:11Z</time>
      </trkpt>
      <trkpt lat="44.34354" lon="5.62959">
        <ele>1061.1</ele>
        <time>2023-04-06T10:26:12Z</time>
      </trkpt>
      <trkpt lat="44.34352" lon="5.62961">
        <ele>1061.6</ele>
        <time>2023-04-06T10:26:13Z</time>
      </trkpt>
      <trkpt lat="44.34351" lon="5.62961">
        <ele>1061.8</ele>
        <time>2023-04-06T10:26:14Z</time>
      </trkpt>
      <trkpt lat="44.34349" lon="5.62964">
        <ele>1062.4</ele>
        <time>2023-04-06T10:26:15Z</time>
      </trkpt>
      <trkpt lat="44.34348" lon="5.62965">
        <ele>1062.6</ele>
        <time>2023-04-06T10:26:16Z</time>
      </trkpt>
      <trkpt lat="44.34346" lon="5.62968">
        <ele>1063.1</ele>
        <time>2023-04-06T10:26:17Z</time>
      </trkpt>
      <trkpt lat="44.34345" lon="5.62969">
        <ele>1063.3</ele>
        <time>2023-04-06T10:26:18Z</time>
      </trkpt>
      <trkpt lat="44.34343" lon="5.62972">
        <ele>1063.8</ele>
        <time>2023-04-06T10:26:19Z</time>
      </trkpt>
      <trkpt lat="44.34343" lon="5.62973">
        <ele>1064</ele>
        <time>2023-04-06T10:26:20Z</time>
      </trkpt>
      <trkpt lat="44.34342" lon="5.62974">
        <ele>1064.2</ele>
        <time>2023-04-06T10:26:21Z</time>
      </trkpt>
      <trkpt lat="44.34341" lon="5.62976">
        <ele>1064.5</ele>
        <time>2023-04-06T10:26:22Z</time>
      </trkpt>
      <trkpt lat="44.3434" lon="5.62978">
        <ele>1064.8</ele>
        <time>2023-04-06T10:26:23Z</time>
      </trkpt>
      <trkpt lat="44.34339" lon="5.6298">
        <ele>1065.1</ele>
        <time>2023-04-06T10:26:24Z</time>
      </trkpt>
      <trkpt lat="44.34338" lon="5.62982">
        <ele>1065.4</ele>
        <time>2023-04-06T10:26:25Z</time>
      </trkpt>
      <trkpt lat="44.34338" lon="5.62985">
        <ele>1065.6</ele>
        <time>2023-04-06T10:26:26Z</time>
      </trkpt>
      <trkpt lat="44.34338" lon="5.62986">
        <ele>1065.8</ele>
        <time>2023-04-06T10:26:27Z</time>
      </trkpt>
      <trkpt lat="44.34337" lon="5.62988">
        <ele>1066.1</ele>
        <time>2023-04-06T10:26:28Z</time>
      </trkpt>
      <trkpt lat="44.34336" lon="5.6299">
        <ele>1066.4</ele>
        <time>2023-04-06T10:26:29Z</time>
      </trkpt>
      <trkpt lat="44.34335" lon="5.62992">
        <ele>1066.7</ele>
        <time>2023-04-06T10:26:30Z</time>
      </trkpt>
      <trkpt lat="44.34334" lon="5.62994">
        <ele>1067</ele>
        <time>2023-04-06T10:26:31Z</time>
      </trkpt>
      <trkpt lat="44.34333" lon="5.62995">
        <ele>1067.3</ele>
        <time>2023-04-06T10:26:32Z</time>
      </trkpt>
      <trkpt lat="44.34332" lon="5.62998">
        <ele>1067.8</ele>
        <time>2023-04-06T10:26:34Z</time>
      </trkpt>
      <trkpt lat="44.34332" lon="5.62999">
        <ele>1068.1</ele>
        <time>2023-04-06T10:26:35Z</time>
      </trkpt>
      <trkpt lat="44.34332" lon="5.63002">
        <ele>1068.4</ele>
        <time>2023-04-06T10:26:36Z</time>
      </trkpt>
      <trkpt lat="44.34332" lon="5.63004">
        <ele>1068.7</ele>
        <time>2023-04-06T10:26:37Z</time>
      </trkpt>
      <trkpt lat="44.34331" lon="5.63006">
        <ele>1069.1</ele>
        <time>2023-04-06T10:26:38Z</time>
      </trkpt>
      <trkpt lat="44.3433" lon="5.63007">
        <ele>1069.4</ele>
        <time>2023-04-06T10:26:39Z</time>
      </trkpt>
      <trkpt lat="44.34328" lon="5.63013">
        <ele>1070.4</ele>
        <time>2023-04-06T10:26:41Z</time>
      </trkpt>
      <trkpt lat="44.34328" lon="5.63015">
        <ele>1070.6</ele>
        <time>2023-04-06T10:26:42Z</time>
      </trkpt>
      <trkpt lat="44.34328" lon="5.63017">
        <ele>1070.9</ele>
        <time>2023-04-06T10:26:43Z</time>
      </trkpt>
      <trkpt lat="44.34328" lon="5.63019">
        <ele>1071.2</ele>
        <time>2023-04-06T10:26:44Z</time>
      </trkpt>
      <trkpt lat="44.34327" lon="5.63021">
        <ele>1071.5</ele>
        <time>2023-04-06T10:26:45Z</time>
      </trkpt>
      <trkpt lat="44.34326" lon="5.63026">
        <ele>1072.2</ele>
        <time>2023-04-06T10:26:47Z</time>
      </trkpt>
      <trkpt lat="44.34324" lon="5.63029">
        <ele>1072.7</ele>
        <time>2023-04-06T10:26:48Z</time>
      </trkpt>
      <trkpt lat="44.34323" lon="5.6303">
        <ele>1072.9</ele>
        <time>2023-04-06T10:26:49Z</time>
      </trkpt>
      <trkpt lat="44.34322" lon="5.63032">
        <ele>1073.3</ele>
        <time>2023-04-06T10:26:50Z</time>
      </trkpt>
      <trkpt lat="44.34321" lon="5.63034">
        <ele>1073.5</ele>
        <time>2023-04-06T10:26:51Z</time>
      </trkpt>
      <trkpt lat="44.34319" lon="5.6304">
        <ele>1074.3</ele>
        <time>2023-04-06T10:26:53Z</time>
      </trkpt>
      <trkpt lat="44.34319" lon="5.63042">
        <ele>1074.6</ele>
        <time>2023-04-06T10:26:54Z</time>
      </trkpt>
      <trkpt lat="44.34318" lon="5.63043">
        <ele>1074.8</ele>
        <time>2023-04-06T10:26:55Z</time>
      </trkpt>
      <trkpt lat="44.34316" lon="5.63046">
        <ele>1075.2</ele>
        <time>2023-04-06T10:26:56Z</time>
      </trkpt>
      <trkpt lat="44.34315" lon="5.63047">
        <ele>1075.3</ele>
        <time>2023-04-06T10:26:57Z</time>
      </trkpt>
      <trkpt lat="44.34313" lon="5.63052">
        <ele>1075.9</ele>
        <time>2023-04-06T10:26:59Z</time>
      </trkpt>
      <trkpt lat="44.34312" lon="5.63053">
        <ele>1076.1</ele>
        <time>2023-04-06T10:27:00Z</time>
      </trkpt>
      <trkpt lat="44.34311" lon="5.63054">
        <ele>1076.2</ele>
        <time>2023-04-06T10:27:01Z</time>
      </trkpt>
      <trkpt lat="44.34311" lon="5.63055">
        <ele>1076.4</ele>
        <time>2023-04-06T10:27:02Z</time>
      </trkpt>
      <trkpt lat="44.3431" lon="5.63057">
        <ele>1076.6</ele>
        <time>2023-04-06T10:27:03Z</time>
      </trkpt>
      <trkpt lat="44.34306" lon="5.63059">
        <ele>1077.3</ele>
        <time>2023-04-06T10:27:05Z</time>
      </trkpt>
      <trkpt lat="44.34304" lon="5.63059">
        <ele>1077.7</ele>
        <time>2023-04-06T10:27:06Z</time>
      </trkpt>
      <trkpt lat="44.34301" lon="5.63061">
        <ele>1078.1</ele>
        <time>2023-04-06T10:27:07Z</time>
      </trkpt>
      <trkpt lat="44.343" lon="5.63061">
        <ele>1078.3</ele>
        <time>2023-04-06T10:27:08Z</time>
      </trkpt>
      <trkpt lat="44.34298" lon="5.63063">
        <ele>1078.7</ele>
        <time>2023-04-06T10:27:09Z</time>
      </trkpt>
      <trkpt lat="44.34297" lon="5.63064">
        <ele>1078.8</ele>
        <time>2023-04-06T10:27:10Z</time>
      </trkpt>
      <trkpt lat="44.34294" lon="5.63065">
        <ele>1079.2</ele>
        <time>2023-04-06T10:27:11Z</time>
      </trkpt>
      <trkpt lat="44.34293" lon="5.63066">
        <ele>1079.4</ele>
        <time>2023-04-06T10:27:12Z</time>
      </trkpt>
      <trkpt lat="44.3429" lon="5.63067">
        <ele>1079.8</ele>
        <time>2023-04-06T10:27:13Z</time>
      </trkpt>
      <trkpt lat="44.34289" lon="5.63067">
        <ele>1080</ele>
        <time>2023-04-06T10:27:14Z</time>
      </trkpt>
      <trkpt lat="44.34285" lon="5.63069">
        <ele>1080.5</ele>
        <time>2023-04-06T10:27:16Z</time>
      </trkpt>
      <trkpt lat="44.34284" lon="5.63069">
        <ele>1080.7</ele>
        <time>2023-04-06T10:27:17Z</time>
      </trkpt>
      <trkpt lat="44.34282" lon="5.6307">
        <ele>1081</ele>
        <time>2023-04-06T10:27:18Z</time>
      </trkpt>
      <trkpt lat="44.34281" lon="5.63071">
        <ele>1081.2</ele>
        <time>2023-04-06T10:27:19Z</time>
      </trkpt>
      <trkpt lat="44.3428" lon="5.63073">
        <ele>1081.5</ele>
        <time>2023-04-06T10:27:20Z</time>
      </trkpt>
      <trkpt lat="44.34279" lon="5.63073">
        <ele>1081.7</ele>
        <time>2023-04-06T10:27:21Z</time>
      </trkpt>
      <trkpt lat="44.34277" lon="5.63074">
        <ele>1082</ele>
        <time>2023-04-06T10:27:22Z</time>
      </trkpt>
      <trkpt lat="44.34274" lon="5.63076">
        <ele>1082.5</ele>
        <time>2023-04-06T10:27:23Z</time>
      </trkpt>
      <trkpt lat="44.34273" lon="5.63076">
        <ele>1082.7</ele>
        <time>2023-04-06T10:27:24Z</time>
      </trkpt>
      <trkpt lat="44.34271" lon="5.63077">
        <ele>1083</ele>
        <time>2023-04-06T10:27:25Z</time>
      </trkpt>
      <trkpt lat="44.34268" lon="5.63079">
        <ele>1083.6</ele>
        <time>2023-04-06T10:27:27Z</time>
      </trkpt>
      <trkpt lat="44.34266" lon="5.63079">
        <ele>1083.9</ele>
        <time>2023-04-06T10:27:28Z</time>
      </trkpt>
      <trkpt lat="44.34264" lon="5.6308">
        <ele>1084.2</ele>
        <time>2023-04-06T10:27:29Z</time>
      </trkpt>
      <trkpt lat="44.34263" lon="5.6308">
        <ele>1084.4</ele>
        <time>2023-04-06T10:27:30Z</time>
      </trkpt>
      <trkpt lat="44.34261" lon="5.63081">
        <ele>1084.7</ele>
        <time>2023-04-06T10:27:31Z</time>
      </trkpt>
      <trkpt lat="44.34259" lon="5.63082">
        <ele>1085</ele>
        <time>2023-04-06T10:27:32Z</time>
      </trkpt>
      <trkpt lat="44.34257" lon="5.63083">
        <ele>1085.4</ele>
        <time>2023-04-06T10:27:33Z</time>
      </trkpt>
      <trkpt lat="44.34256" lon="5.63084">
        <ele>1085.5</ele>
        <time>2023-04-06T10:27:34Z</time>
      </trkpt>
      <trkpt lat="44.34254" lon="5.63085">
        <ele>1085.8</ele>
        <time>2023-04-06T10:27:35Z</time>
      </trkpt>
      <trkpt lat="44.34253" lon="5.63086">
        <ele>1086.1</ele>
        <time>2023-04-06T10:27:36Z</time>
      </trkpt>
      <trkpt lat="44.3425" lon="5.63088">
        <ele>1086.6</ele>
        <time>2023-04-06T10:27:38Z</time>
      </trkpt>
      <trkpt lat="44.3425" lon="5.63089">
        <ele>1086.7</ele>
        <time>2023-04-06T10:27:39Z</time>
      </trkpt>
      <trkpt lat="44.34249" lon="5.6309">
        <ele>1086.9</ele>
        <time>2023-04-06T10:27:40Z</time>
      </trkpt>
      <trkpt lat="44.34248" lon="5.63091">
        <ele>1087</ele>
        <time>2023-04-06T10:27:41Z</time>
      </trkpt>
      <trkpt lat="44.34247" lon="5.63091">
        <ele>1087.2</ele>
        <time>2023-04-06T10:27:42Z</time>
      </trkpt>
      <trkpt lat="44.34246" lon="5.63093">
        <ele>1087.4</ele>
        <time>2023-04-06T10:27:43Z</time>
      </trkpt>
      <trkpt lat="44.34245" lon="5.63095">
        <ele>1087.7</ele>
        <time>2023-04-06T10:27:44Z</time>
      </trkpt>
      <trkpt lat="44.34244" lon="5.63097">
        <ele>1087.9</ele>
        <time>2023-04-06T10:27:45Z</time>
      </trkpt>
      <trkpt lat="44.34244" lon="5.63098">
        <ele>1088.2</ele>
        <time>2023-04-06T10:27:46Z</time>
      </trkpt>
      <trkpt lat="44.34242" lon="5.63101">
        <ele>1088.6</ele>
        <time>2023-04-06T10:27:47Z</time>
      </trkpt>
      <trkpt lat="44.34241" lon="5.63103">
        <ele>1088.8</ele>
        <time>2023-04-06T10:27:49Z</time>
      </trkpt>
      <trkpt lat="44.3424" lon="5.63104">
        <ele>1089.1</ele>
        <time>2023-04-06T10:27:50Z</time>
      </trkpt>
      <trkpt lat="44.34239" lon="5.63105">
        <ele>1089.3</ele>
        <time>2023-04-06T10:27:51Z</time>
      </trkpt>
      <trkpt lat="44.34238" lon="5.63108">
        <ele>1089.6</ele>
        <time>2023-04-06T10:27:52Z</time>
      </trkpt>
      <trkpt lat="44.34238" lon="5.6311">
        <ele>1089.8</ele>
        <time>2023-04-06T10:27:53Z</time>
      </trkpt>
      <trkpt lat="44.34236" lon="5.63114">
        <ele>1090.3</ele>
        <time>2023-04-06T10:27:55Z</time>
      </trkpt>
      <trkpt lat="44.34235" lon="5.63114">
        <ele>1090.5</ele>
        <time>2023-04-06T10:27:56Z</time>
      </trkpt>
      <trkpt lat="44.34232" lon="5.63116">
        <ele>1091</ele>
        <time>2023-04-06T10:27:57Z</time>
      </trkpt>
      <trkpt lat="44.34232" lon="5.63116">
        <ele>1091.2</ele>
        <time>2023-04-06T10:27:58Z</time>
      </trkpt>
      <trkpt lat="44.3423" lon="5.63118">
        <ele>1091.5</ele>
        <time>2023-04-06T10:27:59Z</time>
      </trkpt>
      <trkpt lat="44.34228" lon="5.63122">
        <ele>1092.1</ele>
        <time>2023-04-06T10:28:01Z</time>
      </trkpt>
      <trkpt lat="44.34227" lon="5.63124">
        <ele>1092.4</ele>
        <time>2023-04-06T10:28:02Z</time>
      </trkpt>
      <trkpt lat="44.34225" lon="5.63126">
        <ele>1092.7</ele>
        <time>2023-04-06T10:28:03Z</time>
      </trkpt>
      <trkpt lat="44.34224" lon="5.63127">
        <ele>1093</ele>
        <time>2023-04-06T10:28:04Z</time>
      </trkpt>
      <trkpt lat="44.34223" lon="5.6313">
        <ele>1093.5</ele>
        <time>2023-04-06T10:28:05Z</time>
      </trkpt>
      <trkpt lat="44.34222" lon="5.63131">
        <ele>1093.7</ele>
        <time>2023-04-06T10:28:06Z</time>
      </trkpt>
      <trkpt lat="44.3422" lon="5.63134">
        <ele>1094.2</ele>
        <time>2023-04-06T10:28:07Z</time>
      </trkpt>
      <trkpt lat="44.3422" lon="5.63135">
        <ele>1094.4</ele>
        <time>2023-04-06T10:28:08Z</time>
      </trkpt>
      <trkpt lat="44.34218" lon="5.63138">
        <ele>1094.9</ele>
        <time>2023-04-06T10:28:09Z</time>
      </trkpt>
      <trkpt lat="44.34217" lon="5.63139">
        <ele>1095.1</ele>
        <time>2023-04-06T10:28:10Z</time>
      </trkpt>
      <trkpt lat="44.34214" lon="5.63141">
        <ele>1095.7</ele>
        <time>2023-04-06T10:28:12Z</time>
      </trkpt>
      <trkpt lat="44.34213" lon="5.63142">
        <ele>1095.9</ele>
        <time>2023-04-06T10:28:13Z</time>
      </trkpt>
      <trkpt lat="44.34211" lon="5.63143">
        <ele>1096.2</ele>
        <time>2023-04-06T10:28:14Z</time>
      </trkpt>
      <trkpt lat="44.3421" lon="5.63144">
        <ele>1096.5</ele>
        <time>2023-04-06T10:28:15Z</time>
      </trkpt>
      <trkpt lat="44.34208" lon="5.63145">
        <ele>1096.9</ele>
        <time>2023-04-06T10:28:16Z</time>
      </trkpt>
      <trkpt lat="44.34207" lon="5.63147">
        <ele>1097.3</ele>
        <time>2023-04-06T10:28:17Z</time>
      </trkpt>
      <trkpt lat="44.34206" lon="5.63148">
        <ele>1097.5</ele>
        <time>2023-04-06T10:28:18Z</time>
      </trkpt>
      <trkpt lat="44.34205" lon="5.63149">
        <ele>1097.6</ele>
        <time>2023-04-06T10:28:19Z</time>
      </trkpt>
      <trkpt lat="44.34203" lon="5.63152">
        <ele>1098.2</ele>
        <time>2023-04-06T10:28:20Z</time>
      </trkpt>
      <trkpt lat="44.34203" lon="5.63153">
        <ele>1098.3</ele>
        <time>2023-04-06T10:28:21Z</time>
      </trkpt>
      <trkpt lat="44.342" lon="5.63156">
        <ele>1098.9</ele>
        <time>2023-04-06T10:28:22Z</time>
      </trkpt>
      <trkpt lat="44.342" lon="5.63157">
        <ele>1099.1</ele>
        <time>2023-04-06T10:28:23Z</time>
      </trkpt>
      <trkpt lat="44.34197" lon="5.63161">
        <ele>1099.9</ele>
        <time>2023-04-06T10:28:25Z</time>
      </trkpt>
      <trkpt lat="44.34196" lon="5.63163">
        <ele>1100.2</ele>
        <time>2023-04-06T10:28:26Z</time>
      </trkpt>
      <trkpt lat="44.34195" lon="5.63164">
        <ele>1100.5</ele>
        <time>2023-04-06T10:28:27Z</time>
      </trkpt>
      <trkpt lat="44.34194" lon="5.63165">
        <ele>1100.7</ele>
        <time>2023-04-06T10:28:28Z</time>
      </trkpt>
      <trkpt lat="44.34193" lon="5.63166">
        <ele>1100.9</ele>
        <time>2023-04-06T10:28:29Z</time>
      </trkpt>
      <trkpt lat="44.34191" lon="5.63167">
        <ele>1101.4</ele>
        <time>2023-04-06T10:28:30Z</time>
      </trkpt>
      <trkpt lat="44.34189" lon="5.63168">
        <ele>1101.7</ele>
        <time>2023-04-06T10:28:31Z</time>
      </trkpt>
      <trkpt lat="44.34187" lon="5.6317">
        <ele>1102.3</ele>
        <time>2023-04-06T10:28:32Z</time>
      </trkpt>
      <trkpt lat="44.34185" lon="5.6317">
        <ele>1102.5</ele>
        <time>2023-04-06T10:28:33Z</time>
      </trkpt>
      <trkpt lat="44.34184" lon="5.63172">
        <ele>1102.9</ele>
        <time>2023-04-06T10:28:34Z</time>
      </trkpt>
      <trkpt lat="44.34183" lon="5.63173">
        <ele>1103.2</ele>
        <time>2023-04-06T10:28:35Z</time>
      </trkpt>
      <trkpt lat="44.34181" lon="5.63176">
        <ele>1103.7</ele>
        <time>2023-04-06T10:28:36Z</time>
      </trkpt>
      <trkpt lat="44.3418" lon="5.63177">
        <ele>1103.9</ele>
        <time>2023-04-06T10:28:37Z</time>
      </trkpt>
      <trkpt lat="44.34179" lon="5.63179">
        <ele>1104.3</ele>
        <time>2023-04-06T10:28:38Z</time>
      </trkpt>
      <trkpt lat="44.34178" lon="5.6318">
        <ele>1104.6</ele>
        <time>2023-04-06T10:28:39Z</time>
      </trkpt>
      <trkpt lat="44.34177" lon="5.63182">
        <ele>1104.9</ele>
        <time>2023-04-06T10:28:40Z</time>
      </trkpt>
      <trkpt lat="44.34177" lon="5.63184">
        <ele>1105.2</ele>
        <time>2023-04-06T10:28:41Z</time>
      </trkpt>
      <trkpt lat="44.34177" lon="5.63185">
        <ele>1105.5</ele>
        <time>2023-04-06T10:28:42Z</time>
      </trkpt>
      <trkpt lat="44.34177" lon="5.63186">
        <ele>1105.6</ele>
        <time>2023-04-06T10:28:43Z</time>
      </trkpt>
      <trkpt lat="44.34177" lon="5.63186">
        <ele>1105.7</ele>
        <time>2023-04-06T10:28:44Z</time>
      </trkpt>
      <trkpt lat="44.34177" lon="5.63186">
        <ele>1105.7</ele>
        <time>2023-04-06T10:28:45Z</time>
      </trkpt>
      <trkpt lat="44.34177" lon="5.63187">
        <ele>1105.7</ele>
        <time>2023-04-06T10:28:46Z</time>
      </trkpt>
      <trkpt lat="44.34177" lon="5.63187">
        <ele>1105.8</ele>
        <time>2023-04-06T10:28:47Z</time>
      </trkpt>
      <trkpt lat="44.34177" lon="5.63187">
        <ele>1105.8</ele>
        <time>2023-04-06T10:28:48Z</time>
      </trkpt>
      <trkpt lat="44.34176" lon="5.63187">
        <ele>1106</ele>
        <time>2023-04-06T10:28:49Z</time>
      </trkpt>
      <trkpt lat="44.34176" lon="5.63187">
        <ele>1106.1</ele>
        <time>2023-04-06T10:28:50Z</time>
      </trkpt>
      <trkpt lat="44.34176" lon="5.63187">
        <ele>1106.2</ele>
        <time>2023-04-06T10:28:51Z</time>
      </trkpt>
      <trkpt lat="44.34176" lon="5.63188">
        <ele>1106.2</ele>
        <time>2023-04-06T10:28:52Z</time>
      </trkpt>
      <trkpt lat="44.34176" lon="5.63188">
        <ele>1106.3</ele>
        <time>2023-04-06T10:28:53Z</time>
      </trkpt>
      <trkpt lat="44.34175" lon="5.63189">
        <ele>1106.5</ele>
        <time>2023-04-06T10:28:54Z</time>
      </trkpt>
      <trkpt lat="44.34175" lon="5.63189">
        <ele>1106.6</ele>
        <time>2023-04-06T10:28:55Z</time>
      </trkpt>
      <trkpt lat="44.34175" lon="5.6319">
        <ele>1106.6</ele>
        <time>2023-04-06T10:28:56Z</time>
      </trkpt>
      <trkpt lat="44.34175" lon="5.6319">
        <ele>1106.6</ele>
        <time>2023-04-06T10:28:57Z</time>
      </trkpt>
      <trkpt lat="44.34175" lon="5.6319">
        <ele>1106.7</ele>
        <time>2023-04-06T10:28:58Z</time>
      </trkpt>
      <trkpt lat="44.34175" lon="5.6319">
        <ele>1106.7</ele>
        <time>2023-04-06T10:28:59Z</time>
      </trkpt>
      <trkpt lat="44.34175" lon="5.6319">
        <ele>1106.8</ele>
        <time>2023-04-06T10:29:00Z</time>
      </trkpt>
      <trkpt lat="44.34175" lon="5.63191">
        <ele>1106.9</ele>
        <time>2023-04-06T10:29:01Z</time>
      </trkpt>
      <trkpt lat="44.34174" lon="5.63191">
        <ele>1106.9</ele>
        <time>2023-04-06T10:29:02Z</time>
      </trkpt>
      <trkpt lat="44.34174" lon="5.63191">
        <ele>1107</ele>
        <time>2023-04-06T10:29:03Z</time>
      </trkpt>
      <trkpt lat="44.34174" lon="5.63191">
        <ele>1107</ele>
        <time>2023-04-06T10:29:04Z</time>
      </trkpt>
      <trkpt lat="44.34174" lon="5.63191">
        <ele>1107</ele>
        <time>2023-04-06T10:29:05Z</time>
      </trkpt>
      <trkpt lat="44.3417" lon="5.63196">
        <ele>1108.4</ele>
        <time>2023-04-06T10:29:18Z</time>
      </trkpt>
      <trkpt lat="44.3417" lon="5.63198">
        <ele>1108.7</ele>
        <time>2023-04-06T10:29:19Z</time>
      </trkpt>
      <trkpt lat="44.3417" lon="5.63202">
        <ele>1109.4</ele>
        <time>2023-04-06T10:29:21Z</time>
      </trkpt>
      <trkpt lat="44.34169" lon="5.63204">
        <ele>1109.7</ele>
        <time>2023-04-06T10:29:22Z</time>
      </trkpt>
      <trkpt lat="44.34167" lon="5.63207">
        <ele>1110.4</ele>
        <time>2023-04-06T10:29:24Z</time>
      </trkpt>
      <trkpt lat="44.34166" lon="5.63208">
        <ele>1110.7</ele>
        <time>2023-04-06T10:29:25Z</time>
      </trkpt>
      <trkpt lat="44.34163" lon="5.63213">
        <ele>1111.7</ele>
        <time>2023-04-06T10:29:27Z</time>
      </trkpt>
      <trkpt lat="44.34162" lon="5.63215">
        <ele>1111.9</ele>
        <time>2023-04-06T10:29:28Z</time>
      </trkpt>
      <trkpt lat="44.34161" lon="5.63216">
        <ele>1112.2</ele>
        <time>2023-04-06T10:29:29Z</time>
      </trkpt>
      <trkpt lat="44.3416" lon="5.6322">
        <ele>1112.8</ele>
        <time>2023-04-06T10:29:30Z</time>
      </trkpt>
      <trkpt lat="44.34159" lon="5.63221">
        <ele>1113</ele>
        <time>2023-04-06T10:29:31Z</time>
      </trkpt>
      <trkpt lat="44.34158" lon="5.63224">
        <ele>1113.5</ele>
        <time>2023-04-06T10:29:32Z</time>
      </trkpt>
      <trkpt lat="44.34157" lon="5.63225">
        <ele>1113.7</ele>
        <time>2023-04-06T10:29:33Z</time>
      </trkpt>
      <trkpt lat="44.34156" lon="5.63227">
        <ele>1114.1</ele>
        <time>2023-04-06T10:29:34Z</time>
      </trkpt>
      <trkpt lat="44.34155" lon="5.63229">
        <ele>1114.4</ele>
        <time>2023-04-06T10:29:35Z</time>
      </trkpt>
      <trkpt lat="44.34155" lon="5.63231">
        <ele>1114.8</ele>
        <time>2023-04-06T10:29:36Z</time>
      </trkpt>
      <trkpt lat="44.34153" lon="5.63235">
        <ele>1115.4</ele>
        <time>2023-04-06T10:29:38Z</time>
      </trkpt>
      <trkpt lat="44.34152" lon="5.63237">
        <ele>1115.7</ele>
        <time>2023-04-06T10:29:39Z</time>
      </trkpt>
      <trkpt lat="44.34151" lon="5.63238">
        <ele>1115.9</ele>
        <time>2023-04-06T10:29:40Z</time>
      </trkpt>
      <trkpt lat="44.3415" lon="5.6324">
        <ele>1116.3</ele>
        <time>2023-04-06T10:29:41Z</time>
      </trkpt>
      <trkpt lat="44.34149" lon="5.63244">
        <ele>1116.9</ele>
        <time>2023-04-06T10:29:42Z</time>
      </trkpt>
      <trkpt lat="44.34148" lon="5.63245">
        <ele>1117.1</ele>
        <time>2023-04-06T10:29:43Z</time>
      </trkpt>
      <trkpt lat="44.34145" lon="5.63247">
        <ele>1117.7</ele>
        <time>2023-04-06T10:29:44Z</time>
      </trkpt>
      <trkpt lat="44.34145" lon="5.63248">
        <ele>1117.9</ele>
        <time>2023-04-06T10:29:45Z</time>
      </trkpt>
      <trkpt lat="44.34142" lon="5.6325">
        <ele>1118.6</ele>
        <time>2023-04-06T10:29:46Z</time>
      </trkpt>
      <trkpt lat="44.34141" lon="5.63251">
        <ele>1118.8</ele>
        <time>2023-04-06T10:29:47Z</time>
      </trkpt>
      <trkpt lat="44.34137" lon="5.63253">
        <ele>1119.6</ele>
        <time>2023-04-06T10:29:49Z</time>
      </trkpt>
      <trkpt lat="44.34136" lon="5.63255">
        <ele>1119.9</ele>
        <time>2023-04-06T10:29:50Z</time>
      </trkpt>
      <trkpt lat="44.34134" lon="5.63255">
        <ele>1120.3</ele>
        <time>2023-04-06T10:29:51Z</time>
      </trkpt>
      <trkpt lat="44.34132" lon="5.63256">
        <ele>1120.6</ele>
        <time>2023-04-06T10:29:52Z</time>
      </trkpt>
      <trkpt lat="44.34131" lon="5.63258">
        <ele>1121</ele>
        <time>2023-04-06T10:29:53Z</time>
      </trkpt>
      <trkpt lat="44.3413" lon="5.63259">
        <ele>1121.2</ele>
        <time>2023-04-06T10:29:54Z</time>
      </trkpt>
      <trkpt lat="44.34129" lon="5.63261">
        <ele>1121.6</ele>
        <time>2023-04-06T10:29:55Z</time>
      </trkpt>
      <trkpt lat="44.34127" lon="5.63262">
        <ele>1121.9</ele>
        <time>2023-04-06T10:29:56Z</time>
      </trkpt>
      <trkpt lat="44.34126" lon="5.63263">
        <ele>1122.1</ele>
        <time>2023-04-06T10:29:57Z</time>
      </trkpt>
      <trkpt lat="44.34125" lon="5.63265">
        <ele>1122.5</ele>
        <time>2023-04-06T10:29:58Z</time>
      </trkpt>
      <trkpt lat="44.34121" lon="5.63268">
        <ele>1123.2</ele>
        <time>2023-04-06T10:30:00Z</time>
      </trkpt>
      <trkpt lat="44.3412" lon="5.63269">
        <ele>1123.6</ele>
        <time>2023-04-06T10:30:01Z</time>
      </trkpt>
      <trkpt lat="44.34117" lon="5.63272">
        <ele>1124.2</ele>
        <time>2023-04-06T10:30:02Z</time>
      </trkpt>
      <trkpt lat="44.34117" lon="5.63273">
        <ele>1124.3</ele>
        <time>2023-04-06T10:30:03Z</time>
      </trkpt>
      <trkpt lat="44.34115" lon="5.63274">
        <ele>1124.6</ele>
        <time>2023-04-06T10:30:04Z</time>
      </trkpt>
      <trkpt lat="44.34114" lon="5.63275">
        <ele>1124.9</ele>
        <time>2023-04-06T10:30:05Z</time>
      </trkpt>
      <trkpt lat="44.34113" lon="5.63277">
        <ele>1125.2</ele>
        <time>2023-04-06T10:30:06Z</time>
      </trkpt>
      <trkpt lat="44.34112" lon="5.63278">
        <ele>1125.6</ele>
        <time>2023-04-06T10:30:07Z</time>
      </trkpt>
      <trkpt lat="44.34109" lon="5.6328">
        <ele>1126.1</ele>
        <time>2023-04-06T10:30:08Z</time>
      </trkpt>
      <trkpt lat="44.34108" lon="5.63281">
        <ele>1126.3</ele>
        <time>2023-04-06T10:30:09Z</time>
      </trkpt>
      <trkpt lat="44.34105" lon="5.63284">
        <ele>1127.1</ele>
        <time>2023-04-06T10:30:11Z</time>
      </trkpt>
      <trkpt lat="44.34103" lon="5.63286">
        <ele>1127.7</ele>
        <time>2023-04-06T10:30:12Z</time>
      </trkpt>
      <trkpt lat="44.34102" lon="5.63287">
        <ele>1127.9</ele>
        <time>2023-04-06T10:30:13Z</time>
      </trkpt>
      <trkpt lat="44.34101" lon="5.63288">
        <ele>1128.4</ele>
        <time>2023-04-06T10:30:14Z</time>
      </trkpt>
      <trkpt lat="44.341" lon="5.6329">
        <ele>1128.7</ele>
        <time>2023-04-06T10:30:15Z</time>
      </trkpt>
      <trkpt lat="44.34098" lon="5.63292">
        <ele>1129.2</ele>
        <time>2023-04-06T10:30:16Z</time>
      </trkpt>
      <trkpt lat="44.34097" lon="5.63293">
        <ele>1129.4</ele>
        <time>2023-04-06T10:30:17Z</time>
      </trkpt>
      <trkpt lat="44.34097" lon="5.63294">
        <ele>1129.6</ele>
        <time>2023-04-06T10:30:18Z</time>
      </trkpt>
      <trkpt lat="44.34095" lon="5.63297">
        <ele>1130.3</ele>
        <time>2023-04-06T10:30:19Z</time>
      </trkpt>
      <trkpt lat="44.34094" lon="5.63298">
        <ele>1130.5</ele>
        <time>2023-04-06T10:30:20Z</time>
      </trkpt>
      <trkpt lat="44.34092" lon="5.63301">
        <ele>1131.4</ele>
        <time>2023-04-06T10:30:22Z</time>
      </trkpt>
      <trkpt lat="44.34091" lon="5.63303">
        <ele>1131.7</ele>
        <time>2023-04-06T10:30:23Z</time>
      </trkpt>
      <trkpt lat="44.3409" lon="5.63304">
        <ele>1132.1</ele>
        <time>2023-04-06T10:30:24Z</time>
      </trkpt>
      <trkpt lat="44.34088" lon="5.63307">
        <ele>1132.7</ele>
        <time>2023-04-06T10:30:25Z</time>
      </trkpt>
      <trkpt lat="44.34087" lon="5.63308">
        <ele>1132.9</ele>
        <time>2023-04-06T10:30:26Z</time>
      </trkpt>
      <trkpt lat="44.34086" lon="5.63311">
        <ele>1133.6</ele>
        <time>2023-04-06T10:30:27Z</time>
      </trkpt>
      <trkpt lat="44.34085" lon="5.63312">
        <ele>1133.8</ele>
        <time>2023-04-06T10:30:28Z</time>
      </trkpt>
      <trkpt lat="44.34084" lon="5.63314">
        <ele>1134.2</ele>
        <time>2023-04-06T10:30:29Z</time>
      </trkpt>
      <trkpt lat="44.34083" lon="5.63316">
        <ele>1134.5</ele>
        <time>2023-04-06T10:30:30Z</time>
      </trkpt>
      <trkpt lat="44.34082" lon="5.63318">
        <ele>1134.9</ele>
        <time>2023-04-06T10:30:31Z</time>
      </trkpt>
      <trkpt lat="44.34081" lon="5.6332">
        <ele>1135.3</ele>
        <time>2023-04-06T10:30:32Z</time>
      </trkpt>
      <trkpt lat="44.3408" lon="5.63321">
        <ele>1135.6</ele>
        <time>2023-04-06T10:30:33Z</time>
      </trkpt>
      <trkpt lat="44.34079" lon="5.63322">
        <ele>1135.9</ele>
        <time>2023-04-06T10:30:34Z</time>
      </trkpt>
      <trkpt lat="44.34077" lon="5.63322">
        <ele>1136.2</ele>
        <time>2023-04-06T10:30:35Z</time>
      </trkpt>
      <trkpt lat="44.34076" lon="5.63322">
        <ele>1136.5</ele>
        <time>2023-04-06T10:30:36Z</time>
      </trkpt>
      <trkpt lat="44.34072" lon="5.63321">
        <ele>1137.3</ele>
        <time>2023-04-06T10:30:38Z</time>
      </trkpt>
      <trkpt lat="44.3407" lon="5.6332">
        <ele>1137.7</ele>
        <time>2023-04-06T10:30:39Z</time>
      </trkpt>
      <trkpt lat="44.34069" lon="5.6332">
        <ele>1138</ele>
        <time>2023-04-06T10:30:40Z</time>
      </trkpt>
      <trkpt lat="44.34067" lon="5.6332">
        <ele>1138.3</ele>
        <time>2023-04-06T10:30:41Z</time>
      </trkpt>
      <trkpt lat="44.34066" lon="5.63322">
        <ele>1138.7</ele>
        <time>2023-04-06T10:30:42Z</time>
      </trkpt>
      <trkpt lat="44.34062" lon="5.63324">
        <ele>1139.5</ele>
        <time>2023-04-06T10:30:44Z</time>
      </trkpt>
      <trkpt lat="44.34061" lon="5.63324">
        <ele>1139.9</ele>
        <time>2023-04-06T10:30:45Z</time>
      </trkpt>
      <trkpt lat="44.34059" lon="5.63325">
        <ele>1140.3</ele>
        <time>2023-04-06T10:30:46Z</time>
      </trkpt>
      <trkpt lat="44.34056" lon="5.63326">
        <ele>1140.9</ele>
        <time>2023-04-06T10:30:47Z</time>
      </trkpt>
      <trkpt lat="44.34055" lon="5.63326">
        <ele>1141.1</ele>
        <time>2023-04-06T10:30:48Z</time>
      </trkpt>
      <trkpt lat="44.34053" lon="5.63327">
        <ele>1141.5</ele>
        <time>2023-04-06T10:30:49Z</time>
      </trkpt>
      <trkpt lat="44.34052" lon="5.63329">
        <ele>1141.8</ele>
        <time>2023-04-06T10:30:50Z</time>
      </trkpt>
      <trkpt lat="44.34051" lon="5.63331">
        <ele>1142.1</ele>
        <time>2023-04-06T10:30:51Z</time>
      </trkpt>
      <trkpt lat="44.34049" lon="5.63331">
        <ele>1142.4</ele>
        <time>2023-04-06T10:30:52Z</time>
      </trkpt>
      <trkpt lat="44.34048" lon="5.63332">
        <ele>1142.7</ele>
        <time>2023-04-06T10:30:53Z</time>
      </trkpt>
      <trkpt lat="44.34046" lon="5.63333">
        <ele>1142.9</ele>
        <time>2023-04-06T10:30:54Z</time>
      </trkpt>
      <trkpt lat="44.34045" lon="5.63333">
        <ele>1143.2</ele>
        <time>2023-04-06T10:30:55Z</time>
      </trkpt>
      <trkpt lat="44.34043" lon="5.63334">
        <ele>1143.5</ele>
        <time>2023-04-06T10:30:56Z</time>
      </trkpt>
      <trkpt lat="44.34041" lon="5.63336">
        <ele>1143.9</ele>
        <time>2023-04-06T10:30:57Z</time>
      </trkpt>
      <trkpt lat="44.3404" lon="5.63336">
        <ele>1144.1</ele>
        <time>2023-04-06T10:30:58Z</time>
      </trkpt>
      <trkpt lat="44.34037" lon="5.63338">
        <ele>1144.7</ele>
        <time>2023-04-06T10:30:59Z</time>
      </trkpt>
      <trkpt lat="44.34036" lon="5.63338">
        <ele>1144.8</ele>
        <time>2023-04-06T10:31:00Z</time>
      </trkpt>
      <trkpt lat="44.34034" lon="5.6334">
        <ele>1145.3</ele>
        <time>2023-04-06T10:31:01Z</time>
      </trkpt>
      <trkpt lat="44.34033" lon="5.63341">
        <ele>1145.5</ele>
        <time>2023-04-06T10:31:02Z</time>
      </trkpt>
      <trkpt lat="44.34031" lon="5.63343">
        <ele>1146.1</ele>
        <time>2023-04-06T10:31:03Z</time>
      </trkpt>
      <trkpt lat="44.3403" lon="5.63344">
        <ele>1146.2</ele>
        <time>2023-04-06T10:31:04Z</time>
      </trkpt>
      <trkpt lat="44.34028" lon="5.63344">
        <ele>1146.5</ele>
        <time>2023-04-06T10:31:05Z</time>
      </trkpt>
      <trkpt lat="44.34027" lon="5.63345">
        <ele>1146.8</ele>
        <time>2023-04-06T10:31:06Z</time>
      </trkpt>
      <trkpt lat="44.34025" lon="5.63346">
        <ele>1147.2</ele>
        <time>2023-04-06T10:31:07Z</time>
      </trkpt>
      <trkpt lat="44.34024" lon="5.63346">
        <ele>1147.4</ele>
        <time>2023-04-06T10:31:08Z</time>
      </trkpt>
      <trkpt lat="44.34023" lon="5.63346">
        <ele>1147.5</ele>
        <time>2023-04-06T10:31:09Z</time>
      </trkpt>
      <trkpt lat="44.34022" lon="5.63347">
        <ele>1147.8</ele>
        <time>2023-04-06T10:31:10Z</time>
      </trkpt>
      <trkpt lat="44.3402" lon="5.63348">
        <ele>1148.1</ele>
        <time>2023-04-06T10:31:11Z</time>
      </trkpt>
      <trkpt lat="44.34018" lon="5.6335">
        <ele>1148.6</ele>
        <time>2023-04-06T10:31:12Z</time>
      </trkpt>
      <trkpt lat="44.34017" lon="5.6335">
        <ele>1148.8</ele>
        <time>2023-04-06T10:31:13Z</time>
      </trkpt>
      <trkpt lat="44.34014" lon="5.63352">
        <ele>1149.3</ele>
        <time>2023-04-06T10:31:14Z</time>
      </trkpt>
      <trkpt lat="44.34014" lon="5.63353">
        <ele>1149.5</ele>
        <time>2023-04-06T10:31:15Z</time>
      </trkpt>
      <trkpt lat="44.34011" lon="5.63355">
        <ele>1150.1</ele>
        <time>2023-04-06T10:31:16Z</time>
      </trkpt>
      <trkpt lat="44.3401" lon="5.63355">
        <ele>1150.2</ele>
        <time>2023-04-06T10:31:17Z</time>
      </trkpt>
      <trkpt lat="44.34008" lon="5.63357">
        <ele>1150.7</ele>
        <time>2023-04-06T10:31:18Z</time>
      </trkpt>
      <trkpt lat="44.34007" lon="5.63358">
        <ele>1150.9</ele>
        <time>2023-04-06T10:31:19Z</time>
      </trkpt>
      <trkpt lat="44.34005" lon="5.6336">
        <ele>1151.4</ele>
        <time>2023-04-06T10:31:20Z</time>
      </trkpt>
      <trkpt lat="44.34004" lon="5.63361">
        <ele>1151.6</ele>
        <time>2023-04-06T10:31:21Z</time>
      </trkpt>
      <trkpt lat="44.34003" lon="5.63362">
        <ele>1151.8</ele>
        <time>2023-04-06T10:31:22Z</time>
      </trkpt>
      <trkpt lat="44.34002" lon="5.63363">
        <ele>1152.1</ele>
        <time>2023-04-06T10:31:23Z</time>
      </trkpt>
      <trkpt lat="44.34" lon="5.63363">
        <ele>1152.4</ele>
        <time>2023-04-06T10:31:24Z</time>
      </trkpt>
      <trkpt lat="44.33999" lon="5.63364">
        <ele>1152.7</ele>
        <time>2023-04-06T10:31:25Z</time>
      </trkpt>
      <trkpt lat="44.33996" lon="5.63365">
        <ele>1153.2</ele>
        <time>2023-04-06T10:31:26Z</time>
      </trkpt>
      <trkpt lat="44.33995" lon="5.63365">
        <ele>1153.4</ele>
        <time>2023-04-06T10:31:27Z</time>
      </trkpt>
      <trkpt lat="44.33992" lon="5.63367">
        <ele>1153.9</ele>
        <time>2023-04-06T10:31:28Z</time>
      </trkpt>
      <trkpt lat="44.33991" lon="5.63367">
        <ele>1154.1</ele>
        <time>2023-04-06T10:31:29Z</time>
      </trkpt>
      <trkpt lat="44.3399" lon="5.63368">
        <ele>1154.3</ele>
        <time>2023-04-06T10:31:30Z</time>
      </trkpt>
      <trkpt lat="44.33988" lon="5.63369">
        <ele>1154.7</ele>
        <time>2023-04-06T10:31:31Z</time>
      </trkpt>
      <trkpt lat="44.33986" lon="5.63369">
        <ele>1155</ele>
        <time>2023-04-06T10:31:32Z</time>
      </trkpt>
      <trkpt lat="44.33985" lon="5.63369">
        <ele>1155.2</ele>
        <time>2023-04-06T10:31:33Z</time>
      </trkpt>
      <trkpt lat="44.33983" lon="5.63368">
        <ele>1155.4</ele>
        <time>2023-04-06T10:31:34Z</time>
      </trkpt>
      <trkpt lat="44.33982" lon="5.63367">
        <ele>1156.1</ele>
        <time>2023-04-06T10:31:35Z</time>
      </trkpt>
      <trkpt lat="44.33981" lon="5.63365">
        <ele>1156.1</ele>
        <time>2023-04-06T10:31:36Z</time>
      </trkpt>
      <trkpt lat="44.3398" lon="5.63364">
        <ele>1156</ele>
        <time>2023-04-06T10:31:37Z</time>
      </trkpt>
      <trkpt lat="44.3398" lon="5.63365">
        <ele>1156</ele>
        <time>2023-04-06T10:31:38Z</time>
      </trkpt>
      <trkpt lat="44.33979" lon="5.63366">
        <ele>1155.9</ele>
        <time>2023-04-06T10:31:39Z</time>
      </trkpt>
      <trkpt lat="44.3398" lon="5.63367">
        <ele>1155.9</ele>
        <time>2023-04-06T10:31:40Z</time>
      </trkpt>
      <trkpt lat="44.33982" lon="5.63369">
        <ele>1155.8</ele>
        <time>2023-04-06T10:31:41Z</time>
      </trkpt>
      <trkpt lat="44.33985" lon="5.63368">
        <ele>1155.7</ele>
        <time>2023-04-06T10:31:43Z</time>
      </trkpt>
      <trkpt lat="44.33986" lon="5.63368">
        <ele>1155.6</ele>
        <time>2023-04-06T10:31:44Z</time>
      </trkpt>
      <trkpt lat="44.33986" lon="5.6337">
        <ele>1155.6</ele>
        <time>2023-04-06T10:31:46Z</time>
      </trkpt>
      <trkpt lat="44.33985" lon="5.6337">
        <ele>1155.5</ele>
        <time>2023-04-06T10:31:47Z</time>
      </trkpt>
      <trkpt lat="44.33985" lon="5.63372">
        <ele>1155.5</ele>
        <time>2023-04-06T10:31:48Z</time>
      </trkpt>
      <trkpt lat="44.33985" lon="5.63372">
        <ele>1155.4</ele>
        <time>2023-04-06T10:31:50Z</time>
      </trkpt>
      <trkpt lat="44.33985" lon="5.63372">
        <ele>1155.4</ele>
        <time>2023-04-06T10:31:51Z</time>
      </trkpt>
      <trkpt lat="44.33985" lon="5.63372">
        <ele>1155.4</ele>
        <time>2023-04-06T10:31:52Z</time>
      </trkpt>
      <trkpt lat="44.33986" lon="5.63373">
        <ele>1155.4</ele>
        <time>2023-04-06T10:31:53Z</time>
      </trkpt>
      <trkpt lat="44.33986" lon="5.63373">
        <ele>1155.4</ele>
        <time>2023-04-06T10:31:54Z</time>
      </trkpt>
      <trkpt lat="44.33986" lon="5.63373">
        <ele>1155.4</ele>
        <time>2023-04-06T10:31:55Z</time>
      </trkpt>
      <trkpt lat="44.33986" lon="5.63373">
        <ele>1155.4</ele>
        <time>2023-04-06T10:31:56Z</time>
      </trkpt>
      <trkpt lat="44.33986" lon="5.63373">
        <ele>1155.4</ele>
        <time>2023-04-06T10:31:57Z</time>
      </trkpt>
      <trkpt lat="44.33986" lon="5.63373">
        <ele>1155.4</ele>
        <time>2023-04-06T10:31:58Z</time>
      </trkpt>
      <trkpt lat="44.33986" lon="5.63373">
        <ele>1155.4</ele>
        <time>2023-04-06T10:31:59Z</time>
      </trkpt>
      <trkpt lat="44.33986" lon="5.63373">
        <ele>1155.4</ele>
        <time>2023-04-06T10:32:00Z</time>
      </trkpt>
      <trkpt lat="44.33985" lon="5.63373">
        <ele>1155.3</ele>
        <time>2023-04-06T10:32:01Z</time>
      </trkpt>
      <trkpt lat="44.33985" lon="5.63372">
        <ele>1155.3</ele>
        <time>2023-04-06T10:32:02Z</time>
      </trkpt>
      <trkpt lat="44.33985" lon="5.63371">
        <ele>1155.3</ele>
        <time>2023-04-06T10:32:03Z</time>
      </trkpt>
      <trkpt lat="44.33985" lon="5.6337">
        <ele>1155.2</ele>
        <time>2023-04-06T10:32:04Z</time>
      </trkpt>
      <trkpt lat="44.33984" lon="5.6337">
        <ele>1155.2</ele>
        <time>2023-04-06T10:32:06Z</time>
      </trkpt>
      <trkpt lat="44.33984" lon="5.6337">
        <ele>1155.2</ele>
        <time>2023-04-06T10:32:07Z</time>
      </trkpt>
      <trkpt lat="44.33984" lon="5.6337">
        <ele>1155.2</ele>
        <time>2023-04-06T10:32:08Z</time>
      </trkpt>
      <trkpt lat="44.33984" lon="5.6337">
        <ele>1155.2</ele>
        <time>2023-04-06T10:32:09Z</time>
      </trkpt>
      <trkpt lat="44.33984" lon="5.6337">
        <ele>1155.2</ele>
        <time>2023-04-06T10:32:10Z</time>
      </trkpt>
      <trkpt lat="44.33981" lon="5.6337">
        <ele>1155</ele>
        <time>2023-04-06T10:32:12Z</time>
      </trkpt>
      <trkpt lat="44.3398" lon="5.6337">
        <ele>1155</ele>
        <time>2023-04-06T10:32:13Z</time>
      </trkpt>
      <trkpt lat="44.33979" lon="5.6337">
        <ele>1154.9</ele>
        <time>2023-04-06T10:32:14Z</time>
      </trkpt>
      <trkpt lat="44.33979" lon="5.63369">
        <ele>1154.9</ele>
        <time>2023-04-06T10:32:15Z</time>
      </trkpt>
      <trkpt lat="44.33978" lon="5.63369">
        <ele>1154.8</ele>
        <time>2023-04-06T10:32:16Z</time>
      </trkpt>
      <trkpt lat="44.33978" lon="5.63368">
        <ele>1154.8</ele>
        <time>2023-04-06T10:32:18Z</time>
      </trkpt>
      <trkpt lat="44.33977" lon="5.63368">
        <ele>1154.8</ele>
        <time>2023-04-06T10:32:19Z</time>
      </trkpt>
      <trkpt lat="44.33977" lon="5.63368">
        <ele>1154.7</ele>
        <time>2023-04-06T10:32:20Z</time>
      </trkpt>
      <trkpt lat="44.33977" lon="5.63368">
        <ele>1154.7</ele>
        <time>2023-04-06T10:32:21Z</time>
      </trkpt>
      <trkpt lat="44.33977" lon="5.63368">
        <ele>1154.7</ele>
        <time>2023-04-06T10:32:22Z</time>
      </trkpt>
      <trkpt lat="44.33976" lon="5.63368">
        <ele>1154.7</ele>
        <time>2023-04-06T10:32:23Z</time>
      </trkpt>
      <trkpt lat="44.33976" lon="5.63368">
        <ele>1154.7</ele>
        <time>2023-04-06T10:32:24Z</time>
      </trkpt>
      <trkpt lat="44.33976" lon="5.63368">
        <ele>1154.7</ele>
        <time>2023-04-06T10:32:25Z</time>
      </trkpt>
      <trkpt lat="44.33977" lon="5.63368">
        <ele>1154.7</ele>
        <time>2023-04-06T10:32:26Z</time>
      </trkpt>
      <trkpt lat="44.33977" lon="5.63368">
        <ele>1154.7</ele>
        <time>2023-04-06T10:32:27Z</time>
      </trkpt>
      <trkpt lat="44.33977" lon="5.63368">
        <ele>1154.7</ele>
        <time>2023-04-06T10:32:29Z</time>
      </trkpt>
      <trkpt lat="44.33977" lon="5.63368">
        <ele>1154.7</ele>
        <time>2023-04-06T10:32:30Z</time>
      </trkpt>
      <trkpt lat="44.33977" lon="5.63368">
        <ele>1154.7</ele>
        <time>2023-04-06T10:32:31Z</time>
      </trkpt>
      <trkpt lat="44.33977" lon="5.63368">
        <ele>1154.7</ele>
        <time>2023-04-06T10:32:32Z</time>
      </trkpt>
      <trkpt lat="44.33982" lon="5.63369">
        <ele>1154.4</ele>
        <time>2023-04-06T10:33:06Z</time>
      </trkpt>
      <trkpt lat="44.33982" lon="5.63369">
        <ele>1154.4</ele>
        <time>2023-04-06T10:33:07Z</time>
      </trkpt>
      <trkpt lat="44.33983" lon="5.63369">
        <ele>1154.3</ele>
        <time>2023-04-06T10:33:08Z</time>
      </trkpt>
      <trkpt lat="44.33983" lon="5.63369">
        <ele>1154.3</ele>
        <time>2023-04-06T10:33:09Z</time>
      </trkpt>
      <trkpt lat="44.33983" lon="5.63368">
        <ele>1154.3</ele>
        <time>2023-04-06T10:33:10Z</time>
      </trkpt>
      <trkpt lat="44.33982" lon="5.63368">
        <ele>1154.3</ele>
        <time>2023-04-06T10:33:11Z</time>
      </trkpt>
      <trkpt lat="44.33982" lon="5.63368">
        <ele>1154.3</ele>
        <time>2023-04-06T10:33:12Z</time>
      </trkpt>
      <trkpt lat="44.33981" lon="5.63368">
        <ele>1154.2</ele>
        <time>2023-04-06T10:33:13Z</time>
      </trkpt>
      <trkpt lat="44.3398" lon="5.63367">
        <ele>1154.2</ele>
        <time>2023-04-06T10:33:15Z</time>
      </trkpt>
      <trkpt lat="44.33979" lon="5.63367">
        <ele>1154.1</ele>
        <time>2023-04-06T10:33:16Z</time>
      </trkpt>
      <trkpt lat="44.33978" lon="5.63367">
        <ele>1154.1</ele>
        <time>2023-04-06T10:33:17Z</time>
      </trkpt>
      <trkpt lat="44.33978" lon="5.63367">
        <ele>1154.1</ele>
        <time>2023-04-06T10:33:18Z</time>
      </trkpt>
      <trkpt lat="44.33978" lon="5.63367">
        <ele>1154</ele>
        <time>2023-04-06T10:33:19Z</time>
      </trkpt>
      <trkpt lat="44.33978" lon="5.63367">
        <ele>1154</ele>
        <time>2023-04-06T10:33:20Z</time>
      </trkpt>
      <trkpt lat="44.33978" lon="5.63366">
        <ele>1154</ele>
        <time>2023-04-06T10:33:21Z</time>
      </trkpt>
      <trkpt lat="44.33979" lon="5.63365">
        <ele>1153.9</ele>
        <time>2023-04-06T10:33:22Z</time>
      </trkpt>
      <trkpt lat="44.3398" lon="5.63364">
        <ele>1153.9</ele>
        <time>2023-04-06T10:33:23Z</time>
      </trkpt>
      <trkpt lat="44.33981" lon="5.63364">
        <ele>1153.9</ele>
        <time>2023-04-06T10:33:24Z</time>
      </trkpt>
      <trkpt lat="44.33981" lon="5.63363">
        <ele>1153.8</ele>
        <time>2023-04-06T10:33:25Z</time>
      </trkpt>
      <trkpt lat="44.33982" lon="5.63363">
        <ele>1153.8</ele>
        <time>2023-04-06T10:33:26Z</time>
      </trkpt>
      <trkpt lat="44.33983" lon="5.63363">
        <ele>1153.8</ele>
        <time>2023-04-06T10:33:27Z</time>
      </trkpt>
      <trkpt lat="44.33983" lon="5.63363">
        <ele>1153.7</ele>
        <time>2023-04-06T10:33:28Z</time>
      </trkpt>
      <trkpt lat="44.33983" lon="5.63363">
        <ele>1153.7</ele>
        <time>2023-04-06T10:33:29Z</time>
      </trkpt>
      <trkpt lat="44.33983" lon="5.63362">
        <ele>1153.7</ele>
        <time>2023-04-06T10:33:30Z</time>
      </trkpt>
      <trkpt lat="44.33983" lon="5.63362">
        <ele>1153.7</ele>
        <time>2023-04-06T10:33:31Z</time>
      </trkpt>
      <trkpt lat="44.33983" lon="5.63362">
        <ele>1153.7</ele>
        <time>2023-04-06T10:33:32Z</time>
      </trkpt>
      <trkpt lat="44.33983" lon="5.63362">
        <ele>1153.7</ele>
        <time>2023-04-06T10:33:35Z</time>
      </trkpt>
      <trkpt lat="44.33983" lon="5.63362">
        <ele>1153.7</ele>
        <time>2023-04-06T10:33:37Z</time>
      </trkpt>
      <trkpt lat="44.33983" lon="5.63362">
        <ele>1153.7</ele>
        <time>2023-04-06T10:33:38Z</time>
      </trkpt>
      <trkpt lat="44.33983" lon="5.63362">
        <ele>1153.7</ele>
        <time>2023-04-06T10:33:40Z</time>
      </trkpt>
      <trkpt lat="44.33985" lon="5.63367">
        <ele>1153.5</ele>
        <time>2023-04-06T10:34:58Z</time>
      </trkpt>
      <trkpt lat="44.33985" lon="5.63367">
        <ele>1153.5</ele>
        <time>2023-04-06T10:34:59Z</time>
      </trkpt>
      <trkpt lat="44.33986" lon="5.63368">
        <ele>1153.5</ele>
        <time>2023-04-06T10:35:00Z</time>
      </trkpt>
      <trkpt lat="44.33986" lon="5.63369">
        <ele>1153.4</ele>
        <time>2023-04-06T10:35:01Z</time>
      </trkpt>
      <trkpt lat="44.33987" lon="5.63369">
        <ele>1153.4</ele>
        <time>2023-04-06T10:35:02Z</time>
      </trkpt>
      <trkpt lat="44.33987" lon="5.6337">
        <ele>1153.4</ele>
        <time>2023-04-06T10:35:03Z</time>
      </trkpt>
      <trkpt lat="44.33987" lon="5.6337">
        <ele>1153.4</ele>
        <time>2023-04-06T10:35:04Z</time>
      </trkpt>
      <trkpt lat="44.33987" lon="5.63369">
        <ele>1153.4</ele>
        <time>2023-04-06T10:35:05Z</time>
      </trkpt>
      <trkpt lat="44.33987" lon="5.63369">
        <ele>1153.3</ele>
        <time>2023-04-06T10:35:06Z</time>
      </trkpt>
      <trkpt lat="44.33987" lon="5.63369">
        <ele>1153.3</ele>
        <time>2023-04-06T10:35:07Z</time>
      </trkpt>
      <trkpt lat="44.33987" lon="5.63369">
        <ele>1153.3</ele>
        <time>2023-04-06T10:35:08Z</time>
      </trkpt>
      <trkpt lat="44.33987" lon="5.63369">
        <ele>1153.3</ele>
        <time>2023-04-06T10:35:11Z</time>
      </trkpt>
      <trkpt lat="44.33987" lon="5.63369">
        <ele>1153.3</ele>
        <time>2023-04-06T10:35:12Z</time>
      </trkpt>
      <trkpt lat="44.33987" lon="5.63369">
        <ele>1153.3</ele>
        <time>2023-04-06T10:35:13Z</time>
      </trkpt>
      <trkpt lat="44.33987" lon="5.63369">
        <ele>1153.3</ele>
        <time>2023-04-06T10:35:14Z</time>
      </trkpt>
      <trkpt lat="44.33983" lon="5.63368">
        <ele>1153.1</ele>
        <time>2023-04-06T10:35:51Z</time>
      </trkpt>
      <trkpt lat="44.33983" lon="5.63367">
        <ele>1153.1</ele>
        <time>2023-04-06T10:35:52Z</time>
      </trkpt>
      <trkpt lat="44.33982" lon="5.63366">
        <ele>1153</ele>
        <time>2023-04-06T10:35:53Z</time>
      </trkpt>
      <trkpt lat="44.3398" lon="5.63366">
        <ele>1152.9</ele>
        <time>2023-04-06T10:35:55Z</time>
      </trkpt>
      <trkpt lat="44.33979" lon="5.63367">
        <ele>1152.9</ele>
        <time>2023-04-06T10:35:56Z</time>
      </trkpt>
      <trkpt lat="44.33979" lon="5.63367">
        <ele>1152.9</ele>
        <time>2023-04-06T10:35:57Z</time>
      </trkpt>
      <trkpt lat="44.33979" lon="5.63367">
        <ele>1152.8</ele>
        <time>2023-04-06T10:35:58Z</time>
      </trkpt>
      <trkpt lat="44.33979" lon="5.63367">
        <ele>1152.8</ele>
        <time>2023-04-06T10:35:59Z</time>
      </trkpt>
      <trkpt lat="44.33979" lon="5.63368">
        <ele>1152.8</ele>
        <time>2023-04-06T10:36:01Z</time>
      </trkpt>
      <trkpt lat="44.33979" lon="5.63368">
        <ele>1152.8</ele>
        <time>2023-04-06T10:36:02Z</time>
      </trkpt>
      <trkpt lat="44.33979" lon="5.63368">
        <ele>1152.8</ele>
        <time>2023-04-06T10:36:03Z</time>
      </trkpt>
      <trkpt lat="44.33979" lon="5.63368">
        <ele>1152.8</ele>
        <time>2023-04-06T10:36:05Z</time>
      </trkpt>
      <trkpt lat="44.33979" lon="5.63368">
        <ele>1152.8</ele>
        <time>2023-04-06T10:36:07Z</time>
      </trkpt>
      <trkpt lat="44.33979" lon="5.63368">
        <ele>1152.8</ele>
        <time>2023-04-06T10:36:08Z</time>
      </trkpt>
      <trkpt lat="44.33979" lon="5.63368">
        <ele>1152.8</ele>
        <time>2023-04-06T10:36:09Z</time>
      </trkpt>
      <trkpt lat="44.33982" lon="5.6337">
        <ele>1152.5</ele>
        <time>2023-04-06T10:36:19Z</time>
      </trkpt>
      <trkpt lat="44.33983" lon="5.6337">
        <ele>1152.5</ele>
        <time>2023-04-06T10:36:20Z</time>
      </trkpt>
      <trkpt lat="44.33984" lon="5.6337">
        <ele>1152.4</ele>
        <time>2023-04-06T10:36:21Z</time>
      </trkpt>
      <trkpt lat="44.33985" lon="5.63371">
        <ele>1152.3</ele>
        <time>2023-04-06T10:36:22Z</time>
      </trkpt>
      <trkpt lat="44.33985" lon="5.63372">
        <ele>1152.3</ele>
        <time>2023-04-06T10:36:23Z</time>
      </trkpt>
      <trkpt lat="44.33986" lon="5.63372">
        <ele>1152.2</ele>
        <time>2023-04-06T10:36:24Z</time>
      </trkpt>
      <trkpt lat="44.33986" lon="5.63373">
        <ele>1152.2</ele>
        <time>2023-04-06T10:36:25Z</time>
      </trkpt>
      <trkpt lat="44.33987" lon="5.63373">
        <ele>1152.1</ele>
        <time>2023-04-06T10:36:26Z</time>
      </trkpt>
      <trkpt lat="44.33987" lon="5.63373">
        <ele>1152.1</ele>
        <time>2023-04-06T10:36:27Z</time>
      </trkpt>
      <trkpt lat="44.33987" lon="5.63373">
        <ele>1152.1</ele>
        <time>2023-04-06T10:36:28Z</time>
      </trkpt>
      <trkpt lat="44.33987" lon="5.63373">
        <ele>1152.1</ele>
        <time>2023-04-06T10:36:29Z</time>
      </trkpt>
      <trkpt lat="44.33988" lon="5.63373">
        <ele>1152</ele>
        <time>2023-04-06T10:36:30Z</time>
      </trkpt>
      <trkpt lat="44.33988" lon="5.63373">
        <ele>1152</ele>
        <time>2023-04-06T10:36:31Z</time>
      </trkpt>
      <trkpt lat="44.33988" lon="5.63373">
        <ele>1152</ele>
        <time>2023-04-06T10:36:32Z</time>
      </trkpt>
      <trkpt lat="44.33988" lon="5.63373">
        <ele>1152</ele>
        <time>2023-04-06T10:36:33Z</time>
      </trkpt>
      <trkpt lat="44.33988" lon="5.63372">
        <ele>1152</ele>
        <time>2023-04-06T10:36:34Z</time>
      </trkpt>
      <trkpt lat="44.33987" lon="5.63372">
        <ele>1152</ele>
        <time>2023-04-06T10:36:35Z</time>
      </trkpt>
      <trkpt lat="44.33987" lon="5.63371">
        <ele>1151.9</ele>
        <time>2023-04-06T10:36:36Z</time>
      </trkpt>
      <trkpt lat="44.33985" lon="5.6337">
        <ele>1151.8</ele>
        <time>2023-04-06T10:36:37Z</time>
      </trkpt>
      <trkpt lat="44.33984" lon="5.63369">
        <ele>1151.6</ele>
        <time>2023-04-06T10:36:38Z</time>
      </trkpt>
      <trkpt lat="44.33983" lon="5.63367">
        <ele>1151.5</ele>
        <time>2023-04-06T10:36:39Z</time>
      </trkpt>
      <trkpt lat="44.33983" lon="5.63366">
        <ele>1151.4</ele>
        <time>2023-04-06T10:36:40Z</time>
      </trkpt>
      <trkpt lat="44.33984" lon="5.63365">
        <ele>1151.4</ele>
        <time>2023-04-06T10:36:41Z</time>
      </trkpt>
      <trkpt lat="44.33985" lon="5.63366">
        <ele>1151.3</ele>
        <time>2023-04-06T10:36:42Z</time>
      </trkpt>
      <trkpt lat="44.33986" lon="5.63368">
        <ele>1151.1</ele>
        <time>2023-04-06T10:36:43Z</time>
      </trkpt>
      <trkpt lat="44.33985" lon="5.63376">
        <ele>1150.7</ele>
        <time>2023-04-06T10:36:45Z</time>
      </trkpt>
      <trkpt lat="44.33984" lon="5.63381">
        <ele>1150.4</ele>
        <time>2023-04-06T10:36:46Z</time>
      </trkpt>
      <trkpt lat="44.33984" lon="5.63387">
        <ele>1150.2</ele>
        <time>2023-04-06T10:36:47Z</time>
      </trkpt>
      <trkpt lat="44.33985" lon="5.63394">
        <ele>1150</ele>
        <time>2023-04-06T10:36:48Z</time>
      </trkpt>
      <trkpt lat="44.33986" lon="5.634">
        <ele>1149.8</ele>
        <time>2023-04-06T10:36:49Z</time>
      </trkpt>
      <trkpt lat="44.33986" lon="5.63407">
        <ele>1149.5</ele>
        <time>2023-04-06T10:36:50Z</time>
      </trkpt>
      <trkpt lat="44.33985" lon="5.63413">
        <ele>1149.3</ele>
        <time>2023-04-06T10:36:51Z</time>
      </trkpt>
      <trkpt lat="44.33985" lon="5.63421">
        <ele>1149</ele>
        <time>2023-04-06T10:36:52Z</time>
      </trkpt>
      <trkpt lat="44.33983" lon="5.63435">
        <ele>1148.6</ele>
        <time>2023-04-06T10:36:54Z</time>
      </trkpt>
      <trkpt lat="44.33982" lon="5.63441">
        <ele>1148.4</ele>
        <time>2023-04-06T10:36:55Z</time>
      </trkpt>
      <trkpt lat="44.3398" lon="5.63447">
        <ele>1148.3</ele>
        <time>2023-04-06T10:36:56Z</time>
      </trkpt>
      <trkpt lat="44.33979" lon="5.63453">
        <ele>1148.2</ele>
        <time>2023-04-06T10:36:57Z</time>
      </trkpt>
      <trkpt lat="44.33979" lon="5.63459">
        <ele>1148.2</ele>
        <time>2023-04-06T10:36:58Z</time>
      </trkpt>
      <trkpt lat="44.33979" lon="5.63466">
        <ele>1148.1</ele>
        <time>2023-04-06T10:36:59Z</time>
      </trkpt>
      <trkpt lat="44.33979" lon="5.63472">
        <ele>1148.1</ele>
        <time>2023-04-06T10:37:00Z</time>
      </trkpt>
      <trkpt lat="44.3398" lon="5.63478">
        <ele>1148.1</ele>
        <time>2023-04-06T10:37:01Z</time>
      </trkpt>
      <trkpt lat="44.33987" lon="5.6349">
        <ele>1148.1</ele>
        <time>2023-04-06T10:37:03Z</time>
      </trkpt>
      <trkpt lat="44.33991" lon="5.63494">
        <ele>1148.2</ele>
        <time>2023-04-06T10:37:04Z</time>
      </trkpt>
      <trkpt lat="44.33994" lon="5.63498">
        <ele>1148.2</ele>
        <time>2023-04-06T10:37:05Z</time>
      </trkpt>
      <trkpt lat="44.33997" lon="5.63502">
        <ele>1148.2</ele>
        <time>2023-04-06T10:37:06Z</time>
      </trkpt>
      <trkpt lat="44.33999" lon="5.63506">
        <ele>1148.2</ele>
        <time>2023-04-06T10:37:07Z</time>
      </trkpt>
      <trkpt lat="44.34002" lon="5.63511">
        <ele>1148.2</ele>
        <time>2023-04-06T10:37:08Z</time>
      </trkpt>
      <trkpt lat="44.34004" lon="5.63516">
        <ele>1148.1</ele>
        <time>2023-04-06T10:37:09Z</time>
      </trkpt>
      <trkpt lat="44.34006" lon="5.63521">
        <ele>1148</ele>
        <time>2023-04-06T10:37:10Z</time>
      </trkpt>
      <trkpt lat="44.34008" lon="5.63527">
        <ele>1147.8</ele>
        <time>2023-04-06T10:37:11Z</time>
      </trkpt>
      <trkpt lat="44.3401" lon="5.63532">
        <ele>1147.7</ele>
        <time>2023-04-06T10:37:12Z</time>
      </trkpt>
      <trkpt lat="44.34014" lon="5.63543">
        <ele>1147.2</ele>
        <time>2023-04-06T10:37:14Z</time>
      </trkpt>
      <trkpt lat="44.34017" lon="5.63555">
        <ele>1146.8</ele>
        <time>2023-04-06T10:37:16Z</time>
      </trkpt>
      <trkpt lat="44.34018" lon="5.63561">
        <ele>1146.6</ele>
        <time>2023-04-06T10:37:17Z</time>
      </trkpt>
      <trkpt lat="44.34019" lon="5.63567">
        <ele>1146.4</ele>
        <time>2023-04-06T10:37:18Z</time>
      </trkpt>
      <trkpt lat="44.34021" lon="5.63578">
        <ele>1146.1</ele>
        <time>2023-04-06T10:37:20Z</time>
      </trkpt>
      <trkpt lat="44.34022" lon="5.63582">
        <ele>1146</ele>
        <time>2023-04-06T10:37:21Z</time>
      </trkpt>
      <trkpt lat="44.34024" lon="5.63587">
        <ele>1145.8</ele>
        <time>2023-04-06T10:37:22Z</time>
      </trkpt>
      <trkpt lat="44.34025" lon="5.63591">
        <ele>1145.8</ele>
        <time>2023-04-06T10:37:23Z</time>
      </trkpt>
      <trkpt lat="44.34027" lon="5.63595">
        <ele>1145.7</ele>
        <time>2023-04-06T10:37:24Z</time>
      </trkpt>
      <trkpt lat="44.34029" lon="5.63602">
        <ele>1145.6</ele>
        <time>2023-04-06T10:37:26Z</time>
      </trkpt>
      <trkpt lat="44.3403" lon="5.63604">
        <ele>1145.6</ele>
        <time>2023-04-06T10:37:27Z</time>
      </trkpt>
      <trkpt lat="44.34032" lon="5.63608">
        <ele>1145.5</ele>
        <time>2023-04-06T10:37:28Z</time>
      </trkpt>
      <trkpt lat="44.34033" lon="5.63613">
        <ele>1145.5</ele>
        <time>2023-04-06T10:37:29Z</time>
      </trkpt>
      <trkpt lat="44.34033" lon="5.63618">
        <ele>1145.5</ele>
        <time>2023-04-06T10:37:30Z</time>
      </trkpt>
      <trkpt lat="44.34034" lon="5.63624">
        <ele>1145.5</ele>
        <time>2023-04-06T10:37:31Z</time>
      </trkpt>
      <trkpt lat="44.34035" lon="5.6363">
        <ele>1145.5</ele>
        <time>2023-04-06T10:37:32Z</time>
      </trkpt>
      <trkpt lat="44.34036" lon="5.63637">
        <ele>1145.5</ele>
        <time>2023-04-06T10:37:33Z</time>
      </trkpt>
      <trkpt lat="44.34039" lon="5.63646">
        <ele>1145.5</ele>
        <time>2023-04-06T10:37:34Z</time>
      </trkpt>
      <trkpt lat="44.34042" lon="5.63655">
        <ele>1145.4</ele>
        <time>2023-04-06T10:37:35Z</time>
      </trkpt>
      <trkpt lat="44.34046" lon="5.63675">
        <ele>1145</ele>
        <time>2023-04-06T10:37:37Z</time>
      </trkpt>
      <trkpt lat="44.34048" lon="5.63685">
        <ele>1144.9</ele>
        <time>2023-04-06T10:37:38Z</time>
      </trkpt>
      <trkpt lat="44.3405" lon="5.63695">
        <ele>1144.8</ele>
        <time>2023-04-06T10:37:39Z</time>
      </trkpt>
      <trkpt lat="44.34051" lon="5.63704">
        <ele>1144.9</ele>
        <time>2023-04-06T10:37:40Z</time>
      </trkpt>
      <trkpt lat="44.34053" lon="5.63713">
        <ele>1145</ele>
        <time>2023-04-06T10:37:41Z</time>
      </trkpt>
      <trkpt lat="44.34057" lon="5.63728">
        <ele>1145.2</ele>
        <time>2023-04-06T10:37:43Z</time>
      </trkpt>
      <trkpt lat="44.34058" lon="5.63735">
        <ele>1145.2</ele>
        <time>2023-04-06T10:37:44Z</time>
      </trkpt>
      <trkpt lat="44.34058" lon="5.63742">
        <ele>1145.2</ele>
        <time>2023-04-06T10:37:45Z</time>
      </trkpt>
      <trkpt lat="44.34058" lon="5.6375">
        <ele>1145.3</ele>
        <time>2023-04-06T10:37:46Z</time>
      </trkpt>
      <trkpt lat="44.34057" lon="5.63758">
        <ele>1145.3</ele>
        <time>2023-04-06T10:37:47Z</time>
      </trkpt>
      <trkpt lat="44.34056" lon="5.63765">
        <ele>1145.2</ele>
        <time>2023-04-06T10:37:48Z</time>
      </trkpt>
      <trkpt lat="44.34056" lon="5.63773">
        <ele>1145.2</ele>
        <time>2023-04-06T10:37:49Z</time>
      </trkpt>
      <trkpt lat="44.34056" lon="5.63781">
        <ele>1145.2</ele>
        <time>2023-04-06T10:37:50Z</time>
      </trkpt>
      <trkpt lat="44.34057" lon="5.63788">
        <ele>1145.1</ele>
        <time>2023-04-06T10:37:51Z</time>
      </trkpt>
      <trkpt lat="44.34057" lon="5.63794">
        <ele>1145.1</ele>
        <time>2023-04-06T10:37:52Z</time>
      </trkpt>
      <trkpt lat="44.34057" lon="5.638">
        <ele>1145.1</ele>
        <time>2023-04-06T10:37:53Z</time>
      </trkpt>
      <trkpt lat="44.34057" lon="5.63806">
        <ele>1145.1</ele>
        <time>2023-04-06T10:37:54Z</time>
      </trkpt>
      <trkpt lat="44.34055" lon="5.63812">
        <ele>1145.1</ele>
        <time>2023-04-06T10:37:55Z</time>
      </trkpt>
      <trkpt lat="44.34054" lon="5.63817">
        <ele>1145.2</ele>
        <time>2023-04-06T10:37:56Z</time>
      </trkpt>
      <trkpt lat="44.34053" lon="5.63822">
        <ele>1145.2</ele>
        <time>2023-04-06T10:37:57Z</time>
      </trkpt>
      <trkpt lat="44.34052" lon="5.63827">
        <ele>1145.2</ele>
        <time>2023-04-06T10:37:58Z</time>
      </trkpt>
      <trkpt lat="44.34051" lon="5.63831">
        <ele>1145.2</ele>
        <time>2023-04-06T10:37:59Z</time>
      </trkpt>
      <trkpt lat="44.34048" lon="5.63834">
        <ele>1145.2</ele>
        <time>2023-04-06T10:38:00Z</time>
      </trkpt>
      <trkpt lat="44.34044" lon="5.63835">
        <ele>1145.2</ele>
        <time>2023-04-06T10:38:01Z</time>
      </trkpt>
      <trkpt lat="44.34041" lon="5.63836">
        <ele>1145.1</ele>
        <time>2023-04-06T10:38:02Z</time>
      </trkpt>
      <trkpt lat="44.34035" lon="5.63839">
        <ele>1144.9</ele>
        <time>2023-04-06T10:38:03Z</time>
      </trkpt>
      <trkpt lat="44.3403" lon="5.63842">
        <ele>1144.7</ele>
        <time>2023-04-06T10:38:04Z</time>
      </trkpt>
      <trkpt lat="44.34025" lon="5.63845">
        <ele>1144.4</ele>
        <time>2023-04-06T10:38:05Z</time>
      </trkpt>
      <trkpt lat="44.34021" lon="5.63848">
        <ele>1144.2</ele>
        <time>2023-04-06T10:38:06Z</time>
      </trkpt>
      <trkpt lat="44.34017" lon="5.63851">
        <ele>1144</ele>
        <time>2023-04-06T10:38:07Z</time>
      </trkpt>
      <trkpt lat="44.34015" lon="5.63855">
        <ele>1143.8</ele>
        <time>2023-04-06T10:38:08Z</time>
      </trkpt>
      <trkpt lat="44.34012" lon="5.63858">
        <ele>1143.7</ele>
        <time>2023-04-06T10:38:09Z</time>
      </trkpt>
      <trkpt lat="44.34009" lon="5.63861">
        <ele>1143.5</ele>
        <time>2023-04-06T10:38:10Z</time>
      </trkpt>
      <trkpt lat="44.34007" lon="5.63865">
        <ele>1143.3</ele>
        <time>2023-04-06T10:38:11Z</time>
      </trkpt>
      <trkpt lat="44.34005" lon="5.6387">
        <ele>1143.1</ele>
        <time>2023-04-06T10:38:12Z</time>
      </trkpt>
      <trkpt lat="44.34003" lon="5.63875">
        <ele>1142.9</ele>
        <time>2023-04-06T10:38:13Z</time>
      </trkpt>
      <trkpt lat="44.34002" lon="5.63879">
        <ele>1142.7</ele>
        <time>2023-04-06T10:38:14Z</time>
      </trkpt>
      <trkpt lat="44.34" lon="5.63883">
        <ele>1142.5</ele>
        <time>2023-04-06T10:38:15Z</time>
      </trkpt>
      <trkpt lat="44.33999" lon="5.63887">
        <ele>1142.3</ele>
        <time>2023-04-06T10:38:16Z</time>
      </trkpt>
      <trkpt lat="44.33997" lon="5.63891">
        <ele>1142.2</ele>
        <time>2023-04-06T10:38:17Z</time>
      </trkpt>
      <trkpt lat="44.33995" lon="5.639">
        <ele>1141.8</ele>
        <time>2023-04-06T10:38:19Z</time>
      </trkpt>
      <trkpt lat="44.33993" lon="5.63905">
        <ele>1141.7</ele>
        <time>2023-04-06T10:38:20Z</time>
      </trkpt>
      <trkpt lat="44.33992" lon="5.63909">
        <ele>1141.6</ele>
        <time>2023-04-06T10:38:21Z</time>
      </trkpt>
      <trkpt lat="44.33991" lon="5.63914">
        <ele>1141.5</ele>
        <time>2023-04-06T10:38:22Z</time>
      </trkpt>
      <trkpt lat="44.33991" lon="5.6392">
        <ele>1141.4</ele>
        <time>2023-04-06T10:38:23Z</time>
      </trkpt>
      <trkpt lat="44.3399" lon="5.63937">
        <ele>1141</ele>
        <time>2023-04-06T10:38:25Z</time>
      </trkpt>
      <trkpt lat="44.3399" lon="5.63946">
        <ele>1140.8</ele>
        <time>2023-04-06T10:38:26Z</time>
      </trkpt>
      <trkpt lat="44.33991" lon="5.63954">
        <ele>1140.5</ele>
        <time>2023-04-06T10:38:27Z</time>
      </trkpt>
      <trkpt lat="44.33993" lon="5.6396">
        <ele>1140.2</ele>
        <time>2023-04-06T10:38:28Z</time>
      </trkpt>
      <trkpt lat="44.33995" lon="5.63967">
        <ele>1139.9</ele>
        <time>2023-04-06T10:38:29Z</time>
      </trkpt>
      <trkpt lat="44.33998" lon="5.6398">
        <ele>1139.2</ele>
        <time>2023-04-06T10:38:31Z</time>
      </trkpt>
      <trkpt lat="44.34" lon="5.63986">
        <ele>1138.8</ele>
        <time>2023-04-06T10:38:32Z</time>
      </trkpt>
      <trkpt lat="44.34003" lon="5.63991">
        <ele>1138.6</ele>
        <time>2023-04-06T10:38:33Z</time>
      </trkpt>
      <trkpt lat="44.34005" lon="5.63996">
        <ele>1138.3</ele>
        <time>2023-04-06T10:38:34Z</time>
      </trkpt>
      <trkpt lat="44.34007" lon="5.64001">
        <ele>1138.1</ele>
        <time>2023-04-06T10:38:35Z</time>
      </trkpt>
      <trkpt lat="44.34007" lon="5.64007">
        <ele>1138</ele>
        <time>2023-04-06T10:38:36Z</time>
      </trkpt>
      <trkpt lat="44.34006" lon="5.64011">
        <ele>1137.9</ele>
        <time>2023-04-06T10:38:37Z</time>
      </trkpt>
      <trkpt lat="44.34004" lon="5.64016">
        <ele>1137.8</ele>
        <time>2023-04-06T10:38:38Z</time>
      </trkpt>
      <trkpt lat="44.34003" lon="5.64018">
        <ele>1137.8</ele>
        <time>2023-04-06T10:38:39Z</time>
      </trkpt>
      <trkpt lat="44.34" lon="5.64022">
        <ele>1137.7</ele>
        <time>2023-04-06T10:38:40Z</time>
      </trkpt>
      <trkpt lat="44.33995" lon="5.64032">
        <ele>1137.5</ele>
        <time>2023-04-06T10:38:42Z</time>
      </trkpt>
      <trkpt lat="44.33992" lon="5.64037">
        <ele>1137.4</ele>
        <time>2023-04-06T10:38:43Z</time>
      </trkpt>
      <trkpt lat="44.33989" lon="5.64043">
        <ele>1137.1</ele>
        <time>2023-04-06T10:38:44Z</time>
      </trkpt>
      <trkpt lat="44.33986" lon="5.6405">
        <ele>1136.9</ele>
        <time>2023-04-06T10:38:45Z</time>
      </trkpt>
      <trkpt lat="44.33983" lon="5.64055">
        <ele>1136.6</ele>
        <time>2023-04-06T10:38:46Z</time>
      </trkpt>
      <trkpt lat="44.33981" lon="5.6406">
        <ele>1136.4</ele>
        <time>2023-04-06T10:38:47Z</time>
      </trkpt>
      <trkpt lat="44.3398" lon="5.64063">
        <ele>1136.2</ele>
        <time>2023-04-06T10:38:48Z</time>
      </trkpt>
      <trkpt lat="44.33978" lon="5.64066">
        <ele>1136.1</ele>
        <time>2023-04-06T10:38:49Z</time>
      </trkpt>
      <trkpt lat="44.33975" lon="5.64068">
        <ele>1135.9</ele>
        <time>2023-04-06T10:38:50Z</time>
      </trkpt>
      <trkpt lat="44.33971" lon="5.6407">
        <ele>1135.7</ele>
        <time>2023-04-06T10:38:51Z</time>
      </trkpt>
      <trkpt lat="44.33963" lon="5.64075">
        <ele>1135.4</ele>
        <time>2023-04-06T10:38:53Z</time>
      </trkpt>
      <trkpt lat="44.33959" lon="5.64077">
        <ele>1135.2</ele>
        <time>2023-04-06T10:38:54Z</time>
      </trkpt>
      <trkpt lat="44.33954" lon="5.6408">
        <ele>1135.1</ele>
        <time>2023-04-06T10:38:55Z</time>
      </trkpt>
      <trkpt lat="44.33949" lon="5.64082">
        <ele>1134.9</ele>
        <time>2023-04-06T10:38:56Z</time>
      </trkpt>
      <trkpt lat="44.33943" lon="5.64084">
        <ele>1134.8</ele>
        <time>2023-04-06T10:38:57Z</time>
      </trkpt>
      <trkpt lat="44.33939" lon="5.64086">
        <ele>1134.7</ele>
        <time>2023-04-06T10:38:58Z</time>
      </trkpt>
      <trkpt lat="44.33936" lon="5.64087">
        <ele>1134.6</ele>
        <time>2023-04-06T10:38:59Z</time>
      </trkpt>
      <trkpt lat="44.33933" lon="5.64088">
        <ele>1134.5</ele>
        <time>2023-04-06T10:39:00Z</time>
      </trkpt>
      <trkpt lat="44.33932" lon="5.64089">
        <ele>1134.5</ele>
        <time>2023-04-06T10:39:01Z</time>
      </trkpt>
      <trkpt lat="44.3393" lon="5.64091">
        <ele>1134.5</ele>
        <time>2023-04-06T10:39:02Z</time>
      </trkpt>
      <trkpt lat="44.33924" lon="5.64098">
        <ele>1134.3</ele>
        <time>2023-04-06T10:39:04Z</time>
      </trkpt>
      <trkpt lat="44.3392" lon="5.64102">
        <ele>1134.2</ele>
        <time>2023-04-06T10:39:05Z</time>
      </trkpt>
      <trkpt lat="44.33916" lon="5.64106">
        <ele>1134.1</ele>
        <time>2023-04-06T10:39:06Z</time>
      </trkpt>
      <trkpt lat="44.33911" lon="5.64111">
        <ele>1133.9</ele>
        <time>2023-04-06T10:39:07Z</time>
      </trkpt>
      <trkpt lat="44.33906" lon="5.64116">
        <ele>1133.8</ele>
        <time>2023-04-06T10:39:08Z</time>
      </trkpt>
      <trkpt lat="44.33901" lon="5.6412">
        <ele>1133.7</ele>
        <time>2023-04-06T10:39:09Z</time>
      </trkpt>
      <trkpt lat="44.33898" lon="5.64125">
        <ele>1133.6</ele>
        <time>2023-04-06T10:39:10Z</time>
      </trkpt>
      <trkpt lat="44.33894" lon="5.64129">
        <ele>1133.5</ele>
        <time>2023-04-06T10:39:11Z</time>
      </trkpt>
      <trkpt lat="44.33891" lon="5.64133">
        <ele>1133.5</ele>
        <time>2023-04-06T10:39:12Z</time>
      </trkpt>
      <trkpt lat="44.33888" lon="5.64138">
        <ele>1133.4</ele>
        <time>2023-04-06T10:39:13Z</time>
      </trkpt>
      <trkpt lat="44.33884" lon="5.64142">
        <ele>1133.4</ele>
        <time>2023-04-06T10:39:14Z</time>
      </trkpt>
      <trkpt lat="44.3388" lon="5.64147">
        <ele>1133.4</ele>
        <time>2023-04-06T10:39:15Z</time>
      </trkpt>
      <trkpt lat="44.33877" lon="5.6415">
        <ele>1133.4</ele>
        <time>2023-04-06T10:39:16Z</time>
      </trkpt>
      <trkpt lat="44.33874" lon="5.64154">
        <ele>1133.4</ele>
        <time>2023-04-06T10:39:17Z</time>
      </trkpt>
      <trkpt lat="44.33871" lon="5.64157">
        <ele>1133.5</ele>
        <time>2023-04-06T10:39:18Z</time>
      </trkpt>
      <trkpt lat="44.33868" lon="5.6416">
        <ele>1133.5</ele>
        <time>2023-04-06T10:39:19Z</time>
      </trkpt>
      <trkpt lat="44.33866" lon="5.64163">
        <ele>1133.6</ele>
        <time>2023-04-06T10:39:20Z</time>
      </trkpt>
      <trkpt lat="44.33863" lon="5.64166">
        <ele>1133.6</ele>
        <time>2023-04-06T10:39:21Z</time>
      </trkpt>
      <trkpt lat="44.3386" lon="5.64169">
        <ele>1133.7</ele>
        <time>2023-04-06T10:39:22Z</time>
      </trkpt>
      <trkpt lat="44.33859" lon="5.6417">
        <ele>1133.7</ele>
        <time>2023-04-06T10:39:23Z</time>
      </trkpt>
      <trkpt lat="44.33857" lon="5.64172">
        <ele>1133.7</ele>
        <time>2023-04-06T10:39:24Z</time>
      </trkpt>
      <trkpt lat="44.33854" lon="5.64175">
        <ele>1133.7</ele>
        <time>2023-04-06T10:39:25Z</time>
      </trkpt>
      <trkpt lat="44.33852" lon="5.64178">
        <ele>1133.7</ele>
        <time>2023-04-06T10:39:26Z</time>
      </trkpt>
      <trkpt lat="44.3385" lon="5.6418">
        <ele>1133.7</ele>
        <time>2023-04-06T10:39:27Z</time>
      </trkpt>
      <trkpt lat="44.33847" lon="5.64183">
        <ele>1133.7</ele>
        <time>2023-04-06T10:39:28Z</time>
      </trkpt>
      <trkpt lat="44.33845" lon="5.64186">
        <ele>1133.6</ele>
        <time>2023-04-06T10:39:29Z</time>
      </trkpt>
      <trkpt lat="44.33843" lon="5.6419">
        <ele>1133.6</ele>
        <time>2023-04-06T10:39:30Z</time>
      </trkpt>
      <trkpt lat="44.33842" lon="5.64191">
        <ele>1133.6</ele>
        <time>2023-04-06T10:39:31Z</time>
      </trkpt>
      <trkpt lat="44.3384" lon="5.64194">
        <ele>1133.6</ele>
        <time>2023-04-06T10:39:32Z</time>
      </trkpt>
      <trkpt lat="44.33838" lon="5.64197">
        <ele>1133.6</ele>
        <time>2023-04-06T10:39:33Z</time>
      </trkpt>
      <trkpt lat="44.33837" lon="5.64201">
        <ele>1133.5</ele>
        <time>2023-04-06T10:39:34Z</time>
      </trkpt>
      <trkpt lat="44.33836" lon="5.64205">
        <ele>1133.5</ele>
        <time>2023-04-06T10:39:35Z</time>
      </trkpt>
      <trkpt lat="44.33836" lon="5.64206">
        <ele>1133.5</ele>
        <time>2023-04-06T10:39:36Z</time>
      </trkpt>
      <trkpt lat="44.33835" lon="5.64209">
        <ele>1133.5</ele>
        <time>2023-04-06T10:39:37Z</time>
      </trkpt>
      <trkpt lat="44.33834" lon="5.6421">
        <ele>1133.5</ele>
        <time>2023-04-06T10:39:38Z</time>
      </trkpt>
      <trkpt lat="44.33833" lon="5.64211">
        <ele>1133.5</ele>
        <time>2023-04-06T10:39:39Z</time>
      </trkpt>
      <trkpt lat="44.33832" lon="5.64214">
        <ele>1133.4</ele>
        <time>2023-04-06T10:39:40Z</time>
      </trkpt>
      <trkpt lat="44.33831" lon="5.64216">
        <ele>1133.4</ele>
        <time>2023-04-06T10:39:41Z</time>
      </trkpt>
      <trkpt lat="44.3383" lon="5.6422">
        <ele>1133.4</ele>
        <time>2023-04-06T10:39:42Z</time>
      </trkpt>
      <trkpt lat="44.33829" lon="5.64221">
        <ele>1133.3</ele>
        <time>2023-04-06T10:39:43Z</time>
      </trkpt>
      <trkpt lat="44.33829" lon="5.64225">
        <ele>1133.3</ele>
        <time>2023-04-06T10:39:44Z</time>
      </trkpt>
      <trkpt lat="44.33829" lon="5.6423">
        <ele>1133.2</ele>
        <time>2023-04-06T10:39:45Z</time>
      </trkpt>
      <trkpt lat="44.3383" lon="5.64235">
        <ele>1133</ele>
        <time>2023-04-06T10:39:46Z</time>
      </trkpt>
      <trkpt lat="44.33831" lon="5.64239">
        <ele>1132.9</ele>
        <time>2023-04-06T10:39:47Z</time>
      </trkpt>
      <trkpt lat="44.33832" lon="5.64244">
        <ele>1132.7</ele>
        <time>2023-04-06T10:39:48Z</time>
      </trkpt>
      <trkpt lat="44.33833" lon="5.6425">
        <ele>1132.5</ele>
        <time>2023-04-06T10:39:49Z</time>
      </trkpt>
      <trkpt lat="44.33834" lon="5.64255">
        <ele>1132.2</ele>
        <time>2023-04-06T10:39:50Z</time>
      </trkpt>
      <trkpt lat="44.33835" lon="5.64261">
        <ele>1131.9</ele>
        <time>2023-04-06T10:39:51Z</time>
      </trkpt>
      <trkpt lat="44.33835" lon="5.64267">
        <ele>1131.6</ele>
        <time>2023-04-06T10:39:52Z</time>
      </trkpt>
      <trkpt lat="44.33834" lon="5.64273">
        <ele>1131.3</ele>
        <time>2023-04-06T10:39:53Z</time>
      </trkpt>
      <trkpt lat="44.33832" lon="5.64279">
        <ele>1131</ele>
        <time>2023-04-06T10:39:54Z</time>
      </trkpt>
      <trkpt lat="44.33831" lon="5.64285">
        <ele>1130.8</ele>
        <time>2023-04-06T10:39:55Z</time>
      </trkpt>
      <trkpt lat="44.33831" lon="5.64298">
        <ele>1130.2</ele>
        <time>2023-04-06T10:39:57Z</time>
      </trkpt>
      <trkpt lat="44.33831" lon="5.64304">
        <ele>1129.9</ele>
        <time>2023-04-06T10:39:58Z</time>
      </trkpt>
      <trkpt lat="44.3383" lon="5.64313">
        <ele>1129.4</ele>
        <time>2023-04-06T10:40:00Z</time>
      </trkpt>
      <trkpt lat="44.33829" lon="5.64318">
        <ele>1129.2</ele>
        <time>2023-04-06T10:40:01Z</time>
      </trkpt>
      <trkpt lat="44.33828" lon="5.64322">
        <ele>1129</ele>
        <time>2023-04-06T10:40:02Z</time>
      </trkpt>
      <trkpt lat="44.33827" lon="5.64326">
        <ele>1128.8</ele>
        <time>2023-04-06T10:40:03Z</time>
      </trkpt>
      <trkpt lat="44.33826" lon="5.64331">
        <ele>1128.5</ele>
        <time>2023-04-06T10:40:04Z</time>
      </trkpt>
      <trkpt lat="44.33826" lon="5.64333">
        <ele>1128.4</ele>
        <time>2023-04-06T10:40:05Z</time>
      </trkpt>
      <trkpt lat="44.33825" lon="5.64338">
        <ele>1128.1</ele>
        <time>2023-04-06T10:40:06Z</time>
      </trkpt>
      <trkpt lat="44.33824" lon="5.6434">
        <ele>1128</ele>
        <time>2023-04-06T10:40:07Z</time>
      </trkpt>
      <trkpt lat="44.33822" lon="5.64344">
        <ele>1127.7</ele>
        <time>2023-04-06T10:40:08Z</time>
      </trkpt>
      <trkpt lat="44.33821" lon="5.64345">
        <ele>1127.6</ele>
        <time>2023-04-06T10:40:09Z</time>
      </trkpt>
      <trkpt lat="44.33817" lon="5.64353">
        <ele>1127.1</ele>
        <time>2023-04-06T10:40:11Z</time>
      </trkpt>
      <trkpt lat="44.33815" lon="5.64357">
        <ele>1126.8</ele>
        <time>2023-04-06T10:40:12Z</time>
      </trkpt>
      <trkpt lat="44.33813" lon="5.64361">
        <ele>1126.6</ele>
        <time>2023-04-06T10:40:13Z</time>
      </trkpt>
      <trkpt lat="44.3381" lon="5.64364">
        <ele>1126.4</ele>
        <time>2023-04-06T10:40:14Z</time>
      </trkpt>
      <trkpt lat="44.33806" lon="5.64368">
        <ele>1126.2</ele>
        <time>2023-04-06T10:40:15Z</time>
      </trkpt>
      <trkpt lat="44.33795" lon="5.64383">
        <ele>1125.4</ele>
        <time>2023-04-06T10:40:17Z</time>
      </trkpt>
      <trkpt lat="44.3379" lon="5.64393">
        <ele>1124.9</ele>
        <time>2023-04-06T10:40:18Z</time>
      </trkpt>
      <trkpt lat="44.33785" lon="5.64404">
        <ele>1119.4</ele>
        <time>2023-04-06T10:40:19Z</time>
      </trkpt>
      <trkpt lat="44.33781" lon="5.64411">
        <ele>1115.4</ele>
        <time>2023-04-06T10:40:20Z</time>
      </trkpt>
      <trkpt lat="44.33777" lon="5.64416">
        <ele>1111.9</ele>
        <time>2023-04-06T10:40:21Z</time>
      </trkpt>
      <trkpt lat="44.33767" lon="5.64422">
        <ele>1105</ele>
        <time>2023-04-06T10:40:23Z</time>
      </trkpt>
      <trkpt lat="44.33761" lon="5.64425">
        <ele>1101.9</ele>
        <time>2023-04-06T10:40:24Z</time>
      </trkpt>
      <trkpt lat="44.33757" lon="5.6443">
        <ele>1098.8</ele>
        <time>2023-04-06T10:40:25Z</time>
      </trkpt>
      <trkpt lat="44.33754" lon="5.64436">
        <ele>1095.6</ele>
        <time>2023-04-06T10:40:26Z</time>
      </trkpt>
      <trkpt lat="44.33751" lon="5.64442">
        <ele>1094.7</ele>
        <time>2023-04-06T10:40:27Z</time>
      </trkpt>
      <trkpt lat="44.33749" lon="5.64446">
        <ele>1094.1</ele>
        <time>2023-04-06T10:40:28Z</time>
      </trkpt>
      <trkpt lat="44.33747" lon="5.64449">
        <ele>1093.6</ele>
        <time>2023-04-06T10:40:29Z</time>
      </trkpt>
      <trkpt lat="44.33744" lon="5.64452">
        <ele>1093.1</ele>
        <time>2023-04-06T10:40:30Z</time>
      </trkpt>
      <trkpt lat="44.33743" lon="5.64452">
        <ele>1092.9</ele>
        <time>2023-04-06T10:40:31Z</time>
      </trkpt>
      <trkpt lat="44.33742" lon="5.64453">
        <ele>1092.8</ele>
        <time>2023-04-06T10:40:32Z</time>
      </trkpt>
      <trkpt lat="44.33742" lon="5.64454">
        <ele>1092.6</ele>
        <time>2023-04-06T10:40:34Z</time>
      </trkpt>
      <trkpt lat="44.33741" lon="5.64456">
        <ele>1092.3</ele>
        <time>2023-04-06T10:40:35Z</time>
      </trkpt>
      <trkpt lat="44.33741" lon="5.64456">
        <ele>1092.3</ele>
        <time>2023-04-06T10:40:36Z</time>
      </trkpt>
      <trkpt lat="44.33741" lon="5.64456">
        <ele>1092.3</ele>
        <time>2023-04-06T10:40:37Z</time>
      </trkpt>
      <trkpt lat="44.33741" lon="5.64456">
        <ele>1092.3</ele>
        <time>2023-04-06T10:40:38Z</time>
      </trkpt>
      <trkpt lat="44.33741" lon="5.64456">
        <ele>1092.3</ele>
        <time>2023-04-06T10:40:39Z</time>
      </trkpt>
      <trkpt lat="44.33741" lon="5.64456">
        <ele>1092.3</ele>
        <time>2023-04-06T10:40:40Z</time>
      </trkpt>
      <trkpt lat="44.33741" lon="5.64456">
        <ele>1092.3</ele>
        <time>2023-04-06T10:40:41Z</time>
      </trkpt>
      <trkpt lat="44.33741" lon="5.64456">
        <ele>1092.3</ele>
        <time>2023-04-06T10:40:43Z</time>
      </trkpt>
      <trkpt lat="44.3374" lon="5.64458">
        <ele>1092</ele>
        <time>2023-04-06T10:40:45Z</time>
      </trkpt>
      <trkpt lat="44.3374" lon="5.6446">
        <ele>1091.8</ele>
        <time>2023-04-06T10:40:46Z</time>
      </trkpt>
      <trkpt lat="44.33741" lon="5.64461">
        <ele>1091.7</ele>
        <time>2023-04-06T10:40:47Z</time>
      </trkpt>
      <trkpt lat="44.33741" lon="5.6446">
        <ele>1091.6</ele>
        <time>2023-04-06T10:40:48Z</time>
      </trkpt>
      <trkpt lat="44.33741" lon="5.6446">
        <ele>1091.6</ele>
        <time>2023-04-06T10:40:49Z</time>
      </trkpt>
      <trkpt lat="44.33741" lon="5.64462">
        <ele>1091.4</ele>
        <time>2023-04-06T10:40:51Z</time>
      </trkpt>
      <trkpt lat="44.3374" lon="5.64464">
        <ele>1091.2</ele>
        <time>2023-04-06T10:40:52Z</time>
      </trkpt>
      <trkpt lat="44.3374" lon="5.64464">
        <ele>1091.1</ele>
        <time>2023-04-06T10:40:53Z</time>
      </trkpt>
      <trkpt lat="44.33739" lon="5.64463">
        <ele>1091</ele>
        <time>2023-04-06T10:40:54Z</time>
      </trkpt>
      <trkpt lat="44.33739" lon="5.64465">
        <ele>1090.9</ele>
        <time>2023-04-06T10:40:56Z</time>
      </trkpt>
      <trkpt lat="44.33739" lon="5.64465">
        <ele>1090.8</ele>
        <time>2023-04-06T10:40:57Z</time>
      </trkpt>
      <trkpt lat="44.33739" lon="5.64465">
        <ele>1090.8</ele>
        <time>2023-04-06T10:40:59Z</time>
      </trkpt>
      <trkpt lat="44.33739" lon="5.64465">
        <ele>1090.8</ele>
        <time>2023-04-06T10:41:01Z</time>
      </trkpt>
      <trkpt lat="44.33739" lon="5.64465">
        <ele>1090.8</ele>
        <time>2023-04-06T10:41:03Z</time>
      </trkpt>
      <trkpt lat="44.33739" lon="5.64465">
        <ele>1090.8</ele>
        <time>2023-04-06T10:41:04Z</time>
      </trkpt>
      <trkpt lat="44.33733" lon="5.64463">
        <ele>1089.8</ele>
        <time>2023-04-06T10:42:11Z</time>
      </trkpt>
      <trkpt lat="44.33733" lon="5.64463">
        <ele>1089.7</ele>
        <time>2023-04-06T10:42:12Z</time>
      </trkpt>
      <trkpt lat="44.33733" lon="5.64463">
        <ele>1089.7</ele>
        <time>2023-04-06T10:42:13Z</time>
      </trkpt>
      <trkpt lat="44.33733" lon="5.64463">
        <ele>1089.7</ele>
        <time>2023-04-06T10:42:14Z</time>
      </trkpt>
      <trkpt lat="44.33733" lon="5.64463">
        <ele>1089.7</ele>
        <time>2023-04-06T10:42:15Z</time>
      </trkpt>
      <trkpt lat="44.33733" lon="5.64463">
        <ele>1089.7</ele>
        <time>2023-04-06T10:42:16Z</time>
      </trkpt>
      <trkpt lat="44.33733" lon="5.64465">
        <ele>1089.5</ele>
        <time>2023-04-06T10:42:17Z</time>
      </trkpt>
      <trkpt lat="44.33733" lon="5.64467">
        <ele>1089.2</ele>
        <time>2023-04-06T10:42:18Z</time>
      </trkpt>
      <trkpt lat="44.33733" lon="5.64471">
        <ele>1088.6</ele>
        <time>2023-04-06T10:42:19Z</time>
      </trkpt>
      <trkpt lat="44.33733" lon="5.64473">
        <ele>1088.4</ele>
        <time>2023-04-06T10:42:20Z</time>
      </trkpt>
      <trkpt lat="44.33733" lon="5.64478">
        <ele>1087.8</ele>
        <time>2023-04-06T10:42:21Z</time>
      </trkpt>
      <trkpt lat="44.33734" lon="5.64483">
        <ele>1087.3</ele>
        <time>2023-04-06T10:42:23Z</time>
      </trkpt>
      <trkpt lat="44.33735" lon="5.64493">
        <ele>1086.4</ele>
        <time>2023-04-06T10:42:25Z</time>
      </trkpt>
      <trkpt lat="44.33736" lon="5.64503">
        <ele>1085.6</ele>
        <time>2023-04-06T10:42:26Z</time>
      </trkpt>
      <trkpt lat="44.33737" lon="5.64509">
        <ele>1085.3</ele>
        <time>2023-04-06T10:42:27Z</time>
      </trkpt>
      <trkpt lat="44.33737" lon="5.64514">
        <ele>1084.9</ele>
        <time>2023-04-06T10:42:28Z</time>
      </trkpt>
      <trkpt lat="44.33737" lon="5.6452">
        <ele>1084.4</ele>
        <time>2023-04-06T10:42:29Z</time>
      </trkpt>
      <trkpt lat="44.33737" lon="5.64526">
        <ele>1083.9</ele>
        <time>2023-04-06T10:42:30Z</time>
      </trkpt>
      <trkpt lat="44.33737" lon="5.64532">
        <ele>1083.4</ele>
        <time>2023-04-06T10:42:31Z</time>
      </trkpt>
      <trkpt lat="44.33736" lon="5.64541">
        <ele>1082.5</ele>
        <time>2023-04-06T10:42:33Z</time>
      </trkpt>
      <trkpt lat="44.33736" lon="5.64546">
        <ele>1082</ele>
        <time>2023-04-06T10:42:34Z</time>
      </trkpt>
      <trkpt lat="44.33736" lon="5.64547">
        <ele>1081.9</ele>
        <time>2023-04-06T10:42:35Z</time>
      </trkpt>
      <trkpt lat="44.33737" lon="5.64553">
        <ele>1081.2</ele>
        <time>2023-04-06T10:42:37Z</time>
      </trkpt>
      <trkpt lat="44.33738" lon="5.64557">
        <ele>1080.7</ele>
        <time>2023-04-06T10:42:38Z</time>
      </trkpt>
      <trkpt lat="44.33738" lon="5.64559">
        <ele>1080.6</ele>
        <time>2023-04-06T10:42:39Z</time>
      </trkpt>
      <trkpt lat="44.33739" lon="5.64563">
        <ele>1080.1</ele>
        <time>2023-04-06T10:42:40Z</time>
      </trkpt>
      <trkpt lat="44.33739" lon="5.64565">
        <ele>1079.9</ele>
        <time>2023-04-06T10:42:41Z</time>
      </trkpt>
      <trkpt lat="44.33738" lon="5.64568">
        <ele>1079.5</ele>
        <time>2023-04-06T10:42:42Z</time>
      </trkpt>
      <trkpt lat="44.33736" lon="5.64572">
        <ele>1079</ele>
        <time>2023-04-06T10:42:43Z</time>
      </trkpt>
      <trkpt lat="44.33734" lon="5.64576">
        <ele>1078.3</ele>
        <time>2023-04-06T10:42:44Z</time>
      </trkpt>
      <trkpt lat="44.33734" lon="5.64577">
        <ele>1078.1</ele>
        <time>2023-04-06T10:42:45Z</time>
      </trkpt>
      <trkpt lat="44.33732" lon="5.6458">
        <ele>1077.7</ele>
        <time>2023-04-06T10:42:46Z</time>
      </trkpt>
      <trkpt lat="44.33731" lon="5.64585">
        <ele>1076.9</ele>
        <time>2023-04-06T10:42:48Z</time>
      </trkpt>
      <trkpt lat="44.3373" lon="5.64587">
        <ele>1076.5</ele>
        <time>2023-04-06T10:42:49Z</time>
      </trkpt>
      <trkpt lat="44.3373" lon="5.64592">
        <ele>1075.8</ele>
        <time>2023-04-06T10:42:50Z</time>
      </trkpt>
      <trkpt lat="44.33729" lon="5.64594">
        <ele>1075.5</ele>
        <time>2023-04-06T10:42:51Z</time>
      </trkpt>
      <trkpt lat="44.33728" lon="5.64598">
        <ele>1074.8</ele>
        <time>2023-04-06T10:42:52Z</time>
      </trkpt>
      <trkpt lat="44.33728" lon="5.646">
        <ele>1074.6</ele>
        <time>2023-04-06T10:42:53Z</time>
      </trkpt>
      <trkpt lat="44.33726" lon="5.64605">
        <ele>1073.8</ele>
        <time>2023-04-06T10:42:55Z</time>
      </trkpt>
      <trkpt lat="44.33725" lon="5.64609">
        <ele>1073.3</ele>
        <time>2023-04-06T10:42:56Z</time>
      </trkpt>
      <trkpt lat="44.33724" lon="5.64613">
        <ele>1072.7</ele>
        <time>2023-04-06T10:42:57Z</time>
      </trkpt>
      <trkpt lat="44.33722" lon="5.64616">
        <ele>1072.1</ele>
        <time>2023-04-06T10:42:58Z</time>
      </trkpt>
      <trkpt lat="44.33721" lon="5.64617">
        <ele>1071.9</ele>
        <time>2023-04-06T10:42:59Z</time>
      </trkpt>
      <trkpt lat="44.33717" lon="5.64619">
        <ele>1071.1</ele>
        <time>2023-04-06T10:43:00Z</time>
      </trkpt>
      <trkpt lat="44.33712" lon="5.64622">
        <ele>1070.1</ele>
        <time>2023-04-06T10:43:01Z</time>
      </trkpt>
      <trkpt lat="44.33707" lon="5.64626">
        <ele>1068.8</ele>
        <time>2023-04-06T10:43:02Z</time>
      </trkpt>
      <trkpt lat="44.33701" lon="5.64632">
        <ele>1067.6</ele>
        <time>2023-04-06T10:43:03Z</time>
      </trkpt>
      <trkpt lat="44.33695" lon="5.64636">
        <ele>1066.3</ele>
        <time>2023-04-06T10:43:04Z</time>
      </trkpt>
      <trkpt lat="44.3368" lon="5.64641">
        <ele>1064.4</ele>
        <time>2023-04-06T10:43:06Z</time>
      </trkpt>
      <trkpt lat="44.33673" lon="5.64643">
        <ele>1064.1</ele>
        <time>2023-04-06T10:43:07Z</time>
      </trkpt>
      <trkpt lat="44.33666" lon="5.64646">
        <ele>1063.8</ele>
        <time>2023-04-06T10:43:08Z</time>
      </trkpt>
      <trkpt lat="44.33659" lon="5.64648">
        <ele>1063.4</ele>
        <time>2023-04-06T10:43:09Z</time>
      </trkpt>
      <trkpt lat="44.33652" lon="5.64651">
        <ele>1063.1</ele>
        <time>2023-04-06T10:43:10Z</time>
      </trkpt>
      <trkpt lat="44.33646" lon="5.64654">
        <ele>1062.8</ele>
        <time>2023-04-06T10:43:11Z</time>
      </trkpt>
      <trkpt lat="44.3364" lon="5.64657">
        <ele>1062.5</ele>
        <time>2023-04-06T10:43:12Z</time>
      </trkpt>
      <trkpt lat="44.33636" lon="5.64661">
        <ele>1062.3</ele>
        <time>2023-04-06T10:43:13Z</time>
      </trkpt>
      <trkpt lat="44.33632" lon="5.64665">
        <ele>1062.1</ele>
        <time>2023-04-06T10:43:14Z</time>
      </trkpt>
      <trkpt lat="44.33629" lon="5.64671">
        <ele>1061.8</ele>
        <time>2023-04-06T10:43:15Z</time>
      </trkpt>
      <trkpt lat="44.33626" lon="5.64677">
        <ele>1061.6</ele>
        <time>2023-04-06T10:43:16Z</time>
      </trkpt>
      <trkpt lat="44.33623" lon="5.64684">
        <ele>1061.3</ele>
        <time>2023-04-06T10:43:17Z</time>
      </trkpt>
      <trkpt lat="44.3362" lon="5.64691">
        <ele>1061</ele>
        <time>2023-04-06T10:43:18Z</time>
      </trkpt>
      <trkpt lat="44.33617" lon="5.64697">
        <ele>1060.8</ele>
        <time>2023-04-06T10:43:19Z</time>
      </trkpt>
      <trkpt lat="44.33614" lon="5.64703">
        <ele>1060.6</ele>
        <time>2023-04-06T10:43:20Z</time>
      </trkpt>
      <trkpt lat="44.33612" lon="5.64707">
        <ele>1060.4</ele>
        <time>2023-04-06T10:43:21Z</time>
      </trkpt>
      <trkpt lat="44.33606" lon="5.64714">
        <ele>1060</ele>
        <time>2023-04-06T10:43:23Z</time>
      </trkpt>
      <trkpt lat="44.33602" lon="5.64716">
        <ele>1059.8</ele>
        <time>2023-04-06T10:43:24Z</time>
      </trkpt>
      <trkpt lat="44.33596" lon="5.64719">
        <ele>1059.6</ele>
        <time>2023-04-06T10:43:25Z</time>
      </trkpt>
      <trkpt lat="44.33591" lon="5.64722">
        <ele>1059.3</ele>
        <time>2023-04-06T10:43:26Z</time>
      </trkpt>
      <trkpt lat="44.33587" lon="5.64726">
        <ele>1059</ele>
        <time>2023-04-06T10:43:27Z</time>
      </trkpt>
      <trkpt lat="44.33582" lon="5.6473">
        <ele>1058.8</ele>
        <time>2023-04-06T10:43:28Z</time>
      </trkpt>
      <trkpt lat="44.33577" lon="5.64733">
        <ele>1058.5</ele>
        <time>2023-04-06T10:43:29Z</time>
      </trkpt>
      <trkpt lat="44.33573" lon="5.64735">
        <ele>1058.4</ele>
        <time>2023-04-06T10:43:30Z</time>
      </trkpt>
      <trkpt lat="44.3357" lon="5.64735">
        <ele>1058.2</ele>
        <time>2023-04-06T10:43:31Z</time>
      </trkpt>
      <trkpt lat="44.33568" lon="5.64734">
        <ele>1058.1</ele>
        <time>2023-04-06T10:43:32Z</time>
      </trkpt>
      <trkpt lat="44.33567" lon="5.64733">
        <ele>1058.1</ele>
        <time>2023-04-06T10:43:33Z</time>
      </trkpt>
      <trkpt lat="44.33569" lon="5.6473">
        <ele>1058</ele>
        <time>2023-04-06T10:43:34Z</time>
      </trkpt>
      <trkpt lat="44.3357" lon="5.6473">
        <ele>1057.9</ele>
        <time>2023-04-06T10:43:35Z</time>
      </trkpt>
      <trkpt lat="44.33574" lon="5.64733">
        <ele>1057.7</ele>
        <time>2023-04-06T10:43:36Z</time>
      </trkpt>
      <trkpt lat="44.33575" lon="5.64734">
        <ele>1057.6</ele>
        <time>2023-04-06T10:43:37Z</time>
      </trkpt>
      <trkpt lat="44.33578" lon="5.64734">
        <ele>1057.7</ele>
        <time>2023-04-06T10:43:38Z</time>
      </trkpt>
      <trkpt lat="44.33579" lon="5.64734">
        <ele>1057.8</ele>
        <time>2023-04-06T10:43:39Z</time>
      </trkpt>
      <trkpt lat="44.33582" lon="5.64732">
        <ele>1058</ele>
        <time>2023-04-06T10:43:40Z</time>
      </trkpt>
      <trkpt lat="44.33583" lon="5.64731">
        <ele>1058</ele>
        <time>2023-04-06T10:43:41Z</time>
      </trkpt>
      <trkpt lat="44.33586" lon="5.64728">
        <ele>1058.2</ele>
        <time>2023-04-06T10:43:42Z</time>
      </trkpt>
      <trkpt lat="44.33589" lon="5.64726">
        <ele>1058.4</ele>
        <time>2023-04-06T10:43:43Z</time>
      </trkpt>
      <trkpt lat="44.33592" lon="5.64724">
        <ele>1058.6</ele>
        <time>2023-04-06T10:43:44Z</time>
      </trkpt>
      <trkpt lat="44.33595" lon="5.64721">
        <ele>1058.7</ele>
        <time>2023-04-06T10:43:45Z</time>
      </trkpt>
      <trkpt lat="44.33598" lon="5.64718">
        <ele>1058.9</ele>
        <time>2023-04-06T10:43:46Z</time>
      </trkpt>
      <trkpt lat="44.33601" lon="5.64715">
        <ele>1059.1</ele>
        <time>2023-04-06T10:43:47Z</time>
      </trkpt>
      <trkpt lat="44.33603" lon="5.64711">
        <ele>1059.3</ele>
        <time>2023-04-06T10:43:48Z</time>
      </trkpt>
      <trkpt lat="44.33606" lon="5.64707">
        <ele>1059.5</ele>
        <time>2023-04-06T10:43:49Z</time>
      </trkpt>
      <trkpt lat="44.33608" lon="5.64703">
        <ele>1059.7</ele>
        <time>2023-04-06T10:43:50Z</time>
      </trkpt>
      <trkpt lat="44.33611" lon="5.64699">
        <ele>1059.9</ele>
        <time>2023-04-06T10:43:51Z</time>
      </trkpt>
      <trkpt lat="44.33613" lon="5.64694">
        <ele>1060.1</ele>
        <time>2023-04-06T10:43:52Z</time>
      </trkpt>
      <trkpt lat="44.33615" lon="5.6469">
        <ele>1060.3</ele>
        <time>2023-04-06T10:43:53Z</time>
      </trkpt>
      <trkpt lat="44.33617" lon="5.64685">
        <ele>1060.5</ele>
        <time>2023-04-06T10:43:54Z</time>
      </trkpt>
      <trkpt lat="44.3362" lon="5.64681">
        <ele>1060.7</ele>
        <time>2023-04-06T10:43:55Z</time>
      </trkpt>
      <trkpt lat="44.33623" lon="5.64677">
        <ele>1060.9</ele>
        <time>2023-04-06T10:43:56Z</time>
      </trkpt>
      <trkpt lat="44.33625" lon="5.64673">
        <ele>1061.1</ele>
        <time>2023-04-06T10:43:57Z</time>
      </trkpt>
      <trkpt lat="44.33628" lon="5.64669">
        <ele>1061.3</ele>
        <time>2023-04-06T10:43:58Z</time>
      </trkpt>
      <trkpt lat="44.33631" lon="5.64666">
        <ele>1061.5</ele>
        <time>2023-04-06T10:43:59Z</time>
      </trkpt>
      <trkpt lat="44.33634" lon="5.64662">
        <ele>1061.7</ele>
        <time>2023-04-06T10:44:00Z</time>
      </trkpt>
      <trkpt lat="44.33637" lon="5.6466">
        <ele>1061.9</ele>
        <time>2023-04-06T10:44:01Z</time>
      </trkpt>
      <trkpt lat="44.33643" lon="5.64655">
        <ele>1062.2</ele>
        <time>2023-04-06T10:44:03Z</time>
      </trkpt>
      <trkpt lat="44.33645" lon="5.64654">
        <ele>1062.4</ele>
        <time>2023-04-06T10:44:04Z</time>
      </trkpt>
      <trkpt lat="44.33648" lon="5.64652">
        <ele>1062.5</ele>
        <time>2023-04-06T10:44:05Z</time>
      </trkpt>
      <trkpt lat="44.33651" lon="5.64651">
        <ele>1062.7</ele>
        <time>2023-04-06T10:44:06Z</time>
      </trkpt>
      <trkpt lat="44.33657" lon="5.64648">
        <ele>1063</ele>
        <time>2023-04-06T10:44:08Z</time>
      </trkpt>
      <trkpt lat="44.33661" lon="5.64647">
        <ele>1063.3</ele>
        <time>2023-04-06T10:44:09Z</time>
      </trkpt>
      <trkpt lat="44.33668" lon="5.64644">
        <ele>1063.6</ele>
        <time>2023-04-06T10:44:11Z</time>
      </trkpt>
      <trkpt lat="44.33671" lon="5.64643">
        <ele>1063.8</ele>
        <time>2023-04-06T10:44:12Z</time>
      </trkpt>
      <trkpt lat="44.33678" lon="5.6464">
        <ele>1064.1</ele>
        <time>2023-04-06T10:44:14Z</time>
      </trkpt>
      <trkpt lat="44.33681" lon="5.6464">
        <ele>1064.3</ele>
        <time>2023-04-06T10:44:15Z</time>
      </trkpt>
      <trkpt lat="44.33682" lon="5.64641">
        <ele>1064.4</ele>
        <time>2023-04-06T10:44:16Z</time>
      </trkpt>
      <trkpt lat="44.33685" lon="5.64642">
        <ele>1064.5</ele>
        <time>2023-04-06T10:44:18Z</time>
      </trkpt>
      <trkpt lat="44.33685" lon="5.64642">
        <ele>1064.5</ele>
        <time>2023-04-06T10:44:19Z</time>
      </trkpt>
      <trkpt lat="44.33686" lon="5.64643">
        <ele>1064.6</ele>
        <time>2023-04-06T10:44:20Z</time>
      </trkpt>
      <trkpt lat="44.33686" lon="5.64643">
        <ele>1064.6</ele>
        <time>2023-04-06T10:44:21Z</time>
      </trkpt>
      <trkpt lat="44.33686" lon="5.64643">
        <ele>1064.6</ele>
        <time>2023-04-06T10:44:22Z</time>
      </trkpt>
      <trkpt lat="44.33686" lon="5.64643">
        <ele>1064.6</ele>
        <time>2023-04-06T10:44:23Z</time>
      </trkpt>
      <trkpt lat="44.33686" lon="5.64643">
        <ele>1064.6</ele>
        <time>2023-04-06T10:44:25Z</time>
      </trkpt>
      <trkpt lat="44.33686" lon="5.64643">
        <ele>1064.6</ele>
        <time>2023-04-06T10:44:26Z</time>
      </trkpt>
      <trkpt lat="44.33686" lon="5.64643">
        <ele>1064.6</ele>
        <time>2023-04-06T10:44:27Z</time>
      </trkpt>
      <trkpt lat="44.33686" lon="5.64643">
        <ele>1064.6</ele>
        <time>2023-04-06T10:44:28Z</time>
      </trkpt>
      <trkpt lat="44.33686" lon="5.64643">
        <ele>1064.6</ele>
        <time>2023-04-06T10:44:29Z</time>
      </trkpt>
      <trkpt lat="44.33686" lon="5.64643">
        <ele>1064.6</ele>
        <time>2023-04-06T10:44:31Z</time>
      </trkpt>
      <trkpt lat="44.33688" lon="5.6464">
        <ele>1064.7</ele>
        <time>2023-04-06T10:44:43Z</time>
      </trkpt>
      <trkpt lat="44.33688" lon="5.6464">
        <ele>1064.8</ele>
        <time>2023-04-06T10:44:44Z</time>
      </trkpt>
      <trkpt lat="44.33688" lon="5.6464">
        <ele>1064.8</ele>
        <time>2023-04-06T10:44:45Z</time>
      </trkpt>
      <trkpt lat="44.33688" lon="5.6464">
        <ele>1064.8</ele>
        <time>2023-04-06T10:44:46Z</time>
      </trkpt>
      <trkpt lat="44.33688" lon="5.6464">
        <ele>1064.8</ele>
        <time>2023-04-06T10:44:47Z</time>
      </trkpt>
      <trkpt lat="44.33688" lon="5.6464">
        <ele>1064.8</ele>
        <time>2023-04-06T10:44:48Z</time>
      </trkpt>
      <trkpt lat="44.33688" lon="5.6464">
        <ele>1064.8</ele>
        <time>2023-04-06T10:44:49Z</time>
      </trkpt>
      <trkpt lat="44.33688" lon="5.6464">
        <ele>1064.8</ele>
        <time>2023-04-06T10:44:50Z</time>
      </trkpt>
      <trkpt lat="44.33688" lon="5.6464">
        <ele>1064.8</ele>
        <time>2023-04-06T10:44:51Z</time>
      </trkpt>
      <trkpt lat="44.33688" lon="5.6464">
        <ele>1064.8</ele>
        <time>2023-04-06T10:44:52Z</time>
      </trkpt>
      <trkpt lat="44.33688" lon="5.6464">
        <ele>1064.8</ele>
        <time>2023-04-06T10:44:53Z</time>
      </trkpt>
      <trkpt lat="44.33688" lon="5.6464">
        <ele>1064.8</ele>
        <time>2023-04-06T10:44:54Z</time>
      </trkpt>
      <trkpt lat="44.33688" lon="5.6464">
        <ele>1064.8</ele>
        <time>2023-04-06T10:44:55Z</time>
      </trkpt>
      <trkpt lat="44.33688" lon="5.6464">
        <ele>1064.8</ele>
        <time>2023-04-06T10:44:56Z</time>
      </trkpt>
      <trkpt lat="44.33688" lon="5.6464">
        <ele>1064.8</ele>
        <time>2023-04-06T10:44:57Z</time>
      </trkpt>
      <trkpt lat="44.33688" lon="5.6464">
        <ele>1064.8</ele>
        <time>2023-04-06T10:44:58Z</time>
      </trkpt>
      <trkpt lat="44.33688" lon="5.6464">
        <ele>1064.8</ele>
        <time>2023-04-06T10:44:59Z</time>
      </trkpt>
      <trkpt lat="44.33688" lon="5.6464">
        <ele>1064.8</ele>
        <time>2023-04-06T10:45:00Z</time>
      </trkpt>
      <trkpt lat="44.33688" lon="5.6464">
        <ele>1064.8</ele>
        <time>2023-04-06T10:45:01Z</time>
      </trkpt>
      <trkpt lat="44.33688" lon="5.6464">
        <ele>1064.8</ele>
        <time>2023-04-06T10:45:02Z</time>
      </trkpt>
      <trkpt lat="44.33688" lon="5.6464">
        <ele>1064.8</ele>
        <time>2023-04-06T10:45:03Z</time>
      </trkpt>
      <trkpt lat="44.33688" lon="5.6464">
        <ele>1064.8</ele>
        <time>2023-04-06T10:45:04Z</time>
      </trkpt>
      <trkpt lat="44.33688" lon="5.6464">
        <ele>1064.8</ele>
        <time>2023-04-06T10:45:05Z</time>
      </trkpt>
      <trkpt lat="44.33688" lon="5.6464">
        <ele>1064.8</ele>
        <time>2023-04-06T10:45:06Z</time>
      </trkpt>
      <trkpt lat="44.33688" lon="5.6464">
        <ele>1064.8</ele>
        <time>2023-04-06T10:45:07Z</time>
      </trkpt>
      <trkpt lat="44.33688" lon="5.6464">
        <ele>1064.8</ele>
        <time>2023-04-06T10:45:08Z</time>
      </trkpt>
      <trkpt lat="44.33688" lon="5.6464">
        <ele>1064.8</ele>
        <time>2023-04-06T10:45:09Z</time>
      </trkpt>
      <trkpt lat="44.33688" lon="5.6464">
        <ele>1064.8</ele>
        <time>2023-04-06T10:45:10Z</time>
      </trkpt>
      <trkpt lat="44.33688" lon="5.6464">
        <ele>1064.8</ele>
        <time>2023-04-06T10:45:11Z</time>
      </trkpt>
      <trkpt lat="44.33688" lon="5.6464">
        <ele>1064.8</ele>
        <time>2023-04-06T10:45:12Z</time>
      </trkpt>
      <trkpt lat="44.33688" lon="5.6464">
        <ele>1064.8</ele>
        <time>2023-04-06T10:45:13Z</time>
      </trkpt>
      <trkpt lat="44.33688" lon="5.6464">
        <ele>1064.8</ele>
        <time>2023-04-06T10:45:14Z</time>
      </trkpt>
      <trkpt lat="44.33688" lon="5.6464">
        <ele>1064.8</ele>
        <time>2023-04-06T10:45:15Z</time>
      </trkpt>
      <trkpt lat="44.33688" lon="5.6464">
        <ele>1064.8</ele>
        <time>2023-04-06T10:45:16Z</time>
      </trkpt>
      <trkpt lat="44.33688" lon="5.6464">
        <ele>1064.8</ele>
        <time>2023-04-06T10:45:17Z</time>
      </trkpt>
      <trkpt lat="44.33688" lon="5.6464">
        <ele>1064.8</ele>
        <time>2023-04-06T10:45:18Z</time>
      </trkpt>
      <trkpt lat="44.33688" lon="5.6464">
        <ele>1064.8</ele>
        <time>2023-04-06T10:45:19Z</time>
      </trkpt>
      <trkpt lat="44.33688" lon="5.6464">
        <ele>1064.8</ele>
        <time>2023-04-06T10:45:20Z</time>
      </trkpt>
      <trkpt lat="44.33688" lon="5.6464">
        <ele>1064.8</ele>
        <time>2023-04-06T10:45:21Z</time>
      </trkpt>
      <trkpt lat="44.33688" lon="5.6464">
        <ele>1064.8</ele>
        <time>2023-04-06T10:45:22Z</time>
      </trkpt>
      <trkpt lat="44.33688" lon="5.6464">
        <ele>1064.8</ele>
        <time>2023-04-06T10:45:23Z</time>
      </trkpt>
      <trkpt lat="44.33688" lon="5.6464">
        <ele>1064.8</ele>
        <time>2023-04-06T10:45:24Z</time>
      </trkpt>
      <trkpt lat="44.33688" lon="5.6464">
        <ele>1064.8</ele>
        <time>2023-04-06T10:45:25Z</time>
      </trkpt>
      <trkpt lat="44.33688" lon="5.6464">
        <ele>1064.8</ele>
        <time>2023-04-06T10:45:26Z</time>
      </trkpt>
      <trkpt lat="44.33688" lon="5.6464">
        <ele>1064.8</ele>
        <time>2023-04-06T10:45:27Z</time>
      </trkpt>
      <trkpt lat="44.33688" lon="5.6464">
        <ele>1064.8</ele>
        <time>2023-04-06T10:45:29Z</time>
      </trkpt>
      <trkpt lat="44.33688" lon="5.6464">
        <ele>1064.8</ele>
        <time>2023-04-06T10:45:30Z</time>
      </trkpt>
      <trkpt lat="44.33688" lon="5.6464">
        <ele>1064.8</ele>
        <time>2023-04-06T10:45:31Z</time>
      </trkpt>
      <trkpt lat="44.33688" lon="5.6464">
        <ele>1064.8</ele>
        <time>2023-04-06T10:45:32Z</time>
      </trkpt>
      <trkpt lat="44.33688" lon="5.6464">
        <ele>1064.8</ele>
        <time>2023-04-06T10:45:33Z</time>
      </trkpt>
      <trkpt lat="44.33688" lon="5.6464">
        <ele>1064.8</ele>
        <time>2023-04-06T10:45:34Z</time>
      </trkpt>
      <trkpt lat="44.33688" lon="5.6464">
        <ele>1064.8</ele>
        <time>2023-04-06T10:45:35Z</time>
      </trkpt>
      <trkpt lat="44.33688" lon="5.6464">
        <ele>1064.8</ele>
        <time>2023-04-06T10:45:37Z</time>
      </trkpt>
      <trkpt lat="44.33688" lon="5.6464">
        <ele>1064.8</ele>
        <time>2023-04-06T10:45:38Z</time>
      </trkpt>
      <trkpt lat="44.33688" lon="5.6464">
        <ele>1064.8</ele>
        <time>2023-04-06T10:45:39Z</time>
      </trkpt>
      <trkpt lat="44.33688" lon="5.6464">
        <ele>1064.8</ele>
        <time>2023-04-06T10:45:40Z</time>
      </trkpt>
      <trkpt lat="44.33688" lon="5.6464">
        <ele>1064.8</ele>
        <time>2023-04-06T10:45:41Z</time>
      </trkpt>
      <trkpt lat="44.33688" lon="5.6464">
        <ele>1064.8</ele>
        <time>2023-04-06T10:45:43Z</time>
      </trkpt>
      <trkpt lat="44.33688" lon="5.6464">
        <ele>1064.8</ele>
        <time>2023-04-06T10:45:44Z</time>
      </trkpt>
      <trkpt lat="44.33688" lon="5.6464">
        <ele>1064.8</ele>
        <time>2023-04-06T10:45:45Z</time>
      </trkpt>
      <trkpt lat="44.33688" lon="5.6464">
        <ele>1064.8</ele>
        <time>2023-04-06T10:45:46Z</time>
      </trkpt>
      <trkpt lat="44.33688" lon="5.6464">
        <ele>1064.8</ele>
        <time>2023-04-06T10:45:47Z</time>
      </trkpt>
      <trkpt lat="44.33688" lon="5.6464">
        <ele>1064.8</ele>
        <time>2023-04-06T10:45:48Z</time>
      </trkpt>
      <trkpt lat="44.33691" lon="5.64642">
        <ele>1064.6</ele>
        <time>2023-04-06T10:45:49Z</time>
      </trkpt>
      <trkpt lat="44.33692" lon="5.64644">
        <ele>1064.4</ele>
        <time>2023-04-06T10:45:50Z</time>
      </trkpt>
      <trkpt lat="44.33692" lon="5.64644">
        <ele>1064.3</ele>
        <time>2023-04-06T10:45:51Z</time>
      </trkpt>
      <trkpt lat="44.33693" lon="5.64645">
        <ele>1064.2</ele>
        <time>2023-04-06T10:45:52Z</time>
      </trkpt>
      <trkpt lat="44.33693" lon="5.64646">
        <ele>1064.2</ele>
        <time>2023-04-06T10:45:54Z</time>
      </trkpt>
      <trkpt lat="44.33693" lon="5.64646">
        <ele>1064.2</ele>
        <time>2023-04-06T10:45:55Z</time>
      </trkpt>
      <trkpt lat="44.33693" lon="5.64646">
        <ele>1064.2</ele>
        <time>2023-04-06T10:45:56Z</time>
      </trkpt>
      <trkpt lat="44.33693" lon="5.64646">
        <ele>1064.2</ele>
        <time>2023-04-06T10:45:57Z</time>
      </trkpt>
      <trkpt lat="44.33693" lon="5.64646">
        <ele>1064.2</ele>
        <time>2023-04-06T10:45:58Z</time>
      </trkpt>
      <trkpt lat="44.33693" lon="5.64646">
        <ele>1064.2</ele>
        <time>2023-04-06T10:45:59Z</time>
      </trkpt>
      <trkpt lat="44.33693" lon="5.64646">
        <ele>1064.2</ele>
        <time>2023-04-06T10:46:00Z</time>
      </trkpt>
      <trkpt lat="44.33693" lon="5.64646">
        <ele>1064.2</ele>
        <time>2023-04-06T10:46:01Z</time>
      </trkpt>
      <trkpt lat="44.33693" lon="5.64646">
        <ele>1064.2</ele>
        <time>2023-04-06T10:46:02Z</time>
      </trkpt>
      <trkpt lat="44.33695" lon="5.64648">
        <ele>1063.9</ele>
        <time>2023-04-06T10:46:28Z</time>
      </trkpt>
      <trkpt lat="44.33695" lon="5.64648">
        <ele>1063.9</ele>
        <time>2023-04-06T10:46:29Z</time>
      </trkpt>
      <trkpt lat="44.33695" lon="5.64648">
        <ele>1063.9</ele>
        <time>2023-04-06T10:46:30Z</time>
      </trkpt>
      <trkpt lat="44.33695" lon="5.64647">
        <ele>1063.8</ele>
        <time>2023-04-06T10:46:31Z</time>
      </trkpt>
      <trkpt lat="44.33695" lon="5.64647">
        <ele>1063.8</ele>
        <time>2023-04-06T10:46:32Z</time>
      </trkpt>
      <trkpt lat="44.33695" lon="5.64647">
        <ele>1063.8</ele>
        <time>2023-04-06T10:46:33Z</time>
      </trkpt>
      <trkpt lat="44.33696" lon="5.64648">
        <ele>1063.8</ele>
        <time>2023-04-06T10:46:34Z</time>
      </trkpt>
      <trkpt lat="44.33697" lon="5.64647">
        <ele>1063.7</ele>
        <time>2023-04-06T10:46:35Z</time>
      </trkpt>
      <trkpt lat="44.33699" lon="5.64646">
        <ele>1063.6</ele>
        <time>2023-04-06T10:46:36Z</time>
      </trkpt>
      <trkpt lat="44.33702" lon="5.64646">
        <ele>1063.4</ele>
        <time>2023-04-06T10:46:37Z</time>
      </trkpt>
      <trkpt lat="44.33702" lon="5.64646">
        <ele>1063.4</ele>
        <time>2023-04-06T10:46:38Z</time>
      </trkpt>
      <trkpt lat="44.33706" lon="5.64647">
        <ele>1063.4</ele>
        <time>2023-04-06T10:46:39Z</time>
      </trkpt>
      <trkpt lat="44.33707" lon="5.64647">
        <ele>1063.4</ele>
        <time>2023-04-06T10:46:40Z</time>
      </trkpt>
      <trkpt lat="44.3371" lon="5.64648">
        <ele>1063.4</ele>
        <time>2023-04-06T10:46:41Z</time>
      </trkpt>
      <trkpt lat="44.33713" lon="5.64648">
        <ele>1063.5</ele>
        <time>2023-04-06T10:46:42Z</time>
      </trkpt>
      <trkpt lat="44.33716" lon="5.64649">
        <ele>1063.6</ele>
        <time>2023-04-06T10:46:43Z</time>
      </trkpt>
      <trkpt lat="44.33719" lon="5.64649">
        <ele>1063.8</ele>
        <time>2023-04-06T10:46:44Z</time>
      </trkpt>
      <trkpt lat="44.33722" lon="5.64649">
        <ele>1063.9</ele>
        <time>2023-04-06T10:46:45Z</time>
      </trkpt>
      <trkpt lat="44.33725" lon="5.64649">
        <ele>1064</ele>
        <time>2023-04-06T10:46:46Z</time>
      </trkpt>
      <trkpt lat="44.33728" lon="5.64649">
        <ele>1064.1</ele>
        <time>2023-04-06T10:46:47Z</time>
      </trkpt>
      <trkpt lat="44.33731" lon="5.64649">
        <ele>1064.2</ele>
        <time>2023-04-06T10:46:48Z</time>
      </trkpt>
      <trkpt lat="44.33735" lon="5.6465">
        <ele>1064.4</ele>
        <time>2023-04-06T10:46:49Z</time>
      </trkpt>
      <trkpt lat="44.33738" lon="5.64651">
        <ele>1064.5</ele>
        <time>2023-04-06T10:46:50Z</time>
      </trkpt>
      <trkpt lat="44.33741" lon="5.64651">
        <ele>1064.7</ele>
        <time>2023-04-06T10:46:51Z</time>
      </trkpt>
      <trkpt lat="44.33745" lon="5.64652">
        <ele>1064.8</ele>
        <time>2023-04-06T10:46:52Z</time>
      </trkpt>
      <trkpt lat="44.33748" lon="5.64654">
        <ele>1065</ele>
        <time>2023-04-06T10:46:53Z</time>
      </trkpt>
      <trkpt lat="44.33752" lon="5.64656">
        <ele>1065.1</ele>
        <time>2023-04-06T10:46:54Z</time>
      </trkpt>
      <trkpt lat="44.33755" lon="5.64658">
        <ele>1065.3</ele>
        <time>2023-04-06T10:46:55Z</time>
      </trkpt>
      <trkpt lat="44.33759" lon="5.6466">
        <ele>1065.5</ele>
        <time>2023-04-06T10:46:56Z</time>
      </trkpt>
      <trkpt lat="44.33762" lon="5.64662">
        <ele>1065.7</ele>
        <time>2023-04-06T10:46:57Z</time>
      </trkpt>
      <trkpt lat="44.33765" lon="5.64663">
        <ele>1065.9</ele>
        <time>2023-04-06T10:46:58Z</time>
      </trkpt>
      <trkpt lat="44.33768" lon="5.64664">
        <ele>1066.1</ele>
        <time>2023-04-06T10:46:59Z</time>
      </trkpt>
      <trkpt lat="44.33771" lon="5.64666">
        <ele>1066.3</ele>
        <time>2023-04-06T10:47:00Z</time>
      </trkpt>
      <trkpt lat="44.33774" lon="5.64667">
        <ele>1066.5</ele>
        <time>2023-04-06T10:47:01Z</time>
      </trkpt>
      <trkpt lat="44.33777" lon="5.64668">
        <ele>1066.7</ele>
        <time>2023-04-06T10:47:02Z</time>
      </trkpt>
      <trkpt lat="44.3378" lon="5.64669">
        <ele>1066.9</ele>
        <time>2023-04-06T10:47:03Z</time>
      </trkpt>
      <trkpt lat="44.33784" lon="5.6467">
        <ele>1067.1</ele>
        <time>2023-04-06T10:47:04Z</time>
      </trkpt>
      <trkpt lat="44.33785" lon="5.6467">
        <ele>1067.2</ele>
        <time>2023-04-06T10:47:05Z</time>
      </trkpt>
      <trkpt lat="44.33788" lon="5.6467">
        <ele>1067.4</ele>
        <time>2023-04-06T10:47:06Z</time>
      </trkpt>
      <trkpt lat="44.33791" lon="5.64669">
        <ele>1067.5</ele>
        <time>2023-04-06T10:47:07Z</time>
      </trkpt>
      <trkpt lat="44.33794" lon="5.64669">
        <ele>1067.7</ele>
        <time>2023-04-06T10:47:08Z</time>
      </trkpt>
      <trkpt lat="44.33801" lon="5.64667">
        <ele>1068.1</ele>
        <time>2023-04-06T10:47:10Z</time>
      </trkpt>
      <trkpt lat="44.33805" lon="5.64666">
        <ele>1068.2</ele>
        <time>2023-04-06T10:47:11Z</time>
      </trkpt>
      <trkpt lat="44.33808" lon="5.64666">
        <ele>1068.4</ele>
        <time>2023-04-06T10:47:12Z</time>
      </trkpt>
      <trkpt lat="44.33812" lon="5.64665">
        <ele>1068.5</ele>
        <time>2023-04-06T10:47:13Z</time>
      </trkpt>
      <trkpt lat="44.33816" lon="5.64664">
        <ele>1068.7</ele>
        <time>2023-04-06T10:47:14Z</time>
      </trkpt>
      <trkpt lat="44.33819" lon="5.64664">
        <ele>1068.8</ele>
        <time>2023-04-06T10:47:15Z</time>
      </trkpt>
      <trkpt lat="44.33826" lon="5.64663">
        <ele>1069</ele>
        <time>2023-04-06T10:47:17Z</time>
      </trkpt>
      <trkpt lat="44.33829" lon="5.64661">
        <ele>1069.2</ele>
        <time>2023-04-06T10:47:18Z</time>
      </trkpt>
      <trkpt lat="44.33833" lon="5.64658">
        <ele>1069.3</ele>
        <time>2023-04-06T10:47:19Z</time>
      </trkpt>
      <trkpt lat="44.33836" lon="5.64654">
        <ele>1069.5</ele>
        <time>2023-04-06T10:47:20Z</time>
      </trkpt>
      <trkpt lat="44.33838" lon="5.64651">
        <ele>1069.6</ele>
        <time>2023-04-06T10:47:21Z</time>
      </trkpt>
      <trkpt lat="44.33841" lon="5.64647">
        <ele>1069.7</ele>
        <time>2023-04-06T10:47:22Z</time>
      </trkpt>
      <trkpt lat="44.33843" lon="5.64643">
        <ele>1069.8</ele>
        <time>2023-04-06T10:47:23Z</time>
      </trkpt>
      <trkpt lat="44.33846" lon="5.6464">
        <ele>1070</ele>
        <time>2023-04-06T10:47:24Z</time>
      </trkpt>
      <trkpt lat="44.33849" lon="5.64638">
        <ele>1070.1</ele>
        <time>2023-04-06T10:47:25Z</time>
      </trkpt>
      <trkpt lat="44.33853" lon="5.64636">
        <ele>1070.2</ele>
        <time>2023-04-06T10:47:26Z</time>
      </trkpt>
      <trkpt lat="44.33859" lon="5.64635">
        <ele>1070.5</ele>
        <time>2023-04-06T10:47:28Z</time>
      </trkpt>
      <trkpt lat="44.33862" lon="5.64634">
        <ele>1070.6</ele>
        <time>2023-04-06T10:47:29Z</time>
      </trkpt>
      <trkpt lat="44.33865" lon="5.64634">
        <ele>1070.8</ele>
        <time>2023-04-06T10:47:30Z</time>
      </trkpt>
      <trkpt lat="44.33869" lon="5.64634">
        <ele>1070.9</ele>
        <time>2023-04-06T10:47:31Z</time>
      </trkpt>
      <trkpt lat="44.33873" lon="5.64635">
        <ele>1071.1</ele>
        <time>2023-04-06T10:47:32Z</time>
      </trkpt>
      <trkpt lat="44.33876" lon="5.64636">
        <ele>1071.2</ele>
        <time>2023-04-06T10:47:33Z</time>
      </trkpt>
      <trkpt lat="44.3388" lon="5.64637">
        <ele>1071.4</ele>
        <time>2023-04-06T10:47:34Z</time>
      </trkpt>
      <trkpt lat="44.33885" lon="5.64639">
        <ele>1071.5</ele>
        <time>2023-04-06T10:47:35Z</time>
      </trkpt>
      <trkpt lat="44.3389" lon="5.64641">
        <ele>1071.7</ele>
        <time>2023-04-06T10:47:36Z</time>
      </trkpt>
      <trkpt lat="44.33893" lon="5.64642">
        <ele>1071.8</ele>
        <time>2023-04-06T10:47:37Z</time>
      </trkpt>
      <trkpt lat="44.339" lon="5.64642">
        <ele>1072</ele>
        <time>2023-04-06T10:47:39Z</time>
      </trkpt>
      <trkpt lat="44.33904" lon="5.64643">
        <ele>1072.1</ele>
        <time>2023-04-06T10:47:40Z</time>
      </trkpt>
      <trkpt lat="44.33907" lon="5.64643">
        <ele>1072.2</ele>
        <time>2023-04-06T10:47:41Z</time>
      </trkpt>
      <trkpt lat="44.33911" lon="5.64643">
        <ele>1072.3</ele>
        <time>2023-04-06T10:47:42Z</time>
      </trkpt>
      <trkpt lat="44.33914" lon="5.64642">
        <ele>1072.4</ele>
        <time>2023-04-06T10:47:43Z</time>
      </trkpt>
      <trkpt lat="44.33917" lon="5.64642">
        <ele>1072.5</ele>
        <time>2023-04-06T10:47:44Z</time>
      </trkpt>
      <trkpt lat="44.3392" lon="5.64641">
        <ele>1072.6</ele>
        <time>2023-04-06T10:47:45Z</time>
      </trkpt>
      <trkpt lat="44.33923" lon="5.64641">
        <ele>1072.7</ele>
        <time>2023-04-06T10:47:46Z</time>
      </trkpt>
      <trkpt lat="44.33926" lon="5.64641">
        <ele>1072.8</ele>
        <time>2023-04-06T10:47:47Z</time>
      </trkpt>
      <trkpt lat="44.3393" lon="5.64641">
        <ele>1072.9</ele>
        <time>2023-04-06T10:47:48Z</time>
      </trkpt>
      <trkpt lat="44.33933" lon="5.64643">
        <ele>1073.1</ele>
        <time>2023-04-06T10:47:49Z</time>
      </trkpt>
      <trkpt lat="44.33939" lon="5.6465">
        <ele>1073.4</ele>
        <time>2023-04-06T10:47:51Z</time>
      </trkpt>
      <trkpt lat="44.33941" lon="5.64654">
        <ele>1073.5</ele>
        <time>2023-04-06T10:47:52Z</time>
      </trkpt>
      <trkpt lat="44.33943" lon="5.64658">
        <ele>1073.6</ele>
        <time>2023-04-06T10:47:53Z</time>
      </trkpt>
      <trkpt lat="44.33945" lon="5.64662">
        <ele>1073.7</ele>
        <time>2023-04-06T10:47:54Z</time>
      </trkpt>
      <trkpt lat="44.33946" lon="5.64666">
        <ele>1073.9</ele>
        <time>2023-04-06T10:47:55Z</time>
      </trkpt>
      <trkpt lat="44.33948" lon="5.64671">
        <ele>1074</ele>
        <time>2023-04-06T10:47:56Z</time>
      </trkpt>
      <trkpt lat="44.3395" lon="5.64675">
        <ele>1074.1</ele>
        <time>2023-04-06T10:47:57Z</time>
      </trkpt>
      <trkpt lat="44.33951" lon="5.6468">
        <ele>1074.2</ele>
        <time>2023-04-06T10:47:58Z</time>
      </trkpt>
      <trkpt lat="44.33952" lon="5.64685">
        <ele>1074.3</ele>
        <time>2023-04-06T10:47:59Z</time>
      </trkpt>
      <trkpt lat="44.33952" lon="5.64691">
        <ele>1074.4</ele>
        <time>2023-04-06T10:48:00Z</time>
      </trkpt>
      <trkpt lat="44.33952" lon="5.64702">
        <ele>1074.7</ele>
        <time>2023-04-06T10:48:02Z</time>
      </trkpt>
      <trkpt lat="44.33952" lon="5.64708">
        <ele>1074.7</ele>
        <time>2023-04-06T10:48:03Z</time>
      </trkpt>
      <trkpt lat="44.33952" lon="5.64713">
        <ele>1074.8</ele>
        <time>2023-04-06T10:48:04Z</time>
      </trkpt>
      <trkpt lat="44.33951" lon="5.64719">
        <ele>1074.9</ele>
        <time>2023-04-06T10:48:05Z</time>
      </trkpt>
      <trkpt lat="44.33951" lon="5.64725">
        <ele>1075</ele>
        <time>2023-04-06T10:48:06Z</time>
      </trkpt>
      <trkpt lat="44.33952" lon="5.64731">
        <ele>1075.1</ele>
        <time>2023-04-06T10:48:07Z</time>
      </trkpt>
      <trkpt lat="44.33953" lon="5.64736">
        <ele>1075.2</ele>
        <time>2023-04-06T10:48:08Z</time>
      </trkpt>
      <trkpt lat="44.33955" lon="5.64741">
        <ele>1075.4</ele>
        <time>2023-04-06T10:48:09Z</time>
      </trkpt>
      <trkpt lat="44.33956" lon="5.64747">
        <ele>1075.6</ele>
        <time>2023-04-06T10:48:10Z</time>
      </trkpt>
      <trkpt lat="44.33958" lon="5.64752">
        <ele>1075.7</ele>
        <time>2023-04-06T10:48:11Z</time>
      </trkpt>
      <trkpt lat="44.33961" lon="5.64762">
        <ele>1076</ele>
        <time>2023-04-06T10:48:13Z</time>
      </trkpt>
      <trkpt lat="44.33963" lon="5.64766">
        <ele>1076.1</ele>
        <time>2023-04-06T10:48:14Z</time>
      </trkpt>
      <trkpt lat="44.33964" lon="5.6477">
        <ele>1076.2</ele>
        <time>2023-04-06T10:48:15Z</time>
      </trkpt>
      <trkpt lat="44.33966" lon="5.64774">
        <ele>1076.4</ele>
        <time>2023-04-06T10:48:16Z</time>
      </trkpt>
      <trkpt lat="44.33968" lon="5.64778">
        <ele>1076.5</ele>
        <time>2023-04-06T10:48:17Z</time>
      </trkpt>
      <trkpt lat="44.3397" lon="5.64783">
        <ele>1076.7</ele>
        <time>2023-04-06T10:48:18Z</time>
      </trkpt>
      <trkpt lat="44.33972" lon="5.64787">
        <ele>1076.8</ele>
        <time>2023-04-06T10:48:19Z</time>
      </trkpt>
      <trkpt lat="44.33973" lon="5.64791">
        <ele>1077</ele>
        <time>2023-04-06T10:48:20Z</time>
      </trkpt>
      <trkpt lat="44.33975" lon="5.64796">
        <ele>1077.1</ele>
        <time>2023-04-06T10:48:21Z</time>
      </trkpt>
      <trkpt lat="44.33976" lon="5.64801">
        <ele>1077.3</ele>
        <time>2023-04-06T10:48:22Z</time>
      </trkpt>
      <trkpt lat="44.33977" lon="5.64806">
        <ele>1077.4</ele>
        <time>2023-04-06T10:48:23Z</time>
      </trkpt>
      <trkpt lat="44.33978" lon="5.64811">
        <ele>1077.6</ele>
        <time>2023-04-06T10:48:24Z</time>
      </trkpt>
      <trkpt lat="44.33979" lon="5.64817">
        <ele>1077.7</ele>
        <time>2023-04-06T10:48:25Z</time>
      </trkpt>
      <trkpt lat="44.3398" lon="5.64823">
        <ele>1077.9</ele>
        <time>2023-04-06T10:48:26Z</time>
      </trkpt>
      <trkpt lat="44.3398" lon="5.64829">
        <ele>1078</ele>
        <time>2023-04-06T10:48:27Z</time>
      </trkpt>
      <trkpt lat="44.33981" lon="5.64834">
        <ele>1078.2</ele>
        <time>2023-04-06T10:48:28Z</time>
      </trkpt>
      <trkpt lat="44.33982" lon="5.64839">
        <ele>1078.3</ele>
        <time>2023-04-06T10:48:29Z</time>
      </trkpt>
      <trkpt lat="44.33982" lon="5.64844">
        <ele>1078.4</ele>
        <time>2023-04-06T10:48:30Z</time>
      </trkpt>
      <trkpt lat="44.33982" lon="5.64849">
        <ele>1078.4</ele>
        <time>2023-04-06T10:48:31Z</time>
      </trkpt>
      <trkpt lat="44.33982" lon="5.64855">
        <ele>1078.5</ele>
        <time>2023-04-06T10:48:32Z</time>
      </trkpt>
      <trkpt lat="44.33981" lon="5.64862">
        <ele>1078.6</ele>
        <time>2023-04-06T10:48:33Z</time>
      </trkpt>
      <trkpt lat="44.33981" lon="5.64869">
        <ele>1078.8</ele>
        <time>2023-04-06T10:48:34Z</time>
      </trkpt>
      <trkpt lat="44.33981" lon="5.64875">
        <ele>1078.8</ele>
        <time>2023-04-06T10:48:35Z</time>
      </trkpt>
      <trkpt lat="44.33981" lon="5.64881">
        <ele>1078.9</ele>
        <time>2023-04-06T10:48:36Z</time>
      </trkpt>
      <trkpt lat="44.33982" lon="5.64887">
        <ele>1079</ele>
        <time>2023-04-06T10:48:37Z</time>
      </trkpt>
      <trkpt lat="44.33983" lon="5.64893">
        <ele>1079.1</ele>
        <time>2023-04-06T10:48:38Z</time>
      </trkpt>
      <trkpt lat="44.33985" lon="5.64898">
        <ele>1079.1</ele>
        <time>2023-04-06T10:48:39Z</time>
      </trkpt>
      <trkpt lat="44.33987" lon="5.64902">
        <ele>1079.2</ele>
        <time>2023-04-06T10:48:40Z</time>
      </trkpt>
      <trkpt lat="44.3399" lon="5.64907">
        <ele>1079.3</ele>
        <time>2023-04-06T10:48:41Z</time>
      </trkpt>
      <trkpt lat="44.33993" lon="5.6491">
        <ele>1079.4</ele>
        <time>2023-04-06T10:48:42Z</time>
      </trkpt>
      <trkpt lat="44.33996" lon="5.64914">
        <ele>1079.5</ele>
        <time>2023-04-06T10:48:43Z</time>
      </trkpt>
      <trkpt lat="44.34" lon="5.64917">
        <ele>1079.7</ele>
        <time>2023-04-06T10:48:44Z</time>
      </trkpt>
      <trkpt lat="44.34003" lon="5.64921">
        <ele>1079.9</ele>
        <time>2023-04-06T10:48:45Z</time>
      </trkpt>
      <trkpt lat="44.34006" lon="5.64924">
        <ele>1080.1</ele>
        <time>2023-04-06T10:48:46Z</time>
      </trkpt>
      <trkpt lat="44.3401" lon="5.64928">
        <ele>1080.3</ele>
        <time>2023-04-06T10:48:47Z</time>
      </trkpt>
      <trkpt lat="44.34013" lon="5.64932">
        <ele>1080.5</ele>
        <time>2023-04-06T10:48:48Z</time>
      </trkpt>
      <trkpt lat="44.34017" lon="5.64934">
        <ele>1080.6</ele>
        <time>2023-04-06T10:48:49Z</time>
      </trkpt>
      <trkpt lat="44.3402" lon="5.64937">
        <ele>1080.8</ele>
        <time>2023-04-06T10:48:50Z</time>
      </trkpt>
      <trkpt lat="44.34024" lon="5.6494">
        <ele>1080.9</ele>
        <time>2023-04-06T10:48:51Z</time>
      </trkpt>
      <trkpt lat="44.34027" lon="5.64942">
        <ele>1081</ele>
        <time>2023-04-06T10:48:52Z</time>
      </trkpt>
      <trkpt lat="44.3403" lon="5.64945">
        <ele>1081.1</ele>
        <time>2023-04-06T10:48:53Z</time>
      </trkpt>
      <trkpt lat="44.34033" lon="5.64947">
        <ele>1081.2</ele>
        <time>2023-04-06T10:48:54Z</time>
      </trkpt>
      <trkpt lat="44.34036" lon="5.6495">
        <ele>1081.3</ele>
        <time>2023-04-06T10:48:55Z</time>
      </trkpt>
      <trkpt lat="44.34039" lon="5.64952">
        <ele>1081.4</ele>
        <time>2023-04-06T10:48:56Z</time>
      </trkpt>
      <trkpt lat="44.34041" lon="5.64956">
        <ele>1081.6</ele>
        <time>2023-04-06T10:48:57Z</time>
      </trkpt>
      <trkpt lat="44.34044" lon="5.64959">
        <ele>1081.7</ele>
        <time>2023-04-06T10:48:58Z</time>
      </trkpt>
      <trkpt lat="44.34046" lon="5.64962">
        <ele>1081.8</ele>
        <time>2023-04-06T10:48:59Z</time>
      </trkpt>
      <trkpt lat="44.34048" lon="5.64966">
        <ele>1081.8</ele>
        <time>2023-04-06T10:49:00Z</time>
      </trkpt>
      <trkpt lat="44.3405" lon="5.64971">
        <ele>1081.9</ele>
        <time>2023-04-06T10:49:01Z</time>
      </trkpt>
      <trkpt lat="44.34052" lon="5.64976">
        <ele>1082</ele>
        <time>2023-04-06T10:49:02Z</time>
      </trkpt>
      <trkpt lat="44.34053" lon="5.6498">
        <ele>1082.1</ele>
        <time>2023-04-06T10:49:03Z</time>
      </trkpt>
      <trkpt lat="44.34054" lon="5.64985">
        <ele>1082.2</ele>
        <time>2023-04-06T10:49:04Z</time>
      </trkpt>
      <trkpt lat="44.34055" lon="5.64991">
        <ele>1082.3</ele>
        <time>2023-04-06T10:49:05Z</time>
      </trkpt>
      <trkpt lat="44.34055" lon="5.64996">
        <ele>1082.4</ele>
        <time>2023-04-06T10:49:06Z</time>
      </trkpt>
      <trkpt lat="44.34055" lon="5.65001">
        <ele>1082.5</ele>
        <time>2023-04-06T10:49:07Z</time>
      </trkpt>
      <trkpt lat="44.34055" lon="5.65006">
        <ele>1082.6</ele>
        <time>2023-04-06T10:49:08Z</time>
      </trkpt>
      <trkpt lat="44.34056" lon="5.65011">
        <ele>1082.6</ele>
        <time>2023-04-06T10:49:09Z</time>
      </trkpt>
      <trkpt lat="44.34056" lon="5.65017">
        <ele>1082.7</ele>
        <time>2023-04-06T10:49:10Z</time>
      </trkpt>
      <trkpt lat="44.34056" lon="5.65022">
        <ele>1082.7</ele>
        <time>2023-04-06T10:49:11Z</time>
      </trkpt>
      <trkpt lat="44.34057" lon="5.65027">
        <ele>1082.8</ele>
        <time>2023-04-06T10:49:13Z</time>
      </trkpt>
      <trkpt lat="44.34058" lon="5.65039">
        <ele>1082.9</ele>
        <time>2023-04-06T10:49:14Z</time>
      </trkpt>
      <trkpt lat="44.34058" lon="5.65045">
        <ele>1082.9</ele>
        <time>2023-04-06T10:49:15Z</time>
      </trkpt>
      <trkpt lat="44.34059" lon="5.65051">
        <ele>1083</ele>
        <time>2023-04-06T10:49:16Z</time>
      </trkpt>
      <trkpt lat="44.34059" lon="5.65057">
        <ele>1083.1</ele>
        <time>2023-04-06T10:49:17Z</time>
      </trkpt>
      <trkpt lat="44.34059" lon="5.65062">
        <ele>1083.1</ele>
        <time>2023-04-06T10:49:18Z</time>
      </trkpt>
      <trkpt lat="44.34058" lon="5.65072">
        <ele>1083.3</ele>
        <time>2023-04-06T10:49:20Z</time>
      </trkpt>
      <trkpt lat="44.34058" lon="5.65078">
        <ele>1083.3</ele>
        <time>2023-04-06T10:49:21Z</time>
      </trkpt>
      <trkpt lat="44.34057" lon="5.65083">
        <ele>1083.4</ele>
        <time>2023-04-06T10:49:22Z</time>
      </trkpt>
      <trkpt lat="44.34056" lon="5.65088">
        <ele>1083.5</ele>
        <time>2023-04-06T10:49:23Z</time>
      </trkpt>
      <trkpt lat="44.34054" lon="5.65094">
        <ele>1083.6</ele>
        <time>2023-04-06T10:49:24Z</time>
      </trkpt>
      <trkpt lat="44.3405" lon="5.65103">
        <ele>1083.7</ele>
        <time>2023-04-06T10:49:26Z</time>
      </trkpt>
      <trkpt lat="44.34048" lon="5.65107">
        <ele>1083.8</ele>
        <time>2023-04-06T10:49:27Z</time>
      </trkpt>
      <trkpt lat="44.34047" lon="5.65112">
        <ele>1083.9</ele>
        <time>2023-04-06T10:49:28Z</time>
      </trkpt>
      <trkpt lat="44.34045" lon="5.65118">
        <ele>1084</ele>
        <time>2023-04-06T10:49:29Z</time>
      </trkpt>
      <trkpt lat="44.34044" lon="5.65123">
        <ele>1084.2</ele>
        <time>2023-04-06T10:49:30Z</time>
      </trkpt>
      <trkpt lat="44.34043" lon="5.65128">
        <ele>1084.3</ele>
        <time>2023-04-06T10:49:31Z</time>
      </trkpt>
      <trkpt lat="44.34043" lon="5.65133">
        <ele>1084.4</ele>
        <time>2023-04-06T10:49:32Z</time>
      </trkpt>
      <trkpt lat="44.34043" lon="5.65137">
        <ele>1084.5</ele>
        <time>2023-04-06T10:49:33Z</time>
      </trkpt>
      <trkpt lat="44.34043" lon="5.65142">
        <ele>1084.7</ele>
        <time>2023-04-06T10:49:34Z</time>
      </trkpt>
      <trkpt lat="44.34043" lon="5.65146">
        <ele>1085</ele>
        <time>2023-04-06T10:49:35Z</time>
      </trkpt>
      <trkpt lat="44.34041" lon="5.65149">
        <ele>1084.8</ele>
        <time>2023-04-06T10:49:36Z</time>
      </trkpt>
      <trkpt lat="44.34038" lon="5.65149">
        <ele>1084.6</ele>
        <time>2023-04-06T10:49:37Z</time>
      </trkpt>
      <trkpt lat="44.34034" lon="5.65148">
        <ele>1084.4</ele>
        <time>2023-04-06T10:49:38Z</time>
      </trkpt>
      <trkpt lat="44.34031" lon="5.65147">
        <ele>1084.3</ele>
        <time>2023-04-06T10:49:39Z</time>
      </trkpt>
      <trkpt lat="44.34028" lon="5.65148">
        <ele>1084.1</ele>
        <time>2023-04-06T10:49:40Z</time>
      </trkpt>
      <trkpt lat="44.34021" lon="5.65147">
        <ele>1083.6</ele>
        <time>2023-04-06T10:49:42Z</time>
      </trkpt>
      <trkpt lat="44.3402" lon="5.65147">
        <ele>1083.5</ele>
        <time>2023-04-06T10:49:43Z</time>
      </trkpt>
      <trkpt lat="44.34017" lon="5.65146">
        <ele>1083.1</ele>
        <time>2023-04-06T10:49:44Z</time>
      </trkpt>
      <trkpt lat="44.34015" lon="5.65146">
        <ele>1083</ele>
        <time>2023-04-06T10:49:45Z</time>
      </trkpt>
      <trkpt lat="44.34013" lon="5.65146">
        <ele>1082.8</ele>
        <time>2023-04-06T10:49:46Z</time>
      </trkpt>
      <trkpt lat="44.34009" lon="5.65144">
        <ele>1082.3</ele>
        <time>2023-04-06T10:49:48Z</time>
      </trkpt>
      <trkpt lat="44.34006" lon="5.65145">
        <ele>1082</ele>
        <time>2023-04-06T10:49:49Z</time>
      </trkpt>
      <trkpt lat="44.34003" lon="5.65145">
        <ele>1081.5</ele>
        <time>2023-04-06T10:49:50Z</time>
      </trkpt>
      <trkpt lat="44.34001" lon="5.65146">
        <ele>1081.3</ele>
        <time>2023-04-06T10:49:51Z</time>
      </trkpt>
      <trkpt lat="44.33998" lon="5.65147">
        <ele>1080.8</ele>
        <time>2023-04-06T10:49:52Z</time>
      </trkpt>
      <trkpt lat="44.33997" lon="5.65148">
        <ele>1080.6</ele>
        <time>2023-04-06T10:49:53Z</time>
      </trkpt>
      <trkpt lat="44.33992" lon="5.65149">
        <ele>1079.9</ele>
        <time>2023-04-06T10:49:55Z</time>
      </trkpt>
      <trkpt lat="44.33988" lon="5.65149">
        <ele>1079.4</ele>
        <time>2023-04-06T10:49:56Z</time>
      </trkpt>
      <trkpt lat="44.33984" lon="5.65149">
        <ele>1078.8</ele>
        <time>2023-04-06T10:49:57Z</time>
      </trkpt>
      <trkpt lat="44.3398" lon="5.65149">
        <ele>1078.3</ele>
        <time>2023-04-06T10:49:58Z</time>
      </trkpt>
      <trkpt lat="44.33975" lon="5.65149">
        <ele>1077.7</ele>
        <time>2023-04-06T10:49:59Z</time>
      </trkpt>
      <trkpt lat="44.33966" lon="5.65149">
        <ele>1076.7</ele>
        <time>2023-04-06T10:50:01Z</time>
      </trkpt>
      <trkpt lat="44.33962" lon="5.65149">
        <ele>1076.3</ele>
        <time>2023-04-06T10:50:02Z</time>
      </trkpt>
      <trkpt lat="44.33958" lon="5.65148">
        <ele>1075.9</ele>
        <time>2023-04-06T10:50:04Z</time>
      </trkpt>
      <trkpt lat="44.33952" lon="5.65145">
        <ele>1075.3</ele>
        <time>2023-04-06T10:50:05Z</time>
      </trkpt>
      <trkpt lat="44.3395" lon="5.65142">
        <ele>1075</ele>
        <time>2023-04-06T10:50:06Z</time>
      </trkpt>
      <trkpt lat="44.33949" lon="5.65141">
        <ele>1074.9</ele>
        <time>2023-04-06T10:50:07Z</time>
      </trkpt>
      <trkpt lat="44.33948" lon="5.65138">
        <ele>1074.6</ele>
        <time>2023-04-06T10:50:08Z</time>
      </trkpt>
      <trkpt lat="44.33947" lon="5.65137">
        <ele>1074.5</ele>
        <time>2023-04-06T10:50:09Z</time>
      </trkpt>
      <trkpt lat="44.33946" lon="5.65136">
        <ele>1074.4</ele>
        <time>2023-04-06T10:50:10Z</time>
      </trkpt>
      <trkpt lat="44.33945" lon="5.65135">
        <ele>1074.3</ele>
        <time>2023-04-06T10:50:11Z</time>
      </trkpt>
      <trkpt lat="44.33943" lon="5.65132">
        <ele>1073.9</ele>
        <time>2023-04-06T10:50:13Z</time>
      </trkpt>
      <trkpt lat="44.33939" lon="5.65128">
        <ele>1073.5</ele>
        <time>2023-04-06T10:50:15Z</time>
      </trkpt>
      <trkpt lat="44.33937" lon="5.65127">
        <ele>1073.2</ele>
        <time>2023-04-06T10:50:16Z</time>
      </trkpt>
      <trkpt lat="44.33934" lon="5.65125">
        <ele>1072.9</ele>
        <time>2023-04-06T10:50:17Z</time>
      </trkpt>
      <trkpt lat="44.33932" lon="5.65125">
        <ele>1072.7</ele>
        <time>2023-04-06T10:50:18Z</time>
      </trkpt>
      <trkpt lat="44.3393" lon="5.65124">
        <ele>1072.5</ele>
        <time>2023-04-06T10:50:19Z</time>
      </trkpt>
      <trkpt lat="44.33925" lon="5.65122">
        <ele>1071.9</ele>
        <time>2023-04-06T10:50:21Z</time>
      </trkpt>
      <trkpt lat="44.33923" lon="5.6512">
        <ele>1071.7</ele>
        <time>2023-04-06T10:50:22Z</time>
      </trkpt>
      <trkpt lat="44.33919" lon="5.65118">
        <ele>1071.3</ele>
        <time>2023-04-06T10:50:23Z</time>
      </trkpt>
      <trkpt lat="44.33918" lon="5.65117">
        <ele>1071.2</ele>
        <time>2023-04-06T10:50:24Z</time>
      </trkpt>
      <trkpt lat="44.33915" lon="5.65116">
        <ele>1070.9</ele>
        <time>2023-04-06T10:50:25Z</time>
      </trkpt>
      <trkpt lat="44.33913" lon="5.65115">
        <ele>1070.6</ele>
        <time>2023-04-06T10:50:26Z</time>
      </trkpt>
      <trkpt lat="44.3391" lon="5.65113">
        <ele>1070.3</ele>
        <time>2023-04-06T10:50:27Z</time>
      </trkpt>
      <trkpt lat="44.33907" lon="5.6511">
        <ele>1069.9</ele>
        <time>2023-04-06T10:50:28Z</time>
      </trkpt>
      <trkpt lat="44.33906" lon="5.65109">
        <ele>1069.8</ele>
        <time>2023-04-06T10:50:29Z</time>
      </trkpt>
      <trkpt lat="44.33902" lon="5.65107">
        <ele>1069.4</ele>
        <time>2023-04-06T10:50:30Z</time>
      </trkpt>
      <trkpt lat="44.33901" lon="5.65106">
        <ele>1069.2</ele>
        <time>2023-04-06T10:50:31Z</time>
      </trkpt>
      <trkpt lat="44.33899" lon="5.65104">
        <ele>1068.9</ele>
        <time>2023-04-06T10:50:32Z</time>
      </trkpt>
      <trkpt lat="44.33896" lon="5.65101">
        <ele>1068.5</ele>
        <time>2023-04-06T10:50:33Z</time>
      </trkpt>
      <trkpt lat="44.33895" lon="5.651">
        <ele>1068.3</ele>
        <time>2023-04-06T10:50:34Z</time>
      </trkpt>
      <trkpt lat="44.33891" lon="5.65097">
        <ele>1067.8</ele>
        <time>2023-04-06T10:50:35Z</time>
      </trkpt>
      <trkpt lat="44.3389" lon="5.65096">
        <ele>1067.6</ele>
        <time>2023-04-06T10:50:36Z</time>
      </trkpt>
      <trkpt lat="44.33887" lon="5.65095">
        <ele>1067.1</ele>
        <time>2023-04-06T10:50:37Z</time>
      </trkpt>
      <trkpt lat="44.33883" lon="5.65093">
        <ele>1066.6</ele>
        <time>2023-04-06T10:50:38Z</time>
      </trkpt>
      <trkpt lat="44.3388" lon="5.65091">
        <ele>1066.1</ele>
        <time>2023-04-06T10:50:39Z</time>
      </trkpt>
      <trkpt lat="44.33877" lon="5.6509">
        <ele>1065.7</ele>
        <time>2023-04-06T10:50:40Z</time>
      </trkpt>
      <trkpt lat="44.33874" lon="5.65089">
        <ele>1065.2</ele>
        <time>2023-04-06T10:50:41Z</time>
      </trkpt>
      <trkpt lat="44.3387" lon="5.65088">
        <ele>1064.7</ele>
        <time>2023-04-06T10:50:42Z</time>
      </trkpt>
      <trkpt lat="44.33867" lon="5.65087">
        <ele>1064.1</ele>
        <time>2023-04-06T10:50:43Z</time>
      </trkpt>
      <trkpt lat="44.33862" lon="5.65085">
        <ele>1063.5</ele>
        <time>2023-04-06T10:50:44Z</time>
      </trkpt>
      <trkpt lat="44.33857" lon="5.65084">
        <ele>1062.7</ele>
        <time>2023-04-06T10:50:45Z</time>
      </trkpt>
      <trkpt lat="44.33851" lon="5.65083">
        <ele>1061.9</ele>
        <time>2023-04-06T10:50:46Z</time>
      </trkpt>
      <trkpt lat="44.33845" lon="5.65082">
        <ele>1061.2</ele>
        <time>2023-04-06T10:50:47Z</time>
      </trkpt>
      <trkpt lat="44.33841" lon="5.65082">
        <ele>1060.7</ele>
        <time>2023-04-06T10:50:48Z</time>
      </trkpt>
      <trkpt lat="44.33838" lon="5.65082">
        <ele>1060.3</ele>
        <time>2023-04-06T10:50:49Z</time>
      </trkpt>
      <trkpt lat="44.33834" lon="5.65082">
        <ele>1059.9</ele>
        <time>2023-04-06T10:50:50Z</time>
      </trkpt>
      <trkpt lat="44.33833" lon="5.65082">
        <ele>1059.7</ele>
        <time>2023-04-06T10:50:51Z</time>
      </trkpt>
      <trkpt lat="44.33829" lon="5.65081">
        <ele>1059.3</ele>
        <time>2023-04-06T10:50:52Z</time>
      </trkpt>
      <trkpt lat="44.33828" lon="5.6508">
        <ele>1059.1</ele>
        <time>2023-04-06T10:50:53Z</time>
      </trkpt>
      <trkpt lat="44.33825" lon="5.6508">
        <ele>1058.7</ele>
        <time>2023-04-06T10:50:54Z</time>
      </trkpt>
      <trkpt lat="44.33824" lon="5.6508">
        <ele>1058.5</ele>
        <time>2023-04-06T10:50:55Z</time>
      </trkpt>
      <trkpt lat="44.3382" lon="5.6508">
        <ele>1058.1</ele>
        <time>2023-04-06T10:50:56Z</time>
      </trkpt>
      <trkpt lat="44.33819" lon="5.65081">
        <ele>1057.9</ele>
        <time>2023-04-06T10:50:57Z</time>
      </trkpt>
      <trkpt lat="44.33816" lon="5.65082">
        <ele>1057.4</ele>
        <time>2023-04-06T10:50:58Z</time>
      </trkpt>
      <trkpt lat="44.33815" lon="5.65082">
        <ele>1057.2</ele>
        <time>2023-04-06T10:50:59Z</time>
      </trkpt>
      <trkpt lat="44.33812" lon="5.65082">
        <ele>1056.8</ele>
        <time>2023-04-06T10:51:00Z</time>
      </trkpt>
      <trkpt lat="44.33811" lon="5.65082">
        <ele>1056.6</ele>
        <time>2023-04-06T10:51:01Z</time>
      </trkpt>
      <trkpt lat="44.3381" lon="5.65082">
        <ele>1056.5</ele>
        <time>2023-04-06T10:51:02Z</time>
      </trkpt>
      <trkpt lat="44.33808" lon="5.65082">
        <ele>1056.2</ele>
        <time>2023-04-06T10:51:03Z</time>
      </trkpt>
      <trkpt lat="44.33806" lon="5.65082">
        <ele>1056</ele>
        <time>2023-04-06T10:51:04Z</time>
      </trkpt>
      <trkpt lat="44.33805" lon="5.65082">
        <ele>1055.7</ele>
        <time>2023-04-06T10:51:05Z</time>
      </trkpt>
      <trkpt lat="44.33803" lon="5.65082">
        <ele>1055.5</ele>
        <time>2023-04-06T10:51:06Z</time>
      </trkpt>
      <trkpt lat="44.33802" lon="5.65082">
        <ele>1055.3</ele>
        <time>2023-04-06T10:51:07Z</time>
      </trkpt>
      <trkpt lat="44.33801" lon="5.65082">
        <ele>1055.2</ele>
        <time>2023-04-06T10:51:08Z</time>
      </trkpt>
      <trkpt lat="44.33801" lon="5.6508">
        <ele>1055</ele>
        <time>2023-04-06T10:51:09Z</time>
      </trkpt>
      <trkpt lat="44.33802" lon="5.65079">
        <ele>1054.8</ele>
        <time>2023-04-06T10:51:10Z</time>
      </trkpt>
      <trkpt lat="44.33802" lon="5.65077">
        <ele>1054.6</ele>
        <time>2023-04-06T10:51:11Z</time>
      </trkpt>
      <trkpt lat="44.33802" lon="5.65075">
        <ele>1054.3</ele>
        <time>2023-04-06T10:51:12Z</time>
      </trkpt>
      <trkpt lat="44.33802" lon="5.65072">
        <ele>1054</ele>
        <time>2023-04-06T10:51:13Z</time>
      </trkpt>
      <trkpt lat="44.33802" lon="5.6507">
        <ele>1053.6</ele>
        <time>2023-04-06T10:51:14Z</time>
      </trkpt>
      <trkpt lat="44.33803" lon="5.65068">
        <ele>1053.4</ele>
        <time>2023-04-06T10:51:15Z</time>
      </trkpt>
      <trkpt lat="44.33802" lon="5.65066">
        <ele>1053.1</ele>
        <time>2023-04-06T10:51:16Z</time>
      </trkpt>
      <trkpt lat="44.33803" lon="5.65064">
        <ele>1052.9</ele>
        <time>2023-04-06T10:51:17Z</time>
      </trkpt>
      <trkpt lat="44.33803" lon="5.65063">
        <ele>1052.7</ele>
        <time>2023-04-06T10:51:18Z</time>
      </trkpt>
      <trkpt lat="44.33803" lon="5.65061">
        <ele>1052.4</ele>
        <time>2023-04-06T10:51:19Z</time>
      </trkpt>
      <trkpt lat="44.33803" lon="5.65058">
        <ele>1052.1</ele>
        <time>2023-04-06T10:51:20Z</time>
      </trkpt>
      <trkpt lat="44.33804" lon="5.65054">
        <ele>1051.6</ele>
        <time>2023-04-06T10:51:21Z</time>
      </trkpt>
      <trkpt lat="44.33804" lon="5.65053">
        <ele>1051.4</ele>
        <time>2023-04-06T10:51:22Z</time>
      </trkpt>
      <trkpt lat="44.33805" lon="5.65051">
        <ele>1051.1</ele>
        <time>2023-04-06T10:51:23Z</time>
      </trkpt>
      <trkpt lat="44.33805" lon="5.65049">
        <ele>1050.8</ele>
        <time>2023-04-06T10:51:24Z</time>
      </trkpt>
      <trkpt lat="44.33804" lon="5.65048">
        <ele>1050.6</ele>
        <time>2023-04-06T10:51:25Z</time>
      </trkpt>
      <trkpt lat="44.33802" lon="5.65048">
        <ele>1050.2</ele>
        <time>2023-04-06T10:51:26Z</time>
      </trkpt>
      <trkpt lat="44.33799" lon="5.65047">
        <ele>1049.4</ele>
        <time>2023-04-06T10:51:28Z</time>
      </trkpt>
      <trkpt lat="44.33795" lon="5.65046">
        <ele>1048.5</ele>
        <time>2023-04-06T10:51:29Z</time>
      </trkpt>
      <trkpt lat="44.33794" lon="5.65045">
        <ele>1048.2</ele>
        <time>2023-04-06T10:51:30Z</time>
      </trkpt>
      <trkpt lat="44.33791" lon="5.65045">
        <ele>1047.4</ele>
        <time>2023-04-06T10:51:31Z</time>
      </trkpt>
      <trkpt lat="44.3379" lon="5.65045">
        <ele>1047.1</ele>
        <time>2023-04-06T10:51:32Z</time>
      </trkpt>
      <trkpt lat="44.33788" lon="5.65047">
        <ele>1046.3</ele>
        <time>2023-04-06T10:51:33Z</time>
      </trkpt>
      <trkpt lat="44.33787" lon="5.65048">
        <ele>1046</ele>
        <time>2023-04-06T10:51:34Z</time>
      </trkpt>
      <trkpt lat="44.33784" lon="5.65049">
        <ele>1045.3</ele>
        <time>2023-04-06T10:51:35Z</time>
      </trkpt>
      <trkpt lat="44.33783" lon="5.6505">
        <ele>1045.1</ele>
        <time>2023-04-06T10:51:36Z</time>
      </trkpt>
      <trkpt lat="44.33782" lon="5.6505">
        <ele>1044.8</ele>
        <time>2023-04-06T10:51:37Z</time>
      </trkpt>
      <trkpt lat="44.3378" lon="5.65052">
        <ele>1044.3</ele>
        <time>2023-04-06T10:51:39Z</time>
      </trkpt>
      <trkpt lat="44.33779" lon="5.65052">
        <ele>1044.1</ele>
        <time>2023-04-06T10:51:40Z</time>
      </trkpt>
      <trkpt lat="44.33778" lon="5.65052">
        <ele>1043.8</ele>
        <time>2023-04-06T10:51:41Z</time>
      </trkpt>
      <trkpt lat="44.33777" lon="5.65052">
        <ele>1043.5</ele>
        <time>2023-04-06T10:51:42Z</time>
      </trkpt>
      <trkpt lat="44.33773" lon="5.65053">
        <ele>1042.7</ele>
        <time>2023-04-06T10:51:43Z</time>
      </trkpt>
      <trkpt lat="44.33772" lon="5.65053">
        <ele>1042.3</ele>
        <time>2023-04-06T10:51:44Z</time>
      </trkpt>
      <trkpt lat="44.33769" lon="5.65054">
        <ele>1041.6</ele>
        <time>2023-04-06T10:51:45Z</time>
      </trkpt>
      <trkpt lat="44.33765" lon="5.65055">
        <ele>1040.9</ele>
        <time>2023-04-06T10:51:46Z</time>
      </trkpt>
      <trkpt lat="44.33762" lon="5.65055">
        <ele>1040.3</ele>
        <time>2023-04-06T10:51:47Z</time>
      </trkpt>
      <trkpt lat="44.33759" lon="5.65056">
        <ele>1039.6</ele>
        <time>2023-04-06T10:51:48Z</time>
      </trkpt>
      <trkpt lat="44.33758" lon="5.65056">
        <ele>1039.4</ele>
        <time>2023-04-06T10:51:49Z</time>
      </trkpt>
      <trkpt lat="44.33755" lon="5.65058">
        <ele>1038.8</ele>
        <time>2023-04-06T10:51:50Z</time>
      </trkpt>
      <trkpt lat="44.33754" lon="5.65058">
        <ele>1038.6</ele>
        <time>2023-04-06T10:51:51Z</time>
      </trkpt>
      <trkpt lat="44.3375" lon="5.6506">
        <ele>1037.9</ele>
        <time>2023-04-06T10:51:52Z</time>
      </trkpt>
      <trkpt lat="44.33748" lon="5.6506">
        <ele>1037.6</ele>
        <time>2023-04-06T10:51:53Z</time>
      </trkpt>
      <trkpt lat="44.33741" lon="5.65061">
        <ele>1036.4</ele>
        <time>2023-04-06T10:51:55Z</time>
      </trkpt>
      <trkpt lat="44.33738" lon="5.65062">
        <ele>1035.9</ele>
        <time>2023-04-06T10:51:56Z</time>
      </trkpt>
      <trkpt lat="44.33735" lon="5.65065">
        <ele>1035.4</ele>
        <time>2023-04-06T10:51:57Z</time>
      </trkpt>
      <trkpt lat="44.33734" lon="5.65066">
        <ele>1035.2</ele>
        <time>2023-04-06T10:51:58Z</time>
      </trkpt>
      <trkpt lat="44.33731" lon="5.65067">
        <ele>1034.7</ele>
        <time>2023-04-06T10:51:59Z</time>
      </trkpt>
      <trkpt lat="44.33731" lon="5.65068">
        <ele>1034.6</ele>
        <time>2023-04-06T10:52:00Z</time>
      </trkpt>
      <trkpt lat="44.33729" lon="5.65069">
        <ele>1034.3</ele>
        <time>2023-04-06T10:52:01Z</time>
      </trkpt>
      <trkpt lat="44.33727" lon="5.65069">
        <ele>1034</ele>
        <time>2023-04-06T10:52:02Z</time>
      </trkpt>
      <trkpt lat="44.33726" lon="5.6507">
        <ele>1033.8</ele>
        <time>2023-04-06T10:52:03Z</time>
      </trkpt>
      <trkpt lat="44.33725" lon="5.65071">
        <ele>1033.6</ele>
        <time>2023-04-06T10:52:04Z</time>
      </trkpt>
      <trkpt lat="44.33721" lon="5.65073">
        <ele>1033</ele>
        <time>2023-04-06T10:52:06Z</time>
      </trkpt>
      <trkpt lat="44.3372" lon="5.65073">
        <ele>1032.8</ele>
        <time>2023-04-06T10:52:07Z</time>
      </trkpt>
      <trkpt lat="44.33718" lon="5.65074">
        <ele>1032.6</ele>
        <time>2023-04-06T10:52:08Z</time>
      </trkpt>
      <trkpt lat="44.33716" lon="5.65075">
        <ele>1032.1</ele>
        <time>2023-04-06T10:52:09Z</time>
      </trkpt>
      <trkpt lat="44.33715" lon="5.65075">
        <ele>1032</ele>
        <time>2023-04-06T10:52:10Z</time>
      </trkpt>
      <trkpt lat="44.33713" lon="5.65077">
        <ele>1031.7</ele>
        <time>2023-04-06T10:52:11Z</time>
      </trkpt>
      <trkpt lat="44.33712" lon="5.65078">
        <ele>1031.5</ele>
        <time>2023-04-06T10:52:12Z</time>
      </trkpt>
      <trkpt lat="44.33711" lon="5.65078">
        <ele>1031.3</ele>
        <time>2023-04-06T10:52:13Z</time>
      </trkpt>
      <trkpt lat="44.33711" lon="5.65077">
        <ele>1031.2</ele>
        <time>2023-04-06T10:52:14Z</time>
      </trkpt>
      <trkpt lat="44.33711" lon="5.65077">
        <ele>1031.2</ele>
        <time>2023-04-06T10:52:15Z</time>
      </trkpt>
      <trkpt lat="44.33712" lon="5.65076">
        <ele>1031</ele>
        <time>2023-04-06T10:52:17Z</time>
      </trkpt>
      <trkpt lat="44.33712" lon="5.65076">
        <ele>1030.9</ele>
        <time>2023-04-06T10:52:18Z</time>
      </trkpt>
      <trkpt lat="44.33711" lon="5.65076">
        <ele>1030.8</ele>
        <time>2023-04-06T10:52:19Z</time>
      </trkpt>
      <trkpt lat="44.3371" lon="5.65077">
        <ele>1030.6</ele>
        <time>2023-04-06T10:52:20Z</time>
      </trkpt>
      <trkpt lat="44.3371" lon="5.65077">
        <ele>1030.6</ele>
        <time>2023-04-06T10:52:21Z</time>
      </trkpt>
      <trkpt lat="44.3371" lon="5.65077">
        <ele>1030.6</ele>
        <time>2023-04-06T10:52:22Z</time>
      </trkpt>
      <trkpt lat="44.33709" lon="5.65077">
        <ele>1030.3</ele>
        <time>2023-04-06T10:52:23Z</time>
      </trkpt>
      <trkpt lat="44.33708" lon="5.65076">
        <ele>1030.1</ele>
        <time>2023-04-06T10:52:24Z</time>
      </trkpt>
      <trkpt lat="44.33707" lon="5.65076">
        <ele>1029.8</ele>
        <time>2023-04-06T10:52:25Z</time>
      </trkpt>
      <trkpt lat="44.33706" lon="5.65075">
        <ele>1029.6</ele>
        <time>2023-04-06T10:52:26Z</time>
      </trkpt>
      <trkpt lat="44.33705" lon="5.65075">
        <ele>1029.5</ele>
        <time>2023-04-06T10:52:28Z</time>
      </trkpt>
      <trkpt lat="44.33703" lon="5.65075">
        <ele>1029</ele>
        <time>2023-04-06T10:52:29Z</time>
      </trkpt>
      <trkpt lat="44.33702" lon="5.65075">
        <ele>1028.8</ele>
        <time>2023-04-06T10:52:30Z</time>
      </trkpt>
      <trkpt lat="44.33701" lon="5.65075">
        <ele>1028.5</ele>
        <time>2023-04-06T10:52:31Z</time>
      </trkpt>
      <trkpt lat="44.33702" lon="5.65076">
        <ele>1028.3</ele>
        <time>2023-04-06T10:52:32Z</time>
      </trkpt>
      <trkpt lat="44.33702" lon="5.65076">
        <ele>1028.2</ele>
        <time>2023-04-06T10:52:34Z</time>
      </trkpt>
      <trkpt lat="44.33701" lon="5.65076">
        <ele>1028</ele>
        <time>2023-04-06T10:52:35Z</time>
      </trkpt>
      <trkpt lat="44.33699" lon="5.65077">
        <ele>1027.6</ele>
        <time>2023-04-06T10:52:36Z</time>
      </trkpt>
      <trkpt lat="44.33696" lon="5.65078">
        <ele>1026.8</ele>
        <time>2023-04-06T10:52:37Z</time>
      </trkpt>
      <trkpt lat="44.33694" lon="5.65078">
        <ele>1026.4</ele>
        <time>2023-04-06T10:52:38Z</time>
      </trkpt>
      <trkpt lat="44.33691" lon="5.65079">
        <ele>1025.6</ele>
        <time>2023-04-06T10:52:39Z</time>
      </trkpt>
      <trkpt lat="44.33688" lon="5.65082">
        <ele>1024.7</ele>
        <time>2023-04-06T10:52:40Z</time>
      </trkpt>
      <trkpt lat="44.33683" lon="5.65085">
        <ele>1023.7</ele>
        <time>2023-04-06T10:52:41Z</time>
      </trkpt>
      <trkpt lat="44.3368" lon="5.65088">
        <ele>1022.9</ele>
        <time>2023-04-06T10:52:42Z</time>
      </trkpt>
      <trkpt lat="44.33677" lon="5.65092">
        <ele>1022.2</ele>
        <time>2023-04-06T10:52:43Z</time>
      </trkpt>
      <trkpt lat="44.33672" lon="5.65098">
        <ele>1021</ele>
        <time>2023-04-06T10:52:45Z</time>
      </trkpt>
      <trkpt lat="44.33669" lon="5.65102">
        <ele>1020.3</ele>
        <time>2023-04-06T10:52:46Z</time>
      </trkpt>
      <trkpt lat="44.33666" lon="5.65105">
        <ele>1019.7</ele>
        <time>2023-04-06T10:52:47Z</time>
      </trkpt>
      <trkpt lat="44.33663" lon="5.65107">
        <ele>1019.2</ele>
        <time>2023-04-06T10:52:48Z</time>
      </trkpt>
      <trkpt lat="44.3366" lon="5.65109">
        <ele>1018.6</ele>
        <time>2023-04-06T10:52:49Z</time>
      </trkpt>
      <trkpt lat="44.33654" lon="5.65111">
        <ele>1017.7</ele>
        <time>2023-04-06T10:52:51Z</time>
      </trkpt>
      <trkpt lat="44.33652" lon="5.65112">
        <ele>1017.2</ele>
        <time>2023-04-06T10:52:52Z</time>
      </trkpt>
      <trkpt lat="44.33649" lon="5.65113">
        <ele>1016.6</ele>
        <time>2023-04-06T10:52:53Z</time>
      </trkpt>
      <trkpt lat="44.33648" lon="5.65113">
        <ele>1016.5</ele>
        <time>2023-04-06T10:52:54Z</time>
      </trkpt>
      <trkpt lat="44.33645" lon="5.65112">
        <ele>1015.8</ele>
        <time>2023-04-06T10:52:55Z</time>
      </trkpt>
      <trkpt lat="44.33644" lon="5.65111">
        <ele>1015.5</ele>
        <time>2023-04-06T10:52:56Z</time>
      </trkpt>
      <trkpt lat="44.33641" lon="5.65111">
        <ele>1014.8</ele>
        <time>2023-04-06T10:52:57Z</time>
      </trkpt>
      <trkpt lat="44.33637" lon="5.6511">
        <ele>1013.9</ele>
        <time>2023-04-06T10:52:58Z</time>
      </trkpt>
      <trkpt lat="44.33633" lon="5.65111">
        <ele>1013</ele>
        <time>2023-04-06T10:52:59Z</time>
      </trkpt>
      <trkpt lat="44.3363" lon="5.65111">
        <ele>1012.2</ele>
        <time>2023-04-06T10:53:00Z</time>
      </trkpt>
      <trkpt lat="44.33626" lon="5.65111">
        <ele>1011.4</ele>
        <time>2023-04-06T10:53:01Z</time>
      </trkpt>
      <trkpt lat="44.33623" lon="5.65112">
        <ele>1010.7</ele>
        <time>2023-04-06T10:53:02Z</time>
      </trkpt>
      <trkpt lat="44.3362" lon="5.65112">
        <ele>1010</ele>
        <time>2023-04-06T10:53:03Z</time>
      </trkpt>
      <trkpt lat="44.33617" lon="5.65112">
        <ele>1009.3</ele>
        <time>2023-04-06T10:53:04Z</time>
      </trkpt>
      <trkpt lat="44.33614" lon="5.65111">
        <ele>1008.7</ele>
        <time>2023-04-06T10:53:05Z</time>
      </trkpt>
      <trkpt lat="44.33611" lon="5.65111">
        <ele>1008.1</ele>
        <time>2023-04-06T10:53:06Z</time>
      </trkpt>
      <trkpt lat="44.33608" lon="5.65111">
        <ele>1007.3</ele>
        <time>2023-04-06T10:53:07Z</time>
      </trkpt>
      <trkpt lat="44.33603" lon="5.6511">
        <ele>1006.4</ele>
        <time>2023-04-06T10:53:08Z</time>
      </trkpt>
      <trkpt lat="44.33599" lon="5.65109">
        <ele>1005.6</ele>
        <time>2023-04-06T10:53:09Z</time>
      </trkpt>
      <trkpt lat="44.33592" lon="5.65108">
        <ele>1004.1</ele>
        <time>2023-04-06T10:53:10Z</time>
      </trkpt>
      <trkpt lat="44.33587" lon="5.65107">
        <ele>1003.1</ele>
        <time>2023-04-06T10:53:11Z</time>
      </trkpt>
      <trkpt lat="44.33581" lon="5.65106">
        <ele>1002</ele>
        <time>2023-04-06T10:53:12Z</time>
      </trkpt>
      <trkpt lat="44.33574" lon="5.65107">
        <ele>1000.6</ele>
        <time>2023-04-06T10:53:13Z</time>
      </trkpt>
      <trkpt lat="44.33568" lon="5.65109">
        <ele>999.3</ele>
        <time>2023-04-06T10:53:14Z</time>
      </trkpt>
      <trkpt lat="44.33562" lon="5.65111">
        <ele>998.1</ele>
        <time>2023-04-06T10:53:15Z</time>
      </trkpt>
      <trkpt lat="44.33557" lon="5.65114">
        <ele>997</ele>
        <time>2023-04-06T10:53:16Z</time>
      </trkpt>
      <trkpt lat="44.33552" lon="5.65117">
        <ele>996.2</ele>
        <time>2023-04-06T10:53:17Z</time>
      </trkpt>
      <trkpt lat="44.33548" lon="5.6512">
        <ele>995.3</ele>
        <time>2023-04-06T10:53:18Z</time>
      </trkpt>
      <trkpt lat="44.33543" lon="5.65123">
        <ele>994.6</ele>
        <time>2023-04-06T10:53:19Z</time>
      </trkpt>
      <trkpt lat="44.33539" lon="5.65125">
        <ele>994.1</ele>
        <time>2023-04-06T10:53:20Z</time>
      </trkpt>
      <trkpt lat="44.33536" lon="5.65125">
        <ele>993.8</ele>
        <time>2023-04-06T10:53:21Z</time>
      </trkpt>
      <trkpt lat="44.33533" lon="5.65126">
        <ele>993.4</ele>
        <time>2023-04-06T10:53:22Z</time>
      </trkpt>
      <trkpt lat="44.33532" lon="5.65127">
        <ele>993.3</ele>
        <time>2023-04-06T10:53:23Z</time>
      </trkpt>
      <trkpt lat="44.33528" lon="5.65126">
        <ele>992.9</ele>
        <time>2023-04-06T10:53:24Z</time>
      </trkpt>
      <trkpt lat="44.33527" lon="5.65126">
        <ele>992.8</ele>
        <time>2023-04-06T10:53:25Z</time>
      </trkpt>
      <trkpt lat="44.33524" lon="5.65126">
        <ele>992.5</ele>
        <time>2023-04-06T10:53:26Z</time>
      </trkpt>
      <trkpt lat="44.33521" lon="5.65126">
        <ele>992.1</ele>
        <time>2023-04-06T10:53:27Z</time>
      </trkpt>
      <trkpt lat="44.33519" lon="5.65126">
        <ele>991.8</ele>
        <time>2023-04-06T10:53:28Z</time>
      </trkpt>
      <trkpt lat="44.33515" lon="5.65126">
        <ele>991.4</ele>
        <time>2023-04-06T10:53:29Z</time>
      </trkpt>
      <trkpt lat="44.33515" lon="5.65126">
        <ele>991.3</ele>
        <time>2023-04-06T10:53:30Z</time>
      </trkpt>
      <trkpt lat="44.33511" lon="5.65126">
        <ele>990.8</ele>
        <time>2023-04-06T10:53:31Z</time>
      </trkpt>
      <trkpt lat="44.3351" lon="5.65126">
        <ele>990.6</ele>
        <time>2023-04-06T10:53:32Z</time>
      </trkpt>
      <trkpt lat="44.33507" lon="5.65126">
        <ele>990.2</ele>
        <time>2023-04-06T10:53:33Z</time>
      </trkpt>
      <trkpt lat="44.33504" lon="5.65126">
        <ele>989.6</ele>
        <time>2023-04-06T10:53:34Z</time>
      </trkpt>
      <trkpt lat="44.33497" lon="5.65125">
        <ele>988.5</ele>
        <time>2023-04-06T10:53:35Z</time>
      </trkpt>
      <trkpt lat="44.33491" lon="5.65124">
        <ele>987.3</ele>
        <time>2023-04-06T10:53:36Z</time>
      </trkpt>
      <trkpt lat="44.33484" lon="5.65124">
        <ele>986.4</ele>
        <time>2023-04-06T10:53:37Z</time>
      </trkpt>
      <trkpt lat="44.33478" lon="5.65123">
        <ele>985.9</ele>
        <time>2023-04-06T10:53:38Z</time>
      </trkpt>
      <trkpt lat="44.33473" lon="5.65123">
        <ele>985.6</ele>
        <time>2023-04-06T10:53:39Z</time>
      </trkpt>
      <trkpt lat="44.33468" lon="5.65122">
        <ele>985.4</ele>
        <time>2023-04-06T10:53:40Z</time>
      </trkpt>
      <trkpt lat="44.33465" lon="5.65122">
        <ele>985.4</ele>
        <time>2023-04-06T10:53:41Z</time>
      </trkpt>
      <trkpt lat="44.33462" lon="5.65121">
        <ele>985.3</ele>
        <time>2023-04-06T10:53:42Z</time>
      </trkpt>
      <trkpt lat="44.33459" lon="5.65121">
        <ele>985.3</ele>
        <time>2023-04-06T10:53:43Z</time>
      </trkpt>
      <trkpt lat="44.33456" lon="5.65121">
        <ele>985.2</ele>
        <time>2023-04-06T10:53:44Z</time>
      </trkpt>
      <trkpt lat="44.33454" lon="5.6512">
        <ele>985.2</ele>
        <time>2023-04-06T10:53:45Z</time>
      </trkpt>
      <trkpt lat="44.33451" lon="5.65119">
        <ele>985.1</ele>
        <time>2023-04-06T10:53:46Z</time>
      </trkpt>
      <trkpt lat="44.33448" lon="5.65117">
        <ele>985</ele>
        <time>2023-04-06T10:53:47Z</time>
      </trkpt>
      <trkpt lat="44.33445" lon="5.65116">
        <ele>984.9</ele>
        <time>2023-04-06T10:53:48Z</time>
      </trkpt>
      <trkpt lat="44.33441" lon="5.65113">
        <ele>984.7</ele>
        <time>2023-04-06T10:53:49Z</time>
      </trkpt>
      <trkpt lat="44.33433" lon="5.65111">
        <ele>984.3</ele>
        <time>2023-04-06T10:53:51Z</time>
      </trkpt>
      <trkpt lat="44.33429" lon="5.6511">
        <ele>983.9</ele>
        <time>2023-04-06T10:53:52Z</time>
      </trkpt>
      <trkpt lat="44.33423" lon="5.65109">
        <ele>983.5</ele>
        <time>2023-04-06T10:53:53Z</time>
      </trkpt>
      <trkpt lat="44.33417" lon="5.65108">
        <ele>982.9</ele>
        <time>2023-04-06T10:53:54Z</time>
      </trkpt>
      <trkpt lat="44.33411" lon="5.65108">
        <ele>982.3</ele>
        <time>2023-04-06T10:53:55Z</time>
      </trkpt>
      <trkpt lat="44.33405" lon="5.65108">
        <ele>981.8</ele>
        <time>2023-04-06T10:53:56Z</time>
      </trkpt>
      <trkpt lat="44.334" lon="5.65109">
        <ele>981.3</ele>
        <time>2023-04-06T10:53:57Z</time>
      </trkpt>
      <trkpt lat="44.33396" lon="5.6511">
        <ele>980.8</ele>
        <time>2023-04-06T10:53:58Z</time>
      </trkpt>
      <trkpt lat="44.33391" lon="5.6511">
        <ele>980.4</ele>
        <time>2023-04-06T10:53:59Z</time>
      </trkpt>
      <trkpt lat="44.33387" lon="5.6511">
        <ele>980</ele>
        <time>2023-04-06T10:54:00Z</time>
      </trkpt>
      <trkpt lat="44.33383" lon="5.6511">
        <ele>979.6</ele>
        <time>2023-04-06T10:54:01Z</time>
      </trkpt>
      <trkpt lat="44.33379" lon="5.65109">
        <ele>979.1</ele>
        <time>2023-04-06T10:54:02Z</time>
      </trkpt>
      <trkpt lat="44.33375" lon="5.65108">
        <ele>978.6</ele>
        <time>2023-04-06T10:54:03Z</time>
      </trkpt>
      <trkpt lat="44.33371" lon="5.65106">
        <ele>978</ele>
        <time>2023-04-06T10:54:04Z</time>
      </trkpt>
      <trkpt lat="44.33367" lon="5.65105">
        <ele>977.4</ele>
        <time>2023-04-06T10:54:05Z</time>
      </trkpt>
      <trkpt lat="44.33359" lon="5.65103">
        <ele>976.1</ele>
        <time>2023-04-06T10:54:07Z</time>
      </trkpt>
      <trkpt lat="44.33355" lon="5.65102">
        <ele>975.5</ele>
        <time>2023-04-06T10:54:08Z</time>
      </trkpt>
      <trkpt lat="44.33351" lon="5.65101">
        <ele>974.9</ele>
        <time>2023-04-06T10:54:09Z</time>
      </trkpt>
      <trkpt lat="44.33346" lon="5.65101">
        <ele>974.3</ele>
        <time>2023-04-06T10:54:10Z</time>
      </trkpt>
      <trkpt lat="44.33341" lon="5.65102">
        <ele>973.5</ele>
        <time>2023-04-06T10:54:11Z</time>
      </trkpt>
      <trkpt lat="44.33332" lon="5.65105">
        <ele>972.1</ele>
        <time>2023-04-06T10:54:13Z</time>
      </trkpt>
      <trkpt lat="44.33327" lon="5.65107">
        <ele>971.4</ele>
        <time>2023-04-06T10:54:14Z</time>
      </trkpt>
      <trkpt lat="44.33323" lon="5.65108">
        <ele>970.7</ele>
        <time>2023-04-06T10:54:15Z</time>
      </trkpt>
      <trkpt lat="44.33319" lon="5.65109">
        <ele>970</ele>
        <time>2023-04-06T10:54:16Z</time>
      </trkpt>
      <trkpt lat="44.33314" lon="5.65111">
        <ele>969.2</ele>
        <time>2023-04-06T10:54:17Z</time>
      </trkpt>
      <trkpt lat="44.33309" lon="5.65113">
        <ele>968.3</ele>
        <time>2023-04-06T10:54:18Z</time>
      </trkpt>
      <trkpt lat="44.33304" lon="5.65115">
        <ele>967.4</ele>
        <time>2023-04-06T10:54:19Z</time>
      </trkpt>
      <trkpt lat="44.33299" lon="5.65117">
        <ele>966.6</ele>
        <time>2023-04-06T10:54:20Z</time>
      </trkpt>
      <trkpt lat="44.33295" lon="5.65119">
        <ele>966</ele>
        <time>2023-04-06T10:54:21Z</time>
      </trkpt>
      <trkpt lat="44.33292" lon="5.65121">
        <ele>965.4</ele>
        <time>2023-04-06T10:54:22Z</time>
      </trkpt>
      <trkpt lat="44.33289" lon="5.65123">
        <ele>964.8</ele>
        <time>2023-04-06T10:54:23Z</time>
      </trkpt>
      <trkpt lat="44.33287" lon="5.65124">
        <ele>964.6</ele>
        <time>2023-04-06T10:54:24Z</time>
      </trkpt>
      <trkpt lat="44.33285" lon="5.65124">
        <ele>964.1</ele>
        <time>2023-04-06T10:54:25Z</time>
      </trkpt>
      <trkpt lat="44.33282" lon="5.65126">
        <ele>963.6</ele>
        <time>2023-04-06T10:54:26Z</time>
      </trkpt>
      <trkpt lat="44.33279" lon="5.65128">
        <ele>963</ele>
        <time>2023-04-06T10:54:27Z</time>
      </trkpt>
      <trkpt lat="44.33275" lon="5.65133">
        <ele>961.7</ele>
        <time>2023-04-06T10:54:29Z</time>
      </trkpt>
      <trkpt lat="44.33273" lon="5.65137">
        <ele>961.1</ele>
        <time>2023-04-06T10:54:30Z</time>
      </trkpt>
      <trkpt lat="44.33272" lon="5.65142">
        <ele>960.1</ele>
        <time>2023-04-06T10:54:31Z</time>
      </trkpt>
      <trkpt lat="44.33269" lon="5.6515">
        <ele>958.8</ele>
        <time>2023-04-06T10:54:32Z</time>
      </trkpt>
      <trkpt lat="44.33268" lon="5.65159">
        <ele>957.3</ele>
        <time>2023-04-06T10:54:33Z</time>
      </trkpt>
      <trkpt lat="44.33267" lon="5.65167">
        <ele>956.2</ele>
        <time>2023-04-06T10:54:34Z</time>
      </trkpt>
      <trkpt lat="44.33266" lon="5.65172">
        <ele>955.5</ele>
        <time>2023-04-06T10:54:35Z</time>
      </trkpt>
      <trkpt lat="44.33265" lon="5.65176">
        <ele>954.9</ele>
        <time>2023-04-06T10:54:36Z</time>
      </trkpt>
      <trkpt lat="44.33263" lon="5.6518">
        <ele>954.4</ele>
        <time>2023-04-06T10:54:37Z</time>
      </trkpt>
      <trkpt lat="44.33262" lon="5.65184">
        <ele>953.8</ele>
        <time>2023-04-06T10:54:38Z</time>
      </trkpt>
      <trkpt lat="44.3326" lon="5.65188">
        <ele>953.2</ele>
        <time>2023-04-06T10:54:39Z</time>
      </trkpt>
      <trkpt lat="44.33259" lon="5.65189">
        <ele>953</ele>
        <time>2023-04-06T10:54:40Z</time>
      </trkpt>
      <trkpt lat="44.33256" lon="5.65192">
        <ele>952.3</ele>
        <time>2023-04-06T10:54:41Z</time>
      </trkpt>
      <trkpt lat="44.33255" lon="5.65193">
        <ele>952</ele>
        <time>2023-04-06T10:54:42Z</time>
      </trkpt>
      <trkpt lat="44.33253" lon="5.65195">
        <ele>951.5</ele>
        <time>2023-04-06T10:54:43Z</time>
      </trkpt>
      <trkpt lat="44.33251" lon="5.65201">
        <ele>950.3</ele>
        <time>2023-04-06T10:54:45Z</time>
      </trkpt>
      <trkpt lat="44.33251" lon="5.65205">
        <ele>949.6</ele>
        <time>2023-04-06T10:54:46Z</time>
      </trkpt>
      <trkpt lat="44.33252" lon="5.65209">
        <ele>948.8</ele>
        <time>2023-04-06T10:54:47Z</time>
      </trkpt>
      <trkpt lat="44.33253" lon="5.65213">
        <ele>948.1</ele>
        <time>2023-04-06T10:54:48Z</time>
      </trkpt>
      <trkpt lat="44.33254" lon="5.65216">
        <ele>947.1</ele>
        <time>2023-04-06T10:54:49Z</time>
      </trkpt>
      <trkpt lat="44.33254" lon="5.65221">
        <ele>946.4</ele>
        <time>2023-04-06T10:54:51Z</time>
      </trkpt>
      <trkpt lat="44.33253" lon="5.65225">
        <ele>945.9</ele>
        <time>2023-04-06T10:54:52Z</time>
      </trkpt>
      <trkpt lat="44.33251" lon="5.65232">
        <ele>945.1</ele>
        <time>2023-04-06T10:54:53Z</time>
      </trkpt>
      <trkpt lat="44.33248" lon="5.65239">
        <ele>944.1</ele>
        <time>2023-04-06T10:54:54Z</time>
      </trkpt>
      <trkpt lat="44.33246" lon="5.65245">
        <ele>943.5</ele>
        <time>2023-04-06T10:54:55Z</time>
      </trkpt>
      <trkpt lat="44.33241" lon="5.65257">
        <ele>942.5</ele>
        <time>2023-04-06T10:54:57Z</time>
      </trkpt>
      <trkpt lat="44.33238" lon="5.65262">
        <ele>942.1</ele>
        <time>2023-04-06T10:54:58Z</time>
      </trkpt>
      <trkpt lat="44.33237" lon="5.65266">
        <ele>941.8</ele>
        <time>2023-04-06T10:54:59Z</time>
      </trkpt>
      <trkpt lat="44.33235" lon="5.6527">
        <ele>941.5</ele>
        <time>2023-04-06T10:55:00Z</time>
      </trkpt>
      <trkpt lat="44.33235" lon="5.65271">
        <ele>941.5</ele>
        <time>2023-04-06T10:55:01Z</time>
      </trkpt>
      <trkpt lat="44.33235" lon="5.65272">
        <ele>941.4</ele>
        <time>2023-04-06T10:55:02Z</time>
      </trkpt>
      <trkpt lat="44.33235" lon="5.65272">
        <ele>941.4</ele>
        <time>2023-04-06T10:55:03Z</time>
      </trkpt>
      <trkpt lat="44.33236" lon="5.65273">
        <ele>941.3</ele>
        <time>2023-04-06T10:55:04Z</time>
      </trkpt>
      <trkpt lat="44.33236" lon="5.65275">
        <ele>941.2</ele>
        <time>2023-04-06T10:55:05Z</time>
      </trkpt>
      <trkpt lat="44.33237" lon="5.65275">
        <ele>941.2</ele>
        <time>2023-04-06T10:55:06Z</time>
      </trkpt>
      <trkpt lat="44.33237" lon="5.65275">
        <ele>941.1</ele>
        <time>2023-04-06T10:55:07Z</time>
      </trkpt>
      <trkpt lat="44.33238" lon="5.65275">
        <ele>941</ele>
        <time>2023-04-06T10:55:08Z</time>
      </trkpt>
      <trkpt lat="44.33238" lon="5.65274">
        <ele>941</ele>
        <time>2023-04-06T10:55:09Z</time>
      </trkpt>
      <trkpt lat="44.33239" lon="5.65274">
        <ele>940.9</ele>
        <time>2023-04-06T10:55:10Z</time>
      </trkpt>
      <trkpt lat="44.33239" lon="5.65274">
        <ele>940.9</ele>
        <time>2023-04-06T10:55:11Z</time>
      </trkpt>
      <trkpt lat="44.33239" lon="5.65274">
        <ele>940.9</ele>
        <time>2023-04-06T10:55:12Z</time>
      </trkpt>
      <trkpt lat="44.33237" lon="5.65278">
        <ele>940.5</ele>
        <time>2023-04-06T10:55:27Z</time>
      </trkpt>
      <trkpt lat="44.33236" lon="5.65279">
        <ele>940.4</ele>
        <time>2023-04-06T10:55:28Z</time>
      </trkpt>
      <trkpt lat="44.33236" lon="5.65279">
        <ele>940.4</ele>
        <time>2023-04-06T10:55:29Z</time>
      </trkpt>
      <trkpt lat="44.33236" lon="5.65279">
        <ele>940.4</ele>
        <time>2023-04-06T10:55:30Z</time>
      </trkpt>
      <trkpt lat="44.33236" lon="5.65279">
        <ele>940.4</ele>
        <time>2023-04-06T10:55:31Z</time>
      </trkpt>
      <trkpt lat="44.33236" lon="5.65279">
        <ele>940.4</ele>
        <time>2023-04-06T10:55:32Z</time>
      </trkpt>
      <trkpt lat="44.33235" lon="5.6528">
        <ele>940.3</ele>
        <time>2023-04-06T10:55:33Z</time>
      </trkpt>
      <trkpt lat="44.33234" lon="5.65281">
        <ele>940.2</ele>
        <time>2023-04-06T10:55:34Z</time>
      </trkpt>
      <trkpt lat="44.33232" lon="5.65283">
        <ele>939.8</ele>
        <time>2023-04-06T10:55:35Z</time>
      </trkpt>
      <trkpt lat="44.33231" lon="5.65283">
        <ele>939.7</ele>
        <time>2023-04-06T10:55:36Z</time>
      </trkpt>
      <trkpt lat="44.33228" lon="5.65286">
        <ele>939.3</ele>
        <time>2023-04-06T10:55:37Z</time>
      </trkpt>
      <trkpt lat="44.33228" lon="5.65287">
        <ele>939.2</ele>
        <time>2023-04-06T10:55:38Z</time>
      </trkpt>
      <trkpt lat="44.33226" lon="5.65289">
        <ele>938.8</ele>
        <time>2023-04-06T10:55:39Z</time>
      </trkpt>
      <trkpt lat="44.33223" lon="5.65292">
        <ele>938.3</ele>
        <time>2023-04-06T10:55:40Z</time>
      </trkpt>
      <trkpt lat="44.33221" lon="5.65295">
        <ele>937.9</ele>
        <time>2023-04-06T10:55:41Z</time>
      </trkpt>
      <trkpt lat="44.33218" lon="5.65298">
        <ele>937.4</ele>
        <time>2023-04-06T10:55:42Z</time>
      </trkpt>
      <trkpt lat="44.33216" lon="5.65301">
        <ele>937</ele>
        <time>2023-04-06T10:55:43Z</time>
      </trkpt>
      <trkpt lat="44.33214" lon="5.65304">
        <ele>936.6</ele>
        <time>2023-04-06T10:55:44Z</time>
      </trkpt>
      <trkpt lat="44.33214" lon="5.65305">
        <ele>936.4</ele>
        <time>2023-04-06T10:55:45Z</time>
      </trkpt>
      <trkpt lat="44.33213" lon="5.65306">
        <ele>936.3</ele>
        <time>2023-04-06T10:55:46Z</time>
      </trkpt>
      <trkpt lat="44.33212" lon="5.65307">
        <ele>936.2</ele>
        <time>2023-04-06T10:55:47Z</time>
      </trkpt>
      <trkpt lat="44.33211" lon="5.65307">
        <ele>936</ele>
        <time>2023-04-06T10:55:48Z</time>
      </trkpt>
      <trkpt lat="44.3321" lon="5.65307">
        <ele>935.9</ele>
        <time>2023-04-06T10:55:49Z</time>
      </trkpt>
      <trkpt lat="44.33208" lon="5.65308">
        <ele>935.6</ele>
        <time>2023-04-06T10:55:50Z</time>
      </trkpt>
      <trkpt lat="44.33206" lon="5.65307">
        <ele>935.4</ele>
        <time>2023-04-06T10:55:51Z</time>
      </trkpt>
      <trkpt lat="44.33205" lon="5.65307">
        <ele>935.3</ele>
        <time>2023-04-06T10:55:52Z</time>
      </trkpt>
      <trkpt lat="44.33203" lon="5.65307">
        <ele>935.1</ele>
        <time>2023-04-06T10:55:53Z</time>
      </trkpt>
      <trkpt lat="44.33201" lon="5.65308">
        <ele>934.9</ele>
        <time>2023-04-06T10:55:54Z</time>
      </trkpt>
      <trkpt lat="44.33199" lon="5.65308">
        <ele>934.7</ele>
        <time>2023-04-06T10:55:55Z</time>
      </trkpt>
      <trkpt lat="44.33199" lon="5.65309">
        <ele>934.6</ele>
        <time>2023-04-06T10:55:56Z</time>
      </trkpt>
      <trkpt lat="44.33198" lon="5.65309">
        <ele>935.1</ele>
        <time>2023-04-06T10:55:57Z</time>
      </trkpt>
      <trkpt lat="44.33197" lon="5.6531">
        <ele>935.6</ele>
        <time>2023-04-06T10:55:58Z</time>
      </trkpt>
      <trkpt lat="44.33196" lon="5.6531">
        <ele>936.1</ele>
        <time>2023-04-06T10:55:59Z</time>
      </trkpt>
      <trkpt lat="44.33195" lon="5.65311">
        <ele>936.6</ele>
        <time>2023-04-06T10:56:00Z</time>
      </trkpt>
      <trkpt lat="44.33195" lon="5.65311">
        <ele>933.5</ele>
        <time>2023-04-06T10:56:01Z</time>
      </trkpt>
      <trkpt lat="44.33195" lon="5.65311">
        <ele>934</ele>
        <time>2023-04-06T10:56:02Z</time>
      </trkpt>
      <trkpt lat="44.33194" lon="5.65311">
        <ele>934.5</ele>
        <time>2023-04-06T10:56:03Z</time>
      </trkpt>
      <trkpt lat="44.33193" lon="5.65311">
        <ele>935</ele>
        <time>2023-04-06T10:56:04Z</time>
      </trkpt>
      <trkpt lat="44.33192" lon="5.6531">
        <ele>935.5</ele>
        <time>2023-04-06T10:56:05Z</time>
      </trkpt>
      <trkpt lat="44.33191" lon="5.6531">
        <ele>936</ele>
        <time>2023-04-06T10:56:06Z</time>
      </trkpt>
      <trkpt lat="44.33191" lon="5.6531">
        <ele>936.5</ele>
        <time>2023-04-06T10:56:07Z</time>
      </trkpt>
      <trkpt lat="44.33191" lon="5.6531">
        <ele>937</ele>
        <time>2023-04-06T10:56:08Z</time>
      </trkpt>
      <trkpt lat="44.33191" lon="5.6531">
        <ele>937.5</ele>
        <time>2023-04-06T10:56:09Z</time>
      </trkpt>
      <trkpt lat="44.33191" lon="5.6531">
        <ele>938</ele>
        <time>2023-04-06T10:56:10Z</time>
      </trkpt>
      <trkpt lat="44.33191" lon="5.6531">
        <ele>938.5</ele>
        <time>2023-04-06T10:56:11Z</time>
      </trkpt>
      <trkpt lat="44.33191" lon="5.6531">
        <ele>939</ele>
        <time>2023-04-06T10:56:12Z</time>
      </trkpt>
      <trkpt lat="44.33191" lon="5.65309">
        <ele>939.5</ele>
        <time>2023-04-06T10:56:13Z</time>
      </trkpt>
      <trkpt lat="44.33191" lon="5.65306">
        <ele>940</ele>
        <time>2023-04-06T10:56:14Z</time>
      </trkpt>
      <trkpt lat="44.33191" lon="5.65303">
        <ele>940.5</ele>
        <time>2023-04-06T10:56:15Z</time>
      </trkpt>
      <trkpt lat="44.33191" lon="5.65298">
        <ele>941.1</ele>
        <time>2023-04-06T10:56:16Z</time>
      </trkpt>
      <trkpt lat="44.3319" lon="5.65294">
        <ele>937.7</ele>
        <time>2023-04-06T10:56:17Z</time>
      </trkpt>
      <trkpt lat="44.33191" lon="5.6529">
        <ele>938.3</ele>
        <time>2023-04-06T10:56:18Z</time>
      </trkpt>
      <trkpt lat="44.33191" lon="5.65285">
        <ele>938.8</ele>
        <time>2023-04-06T10:56:19Z</time>
      </trkpt>
      <trkpt lat="44.33191" lon="5.6528">
        <ele>935.2</ele>
        <time>2023-04-06T10:56:20Z</time>
      </trkpt>
      <trkpt lat="44.3319" lon="5.65276">
        <ele>935.7</ele>
        <time>2023-04-06T10:56:21Z</time>
      </trkpt>
      <trkpt lat="44.33188" lon="5.65271">
        <ele>936.2</ele>
        <time>2023-04-06T10:56:22Z</time>
      </trkpt>
      <trkpt lat="44.33187" lon="5.6527">
        <ele>936.7</ele>
        <time>2023-04-06T10:56:23Z</time>
      </trkpt>
      <trkpt lat="44.33185" lon="5.65267">
        <ele>937.2</ele>
        <time>2023-04-06T10:56:24Z</time>
      </trkpt>
      <trkpt lat="44.33181" lon="5.65265">
        <ele>935.1</ele>
        <time>2023-04-06T10:56:25Z</time>
      </trkpt>
      <trkpt lat="44.33178" lon="5.65263">
        <ele>931.5</ele>
        <time>2023-04-06T10:56:26Z</time>
      </trkpt>
      <trkpt lat="44.33176" lon="5.6526">
        <ele>932</ele>
        <time>2023-04-06T10:56:27Z</time>
      </trkpt>
      <trkpt lat="44.33174" lon="5.65257">
        <ele>932.5</ele>
        <time>2023-04-06T10:56:28Z</time>
      </trkpt>
      <trkpt lat="44.33171" lon="5.65254">
        <ele>933</ele>
        <time>2023-04-06T10:56:29Z</time>
      </trkpt>
      <trkpt lat="44.33169" lon="5.6525">
        <ele>931.2</ele>
        <time>2023-04-06T10:56:30Z</time>
      </trkpt>
      <trkpt lat="44.33167" lon="5.65246">
        <ele>926.5</ele>
        <time>2023-04-06T10:56:31Z</time>
      </trkpt>
      <trkpt lat="44.33165" lon="5.65242">
        <ele>927</ele>
        <time>2023-04-06T10:56:32Z</time>
      </trkpt>
      <trkpt lat="44.33164" lon="5.65239">
        <ele>927.5</ele>
        <time>2023-04-06T10:56:33Z</time>
      </trkpt>
      <trkpt lat="44.33163" lon="5.65234">
        <ele>928</ele>
        <time>2023-04-06T10:56:34Z</time>
      </trkpt>
      <trkpt lat="44.33162" lon="5.65225">
        <ele>923.4</ele>
        <time>2023-04-06T10:56:36Z</time>
      </trkpt>
      <trkpt lat="44.3316" lon="5.65222">
        <ele>924</ele>
        <time>2023-04-06T10:56:37Z</time>
      </trkpt>
      <trkpt lat="44.33157" lon="5.65214">
        <ele>922.8</ele>
        <time>2023-04-06T10:56:39Z</time>
      </trkpt>
      <trkpt lat="44.33155" lon="5.65209">
        <ele>918.4</ele>
        <time>2023-04-06T10:56:40Z</time>
      </trkpt>
      <trkpt lat="44.33154" lon="5.65207">
        <ele>918.9</ele>
        <time>2023-04-06T10:56:41Z</time>
      </trkpt>
      <trkpt lat="44.33152" lon="5.65201">
        <ele>919.4</ele>
        <time>2023-04-06T10:56:43Z</time>
      </trkpt>
      <trkpt lat="44.3315" lon="5.65194">
        <ele>914.4</ele>
        <time>2023-04-06T10:56:45Z</time>
      </trkpt>
      <trkpt lat="44.3315" lon="5.65191">
        <ele>914.9</ele>
        <time>2023-04-06T10:56:46Z</time>
      </trkpt>
      <trkpt lat="44.33149" lon="5.65187">
        <ele>915.5</ele>
        <time>2023-04-06T10:56:47Z</time>
      </trkpt>
      <trkpt lat="44.33148" lon="5.65183">
        <ele>916</ele>
        <time>2023-04-06T10:56:48Z</time>
      </trkpt>
      <trkpt lat="44.33147" lon="5.65179">
        <ele>916.5</ele>
        <time>2023-04-06T10:56:49Z</time>
      </trkpt>
      <trkpt lat="44.33145" lon="5.65175">
        <ele>910.6</ele>
        <time>2023-04-06T10:56:50Z</time>
      </trkpt>
      <trkpt lat="44.33142" lon="5.65173">
        <ele>911.1</ele>
        <time>2023-04-06T10:56:51Z</time>
      </trkpt>
      <trkpt lat="44.33139" lon="5.65172">
        <ele>911.6</ele>
        <time>2023-04-06T10:56:52Z</time>
      </trkpt>
      <trkpt lat="44.33132" lon="5.65169">
        <ele>911.2</ele>
        <time>2023-04-06T10:56:54Z</time>
      </trkpt>
      <trkpt lat="44.33128" lon="5.65168">
        <ele>911.7</ele>
        <time>2023-04-06T10:56:55Z</time>
      </trkpt>
      <trkpt lat="44.33123" lon="5.65167">
        <ele>912.2</ele>
        <time>2023-04-06T10:56:56Z</time>
      </trkpt>
      <trkpt lat="44.33118" lon="5.65167">
        <ele>912.3</ele>
        <time>2023-04-06T10:56:57Z</time>
      </trkpt>
      <trkpt lat="44.33114" lon="5.65169">
        <ele>912.8</ele>
        <time>2023-04-06T10:56:58Z</time>
      </trkpt>
      <trkpt lat="44.33106" lon="5.65172">
        <ele>912.9</ele>
        <time>2023-04-06T10:57:00Z</time>
      </trkpt>
      <trkpt lat="44.33102" lon="5.65174">
        <ele>913.5</ele>
        <time>2023-04-06T10:57:01Z</time>
      </trkpt>
      <trkpt lat="44.33101" lon="5.65179">
        <ele>913.2</ele>
        <time>2023-04-06T10:57:02Z</time>
      </trkpt>
      <trkpt lat="44.331" lon="5.6518">
        <ele>913.1</ele>
        <time>2023-04-06T10:57:03Z</time>
      </trkpt>
      <trkpt lat="44.33099" lon="5.65184">
        <ele>912.8</ele>
        <time>2023-04-06T10:57:04Z</time>
      </trkpt>
      <trkpt lat="44.33098" lon="5.65185">
        <ele>912.8</ele>
        <time>2023-04-06T10:57:05Z</time>
      </trkpt>
      <trkpt lat="44.33098" lon="5.65186">
        <ele>912.7</ele>
        <time>2023-04-06T10:57:06Z</time>
      </trkpt>
      <trkpt lat="44.33097" lon="5.65187">
        <ele>912.6</ele>
        <time>2023-04-06T10:57:07Z</time>
      </trkpt>
      <trkpt lat="44.33096" lon="5.65188">
        <ele>912.5</ele>
        <time>2023-04-06T10:57:08Z</time>
      </trkpt>
      <trkpt lat="44.33095" lon="5.65189">
        <ele>912.3</ele>
        <time>2023-04-06T10:57:09Z</time>
      </trkpt>
      <trkpt lat="44.33093" lon="5.6519">
        <ele>912.2</ele>
        <time>2023-04-06T10:57:10Z</time>
      </trkpt>
      <trkpt lat="44.33091" lon="5.65191">
        <ele>912</ele>
        <time>2023-04-06T10:57:11Z</time>
      </trkpt>
      <trkpt lat="44.3309" lon="5.65191">
        <ele>911.9</ele>
        <time>2023-04-06T10:57:12Z</time>
      </trkpt>
      <trkpt lat="44.33088" lon="5.65191">
        <ele>911.8</ele>
        <time>2023-04-06T10:57:13Z</time>
      </trkpt>
      <trkpt lat="44.33087" lon="5.65191">
        <ele>911.6</ele>
        <time>2023-04-06T10:57:14Z</time>
      </trkpt>
      <trkpt lat="44.33085" lon="5.65192">
        <ele>911.4</ele>
        <time>2023-04-06T10:57:15Z</time>
      </trkpt>
      <trkpt lat="44.33081" lon="5.65192">
        <ele>911.1</ele>
        <time>2023-04-06T10:57:17Z</time>
      </trkpt>
      <trkpt lat="44.33079" lon="5.65192">
        <ele>910.9</ele>
        <time>2023-04-06T10:57:18Z</time>
      </trkpt>
      <trkpt lat="44.33076" lon="5.65193">
        <ele>910.7</ele>
        <time>2023-04-06T10:57:19Z</time>
      </trkpt>
      <trkpt lat="44.33073" lon="5.65194">
        <ele>910.4</ele>
        <time>2023-04-06T10:57:20Z</time>
      </trkpt>
      <trkpt lat="44.3307" lon="5.65194">
        <ele>910.2</ele>
        <time>2023-04-06T10:57:21Z</time>
      </trkpt>
      <trkpt lat="44.33067" lon="5.65195">
        <ele>910</ele>
        <time>2023-04-06T10:57:22Z</time>
      </trkpt>
      <trkpt lat="44.33063" lon="5.65195">
        <ele>909.8</ele>
        <time>2023-04-06T10:57:23Z</time>
      </trkpt>
      <trkpt lat="44.33059" lon="5.65195">
        <ele>909.6</ele>
        <time>2023-04-06T10:57:24Z</time>
      </trkpt>
      <trkpt lat="44.33055" lon="5.65194">
        <ele>909.5</ele>
        <time>2023-04-06T10:57:25Z</time>
      </trkpt>
      <trkpt lat="44.33051" lon="5.65192">
        <ele>909.4</ele>
        <time>2023-04-06T10:57:26Z</time>
      </trkpt>
      <trkpt lat="44.33043" lon="5.65189">
        <ele>909.2</ele>
        <time>2023-04-06T10:57:28Z</time>
      </trkpt>
      <trkpt lat="44.33039" lon="5.65186">
        <ele>909.1</ele>
        <time>2023-04-06T10:57:29Z</time>
      </trkpt>
      <trkpt lat="44.33035" lon="5.65183">
        <ele>909.1</ele>
        <time>2023-04-06T10:57:30Z</time>
      </trkpt>
      <trkpt lat="44.33031" lon="5.65181">
        <ele>909.1</ele>
        <time>2023-04-06T10:57:31Z</time>
      </trkpt>
      <trkpt lat="44.33027" lon="5.65179">
        <ele>909.1</ele>
        <time>2023-04-06T10:57:32Z</time>
      </trkpt>
      <trkpt lat="44.33022" lon="5.65178">
        <ele>909.1</ele>
        <time>2023-04-06T10:57:33Z</time>
      </trkpt>
      <trkpt lat="44.33016" lon="5.65176">
        <ele>909.1</ele>
        <time>2023-04-06T10:57:34Z</time>
      </trkpt>
      <trkpt lat="44.33011" lon="5.65173">
        <ele>909.2</ele>
        <time>2023-04-06T10:57:35Z</time>
      </trkpt>
      <trkpt lat="44.33005" lon="5.65169">
        <ele>909.2</ele>
        <time>2023-04-06T10:57:36Z</time>
      </trkpt>
      <trkpt lat="44.32999" lon="5.65166">
        <ele>909.3</ele>
        <time>2023-04-06T10:57:37Z</time>
      </trkpt>
      <trkpt lat="44.3299" lon="5.65163">
        <ele>909.5</ele>
        <time>2023-04-06T10:57:39Z</time>
      </trkpt>
      <trkpt lat="44.32987" lon="5.65163">
        <ele>909.6</ele>
        <time>2023-04-06T10:57:40Z</time>
      </trkpt>
      <trkpt lat="44.32983" lon="5.65163">
        <ele>909.8</ele>
        <time>2023-04-06T10:57:41Z</time>
      </trkpt>
      <trkpt lat="44.32979" lon="5.65163">
        <ele>909.9</ele>
        <time>2023-04-06T10:57:42Z</time>
      </trkpt>
      <trkpt lat="44.32975" lon="5.65163">
        <ele>910</ele>
        <time>2023-04-06T10:57:43Z</time>
      </trkpt>
      <trkpt lat="44.32971" lon="5.65162">
        <ele>910</ele>
        <time>2023-04-06T10:57:44Z</time>
      </trkpt>
      <trkpt lat="44.32969" lon="5.65163">
        <ele>910</ele>
        <time>2023-04-06T10:57:45Z</time>
      </trkpt>
      <trkpt lat="44.32966" lon="5.65165">
        <ele>910</ele>
        <time>2023-04-06T10:57:46Z</time>
      </trkpt>
      <trkpt lat="44.32963" lon="5.65166">
        <ele>909.9</ele>
        <time>2023-04-06T10:57:47Z</time>
      </trkpt>
      <trkpt lat="44.32962" lon="5.65167">
        <ele>909.9</ele>
        <time>2023-04-06T10:57:48Z</time>
      </trkpt>
      <trkpt lat="44.32958" lon="5.65169">
        <ele>909.7</ele>
        <time>2023-04-06T10:57:50Z</time>
      </trkpt>
      <trkpt lat="44.32954" lon="5.6517">
        <ele>909.5</ele>
        <time>2023-04-06T10:57:51Z</time>
      </trkpt>
      <trkpt lat="44.32952" lon="5.65171">
        <ele>909.3</ele>
        <time>2023-04-06T10:57:52Z</time>
      </trkpt>
      <trkpt lat="44.32949" lon="5.65174">
        <ele>909</ele>
        <time>2023-04-06T10:57:53Z</time>
      </trkpt>
      <trkpt lat="44.32944" lon="5.65176">
        <ele>908.6</ele>
        <time>2023-04-06T10:57:54Z</time>
      </trkpt>
      <trkpt lat="44.32937" lon="5.65186">
        <ele>907.7</ele>
        <time>2023-04-06T10:57:56Z</time>
      </trkpt>
      <trkpt lat="44.32934" lon="5.65192">
        <ele>907.3</ele>
        <time>2023-04-06T10:57:57Z</time>
      </trkpt>
      <trkpt lat="44.32933" lon="5.65198">
        <ele>907</ele>
        <time>2023-04-06T10:57:58Z</time>
      </trkpt>
      <trkpt lat="44.32932" lon="5.65204">
        <ele>906.7</ele>
        <time>2023-04-06T10:57:59Z</time>
      </trkpt>
      <trkpt lat="44.32931" lon="5.65208">
        <ele>906.4</ele>
        <time>2023-04-06T10:58:00Z</time>
      </trkpt>
      <trkpt lat="44.32927" lon="5.65216">
        <ele>906</ele>
        <time>2023-04-06T10:58:02Z</time>
      </trkpt>
      <trkpt lat="44.32924" lon="5.65219">
        <ele>905.8</ele>
        <time>2023-04-06T10:58:03Z</time>
      </trkpt>
      <trkpt lat="44.32921" lon="5.65222">
        <ele>905.7</ele>
        <time>2023-04-06T10:58:04Z</time>
      </trkpt>
      <trkpt lat="44.32918" lon="5.65223">
        <ele>905.6</ele>
        <time>2023-04-06T10:58:05Z</time>
      </trkpt>
      <trkpt lat="44.32915" lon="5.65222">
        <ele>905.5</ele>
        <time>2023-04-06T10:58:06Z</time>
      </trkpt>
      <trkpt lat="44.32911" lon="5.65222">
        <ele>905.4</ele>
        <time>2023-04-06T10:58:07Z</time>
      </trkpt>
      <trkpt lat="44.32907" lon="5.65224">
        <ele>905.2</ele>
        <time>2023-04-06T10:58:08Z</time>
      </trkpt>
      <trkpt lat="44.32904" lon="5.65227">
        <ele>905.1</ele>
        <time>2023-04-06T10:58:09Z</time>
      </trkpt>
      <trkpt lat="44.32901" lon="5.65232">
        <ele>904.8</ele>
        <time>2023-04-06T10:58:10Z</time>
      </trkpt>
      <trkpt lat="44.32898" lon="5.65235">
        <ele>904.5</ele>
        <time>2023-04-06T10:58:11Z</time>
      </trkpt>
      <trkpt lat="44.32896" lon="5.65238">
        <ele>904.1</ele>
        <time>2023-04-06T10:58:12Z</time>
      </trkpt>
      <trkpt lat="44.32894" lon="5.65242">
        <ele>903.8</ele>
        <time>2023-04-06T10:58:13Z</time>
      </trkpt>
      <trkpt lat="44.32892" lon="5.65245">
        <ele>903.4</ele>
        <time>2023-04-06T10:58:14Z</time>
      </trkpt>
      <trkpt lat="44.32891" lon="5.65249">
        <ele>903</ele>
        <time>2023-04-06T10:58:15Z</time>
      </trkpt>
      <trkpt lat="44.3289" lon="5.65253">
        <ele>902.8</ele>
        <time>2023-04-06T10:58:16Z</time>
      </trkpt>
      <trkpt lat="44.32888" lon="5.65259">
        <ele>902.3</ele>
        <time>2023-04-06T10:58:18Z</time>
      </trkpt>
      <trkpt lat="44.32885" lon="5.65263">
        <ele>902</ele>
        <time>2023-04-06T10:58:19Z</time>
      </trkpt>
      <trkpt lat="44.32883" lon="5.65264">
        <ele>901.9</ele>
        <time>2023-04-06T10:58:20Z</time>
      </trkpt>
      <trkpt lat="44.32881" lon="5.65267">
        <ele>901.7</ele>
        <time>2023-04-06T10:58:21Z</time>
      </trkpt>
      <trkpt lat="44.32879" lon="5.65271">
        <ele>901.5</ele>
        <time>2023-04-06T10:58:22Z</time>
      </trkpt>
      <trkpt lat="44.32877" lon="5.65276">
        <ele>901.3</ele>
        <time>2023-04-06T10:58:23Z</time>
      </trkpt>
      <trkpt lat="44.32876" lon="5.65279">
        <ele>901.2</ele>
        <time>2023-04-06T10:58:24Z</time>
      </trkpt>
      <trkpt lat="44.32875" lon="5.65283">
        <ele>901.1</ele>
        <time>2023-04-06T10:58:25Z</time>
      </trkpt>
      <trkpt lat="44.32873" lon="5.65289">
        <ele>900.9</ele>
        <time>2023-04-06T10:58:26Z</time>
      </trkpt>
      <trkpt lat="44.32871" lon="5.65294">
        <ele>900.6</ele>
        <time>2023-04-06T10:58:27Z</time>
      </trkpt>
      <trkpt lat="44.32865" lon="5.65307">
        <ele>900</ele>
        <time>2023-04-06T10:58:29Z</time>
      </trkpt>
      <trkpt lat="44.32862" lon="5.65314">
        <ele>899.6</ele>
        <time>2023-04-06T10:58:30Z</time>
      </trkpt>
      <trkpt lat="44.32859" lon="5.65322">
        <ele>899.2</ele>
        <time>2023-04-06T10:58:31Z</time>
      </trkpt>
      <trkpt lat="44.32856" lon="5.65329">
        <ele>899.1</ele>
        <time>2023-04-06T10:58:32Z</time>
      </trkpt>
      <trkpt lat="44.32852" lon="5.65337">
        <ele>897.6</ele>
        <time>2023-04-06T10:58:33Z</time>
      </trkpt>
      <trkpt lat="44.32848" lon="5.65345">
        <ele>896.2</ele>
        <time>2023-04-06T10:58:34Z</time>
      </trkpt>
      <trkpt lat="44.32843" lon="5.65353">
        <ele>894.5</ele>
        <time>2023-04-06T10:58:35Z</time>
      </trkpt>
      <trkpt lat="44.32839" lon="5.65364">
        <ele>892.7</ele>
        <time>2023-04-06T10:58:36Z</time>
      </trkpt>
      <trkpt lat="44.32835" lon="5.65375">
        <ele>891</ele>
        <time>2023-04-06T10:58:37Z</time>
      </trkpt>
      <trkpt lat="44.32831" lon="5.65385">
        <ele>889.4</ele>
        <time>2023-04-06T10:58:38Z</time>
      </trkpt>
      <trkpt lat="44.32825" lon="5.65404">
        <ele>886.7</ele>
        <time>2023-04-06T10:58:40Z</time>
      </trkpt>
      <trkpt lat="44.32823" lon="5.65414">
        <ele>885.4</ele>
        <time>2023-04-06T10:58:41Z</time>
      </trkpt>
      <trkpt lat="44.32821" lon="5.65424">
        <ele>883.9</ele>
        <time>2023-04-06T10:58:42Z</time>
      </trkpt>
      <trkpt lat="44.32818" lon="5.65433">
        <ele>882.4</ele>
        <time>2023-04-06T10:58:43Z</time>
      </trkpt>
      <trkpt lat="44.32814" lon="5.65441">
        <ele>880.7</ele>
        <time>2023-04-06T10:58:44Z</time>
      </trkpt>
      <trkpt lat="44.3281" lon="5.65449">
        <ele>879</ele>
        <time>2023-04-06T10:58:45Z</time>
      </trkpt>
      <trkpt lat="44.32805" lon="5.65456">
        <ele>877.2</ele>
        <time>2023-04-06T10:58:46Z</time>
      </trkpt>
      <trkpt lat="44.32798" lon="5.65461">
        <ele>875.4</ele>
        <time>2023-04-06T10:58:47Z</time>
      </trkpt>
      <trkpt lat="44.32791" lon="5.65465">
        <ele>873.8</ele>
        <time>2023-04-06T10:58:48Z</time>
      </trkpt>
      <trkpt lat="44.32785" lon="5.65469">
        <ele>872.5</ele>
        <time>2023-04-06T10:58:49Z</time>
      </trkpt>
      <trkpt lat="44.32781" lon="5.65474">
        <ele>871.5</ele>
        <time>2023-04-06T10:58:50Z</time>
      </trkpt>
      <trkpt lat="44.32777" lon="5.65479">
        <ele>870.8</ele>
        <time>2023-04-06T10:58:51Z</time>
      </trkpt>
      <trkpt lat="44.32775" lon="5.65484">
        <ele>870.2</ele>
        <time>2023-04-06T10:58:52Z</time>
      </trkpt>
      <trkpt lat="44.32773" lon="5.65489">
        <ele>869.7</ele>
        <time>2023-04-06T10:58:53Z</time>
      </trkpt>
      <trkpt lat="44.32768" lon="5.65502">
        <ele>868.9</ele>
        <time>2023-04-06T10:58:55Z</time>
      </trkpt>
      <trkpt lat="44.32765" lon="5.65508">
        <ele>869</ele>
        <time>2023-04-06T10:58:56Z</time>
      </trkpt>
      <trkpt lat="44.32761" lon="5.65512">
        <ele>869</ele>
        <time>2023-04-06T10:58:57Z</time>
      </trkpt>
      <trkpt lat="44.32757" lon="5.65516">
        <ele>869</ele>
        <time>2023-04-06T10:58:58Z</time>
      </trkpt>
      <trkpt lat="44.32752" lon="5.65519">
        <ele>869.1</ele>
        <time>2023-04-06T10:58:59Z</time>
      </trkpt>
      <trkpt lat="44.32748" lon="5.65523">
        <ele>869.2</ele>
        <time>2023-04-06T10:59:00Z</time>
      </trkpt>
      <trkpt lat="44.32743" lon="5.65527">
        <ele>869.2</ele>
        <time>2023-04-06T10:59:01Z</time>
      </trkpt>
      <trkpt lat="44.32739" lon="5.6553">
        <ele>869.3</ele>
        <time>2023-04-06T10:59:02Z</time>
      </trkpt>
      <trkpt lat="44.32735" lon="5.65533">
        <ele>869.3</ele>
        <time>2023-04-06T10:59:03Z</time>
      </trkpt>
      <trkpt lat="44.32731" lon="5.65534">
        <ele>869.3</ele>
        <time>2023-04-06T10:59:04Z</time>
      </trkpt>
      <trkpt lat="44.32726" lon="5.65534">
        <ele>869.3</ele>
        <time>2023-04-06T10:59:05Z</time>
      </trkpt>
      <trkpt lat="44.32721" lon="5.65533">
        <ele>869.2</ele>
        <time>2023-04-06T10:59:06Z</time>
      </trkpt>
      <trkpt lat="44.32715" lon="5.65532">
        <ele>869</ele>
        <time>2023-04-06T10:59:07Z</time>
      </trkpt>
      <trkpt lat="44.32709" lon="5.6553">
        <ele>868.8</ele>
        <time>2023-04-06T10:59:08Z</time>
      </trkpt>
      <trkpt lat="44.32705" lon="5.65527">
        <ele>868.6</ele>
        <time>2023-04-06T10:59:09Z</time>
      </trkpt>
      <trkpt lat="44.327" lon="5.65523">
        <ele>868.4</ele>
        <time>2023-04-06T10:59:10Z</time>
      </trkpt>
      <trkpt lat="44.32696" lon="5.6552">
        <ele>868.1</ele>
        <time>2023-04-06T10:59:11Z</time>
      </trkpt>
      <trkpt lat="44.32691" lon="5.65518">
        <ele>867.6</ele>
        <time>2023-04-06T10:59:12Z</time>
      </trkpt>
      <trkpt lat="44.32687" lon="5.65519">
        <ele>867.2</ele>
        <time>2023-04-06T10:59:13Z</time>
      </trkpt>
      <trkpt lat="44.32684" lon="5.65518">
        <ele>867</ele>
        <time>2023-04-06T10:59:14Z</time>
      </trkpt>
      <trkpt lat="44.32681" lon="5.65518">
        <ele>866.7</ele>
        <time>2023-04-06T10:59:15Z</time>
      </trkpt>
      <trkpt lat="44.3268" lon="5.65518">
        <ele>866.6</ele>
        <time>2023-04-06T10:59:16Z</time>
      </trkpt>
      <trkpt lat="44.32676" lon="5.65517">
        <ele>866.2</ele>
        <time>2023-04-06T10:59:17Z</time>
      </trkpt>
      <trkpt lat="44.32674" lon="5.65517">
        <ele>866.1</ele>
        <time>2023-04-06T10:59:18Z</time>
      </trkpt>
      <trkpt lat="44.32672" lon="5.65515">
        <ele>865.8</ele>
        <time>2023-04-06T10:59:19Z</time>
      </trkpt>
      <trkpt lat="44.32668" lon="5.65513">
        <ele>865.5</ele>
        <time>2023-04-06T10:59:20Z</time>
      </trkpt>
      <trkpt lat="44.32667" lon="5.65513">
        <ele>865.4</ele>
        <time>2023-04-06T10:59:21Z</time>
      </trkpt>
      <trkpt lat="44.32663" lon="5.65512">
        <ele>865.1</ele>
        <time>2023-04-06T10:59:22Z</time>
      </trkpt>
      <trkpt lat="44.32662" lon="5.65512">
        <ele>865</ele>
        <time>2023-04-06T10:59:23Z</time>
      </trkpt>
      <trkpt lat="44.32659" lon="5.65512">
        <ele>864.7</ele>
        <time>2023-04-06T10:59:24Z</time>
      </trkpt>
      <trkpt lat="44.32657" lon="5.65513">
        <ele>864.6</ele>
        <time>2023-04-06T10:59:25Z</time>
      </trkpt>
      <trkpt lat="44.32654" lon="5.65514">
        <ele>864.5</ele>
        <time>2023-04-06T10:59:26Z</time>
      </trkpt>
      <trkpt lat="44.32652" lon="5.65514">
        <ele>864.5</ele>
        <time>2023-04-06T10:59:27Z</time>
      </trkpt>
      <trkpt lat="44.32649" lon="5.65515">
        <ele>864.4</ele>
        <time>2023-04-06T10:59:28Z</time>
      </trkpt>
      <trkpt lat="44.32647" lon="5.65515">
        <ele>864.4</ele>
        <time>2023-04-06T10:59:29Z</time>
      </trkpt>
      <trkpt lat="44.32644" lon="5.65517">
        <ele>864.3</ele>
        <time>2023-04-06T10:59:30Z</time>
      </trkpt>
      <trkpt lat="44.32643" lon="5.65517">
        <ele>864.3</ele>
        <time>2023-04-06T10:59:31Z</time>
      </trkpt>
      <trkpt lat="44.32641" lon="5.65519">
        <ele>864.2</ele>
        <time>2023-04-06T10:59:32Z</time>
      </trkpt>
      <trkpt lat="44.3264" lon="5.65519">
        <ele>864.1</ele>
        <time>2023-04-06T10:59:33Z</time>
      </trkpt>
      <trkpt lat="44.32637" lon="5.65522">
        <ele>864.1</ele>
        <time>2023-04-06T10:59:34Z</time>
      </trkpt>
      <trkpt lat="44.32636" lon="5.65522">
        <ele>864</ele>
        <time>2023-04-06T10:59:35Z</time>
      </trkpt>
      <trkpt lat="44.32634" lon="5.65526">
        <ele>863.9</ele>
        <time>2023-04-06T10:59:36Z</time>
      </trkpt>
      <trkpt lat="44.32633" lon="5.65527">
        <ele>863.9</ele>
        <time>2023-04-06T10:59:37Z</time>
      </trkpt>
      <trkpt lat="44.32633" lon="5.65531">
        <ele>863.9</ele>
        <time>2023-04-06T10:59:38Z</time>
      </trkpt>
      <trkpt lat="44.32631" lon="5.65534">
        <ele>863.8</ele>
        <time>2023-04-06T10:59:39Z</time>
      </trkpt>
      <trkpt lat="44.32629" lon="5.65537">
        <ele>863.8</ele>
        <time>2023-04-06T10:59:40Z</time>
      </trkpt>
      <trkpt lat="44.32628" lon="5.65538">
        <ele>863.7</ele>
        <time>2023-04-06T10:59:41Z</time>
      </trkpt>
      <trkpt lat="44.32625" lon="5.65541">
        <ele>863.7</ele>
        <time>2023-04-06T10:59:42Z</time>
      </trkpt>
      <trkpt lat="44.32624" lon="5.65542">
        <ele>863.7</ele>
        <time>2023-04-06T10:59:43Z</time>
      </trkpt>
      <trkpt lat="44.32624" lon="5.65547">
        <ele>863.7</ele>
        <time>2023-04-06T10:59:44Z</time>
      </trkpt>
      <trkpt lat="44.32624" lon="5.65548">
        <ele>863.7</ele>
        <time>2023-04-06T10:59:45Z</time>
      </trkpt>
      <trkpt lat="44.32624" lon="5.65554">
        <ele>863.7</ele>
        <time>2023-04-06T10:59:46Z</time>
      </trkpt>
      <trkpt lat="44.32624" lon="5.65556">
        <ele>863.7</ele>
        <time>2023-04-06T10:59:47Z</time>
      </trkpt>
      <trkpt lat="44.32622" lon="5.6556">
        <ele>863.7</ele>
        <time>2023-04-06T10:59:48Z</time>
      </trkpt>
      <trkpt lat="44.32621" lon="5.65561">
        <ele>863.7</ele>
        <time>2023-04-06T10:59:49Z</time>
      </trkpt>
      <trkpt lat="44.32619" lon="5.65565">
        <ele>863.7</ele>
        <time>2023-04-06T10:59:50Z</time>
      </trkpt>
      <trkpt lat="44.32618" lon="5.65566">
        <ele>863.7</ele>
        <time>2023-04-06T10:59:51Z</time>
      </trkpt>
      <trkpt lat="44.32617" lon="5.65567">
        <ele>863.7</ele>
        <time>2023-04-06T10:59:52Z</time>
      </trkpt>
      <trkpt lat="44.32616" lon="5.65567">
        <ele>863.7</ele>
        <time>2023-04-06T10:59:53Z</time>
      </trkpt>
      <trkpt lat="44.32615" lon="5.65567">
        <ele>863.7</ele>
        <time>2023-04-06T10:59:54Z</time>
      </trkpt>
      <trkpt lat="44.32615" lon="5.65566">
        <ele>863.7</ele>
        <time>2023-04-06T10:59:55Z</time>
      </trkpt>
      <trkpt lat="44.32614" lon="5.65566">
        <ele>863.7</ele>
        <time>2023-04-06T10:59:56Z</time>
      </trkpt>
      <trkpt lat="44.32614" lon="5.65566">
        <ele>863.7</ele>
        <time>2023-04-06T10:59:57Z</time>
      </trkpt>
      <trkpt lat="44.32614" lon="5.65566">
        <ele>863.7</ele>
        <time>2023-04-06T10:59:58Z</time>
      </trkpt>
      <trkpt lat="44.32613" lon="5.65566">
        <ele>863.7</ele>
        <time>2023-04-06T10:59:59Z</time>
      </trkpt>
      <trkpt lat="44.32614" lon="5.65563">
        <ele>863.8</ele>
        <time>2023-04-06T11:00:00Z</time>
      </trkpt>
      <trkpt lat="44.32616" lon="5.65559">
        <ele>863.8</ele>
        <time>2023-04-06T11:00:01Z</time>
      </trkpt>
      <trkpt lat="44.32617" lon="5.65558">
        <ele>863.8</ele>
        <time>2023-04-06T11:00:02Z</time>
      </trkpt>
      <trkpt lat="44.32621" lon="5.65556">
        <ele>863.8</ele>
        <time>2023-04-06T11:00:03Z</time>
      </trkpt>
      <trkpt lat="44.32623" lon="5.65556">
        <ele>863.8</ele>
        <time>2023-04-06T11:00:04Z</time>
      </trkpt>
      <trkpt lat="44.32627" lon="5.65556">
        <ele>863.9</ele>
        <time>2023-04-06T11:00:05Z</time>
      </trkpt>
      <trkpt lat="44.3263" lon="5.65554">
        <ele>863.9</ele>
        <time>2023-04-06T11:00:06Z</time>
      </trkpt>
      <trkpt lat="44.32634" lon="5.65551">
        <ele>864</ele>
        <time>2023-04-06T11:00:07Z</time>
      </trkpt>
      <trkpt lat="44.32637" lon="5.65548">
        <ele>864.1</ele>
        <time>2023-04-06T11:00:08Z</time>
      </trkpt>
      <trkpt lat="44.3264" lon="5.65545">
        <ele>864.1</ele>
        <time>2023-04-06T11:00:09Z</time>
      </trkpt>
      <trkpt lat="44.32641" lon="5.65541">
        <ele>864.1</ele>
        <time>2023-04-06T11:00:10Z</time>
      </trkpt>
      <trkpt lat="44.32643" lon="5.65538">
        <ele>864.1</ele>
        <time>2023-04-06T11:00:11Z</time>
      </trkpt>
      <trkpt lat="44.32644" lon="5.65537">
        <ele>864.1</ele>
        <time>2023-04-06T11:00:12Z</time>
      </trkpt>
      <trkpt lat="44.32646" lon="5.65534">
        <ele>864.1</ele>
        <time>2023-04-06T11:00:13Z</time>
      </trkpt>
      <trkpt lat="44.32647" lon="5.65533">
        <ele>864.1</ele>
        <time>2023-04-06T11:00:14Z</time>
      </trkpt>
      <trkpt lat="44.32649" lon="5.65529">
        <ele>864.1</ele>
        <time>2023-04-06T11:00:15Z</time>
      </trkpt>
      <trkpt lat="44.32649" lon="5.65528">
        <ele>864.1</ele>
        <time>2023-04-06T11:00:16Z</time>
      </trkpt>
      <trkpt lat="44.32649" lon="5.65526">
        <ele>864.1</ele>
        <time>2023-04-06T11:00:17Z</time>
      </trkpt>
      <trkpt lat="44.3265" lon="5.65525">
        <ele>864.1</ele>
        <time>2023-04-06T11:00:18Z</time>
      </trkpt>
      <trkpt lat="44.3265" lon="5.65525">
        <ele>864.1</ele>
        <time>2023-04-06T11:00:19Z</time>
      </trkpt>
      <trkpt lat="44.3265" lon="5.65526">
        <ele>864.1</ele>
        <time>2023-04-06T11:00:20Z</time>
      </trkpt>
      <trkpt lat="44.3265" lon="5.65525">
        <ele>864.1</ele>
        <time>2023-04-06T11:00:21Z</time>
      </trkpt>
      <trkpt lat="44.3265" lon="5.65525">
        <ele>864.1</ele>
        <time>2023-04-06T11:00:22Z</time>
      </trkpt>
      <trkpt lat="44.32651" lon="5.65525">
        <ele>864.1</ele>
        <time>2023-04-06T11:00:23Z</time>
      </trkpt>
      <trkpt lat="44.32651" lon="5.65525">
        <ele>864.1</ele>
        <time>2023-04-06T11:00:24Z</time>
      </trkpt>
      <trkpt lat="44.32651" lon="5.65525">
        <ele>864</ele>
        <time>2023-04-06T11:00:25Z</time>
      </trkpt>
      <trkpt lat="44.32649" lon="5.65525">
        <ele>864</ele>
        <time>2023-04-06T11:00:28Z</time>
      </trkpt>
      <trkpt lat="44.32649" lon="5.65525">
        <ele>864</ele>
        <time>2023-04-06T11:00:29Z</time>
      </trkpt>
      <trkpt lat="44.32649" lon="5.65525">
        <ele>864</ele>
        <time>2023-04-06T11:00:31Z</time>
      </trkpt>
      <trkpt lat="44.32649" lon="5.65525">
        <ele>864</ele>
        <time>2023-04-06T11:00:32Z</time>
      </trkpt>
      <trkpt lat="44.32649" lon="5.65525">
        <ele>864</ele>
        <time>2023-04-06T11:00:33Z</time>
      </trkpt>
      <trkpt lat="44.32649" lon="5.65525">
        <ele>864</ele>
        <time>2023-04-06T11:00:34Z</time>
      </trkpt>
      <trkpt lat="44.32649" lon="5.65525">
        <ele>864</ele>
        <time>2023-04-06T11:00:35Z</time>
      </trkpt>
      <trkpt lat="44.32648" lon="5.65526">
        <ele>864</ele>
        <time>2023-04-06T11:00:36Z</time>
      </trkpt>
      <trkpt lat="44.32646" lon="5.6553">
        <ele>863.9</ele>
        <time>2023-04-06T11:00:37Z</time>
      </trkpt>
      <trkpt lat="44.32645" lon="5.65531">
        <ele>863.9</ele>
        <time>2023-04-06T11:00:38Z</time>
      </trkpt>
      <trkpt lat="44.32644" lon="5.65531">
        <ele>863.9</ele>
        <time>2023-04-06T11:00:39Z</time>
      </trkpt>
      <trkpt lat="44.32643" lon="5.65532">
        <ele>863.9</ele>
        <time>2023-04-06T11:00:41Z</time>
      </trkpt>
      <trkpt lat="44.32642" lon="5.65532">
        <ele>863.9</ele>
        <time>2023-04-06T11:00:42Z</time>
      </trkpt>
      <trkpt lat="44.32642" lon="5.65532">
        <ele>863.9</ele>
        <time>2023-04-06T11:00:44Z</time>
      </trkpt>
      <trkpt lat="44.32643" lon="5.65532">
        <ele>863.9</ele>
        <time>2023-04-06T11:00:45Z</time>
      </trkpt>
      <trkpt lat="44.32643" lon="5.65532">
        <ele>863.9</ele>
        <time>2023-04-06T11:00:47Z</time>
      </trkpt>
      <trkpt lat="44.32643" lon="5.65532">
        <ele>863.9</ele>
        <time>2023-04-06T11:00:48Z</time>
      </trkpt>
      <trkpt lat="44.32643" lon="5.65532">
        <ele>863.9</ele>
        <time>2023-04-06T11:00:49Z</time>
      </trkpt>
      <trkpt lat="44.32643" lon="5.65532">
        <ele>863.9</ele>
        <time>2023-04-06T11:00:50Z</time>
      </trkpt>
      <trkpt lat="44.32643" lon="5.65532">
        <ele>863.8</ele>
        <time>2023-04-06T11:00:51Z</time>
      </trkpt>
      <trkpt lat="44.32643" lon="5.65532">
        <ele>863.8</ele>
        <time>2023-04-06T11:00:52Z</time>
      </trkpt>
      <trkpt lat="44.32643" lon="5.65532">
        <ele>863.8</ele>
        <time>2023-04-06T11:00:53Z</time>
      </trkpt>
      <trkpt lat="44.32643" lon="5.65532">
        <ele>863.8</ele>
        <time>2023-04-06T11:00:54Z</time>
      </trkpt>
      <trkpt lat="44.32643" lon="5.65532">
        <ele>863.8</ele>
        <time>2023-04-06T11:00:56Z</time>
      </trkpt>
      <trkpt lat="44.32646" lon="5.65528">
        <ele>863.7</ele>
        <time>2023-04-06T11:01:29Z</time>
      </trkpt>
      <trkpt lat="44.32647" lon="5.65526">
        <ele>863.7</ele>
        <time>2023-04-06T11:01:31Z</time>
      </trkpt>
      <trkpt lat="44.32647" lon="5.65525">
        <ele>863.7</ele>
        <time>2023-04-06T11:01:32Z</time>
      </trkpt>
      <trkpt lat="44.32647" lon="5.65525">
        <ele>863.7</ele>
        <time>2023-04-06T11:01:33Z</time>
      </trkpt>
      <trkpt lat="44.32647" lon="5.65525">
        <ele>863.7</ele>
        <time>2023-04-06T11:01:34Z</time>
      </trkpt>
      <trkpt lat="44.32647" lon="5.65525">
        <ele>863.7</ele>
        <time>2023-04-06T11:01:35Z</time>
      </trkpt>
      <trkpt lat="44.32649" lon="5.65526">
        <ele>863.7</ele>
        <time>2023-04-06T11:01:37Z</time>
      </trkpt>
      <trkpt lat="44.3265" lon="5.65527">
        <ele>863.6</ele>
        <time>2023-04-06T11:01:38Z</time>
      </trkpt>
      <trkpt lat="44.3265" lon="5.65527">
        <ele>863.6</ele>
        <time>2023-04-06T11:01:39Z</time>
      </trkpt>
      <trkpt lat="44.32651" lon="5.65527">
        <ele>863.6</ele>
        <time>2023-04-06T11:01:40Z</time>
      </trkpt>
      <trkpt lat="44.32651" lon="5.65528">
        <ele>863.6</ele>
        <time>2023-04-06T11:01:41Z</time>
      </trkpt>
      <trkpt lat="44.32651" lon="5.65528">
        <ele>863.6</ele>
        <time>2023-04-06T11:01:42Z</time>
      </trkpt>
      <trkpt lat="44.32652" lon="5.65528">
        <ele>863.6</ele>
        <time>2023-04-06T11:01:43Z</time>
      </trkpt>
      <trkpt lat="44.32652" lon="5.65529">
        <ele>863.6</ele>
        <time>2023-04-06T11:01:44Z</time>
      </trkpt>
      <trkpt lat="44.32652" lon="5.65529">
        <ele>863.6</ele>
        <time>2023-04-06T11:01:45Z</time>
      </trkpt>
      <trkpt lat="44.32652" lon="5.65529">
        <ele>863.6</ele>
        <time>2023-04-06T11:01:46Z</time>
      </trkpt>
      <trkpt lat="44.32652" lon="5.6553">
        <ele>863.6</ele>
        <time>2023-04-06T11:01:47Z</time>
      </trkpt>
      <trkpt lat="44.32652" lon="5.65532">
        <ele>863.5</ele>
        <time>2023-04-06T11:01:48Z</time>
      </trkpt>
      <trkpt lat="44.32649" lon="5.65536">
        <ele>863.5</ele>
        <time>2023-04-06T11:01:49Z</time>
      </trkpt>
      <trkpt lat="44.32648" lon="5.65538">
        <ele>863.4</ele>
        <time>2023-04-06T11:01:50Z</time>
      </trkpt>
      <trkpt lat="44.32646" lon="5.65541">
        <ele>863.4</ele>
        <time>2023-04-06T11:01:51Z</time>
      </trkpt>
      <trkpt lat="44.32642" lon="5.65547">
        <ele>863.3</ele>
        <time>2023-04-06T11:01:53Z</time>
      </trkpt>
      <trkpt lat="44.32638" lon="5.6555">
        <ele>863.2</ele>
        <time>2023-04-06T11:01:54Z</time>
      </trkpt>
      <trkpt lat="44.32634" lon="5.65554">
        <ele>863.1</ele>
        <time>2023-04-06T11:01:55Z</time>
      </trkpt>
      <trkpt lat="44.32629" lon="5.65557">
        <ele>863</ele>
        <time>2023-04-06T11:01:56Z</time>
      </trkpt>
      <trkpt lat="44.32623" lon="5.6556">
        <ele>862.8</ele>
        <time>2023-04-06T11:01:57Z</time>
      </trkpt>
      <trkpt lat="44.32616" lon="5.65564">
        <ele>862.4</ele>
        <time>2023-04-06T11:01:58Z</time>
      </trkpt>
      <trkpt lat="44.32611" lon="5.6557">
        <ele>862.1</ele>
        <time>2023-04-06T11:01:59Z</time>
      </trkpt>
      <trkpt lat="44.32607" lon="5.65575">
        <ele>861.7</ele>
        <time>2023-04-06T11:02:00Z</time>
      </trkpt>
      <trkpt lat="44.32602" lon="5.65578">
        <ele>861.4</ele>
        <time>2023-04-06T11:02:01Z</time>
      </trkpt>
      <trkpt lat="44.32597" lon="5.65581">
        <ele>861</ele>
        <time>2023-04-06T11:02:02Z</time>
      </trkpt>
      <trkpt lat="44.32593" lon="5.65584">
        <ele>860.6</ele>
        <time>2023-04-06T11:02:03Z</time>
      </trkpt>
      <trkpt lat="44.32589" lon="5.65587">
        <ele>860.3</ele>
        <time>2023-04-06T11:02:04Z</time>
      </trkpt>
      <trkpt lat="44.32585" lon="5.6559">
        <ele>860</ele>
        <time>2023-04-06T11:02:05Z</time>
      </trkpt>
      <trkpt lat="44.32582" lon="5.65593">
        <ele>859.7</ele>
        <time>2023-04-06T11:02:06Z</time>
      </trkpt>
      <trkpt lat="44.32579" lon="5.65595">
        <ele>859.4</ele>
        <time>2023-04-06T11:02:07Z</time>
      </trkpt>
      <trkpt lat="44.32576" lon="5.65596">
        <ele>859.1</ele>
        <time>2023-04-06T11:02:08Z</time>
      </trkpt>
      <trkpt lat="44.32572" lon="5.65598">
        <ele>858.8</ele>
        <time>2023-04-06T11:02:09Z</time>
      </trkpt>
      <trkpt lat="44.32568" lon="5.65599">
        <ele>858.5</ele>
        <time>2023-04-06T11:02:10Z</time>
      </trkpt>
      <trkpt lat="44.32566" lon="5.656">
        <ele>858.2</ele>
        <time>2023-04-06T11:02:11Z</time>
      </trkpt>
      <trkpt lat="44.32561" lon="5.65602">
        <ele>857.8</ele>
        <time>2023-04-06T11:02:12Z</time>
      </trkpt>
      <trkpt lat="44.3256" lon="5.65602">
        <ele>857.6</ele>
        <time>2023-04-06T11:02:13Z</time>
      </trkpt>
      <trkpt lat="44.32555" lon="5.65601">
        <ele>857</ele>
        <time>2023-04-06T11:02:14Z</time>
      </trkpt>
      <trkpt lat="44.3255" lon="5.65602">
        <ele>856.4</ele>
        <time>2023-04-06T11:02:15Z</time>
      </trkpt>
      <trkpt lat="44.32547" lon="5.65603">
        <ele>855.9</ele>
        <time>2023-04-06T11:02:16Z</time>
      </trkpt>
      <trkpt lat="44.32544" lon="5.65604">
        <ele>855.5</ele>
        <time>2023-04-06T11:02:17Z</time>
      </trkpt>
      <trkpt lat="44.32541" lon="5.65604">
        <ele>855.1</ele>
        <time>2023-04-06T11:02:18Z</time>
      </trkpt>
      <trkpt lat="44.32538" lon="5.65604">
        <ele>854.6</ele>
        <time>2023-04-06T11:02:19Z</time>
      </trkpt>
      <trkpt lat="44.32534" lon="5.65605">
        <ele>854.1</ele>
        <time>2023-04-06T11:02:20Z</time>
      </trkpt>
      <trkpt lat="44.32531" lon="5.65605">
        <ele>853.6</ele>
        <time>2023-04-06T11:02:21Z</time>
      </trkpt>
      <trkpt lat="44.32527" lon="5.65607">
        <ele>853.1</ele>
        <time>2023-04-06T11:02:22Z</time>
      </trkpt>
      <trkpt lat="44.32524" lon="5.65608">
        <ele>852.5</ele>
        <time>2023-04-06T11:02:23Z</time>
      </trkpt>
      <trkpt lat="44.3252" lon="5.65611">
        <ele>852</ele>
        <time>2023-04-06T11:02:24Z</time>
      </trkpt>
      <trkpt lat="44.32517" lon="5.65613">
        <ele>851.4</ele>
        <time>2023-04-06T11:02:25Z</time>
      </trkpt>
      <trkpt lat="44.32514" lon="5.65616">
        <ele>850.9</ele>
        <time>2023-04-06T11:02:26Z</time>
      </trkpt>
      <trkpt lat="44.32511" lon="5.6562">
        <ele>850.4</ele>
        <time>2023-04-06T11:02:27Z</time>
      </trkpt>
      <trkpt lat="44.32507" lon="5.65622">
        <ele>849.7</ele>
        <time>2023-04-06T11:02:28Z</time>
      </trkpt>
      <trkpt lat="44.32504" lon="5.65623">
        <ele>849.1</ele>
        <time>2023-04-06T11:02:29Z</time>
      </trkpt>
      <trkpt lat="44.32501" lon="5.65623">
        <ele>848.6</ele>
        <time>2023-04-06T11:02:30Z</time>
      </trkpt>
      <trkpt lat="44.32499" lon="5.6562">
        <ele>848</ele>
        <time>2023-04-06T11:02:31Z</time>
      </trkpt>
      <trkpt lat="44.32497" lon="5.65617">
        <ele>847.4</ele>
        <time>2023-04-06T11:02:32Z</time>
      </trkpt>
      <trkpt lat="44.32495" lon="5.65614">
        <ele>846.7</ele>
        <time>2023-04-06T11:02:33Z</time>
      </trkpt>
      <trkpt lat="44.32493" lon="5.6561">
        <ele>845.9</ele>
        <time>2023-04-06T11:02:34Z</time>
      </trkpt>
      <trkpt lat="44.32492" lon="5.65606">
        <ele>845.1</ele>
        <time>2023-04-06T11:02:35Z</time>
      </trkpt>
      <trkpt lat="44.3249" lon="5.65601">
        <ele>844.2</ele>
        <time>2023-04-06T11:02:36Z</time>
      </trkpt>
      <trkpt lat="44.32488" lon="5.65597">
        <ele>843.4</ele>
        <time>2023-04-06T11:02:37Z</time>
      </trkpt>
      <trkpt lat="44.32485" lon="5.65593">
        <ele>842.7</ele>
        <time>2023-04-06T11:02:38Z</time>
      </trkpt>
      <trkpt lat="44.32482" lon="5.65591">
        <ele>842</ele>
        <time>2023-04-06T11:02:39Z</time>
      </trkpt>
      <trkpt lat="44.32477" lon="5.65589">
        <ele>841.2</ele>
        <time>2023-04-06T11:02:40Z</time>
      </trkpt>
      <trkpt lat="44.32473" lon="5.65587">
        <ele>840.6</ele>
        <time>2023-04-06T11:02:41Z</time>
      </trkpt>
      <trkpt lat="44.32469" lon="5.65585">
        <ele>840.1</ele>
        <time>2023-04-06T11:02:42Z</time>
      </trkpt>
      <trkpt lat="44.32466" lon="5.65582">
        <ele>839.5</ele>
        <time>2023-04-06T11:02:43Z</time>
      </trkpt>
      <trkpt lat="44.32462" lon="5.6558">
        <ele>839.1</ele>
        <time>2023-04-06T11:02:44Z</time>
      </trkpt>
      <trkpt lat="44.32459" lon="5.65577">
        <ele>838.7</ele>
        <time>2023-04-06T11:02:45Z</time>
      </trkpt>
      <trkpt lat="44.32456" lon="5.65575">
        <ele>838.4</ele>
        <time>2023-04-06T11:02:46Z</time>
      </trkpt>
      <trkpt lat="44.32453" lon="5.65574">
        <ele>838.1</ele>
        <time>2023-04-06T11:02:47Z</time>
      </trkpt>
      <trkpt lat="44.3245" lon="5.65573">
        <ele>837.8</ele>
        <time>2023-04-06T11:02:48Z</time>
      </trkpt>
      <trkpt lat="44.32447" lon="5.65571">
        <ele>837.5</ele>
        <time>2023-04-06T11:02:49Z</time>
      </trkpt>
      <trkpt lat="44.32446" lon="5.6557">
        <ele>837.4</ele>
        <time>2023-04-06T11:02:50Z</time>
      </trkpt>
      <trkpt lat="44.32445" lon="5.65569">
        <ele>837.4</ele>
        <time>2023-04-06T11:02:51Z</time>
      </trkpt>
      <trkpt lat="44.32445" lon="5.65569">
        <ele>837.3</ele>
        <time>2023-04-06T11:02:52Z</time>
      </trkpt>
      <trkpt lat="44.32446" lon="5.65569">
        <ele>837.3</ele>
        <time>2023-04-06T11:02:53Z</time>
      </trkpt>
      <trkpt lat="44.32446" lon="5.65569">
        <ele>837.2</ele>
        <time>2023-04-06T11:02:54Z</time>
      </trkpt>
      <trkpt lat="44.32446" lon="5.65569">
        <ele>837.2</ele>
        <time>2023-04-06T11:02:55Z</time>
      </trkpt>
      <trkpt lat="44.32445" lon="5.65568">
        <ele>837.1</ele>
        <time>2023-04-06T11:02:56Z</time>
      </trkpt>
      <trkpt lat="44.32445" lon="5.65567">
        <ele>837.1</ele>
        <time>2023-04-06T11:02:57Z</time>
      </trkpt>
      <trkpt lat="44.32445" lon="5.65567">
        <ele>837.1</ele>
        <time>2023-04-06T11:02:58Z</time>
      </trkpt>
      <trkpt lat="44.32445" lon="5.65567">
        <ele>837.1</ele>
        <time>2023-04-06T11:02:59Z</time>
      </trkpt>
      <trkpt lat="44.32445" lon="5.65567">
        <ele>837.1</ele>
        <time>2023-04-06T11:03:00Z</time>
      </trkpt>
      <trkpt lat="44.32444" lon="5.65566">
        <ele>837</ele>
        <time>2023-04-06T11:03:01Z</time>
      </trkpt>
      <trkpt lat="44.32444" lon="5.65564">
        <ele>836.9</ele>
        <time>2023-04-06T11:03:02Z</time>
      </trkpt>
      <trkpt lat="44.32444" lon="5.65563">
        <ele>836.8</ele>
        <time>2023-04-06T11:03:03Z</time>
      </trkpt>
      <trkpt lat="44.32443" lon="5.65563">
        <ele>836.8</ele>
        <time>2023-04-06T11:03:04Z</time>
      </trkpt>
      <trkpt lat="44.32443" lon="5.65562">
        <ele>836.7</ele>
        <time>2023-04-06T11:03:05Z</time>
      </trkpt>
      <trkpt lat="44.32443" lon="5.65562">
        <ele>836.7</ele>
        <time>2023-04-06T11:03:06Z</time>
      </trkpt>
      <trkpt lat="44.32443" lon="5.65562">
        <ele>836.7</ele>
        <time>2023-04-06T11:03:07Z</time>
      </trkpt>
      <trkpt lat="44.32443" lon="5.65562">
        <ele>836.7</ele>
        <time>2023-04-06T11:03:08Z</time>
      </trkpt>
      <trkpt lat="44.32443" lon="5.65563">
        <ele>836.6</ele>
        <time>2023-04-06T11:03:09Z</time>
      </trkpt>
      <trkpt lat="44.32443" lon="5.65563">
        <ele>836.6</ele>
        <time>2023-04-06T11:03:10Z</time>
      </trkpt>
      <trkpt lat="44.32443" lon="5.65564">
        <ele>836.6</ele>
        <time>2023-04-06T11:03:11Z</time>
      </trkpt>
      <trkpt lat="44.32444" lon="5.65565">
        <ele>836.5</ele>
        <time>2023-04-06T11:03:12Z</time>
      </trkpt>
      <trkpt lat="44.32444" lon="5.65566">
        <ele>836.4</ele>
        <time>2023-04-06T11:03:13Z</time>
      </trkpt>
      <trkpt lat="44.32445" lon="5.65567">
        <ele>836.4</ele>
        <time>2023-04-06T11:03:14Z</time>
      </trkpt>
      <trkpt lat="44.32445" lon="5.65567">
        <ele>836.3</ele>
        <time>2023-04-06T11:03:15Z</time>
      </trkpt>
      <trkpt lat="44.32445" lon="5.65568">
        <ele>836.2</ele>
        <time>2023-04-06T11:03:16Z</time>
      </trkpt>
      <trkpt lat="44.32445" lon="5.65569">
        <ele>836.2</ele>
        <time>2023-04-06T11:03:17Z</time>
      </trkpt>
      <trkpt lat="44.32445" lon="5.65567">
        <ele>836.2</ele>
        <time>2023-04-06T11:03:18Z</time>
      </trkpt>
      <trkpt lat="44.32445" lon="5.65566">
        <ele>836.1</ele>
        <time>2023-04-06T11:03:19Z</time>
      </trkpt>
      <trkpt lat="44.32444" lon="5.65565">
        <ele>836</ele>
        <time>2023-04-06T11:03:20Z</time>
      </trkpt>
      <trkpt lat="44.32444" lon="5.65565">
        <ele>836</ele>
        <time>2023-04-06T11:03:21Z</time>
      </trkpt>
      <trkpt lat="44.32444" lon="5.65565">
        <ele>835.9</ele>
        <time>2023-04-06T11:03:22Z</time>
      </trkpt>
      <trkpt lat="44.32444" lon="5.65564">
        <ele>835.9</ele>
        <time>2023-04-06T11:03:24Z</time>
      </trkpt>
      <trkpt lat="44.32444" lon="5.65564">
        <ele>835.9</ele>
        <time>2023-04-06T11:03:25Z</time>
      </trkpt>
      <trkpt lat="44.32443" lon="5.65564">
        <ele>835.9</ele>
        <time>2023-04-06T11:03:26Z</time>
      </trkpt>
      <trkpt lat="44.32443" lon="5.65563">
        <ele>835.8</ele>
        <time>2023-04-06T11:03:27Z</time>
      </trkpt>
      <trkpt lat="44.3244" lon="5.65561">
        <ele>835.5</ele>
        <time>2023-04-06T11:03:30Z</time>
      </trkpt>
      <trkpt lat="44.32439" lon="5.6556">
        <ele>835.4</ele>
        <time>2023-04-06T11:03:31Z</time>
      </trkpt>
      <trkpt lat="44.32438" lon="5.65559">
        <ele>835.4</ele>
        <time>2023-04-06T11:03:32Z</time>
      </trkpt>
      <trkpt lat="44.32437" lon="5.65558">
        <ele>835.2</ele>
        <time>2023-04-06T11:03:33Z</time>
      </trkpt>
      <trkpt lat="44.32434" lon="5.6556">
        <ele>834.9</ele>
        <time>2023-04-06T11:03:35Z</time>
      </trkpt>
      <trkpt lat="44.32432" lon="5.65562">
        <ele>834.7</ele>
        <time>2023-04-06T11:03:36Z</time>
      </trkpt>
      <trkpt lat="44.3243" lon="5.65564">
        <ele>834.5</ele>
        <time>2023-04-06T11:03:37Z</time>
      </trkpt>
      <trkpt lat="44.32427" lon="5.65567">
        <ele>834.2</ele>
        <time>2023-04-06T11:03:38Z</time>
      </trkpt>
      <trkpt lat="44.32425" lon="5.6557">
        <ele>833.9</ele>
        <time>2023-04-06T11:03:39Z</time>
      </trkpt>
      <trkpt lat="44.32423" lon="5.65575">
        <ele>833.6</ele>
        <time>2023-04-06T11:03:40Z</time>
      </trkpt>
      <trkpt lat="44.3242" lon="5.6558">
        <ele>833.3</ele>
        <time>2023-04-06T11:03:41Z</time>
      </trkpt>
      <trkpt lat="44.32417" lon="5.65585">
        <ele>833</ele>
        <time>2023-04-06T11:03:42Z</time>
      </trkpt>
      <trkpt lat="44.32415" lon="5.6559">
        <ele>832.6</ele>
        <time>2023-04-06T11:03:43Z</time>
      </trkpt>
      <trkpt lat="44.32412" lon="5.65594">
        <ele>832.2</ele>
        <time>2023-04-06T11:03:44Z</time>
      </trkpt>
      <trkpt lat="44.32409" lon="5.65605">
        <ele>831.4</ele>
        <time>2023-04-06T11:03:46Z</time>
      </trkpt>
      <trkpt lat="44.32409" lon="5.65611">
        <ele>830.9</ele>
        <time>2023-04-06T11:03:47Z</time>
      </trkpt>
      <trkpt lat="44.32408" lon="5.65616">
        <ele>830.4</ele>
        <time>2023-04-06T11:03:48Z</time>
      </trkpt>
      <trkpt lat="44.32405" lon="5.65618">
        <ele>830</ele>
        <time>2023-04-06T11:03:49Z</time>
      </trkpt>
      <trkpt lat="44.32403" lon="5.65618">
        <ele>829.8</ele>
        <time>2023-04-06T11:03:50Z</time>
      </trkpt>
      <trkpt lat="44.32401" lon="5.65615">
        <ele>829.4</ele>
        <time>2023-04-06T11:03:51Z</time>
      </trkpt>
      <trkpt lat="44.32398" lon="5.6561">
        <ele>828.8</ele>
        <time>2023-04-06T11:03:52Z</time>
      </trkpt>
      <trkpt lat="44.32395" lon="5.65606">
        <ele>828.2</ele>
        <time>2023-04-06T11:03:53Z</time>
      </trkpt>
      <trkpt lat="44.32392" lon="5.65602">
        <ele>827.6</ele>
        <time>2023-04-06T11:03:54Z</time>
      </trkpt>
      <trkpt lat="44.32389" lon="5.65598">
        <ele>827</ele>
        <time>2023-04-06T11:03:55Z</time>
      </trkpt>
      <trkpt lat="44.3238" lon="5.65587">
        <ele>825.7</ele>
        <time>2023-04-06T11:03:57Z</time>
      </trkpt>
      <trkpt lat="44.32378" lon="5.65581">
        <ele>825.1</ele>
        <time>2023-04-06T11:03:58Z</time>
      </trkpt>
      <trkpt lat="44.32376" lon="5.65574">
        <ele>824.6</ele>
        <time>2023-04-06T11:03:59Z</time>
      </trkpt>
      <trkpt lat="44.32375" lon="5.65567">
        <ele>824</ele>
        <time>2023-04-06T11:04:00Z</time>
      </trkpt>
      <trkpt lat="44.32374" lon="5.65559">
        <ele>823.5</ele>
        <time>2023-04-06T11:04:01Z</time>
      </trkpt>
      <trkpt lat="44.32373" lon="5.65544">
        <ele>822.4</ele>
        <time>2023-04-06T11:04:03Z</time>
      </trkpt>
      <trkpt lat="44.3237" lon="5.65536">
        <ele>821.8</ele>
        <time>2023-04-06T11:04:04Z</time>
      </trkpt>
      <trkpt lat="44.32368" lon="5.65528">
        <ele>821.2</ele>
        <time>2023-04-06T11:04:05Z</time>
      </trkpt>
      <trkpt lat="44.32365" lon="5.65521">
        <ele>820.6</ele>
        <time>2023-04-06T11:04:06Z</time>
      </trkpt>
      <trkpt lat="44.32364" lon="5.65513">
        <ele>820.2</ele>
        <time>2023-04-06T11:04:07Z</time>
      </trkpt>
      <trkpt lat="44.32363" lon="5.655">
        <ele>819.3</ele>
        <time>2023-04-06T11:04:09Z</time>
      </trkpt>
      <trkpt lat="44.32362" lon="5.65495">
        <ele>819</ele>
        <time>2023-04-06T11:04:10Z</time>
      </trkpt>
      <trkpt lat="44.32361" lon="5.6549">
        <ele>818.7</ele>
        <time>2023-04-06T11:04:11Z</time>
      </trkpt>
      <trkpt lat="44.32356" lon="5.65485">
        <ele>818.2</ele>
        <time>2023-04-06T11:04:12Z</time>
      </trkpt>
      <trkpt lat="44.32352" lon="5.6548">
        <ele>817.7</ele>
        <time>2023-04-06T11:04:13Z</time>
      </trkpt>
      <trkpt lat="44.32347" lon="5.65476">
        <ele>817.3</ele>
        <time>2023-04-06T11:04:14Z</time>
      </trkpt>
      <trkpt lat="44.32343" lon="5.65471">
        <ele>816.9</ele>
        <time>2023-04-06T11:04:15Z</time>
      </trkpt>
      <trkpt lat="44.32338" lon="5.65467">
        <ele>816.5</ele>
        <time>2023-04-06T11:04:16Z</time>
      </trkpt>
      <trkpt lat="44.32333" lon="5.65462">
        <ele>816</ele>
        <time>2023-04-06T11:04:17Z</time>
      </trkpt>
      <trkpt lat="44.32328" lon="5.65458">
        <ele>815.5</ele>
        <time>2023-04-06T11:04:18Z</time>
      </trkpt>
      <trkpt lat="44.32323" lon="5.65454">
        <ele>814.9</ele>
        <time>2023-04-06T11:04:19Z</time>
      </trkpt>
      <trkpt lat="44.32317" lon="5.6545">
        <ele>814.4</ele>
        <time>2023-04-06T11:04:20Z</time>
      </trkpt>
      <trkpt lat="44.32312" lon="5.65446">
        <ele>813.9</ele>
        <time>2023-04-06T11:04:21Z</time>
      </trkpt>
      <trkpt lat="44.32307" lon="5.65442">
        <ele>813.3</ele>
        <time>2023-04-06T11:04:22Z</time>
      </trkpt>
      <trkpt lat="44.32301" lon="5.65437">
        <ele>812.7</ele>
        <time>2023-04-06T11:04:23Z</time>
      </trkpt>
      <trkpt lat="44.3229" lon="5.65425">
        <ele>811.7</ele>
        <time>2023-04-06T11:04:25Z</time>
      </trkpt>
      <trkpt lat="44.32285" lon="5.65419">
        <ele>811.2</ele>
        <time>2023-04-06T11:04:26Z</time>
      </trkpt>
      <trkpt lat="44.3228" lon="5.65414">
        <ele>810.8</ele>
        <time>2023-04-06T11:04:27Z</time>
      </trkpt>
      <trkpt lat="44.32275" lon="5.65408">
        <ele>810.4</ele>
        <time>2023-04-06T11:04:28Z</time>
      </trkpt>
      <trkpt lat="44.3227" lon="5.65402">
        <ele>810.1</ele>
        <time>2023-04-06T11:04:29Z</time>
      </trkpt>
      <trkpt lat="44.32259" lon="5.65391">
        <ele>809.6</ele>
        <time>2023-04-06T11:04:31Z</time>
      </trkpt>
      <trkpt lat="44.32254" lon="5.65387">
        <ele>809.2</ele>
        <time>2023-04-06T11:04:32Z</time>
      </trkpt>
      <trkpt lat="44.32248" lon="5.65385">
        <ele>808.8</ele>
        <time>2023-04-06T11:04:33Z</time>
      </trkpt>
      <trkpt lat="44.32244" lon="5.65383">
        <ele>808.5</ele>
        <time>2023-04-06T11:04:34Z</time>
      </trkpt>
      <trkpt lat="44.32239" lon="5.65382">
        <ele>808.1</ele>
        <time>2023-04-06T11:04:35Z</time>
      </trkpt>
      <trkpt lat="44.32232" lon="5.65377">
        <ele>807.2</ele>
        <time>2023-04-06T11:04:37Z</time>
      </trkpt>
      <trkpt lat="44.32227" lon="5.65374">
        <ele>806.6</ele>
        <time>2023-04-06T11:04:38Z</time>
      </trkpt>
      <trkpt lat="44.32221" lon="5.65372">
        <ele>805.8</ele>
        <time>2023-04-06T11:04:39Z</time>
      </trkpt>
      <trkpt lat="44.32214" lon="5.65369">
        <ele>804.8</ele>
        <time>2023-04-06T11:04:40Z</time>
      </trkpt>
      <trkpt lat="44.32206" lon="5.65367">
        <ele>803.7</ele>
        <time>2023-04-06T11:04:41Z</time>
      </trkpt>
      <trkpt lat="44.32193" lon="5.65364">
        <ele>801.8</ele>
        <time>2023-04-06T11:04:43Z</time>
      </trkpt>
      <trkpt lat="44.32186" lon="5.65361">
        <ele>801.1</ele>
        <time>2023-04-06T11:04:44Z</time>
      </trkpt>
      <trkpt lat="44.3218" lon="5.65358">
        <ele>800.4</ele>
        <time>2023-04-06T11:04:45Z</time>
      </trkpt>
      <trkpt lat="44.32174" lon="5.65355">
        <ele>799.7</ele>
        <time>2023-04-06T11:04:46Z</time>
      </trkpt>
      <trkpt lat="44.32169" lon="5.65353">
        <ele>799.1</ele>
        <time>2023-04-06T11:04:47Z</time>
      </trkpt>
      <trkpt lat="44.32163" lon="5.65351">
        <ele>798.5</ele>
        <time>2023-04-06T11:04:48Z</time>
      </trkpt>
      <trkpt lat="44.32158" lon="5.6535">
        <ele>797.9</ele>
        <time>2023-04-06T11:04:49Z</time>
      </trkpt>
      <trkpt lat="44.32153" lon="5.65349">
        <ele>797.3</ele>
        <time>2023-04-06T11:04:50Z</time>
      </trkpt>
      <trkpt lat="44.32147" lon="5.65348">
        <ele>796.7</ele>
        <time>2023-04-06T11:04:51Z</time>
      </trkpt>
      <trkpt lat="44.32143" lon="5.65345">
        <ele>796.1</ele>
        <time>2023-04-06T11:04:52Z</time>
      </trkpt>
      <trkpt lat="44.32141" lon="5.65333">
        <ele>794.8</ele>
        <time>2023-04-06T11:04:54Z</time>
      </trkpt>
      <trkpt lat="44.3214" lon="5.65326">
        <ele>793.9</ele>
        <time>2023-04-06T11:04:55Z</time>
      </trkpt>
      <trkpt lat="44.3214" lon="5.6532">
        <ele>793.2</ele>
        <time>2023-04-06T11:04:56Z</time>
      </trkpt>
      <trkpt lat="44.32138" lon="5.65316">
        <ele>792.6</ele>
        <time>2023-04-06T11:04:57Z</time>
      </trkpt>
      <trkpt lat="44.32136" lon="5.65316">
        <ele>792.1</ele>
        <time>2023-04-06T11:04:58Z</time>
      </trkpt>
      <trkpt lat="44.32132" lon="5.65315">
        <ele>791.5</ele>
        <time>2023-04-06T11:04:59Z</time>
      </trkpt>
      <trkpt lat="44.32129" lon="5.65315">
        <ele>791</ele>
        <time>2023-04-06T11:05:00Z</time>
      </trkpt>
      <trkpt lat="44.32125" lon="5.65317">
        <ele>790.4</ele>
        <time>2023-04-06T11:05:01Z</time>
      </trkpt>
      <trkpt lat="44.32121" lon="5.6532">
        <ele>789.7</ele>
        <time>2023-04-06T11:05:02Z</time>
      </trkpt>
      <trkpt lat="44.32116" lon="5.65323">
        <ele>789</ele>
        <time>2023-04-06T11:05:03Z</time>
      </trkpt>
      <trkpt lat="44.32111" lon="5.65326">
        <ele>788.4</ele>
        <time>2023-04-06T11:05:04Z</time>
      </trkpt>
      <trkpt lat="44.32106" lon="5.65327">
        <ele>787.8</ele>
        <time>2023-04-06T11:05:05Z</time>
      </trkpt>
      <trkpt lat="44.32102" lon="5.65326">
        <ele>787.2</ele>
        <time>2023-04-06T11:05:06Z</time>
      </trkpt>
      <trkpt lat="44.32098" lon="5.65322">
        <ele>786.6</ele>
        <time>2023-04-06T11:05:07Z</time>
      </trkpt>
      <trkpt lat="44.32094" lon="5.65318">
        <ele>785.8</ele>
        <time>2023-04-06T11:05:08Z</time>
      </trkpt>
      <trkpt lat="44.32085" lon="5.65307">
        <ele>784.2</ele>
        <time>2023-04-06T11:05:10Z</time>
      </trkpt>
      <trkpt lat="44.32082" lon="5.65302">
        <ele>783.5</ele>
        <time>2023-04-06T11:05:11Z</time>
      </trkpt>
      <trkpt lat="44.32079" lon="5.65296">
        <ele>782.9</ele>
        <time>2023-04-06T11:05:12Z</time>
      </trkpt>
      <trkpt lat="44.32077" lon="5.65291">
        <ele>782.4</ele>
        <time>2023-04-06T11:05:13Z</time>
      </trkpt>
      <trkpt lat="44.32077" lon="5.65285">
        <ele>782</ele>
        <time>2023-04-06T11:05:14Z</time>
      </trkpt>
      <trkpt lat="44.3208" lon="5.65274">
        <ele>781</ele>
        <time>2023-04-06T11:05:16Z</time>
      </trkpt>
      <trkpt lat="44.32083" lon="5.6527">
        <ele>780.5</ele>
        <time>2023-04-06T11:05:17Z</time>
      </trkpt>
      <trkpt lat="44.32085" lon="5.65266">
        <ele>780</ele>
        <time>2023-04-06T11:05:18Z</time>
      </trkpt>
      <trkpt lat="44.32086" lon="5.65262">
        <ele>779.5</ele>
        <time>2023-04-06T11:05:19Z</time>
      </trkpt>
      <trkpt lat="44.32084" lon="5.65258">
        <ele>779</ele>
        <time>2023-04-06T11:05:20Z</time>
      </trkpt>
      <trkpt lat="44.3208" lon="5.65257">
        <ele>778.1</ele>
        <time>2023-04-06T11:05:21Z</time>
      </trkpt>
      <trkpt lat="44.32074" lon="5.65256">
        <ele>777</ele>
        <time>2023-04-06T11:05:22Z</time>
      </trkpt>
      <trkpt lat="44.32068" lon="5.65256">
        <ele>775.8</ele>
        <time>2023-04-06T11:05:23Z</time>
      </trkpt>
      <trkpt lat="44.32062" lon="5.65258">
        <ele>774.7</ele>
        <time>2023-04-06T11:05:24Z</time>
      </trkpt>
      <trkpt lat="44.32057" lon="5.65261">
        <ele>773.8</ele>
        <time>2023-04-06T11:05:25Z</time>
      </trkpt>
      <trkpt lat="44.32052" lon="5.65267">
        <ele>773</ele>
        <time>2023-04-06T11:05:26Z</time>
      </trkpt>
      <trkpt lat="44.32048" lon="5.65274">
        <ele>772.1</ele>
        <time>2023-04-06T11:05:27Z</time>
      </trkpt>
      <trkpt lat="44.32044" lon="5.65282">
        <ele>771.3</ele>
        <time>2023-04-06T11:05:28Z</time>
      </trkpt>
      <trkpt lat="44.32041" lon="5.6529">
        <ele>770.6</ele>
        <time>2023-04-06T11:05:29Z</time>
      </trkpt>
      <trkpt lat="44.32038" lon="5.65298">
        <ele>769.9</ele>
        <time>2023-04-06T11:05:30Z</time>
      </trkpt>
      <trkpt lat="44.32037" lon="5.65314">
        <ele>768.7</ele>
        <time>2023-04-06T11:05:32Z</time>
      </trkpt>
      <trkpt lat="44.32039" lon="5.65321">
        <ele>768.1</ele>
        <time>2023-04-06T11:05:33Z</time>
      </trkpt>
      <trkpt lat="44.32043" lon="5.65326">
        <ele>767.5</ele>
        <time>2023-04-06T11:05:34Z</time>
      </trkpt>
      <trkpt lat="44.32047" lon="5.65332">
        <ele>766.8</ele>
        <time>2023-04-06T11:05:35Z</time>
      </trkpt>
      <trkpt lat="44.32051" lon="5.65339">
        <ele>766.2</ele>
        <time>2023-04-06T11:05:36Z</time>
      </trkpt>
      <trkpt lat="44.32055" lon="5.65345">
        <ele>765.6</ele>
        <time>2023-04-06T11:05:37Z</time>
      </trkpt>
      <trkpt lat="44.32058" lon="5.65352">
        <ele>765.2</ele>
        <time>2023-04-06T11:05:38Z</time>
      </trkpt>
      <trkpt lat="44.3206" lon="5.65358">
        <ele>764.8</ele>
        <time>2023-04-06T11:05:39Z</time>
      </trkpt>
      <trkpt lat="44.32062" lon="5.65364">
        <ele>764.5</ele>
        <time>2023-04-06T11:05:40Z</time>
      </trkpt>
      <trkpt lat="44.32064" lon="5.6537">
        <ele>764.2</ele>
        <time>2023-04-06T11:05:41Z</time>
      </trkpt>
      <trkpt lat="44.32063" lon="5.6538">
        <ele>763.7</ele>
        <time>2023-04-06T11:05:43Z</time>
      </trkpt>
      <trkpt lat="44.32061" lon="5.65383">
        <ele>763.4</ele>
        <time>2023-04-06T11:05:44Z</time>
      </trkpt>
      <trkpt lat="44.32059" lon="5.65386">
        <ele>763.1</ele>
        <time>2023-04-06T11:05:45Z</time>
      </trkpt>
      <trkpt lat="44.32056" lon="5.65385">
        <ele>762.8</ele>
        <time>2023-04-06T11:05:46Z</time>
      </trkpt>
      <trkpt lat="44.32053" lon="5.65383">
        <ele>762.4</ele>
        <time>2023-04-06T11:05:47Z</time>
      </trkpt>
      <trkpt lat="44.32052" lon="5.65382">
        <ele>762.2</ele>
        <time>2023-04-06T11:05:48Z</time>
      </trkpt>
      <trkpt lat="44.32051" lon="5.65378">
        <ele>761.9</ele>
        <time>2023-04-06T11:05:49Z</time>
      </trkpt>
      <trkpt lat="44.32049" lon="5.65375">
        <ele>761.5</ele>
        <time>2023-04-06T11:05:50Z</time>
      </trkpt>
      <trkpt lat="44.32047" lon="5.65371">
        <ele>761.1</ele>
        <time>2023-04-06T11:05:51Z</time>
      </trkpt>
      <trkpt lat="44.32045" lon="5.65367">
        <ele>760.7</ele>
        <time>2023-04-06T11:05:52Z</time>
      </trkpt>
      <trkpt lat="44.32042" lon="5.65363">
        <ele>760.3</ele>
        <time>2023-04-06T11:05:53Z</time>
      </trkpt>
      <trkpt lat="44.32039" lon="5.65361">
        <ele>760</ele>
        <time>2023-04-06T11:05:54Z</time>
      </trkpt>
      <trkpt lat="44.32036" lon="5.65358">
        <ele>759.6</ele>
        <time>2023-04-06T11:05:55Z</time>
      </trkpt>
      <trkpt lat="44.3203" lon="5.65355">
        <ele>759.1</ele>
        <time>2023-04-06T11:05:56Z</time>
      </trkpt>
      <trkpt lat="44.32024" lon="5.65352">
        <ele>758.5</ele>
        <time>2023-04-06T11:05:57Z</time>
      </trkpt>
      <trkpt lat="44.32017" lon="5.65348">
        <ele>757.9</ele>
        <time>2023-04-06T11:05:58Z</time>
      </trkpt>
      <trkpt lat="44.32012" lon="5.65343">
        <ele>757.4</ele>
        <time>2023-04-06T11:05:59Z</time>
      </trkpt>
      <trkpt lat="44.32008" lon="5.65336">
        <ele>757</ele>
        <time>2023-04-06T11:06:00Z</time>
      </trkpt>
      <trkpt lat="44.32005" lon="5.6533">
        <ele>756.6</ele>
        <time>2023-04-06T11:06:01Z</time>
      </trkpt>
      <trkpt lat="44.32002" lon="5.65323">
        <ele>756.2</ele>
        <time>2023-04-06T11:06:02Z</time>
      </trkpt>
      <trkpt lat="44.31999" lon="5.65317">
        <ele>755.8</ele>
        <time>2023-04-06T11:06:03Z</time>
      </trkpt>
      <trkpt lat="44.31996" lon="5.6531">
        <ele>755.2</ele>
        <time>2023-04-06T11:06:04Z</time>
      </trkpt>
      <trkpt lat="44.31993" lon="5.65304">
        <ele>754.6</ele>
        <time>2023-04-06T11:06:05Z</time>
      </trkpt>
      <trkpt lat="44.31989" lon="5.65298">
        <ele>754</ele>
        <time>2023-04-06T11:06:06Z</time>
      </trkpt>
      <trkpt lat="44.31983" lon="5.65292">
        <ele>753.2</ele>
        <time>2023-04-06T11:06:07Z</time>
      </trkpt>
      <trkpt lat="44.31975" lon="5.65288">
        <ele>752.3</ele>
        <time>2023-04-06T11:06:08Z</time>
      </trkpt>
      <trkpt lat="44.31966" lon="5.65286">
        <ele>751.4</ele>
        <time>2023-04-06T11:06:09Z</time>
      </trkpt>
      <trkpt lat="44.31957" lon="5.65286">
        <ele>750.3</ele>
        <time>2023-04-06T11:06:10Z</time>
      </trkpt>
      <trkpt lat="44.31947" lon="5.65286">
        <ele>749.3</ele>
        <time>2023-04-06T11:06:11Z</time>
      </trkpt>
      <trkpt lat="44.31938" lon="5.65287">
        <ele>748.5</ele>
        <time>2023-04-06T11:06:12Z</time>
      </trkpt>
      <trkpt lat="44.31929" lon="5.6529">
        <ele>747.8</ele>
        <time>2023-04-06T11:06:13Z</time>
      </trkpt>
      <trkpt lat="44.31921" lon="5.65294">
        <ele>747.2</ele>
        <time>2023-04-06T11:06:14Z</time>
      </trkpt>
      <trkpt lat="44.31914" lon="5.65297">
        <ele>746.7</ele>
        <time>2023-04-06T11:06:15Z</time>
      </trkpt>
      <trkpt lat="44.31906" lon="5.653">
        <ele>746.2</ele>
        <time>2023-04-06T11:06:16Z</time>
      </trkpt>
      <trkpt lat="44.31899" lon="5.65302">
        <ele>745.7</ele>
        <time>2023-04-06T11:06:17Z</time>
      </trkpt>
      <trkpt lat="44.31891" lon="5.653">
        <ele>745.2</ele>
        <time>2023-04-06T11:06:18Z</time>
      </trkpt>
      <trkpt lat="44.31883" lon="5.65297">
        <ele>744.7</ele>
        <time>2023-04-06T11:06:19Z</time>
      </trkpt>
      <trkpt lat="44.31874" lon="5.65293">
        <ele>744.1</ele>
        <time>2023-04-06T11:06:20Z</time>
      </trkpt>
      <trkpt lat="44.31866" lon="5.65288">
        <ele>743.5</ele>
        <time>2023-04-06T11:06:21Z</time>
      </trkpt>
      <trkpt lat="44.31858" lon="5.65285">
        <ele>743</ele>
        <time>2023-04-06T11:06:22Z</time>
      </trkpt>
      <trkpt lat="44.3185" lon="5.65282">
        <ele>742.5</ele>
        <time>2023-04-06T11:06:23Z</time>
      </trkpt>
      <trkpt lat="44.31842" lon="5.6528">
        <ele>742.1</ele>
        <time>2023-04-06T11:06:24Z</time>
      </trkpt>
      <trkpt lat="44.31834" lon="5.65278">
        <ele>741.8</ele>
        <time>2023-04-06T11:06:25Z</time>
      </trkpt>
      <trkpt lat="44.31827" lon="5.65278">
        <ele>741.6</ele>
        <time>2023-04-06T11:06:26Z</time>
      </trkpt>
      <trkpt lat="44.3182" lon="5.65278">
        <ele>741.4</ele>
        <time>2023-04-06T11:06:27Z</time>
      </trkpt>
      <trkpt lat="44.31814" lon="5.65277">
        <ele>741.3</ele>
        <time>2023-04-06T11:06:28Z</time>
      </trkpt>
      <trkpt lat="44.3181" lon="5.65277">
        <ele>741.2</ele>
        <time>2023-04-06T11:06:29Z</time>
      </trkpt>
      <trkpt lat="44.31807" lon="5.65277">
        <ele>741.1</ele>
        <time>2023-04-06T11:06:30Z</time>
      </trkpt>
      <trkpt lat="44.31804" lon="5.65275">
        <ele>740.9</ele>
        <time>2023-04-06T11:06:31Z</time>
      </trkpt>
      <trkpt lat="44.31804" lon="5.6527">
        <ele>740.6</ele>
        <time>2023-04-06T11:06:32Z</time>
      </trkpt>
      <trkpt lat="44.31805" lon="5.65265">
        <ele>740.6</ele>
        <time>2023-04-06T11:06:33Z</time>
      </trkpt>
      <trkpt lat="44.31807" lon="5.65259">
        <ele>740.6</ele>
        <time>2023-04-06T11:06:34Z</time>
      </trkpt>
      <trkpt lat="44.31809" lon="5.65254">
        <ele>740.6</ele>
        <time>2023-04-06T11:06:35Z</time>
      </trkpt>
      <trkpt lat="44.31812" lon="5.65249">
        <ele>740.6</ele>
        <time>2023-04-06T11:06:36Z</time>
      </trkpt>
      <trkpt lat="44.31815" lon="5.65244">
        <ele>740.6</ele>
        <time>2023-04-06T11:06:37Z</time>
      </trkpt>
      <trkpt lat="44.31817" lon="5.65241">
        <ele>740.6</ele>
        <time>2023-04-06T11:06:38Z</time>
      </trkpt>
      <trkpt lat="44.3182" lon="5.65237">
        <ele>740.7</ele>
        <time>2023-04-06T11:06:39Z</time>
      </trkpt>
      <trkpt lat="44.31823" lon="5.65232">
        <ele>740.7</ele>
        <time>2023-04-06T11:06:40Z</time>
      </trkpt>
      <trkpt lat="44.31826" lon="5.65228">
        <ele>740.8</ele>
        <time>2023-04-06T11:06:41Z</time>
      </trkpt>
      <trkpt lat="44.3183" lon="5.65224">
        <ele>740.8</ele>
        <time>2023-04-06T11:06:42Z</time>
      </trkpt>
      <trkpt lat="44.31833" lon="5.6522">
        <ele>740.8</ele>
        <time>2023-04-06T11:06:43Z</time>
      </trkpt>
      <trkpt lat="44.31836" lon="5.65217">
        <ele>740.9</ele>
        <time>2023-04-06T11:06:44Z</time>
      </trkpt>
      <trkpt lat="44.31838" lon="5.65213">
        <ele>740.9</ele>
        <time>2023-04-06T11:06:45Z</time>
      </trkpt>
      <trkpt lat="44.31841" lon="5.65209">
        <ele>740.9</ele>
        <time>2023-04-06T11:06:46Z</time>
      </trkpt>
      <trkpt lat="44.31844" lon="5.65205">
        <ele>741</ele>
        <time>2023-04-06T11:06:47Z</time>
      </trkpt>
      <trkpt lat="44.31847" lon="5.652">
        <ele>741</ele>
        <time>2023-04-06T11:06:48Z</time>
      </trkpt>
      <trkpt lat="44.3185" lon="5.65196">
        <ele>741</ele>
        <time>2023-04-06T11:06:49Z</time>
      </trkpt>
      <trkpt lat="44.31853" lon="5.65192">
        <ele>741</ele>
        <time>2023-04-06T11:06:50Z</time>
      </trkpt>
      <trkpt lat="44.31856" lon="5.65188">
        <ele>741.1</ele>
        <time>2023-04-06T11:06:51Z</time>
      </trkpt>
      <trkpt lat="44.3186" lon="5.65184">
        <ele>741.1</ele>
        <time>2023-04-06T11:06:52Z</time>
      </trkpt>
      <trkpt lat="44.31866" lon="5.65175">
        <ele>741.1</ele>
        <time>2023-04-06T11:06:54Z</time>
      </trkpt>
      <trkpt lat="44.31869" lon="5.65171">
        <ele>741.2</ele>
        <time>2023-04-06T11:06:55Z</time>
      </trkpt>
      <trkpt lat="44.31872" lon="5.65167">
        <ele>741.2</ele>
        <time>2023-04-06T11:06:56Z</time>
      </trkpt>
      <trkpt lat="44.31875" lon="5.65163">
        <ele>741.2</ele>
        <time>2023-04-06T11:06:57Z</time>
      </trkpt>
      <trkpt lat="44.31878" lon="5.65159">
        <ele>741.3</ele>
        <time>2023-04-06T11:06:58Z</time>
      </trkpt>
      <trkpt lat="44.31881" lon="5.65155">
        <ele>741.3</ele>
        <time>2023-04-06T11:06:59Z</time>
      </trkpt>
      <trkpt lat="44.31884" lon="5.65151">
        <ele>741.4</ele>
        <time>2023-04-06T11:07:00Z</time>
      </trkpt>
      <trkpt lat="44.31887" lon="5.65147">
        <ele>741.4</ele>
        <time>2023-04-06T11:07:01Z</time>
      </trkpt>
      <trkpt lat="44.3189" lon="5.65143">
        <ele>741.5</ele>
        <time>2023-04-06T11:07:02Z</time>
      </trkpt>
      <trkpt lat="44.31893" lon="5.65139">
        <ele>741.5</ele>
        <time>2023-04-06T11:07:03Z</time>
      </trkpt>
      <trkpt lat="44.31896" lon="5.65136">
        <ele>741.6</ele>
        <time>2023-04-06T11:07:04Z</time>
      </trkpt>
      <trkpt lat="44.31899" lon="5.65132">
        <ele>741.7</ele>
        <time>2023-04-06T11:07:05Z</time>
      </trkpt>
      <trkpt lat="44.31902" lon="5.65128">
        <ele>741.7</ele>
        <time>2023-04-06T11:07:06Z</time>
      </trkpt>
      <trkpt lat="44.31905" lon="5.65125">
        <ele>741.8</ele>
        <time>2023-04-06T11:07:07Z</time>
      </trkpt>
      <trkpt lat="44.31908" lon="5.65122">
        <ele>741.9</ele>
        <time>2023-04-06T11:07:08Z</time>
      </trkpt>
      <trkpt lat="44.31911" lon="5.65118">
        <ele>741.9</ele>
        <time>2023-04-06T11:07:09Z</time>
      </trkpt>
      <trkpt lat="44.31917" lon="5.65112">
        <ele>742.1</ele>
        <time>2023-04-06T11:07:11Z</time>
      </trkpt>
      <trkpt lat="44.3192" lon="5.65108">
        <ele>742.2</ele>
        <time>2023-04-06T11:07:12Z</time>
      </trkpt>
      <trkpt lat="44.31924" lon="5.65104">
        <ele>742.2</ele>
        <time>2023-04-06T11:07:13Z</time>
      </trkpt>
      <trkpt lat="44.31927" lon="5.65101">
        <ele>742.3</ele>
        <time>2023-04-06T11:07:14Z</time>
      </trkpt>
      <trkpt lat="44.31935" lon="5.65097">
        <ele>742.4</ele>
        <time>2023-04-06T11:07:16Z</time>
      </trkpt>
      <trkpt lat="44.31938" lon="5.65095">
        <ele>742.5</ele>
        <time>2023-04-06T11:07:17Z</time>
      </trkpt>
      <trkpt lat="44.31942" lon="5.65093">
        <ele>742.5</ele>
        <time>2023-04-06T11:07:18Z</time>
      </trkpt>
      <trkpt lat="44.31945" lon="5.65091">
        <ele>742.6</ele>
        <time>2023-04-06T11:07:19Z</time>
      </trkpt>
      <trkpt lat="44.31949" lon="5.65089">
        <ele>742.7</ele>
        <time>2023-04-06T11:07:20Z</time>
      </trkpt>
      <trkpt lat="44.31956" lon="5.65086">
        <ele>742.8</ele>
        <time>2023-04-06T11:07:22Z</time>
      </trkpt>
      <trkpt lat="44.31959" lon="5.65085">
        <ele>742.9</ele>
        <time>2023-04-06T11:07:23Z</time>
      </trkpt>
      <trkpt lat="44.31963" lon="5.65083">
        <ele>743</ele>
        <time>2023-04-06T11:07:24Z</time>
      </trkpt>
      <trkpt lat="44.31967" lon="5.65082">
        <ele>743.1</ele>
        <time>2023-04-06T11:07:25Z</time>
      </trkpt>
      <trkpt lat="44.3197" lon="5.65079">
        <ele>743.2</ele>
        <time>2023-04-06T11:07:26Z</time>
      </trkpt>
      <trkpt lat="44.31974" lon="5.65077">
        <ele>743.3</ele>
        <time>2023-04-06T11:07:27Z</time>
      </trkpt>
      <trkpt lat="44.31978" lon="5.65076">
        <ele>743.4</ele>
        <time>2023-04-06T11:07:28Z</time>
      </trkpt>
      <trkpt lat="44.31982" lon="5.65074">
        <ele>743.6</ele>
        <time>2023-04-06T11:07:29Z</time>
      </trkpt>
      <trkpt lat="44.31985" lon="5.65073">
        <ele>743.7</ele>
        <time>2023-04-06T11:07:30Z</time>
      </trkpt>
      <trkpt lat="44.31989" lon="5.65071">
        <ele>743.8</ele>
        <time>2023-04-06T11:07:31Z</time>
      </trkpt>
      <trkpt lat="44.31996" lon="5.65067">
        <ele>744.1</ele>
        <time>2023-04-06T11:07:33Z</time>
      </trkpt>
      <trkpt lat="44.32" lon="5.65065">
        <ele>744.2</ele>
        <time>2023-04-06T11:07:34Z</time>
      </trkpt>
      <trkpt lat="44.32003" lon="5.65063">
        <ele>744.3</ele>
        <time>2023-04-06T11:07:35Z</time>
      </trkpt>
      <trkpt lat="44.32006" lon="5.65061">
        <ele>744.4</ele>
        <time>2023-04-06T11:07:36Z</time>
      </trkpt>
      <trkpt lat="44.3201" lon="5.6506">
        <ele>744.6</ele>
        <time>2023-04-06T11:07:37Z</time>
      </trkpt>
      <trkpt lat="44.32017" lon="5.65057">
        <ele>744.8</ele>
        <time>2023-04-06T11:07:39Z</time>
      </trkpt>
      <trkpt lat="44.3202" lon="5.65055">
        <ele>744.9</ele>
        <time>2023-04-06T11:07:40Z</time>
      </trkpt>
      <trkpt lat="44.32023" lon="5.65053">
        <ele>745</ele>
        <time>2023-04-06T11:07:41Z</time>
      </trkpt>
      <trkpt lat="44.32026" lon="5.65052">
        <ele>745.1</ele>
        <time>2023-04-06T11:07:42Z</time>
      </trkpt>
      <trkpt lat="44.3203" lon="5.6505">
        <ele>745.3</ele>
        <time>2023-04-06T11:07:43Z</time>
      </trkpt>
      <trkpt lat="44.32033" lon="5.65047">
        <ele>745.4</ele>
        <time>2023-04-06T11:07:44Z</time>
      </trkpt>
      <trkpt lat="44.32036" lon="5.65045">
        <ele>745.5</ele>
        <time>2023-04-06T11:07:45Z</time>
      </trkpt>
      <trkpt lat="44.32039" lon="5.65043">
        <ele>745.6</ele>
        <time>2023-04-06T11:07:46Z</time>
      </trkpt>
      <trkpt lat="44.32043" lon="5.65041">
        <ele>745.8</ele>
        <time>2023-04-06T11:07:47Z</time>
      </trkpt>
      <trkpt lat="44.32046" lon="5.6504">
        <ele>745.9</ele>
        <time>2023-04-06T11:07:48Z</time>
      </trkpt>
      <trkpt lat="44.32053" lon="5.65037">
        <ele>746.2</ele>
        <time>2023-04-06T11:07:50Z</time>
      </trkpt>
      <trkpt lat="44.32055" lon="5.65035">
        <ele>746.4</ele>
        <time>2023-04-06T11:07:51Z</time>
      </trkpt>
      <trkpt lat="44.32059" lon="5.65034">
        <ele>746.5</ele>
        <time>2023-04-06T11:07:52Z</time>
      </trkpt>
      <trkpt lat="44.3206" lon="5.65033">
        <ele>746.6</ele>
        <time>2023-04-06T11:07:53Z</time>
      </trkpt>
      <trkpt lat="44.32063" lon="5.65031">
        <ele>746.7</ele>
        <time>2023-04-06T11:07:54Z</time>
      </trkpt>
      <trkpt lat="44.32065" lon="5.6503">
        <ele>746.9</ele>
        <time>2023-04-06T11:07:55Z</time>
      </trkpt>
      <trkpt lat="44.32068" lon="5.65028">
        <ele>747</ele>
        <time>2023-04-06T11:07:56Z</time>
      </trkpt>
      <trkpt lat="44.32072" lon="5.65027">
        <ele>747.2</ele>
        <time>2023-04-06T11:07:57Z</time>
      </trkpt>
      <trkpt lat="44.32075" lon="5.65026">
        <ele>747.3</ele>
        <time>2023-04-06T11:07:58Z</time>
      </trkpt>
      <trkpt lat="44.32078" lon="5.65025">
        <ele>747.4</ele>
        <time>2023-04-06T11:07:59Z</time>
      </trkpt>
      <trkpt lat="44.32082" lon="5.65023">
        <ele>747.6</ele>
        <time>2023-04-06T11:08:00Z</time>
      </trkpt>
      <trkpt lat="44.32085" lon="5.65022">
        <ele>747.7</ele>
        <time>2023-04-06T11:08:01Z</time>
      </trkpt>
      <trkpt lat="44.32089" lon="5.6502">
        <ele>747.8</ele>
        <time>2023-04-06T11:08:02Z</time>
      </trkpt>
      <trkpt lat="44.32092" lon="5.65019">
        <ele>748</ele>
        <time>2023-04-06T11:08:03Z</time>
      </trkpt>
      <trkpt lat="44.32096" lon="5.65017">
        <ele>748.1</ele>
        <time>2023-04-06T11:08:04Z</time>
      </trkpt>
      <trkpt lat="44.32103" lon="5.65014">
        <ele>748.4</ele>
        <time>2023-04-06T11:08:06Z</time>
      </trkpt>
      <trkpt lat="44.32106" lon="5.65012">
        <ele>748.5</ele>
        <time>2023-04-06T11:08:07Z</time>
      </trkpt>
      <trkpt lat="44.3211" lon="5.6501">
        <ele>748.6</ele>
        <time>2023-04-06T11:08:08Z</time>
      </trkpt>
      <trkpt lat="44.32114" lon="5.65008">
        <ele>748.7</ele>
        <time>2023-04-06T11:08:09Z</time>
      </trkpt>
      <trkpt lat="44.32119" lon="5.65007">
        <ele>748.9</ele>
        <time>2023-04-06T11:08:10Z</time>
      </trkpt>
      <trkpt lat="44.32128" lon="5.65004">
        <ele>749.2</ele>
        <time>2023-04-06T11:08:12Z</time>
      </trkpt>
      <trkpt lat="44.32131" lon="5.65002">
        <ele>749.4</ele>
        <time>2023-04-06T11:08:13Z</time>
      </trkpt>
      <trkpt lat="44.32135" lon="5.65">
        <ele>749.5</ele>
        <time>2023-04-06T11:08:14Z</time>
      </trkpt>
      <trkpt lat="44.32138" lon="5.64998">
        <ele>749.6</ele>
        <time>2023-04-06T11:08:15Z</time>
      </trkpt>
      <trkpt lat="44.32141" lon="5.64996">
        <ele>749.7</ele>
        <time>2023-04-06T11:08:16Z</time>
      </trkpt>
      <trkpt lat="44.32144" lon="5.64994">
        <ele>749.9</ele>
        <time>2023-04-06T11:08:17Z</time>
      </trkpt>
      <trkpt lat="44.32148" lon="5.64992">
        <ele>750</ele>
        <time>2023-04-06T11:08:18Z</time>
      </trkpt>
      <trkpt lat="44.32151" lon="5.6499">
        <ele>750.1</ele>
        <time>2023-04-06T11:08:19Z</time>
      </trkpt>
      <trkpt lat="44.32154" lon="5.64988">
        <ele>750.2</ele>
        <time>2023-04-06T11:08:20Z</time>
      </trkpt>
      <trkpt lat="44.32157" lon="5.64986">
        <ele>750.3</ele>
        <time>2023-04-06T11:08:21Z</time>
      </trkpt>
      <trkpt lat="44.32163" lon="5.64981">
        <ele>750.5</ele>
        <time>2023-04-06T11:08:23Z</time>
      </trkpt>
      <trkpt lat="44.32166" lon="5.64979">
        <ele>750.6</ele>
        <time>2023-04-06T11:08:24Z</time>
      </trkpt>
      <trkpt lat="44.32169" lon="5.64976">
        <ele>750.7</ele>
        <time>2023-04-06T11:08:25Z</time>
      </trkpt>
      <trkpt lat="44.32172" lon="5.64973">
        <ele>750.8</ele>
        <time>2023-04-06T11:08:26Z</time>
      </trkpt>
      <trkpt lat="44.32175" lon="5.6497">
        <ele>750.9</ele>
        <time>2023-04-06T11:08:27Z</time>
      </trkpt>
      <trkpt lat="44.32178" lon="5.64968">
        <ele>751</ele>
        <time>2023-04-06T11:08:28Z</time>
      </trkpt>
      <trkpt lat="44.32182" lon="5.64965">
        <ele>751.1</ele>
        <time>2023-04-06T11:08:29Z</time>
      </trkpt>
      <trkpt lat="44.32185" lon="5.64962">
        <ele>751.2</ele>
        <time>2023-04-06T11:08:30Z</time>
      </trkpt>
      <trkpt lat="44.32188" lon="5.6496">
        <ele>751.3</ele>
        <time>2023-04-06T11:08:31Z</time>
      </trkpt>
      <trkpt lat="44.32192" lon="5.64957">
        <ele>751.3</ele>
        <time>2023-04-06T11:08:32Z</time>
      </trkpt>
      <trkpt lat="44.32198" lon="5.64953">
        <ele>751.5</ele>
        <time>2023-04-06T11:08:34Z</time>
      </trkpt>
      <trkpt lat="44.32201" lon="5.6495">
        <ele>751.6</ele>
        <time>2023-04-06T11:08:35Z</time>
      </trkpt>
      <trkpt lat="44.32204" lon="5.64947">
        <ele>751.7</ele>
        <time>2023-04-06T11:08:36Z</time>
      </trkpt>
      <trkpt lat="44.32207" lon="5.64945">
        <ele>751.7</ele>
        <time>2023-04-06T11:08:37Z</time>
      </trkpt>
      <trkpt lat="44.3221" lon="5.64943">
        <ele>751.8</ele>
        <time>2023-04-06T11:08:38Z</time>
      </trkpt>
      <trkpt lat="44.32213" lon="5.6494">
        <ele>751.9</ele>
        <time>2023-04-06T11:08:39Z</time>
      </trkpt>
      <trkpt lat="44.32216" lon="5.64938">
        <ele>752</ele>
        <time>2023-04-06T11:08:40Z</time>
      </trkpt>
      <trkpt lat="44.3222" lon="5.64935">
        <ele>752.1</ele>
        <time>2023-04-06T11:08:41Z</time>
      </trkpt>
      <trkpt lat="44.32224" lon="5.64932">
        <ele>752.2</ele>
        <time>2023-04-06T11:08:42Z</time>
      </trkpt>
      <trkpt lat="44.32228" lon="5.6493">
        <ele>752.4</ele>
        <time>2023-04-06T11:08:43Z</time>
      </trkpt>
      <trkpt lat="44.32236" lon="5.64925">
        <ele>752.7</ele>
        <time>2023-04-06T11:08:45Z</time>
      </trkpt>
      <trkpt lat="44.32239" lon="5.64923">
        <ele>752.8</ele>
        <time>2023-04-06T11:08:46Z</time>
      </trkpt>
      <trkpt lat="44.32242" lon="5.64921">
        <ele>752.9</ele>
        <time>2023-04-06T11:08:47Z</time>
      </trkpt>
      <trkpt lat="44.32245" lon="5.64918">
        <ele>753.1</ele>
        <time>2023-04-06T11:08:48Z</time>
      </trkpt>
      <trkpt lat="44.32248" lon="5.64916">
        <ele>753.2</ele>
        <time>2023-04-06T11:08:49Z</time>
      </trkpt>
      <trkpt lat="44.3225" lon="5.64914">
        <ele>753.3</ele>
        <time>2023-04-06T11:08:50Z</time>
      </trkpt>
      <trkpt lat="44.32253" lon="5.64912">
        <ele>753.4</ele>
        <time>2023-04-06T11:08:51Z</time>
      </trkpt>
      <trkpt lat="44.32256" lon="5.64909">
        <ele>753.5</ele>
        <time>2023-04-06T11:08:52Z</time>
      </trkpt>
      <trkpt lat="44.32258" lon="5.64907">
        <ele>753.6</ele>
        <time>2023-04-06T11:08:53Z</time>
      </trkpt>
      <trkpt lat="44.32261" lon="5.64904">
        <ele>753.7</ele>
        <time>2023-04-06T11:08:54Z</time>
      </trkpt>
      <trkpt lat="44.32267" lon="5.64899">
        <ele>754</ele>
        <time>2023-04-06T11:08:56Z</time>
      </trkpt>
      <trkpt lat="44.3227" lon="5.64897">
        <ele>754.1</ele>
        <time>2023-04-06T11:08:57Z</time>
      </trkpt>
      <trkpt lat="44.32273" lon="5.64895">
        <ele>754.3</ele>
        <time>2023-04-06T11:08:58Z</time>
      </trkpt>
      <trkpt lat="44.32277" lon="5.64892">
        <ele>754.4</ele>
        <time>2023-04-06T11:08:59Z</time>
      </trkpt>
      <trkpt lat="44.3228" lon="5.6489">
        <ele>754.6</ele>
        <time>2023-04-06T11:09:00Z</time>
      </trkpt>
      <trkpt lat="44.32283" lon="5.64888">
        <ele>754.7</ele>
        <time>2023-04-06T11:09:01Z</time>
      </trkpt>
      <trkpt lat="44.32287" lon="5.64886">
        <ele>754.8</ele>
        <time>2023-04-06T11:09:02Z</time>
      </trkpt>
      <trkpt lat="44.3229" lon="5.64883">
        <ele>754.9</ele>
        <time>2023-04-06T11:09:03Z</time>
      </trkpt>
      <trkpt lat="44.32293" lon="5.6488">
        <ele>755.1</ele>
        <time>2023-04-06T11:09:04Z</time>
      </trkpt>
      <trkpt lat="44.32296" lon="5.64878">
        <ele>755.2</ele>
        <time>2023-04-06T11:09:05Z</time>
      </trkpt>
      <trkpt lat="44.323" lon="5.64875">
        <ele>755.4</ele>
        <time>2023-04-06T11:09:06Z</time>
      </trkpt>
      <trkpt lat="44.32303" lon="5.64872">
        <ele>755.5</ele>
        <time>2023-04-06T11:09:07Z</time>
      </trkpt>
      <trkpt lat="44.32307" lon="5.6487">
        <ele>755.6</ele>
        <time>2023-04-06T11:09:08Z</time>
      </trkpt>
      <trkpt lat="44.3231" lon="5.64867">
        <ele>755.8</ele>
        <time>2023-04-06T11:09:09Z</time>
      </trkpt>
      <trkpt lat="44.32312" lon="5.64864">
        <ele>755.9</ele>
        <time>2023-04-06T11:09:10Z</time>
      </trkpt>
      <trkpt lat="44.32315" lon="5.6486">
        <ele>756</ele>
        <time>2023-04-06T11:09:11Z</time>
      </trkpt>
      <trkpt lat="44.32321" lon="5.64852">
        <ele>756.3</ele>
        <time>2023-04-06T11:09:13Z</time>
      </trkpt>
      <trkpt lat="44.32324" lon="5.64847">
        <ele>756.5</ele>
        <time>2023-04-06T11:09:14Z</time>
      </trkpt>
      <trkpt lat="44.32326" lon="5.64843">
        <ele>756.6</ele>
        <time>2023-04-06T11:09:15Z</time>
      </trkpt>
      <trkpt lat="44.32328" lon="5.64839">
        <ele>756.8</ele>
        <time>2023-04-06T11:09:16Z</time>
      </trkpt>
      <trkpt lat="44.3233" lon="5.64835">
        <ele>756.9</ele>
        <time>2023-04-06T11:09:17Z</time>
      </trkpt>
      <trkpt lat="44.32332" lon="5.6483">
        <ele>757</ele>
        <time>2023-04-06T11:09:18Z</time>
      </trkpt>
      <trkpt lat="44.32334" lon="5.64826">
        <ele>757.2</ele>
        <time>2023-04-06T11:09:19Z</time>
      </trkpt>
      <trkpt lat="44.32336" lon="5.64821">
        <ele>757.3</ele>
        <time>2023-04-06T11:09:20Z</time>
      </trkpt>
      <trkpt lat="44.32337" lon="5.64816">
        <ele>757.4</ele>
        <time>2023-04-06T11:09:21Z</time>
      </trkpt>
      <trkpt lat="44.32338" lon="5.64812">
        <ele>757.6</ele>
        <time>2023-04-06T11:09:22Z</time>
      </trkpt>
      <trkpt lat="44.3234" lon="5.64807">
        <ele>757.7</ele>
        <time>2023-04-06T11:09:23Z</time>
      </trkpt>
      <trkpt lat="44.32342" lon="5.64803">
        <ele>757.8</ele>
        <time>2023-04-06T11:09:24Z</time>
      </trkpt>
      <trkpt lat="44.32344" lon="5.64799">
        <ele>758</ele>
        <time>2023-04-06T11:09:25Z</time>
      </trkpt>
      <trkpt lat="44.32346" lon="5.64794">
        <ele>758.1</ele>
        <time>2023-04-06T11:09:26Z</time>
      </trkpt>
      <trkpt lat="44.32348" lon="5.6479">
        <ele>758.3</ele>
        <time>2023-04-06T11:09:27Z</time>
      </trkpt>
      <trkpt lat="44.32351" lon="5.64782">
        <ele>758.5</ele>
        <time>2023-04-06T11:09:29Z</time>
      </trkpt>
      <trkpt lat="44.32353" lon="5.64777">
        <ele>758.7</ele>
        <time>2023-04-06T11:09:30Z</time>
      </trkpt>
      <trkpt lat="44.32355" lon="5.64773">
        <ele>758.8</ele>
        <time>2023-04-06T11:09:31Z</time>
      </trkpt>
      <trkpt lat="44.32358" lon="5.64769">
        <ele>759</ele>
        <time>2023-04-06T11:09:32Z</time>
      </trkpt>
      <trkpt lat="44.3236" lon="5.64765">
        <ele>759.1</ele>
        <time>2023-04-06T11:09:33Z</time>
      </trkpt>
      <trkpt lat="44.32362" lon="5.64761">
        <ele>759.3</ele>
        <time>2023-04-06T11:09:34Z</time>
      </trkpt>
      <trkpt lat="44.32365" lon="5.64757">
        <ele>759.4</ele>
        <time>2023-04-06T11:09:35Z</time>
      </trkpt>
      <trkpt lat="44.32367" lon="5.64754">
        <ele>759.6</ele>
        <time>2023-04-06T11:09:36Z</time>
      </trkpt>
      <trkpt lat="44.3237" lon="5.64751">
        <ele>759.7</ele>
        <time>2023-04-06T11:09:37Z</time>
      </trkpt>
      <trkpt lat="44.32373" lon="5.64748">
        <ele>759.9</ele>
        <time>2023-04-06T11:09:38Z</time>
      </trkpt>
      <trkpt lat="44.32378" lon="5.64742">
        <ele>760.2</ele>
        <time>2023-04-06T11:09:40Z</time>
      </trkpt>
      <trkpt lat="44.32381" lon="5.64739">
        <ele>760.3</ele>
        <time>2023-04-06T11:09:41Z</time>
      </trkpt>
      <trkpt lat="44.32384" lon="5.64736">
        <ele>760.5</ele>
        <time>2023-04-06T11:09:42Z</time>
      </trkpt>
      <trkpt lat="44.32387" lon="5.64733">
        <ele>760.7</ele>
        <time>2023-04-06T11:09:43Z</time>
      </trkpt>
      <trkpt lat="44.3239" lon="5.6473">
        <ele>760.8</ele>
        <time>2023-04-06T11:09:44Z</time>
      </trkpt>
      <trkpt lat="44.32393" lon="5.64727">
        <ele>760.9</ele>
        <time>2023-04-06T11:09:45Z</time>
      </trkpt>
      <trkpt lat="44.32396" lon="5.64725">
        <ele>761.1</ele>
        <time>2023-04-06T11:09:46Z</time>
      </trkpt>
      <trkpt lat="44.324" lon="5.64722">
        <ele>761.3</ele>
        <time>2023-04-06T11:09:47Z</time>
      </trkpt>
      <trkpt lat="44.32403" lon="5.6472">
        <ele>761.4</ele>
        <time>2023-04-06T11:09:48Z</time>
      </trkpt>
      <trkpt lat="44.32406" lon="5.64718">
        <ele>761.6</ele>
        <time>2023-04-06T11:09:49Z</time>
      </trkpt>
      <trkpt lat="44.32409" lon="5.64716">
        <ele>761.7</ele>
        <time>2023-04-06T11:09:50Z</time>
      </trkpt>
      <trkpt lat="44.32412" lon="5.64714">
        <ele>761.9</ele>
        <time>2023-04-06T11:09:51Z</time>
      </trkpt>
      <trkpt lat="44.32415" lon="5.64713">
        <ele>762.1</ele>
        <time>2023-04-06T11:09:52Z</time>
      </trkpt>
      <trkpt lat="44.32418" lon="5.64711">
        <ele>762.2</ele>
        <time>2023-04-06T11:09:53Z</time>
      </trkpt>
      <trkpt lat="44.32421" lon="5.6471">
        <ele>762.4</ele>
        <time>2023-04-06T11:09:54Z</time>
      </trkpt>
      <trkpt lat="44.32424" lon="5.64708">
        <ele>762.6</ele>
        <time>2023-04-06T11:09:55Z</time>
      </trkpt>
      <trkpt lat="44.32427" lon="5.64707">
        <ele>762.8</ele>
        <time>2023-04-06T11:09:56Z</time>
      </trkpt>
      <trkpt lat="44.3243" lon="5.64706">
        <ele>763</ele>
        <time>2023-04-06T11:09:57Z</time>
      </trkpt>
      <trkpt lat="44.32434" lon="5.64705">
        <ele>763.2</ele>
        <time>2023-04-06T11:09:58Z</time>
      </trkpt>
      <trkpt lat="44.32437" lon="5.64704">
        <ele>763.4</ele>
        <time>2023-04-06T11:09:59Z</time>
      </trkpt>
      <trkpt lat="44.3244" lon="5.64703">
        <ele>763.6</ele>
        <time>2023-04-06T11:10:00Z</time>
      </trkpt>
      <trkpt lat="44.32444" lon="5.64703">
        <ele>763.8</ele>
        <time>2023-04-06T11:10:01Z</time>
      </trkpt>
      <trkpt lat="44.32448" lon="5.64702">
        <ele>764</ele>
        <time>2023-04-06T11:10:02Z</time>
      </trkpt>
      <trkpt lat="44.32452" lon="5.64703">
        <ele>764.2</ele>
        <time>2023-04-06T11:10:03Z</time>
      </trkpt>
      <trkpt lat="44.32455" lon="5.64703">
        <ele>764.3</ele>
        <time>2023-04-06T11:10:04Z</time>
      </trkpt>
      <trkpt lat="44.32459" lon="5.64704">
        <ele>764.5</ele>
        <time>2023-04-06T11:10:05Z</time>
      </trkpt>
      <trkpt lat="44.32462" lon="5.64705">
        <ele>764.6</ele>
        <time>2023-04-06T11:10:06Z</time>
      </trkpt>
      <trkpt lat="44.32465" lon="5.64705">
        <ele>764.8</ele>
        <time>2023-04-06T11:10:07Z</time>
      </trkpt>
      <trkpt lat="44.32468" lon="5.64706">
        <ele>764.9</ele>
        <time>2023-04-06T11:10:08Z</time>
      </trkpt>
      <trkpt lat="44.32471" lon="5.64706">
        <ele>765</ele>
        <time>2023-04-06T11:10:09Z</time>
      </trkpt>
      <trkpt lat="44.32474" lon="5.64707">
        <ele>765.2</ele>
        <time>2023-04-06T11:10:10Z</time>
      </trkpt>
      <trkpt lat="44.32477" lon="5.64708">
        <ele>765.3</ele>
        <time>2023-04-06T11:10:11Z</time>
      </trkpt>
      <trkpt lat="44.32481" lon="5.64708">
        <ele>765.5</ele>
        <time>2023-04-06T11:10:12Z</time>
      </trkpt>
      <trkpt lat="44.32484" lon="5.64709">
        <ele>765.6</ele>
        <time>2023-04-06T11:10:13Z</time>
      </trkpt>
      <trkpt lat="44.32488" lon="5.64709">
        <ele>765.8</ele>
        <time>2023-04-06T11:10:14Z</time>
      </trkpt>
      <trkpt lat="44.32491" lon="5.6471">
        <ele>765.9</ele>
        <time>2023-04-06T11:10:15Z</time>
      </trkpt>
      <trkpt lat="44.32494" lon="5.64711">
        <ele>766</ele>
        <time>2023-04-06T11:10:16Z</time>
      </trkpt>
      <trkpt lat="44.32497" lon="5.64712">
        <ele>766.2</ele>
        <time>2023-04-06T11:10:17Z</time>
      </trkpt>
      <trkpt lat="44.325" lon="5.64713">
        <ele>766.3</ele>
        <time>2023-04-06T11:10:18Z</time>
      </trkpt>
      <trkpt lat="44.32504" lon="5.64714">
        <ele>766.5</ele>
        <time>2023-04-06T11:10:19Z</time>
      </trkpt>
      <trkpt lat="44.32507" lon="5.64715">
        <ele>766.6</ele>
        <time>2023-04-06T11:10:20Z</time>
      </trkpt>
      <trkpt lat="44.3251" lon="5.64716">
        <ele>766.7</ele>
        <time>2023-04-06T11:10:21Z</time>
      </trkpt>
      <trkpt lat="44.32514" lon="5.64717">
        <ele>766.9</ele>
        <time>2023-04-06T11:10:22Z</time>
      </trkpt>
      <trkpt lat="44.32517" lon="5.64719">
        <ele>767</ele>
        <time>2023-04-06T11:10:23Z</time>
      </trkpt>
      <trkpt lat="44.3252" lon="5.6472">
        <ele>767.2</ele>
        <time>2023-04-06T11:10:24Z</time>
      </trkpt>
      <trkpt lat="44.32523" lon="5.64721">
        <ele>767.3</ele>
        <time>2023-04-06T11:10:25Z</time>
      </trkpt>
      <trkpt lat="44.32526" lon="5.64721">
        <ele>767.4</ele>
        <time>2023-04-06T11:10:26Z</time>
      </trkpt>
      <trkpt lat="44.3253" lon="5.64722">
        <ele>767.6</ele>
        <time>2023-04-06T11:10:27Z</time>
      </trkpt>
      <trkpt lat="44.32533" lon="5.64724">
        <ele>767.7</ele>
        <time>2023-04-06T11:10:28Z</time>
      </trkpt>
      <trkpt lat="44.32536" lon="5.64726">
        <ele>767.9</ele>
        <time>2023-04-06T11:10:29Z</time>
      </trkpt>
      <trkpt lat="44.3254" lon="5.64727">
        <ele>768</ele>
        <time>2023-04-06T11:10:30Z</time>
      </trkpt>
      <trkpt lat="44.32543" lon="5.64728">
        <ele>768.2</ele>
        <time>2023-04-06T11:10:31Z</time>
      </trkpt>
      <trkpt lat="44.32547" lon="5.64729">
        <ele>768.3</ele>
        <time>2023-04-06T11:10:32Z</time>
      </trkpt>
      <trkpt lat="44.32551" lon="5.64729">
        <ele>768.5</ele>
        <time>2023-04-06T11:10:33Z</time>
      </trkpt>
      <trkpt lat="44.32554" lon="5.64728">
        <ele>768.6</ele>
        <time>2023-04-06T11:10:34Z</time>
      </trkpt>
      <trkpt lat="44.32557" lon="5.64727">
        <ele>768.7</ele>
        <time>2023-04-06T11:10:35Z</time>
      </trkpt>
      <trkpt lat="44.32562" lon="5.64723">
        <ele>769</ele>
        <time>2023-04-06T11:10:36Z</time>
      </trkpt>
      <trkpt lat="44.32566" lon="5.6472">
        <ele>768.9</ele>
        <time>2023-04-06T11:10:37Z</time>
      </trkpt>
      <trkpt lat="44.3257" lon="5.64716">
        <ele>768.8</ele>
        <time>2023-04-06T11:10:38Z</time>
      </trkpt>
      <trkpt lat="44.32574" lon="5.64711">
        <ele>768.7</ele>
        <time>2023-04-06T11:10:39Z</time>
      </trkpt>
      <trkpt lat="44.32577" lon="5.64707">
        <ele>768.6</ele>
        <time>2023-04-06T11:10:40Z</time>
      </trkpt>
      <trkpt lat="44.3258" lon="5.64702">
        <ele>768.5</ele>
        <time>2023-04-06T11:10:41Z</time>
      </trkpt>
      <trkpt lat="44.32582" lon="5.64697">
        <ele>768.5</ele>
        <time>2023-04-06T11:10:42Z</time>
      </trkpt>
      <trkpt lat="44.32585" lon="5.64692">
        <ele>768.4</ele>
        <time>2023-04-06T11:10:43Z</time>
      </trkpt>
      <trkpt lat="44.32587" lon="5.64688">
        <ele>768.4</ele>
        <time>2023-04-06T11:10:44Z</time>
      </trkpt>
      <trkpt lat="44.32589" lon="5.64683">
        <ele>768.3</ele>
        <time>2023-04-06T11:10:45Z</time>
      </trkpt>
      <trkpt lat="44.32592" lon="5.64679">
        <ele>768.3</ele>
        <time>2023-04-06T11:10:46Z</time>
      </trkpt>
      <trkpt lat="44.32594" lon="5.64672">
        <ele>768.2</ele>
        <time>2023-04-06T11:10:47Z</time>
      </trkpt>
      <trkpt lat="44.32597" lon="5.64664">
        <ele>768.2</ele>
        <time>2023-04-06T11:10:48Z</time>
      </trkpt>
      <trkpt lat="44.32599" lon="5.64658">
        <ele>768.2</ele>
        <time>2023-04-06T11:10:49Z</time>
      </trkpt>
      <trkpt lat="44.32601" lon="5.6465">
        <ele>768.2</ele>
        <time>2023-04-06T11:10:50Z</time>
      </trkpt>
      <trkpt lat="44.32602" lon="5.64644">
        <ele>768.2</ele>
        <time>2023-04-06T11:10:51Z</time>
      </trkpt>
      <trkpt lat="44.32604" lon="5.64637">
        <ele>768.2</ele>
        <time>2023-04-06T11:10:52Z</time>
      </trkpt>
      <trkpt lat="44.32604" lon="5.6463">
        <ele>768.2</ele>
        <time>2023-04-06T11:10:53Z</time>
      </trkpt>
      <trkpt lat="44.32605" lon="5.64624">
        <ele>768.2</ele>
        <time>2023-04-06T11:10:54Z</time>
      </trkpt>
      <trkpt lat="44.32605" lon="5.64617">
        <ele>768.2</ele>
        <time>2023-04-06T11:10:55Z</time>
      </trkpt>
      <trkpt lat="44.32606" lon="5.6461">
        <ele>768.2</ele>
        <time>2023-04-06T11:10:56Z</time>
      </trkpt>
      <trkpt lat="44.32606" lon="5.64604">
        <ele>768.2</ele>
        <time>2023-04-06T11:10:57Z</time>
      </trkpt>
      <trkpt lat="44.32606" lon="5.64597">
        <ele>768.2</ele>
        <time>2023-04-06T11:10:58Z</time>
      </trkpt>
      <trkpt lat="44.32606" lon="5.64591">
        <ele>768.2</ele>
        <time>2023-04-06T11:10:59Z</time>
      </trkpt>
      <trkpt lat="44.32606" lon="5.64584">
        <ele>768.2</ele>
        <time>2023-04-06T11:11:00Z</time>
      </trkpt>
      <trkpt lat="44.32606" lon="5.64572">
        <ele>768.2</ele>
        <time>2023-04-06T11:11:02Z</time>
      </trkpt>
      <trkpt lat="44.32606" lon="5.64566">
        <ele>768.3</ele>
        <time>2023-04-06T11:11:03Z</time>
      </trkpt>
      <trkpt lat="44.32606" lon="5.6456">
        <ele>768.3</ele>
        <time>2023-04-06T11:11:04Z</time>
      </trkpt>
      <trkpt lat="44.32607" lon="5.64555">
        <ele>768.3</ele>
        <time>2023-04-06T11:11:05Z</time>
      </trkpt>
      <trkpt lat="44.32608" lon="5.64549">
        <ele>768.4</ele>
        <time>2023-04-06T11:11:06Z</time>
      </trkpt>
      <trkpt lat="44.32609" lon="5.64537">
        <ele>768.5</ele>
        <time>2023-04-06T11:11:08Z</time>
      </trkpt>
      <trkpt lat="44.32609" lon="5.64531">
        <ele>768.5</ele>
        <time>2023-04-06T11:11:09Z</time>
      </trkpt>
      <trkpt lat="44.3261" lon="5.64526">
        <ele>768.5</ele>
        <time>2023-04-06T11:11:10Z</time>
      </trkpt>
      <trkpt lat="44.32611" lon="5.6452">
        <ele>768.6</ele>
        <time>2023-04-06T11:11:11Z</time>
      </trkpt>
      <trkpt lat="44.32613" lon="5.64514">
        <ele>768.6</ele>
        <time>2023-04-06T11:11:12Z</time>
      </trkpt>
      <trkpt lat="44.32617" lon="5.64503">
        <ele>768.7</ele>
        <time>2023-04-06T11:11:14Z</time>
      </trkpt>
      <trkpt lat="44.32619" lon="5.64498">
        <ele>768.7</ele>
        <time>2023-04-06T11:11:15Z</time>
      </trkpt>
      <trkpt lat="44.32622" lon="5.64493">
        <ele>768.8</ele>
        <time>2023-04-06T11:11:16Z</time>
      </trkpt>
      <trkpt lat="44.32624" lon="5.64488">
        <ele>768.8</ele>
        <time>2023-04-06T11:11:17Z</time>
      </trkpt>
      <trkpt lat="44.32626" lon="5.64483">
        <ele>768.9</ele>
        <time>2023-04-06T11:11:18Z</time>
      </trkpt>
      <trkpt lat="44.32628" lon="5.64477">
        <ele>768.9</ele>
        <time>2023-04-06T11:11:19Z</time>
      </trkpt>
      <trkpt lat="44.3263" lon="5.64472">
        <ele>769</ele>
        <time>2023-04-06T11:11:20Z</time>
      </trkpt>
      <trkpt lat="44.32633" lon="5.64466">
        <ele>769</ele>
        <time>2023-04-06T11:11:21Z</time>
      </trkpt>
      <trkpt lat="44.32636" lon="5.64461">
        <ele>769.1</ele>
        <time>2023-04-06T11:11:22Z</time>
      </trkpt>
      <trkpt lat="44.32638" lon="5.64456">
        <ele>769.2</ele>
        <time>2023-04-06T11:11:23Z</time>
      </trkpt>
      <trkpt lat="44.32642" lon="5.64444">
        <ele>769.3</ele>
        <time>2023-04-06T11:11:25Z</time>
      </trkpt>
      <trkpt lat="44.32644" lon="5.64437">
        <ele>769.4</ele>
        <time>2023-04-06T11:11:26Z</time>
      </trkpt>
      <trkpt lat="44.32646" lon="5.6443">
        <ele>769.5</ele>
        <time>2023-04-06T11:11:27Z</time>
      </trkpt>
      <trkpt lat="44.32647" lon="5.64423">
        <ele>769.6</ele>
        <time>2023-04-06T11:11:28Z</time>
      </trkpt>
      <trkpt lat="44.32648" lon="5.64417">
        <ele>769.7</ele>
        <time>2023-04-06T11:11:29Z</time>
      </trkpt>
      <trkpt lat="44.32651" lon="5.64405">
        <ele>769.8</ele>
        <time>2023-04-06T11:11:31Z</time>
      </trkpt>
      <trkpt lat="44.32652" lon="5.64399">
        <ele>769.8</ele>
        <time>2023-04-06T11:11:32Z</time>
      </trkpt>
      <trkpt lat="44.32653" lon="5.64392">
        <ele>769.9</ele>
        <time>2023-04-06T11:11:33Z</time>
      </trkpt>
      <trkpt lat="44.32654" lon="5.64387">
        <ele>769.9</ele>
        <time>2023-04-06T11:11:34Z</time>
      </trkpt>
      <trkpt lat="44.32654" lon="5.64381">
        <ele>770</ele>
        <time>2023-04-06T11:11:35Z</time>
      </trkpt>
      <trkpt lat="44.32656" lon="5.64369">
        <ele>770.1</ele>
        <time>2023-04-06T11:11:37Z</time>
      </trkpt>
      <trkpt lat="44.32657" lon="5.64363">
        <ele>770.1</ele>
        <time>2023-04-06T11:11:38Z</time>
      </trkpt>
      <trkpt lat="44.32657" lon="5.64357">
        <ele>770.1</ele>
        <time>2023-04-06T11:11:39Z</time>
      </trkpt>
      <trkpt lat="44.32658" lon="5.64351">
        <ele>770.1</ele>
        <time>2023-04-06T11:11:40Z</time>
      </trkpt>
      <trkpt lat="44.32659" lon="5.64345">
        <ele>770.1</ele>
        <time>2023-04-06T11:11:41Z</time>
      </trkpt>
      <trkpt lat="44.3266" lon="5.64335">
        <ele>770.1</ele>
        <time>2023-04-06T11:11:43Z</time>
      </trkpt>
      <trkpt lat="44.32661" lon="5.64329">
        <ele>770.1</ele>
        <time>2023-04-06T11:11:44Z</time>
      </trkpt>
      <trkpt lat="44.32662" lon="5.64324">
        <ele>770.1</ele>
        <time>2023-04-06T11:11:45Z</time>
      </trkpt>
      <trkpt lat="44.32663" lon="5.64319">
        <ele>770.1</ele>
        <time>2023-04-06T11:11:46Z</time>
      </trkpt>
      <trkpt lat="44.32665" lon="5.64314">
        <ele>770.2</ele>
        <time>2023-04-06T11:11:47Z</time>
      </trkpt>
      <trkpt lat="44.32667" lon="5.64309">
        <ele>770.2</ele>
        <time>2023-04-06T11:11:48Z</time>
      </trkpt>
      <trkpt lat="44.3267" lon="5.64303">
        <ele>770.2</ele>
        <time>2023-04-06T11:11:49Z</time>
      </trkpt>
      <trkpt lat="44.32672" lon="5.64299">
        <ele>770.3</ele>
        <time>2023-04-06T11:11:50Z</time>
      </trkpt>
      <trkpt lat="44.32675" lon="5.64293">
        <ele>770.3</ele>
        <time>2023-04-06T11:11:51Z</time>
      </trkpt>
      <trkpt lat="44.32677" lon="5.64288">
        <ele>770.3</ele>
        <time>2023-04-06T11:11:52Z</time>
      </trkpt>
      <trkpt lat="44.3268" lon="5.64283">
        <ele>770.3</ele>
        <time>2023-04-06T11:11:53Z</time>
      </trkpt>
      <trkpt lat="44.32682" lon="5.64278">
        <ele>770.3</ele>
        <time>2023-04-06T11:11:54Z</time>
      </trkpt>
      <trkpt lat="44.32685" lon="5.64273">
        <ele>770.4</ele>
        <time>2023-04-06T11:11:55Z</time>
      </trkpt>
      <trkpt lat="44.32687" lon="5.64268">
        <ele>770.4</ele>
        <time>2023-04-06T11:11:56Z</time>
      </trkpt>
      <trkpt lat="44.3269" lon="5.64263">
        <ele>770.4</ele>
        <time>2023-04-06T11:11:57Z</time>
      </trkpt>
      <trkpt lat="44.32694" lon="5.64253">
        <ele>770.5</ele>
        <time>2023-04-06T11:11:59Z</time>
      </trkpt>
      <trkpt lat="44.32696" lon="5.64248">
        <ele>770.5</ele>
        <time>2023-04-06T11:12:00Z</time>
      </trkpt>
      <trkpt lat="44.32698" lon="5.64243">
        <ele>770.5</ele>
        <time>2023-04-06T11:12:01Z</time>
      </trkpt>
      <trkpt lat="44.327" lon="5.64237">
        <ele>770.6</ele>
        <time>2023-04-06T11:12:02Z</time>
      </trkpt>
      <trkpt lat="44.32703" lon="5.64232">
        <ele>770.6</ele>
        <time>2023-04-06T11:12:03Z</time>
      </trkpt>
      <trkpt lat="44.32706" lon="5.64227">
        <ele>770.6</ele>
        <time>2023-04-06T11:12:04Z</time>
      </trkpt>
      <trkpt lat="44.32708" lon="5.64221">
        <ele>770.6</ele>
        <time>2023-04-06T11:12:05Z</time>
      </trkpt>
      <trkpt lat="44.32711" lon="5.64217">
        <ele>770.6</ele>
        <time>2023-04-06T11:12:06Z</time>
      </trkpt>
      <trkpt lat="44.32714" lon="5.64212">
        <ele>770.7</ele>
        <time>2023-04-06T11:12:07Z</time>
      </trkpt>
      <trkpt lat="44.32717" lon="5.64207">
        <ele>770.7</ele>
        <time>2023-04-06T11:12:08Z</time>
      </trkpt>
      <trkpt lat="44.32725" lon="5.64198">
        <ele>770.7</ele>
        <time>2023-04-06T11:12:10Z</time>
      </trkpt>
      <trkpt lat="44.32728" lon="5.64193">
        <ele>770.8</ele>
        <time>2023-04-06T11:12:11Z</time>
      </trkpt>
      <trkpt lat="44.32731" lon="5.64189">
        <ele>770.8</ele>
        <time>2023-04-06T11:12:12Z</time>
      </trkpt>
      <trkpt lat="44.32735" lon="5.64185">
        <ele>770.8</ele>
        <time>2023-04-06T11:12:13Z</time>
      </trkpt>
      <trkpt lat="44.32739" lon="5.64181">
        <ele>770.8</ele>
        <time>2023-04-06T11:12:14Z</time>
      </trkpt>
      <trkpt lat="44.32743" lon="5.64177">
        <ele>770.9</ele>
        <time>2023-04-06T11:12:15Z</time>
      </trkpt>
      <trkpt lat="44.32746" lon="5.64173">
        <ele>770.9</ele>
        <time>2023-04-06T11:12:16Z</time>
      </trkpt>
      <trkpt lat="44.32749" lon="5.64168">
        <ele>770.9</ele>
        <time>2023-04-06T11:12:17Z</time>
      </trkpt>
      <trkpt lat="44.32752" lon="5.64163">
        <ele>771</ele>
        <time>2023-04-06T11:12:18Z</time>
      </trkpt>
      <trkpt lat="44.32754" lon="5.64158">
        <ele>771</ele>
        <time>2023-04-06T11:12:19Z</time>
      </trkpt>
      <trkpt lat="44.32758" lon="5.64147">
        <ele>771.1</ele>
        <time>2023-04-06T11:12:21Z</time>
      </trkpt>
      <trkpt lat="44.3276" lon="5.64142">
        <ele>771.1</ele>
        <time>2023-04-06T11:12:22Z</time>
      </trkpt>
      <trkpt lat="44.32762" lon="5.64136">
        <ele>771.2</ele>
        <time>2023-04-06T11:12:23Z</time>
      </trkpt>
      <trkpt lat="44.32765" lon="5.64131">
        <ele>771.2</ele>
        <time>2023-04-06T11:12:24Z</time>
      </trkpt>
      <trkpt lat="44.32767" lon="5.64126">
        <ele>771.3</ele>
        <time>2023-04-06T11:12:25Z</time>
      </trkpt>
      <trkpt lat="44.32772" lon="5.64115">
        <ele>771.3</ele>
        <time>2023-04-06T11:12:27Z</time>
      </trkpt>
      <trkpt lat="44.32775" lon="5.6411">
        <ele>771.3</ele>
        <time>2023-04-06T11:12:28Z</time>
      </trkpt>
      <trkpt lat="44.32778" lon="5.64105">
        <ele>771.4</ele>
        <time>2023-04-06T11:12:29Z</time>
      </trkpt>
      <trkpt lat="44.32781" lon="5.64101">
        <ele>771.4</ele>
        <time>2023-04-06T11:12:30Z</time>
      </trkpt>
      <trkpt lat="44.32785" lon="5.64097">
        <ele>771.4</ele>
        <time>2023-04-06T11:12:31Z</time>
      </trkpt>
      <trkpt lat="44.32788" lon="5.64092">
        <ele>771.5</ele>
        <time>2023-04-06T11:12:32Z</time>
      </trkpt>
      <trkpt lat="44.32792" lon="5.64088">
        <ele>771.5</ele>
        <time>2023-04-06T11:12:33Z</time>
      </trkpt>
      <trkpt lat="44.32794" lon="5.64084">
        <ele>771.5</ele>
        <time>2023-04-06T11:12:34Z</time>
      </trkpt>
      <trkpt lat="44.32798" lon="5.64079">
        <ele>771.6</ele>
        <time>2023-04-06T11:12:35Z</time>
      </trkpt>
      <trkpt lat="44.328" lon="5.64076">
        <ele>771.6</ele>
        <time>2023-04-06T11:12:36Z</time>
      </trkpt>
      <trkpt lat="44.32805" lon="5.64069">
        <ele>771.7</ele>
        <time>2023-04-06T11:12:38Z</time>
      </trkpt>
      <trkpt lat="44.32807" lon="5.64065">
        <ele>771.8</ele>
        <time>2023-04-06T11:12:39Z</time>
      </trkpt>
      <trkpt lat="44.32809" lon="5.6406">
        <ele>771.8</ele>
        <time>2023-04-06T11:12:40Z</time>
      </trkpt>
      <trkpt lat="44.32811" lon="5.64056">
        <ele>771.9</ele>
        <time>2023-04-06T11:12:41Z</time>
      </trkpt>
      <trkpt lat="44.32812" lon="5.64052">
        <ele>771.9</ele>
        <time>2023-04-06T11:12:42Z</time>
      </trkpt>
      <trkpt lat="44.32815" lon="5.64043">
        <ele>772</ele>
        <time>2023-04-06T11:12:44Z</time>
      </trkpt>
      <trkpt lat="44.32817" lon="5.64039">
        <ele>772.1</ele>
        <time>2023-04-06T11:12:45Z</time>
      </trkpt>
      <trkpt lat="44.32819" lon="5.64036">
        <ele>772.2</ele>
        <time>2023-04-06T11:12:46Z</time>
      </trkpt>
      <trkpt lat="44.3282" lon="5.64032">
        <ele>772.2</ele>
        <time>2023-04-06T11:12:47Z</time>
      </trkpt>
      <trkpt lat="44.32822" lon="5.64028">
        <ele>772.3</ele>
        <time>2023-04-06T11:12:48Z</time>
      </trkpt>
      <trkpt lat="44.32823" lon="5.64024">
        <ele>772.4</ele>
        <time>2023-04-06T11:12:49Z</time>
      </trkpt>
      <trkpt lat="44.32825" lon="5.6402">
        <ele>772.4</ele>
        <time>2023-04-06T11:12:50Z</time>
      </trkpt>
      <trkpt lat="44.32826" lon="5.64016">
        <ele>772.5</ele>
        <time>2023-04-06T11:12:51Z</time>
      </trkpt>
      <trkpt lat="44.32827" lon="5.64012">
        <ele>772.5</ele>
        <time>2023-04-06T11:12:52Z</time>
      </trkpt>
      <trkpt lat="44.32828" lon="5.64008">
        <ele>772.6</ele>
        <time>2023-04-06T11:12:53Z</time>
      </trkpt>
      <trkpt lat="44.3283" lon="5.64004">
        <ele>772.6</ele>
        <time>2023-04-06T11:12:55Z</time>
      </trkpt>
      <trkpt lat="44.32832" lon="5.64005">
        <ele>772.7</ele>
        <time>2023-04-06T11:12:56Z</time>
      </trkpt>
      <trkpt lat="44.32833" lon="5.64005">
        <ele>772.7</ele>
        <time>2023-04-06T11:12:57Z</time>
      </trkpt>
      <trkpt lat="44.32836" lon="5.64006">
        <ele>772.7</ele>
        <time>2023-04-06T11:12:58Z</time>
      </trkpt>
      <trkpt lat="44.32837" lon="5.64007">
        <ele>772.7</ele>
        <time>2023-04-06T11:12:59Z</time>
      </trkpt>
      <trkpt lat="44.32837" lon="5.64007">
        <ele>772.7</ele>
        <time>2023-04-06T11:13:00Z</time>
      </trkpt>
      <trkpt lat="44.32837" lon="5.64007">
        <ele>772.7</ele>
        <time>2023-04-06T11:13:01Z</time>
      </trkpt>
      <trkpt lat="44.32837" lon="5.64007">
        <ele>772.7</ele>
        <time>2023-04-06T11:13:02Z</time>
      </trkpt>
      <trkpt lat="44.32836" lon="5.64007">
        <ele>772.7</ele>
        <time>2023-04-06T11:13:03Z</time>
      </trkpt>
      <trkpt lat="44.32836" lon="5.64007">
        <ele>772.7</ele>
        <time>2023-04-06T11:13:04Z</time>
      </trkpt>
      <trkpt lat="44.32836" lon="5.64007">
        <ele>772.7</ele>
        <time>2023-04-06T11:13:05Z</time>
      </trkpt>
      <trkpt lat="44.32836" lon="5.64007">
        <ele>772.7</ele>
        <time>2023-04-06T11:13:06Z</time>
      </trkpt>
      <trkpt lat="44.32836" lon="5.64007">
        <ele>772.7</ele>
        <time>2023-04-06T11:13:07Z</time>
      </trkpt>
      <trkpt lat="44.32836" lon="5.64007">
        <ele>772.7</ele>
        <time>2023-04-06T11:13:08Z</time>
      </trkpt>
      <trkpt lat="44.32836" lon="5.64007">
        <ele>772.7</ele>
        <time>2023-04-06T11:13:09Z</time>
      </trkpt>
      <trkpt lat="44.32836" lon="5.64007">
        <ele>772.7</ele>
        <time>2023-04-06T11:13:10Z</time>
      </trkpt>
      <trkpt lat="44.32838" lon="5.64003">
        <ele>772.7</ele>
        <time>2023-04-06T11:13:16Z</time>
      </trkpt>
      <trkpt lat="44.3284" lon="5.63998">
        <ele>772.7</ele>
        <time>2023-04-06T11:13:17Z</time>
      </trkpt>
      <trkpt lat="44.32842" lon="5.63993">
        <ele>772.8</ele>
        <time>2023-04-06T11:13:18Z</time>
      </trkpt>
      <trkpt lat="44.32844" lon="5.63987">
        <ele>772.8</ele>
        <time>2023-04-06T11:13:19Z</time>
      </trkpt>
      <trkpt lat="44.32846" lon="5.63982">
        <ele>772.8</ele>
        <time>2023-04-06T11:13:20Z</time>
      </trkpt>
      <trkpt lat="44.32847" lon="5.63976">
        <ele>772.8</ele>
        <time>2023-04-06T11:13:21Z</time>
      </trkpt>
      <trkpt lat="44.32849" lon="5.63971">
        <ele>772.9</ele>
        <time>2023-04-06T11:13:22Z</time>
      </trkpt>
      <trkpt lat="44.32851" lon="5.63966">
        <ele>772.9</ele>
        <time>2023-04-06T11:13:23Z</time>
      </trkpt>
      <trkpt lat="44.32852" lon="5.63962">
        <ele>772.9</ele>
        <time>2023-04-06T11:13:24Z</time>
      </trkpt>
      <trkpt lat="44.32854" lon="5.63957">
        <ele>773</ele>
        <time>2023-04-06T11:13:25Z</time>
      </trkpt>
      <trkpt lat="44.32856" lon="5.63952">
        <ele>773.1</ele>
        <time>2023-04-06T11:13:26Z</time>
      </trkpt>
      <trkpt lat="44.32858" lon="5.63947">
        <ele>773.2</ele>
        <time>2023-04-06T11:13:27Z</time>
      </trkpt>
      <trkpt lat="44.32859" lon="5.63942">
        <ele>773.2</ele>
        <time>2023-04-06T11:13:28Z</time>
      </trkpt>
      <trkpt lat="44.32859" lon="5.63937">
        <ele>773.3</ele>
        <time>2023-04-06T11:13:29Z</time>
      </trkpt>
      <trkpt lat="44.32859" lon="5.63932">
        <ele>773.4</ele>
        <time>2023-04-06T11:13:30Z</time>
      </trkpt>
      <trkpt lat="44.32859" lon="5.63926">
        <ele>773.5</ele>
        <time>2023-04-06T11:13:31Z</time>
      </trkpt>
      <trkpt lat="44.3286" lon="5.63921">
        <ele>773.5</ele>
        <time>2023-04-06T11:13:32Z</time>
      </trkpt>
      <trkpt lat="44.3286" lon="5.63915">
        <ele>773.6</ele>
        <time>2023-04-06T11:13:33Z</time>
      </trkpt>
      <trkpt lat="44.32861" lon="5.63909">
        <ele>773.7</ele>
        <time>2023-04-06T11:13:34Z</time>
      </trkpt>
      <trkpt lat="44.32862" lon="5.63904">
        <ele>773.8</ele>
        <time>2023-04-06T11:13:35Z</time>
      </trkpt>
      <trkpt lat="44.32863" lon="5.63899">
        <ele>773.9</ele>
        <time>2023-04-06T11:13:36Z</time>
      </trkpt>
      <trkpt lat="44.32865" lon="5.63894">
        <ele>774</ele>
        <time>2023-04-06T11:13:37Z</time>
      </trkpt>
      <trkpt lat="44.32867" lon="5.63889">
        <ele>774.1</ele>
        <time>2023-04-06T11:13:38Z</time>
      </trkpt>
      <trkpt lat="44.32869" lon="5.63883">
        <ele>774.3</ele>
        <time>2023-04-06T11:13:39Z</time>
      </trkpt>
      <trkpt lat="44.32871" lon="5.63878">
        <ele>774.4</ele>
        <time>2023-04-06T11:13:40Z</time>
      </trkpt>
      <trkpt lat="44.32873" lon="5.63874">
        <ele>774.5</ele>
        <time>2023-04-06T11:13:41Z</time>
      </trkpt>
      <trkpt lat="44.32876" lon="5.63869">
        <ele>774.6</ele>
        <time>2023-04-06T11:13:42Z</time>
      </trkpt>
      <trkpt lat="44.32878" lon="5.63865">
        <ele>774.7</ele>
        <time>2023-04-06T11:13:43Z</time>
      </trkpt>
      <trkpt lat="44.3288" lon="5.6386">
        <ele>774.8</ele>
        <time>2023-04-06T11:13:44Z</time>
      </trkpt>
      <trkpt lat="44.32882" lon="5.63855">
        <ele>774.9</ele>
        <time>2023-04-06T11:13:45Z</time>
      </trkpt>
      <trkpt lat="44.32884" lon="5.63848">
        <ele>775</ele>
        <time>2023-04-06T11:13:46Z</time>
      </trkpt>
      <trkpt lat="44.32885" lon="5.63842">
        <ele>775.1</ele>
        <time>2023-04-06T11:13:47Z</time>
      </trkpt>
      <trkpt lat="44.32886" lon="5.63836">
        <ele>775.2</ele>
        <time>2023-04-06T11:13:48Z</time>
      </trkpt>
      <trkpt lat="44.32888" lon="5.6383">
        <ele>775.3</ele>
        <time>2023-04-06T11:13:49Z</time>
      </trkpt>
      <trkpt lat="44.3289" lon="5.63824">
        <ele>775.4</ele>
        <time>2023-04-06T11:13:50Z</time>
      </trkpt>
      <trkpt lat="44.32891" lon="5.63817">
        <ele>775.6</ele>
        <time>2023-04-06T11:13:51Z</time>
      </trkpt>
      <trkpt lat="44.32893" lon="5.63811">
        <ele>775.8</ele>
        <time>2023-04-06T11:13:52Z</time>
      </trkpt>
      <trkpt lat="44.32894" lon="5.63805">
        <ele>775.9</ele>
        <time>2023-04-06T11:13:53Z</time>
      </trkpt>
      <trkpt lat="44.32897" lon="5.63797">
        <ele>776.2</ele>
        <time>2023-04-06T11:13:55Z</time>
      </trkpt>
      <trkpt lat="44.32899" lon="5.63793">
        <ele>776.3</ele>
        <time>2023-04-06T11:13:56Z</time>
      </trkpt>
      <trkpt lat="44.329" lon="5.63789">
        <ele>776.4</ele>
        <time>2023-04-06T11:13:57Z</time>
      </trkpt>
      <trkpt lat="44.32901" lon="5.63784">
        <ele>776.5</ele>
        <time>2023-04-06T11:13:58Z</time>
      </trkpt>
      <trkpt lat="44.32903" lon="5.63779">
        <ele>776.6</ele>
        <time>2023-04-06T11:13:59Z</time>
      </trkpt>
      <trkpt lat="44.32904" lon="5.63775">
        <ele>776.8</ele>
        <time>2023-04-06T11:14:00Z</time>
      </trkpt>
      <trkpt lat="44.32905" lon="5.6377">
        <ele>776.9</ele>
        <time>2023-04-06T11:14:01Z</time>
      </trkpt>
      <trkpt lat="44.32906" lon="5.63765">
        <ele>777</ele>
        <time>2023-04-06T11:14:02Z</time>
      </trkpt>
      <trkpt lat="44.32908" lon="5.6376">
        <ele>777.1</ele>
        <time>2023-04-06T11:14:03Z</time>
      </trkpt>
      <trkpt lat="44.32909" lon="5.63754">
        <ele>777.2</ele>
        <time>2023-04-06T11:14:04Z</time>
      </trkpt>
      <trkpt lat="44.3291" lon="5.63748">
        <ele>777.3</ele>
        <time>2023-04-06T11:14:05Z</time>
      </trkpt>
      <trkpt lat="44.32911" lon="5.63742">
        <ele>777.4</ele>
        <time>2023-04-06T11:14:06Z</time>
      </trkpt>
      <trkpt lat="44.32912" lon="5.63737">
        <ele>777.6</ele>
        <time>2023-04-06T11:14:07Z</time>
      </trkpt>
      <trkpt lat="44.32913" lon="5.63731">
        <ele>777.7</ele>
        <time>2023-04-06T11:14:08Z</time>
      </trkpt>
      <trkpt lat="44.32913" lon="5.63726">
        <ele>777.8</ele>
        <time>2023-04-06T11:14:09Z</time>
      </trkpt>
      <trkpt lat="44.32914" lon="5.63722">
        <ele>777.9</ele>
        <time>2023-04-06T11:14:10Z</time>
      </trkpt>
      <trkpt lat="44.32914" lon="5.63716">
        <ele>778</ele>
        <time>2023-04-06T11:14:11Z</time>
      </trkpt>
      <trkpt lat="44.32913" lon="5.63712">
        <ele>778.1</ele>
        <time>2023-04-06T11:14:12Z</time>
      </trkpt>
      <trkpt lat="44.32913" lon="5.63707">
        <ele>778.2</ele>
        <time>2023-04-06T11:14:13Z</time>
      </trkpt>
      <trkpt lat="44.32914" lon="5.63703">
        <ele>778.4</ele>
        <time>2023-04-06T11:14:14Z</time>
      </trkpt>
      <trkpt lat="44.32915" lon="5.63698">
        <ele>778.5</ele>
        <time>2023-04-06T11:14:15Z</time>
      </trkpt>
      <trkpt lat="44.32916" lon="5.63693">
        <ele>778.6</ele>
        <time>2023-04-06T11:14:16Z</time>
      </trkpt>
      <trkpt lat="44.32917" lon="5.63688">
        <ele>778.7</ele>
        <time>2023-04-06T11:14:17Z</time>
      </trkpt>
      <trkpt lat="44.32917" lon="5.63683">
        <ele>778.8</ele>
        <time>2023-04-06T11:14:18Z</time>
      </trkpt>
      <trkpt lat="44.32917" lon="5.63677">
        <ele>778.9</ele>
        <time>2023-04-06T11:14:19Z</time>
      </trkpt>
      <trkpt lat="44.32917" lon="5.63671">
        <ele>779.1</ele>
        <time>2023-04-06T11:14:20Z</time>
      </trkpt>
      <trkpt lat="44.32917" lon="5.63665">
        <ele>779.2</ele>
        <time>2023-04-06T11:14:21Z</time>
      </trkpt>
      <trkpt lat="44.32917" lon="5.6366">
        <ele>779.3</ele>
        <time>2023-04-06T11:14:22Z</time>
      </trkpt>
      <trkpt lat="44.32917" lon="5.63655">
        <ele>779.4</ele>
        <time>2023-04-06T11:14:23Z</time>
      </trkpt>
      <trkpt lat="44.32918" lon="5.63651">
        <ele>779.5</ele>
        <time>2023-04-06T11:14:24Z</time>
      </trkpt>
      <trkpt lat="44.32919" lon="5.63647">
        <ele>779.6</ele>
        <time>2023-04-06T11:14:25Z</time>
      </trkpt>
      <trkpt lat="44.3292" lon="5.63642">
        <ele>779.6</ele>
        <time>2023-04-06T11:14:26Z</time>
      </trkpt>
      <trkpt lat="44.3292" lon="5.63637">
        <ele>779.7</ele>
        <time>2023-04-06T11:14:27Z</time>
      </trkpt>
      <trkpt lat="44.3292" lon="5.63633">
        <ele>779.7</ele>
        <time>2023-04-06T11:14:28Z</time>
      </trkpt>
      <trkpt lat="44.32921" lon="5.63629">
        <ele>779.8</ele>
        <time>2023-04-06T11:14:29Z</time>
      </trkpt>
      <trkpt lat="44.32922" lon="5.63625">
        <ele>779.8</ele>
        <time>2023-04-06T11:14:30Z</time>
      </trkpt>
      <trkpt lat="44.32922" lon="5.63619">
        <ele>779.9</ele>
        <time>2023-04-06T11:14:31Z</time>
      </trkpt>
      <trkpt lat="44.32922" lon="5.63614">
        <ele>780</ele>
        <time>2023-04-06T11:14:32Z</time>
      </trkpt>
      <trkpt lat="44.32923" lon="5.63608">
        <ele>780</ele>
        <time>2023-04-06T11:14:33Z</time>
      </trkpt>
      <trkpt lat="44.32923" lon="5.63602">
        <ele>780.1</ele>
        <time>2023-04-06T11:14:34Z</time>
      </trkpt>
      <trkpt lat="44.32924" lon="5.63597">
        <ele>780.1</ele>
        <time>2023-04-06T11:14:35Z</time>
      </trkpt>
      <trkpt lat="44.32926" lon="5.63592">
        <ele>780.2</ele>
        <time>2023-04-06T11:14:36Z</time>
      </trkpt>
      <trkpt lat="44.32926" lon="5.63585">
        <ele>780.2</ele>
        <time>2023-04-06T11:14:37Z</time>
      </trkpt>
      <trkpt lat="44.32926" lon="5.63578">
        <ele>780.3</ele>
        <time>2023-04-06T11:14:38Z</time>
      </trkpt>
      <trkpt lat="44.32926" lon="5.6357">
        <ele>780.3</ele>
        <time>2023-04-06T11:14:39Z</time>
      </trkpt>
      <trkpt lat="44.32926" lon="5.63564">
        <ele>780.4</ele>
        <time>2023-04-06T11:14:40Z</time>
      </trkpt>
      <trkpt lat="44.32925" lon="5.63558">
        <ele>780.5</ele>
        <time>2023-04-06T11:14:41Z</time>
      </trkpt>
      <trkpt lat="44.32925" lon="5.63554">
        <ele>780.5</ele>
        <time>2023-04-06T11:14:42Z</time>
      </trkpt>
      <trkpt lat="44.32925" lon="5.63549">
        <ele>780.6</ele>
        <time>2023-04-06T11:14:43Z</time>
      </trkpt>
      <trkpt lat="44.32925" lon="5.63544">
        <ele>780.6</ele>
        <time>2023-04-06T11:14:44Z</time>
      </trkpt>
      <trkpt lat="44.32925" lon="5.63538">
        <ele>780.7</ele>
        <time>2023-04-06T11:14:45Z</time>
      </trkpt>
      <trkpt lat="44.32923" lon="5.63532">
        <ele>780.8</ele>
        <time>2023-04-06T11:14:46Z</time>
      </trkpt>
      <trkpt lat="44.32921" lon="5.63526">
        <ele>780.9</ele>
        <time>2023-04-06T11:14:47Z</time>
      </trkpt>
      <trkpt lat="44.32919" lon="5.63521">
        <ele>780.9</ele>
        <time>2023-04-06T11:14:48Z</time>
      </trkpt>
      <trkpt lat="44.32918" lon="5.63516">
        <ele>781</ele>
        <time>2023-04-06T11:14:49Z</time>
      </trkpt>
      <trkpt lat="44.32917" lon="5.6351">
        <ele>781.1</ele>
        <time>2023-04-06T11:14:50Z</time>
      </trkpt>
      <trkpt lat="44.32915" lon="5.63505">
        <ele>781.2</ele>
        <time>2023-04-06T11:14:51Z</time>
      </trkpt>
      <trkpt lat="44.32914" lon="5.635">
        <ele>781.2</ele>
        <time>2023-04-06T11:14:52Z</time>
      </trkpt>
      <trkpt lat="44.32912" lon="5.63494">
        <ele>781.3</ele>
        <time>2023-04-06T11:14:53Z</time>
      </trkpt>
      <trkpt lat="44.32909" lon="5.63488">
        <ele>781.4</ele>
        <time>2023-04-06T11:14:54Z</time>
      </trkpt>
      <trkpt lat="44.32906" lon="5.63483">
        <ele>781.4</ele>
        <time>2023-04-06T11:14:55Z</time>
      </trkpt>
      <trkpt lat="44.32904" lon="5.63477">
        <ele>781.5</ele>
        <time>2023-04-06T11:14:56Z</time>
      </trkpt>
      <trkpt lat="44.32902" lon="5.63472">
        <ele>781.6</ele>
        <time>2023-04-06T11:14:57Z</time>
      </trkpt>
      <trkpt lat="44.32899" lon="5.63467">
        <ele>781.7</ele>
        <time>2023-04-06T11:14:58Z</time>
      </trkpt>
      <trkpt lat="44.32896" lon="5.63462">
        <ele>781.8</ele>
        <time>2023-04-06T11:14:59Z</time>
      </trkpt>
      <trkpt lat="44.32893" lon="5.63458">
        <ele>781.8</ele>
        <time>2023-04-06T11:15:00Z</time>
      </trkpt>
      <trkpt lat="44.3289" lon="5.63453">
        <ele>781.9</ele>
        <time>2023-04-06T11:15:01Z</time>
      </trkpt>
      <trkpt lat="44.32888" lon="5.63448">
        <ele>782</ele>
        <time>2023-04-06T11:15:02Z</time>
      </trkpt>
      <trkpt lat="44.32887" lon="5.63442">
        <ele>782.1</ele>
        <time>2023-04-06T11:15:03Z</time>
      </trkpt>
      <trkpt lat="44.32887" lon="5.63437">
        <ele>782.1</ele>
        <time>2023-04-06T11:15:04Z</time>
      </trkpt>
      <trkpt lat="44.32887" lon="5.63431">
        <ele>782.2</ele>
        <time>2023-04-06T11:15:05Z</time>
      </trkpt>
      <trkpt lat="44.32887" lon="5.63426">
        <ele>782.3</ele>
        <time>2023-04-06T11:15:06Z</time>
      </trkpt>
      <trkpt lat="44.32888" lon="5.63421">
        <ele>782.4</ele>
        <time>2023-04-06T11:15:07Z</time>
      </trkpt>
      <trkpt lat="44.32889" lon="5.63417">
        <ele>782.4</ele>
        <time>2023-04-06T11:15:08Z</time>
      </trkpt>
      <trkpt lat="44.3289" lon="5.63412">
        <ele>782.5</ele>
        <time>2023-04-06T11:15:09Z</time>
      </trkpt>
      <trkpt lat="44.32891" lon="5.63407">
        <ele>782.6</ele>
        <time>2023-04-06T11:15:10Z</time>
      </trkpt>
      <trkpt lat="44.32892" lon="5.63403">
        <ele>782.7</ele>
        <time>2023-04-06T11:15:11Z</time>
      </trkpt>
      <trkpt lat="44.32893" lon="5.63399">
        <ele>782.8</ele>
        <time>2023-04-06T11:15:12Z</time>
      </trkpt>
      <trkpt lat="44.32894" lon="5.63394">
        <ele>782.9</ele>
        <time>2023-04-06T11:15:13Z</time>
      </trkpt>
      <trkpt lat="44.32896" lon="5.6339">
        <ele>783</ele>
        <time>2023-04-06T11:15:14Z</time>
      </trkpt>
      <trkpt lat="44.32897" lon="5.63386">
        <ele>783.1</ele>
        <time>2023-04-06T11:15:15Z</time>
      </trkpt>
      <trkpt lat="44.32898" lon="5.63381">
        <ele>783.2</ele>
        <time>2023-04-06T11:15:16Z</time>
      </trkpt>
      <trkpt lat="44.32899" lon="5.63376">
        <ele>783.3</ele>
        <time>2023-04-06T11:15:17Z</time>
      </trkpt>
      <trkpt lat="44.32901" lon="5.63372">
        <ele>783.4</ele>
        <time>2023-04-06T11:15:18Z</time>
      </trkpt>
      <trkpt lat="44.32903" lon="5.63367">
        <ele>783.6</ele>
        <time>2023-04-06T11:15:19Z</time>
      </trkpt>
      <trkpt lat="44.32906" lon="5.63362">
        <ele>783.7</ele>
        <time>2023-04-06T11:15:20Z</time>
      </trkpt>
      <trkpt lat="44.32908" lon="5.63358">
        <ele>783.9</ele>
        <time>2023-04-06T11:15:21Z</time>
      </trkpt>
      <trkpt lat="44.32912" lon="5.63349">
        <ele>784.1</ele>
        <time>2023-04-06T11:15:23Z</time>
      </trkpt>
      <trkpt lat="44.32913" lon="5.63344">
        <ele>784.3</ele>
        <time>2023-04-06T11:15:24Z</time>
      </trkpt>
      <trkpt lat="44.32914" lon="5.63339">
        <ele>784.4</ele>
        <time>2023-04-06T11:15:25Z</time>
      </trkpt>
      <trkpt lat="44.32914" lon="5.63333">
        <ele>784.5</ele>
        <time>2023-04-06T11:15:26Z</time>
      </trkpt>
      <trkpt lat="44.32914" lon="5.63327">
        <ele>784.7</ele>
        <time>2023-04-06T11:15:27Z</time>
      </trkpt>
      <trkpt lat="44.32914" lon="5.63321">
        <ele>784.9</ele>
        <time>2023-04-06T11:15:28Z</time>
      </trkpt>
      <trkpt lat="44.32914" lon="5.63316">
        <ele>785</ele>
        <time>2023-04-06T11:15:29Z</time>
      </trkpt>
      <trkpt lat="44.32914" lon="5.6331">
        <ele>785.1</ele>
        <time>2023-04-06T11:15:30Z</time>
      </trkpt>
      <trkpt lat="44.32914" lon="5.63305">
        <ele>785.3</ele>
        <time>2023-04-06T11:15:31Z</time>
      </trkpt>
      <trkpt lat="44.32913" lon="5.63299">
        <ele>785.4</ele>
        <time>2023-04-06T11:15:32Z</time>
      </trkpt>
      <trkpt lat="44.32912" lon="5.63294">
        <ele>785.5</ele>
        <time>2023-04-06T11:15:33Z</time>
      </trkpt>
      <trkpt lat="44.3291" lon="5.6329">
        <ele>785.6</ele>
        <time>2023-04-06T11:15:34Z</time>
      </trkpt>
      <trkpt lat="44.32909" lon="5.63286">
        <ele>785.7</ele>
        <time>2023-04-06T11:15:35Z</time>
      </trkpt>
      <trkpt lat="44.32907" lon="5.63282">
        <ele>785.9</ele>
        <time>2023-04-06T11:15:36Z</time>
      </trkpt>
      <trkpt lat="44.32905" lon="5.63278">
        <ele>786</ele>
        <time>2023-04-06T11:15:37Z</time>
      </trkpt>
      <trkpt lat="44.32903" lon="5.63274">
        <ele>786.1</ele>
        <time>2023-04-06T11:15:38Z</time>
      </trkpt>
      <trkpt lat="44.32899" lon="5.63265">
        <ele>786.4</ele>
        <time>2023-04-06T11:15:40Z</time>
      </trkpt>
      <trkpt lat="44.32897" lon="5.6326">
        <ele>786.5</ele>
        <time>2023-04-06T11:15:41Z</time>
      </trkpt>
      <trkpt lat="44.32895" lon="5.63255">
        <ele>786.7</ele>
        <time>2023-04-06T11:15:42Z</time>
      </trkpt>
      <trkpt lat="44.32892" lon="5.6325">
        <ele>786.8</ele>
        <time>2023-04-06T11:15:43Z</time>
      </trkpt>
      <trkpt lat="44.3289" lon="5.63244">
        <ele>787</ele>
        <time>2023-04-06T11:15:44Z</time>
      </trkpt>
      <trkpt lat="44.32886" lon="5.63234">
        <ele>787.6</ele>
        <time>2023-04-06T11:15:46Z</time>
      </trkpt>
      <trkpt lat="44.32886" lon="5.63229">
        <ele>787.7</ele>
        <time>2023-04-06T11:15:47Z</time>
      </trkpt>
      <trkpt lat="44.32885" lon="5.63225">
        <ele>787.7</ele>
        <time>2023-04-06T11:15:48Z</time>
      </trkpt>
      <trkpt lat="44.32886" lon="5.63222">
        <ele>787.8</ele>
        <time>2023-04-06T11:15:49Z</time>
      </trkpt>
      <trkpt lat="44.32888" lon="5.63217">
        <ele>787.9</ele>
        <time>2023-04-06T11:15:50Z</time>
      </trkpt>
      <trkpt lat="44.3289" lon="5.63212">
        <ele>788</ele>
        <time>2023-04-06T11:15:51Z</time>
      </trkpt>
      <trkpt lat="44.32892" lon="5.63207">
        <ele>788.1</ele>
        <time>2023-04-06T11:15:52Z</time>
      </trkpt>
      <trkpt lat="44.32894" lon="5.63202">
        <ele>788.2</ele>
        <time>2023-04-06T11:15:53Z</time>
      </trkpt>
      <trkpt lat="44.32895" lon="5.63197">
        <ele>788.3</ele>
        <time>2023-04-06T11:15:54Z</time>
      </trkpt>
      <trkpt lat="44.32896" lon="5.63191">
        <ele>788.5</ele>
        <time>2023-04-06T11:15:55Z</time>
      </trkpt>
      <trkpt lat="44.32896" lon="5.63184">
        <ele>788.6</ele>
        <time>2023-04-06T11:15:56Z</time>
      </trkpt>
      <trkpt lat="44.32896" lon="5.63178">
        <ele>788.8</ele>
        <time>2023-04-06T11:15:57Z</time>
      </trkpt>
      <trkpt lat="44.32896" lon="5.63173">
        <ele>788.9</ele>
        <time>2023-04-06T11:15:58Z</time>
      </trkpt>
      <trkpt lat="44.32897" lon="5.63167">
        <ele>789</ele>
        <time>2023-04-06T11:15:59Z</time>
      </trkpt>
      <trkpt lat="44.32899" lon="5.63156">
        <ele>789.3</ele>
        <time>2023-04-06T11:16:01Z</time>
      </trkpt>
      <trkpt lat="44.329" lon="5.63151">
        <ele>789.5</ele>
        <time>2023-04-06T11:16:02Z</time>
      </trkpt>
      <trkpt lat="44.329" lon="5.63145">
        <ele>789.7</ele>
        <time>2023-04-06T11:16:03Z</time>
      </trkpt>
      <trkpt lat="44.329" lon="5.63139">
        <ele>789.8</ele>
        <time>2023-04-06T11:16:04Z</time>
      </trkpt>
      <trkpt lat="44.329" lon="5.63132">
        <ele>790.1</ele>
        <time>2023-04-06T11:16:05Z</time>
      </trkpt>
      <trkpt lat="44.329" lon="5.63126">
        <ele>790.3</ele>
        <time>2023-04-06T11:16:06Z</time>
      </trkpt>
      <trkpt lat="44.329" lon="5.6312">
        <ele>790.5</ele>
        <time>2023-04-06T11:16:07Z</time>
      </trkpt>
      <trkpt lat="44.32899" lon="5.63115">
        <ele>790.8</ele>
        <time>2023-04-06T11:16:08Z</time>
      </trkpt>
      <trkpt lat="44.32897" lon="5.63109">
        <ele>791</ele>
        <time>2023-04-06T11:16:09Z</time>
      </trkpt>
      <trkpt lat="44.32895" lon="5.63103">
        <ele>791.3</ele>
        <time>2023-04-06T11:16:10Z</time>
      </trkpt>
      <trkpt lat="44.32891" lon="5.63094">
        <ele>791.8</ele>
        <time>2023-04-06T11:16:12Z</time>
      </trkpt>
      <trkpt lat="44.32889" lon="5.63089">
        <ele>792.1</ele>
        <time>2023-04-06T11:16:13Z</time>
      </trkpt>
      <trkpt lat="44.32887" lon="5.63084">
        <ele>792.4</ele>
        <time>2023-04-06T11:16:14Z</time>
      </trkpt>
      <trkpt lat="44.32885" lon="5.63079">
        <ele>792.6</ele>
        <time>2023-04-06T11:16:15Z</time>
      </trkpt>
      <trkpt lat="44.32883" lon="5.63075">
        <ele>792.8</ele>
        <time>2023-04-06T11:16:16Z</time>
      </trkpt>
      <trkpt lat="44.32881" lon="5.63071">
        <ele>793</ele>
        <time>2023-04-06T11:16:17Z</time>
      </trkpt>
      <trkpt lat="44.32879" lon="5.63067">
        <ele>793.3</ele>
        <time>2023-04-06T11:16:18Z</time>
      </trkpt>
      <trkpt lat="44.32877" lon="5.63062">
        <ele>793.5</ele>
        <time>2023-04-06T11:16:19Z</time>
      </trkpt>
      <trkpt lat="44.32875" lon="5.63058">
        <ele>793.7</ele>
        <time>2023-04-06T11:16:20Z</time>
      </trkpt>
      <trkpt lat="44.32873" lon="5.63054">
        <ele>794</ele>
        <time>2023-04-06T11:16:21Z</time>
      </trkpt>
      <trkpt lat="44.3287" lon="5.63045">
        <ele>794.4</ele>
        <time>2023-04-06T11:16:23Z</time>
      </trkpt>
      <trkpt lat="44.32869" lon="5.63041">
        <ele>794.6</ele>
        <time>2023-04-06T11:16:24Z</time>
      </trkpt>
      <trkpt lat="44.32868" lon="5.63037">
        <ele>794.8</ele>
        <time>2023-04-06T11:16:25Z</time>
      </trkpt>
      <trkpt lat="44.32866" lon="5.63032">
        <ele>794.9</ele>
        <time>2023-04-06T11:16:26Z</time>
      </trkpt>
      <trkpt lat="44.32865" lon="5.63028">
        <ele>795.1</ele>
        <time>2023-04-06T11:16:27Z</time>
      </trkpt>
      <trkpt lat="44.32864" lon="5.63024">
        <ele>795.3</ele>
        <time>2023-04-06T11:16:28Z</time>
      </trkpt>
      <trkpt lat="44.32863" lon="5.6302">
        <ele>795.4</ele>
        <time>2023-04-06T11:16:29Z</time>
      </trkpt>
      <trkpt lat="44.32862" lon="5.63016">
        <ele>795.6</ele>
        <time>2023-04-06T11:16:30Z</time>
      </trkpt>
      <trkpt lat="44.32861" lon="5.63011">
        <ele>795.7</ele>
        <time>2023-04-06T11:16:31Z</time>
      </trkpt>
      <trkpt lat="44.3286" lon="5.63007">
        <ele>795.9</ele>
        <time>2023-04-06T11:16:32Z</time>
      </trkpt>
      <trkpt lat="44.32859" lon="5.62997">
        <ele>796.2</ele>
        <time>2023-04-06T11:16:34Z</time>
      </trkpt>
      <trkpt lat="44.32858" lon="5.62993">
        <ele>796.4</ele>
        <time>2023-04-06T11:16:35Z</time>
      </trkpt>
      <trkpt lat="44.32858" lon="5.62988">
        <ele>796.5</ele>
        <time>2023-04-06T11:16:36Z</time>
      </trkpt>
      <trkpt lat="44.32857" lon="5.62983">
        <ele>796.6</ele>
        <time>2023-04-06T11:16:37Z</time>
      </trkpt>
      <trkpt lat="44.32856" lon="5.62978">
        <ele>796.8</ele>
        <time>2023-04-06T11:16:38Z</time>
      </trkpt>
      <trkpt lat="44.32855" lon="5.62973">
        <ele>796.9</ele>
        <time>2023-04-06T11:16:39Z</time>
      </trkpt>
      <trkpt lat="44.32854" lon="5.62968">
        <ele>797.1</ele>
        <time>2023-04-06T11:16:40Z</time>
      </trkpt>
      <trkpt lat="44.32852" lon="5.62963">
        <ele>797.2</ele>
        <time>2023-04-06T11:16:41Z</time>
      </trkpt>
      <trkpt lat="44.32851" lon="5.62959">
        <ele>797.3</ele>
        <time>2023-04-06T11:16:42Z</time>
      </trkpt>
      <trkpt lat="44.32849" lon="5.62954">
        <ele>797.4</ele>
        <time>2023-04-06T11:16:43Z</time>
      </trkpt>
      <trkpt lat="44.32846" lon="5.62945">
        <ele>797.7</ele>
        <time>2023-04-06T11:16:45Z</time>
      </trkpt>
      <trkpt lat="44.32845" lon="5.62941">
        <ele>797.8</ele>
        <time>2023-04-06T11:16:46Z</time>
      </trkpt>
      <trkpt lat="44.32843" lon="5.62936">
        <ele>797.9</ele>
        <time>2023-04-06T11:16:47Z</time>
      </trkpt>
      <trkpt lat="44.32842" lon="5.62931">
        <ele>798.1</ele>
        <time>2023-04-06T11:16:48Z</time>
      </trkpt>
      <trkpt lat="44.3284" lon="5.62927">
        <ele>798.2</ele>
        <time>2023-04-06T11:16:49Z</time>
      </trkpt>
      <trkpt lat="44.32838" lon="5.62922">
        <ele>798.4</ele>
        <time>2023-04-06T11:16:50Z</time>
      </trkpt>
      <trkpt lat="44.32837" lon="5.62917">
        <ele>798.5</ele>
        <time>2023-04-06T11:16:51Z</time>
      </trkpt>
      <trkpt lat="44.32835" lon="5.62913">
        <ele>798.7</ele>
        <time>2023-04-06T11:16:52Z</time>
      </trkpt>
      <trkpt lat="44.32833" lon="5.62908">
        <ele>798.8</ele>
        <time>2023-04-06T11:16:53Z</time>
      </trkpt>
      <trkpt lat="44.32832" lon="5.62904">
        <ele>799</ele>
        <time>2023-04-06T11:16:54Z</time>
      </trkpt>
      <trkpt lat="44.32829" lon="5.62895">
        <ele>799.4</ele>
        <time>2023-04-06T11:16:56Z</time>
      </trkpt>
      <trkpt lat="44.32828" lon="5.6289">
        <ele>799.5</ele>
        <time>2023-04-06T11:16:57Z</time>
      </trkpt>
      <trkpt lat="44.32827" lon="5.62885">
        <ele>799.7</ele>
        <time>2023-04-06T11:16:58Z</time>
      </trkpt>
      <trkpt lat="44.32827" lon="5.6288">
        <ele>799.9</ele>
        <time>2023-04-06T11:16:59Z</time>
      </trkpt>
      <trkpt lat="44.32826" lon="5.62876">
        <ele>800.1</ele>
        <time>2023-04-06T11:17:00Z</time>
      </trkpt>
      <trkpt lat="44.32826" lon="5.62871">
        <ele>800.3</ele>
        <time>2023-04-06T11:17:01Z</time>
      </trkpt>
      <trkpt lat="44.32825" lon="5.62869">
        <ele>800.4</ele>
        <time>2023-04-06T11:17:02Z</time>
      </trkpt>
      <trkpt lat="44.32825" lon="5.62864">
        <ele>800.6</ele>
        <time>2023-04-06T11:17:03Z</time>
      </trkpt>
      <trkpt lat="44.32824" lon="5.6286">
        <ele>800.7</ele>
        <time>2023-04-06T11:17:04Z</time>
      </trkpt>
      <trkpt lat="44.32824" lon="5.62855">
        <ele>800.9</ele>
        <time>2023-04-06T11:17:05Z</time>
      </trkpt>
      <trkpt lat="44.32823" lon="5.62846">
        <ele>801.3</ele>
        <time>2023-04-06T11:17:07Z</time>
      </trkpt>
      <trkpt lat="44.32822" lon="5.62842">
        <ele>801.5</ele>
        <time>2023-04-06T11:17:08Z</time>
      </trkpt>
      <trkpt lat="44.32821" lon="5.62838">
        <ele>801.7</ele>
        <time>2023-04-06T11:17:09Z</time>
      </trkpt>
      <trkpt lat="44.3282" lon="5.62834">
        <ele>801.8</ele>
        <time>2023-04-06T11:17:10Z</time>
      </trkpt>
      <trkpt lat="44.32819" lon="5.6283">
        <ele>802</ele>
        <time>2023-04-06T11:17:11Z</time>
      </trkpt>
      <trkpt lat="44.32818" lon="5.62822">
        <ele>802.3</ele>
        <time>2023-04-06T11:17:13Z</time>
      </trkpt>
      <trkpt lat="44.32817" lon="5.62818">
        <ele>802.5</ele>
        <time>2023-04-06T11:17:14Z</time>
      </trkpt>
      <trkpt lat="44.32816" lon="5.62813">
        <ele>802.6</ele>
        <time>2023-04-06T11:17:15Z</time>
      </trkpt>
      <trkpt lat="44.32816" lon="5.62809">
        <ele>802.8</ele>
        <time>2023-04-06T11:17:16Z</time>
      </trkpt>
      <trkpt lat="44.32815" lon="5.62805">
        <ele>802.9</ele>
        <time>2023-04-06T11:17:17Z</time>
      </trkpt>
      <trkpt lat="44.32814" lon="5.628">
        <ele>803.1</ele>
        <time>2023-04-06T11:17:18Z</time>
      </trkpt>
      <trkpt lat="44.32814" lon="5.62798">
        <ele>803.2</ele>
        <time>2023-04-06T11:17:19Z</time>
      </trkpt>
      <trkpt lat="44.32813" lon="5.62794">
        <ele>803.3</ele>
        <time>2023-04-06T11:17:20Z</time>
      </trkpt>
      <trkpt lat="44.32812" lon="5.6279">
        <ele>803.4</ele>
        <time>2023-04-06T11:17:21Z</time>
      </trkpt>
      <trkpt lat="44.32811" lon="5.62786">
        <ele>803.6</ele>
        <time>2023-04-06T11:17:22Z</time>
      </trkpt>
      <trkpt lat="44.3281" lon="5.62778">
        <ele>803.9</ele>
        <time>2023-04-06T11:17:24Z</time>
      </trkpt>
      <trkpt lat="44.32809" lon="5.62774">
        <ele>804</ele>
        <time>2023-04-06T11:17:25Z</time>
      </trkpt>
      <trkpt lat="44.32808" lon="5.6277">
        <ele>804.1</ele>
        <time>2023-04-06T11:17:26Z</time>
      </trkpt>
      <trkpt lat="44.32806" lon="5.62766">
        <ele>804.2</ele>
        <time>2023-04-06T11:17:27Z</time>
      </trkpt>
      <trkpt lat="44.32804" lon="5.62762">
        <ele>804.4</ele>
        <time>2023-04-06T11:17:28Z</time>
      </trkpt>
      <trkpt lat="44.32803" lon="5.62758">
        <ele>804.5</ele>
        <time>2023-04-06T11:17:29Z</time>
      </trkpt>
      <trkpt lat="44.32801" lon="5.62754">
        <ele>804.6</ele>
        <time>2023-04-06T11:17:30Z</time>
      </trkpt>
      <trkpt lat="44.32799" lon="5.6275">
        <ele>804.8</ele>
        <time>2023-04-06T11:17:31Z</time>
      </trkpt>
      <trkpt lat="44.32797" lon="5.62746">
        <ele>804.9</ele>
        <time>2023-04-06T11:17:32Z</time>
      </trkpt>
      <trkpt lat="44.32794" lon="5.62742">
        <ele>805</ele>
        <time>2023-04-06T11:17:33Z</time>
      </trkpt>
      <trkpt lat="44.3279" lon="5.62736">
        <ele>805.2</ele>
        <time>2023-04-06T11:17:35Z</time>
      </trkpt>
      <trkpt lat="44.32788" lon="5.62734">
        <ele>805.3</ele>
        <time>2023-04-06T11:17:36Z</time>
      </trkpt>
      <trkpt lat="44.32785" lon="5.62731">
        <ele>805.4</ele>
        <time>2023-04-06T11:17:37Z</time>
      </trkpt>
      <trkpt lat="44.32783" lon="5.62729">
        <ele>805.6</ele>
        <time>2023-04-06T11:17:38Z</time>
      </trkpt>
      <trkpt lat="44.32779" lon="5.62727">
        <ele>805.7</ele>
        <time>2023-04-06T11:17:39Z</time>
      </trkpt>
      <trkpt lat="44.32773" lon="5.62722">
        <ele>806</ele>
        <time>2023-04-06T11:17:41Z</time>
      </trkpt>
      <trkpt lat="44.32769" lon="5.62721">
        <ele>806.1</ele>
        <time>2023-04-06T11:17:42Z</time>
      </trkpt>
      <trkpt lat="44.32766" lon="5.62719">
        <ele>806.2</ele>
        <time>2023-04-06T11:17:43Z</time>
      </trkpt>
      <trkpt lat="44.32763" lon="5.62717">
        <ele>806.4</ele>
        <time>2023-04-06T11:17:44Z</time>
      </trkpt>
      <trkpt lat="44.32759" lon="5.62715">
        <ele>806.5</ele>
        <time>2023-04-06T11:17:45Z</time>
      </trkpt>
      <trkpt lat="44.32756" lon="5.62713">
        <ele>806.6</ele>
        <time>2023-04-06T11:17:46Z</time>
      </trkpt>
      <trkpt lat="44.32752" lon="5.62711">
        <ele>806.8</ele>
        <time>2023-04-06T11:17:47Z</time>
      </trkpt>
      <trkpt lat="44.32749" lon="5.6271">
        <ele>806.9</ele>
        <time>2023-04-06T11:17:48Z</time>
      </trkpt>
      <trkpt lat="44.32745" lon="5.62708">
        <ele>807.1</ele>
        <time>2023-04-06T11:17:49Z</time>
      </trkpt>
      <trkpt lat="44.32742" lon="5.62706">
        <ele>807.2</ele>
        <time>2023-04-06T11:17:50Z</time>
      </trkpt>
      <trkpt lat="44.32735" lon="5.62703">
        <ele>807.5</ele>
        <time>2023-04-06T11:17:52Z</time>
      </trkpt>
      <trkpt lat="44.32732" lon="5.627">
        <ele>807.6</ele>
        <time>2023-04-06T11:17:53Z</time>
      </trkpt>
      <trkpt lat="44.32729" lon="5.62698">
        <ele>807.8</ele>
        <time>2023-04-06T11:17:54Z</time>
      </trkpt>
      <trkpt lat="44.32725" lon="5.62696">
        <ele>807.9</ele>
        <time>2023-04-06T11:17:55Z</time>
      </trkpt>
      <trkpt lat="44.32722" lon="5.62693">
        <ele>808</ele>
        <time>2023-04-06T11:17:56Z</time>
      </trkpt>
      <trkpt lat="44.3272" lon="5.62691">
        <ele>808.2</ele>
        <time>2023-04-06T11:17:57Z</time>
      </trkpt>
      <trkpt lat="44.32717" lon="5.62688">
        <ele>808.3</ele>
        <time>2023-04-06T11:17:58Z</time>
      </trkpt>
      <trkpt lat="44.32715" lon="5.62684">
        <ele>808.4</ele>
        <time>2023-04-06T11:17:59Z</time>
      </trkpt>
      <trkpt lat="44.32712" lon="5.62681">
        <ele>808.5</ele>
        <time>2023-04-06T11:18:00Z</time>
      </trkpt>
      <trkpt lat="44.3271" lon="5.62677">
        <ele>808.6</ele>
        <time>2023-04-06T11:18:01Z</time>
      </trkpt>
      <trkpt lat="44.32708" lon="5.62674">
        <ele>808.8</ele>
        <time>2023-04-06T11:18:02Z</time>
      </trkpt>
      <trkpt lat="44.32706" lon="5.62671">
        <ele>808.9</ele>
        <time>2023-04-06T11:18:03Z</time>
      </trkpt>
      <trkpt lat="44.32704" lon="5.62667">
        <ele>809</ele>
        <time>2023-04-06T11:18:04Z</time>
      </trkpt>
      <trkpt lat="44.32702" lon="5.62664">
        <ele>809.1</ele>
        <time>2023-04-06T11:18:05Z</time>
      </trkpt>
      <trkpt lat="44.327" lon="5.6266">
        <ele>809.2</ele>
        <time>2023-04-06T11:18:06Z</time>
      </trkpt>
      <trkpt lat="44.32698" lon="5.62657">
        <ele>809.3</ele>
        <time>2023-04-06T11:18:07Z</time>
      </trkpt>
      <trkpt lat="44.32697" lon="5.62653">
        <ele>809.4</ele>
        <time>2023-04-06T11:18:08Z</time>
      </trkpt>
      <trkpt lat="44.32695" lon="5.6265">
        <ele>809.6</ele>
        <time>2023-04-06T11:18:09Z</time>
      </trkpt>
      <trkpt lat="44.32692" lon="5.62646">
        <ele>809.7</ele>
        <time>2023-04-06T11:18:10Z</time>
      </trkpt>
      <trkpt lat="44.3269" lon="5.62642">
        <ele>809.8</ele>
        <time>2023-04-06T11:18:11Z</time>
      </trkpt>
      <trkpt lat="44.32688" lon="5.62638">
        <ele>810</ele>
        <time>2023-04-06T11:18:12Z</time>
      </trkpt>
      <trkpt lat="44.32683" lon="5.62632">
        <ele>810.2</ele>
        <time>2023-04-06T11:18:14Z</time>
      </trkpt>
      <trkpt lat="44.32681" lon="5.62629">
        <ele>810.2</ele>
        <time>2023-04-06T11:18:15Z</time>
      </trkpt>
      <trkpt lat="44.32678" lon="5.62625">
        <ele>810.2</ele>
        <time>2023-04-06T11:18:16Z</time>
      </trkpt>
      <trkpt lat="44.32676" lon="5.62622">
        <ele>810.2</ele>
        <time>2023-04-06T11:18:17Z</time>
      </trkpt>
      <trkpt lat="44.32673" lon="5.62619">
        <ele>810.3</ele>
        <time>2023-04-06T11:18:18Z</time>
      </trkpt>
      <trkpt lat="44.32671" lon="5.62615">
        <ele>810.3</ele>
        <time>2023-04-06T11:18:19Z</time>
      </trkpt>
      <trkpt lat="44.32668" lon="5.62613">
        <ele>810.4</ele>
        <time>2023-04-06T11:18:20Z</time>
      </trkpt>
      <trkpt lat="44.32665" lon="5.62609">
        <ele>810.5</ele>
        <time>2023-04-06T11:18:21Z</time>
      </trkpt>
      <trkpt lat="44.32663" lon="5.62607">
        <ele>810.5</ele>
        <time>2023-04-06T11:18:22Z</time>
      </trkpt>
      <trkpt lat="44.32661" lon="5.62604">
        <ele>810.6</ele>
        <time>2023-04-06T11:18:23Z</time>
      </trkpt>
      <trkpt lat="44.32659" lon="5.626">
        <ele>810.7</ele>
        <time>2023-04-06T11:18:24Z</time>
      </trkpt>
      <trkpt lat="44.32656" lon="5.62597">
        <ele>810.8</ele>
        <time>2023-04-06T11:18:25Z</time>
      </trkpt>
      <trkpt lat="44.32654" lon="5.62593">
        <ele>810.8</ele>
        <time>2023-04-06T11:18:26Z</time>
      </trkpt>
      <trkpt lat="44.32651" lon="5.62589">
        <ele>810.9</ele>
        <time>2023-04-06T11:18:27Z</time>
      </trkpt>
      <trkpt lat="44.32649" lon="5.62585">
        <ele>811</ele>
        <time>2023-04-06T11:18:28Z</time>
      </trkpt>
      <trkpt lat="44.32646" lon="5.62579">
        <ele>811</ele>
        <time>2023-04-06T11:18:29Z</time>
      </trkpt>
      <trkpt lat="44.32644" lon="5.62575">
        <ele>811.1</ele>
        <time>2023-04-06T11:18:30Z</time>
      </trkpt>
      <trkpt lat="44.32641" lon="5.62571">
        <ele>811.1</ele>
        <time>2023-04-06T11:18:31Z</time>
      </trkpt>
      <trkpt lat="44.32639" lon="5.62567">
        <ele>811.1</ele>
        <time>2023-04-06T11:18:32Z</time>
      </trkpt>
      <trkpt lat="44.32637" lon="5.62563">
        <ele>811.2</ele>
        <time>2023-04-06T11:18:33Z</time>
      </trkpt>
      <trkpt lat="44.32635" lon="5.62558">
        <ele>811.2</ele>
        <time>2023-04-06T11:18:34Z</time>
      </trkpt>
      <trkpt lat="44.32631" lon="5.6255">
        <ele>811.3</ele>
        <time>2023-04-06T11:18:36Z</time>
      </trkpt>
      <trkpt lat="44.32629" lon="5.62546">
        <ele>811.4</ele>
        <time>2023-04-06T11:18:37Z</time>
      </trkpt>
      <trkpt lat="44.32626" lon="5.62541">
        <ele>811.5</ele>
        <time>2023-04-06T11:18:38Z</time>
      </trkpt>
      <trkpt lat="44.32623" lon="5.62537">
        <ele>811.6</ele>
        <time>2023-04-06T11:18:39Z</time>
      </trkpt>
      <trkpt lat="44.3262" lon="5.62533">
        <ele>811.7</ele>
        <time>2023-04-06T11:18:40Z</time>
      </trkpt>
      <trkpt lat="44.32618" lon="5.62529">
        <ele>811.9</ele>
        <time>2023-04-06T11:18:41Z</time>
      </trkpt>
      <trkpt lat="44.32615" lon="5.62524">
        <ele>812</ele>
        <time>2023-04-06T11:18:42Z</time>
      </trkpt>
      <trkpt lat="44.32612" lon="5.6252">
        <ele>812.2</ele>
        <time>2023-04-06T11:18:43Z</time>
      </trkpt>
      <trkpt lat="44.32609" lon="5.62516">
        <ele>812.3</ele>
        <time>2023-04-06T11:18:44Z</time>
      </trkpt>
      <trkpt lat="44.32607" lon="5.62513">
        <ele>812.5</ele>
        <time>2023-04-06T11:18:45Z</time>
      </trkpt>
      <trkpt lat="44.32604" lon="5.6251">
        <ele>812.7</ele>
        <time>2023-04-06T11:18:46Z</time>
      </trkpt>
      <trkpt lat="44.32602" lon="5.62506">
        <ele>812.8</ele>
        <time>2023-04-06T11:18:47Z</time>
      </trkpt>
      <trkpt lat="44.32599" lon="5.62503">
        <ele>813</ele>
        <time>2023-04-06T11:18:48Z</time>
      </trkpt>
      <trkpt lat="44.32596" lon="5.62499">
        <ele>813.2</ele>
        <time>2023-04-06T11:18:49Z</time>
      </trkpt>
      <trkpt lat="44.32593" lon="5.62496">
        <ele>813.3</ele>
        <time>2023-04-06T11:18:50Z</time>
      </trkpt>
      <trkpt lat="44.3259" lon="5.62493">
        <ele>813.5</ele>
        <time>2023-04-06T11:18:51Z</time>
      </trkpt>
      <trkpt lat="44.32585" lon="5.62486">
        <ele>813.9</ele>
        <time>2023-04-06T11:18:53Z</time>
      </trkpt>
      <trkpt lat="44.32582" lon="5.62482">
        <ele>814</ele>
        <time>2023-04-06T11:18:54Z</time>
      </trkpt>
      <trkpt lat="44.32579" lon="5.62479">
        <ele>814.2</ele>
        <time>2023-04-06T11:18:55Z</time>
      </trkpt>
      <trkpt lat="44.32576" lon="5.62477">
        <ele>814.4</ele>
        <time>2023-04-06T11:18:56Z</time>
      </trkpt>
      <trkpt lat="44.32574" lon="5.62475">
        <ele>814.5</ele>
        <time>2023-04-06T11:18:57Z</time>
      </trkpt>
      <trkpt lat="44.32571" lon="5.62472">
        <ele>814.7</ele>
        <time>2023-04-06T11:18:58Z</time>
      </trkpt>
      <trkpt lat="44.32568" lon="5.62469">
        <ele>814.9</ele>
        <time>2023-04-06T11:18:59Z</time>
      </trkpt>
      <trkpt lat="44.32565" lon="5.62466">
        <ele>815</ele>
        <time>2023-04-06T11:19:00Z</time>
      </trkpt>
      <trkpt lat="44.32562" lon="5.62464">
        <ele>815.2</ele>
        <time>2023-04-06T11:19:01Z</time>
      </trkpt>
      <trkpt lat="44.32559" lon="5.62462">
        <ele>815.4</ele>
        <time>2023-04-06T11:19:02Z</time>
      </trkpt>
      <trkpt lat="44.32556" lon="5.62461">
        <ele>815.5</ele>
        <time>2023-04-06T11:19:03Z</time>
      </trkpt>
      <trkpt lat="44.32552" lon="5.62459">
        <ele>815.7</ele>
        <time>2023-04-06T11:19:04Z</time>
      </trkpt>
      <trkpt lat="44.32549" lon="5.62457">
        <ele>815.9</ele>
        <time>2023-04-06T11:19:05Z</time>
      </trkpt>
      <trkpt lat="44.32546" lon="5.62454">
        <ele>816</ele>
        <time>2023-04-06T11:19:06Z</time>
      </trkpt>
      <trkpt lat="44.32543" lon="5.62452">
        <ele>816.2</ele>
        <time>2023-04-06T11:19:07Z</time>
      </trkpt>
      <trkpt lat="44.3254" lon="5.62449">
        <ele>816.4</ele>
        <time>2023-04-06T11:19:08Z</time>
      </trkpt>
      <trkpt lat="44.32537" lon="5.62446">
        <ele>816.6</ele>
        <time>2023-04-06T11:19:09Z</time>
      </trkpt>
      <trkpt lat="44.32534" lon="5.62444">
        <ele>816.8</ele>
        <time>2023-04-06T11:19:10Z</time>
      </trkpt>
      <trkpt lat="44.32531" lon="5.62441">
        <ele>817</ele>
        <time>2023-04-06T11:19:11Z</time>
      </trkpt>
      <trkpt lat="44.32528" lon="5.62438">
        <ele>817.2</ele>
        <time>2023-04-06T11:19:12Z</time>
      </trkpt>
      <trkpt lat="44.32525" lon="5.62435">
        <ele>817.4</ele>
        <time>2023-04-06T11:19:13Z</time>
      </trkpt>
      <trkpt lat="44.32522" lon="5.62432">
        <ele>817.5</ele>
        <time>2023-04-06T11:19:14Z</time>
      </trkpt>
      <trkpt lat="44.32519" lon="5.6243">
        <ele>817.7</ele>
        <time>2023-04-06T11:19:15Z</time>
      </trkpt>
      <trkpt lat="44.32516" lon="5.62427">
        <ele>817.9</ele>
        <time>2023-04-06T11:19:16Z</time>
      </trkpt>
      <trkpt lat="44.32513" lon="5.62424">
        <ele>818</ele>
        <time>2023-04-06T11:19:17Z</time>
      </trkpt>
      <trkpt lat="44.32509" lon="5.62422">
        <ele>818.2</ele>
        <time>2023-04-06T11:19:18Z</time>
      </trkpt>
      <trkpt lat="44.32506" lon="5.62419">
        <ele>818.4</ele>
        <time>2023-04-06T11:19:19Z</time>
      </trkpt>
      <trkpt lat="44.32503" lon="5.62416">
        <ele>818.4</ele>
        <time>2023-04-06T11:19:20Z</time>
      </trkpt>
      <trkpt lat="44.32499" lon="5.62413">
        <ele>818.5</ele>
        <time>2023-04-06T11:19:21Z</time>
      </trkpt>
      <trkpt lat="44.32496" lon="5.62409">
        <ele>818.6</ele>
        <time>2023-04-06T11:19:22Z</time>
      </trkpt>
      <trkpt lat="44.32492" lon="5.62405">
        <ele>818.8</ele>
        <time>2023-04-06T11:19:23Z</time>
      </trkpt>
      <trkpt lat="44.32489" lon="5.62402">
        <ele>818.9</ele>
        <time>2023-04-06T11:19:24Z</time>
      </trkpt>
      <trkpt lat="44.32486" lon="5.62398">
        <ele>819.1</ele>
        <time>2023-04-06T11:19:25Z</time>
      </trkpt>
      <trkpt lat="44.32483" lon="5.62395">
        <ele>819.2</ele>
        <time>2023-04-06T11:19:26Z</time>
      </trkpt>
      <trkpt lat="44.32481" lon="5.62392">
        <ele>819.3</ele>
        <time>2023-04-06T11:19:27Z</time>
      </trkpt>
      <trkpt lat="44.32479" lon="5.62389">
        <ele>819.5</ele>
        <time>2023-04-06T11:19:28Z</time>
      </trkpt>
      <trkpt lat="44.32476" lon="5.62385">
        <ele>819.6</ele>
        <time>2023-04-06T11:19:29Z</time>
      </trkpt>
      <trkpt lat="44.32473" lon="5.62382">
        <ele>819.8</ele>
        <time>2023-04-06T11:19:30Z</time>
      </trkpt>
      <trkpt lat="44.3247" lon="5.62379">
        <ele>819.9</ele>
        <time>2023-04-06T11:19:31Z</time>
      </trkpt>
      <trkpt lat="44.32468" lon="5.62377">
        <ele>820</ele>
        <time>2023-04-06T11:19:32Z</time>
      </trkpt>
      <trkpt lat="44.32465" lon="5.62374">
        <ele>820.2</ele>
        <time>2023-04-06T11:19:33Z</time>
      </trkpt>
      <trkpt lat="44.32463" lon="5.62371">
        <ele>820.3</ele>
        <time>2023-04-06T11:19:34Z</time>
      </trkpt>
      <trkpt lat="44.3246" lon="5.62367">
        <ele>820.5</ele>
        <time>2023-04-06T11:19:35Z</time>
      </trkpt>
      <trkpt lat="44.32458" lon="5.62364">
        <ele>820.6</ele>
        <time>2023-04-06T11:19:36Z</time>
      </trkpt>
      <trkpt lat="44.32455" lon="5.62361">
        <ele>820.8</ele>
        <time>2023-04-06T11:19:37Z</time>
      </trkpt>
      <trkpt lat="44.32453" lon="5.62357">
        <ele>820.9</ele>
        <time>2023-04-06T11:19:38Z</time>
      </trkpt>
      <trkpt lat="44.3245" lon="5.62354">
        <ele>821</ele>
        <time>2023-04-06T11:19:39Z</time>
      </trkpt>
      <trkpt lat="44.32448" lon="5.62351">
        <ele>821.1</ele>
        <time>2023-04-06T11:19:40Z</time>
      </trkpt>
      <trkpt lat="44.32446" lon="5.62348">
        <ele>821.3</ele>
        <time>2023-04-06T11:19:41Z</time>
      </trkpt>
      <trkpt lat="44.32443" lon="5.62345">
        <ele>821.4</ele>
        <time>2023-04-06T11:19:42Z</time>
      </trkpt>
      <trkpt lat="44.3244" lon="5.62342">
        <ele>821.5</ele>
        <time>2023-04-06T11:19:43Z</time>
      </trkpt>
      <trkpt lat="44.32438" lon="5.62339">
        <ele>821.6</ele>
        <time>2023-04-06T11:19:44Z</time>
      </trkpt>
      <trkpt lat="44.32435" lon="5.62335">
        <ele>821.7</ele>
        <time>2023-04-06T11:19:45Z</time>
      </trkpt>
      <trkpt lat="44.32433" lon="5.62332">
        <ele>821.8</ele>
        <time>2023-04-06T11:19:46Z</time>
      </trkpt>
      <trkpt lat="44.3243" lon="5.62328">
        <ele>821.9</ele>
        <time>2023-04-06T11:19:47Z</time>
      </trkpt>
      <trkpt lat="44.32427" lon="5.62323">
        <ele>822</ele>
        <time>2023-04-06T11:19:48Z</time>
      </trkpt>
      <trkpt lat="44.32424" lon="5.62319">
        <ele>822.1</ele>
        <time>2023-04-06T11:19:49Z</time>
      </trkpt>
      <trkpt lat="44.32421" lon="5.62315">
        <ele>822.2</ele>
        <time>2023-04-06T11:19:50Z</time>
      </trkpt>
      <trkpt lat="44.32417" lon="5.62311">
        <ele>822.3</ele>
        <time>2023-04-06T11:19:51Z</time>
      </trkpt>
      <trkpt lat="44.32414" lon="5.62307">
        <ele>822.3</ele>
        <time>2023-04-06T11:19:52Z</time>
      </trkpt>
      <trkpt lat="44.32411" lon="5.62303">
        <ele>822.4</ele>
        <time>2023-04-06T11:19:53Z</time>
      </trkpt>
      <trkpt lat="44.32408" lon="5.62299">
        <ele>822.5</ele>
        <time>2023-04-06T11:19:54Z</time>
      </trkpt>
      <trkpt lat="44.32406" lon="5.62296">
        <ele>822.6</ele>
        <time>2023-04-06T11:19:55Z</time>
      </trkpt>
      <trkpt lat="44.32403" lon="5.62292">
        <ele>822.6</ele>
        <time>2023-04-06T11:19:56Z</time>
      </trkpt>
      <trkpt lat="44.32401" lon="5.62288">
        <ele>822.7</ele>
        <time>2023-04-06T11:19:57Z</time>
      </trkpt>
      <trkpt lat="44.32398" lon="5.62283">
        <ele>822.8</ele>
        <time>2023-04-06T11:19:58Z</time>
      </trkpt>
      <trkpt lat="44.32396" lon="5.62279">
        <ele>822.9</ele>
        <time>2023-04-06T11:19:59Z</time>
      </trkpt>
      <trkpt lat="44.32393" lon="5.62275">
        <ele>822.9</ele>
        <time>2023-04-06T11:20:00Z</time>
      </trkpt>
      <trkpt lat="44.32391" lon="5.62271">
        <ele>823</ele>
        <time>2023-04-06T11:20:01Z</time>
      </trkpt>
      <trkpt lat="44.32388" lon="5.62267">
        <ele>823.1</ele>
        <time>2023-04-06T11:20:02Z</time>
      </trkpt>
      <trkpt lat="44.32386" lon="5.62264">
        <ele>823.1</ele>
        <time>2023-04-06T11:20:03Z</time>
      </trkpt>
      <trkpt lat="44.32384" lon="5.6226">
        <ele>823.2</ele>
        <time>2023-04-06T11:20:04Z</time>
      </trkpt>
      <trkpt lat="44.32381" lon="5.62257">
        <ele>823.2</ele>
        <time>2023-04-06T11:20:05Z</time>
      </trkpt>
      <trkpt lat="44.32378" lon="5.62254">
        <ele>823.3</ele>
        <time>2023-04-06T11:20:06Z</time>
      </trkpt>
      <trkpt lat="44.32376" lon="5.6225">
        <ele>823.4</ele>
        <time>2023-04-06T11:20:07Z</time>
      </trkpt>
      <trkpt lat="44.32373" lon="5.62246">
        <ele>823.5</ele>
        <time>2023-04-06T11:20:08Z</time>
      </trkpt>
      <trkpt lat="44.32371" lon="5.62242">
        <ele>823.6</ele>
        <time>2023-04-06T11:20:09Z</time>
      </trkpt>
      <trkpt lat="44.32369" lon="5.62238">
        <ele>823.7</ele>
        <time>2023-04-06T11:20:10Z</time>
      </trkpt>
      <trkpt lat="44.32367" lon="5.62234">
        <ele>823.7</ele>
        <time>2023-04-06T11:20:11Z</time>
      </trkpt>
      <trkpt lat="44.32365" lon="5.6223">
        <ele>823.8</ele>
        <time>2023-04-06T11:20:12Z</time>
      </trkpt>
      <trkpt lat="44.32363" lon="5.62226">
        <ele>823.9</ele>
        <time>2023-04-06T11:20:13Z</time>
      </trkpt>
      <trkpt lat="44.3236" lon="5.62222">
        <ele>824.1</ele>
        <time>2023-04-06T11:20:14Z</time>
      </trkpt>
      <trkpt lat="44.32358" lon="5.62218">
        <ele>824.2</ele>
        <time>2023-04-06T11:20:15Z</time>
      </trkpt>
      <trkpt lat="44.32356" lon="5.62214">
        <ele>824.3</ele>
        <time>2023-04-06T11:20:16Z</time>
      </trkpt>
      <trkpt lat="44.32354" lon="5.62211">
        <ele>824.5</ele>
        <time>2023-04-06T11:20:17Z</time>
      </trkpt>
      <trkpt lat="44.32351" lon="5.62207">
        <ele>824.6</ele>
        <time>2023-04-06T11:20:18Z</time>
      </trkpt>
      <trkpt lat="44.32349" lon="5.62204">
        <ele>824.7</ele>
        <time>2023-04-06T11:20:19Z</time>
      </trkpt>
      <trkpt lat="44.32347" lon="5.622">
        <ele>824.9</ele>
        <time>2023-04-06T11:20:20Z</time>
      </trkpt>
      <trkpt lat="44.32345" lon="5.62197">
        <ele>825</ele>
        <time>2023-04-06T11:20:21Z</time>
      </trkpt>
      <trkpt lat="44.32342" lon="5.62194">
        <ele>825.1</ele>
        <time>2023-04-06T11:20:22Z</time>
      </trkpt>
      <trkpt lat="44.3234" lon="5.62191">
        <ele>825.2</ele>
        <time>2023-04-06T11:20:23Z</time>
      </trkpt>
      <trkpt lat="44.32338" lon="5.62187">
        <ele>825.4</ele>
        <time>2023-04-06T11:20:24Z</time>
      </trkpt>
      <trkpt lat="44.32336" lon="5.62184">
        <ele>825.5</ele>
        <time>2023-04-06T11:20:25Z</time>
      </trkpt>
      <trkpt lat="44.32334" lon="5.6218">
        <ele>825.6</ele>
        <time>2023-04-06T11:20:26Z</time>
      </trkpt>
      <trkpt lat="44.32332" lon="5.62176">
        <ele>825.7</ele>
        <time>2023-04-06T11:20:27Z</time>
      </trkpt>
      <trkpt lat="44.3233" lon="5.62173">
        <ele>825.9</ele>
        <time>2023-04-06T11:20:28Z</time>
      </trkpt>
      <trkpt lat="44.32327" lon="5.6217">
        <ele>826</ele>
        <time>2023-04-06T11:20:29Z</time>
      </trkpt>
      <trkpt lat="44.32319" lon="5.62162">
        <ele>826.4</ele>
        <time>2023-04-06T11:20:32Z</time>
      </trkpt>
      <trkpt lat="44.32317" lon="5.62159">
        <ele>826.6</ele>
        <time>2023-04-06T11:20:33Z</time>
      </trkpt>
      <trkpt lat="44.32314" lon="5.62156">
        <ele>826.7</ele>
        <time>2023-04-06T11:20:34Z</time>
      </trkpt>
      <trkpt lat="44.32311" lon="5.62152">
        <ele>826.9</ele>
        <time>2023-04-06T11:20:35Z</time>
      </trkpt>
      <trkpt lat="44.32308" lon="5.6215">
        <ele>827.1</ele>
        <time>2023-04-06T11:20:36Z</time>
      </trkpt>
      <trkpt lat="44.32302" lon="5.62144">
        <ele>827.4</ele>
        <time>2023-04-06T11:20:38Z</time>
      </trkpt>
      <trkpt lat="44.32299" lon="5.62141">
        <ele>827.6</ele>
        <time>2023-04-06T11:20:39Z</time>
      </trkpt>
      <trkpt lat="44.32296" lon="5.62138">
        <ele>827.7</ele>
        <time>2023-04-06T11:20:40Z</time>
      </trkpt>
      <trkpt lat="44.32293" lon="5.62136">
        <ele>827.9</ele>
        <time>2023-04-06T11:20:41Z</time>
      </trkpt>
      <trkpt lat="44.3229" lon="5.62133">
        <ele>828.1</ele>
        <time>2023-04-06T11:20:42Z</time>
      </trkpt>
      <trkpt lat="44.32284" lon="5.62127">
        <ele>828.4</ele>
        <time>2023-04-06T11:20:44Z</time>
      </trkpt>
      <trkpt lat="44.32282" lon="5.62125">
        <ele>828.6</ele>
        <time>2023-04-06T11:20:45Z</time>
      </trkpt>
      <trkpt lat="44.32279" lon="5.62124">
        <ele>828.7</ele>
        <time>2023-04-06T11:20:46Z</time>
      </trkpt>
      <trkpt lat="44.32276" lon="5.62122">
        <ele>828.8</ele>
        <time>2023-04-06T11:20:47Z</time>
      </trkpt>
      <trkpt lat="44.32273" lon="5.6212">
        <ele>829</ele>
        <time>2023-04-06T11:20:48Z</time>
      </trkpt>
      <trkpt lat="44.3227" lon="5.62119">
        <ele>829.2</ele>
        <time>2023-04-06T11:20:49Z</time>
      </trkpt>
      <trkpt lat="44.32267" lon="5.62118">
        <ele>829.3</ele>
        <time>2023-04-06T11:20:50Z</time>
      </trkpt>
      <trkpt lat="44.32263" lon="5.62117">
        <ele>829.5</ele>
        <time>2023-04-06T11:20:51Z</time>
      </trkpt>
      <trkpt lat="44.3226" lon="5.62115">
        <ele>829.6</ele>
        <time>2023-04-06T11:20:52Z</time>
      </trkpt>
      <trkpt lat="44.32256" lon="5.62114">
        <ele>829.8</ele>
        <time>2023-04-06T11:20:53Z</time>
      </trkpt>
      <trkpt lat="44.32249" lon="5.62112">
        <ele>830.1</ele>
        <time>2023-04-06T11:20:55Z</time>
      </trkpt>
      <trkpt lat="44.32245" lon="5.62111">
        <ele>830.3</ele>
        <time>2023-04-06T11:20:56Z</time>
      </trkpt>
      <trkpt lat="44.32242" lon="5.6211">
        <ele>830.4</ele>
        <time>2023-04-06T11:20:57Z</time>
      </trkpt>
      <trkpt lat="44.32239" lon="5.62109">
        <ele>830.6</ele>
        <time>2023-04-06T11:20:58Z</time>
      </trkpt>
      <trkpt lat="44.32236" lon="5.62108">
        <ele>830.8</ele>
        <time>2023-04-06T11:20:59Z</time>
      </trkpt>
      <trkpt lat="44.32229" lon="5.62105">
        <ele>831.1</ele>
        <time>2023-04-06T11:21:01Z</time>
      </trkpt>
      <trkpt lat="44.32226" lon="5.62104">
        <ele>831.3</ele>
        <time>2023-04-06T11:21:02Z</time>
      </trkpt>
      <trkpt lat="44.32223" lon="5.62102">
        <ele>831.4</ele>
        <time>2023-04-06T11:21:03Z</time>
      </trkpt>
      <trkpt lat="44.32219" lon="5.62101">
        <ele>831.6</ele>
        <time>2023-04-06T11:21:04Z</time>
      </trkpt>
      <trkpt lat="44.32216" lon="5.62099">
        <ele>831.7</ele>
        <time>2023-04-06T11:21:05Z</time>
      </trkpt>
      <trkpt lat="44.32213" lon="5.62098">
        <ele>831.9</ele>
        <time>2023-04-06T11:21:06Z</time>
      </trkpt>
      <trkpt lat="44.32209" lon="5.62097">
        <ele>832.1</ele>
        <time>2023-04-06T11:21:07Z</time>
      </trkpt>
      <trkpt lat="44.32206" lon="5.62095">
        <ele>832.2</ele>
        <time>2023-04-06T11:21:08Z</time>
      </trkpt>
      <trkpt lat="44.32203" lon="5.62093">
        <ele>832.4</ele>
        <time>2023-04-06T11:21:09Z</time>
      </trkpt>
      <trkpt lat="44.32199" lon="5.62092">
        <ele>832.5</ele>
        <time>2023-04-06T11:21:10Z</time>
      </trkpt>
      <trkpt lat="44.32193" lon="5.6209">
        <ele>832.8</ele>
        <time>2023-04-06T11:21:12Z</time>
      </trkpt>
      <trkpt lat="44.3219" lon="5.62089">
        <ele>833</ele>
        <time>2023-04-06T11:21:13Z</time>
      </trkpt>
      <trkpt lat="44.32186" lon="5.62087">
        <ele>833.1</ele>
        <time>2023-04-06T11:21:14Z</time>
      </trkpt>
      <trkpt lat="44.32183" lon="5.62086">
        <ele>833.3</ele>
        <time>2023-04-06T11:21:15Z</time>
      </trkpt>
      <trkpt lat="44.3218" lon="5.62084">
        <ele>833.4</ele>
        <time>2023-04-06T11:21:16Z</time>
      </trkpt>
      <trkpt lat="44.32177" lon="5.62082">
        <ele>833.5</ele>
        <time>2023-04-06T11:21:17Z</time>
      </trkpt>
      <trkpt lat="44.32174" lon="5.62081">
        <ele>833.6</ele>
        <time>2023-04-06T11:21:18Z</time>
      </trkpt>
      <trkpt lat="44.32171" lon="5.6208">
        <ele>833.8</ele>
        <time>2023-04-06T11:21:19Z</time>
      </trkpt>
      <trkpt lat="44.32168" lon="5.62078">
        <ele>833.9</ele>
        <time>2023-04-06T11:21:20Z</time>
      </trkpt>
      <trkpt lat="44.32165" lon="5.62075">
        <ele>834</ele>
        <time>2023-04-06T11:21:21Z</time>
      </trkpt>
      <trkpt lat="44.3216" lon="5.62071">
        <ele>834.3</ele>
        <time>2023-04-06T11:21:23Z</time>
      </trkpt>
      <trkpt lat="44.32157" lon="5.62068">
        <ele>834.4</ele>
        <time>2023-04-06T11:21:24Z</time>
      </trkpt>
      <trkpt lat="44.32155" lon="5.62064">
        <ele>834.6</ele>
        <time>2023-04-06T11:21:25Z</time>
      </trkpt>
      <trkpt lat="44.32153" lon="5.62061">
        <ele>834.7</ele>
        <time>2023-04-06T11:21:26Z</time>
      </trkpt>
      <trkpt lat="44.3215" lon="5.62057">
        <ele>834.8</ele>
        <time>2023-04-06T11:21:27Z</time>
      </trkpt>
      <trkpt lat="44.32149" lon="5.62053">
        <ele>835</ele>
        <time>2023-04-06T11:21:28Z</time>
      </trkpt>
      <trkpt lat="44.32147" lon="5.62048">
        <ele>835.1</ele>
        <time>2023-04-06T11:21:29Z</time>
      </trkpt>
      <trkpt lat="44.32145" lon="5.62044">
        <ele>835.2</ele>
        <time>2023-04-06T11:21:30Z</time>
      </trkpt>
      <trkpt lat="44.32143" lon="5.6204">
        <ele>835.4</ele>
        <time>2023-04-06T11:21:31Z</time>
      </trkpt>
      <trkpt lat="44.3214" lon="5.6203">
        <ele>835.6</ele>
        <time>2023-04-06T11:21:33Z</time>
      </trkpt>
      <trkpt lat="44.32139" lon="5.62025">
        <ele>835.7</ele>
        <time>2023-04-06T11:21:34Z</time>
      </trkpt>
      <trkpt lat="44.32138" lon="5.62021">
        <ele>835.8</ele>
        <time>2023-04-06T11:21:35Z</time>
      </trkpt>
      <trkpt lat="44.32137" lon="5.62016">
        <ele>835.9</ele>
        <time>2023-04-06T11:21:36Z</time>
      </trkpt>
      <trkpt lat="44.32135" lon="5.62012">
        <ele>836</ele>
        <time>2023-04-06T11:21:37Z</time>
      </trkpt>
      <trkpt lat="44.32134" lon="5.62009">
        <ele>836.1</ele>
        <time>2023-04-06T11:21:38Z</time>
      </trkpt>
      <trkpt lat="44.32132" lon="5.62005">
        <ele>836.3</ele>
        <time>2023-04-06T11:21:39Z</time>
      </trkpt>
      <trkpt lat="44.32129" lon="5.62001">
        <ele>836.4</ele>
        <time>2023-04-06T11:21:40Z</time>
      </trkpt>
      <trkpt lat="44.32125" lon="5.61994">
        <ele>836.6</ele>
        <time>2023-04-06T11:21:42Z</time>
      </trkpt>
      <trkpt lat="44.32123" lon="5.61991">
        <ele>836.7</ele>
        <time>2023-04-06T11:21:43Z</time>
      </trkpt>
      <trkpt lat="44.3212" lon="5.61987">
        <ele>836.8</ele>
        <time>2023-04-06T11:21:44Z</time>
      </trkpt>
      <trkpt lat="44.32118" lon="5.61984">
        <ele>836.9</ele>
        <time>2023-04-06T11:21:45Z</time>
      </trkpt>
      <trkpt lat="44.32116" lon="5.61981">
        <ele>837</ele>
        <time>2023-04-06T11:21:46Z</time>
      </trkpt>
      <trkpt lat="44.32114" lon="5.61977">
        <ele>837.1</ele>
        <time>2023-04-06T11:21:47Z</time>
      </trkpt>
      <trkpt lat="44.32111" lon="5.61973">
        <ele>837.2</ele>
        <time>2023-04-06T11:21:48Z</time>
      </trkpt>
      <trkpt lat="44.32108" lon="5.6197">
        <ele>837.3</ele>
        <time>2023-04-06T11:21:49Z</time>
      </trkpt>
      <trkpt lat="44.32106" lon="5.61966">
        <ele>837.4</ele>
        <time>2023-04-06T11:21:50Z</time>
      </trkpt>
      <trkpt lat="44.32103" lon="5.61964">
        <ele>837.5</ele>
        <time>2023-04-06T11:21:51Z</time>
      </trkpt>
      <trkpt lat="44.321" lon="5.61961">
        <ele>837.6</ele>
        <time>2023-04-06T11:21:52Z</time>
      </trkpt>
      <trkpt lat="44.32097" lon="5.61959">
        <ele>837.7</ele>
        <time>2023-04-06T11:21:53Z</time>
      </trkpt>
      <trkpt lat="44.32095" lon="5.61957">
        <ele>837.8</ele>
        <time>2023-04-06T11:21:54Z</time>
      </trkpt>
      <trkpt lat="44.32092" lon="5.61955">
        <ele>837.9</ele>
        <time>2023-04-06T11:21:55Z</time>
      </trkpt>
      <trkpt lat="44.32089" lon="5.61953">
        <ele>838</ele>
        <time>2023-04-06T11:21:56Z</time>
      </trkpt>
      <trkpt lat="44.32086" lon="5.61951">
        <ele>838.1</ele>
        <time>2023-04-06T11:21:57Z</time>
      </trkpt>
      <trkpt lat="44.32084" lon="5.61949">
        <ele>838.2</ele>
        <time>2023-04-06T11:21:58Z</time>
      </trkpt>
      <trkpt lat="44.32081" lon="5.61947">
        <ele>838.2</ele>
        <time>2023-04-06T11:21:59Z</time>
      </trkpt>
      <trkpt lat="44.32077" lon="5.61945">
        <ele>838.3</ele>
        <time>2023-04-06T11:22:00Z</time>
      </trkpt>
      <trkpt lat="44.32074" lon="5.61944">
        <ele>838.4</ele>
        <time>2023-04-06T11:22:01Z</time>
      </trkpt>
      <trkpt lat="44.32071" lon="5.61942">
        <ele>838.5</ele>
        <time>2023-04-06T11:22:02Z</time>
      </trkpt>
      <trkpt lat="44.32068" lon="5.6194">
        <ele>838.6</ele>
        <time>2023-04-06T11:22:03Z</time>
      </trkpt>
      <trkpt lat="44.32064" lon="5.61937">
        <ele>838.7</ele>
        <time>2023-04-06T11:22:04Z</time>
      </trkpt>
      <trkpt lat="44.32062" lon="5.61934">
        <ele>838.8</ele>
        <time>2023-04-06T11:22:05Z</time>
      </trkpt>
      <trkpt lat="44.32059" lon="5.61932">
        <ele>839</ele>
        <time>2023-04-06T11:22:06Z</time>
      </trkpt>
      <trkpt lat="44.32056" lon="5.61928">
        <ele>839.1</ele>
        <time>2023-04-06T11:22:07Z</time>
      </trkpt>
      <trkpt lat="44.32053" lon="5.61925">
        <ele>839.2</ele>
        <time>2023-04-06T11:22:08Z</time>
      </trkpt>
      <trkpt lat="44.32051" lon="5.61922">
        <ele>839.3</ele>
        <time>2023-04-06T11:22:09Z</time>
      </trkpt>
      <trkpt lat="44.32049" lon="5.61919">
        <ele>839.4</ele>
        <time>2023-04-06T11:22:10Z</time>
      </trkpt>
      <trkpt lat="44.32048" lon="5.61915">
        <ele>839.5</ele>
        <time>2023-04-06T11:22:11Z</time>
      </trkpt>
      <trkpt lat="44.32046" lon="5.61911">
        <ele>839.6</ele>
        <time>2023-04-06T11:22:12Z</time>
      </trkpt>
      <trkpt lat="44.32045" lon="5.61906">
        <ele>839.7</ele>
        <time>2023-04-06T11:22:13Z</time>
      </trkpt>
      <trkpt lat="44.32044" lon="5.61901">
        <ele>839.8</ele>
        <time>2023-04-06T11:22:14Z</time>
      </trkpt>
      <trkpt lat="44.32044" lon="5.61897">
        <ele>839.9</ele>
        <time>2023-04-06T11:22:15Z</time>
      </trkpt>
      <trkpt lat="44.32043" lon="5.61893">
        <ele>840.1</ele>
        <time>2023-04-06T11:22:16Z</time>
      </trkpt>
      <trkpt lat="44.32042" lon="5.61884">
        <ele>840.3</ele>
        <time>2023-04-06T11:22:18Z</time>
      </trkpt>
      <trkpt lat="44.32041" lon="5.61879">
        <ele>840.5</ele>
        <time>2023-04-06T11:22:19Z</time>
      </trkpt>
      <trkpt lat="44.3204" lon="5.61874">
        <ele>840.7</ele>
        <time>2023-04-06T11:22:20Z</time>
      </trkpt>
      <trkpt lat="44.32038" lon="5.61869">
        <ele>840.9</ele>
        <time>2023-04-06T11:22:21Z</time>
      </trkpt>
      <trkpt lat="44.32037" lon="5.61865">
        <ele>841.1</ele>
        <time>2023-04-06T11:22:22Z</time>
      </trkpt>
      <trkpt lat="44.32036" lon="5.6186">
        <ele>841.3</ele>
        <time>2023-04-06T11:22:23Z</time>
      </trkpt>
      <trkpt lat="44.32034" lon="5.61856">
        <ele>841.6</ele>
        <time>2023-04-06T11:22:24Z</time>
      </trkpt>
      <trkpt lat="44.32032" lon="5.61851">
        <ele>841.8</ele>
        <time>2023-04-06T11:22:25Z</time>
      </trkpt>
      <trkpt lat="44.32031" lon="5.61847">
        <ele>842</ele>
        <time>2023-04-06T11:22:26Z</time>
      </trkpt>
      <trkpt lat="44.3203" lon="5.61843">
        <ele>842.2</ele>
        <time>2023-04-06T11:22:27Z</time>
      </trkpt>
      <trkpt lat="44.32027" lon="5.61835">
        <ele>842.6</ele>
        <time>2023-04-06T11:22:29Z</time>
      </trkpt>
      <trkpt lat="44.32026" lon="5.61831">
        <ele>842.8</ele>
        <time>2023-04-06T11:22:30Z</time>
      </trkpt>
      <trkpt lat="44.32024" lon="5.61827">
        <ele>843</ele>
        <time>2023-04-06T11:22:31Z</time>
      </trkpt>
      <trkpt lat="44.32022" lon="5.61823">
        <ele>843.2</ele>
        <time>2023-04-06T11:22:32Z</time>
      </trkpt>
      <trkpt lat="44.3202" lon="5.6182">
        <ele>843.4</ele>
        <time>2023-04-06T11:22:33Z</time>
      </trkpt>
      <trkpt lat="44.32017" lon="5.61817">
        <ele>843.5</ele>
        <time>2023-04-06T11:22:34Z</time>
      </trkpt>
      <trkpt lat="44.32014" lon="5.61814">
        <ele>843.7</ele>
        <time>2023-04-06T11:22:35Z</time>
      </trkpt>
      <trkpt lat="44.32011" lon="5.61811">
        <ele>843.9</ele>
        <time>2023-04-06T11:22:36Z</time>
      </trkpt>
      <trkpt lat="44.32008" lon="5.61809">
        <ele>844</ele>
        <time>2023-04-06T11:22:37Z</time>
      </trkpt>
      <trkpt lat="44.32005" lon="5.61807">
        <ele>844.1</ele>
        <time>2023-04-06T11:22:38Z</time>
      </trkpt>
      <trkpt lat="44.31999" lon="5.61803">
        <ele>844.4</ele>
        <time>2023-04-06T11:22:40Z</time>
      </trkpt>
      <trkpt lat="44.31996" lon="5.61802">
        <ele>844.5</ele>
        <time>2023-04-06T11:22:41Z</time>
      </trkpt>
      <trkpt lat="44.31992" lon="5.61801">
        <ele>844.6</ele>
        <time>2023-04-06T11:22:42Z</time>
      </trkpt>
      <trkpt lat="44.31988" lon="5.618">
        <ele>844.7</ele>
        <time>2023-04-06T11:22:43Z</time>
      </trkpt>
      <trkpt lat="44.31984" lon="5.61798">
        <ele>844.9</ele>
        <time>2023-04-06T11:22:44Z</time>
      </trkpt>
      <trkpt lat="44.31975" lon="5.61795">
        <ele>845.1</ele>
        <time>2023-04-06T11:22:46Z</time>
      </trkpt>
      <trkpt lat="44.3197" lon="5.61794">
        <ele>845.2</ele>
        <time>2023-04-06T11:22:47Z</time>
      </trkpt>
      <trkpt lat="44.31966" lon="5.61794">
        <ele>845.3</ele>
        <time>2023-04-06T11:22:48Z</time>
      </trkpt>
      <trkpt lat="44.31962" lon="5.61793">
        <ele>845.3</ele>
        <time>2023-04-06T11:22:49Z</time>
      </trkpt>
      <trkpt lat="44.31958" lon="5.61793">
        <ele>845.4</ele>
        <time>2023-04-06T11:22:50Z</time>
      </trkpt>
      <trkpt lat="44.31955" lon="5.61793">
        <ele>845.5</ele>
        <time>2023-04-06T11:22:51Z</time>
      </trkpt>
      <trkpt lat="44.31951" lon="5.61792">
        <ele>845.5</ele>
        <time>2023-04-06T11:22:52Z</time>
      </trkpt>
      <trkpt lat="44.31947" lon="5.61791">
        <ele>845.6</ele>
        <time>2023-04-06T11:22:53Z</time>
      </trkpt>
      <trkpt lat="44.31943" lon="5.6179">
        <ele>845.6</ele>
        <time>2023-04-06T11:22:54Z</time>
      </trkpt>
      <trkpt lat="44.31939" lon="5.61789">
        <ele>845.7</ele>
        <time>2023-04-06T11:22:55Z</time>
      </trkpt>
      <trkpt lat="44.31931" lon="5.61786">
        <ele>845.7</ele>
        <time>2023-04-06T11:22:57Z</time>
      </trkpt>
      <trkpt lat="44.31927" lon="5.61784">
        <ele>845.7</ele>
        <time>2023-04-06T11:22:58Z</time>
      </trkpt>
      <trkpt lat="44.31924" lon="5.61781">
        <ele>845.7</ele>
        <time>2023-04-06T11:22:59Z</time>
      </trkpt>
      <trkpt lat="44.31921" lon="5.61777">
        <ele>845.8</ele>
        <time>2023-04-06T11:23:00Z</time>
      </trkpt>
      <trkpt lat="44.31918" lon="5.61772">
        <ele>845.8</ele>
        <time>2023-04-06T11:23:01Z</time>
      </trkpt>
      <trkpt lat="44.31916" lon="5.61767">
        <ele>845.8</ele>
        <time>2023-04-06T11:23:02Z</time>
      </trkpt>
      <trkpt lat="44.31914" lon="5.61763">
        <ele>845.8</ele>
        <time>2023-04-06T11:23:03Z</time>
      </trkpt>
      <trkpt lat="44.31911" lon="5.61759">
        <ele>845.8</ele>
        <time>2023-04-06T11:23:04Z</time>
      </trkpt>
      <trkpt lat="44.31909" lon="5.61754">
        <ele>845.8</ele>
        <time>2023-04-06T11:23:05Z</time>
      </trkpt>
      <trkpt lat="44.31905" lon="5.61749">
        <ele>845.7</ele>
        <time>2023-04-06T11:23:06Z</time>
      </trkpt>
      <trkpt lat="44.31899" lon="5.6174">
        <ele>845.7</ele>
        <time>2023-04-06T11:23:08Z</time>
      </trkpt>
      <trkpt lat="44.31895" lon="5.61735">
        <ele>845.7</ele>
        <time>2023-04-06T11:23:09Z</time>
      </trkpt>
      <trkpt lat="44.31892" lon="5.6173">
        <ele>845.7</ele>
        <time>2023-04-06T11:23:10Z</time>
      </trkpt>
      <trkpt lat="44.31889" lon="5.61726">
        <ele>845.8</ele>
        <time>2023-04-06T11:23:11Z</time>
      </trkpt>
      <trkpt lat="44.31886" lon="5.61722">
        <ele>845.8</ele>
        <time>2023-04-06T11:23:12Z</time>
      </trkpt>
      <trkpt lat="44.31882" lon="5.61718">
        <ele>845.8</ele>
        <time>2023-04-06T11:23:13Z</time>
      </trkpt>
      <trkpt lat="44.31879" lon="5.61715">
        <ele>845.9</ele>
        <time>2023-04-06T11:23:14Z</time>
      </trkpt>
      <trkpt lat="44.31875" lon="5.61712">
        <ele>845.9</ele>
        <time>2023-04-06T11:23:15Z</time>
      </trkpt>
      <trkpt lat="44.31872" lon="5.6171">
        <ele>846</ele>
        <time>2023-04-06T11:23:16Z</time>
      </trkpt>
      <trkpt lat="44.31868" lon="5.61707">
        <ele>846</ele>
        <time>2023-04-06T11:23:17Z</time>
      </trkpt>
      <trkpt lat="44.31861" lon="5.61702">
        <ele>846.2</ele>
        <time>2023-04-06T11:23:19Z</time>
      </trkpt>
      <trkpt lat="44.31857" lon="5.617">
        <ele>846.3</ele>
        <time>2023-04-06T11:23:20Z</time>
      </trkpt>
      <trkpt lat="44.31853" lon="5.61697">
        <ele>846.3</ele>
        <time>2023-04-06T11:23:21Z</time>
      </trkpt>
      <trkpt lat="44.31849" lon="5.61695">
        <ele>846.4</ele>
        <time>2023-04-06T11:23:22Z</time>
      </trkpt>
      <trkpt lat="44.31845" lon="5.61692">
        <ele>846.4</ele>
        <time>2023-04-06T11:23:23Z</time>
      </trkpt>
      <trkpt lat="44.31841" lon="5.61689">
        <ele>846.5</ele>
        <time>2023-04-06T11:23:24Z</time>
      </trkpt>
      <trkpt lat="44.31837" lon="5.61686">
        <ele>846.5</ele>
        <time>2023-04-06T11:23:25Z</time>
      </trkpt>
      <trkpt lat="44.31834" lon="5.61683">
        <ele>846.5</ele>
        <time>2023-04-06T11:23:26Z</time>
      </trkpt>
      <trkpt lat="44.31831" lon="5.6168">
        <ele>846.6</ele>
        <time>2023-04-06T11:23:27Z</time>
      </trkpt>
      <trkpt lat="44.31827" lon="5.61676">
        <ele>846.6</ele>
        <time>2023-04-06T11:23:28Z</time>
      </trkpt>
      <trkpt lat="44.3182" lon="5.61669">
        <ele>846.6</ele>
        <time>2023-04-06T11:23:30Z</time>
      </trkpt>
      <trkpt lat="44.31816" lon="5.61665">
        <ele>846.5</ele>
        <time>2023-04-06T11:23:31Z</time>
      </trkpt>
      <trkpt lat="44.31812" lon="5.61661">
        <ele>846.5</ele>
        <time>2023-04-06T11:23:32Z</time>
      </trkpt>
      <trkpt lat="44.31808" lon="5.61657">
        <ele>846.5</ele>
        <time>2023-04-06T11:23:33Z</time>
      </trkpt>
      <trkpt lat="44.31804" lon="5.61652">
        <ele>846.5</ele>
        <time>2023-04-06T11:23:34Z</time>
      </trkpt>
      <trkpt lat="44.31798" lon="5.61642">
        <ele>846.4</ele>
        <time>2023-04-06T11:23:36Z</time>
      </trkpt>
      <trkpt lat="44.31795" lon="5.61636">
        <ele>846.4</ele>
        <time>2023-04-06T11:23:37Z</time>
      </trkpt>
      <trkpt lat="44.31793" lon="5.6163">
        <ele>846.3</ele>
        <time>2023-04-06T11:23:38Z</time>
      </trkpt>
      <trkpt lat="44.3179" lon="5.61623">
        <ele>846.3</ele>
        <time>2023-04-06T11:23:39Z</time>
      </trkpt>
      <trkpt lat="44.31787" lon="5.61617">
        <ele>846.3</ele>
        <time>2023-04-06T11:23:40Z</time>
      </trkpt>
      <trkpt lat="44.31782" lon="5.61605">
        <ele>846.3</ele>
        <time>2023-04-06T11:23:42Z</time>
      </trkpt>
      <trkpt lat="44.31779" lon="5.616">
        <ele>846.3</ele>
        <time>2023-04-06T11:23:43Z</time>
      </trkpt>
      <trkpt lat="44.31775" lon="5.61595">
        <ele>846.4</ele>
        <time>2023-04-06T11:23:44Z</time>
      </trkpt>
      <trkpt lat="44.31772" lon="5.61589">
        <ele>846.4</ele>
        <time>2023-04-06T11:23:45Z</time>
      </trkpt>
      <trkpt lat="44.31769" lon="5.61584">
        <ele>846.5</ele>
        <time>2023-04-06T11:23:46Z</time>
      </trkpt>
      <trkpt lat="44.31766" lon="5.61579">
        <ele>846.6</ele>
        <time>2023-04-06T11:23:47Z</time>
      </trkpt>
      <trkpt lat="44.31763" lon="5.61574">
        <ele>846.7</ele>
        <time>2023-04-06T11:23:48Z</time>
      </trkpt>
      <trkpt lat="44.3176" lon="5.61569">
        <ele>846.8</ele>
        <time>2023-04-06T11:23:49Z</time>
      </trkpt>
      <trkpt lat="44.31757" lon="5.61564">
        <ele>846.9</ele>
        <time>2023-04-06T11:23:50Z</time>
      </trkpt>
      <trkpt lat="44.31755" lon="5.61559">
        <ele>847.1</ele>
        <time>2023-04-06T11:23:51Z</time>
      </trkpt>
      <trkpt lat="44.3175" lon="5.61549">
        <ele>847.3</ele>
        <time>2023-04-06T11:23:53Z</time>
      </trkpt>
      <trkpt lat="44.31748" lon="5.61543">
        <ele>847.5</ele>
        <time>2023-04-06T11:23:54Z</time>
      </trkpt>
      <trkpt lat="44.31746" lon="5.61539">
        <ele>847.6</ele>
        <time>2023-04-06T11:23:55Z</time>
      </trkpt>
      <trkpt lat="44.31745" lon="5.61534">
        <ele>847.7</ele>
        <time>2023-04-06T11:23:56Z</time>
      </trkpt>
      <trkpt lat="44.31744" lon="5.61528">
        <ele>847.8</ele>
        <time>2023-04-06T11:23:57Z</time>
      </trkpt>
      <trkpt lat="44.31742" lon="5.61523">
        <ele>848</ele>
        <time>2023-04-06T11:23:58Z</time>
      </trkpt>
      <trkpt lat="44.3174" lon="5.61518">
        <ele>848.1</ele>
        <time>2023-04-06T11:23:59Z</time>
      </trkpt>
      <trkpt lat="44.31739" lon="5.61513">
        <ele>848.3</ele>
        <time>2023-04-06T11:24:00Z</time>
      </trkpt>
      <trkpt lat="44.31738" lon="5.61507">
        <ele>848.4</ele>
        <time>2023-04-06T11:24:01Z</time>
      </trkpt>
      <trkpt lat="44.31737" lon="5.61502">
        <ele>848.5</ele>
        <time>2023-04-06T11:24:02Z</time>
      </trkpt>
      <trkpt lat="44.31734" lon="5.61492">
        <ele>848.8</ele>
        <time>2023-04-06T11:24:04Z</time>
      </trkpt>
      <trkpt lat="44.31733" lon="5.61486">
        <ele>848.9</ele>
        <time>2023-04-06T11:24:05Z</time>
      </trkpt>
      <trkpt lat="44.31731" lon="5.61481">
        <ele>849.1</ele>
        <time>2023-04-06T11:24:06Z</time>
      </trkpt>
      <trkpt lat="44.3173" lon="5.61475">
        <ele>849.2</ele>
        <time>2023-04-06T11:24:07Z</time>
      </trkpt>
      <trkpt lat="44.31728" lon="5.6147">
        <ele>849.3</ele>
        <time>2023-04-06T11:24:08Z</time>
      </trkpt>
      <trkpt lat="44.31727" lon="5.61465">
        <ele>849.4</ele>
        <time>2023-04-06T11:24:09Z</time>
      </trkpt>
      <trkpt lat="44.31726" lon="5.61461">
        <ele>849.5</ele>
        <time>2023-04-06T11:24:10Z</time>
      </trkpt>
      <trkpt lat="44.31725" lon="5.61456">
        <ele>849.6</ele>
        <time>2023-04-06T11:24:11Z</time>
      </trkpt>
      <trkpt lat="44.31724" lon="5.61452">
        <ele>849.7</ele>
        <time>2023-04-06T11:24:12Z</time>
      </trkpt>
      <trkpt lat="44.31723" lon="5.61448">
        <ele>849.7</ele>
        <time>2023-04-06T11:24:13Z</time>
      </trkpt>
      <trkpt lat="44.31721" lon="5.61436">
        <ele>850</ele>
        <time>2023-04-06T11:24:15Z</time>
      </trkpt>
      <trkpt lat="44.3172" lon="5.61429">
        <ele>850.1</ele>
        <time>2023-04-06T11:24:16Z</time>
      </trkpt>
      <trkpt lat="44.31718" lon="5.61423">
        <ele>850.2</ele>
        <time>2023-04-06T11:24:17Z</time>
      </trkpt>
      <trkpt lat="44.31716" lon="5.61417">
        <ele>850.3</ele>
        <time>2023-04-06T11:24:18Z</time>
      </trkpt>
      <trkpt lat="44.31714" lon="5.61411">
        <ele>850.4</ele>
        <time>2023-04-06T11:24:19Z</time>
      </trkpt>
      <trkpt lat="44.31712" lon="5.61405">
        <ele>850.5</ele>
        <time>2023-04-06T11:24:20Z</time>
      </trkpt>
      <trkpt lat="44.3171" lon="5.61399">
        <ele>850.5</ele>
        <time>2023-04-06T11:24:21Z</time>
      </trkpt>
      <trkpt lat="44.31708" lon="5.61392">
        <ele>850.6</ele>
        <time>2023-04-06T11:24:22Z</time>
      </trkpt>
      <trkpt lat="44.31706" lon="5.61385">
        <ele>850.6</ele>
        <time>2023-04-06T11:24:23Z</time>
      </trkpt>
      <trkpt lat="44.31704" lon="5.61379">
        <ele>850.7</ele>
        <time>2023-04-06T11:24:24Z</time>
      </trkpt>
      <trkpt lat="44.317" lon="5.61367">
        <ele>850.8</ele>
        <time>2023-04-06T11:24:26Z</time>
      </trkpt>
      <trkpt lat="44.31699" lon="5.61361">
        <ele>850.8</ele>
        <time>2023-04-06T11:24:27Z</time>
      </trkpt>
      <trkpt lat="44.31698" lon="5.61354">
        <ele>850.9</ele>
        <time>2023-04-06T11:24:28Z</time>
      </trkpt>
      <trkpt lat="44.31696" lon="5.61348">
        <ele>850.9</ele>
        <time>2023-04-06T11:24:29Z</time>
      </trkpt>
      <trkpt lat="44.31696" lon="5.61343">
        <ele>851</ele>
        <time>2023-04-06T11:24:30Z</time>
      </trkpt>
      <trkpt lat="44.31695" lon="5.61337">
        <ele>851</ele>
        <time>2023-04-06T11:24:31Z</time>
      </trkpt>
      <trkpt lat="44.31695" lon="5.61331">
        <ele>851.1</ele>
        <time>2023-04-06T11:24:32Z</time>
      </trkpt>
      <trkpt lat="44.31694" lon="5.61325">
        <ele>851.2</ele>
        <time>2023-04-06T11:24:33Z</time>
      </trkpt>
      <trkpt lat="44.31694" lon="5.61319">
        <ele>851.3</ele>
        <time>2023-04-06T11:24:34Z</time>
      </trkpt>
      <trkpt lat="44.31693" lon="5.61313">
        <ele>851.3</ele>
        <time>2023-04-06T11:24:35Z</time>
      </trkpt>
      <trkpt lat="44.31693" lon="5.61308">
        <ele>851.4</ele>
        <time>2023-04-06T11:24:36Z</time>
      </trkpt>
      <trkpt lat="44.31693" lon="5.61302">
        <ele>851.5</ele>
        <time>2023-04-06T11:24:37Z</time>
      </trkpt>
      <trkpt lat="44.31693" lon="5.61295">
        <ele>851.6</ele>
        <time>2023-04-06T11:24:38Z</time>
      </trkpt>
      <trkpt lat="44.31693" lon="5.61289">
        <ele>851.6</ele>
        <time>2023-04-06T11:24:39Z</time>
      </trkpt>
      <trkpt lat="44.31693" lon="5.61284">
        <ele>851.7</ele>
        <time>2023-04-06T11:24:40Z</time>
      </trkpt>
      <trkpt lat="44.31693" lon="5.61279">
        <ele>851.7</ele>
        <time>2023-04-06T11:24:41Z</time>
      </trkpt>
      <trkpt lat="44.31692" lon="5.61274">
        <ele>851.7</ele>
        <time>2023-04-06T11:24:42Z</time>
      </trkpt>
      <trkpt lat="44.31691" lon="5.61269">
        <ele>851.8</ele>
        <time>2023-04-06T11:24:43Z</time>
      </trkpt>
      <trkpt lat="44.31691" lon="5.61263">
        <ele>851.8</ele>
        <time>2023-04-06T11:24:44Z</time>
      </trkpt>
      <trkpt lat="44.3169" lon="5.61258">
        <ele>851.8</ele>
        <time>2023-04-06T11:24:45Z</time>
      </trkpt>
      <trkpt lat="44.3169" lon="5.61253">
        <ele>851.9</ele>
        <time>2023-04-06T11:24:46Z</time>
      </trkpt>
      <trkpt lat="44.31689" lon="5.61247">
        <ele>851.9</ele>
        <time>2023-04-06T11:24:47Z</time>
      </trkpt>
      <trkpt lat="44.31688" lon="5.61242">
        <ele>852</ele>
        <time>2023-04-06T11:24:48Z</time>
      </trkpt>
      <trkpt lat="44.31687" lon="5.61237">
        <ele>852</ele>
        <time>2023-04-06T11:24:49Z</time>
      </trkpt>
      <trkpt lat="44.31686" lon="5.61232">
        <ele>852</ele>
        <time>2023-04-06T11:24:50Z</time>
      </trkpt>
      <trkpt lat="44.31685" lon="5.61227">
        <ele>852.1</ele>
        <time>2023-04-06T11:24:51Z</time>
      </trkpt>
      <trkpt lat="44.31684" lon="5.61221">
        <ele>852.1</ele>
        <time>2023-04-06T11:24:52Z</time>
      </trkpt>
      <trkpt lat="44.31684" lon="5.61216">
        <ele>852.2</ele>
        <time>2023-04-06T11:24:53Z</time>
      </trkpt>
      <trkpt lat="44.31684" lon="5.61211">
        <ele>852.2</ele>
        <time>2023-04-06T11:24:54Z</time>
      </trkpt>
      <trkpt lat="44.31685" lon="5.61206">
        <ele>852.3</ele>
        <time>2023-04-06T11:24:55Z</time>
      </trkpt>
      <trkpt lat="44.31686" lon="5.61202">
        <ele>852.4</ele>
        <time>2023-04-06T11:24:56Z</time>
      </trkpt>
      <trkpt lat="44.31688" lon="5.61198">
        <ele>852.4</ele>
        <time>2023-04-06T11:24:57Z</time>
      </trkpt>
      <trkpt lat="44.31689" lon="5.61197">
        <ele>852.5</ele>
        <time>2023-04-06T11:24:58Z</time>
      </trkpt>
      <trkpt lat="44.31692" lon="5.61195">
        <ele>852.5</ele>
        <time>2023-04-06T11:24:59Z</time>
      </trkpt>
      <trkpt lat="44.31693" lon="5.61194">
        <ele>852.6</ele>
        <time>2023-04-06T11:25:00Z</time>
      </trkpt>
      <trkpt lat="44.31697" lon="5.61191">
        <ele>852.6</ele>
        <time>2023-04-06T11:25:01Z</time>
      </trkpt>
      <trkpt lat="44.31697" lon="5.6119">
        <ele>852.7</ele>
        <time>2023-04-06T11:25:02Z</time>
      </trkpt>
      <trkpt lat="44.31698" lon="5.61187">
        <ele>852.7</ele>
        <time>2023-04-06T11:25:03Z</time>
      </trkpt>
      <trkpt lat="44.31697" lon="5.61186">
        <ele>852.7</ele>
        <time>2023-04-06T11:25:04Z</time>
      </trkpt>
      <trkpt lat="44.31697" lon="5.61186">
        <ele>852.7</ele>
        <time>2023-04-06T11:25:05Z</time>
      </trkpt>
      <trkpt lat="44.31697" lon="5.61186">
        <ele>852.8</ele>
        <time>2023-04-06T11:25:06Z</time>
      </trkpt>
      <trkpt lat="44.31698" lon="5.61186">
        <ele>852.8</ele>
        <time>2023-04-06T11:25:07Z</time>
      </trkpt>
      <trkpt lat="44.31698" lon="5.61187">
        <ele>852.8</ele>
        <time>2023-04-06T11:25:08Z</time>
      </trkpt>
      <trkpt lat="44.31699" lon="5.61187">
        <ele>852.8</ele>
        <time>2023-04-06T11:25:09Z</time>
      </trkpt>
      <trkpt lat="44.31699" lon="5.61186">
        <ele>852.8</ele>
        <time>2023-04-06T11:25:10Z</time>
      </trkpt>
      <trkpt lat="44.317" lon="5.61184">
        <ele>852.8</ele>
        <time>2023-04-06T11:25:11Z</time>
      </trkpt>
      <trkpt lat="44.31701" lon="5.61183">
        <ele>852.9</ele>
        <time>2023-04-06T11:25:12Z</time>
      </trkpt>
      <trkpt lat="44.31701" lon="5.61182">
        <ele>852.9</ele>
        <time>2023-04-06T11:25:13Z</time>
      </trkpt>
      <trkpt lat="44.31701" lon="5.61182">
        <ele>852.9</ele>
        <time>2023-04-06T11:25:14Z</time>
      </trkpt>
      <trkpt lat="44.31701" lon="5.61182">
        <ele>852.9</ele>
        <time>2023-04-06T11:25:15Z</time>
      </trkpt>
      <trkpt lat="44.31701" lon="5.61182">
        <ele>852.9</ele>
        <time>2023-04-06T11:25:16Z</time>
      </trkpt>
      <trkpt lat="44.31701" lon="5.61182">
        <ele>852.9</ele>
        <time>2023-04-06T11:25:17Z</time>
      </trkpt>
      <trkpt lat="44.31701" lon="5.61182">
        <ele>852.9</ele>
        <time>2023-04-06T11:25:18Z</time>
      </trkpt>
      <trkpt lat="44.31701" lon="5.61182">
        <ele>852.9</ele>
        <time>2023-04-06T11:25:19Z</time>
      </trkpt>
      <trkpt lat="44.31701" lon="5.61182">
        <ele>852.9</ele>
        <time>2023-04-06T11:25:20Z</time>
      </trkpt>
      <trkpt lat="44.31701" lon="5.61182">
        <ele>852.9</ele>
        <time>2023-04-06T11:25:21Z</time>
      </trkpt>
      <trkpt lat="44.31698" lon="5.61187">
        <ele>853</ele>
        <time>2023-04-06T11:25:41Z</time>
      </trkpt>
      <trkpt lat="44.31698" lon="5.61188">
        <ele>853</ele>
        <time>2023-04-06T11:25:42Z</time>
      </trkpt>
      <trkpt lat="44.31698" lon="5.61189">
        <ele>853.1</ele>
        <time>2023-04-06T11:25:43Z</time>
      </trkpt>
      <trkpt lat="44.31697" lon="5.61189">
        <ele>853.1</ele>
        <time>2023-04-06T11:25:44Z</time>
      </trkpt>
      <trkpt lat="44.31697" lon="5.6119">
        <ele>853.1</ele>
        <time>2023-04-06T11:25:45Z</time>
      </trkpt>
      <trkpt lat="44.31697" lon="5.6119">
        <ele>853.1</ele>
        <time>2023-04-06T11:25:46Z</time>
      </trkpt>
      <trkpt lat="44.31697" lon="5.6119">
        <ele>853.1</ele>
        <time>2023-04-06T11:25:47Z</time>
      </trkpt>
      <trkpt lat="44.31696" lon="5.61191">
        <ele>853.1</ele>
        <time>2023-04-06T11:25:48Z</time>
      </trkpt>
      <trkpt lat="44.31695" lon="5.61192">
        <ele>853.1</ele>
        <time>2023-04-06T11:25:49Z</time>
      </trkpt>
      <trkpt lat="44.31694" lon="5.61193">
        <ele>853.2</ele>
        <time>2023-04-06T11:25:50Z</time>
      </trkpt>
      <trkpt lat="44.31694" lon="5.61194">
        <ele>853.2</ele>
        <time>2023-04-06T11:25:51Z</time>
      </trkpt>
      <trkpt lat="44.31693" lon="5.61195">
        <ele>853.2</ele>
        <time>2023-04-06T11:25:52Z</time>
      </trkpt>
      <trkpt lat="44.31691" lon="5.61196">
        <ele>853.3</ele>
        <time>2023-04-06T11:25:53Z</time>
      </trkpt>
      <trkpt lat="44.3169" lon="5.61196">
        <ele>853.3</ele>
        <time>2023-04-06T11:25:54Z</time>
      </trkpt>
      <trkpt lat="44.31689" lon="5.61196">
        <ele>853.3</ele>
        <time>2023-04-06T11:25:55Z</time>
      </trkpt>
      <trkpt lat="44.31689" lon="5.61196">
        <ele>853.3</ele>
        <time>2023-04-06T11:25:56Z</time>
      </trkpt>
      <trkpt lat="44.31689" lon="5.61196">
        <ele>853.3</ele>
        <time>2023-04-06T11:25:57Z</time>
      </trkpt>
      <trkpt lat="44.31689" lon="5.61196">
        <ele>853.3</ele>
        <time>2023-04-06T11:25:58Z</time>
      </trkpt>
      <trkpt lat="44.3169" lon="5.61196">
        <ele>853.3</ele>
        <time>2023-04-06T11:25:59Z</time>
      </trkpt>
      <trkpt lat="44.3169" lon="5.61196">
        <ele>853.3</ele>
        <time>2023-04-06T11:26:00Z</time>
      </trkpt>
      <trkpt lat="44.3169" lon="5.61196">
        <ele>853.3</ele>
        <time>2023-04-06T11:26:01Z</time>
      </trkpt>
      <trkpt lat="44.3169" lon="5.61196">
        <ele>853.3</ele>
        <time>2023-04-06T11:26:02Z</time>
      </trkpt>
      <trkpt lat="44.3169" lon="5.61196">
        <ele>853.3</ele>
        <time>2023-04-06T11:26:03Z</time>
      </trkpt>
      <trkpt lat="44.3169" lon="5.61196">
        <ele>853.3</ele>
        <time>2023-04-06T11:26:04Z</time>
      </trkpt>
      <trkpt lat="44.3169" lon="5.61196">
        <ele>853.3</ele>
        <time>2023-04-06T11:26:05Z</time>
      </trkpt>
      <trkpt lat="44.3169" lon="5.61196">
        <ele>853.3</ele>
        <time>2023-04-06T11:26:06Z</time>
      </trkpt>
      <trkpt lat="44.3169" lon="5.61196">
        <ele>853.3</ele>
        <time>2023-04-06T11:26:07Z</time>
      </trkpt>
      <trkpt lat="44.3169" lon="5.61196">
        <ele>853.3</ele>
        <time>2023-04-06T11:26:08Z</time>
      </trkpt>
      <trkpt lat="44.31695" lon="5.61194">
        <ele>853.4</ele>
        <time>2023-04-06T11:26:25Z</time>
      </trkpt>
      <trkpt lat="44.31696" lon="5.61193">
        <ele>853.5</ele>
        <time>2023-04-06T11:26:26Z</time>
      </trkpt>
      <trkpt lat="44.31697" lon="5.61191">
        <ele>853.5</ele>
        <time>2023-04-06T11:26:28Z</time>
      </trkpt>
      <trkpt lat="44.31697" lon="5.61191">
        <ele>853.5</ele>
        <time>2023-04-06T11:26:29Z</time>
      </trkpt>
      <trkpt lat="44.31697" lon="5.61191">
        <ele>853.5</ele>
        <time>2023-04-06T11:26:30Z</time>
      </trkpt>
      <trkpt lat="44.31697" lon="5.61191">
        <ele>853.5</ele>
        <time>2023-04-06T11:26:31Z</time>
      </trkpt>
      <trkpt lat="44.31697" lon="5.61191">
        <ele>853.5</ele>
        <time>2023-04-06T11:26:32Z</time>
      </trkpt>
      <trkpt lat="44.31697" lon="5.61191">
        <ele>853.5</ele>
        <time>2023-04-06T11:26:33Z</time>
      </trkpt>
      <trkpt lat="44.31697" lon="5.61191">
        <ele>853.5</ele>
        <time>2023-04-06T11:26:34Z</time>
      </trkpt>
      <trkpt lat="44.31697" lon="5.61191">
        <ele>853.5</ele>
        <time>2023-04-06T11:26:35Z</time>
      </trkpt>
      <trkpt lat="44.31697" lon="5.61191">
        <ele>853.5</ele>
        <time>2023-04-06T11:26:36Z</time>
      </trkpt>
      <trkpt lat="44.31697" lon="5.61191">
        <ele>853.5</ele>
        <time>2023-04-06T11:26:37Z</time>
      </trkpt>
      <trkpt lat="44.31697" lon="5.61191">
        <ele>853.5</ele>
        <time>2023-04-06T11:26:38Z</time>
      </trkpt>
      <trkpt lat="44.31697" lon="5.61191">
        <ele>853.5</ele>
        <time>2023-04-06T11:26:39Z</time>
      </trkpt>
      <trkpt lat="44.31699" lon="5.61187">
        <ele>853.6</ele>
        <time>2023-04-06T11:26:53Z</time>
      </trkpt>
      <trkpt lat="44.31699" lon="5.61184">
        <ele>853.7</ele>
        <time>2023-04-06T11:26:55Z</time>
      </trkpt>
      <trkpt lat="44.31699" lon="5.61184">
        <ele>853.7</ele>
        <time>2023-04-06T11:26:56Z</time>
      </trkpt>
      <trkpt lat="44.31699" lon="5.61184">
        <ele>853.7</ele>
        <time>2023-04-06T11:26:57Z</time>
      </trkpt>
      <trkpt lat="44.31699" lon="5.61183">
        <ele>853.7</ele>
        <time>2023-04-06T11:26:58Z</time>
      </trkpt>
      <trkpt lat="44.317" lon="5.61181">
        <ele>853.7</ele>
        <time>2023-04-06T11:26:59Z</time>
      </trkpt>
      <trkpt lat="44.317" lon="5.6118">
        <ele>853.7</ele>
        <time>2023-04-06T11:27:00Z</time>
      </trkpt>
      <trkpt lat="44.317" lon="5.61179">
        <ele>853.8</ele>
        <time>2023-04-06T11:27:01Z</time>
      </trkpt>
      <trkpt lat="44.317" lon="5.61178">
        <ele>853.8</ele>
        <time>2023-04-06T11:27:02Z</time>
      </trkpt>
      <trkpt lat="44.317" lon="5.61178">
        <ele>853.8</ele>
        <time>2023-04-06T11:27:03Z</time>
      </trkpt>
      <trkpt lat="44.317" lon="5.61177">
        <ele>853.8</ele>
        <time>2023-04-06T11:27:04Z</time>
      </trkpt>
      <trkpt lat="44.317" lon="5.61176">
        <ele>853.8</ele>
        <time>2023-04-06T11:27:06Z</time>
      </trkpt>
      <trkpt lat="44.317" lon="5.61175">
        <ele>853.8</ele>
        <time>2023-04-06T11:27:07Z</time>
      </trkpt>
      <trkpt lat="44.317" lon="5.61174">
        <ele>853.8</ele>
        <time>2023-04-06T11:27:08Z</time>
      </trkpt>
      <trkpt lat="44.317" lon="5.61174">
        <ele>853.9</ele>
        <time>2023-04-06T11:27:09Z</time>
      </trkpt>
      <trkpt lat="44.317" lon="5.61173">
        <ele>853.9</ele>
        <time>2023-04-06T11:29:11Z</time>
      </trkpt>
      <trkpt lat="44.317" lon="5.61172">
        <ele>853.9</ele>
        <time>2023-04-06T11:29:12Z</time>
      </trkpt>
      <trkpt lat="44.317" lon="5.61171">
        <ele>853.9</ele>
        <time>2023-04-06T11:29:13Z</time>
      </trkpt>
      <trkpt lat="44.31701" lon="5.6117">
        <ele>853.9</ele>
        <time>2023-04-06T11:29:14Z</time>
      </trkpt>
      <trkpt lat="44.31701" lon="5.6117">
        <ele>853.9</ele>
        <time>2023-04-06T11:29:15Z</time>
      </trkpt>
      <trkpt lat="44.31701" lon="5.61169">
        <ele>853.9</ele>
        <time>2023-04-06T11:29:16Z</time>
      </trkpt>
      <trkpt lat="44.31701" lon="5.61168">
        <ele>854</ele>
        <time>2023-04-06T11:29:17Z</time>
      </trkpt>
      <trkpt lat="44.31701" lon="5.61167">
        <ele>854</ele>
        <time>2023-04-06T11:29:18Z</time>
      </trkpt>
      <trkpt lat="44.31701" lon="5.61166">
        <ele>854</ele>
        <time>2023-04-06T11:29:19Z</time>
      </trkpt>
      <trkpt lat="44.31701" lon="5.61166">
        <ele>854</ele>
        <time>2023-04-06T11:29:20Z</time>
      </trkpt>
      <trkpt lat="44.31701" lon="5.61165">
        <ele>854</ele>
        <time>2023-04-06T11:29:21Z</time>
      </trkpt>
      <trkpt lat="44.31701" lon="5.61164">
        <ele>854</ele>
        <time>2023-04-06T11:29:22Z</time>
      </trkpt>
      <trkpt lat="44.31701" lon="5.61163">
        <ele>854</ele>
        <time>2023-04-06T11:31:45Z</time>
      </trkpt>
      <trkpt lat="44.31701" lon="5.61162">
        <ele>854.1</ele>
        <time>2023-04-06T11:31:46Z</time>
      </trkpt>
      <trkpt lat="44.31701" lon="5.61162">
        <ele>854.1</ele>
        <time>2023-04-06T11:31:47Z</time>
      </trkpt>
      <trkpt lat="44.31703" lon="5.61157">
        <ele>854.2</ele>
        <time>2023-04-06T11:31:48Z</time>
      </trkpt>
      <trkpt lat="44.31703" lon="5.61155">
        <ele>854.2</ele>
        <time>2023-04-06T11:31:49Z</time>
      </trkpt>
      <trkpt lat="44.31705" lon="5.61151">
        <ele>854.3</ele>
        <time>2023-04-06T11:31:50Z</time>
      </trkpt>
      <trkpt lat="44.31706" lon="5.61147">
        <ele>854.4</ele>
        <time>2023-04-06T11:31:51Z</time>
      </trkpt>
      <trkpt lat="44.31708" lon="5.61143">
        <ele>854.4</ele>
        <time>2023-04-06T11:31:52Z</time>
      </trkpt>
      <trkpt lat="44.31709" lon="5.61139">
        <ele>854.5</ele>
        <time>2023-04-06T11:31:53Z</time>
      </trkpt>
      <trkpt lat="44.3171" lon="5.61136">
        <ele>854.6</ele>
        <time>2023-04-06T11:31:54Z</time>
      </trkpt>
      <trkpt lat="44.31712" lon="5.61131">
        <ele>854.7</ele>
        <time>2023-04-06T11:31:55Z</time>
      </trkpt>
      <trkpt lat="44.31712" lon="5.61129">
        <ele>854.8</ele>
        <time>2023-04-06T11:31:56Z</time>
      </trkpt>
      <trkpt lat="44.31714" lon="5.61125">
        <ele>854.9</ele>
        <time>2023-04-06T11:31:57Z</time>
      </trkpt>
      <trkpt lat="44.31715" lon="5.61124">
        <ele>854.9</ele>
        <time>2023-04-06T11:31:58Z</time>
      </trkpt>
      <trkpt lat="44.31716" lon="5.61119">
        <ele>855</ele>
        <time>2023-04-06T11:31:59Z</time>
      </trkpt>
      <trkpt lat="44.31716" lon="5.61117">
        <ele>855</ele>
        <time>2023-04-06T11:32:00Z</time>
      </trkpt>
      <trkpt lat="44.31717" lon="5.61111">
        <ele>855.2</ele>
        <time>2023-04-06T11:32:01Z</time>
      </trkpt>
      <trkpt lat="44.31717" lon="5.61109">
        <ele>855.2</ele>
        <time>2023-04-06T11:32:02Z</time>
      </trkpt>
      <trkpt lat="44.31718" lon="5.61105">
        <ele>855.3</ele>
        <time>2023-04-06T11:32:03Z</time>
      </trkpt>
      <trkpt lat="44.31719" lon="5.61101">
        <ele>855.4</ele>
        <time>2023-04-06T11:32:04Z</time>
      </trkpt>
      <trkpt lat="44.31719" lon="5.61097">
        <ele>855.5</ele>
        <time>2023-04-06T11:32:05Z</time>
      </trkpt>
      <trkpt lat="44.3172" lon="5.61092">
        <ele>855.6</ele>
        <time>2023-04-06T11:32:06Z</time>
      </trkpt>
      <trkpt lat="44.3172" lon="5.6109">
        <ele>855.7</ele>
        <time>2023-04-06T11:32:07Z</time>
      </trkpt>
      <trkpt lat="44.31721" lon="5.61085">
        <ele>855.8</ele>
        <time>2023-04-06T11:32:08Z</time>
      </trkpt>
      <trkpt lat="44.31722" lon="5.61083">
        <ele>855.9</ele>
        <time>2023-04-06T11:32:09Z</time>
      </trkpt>
      <trkpt lat="44.31722" lon="5.61078">
        <ele>856</ele>
        <time>2023-04-06T11:32:10Z</time>
      </trkpt>
      <trkpt lat="44.31723" lon="5.61076">
        <ele>856.1</ele>
        <time>2023-04-06T11:32:11Z</time>
      </trkpt>
      <trkpt lat="44.31723" lon="5.61073">
        <ele>856.2</ele>
        <time>2023-04-06T11:32:12Z</time>
      </trkpt>
      <trkpt lat="44.31723" lon="5.61069">
        <ele>856.3</ele>
        <time>2023-04-06T11:32:13Z</time>
      </trkpt>
      <trkpt lat="44.31723" lon="5.61063">
        <ele>856.5</ele>
        <time>2023-04-06T11:32:14Z</time>
      </trkpt>
      <trkpt lat="44.31723" lon="5.61062">
        <ele>856.5</ele>
        <time>2023-04-06T11:32:15Z</time>
      </trkpt>
      <trkpt lat="44.31722" lon="5.61057">
        <ele>856.7</ele>
        <time>2023-04-06T11:32:16Z</time>
      </trkpt>
      <trkpt lat="44.31721" lon="5.61056">
        <ele>856.7</ele>
        <time>2023-04-06T11:32:17Z</time>
      </trkpt>
      <trkpt lat="44.31718" lon="5.61055">
        <ele>856.9</ele>
        <time>2023-04-06T11:32:18Z</time>
      </trkpt>
      <trkpt lat="44.31714" lon="5.61053">
        <ele>857.1</ele>
        <time>2023-04-06T11:32:19Z</time>
      </trkpt>
      <trkpt lat="44.31711" lon="5.61052">
        <ele>857.2</ele>
        <time>2023-04-06T11:32:20Z</time>
      </trkpt>
      <trkpt lat="44.31709" lon="5.61051">
        <ele>857.2</ele>
        <time>2023-04-06T11:32:21Z</time>
      </trkpt>
      <trkpt lat="44.31706" lon="5.61049">
        <ele>857.3</ele>
        <time>2023-04-06T11:32:22Z</time>
      </trkpt>
      <trkpt lat="44.31703" lon="5.61048">
        <ele>857.4</ele>
        <time>2023-04-06T11:32:23Z</time>
      </trkpt>
      <trkpt lat="44.317" lon="5.61047">
        <ele>857.5</ele>
        <time>2023-04-06T11:32:24Z</time>
      </trkpt>
      <trkpt lat="44.31696" lon="5.61046">
        <ele>857.7</ele>
        <time>2023-04-06T11:32:25Z</time>
      </trkpt>
      <trkpt lat="44.31695" lon="5.61046">
        <ele>857.7</ele>
        <time>2023-04-06T11:32:26Z</time>
      </trkpt>
      <trkpt lat="44.31692" lon="5.61046">
        <ele>857.9</ele>
        <time>2023-04-06T11:32:27Z</time>
      </trkpt>
      <trkpt lat="44.31689" lon="5.61045">
        <ele>858</ele>
        <time>2023-04-06T11:32:28Z</time>
      </trkpt>
      <trkpt lat="44.31686" lon="5.61044">
        <ele>858.3</ele>
        <time>2023-04-06T11:32:29Z</time>
      </trkpt>
      <trkpt lat="44.31684" lon="5.61043">
        <ele>858.4</ele>
        <time>2023-04-06T11:32:30Z</time>
      </trkpt>
      <trkpt lat="44.31681" lon="5.61042">
        <ele>858.7</ele>
        <time>2023-04-06T11:32:31Z</time>
      </trkpt>
      <trkpt lat="44.31679" lon="5.61042">
        <ele>858.8</ele>
        <time>2023-04-06T11:32:32Z</time>
      </trkpt>
      <trkpt lat="44.31677" lon="5.6104">
        <ele>859.1</ele>
        <time>2023-04-06T11:32:33Z</time>
      </trkpt>
      <trkpt lat="44.31673" lon="5.61038">
        <ele>859.4</ele>
        <time>2023-04-06T11:32:34Z</time>
      </trkpt>
      <trkpt lat="44.31672" lon="5.61037">
        <ele>859.5</ele>
        <time>2023-04-06T11:32:35Z</time>
      </trkpt>
      <trkpt lat="44.31669" lon="5.61035">
        <ele>860</ele>
        <time>2023-04-06T11:32:36Z</time>
      </trkpt>
      <trkpt lat="44.31668" lon="5.61035">
        <ele>860.1</ele>
        <time>2023-04-06T11:32:37Z</time>
      </trkpt>
      <trkpt lat="44.31665" lon="5.61033">
        <ele>860.5</ele>
        <time>2023-04-06T11:32:38Z</time>
      </trkpt>
      <trkpt lat="44.31663" lon="5.61032">
        <ele>860.7</ele>
        <time>2023-04-06T11:32:39Z</time>
      </trkpt>
      <trkpt lat="44.31661" lon="5.6103">
        <ele>861</ele>
        <time>2023-04-06T11:32:40Z</time>
      </trkpt>
      <trkpt lat="44.31658" lon="5.61028">
        <ele>861.4</ele>
        <time>2023-04-06T11:32:41Z</time>
      </trkpt>
      <trkpt lat="44.31655" lon="5.61026">
        <ele>861.8</ele>
        <time>2023-04-06T11:32:42Z</time>
      </trkpt>
      <trkpt lat="44.31653" lon="5.61025">
        <ele>862</ele>
        <time>2023-04-06T11:32:43Z</time>
      </trkpt>
      <trkpt lat="44.3165" lon="5.61024">
        <ele>862.4</ele>
        <time>2023-04-06T11:32:44Z</time>
      </trkpt>
      <trkpt lat="44.31649" lon="5.61023">
        <ele>862.5</ele>
        <time>2023-04-06T11:32:45Z</time>
      </trkpt>
      <trkpt lat="44.31646" lon="5.61021">
        <ele>862.9</ele>
        <time>2023-04-06T11:32:46Z</time>
      </trkpt>
      <trkpt lat="44.31644" lon="5.61021">
        <ele>863.1</ele>
        <time>2023-04-06T11:32:47Z</time>
      </trkpt>
      <trkpt lat="44.31642" lon="5.6102">
        <ele>863.4</ele>
        <time>2023-04-06T11:32:48Z</time>
      </trkpt>
      <trkpt lat="44.31639" lon="5.61019">
        <ele>863.7</ele>
        <time>2023-04-06T11:32:49Z</time>
      </trkpt>
      <trkpt lat="44.31635" lon="5.61018">
        <ele>864.1</ele>
        <time>2023-04-06T11:32:50Z</time>
      </trkpt>
      <trkpt lat="44.31634" lon="5.61018">
        <ele>864.2</ele>
        <time>2023-04-06T11:32:51Z</time>
      </trkpt>
      <trkpt lat="44.31631" lon="5.61017">
        <ele>864.4</ele>
        <time>2023-04-06T11:32:52Z</time>
      </trkpt>
      <trkpt lat="44.31627" lon="5.61016">
        <ele>864.8</ele>
        <time>2023-04-06T11:32:53Z</time>
      </trkpt>
      <trkpt lat="44.31626" lon="5.61015">
        <ele>865</ele>
        <time>2023-04-06T11:32:54Z</time>
      </trkpt>
      <trkpt lat="44.31623" lon="5.61015">
        <ele>865.2</ele>
        <time>2023-04-06T11:32:55Z</time>
      </trkpt>
      <trkpt lat="44.3162" lon="5.61014">
        <ele>865.5</ele>
        <time>2023-04-06T11:32:56Z</time>
      </trkpt>
      <trkpt lat="44.31619" lon="5.61013">
        <ele>865.6</ele>
        <time>2023-04-06T11:32:57Z</time>
      </trkpt>
      <trkpt lat="44.31617" lon="5.61013">
        <ele>865.8</ele>
        <time>2023-04-06T11:32:58Z</time>
      </trkpt>
      <trkpt lat="44.31616" lon="5.61012">
        <ele>865.9</ele>
        <time>2023-04-06T11:32:59Z</time>
      </trkpt>
      <trkpt lat="44.31614" lon="5.61012">
        <ele>866</ele>
        <time>2023-04-06T11:33:00Z</time>
      </trkpt>
      <trkpt lat="44.31612" lon="5.61011">
        <ele>866.1</ele>
        <time>2023-04-06T11:33:01Z</time>
      </trkpt>
      <trkpt lat="44.3161" lon="5.61011">
        <ele>866.2</ele>
        <time>2023-04-06T11:33:02Z</time>
      </trkpt>
      <trkpt lat="44.31609" lon="5.6101">
        <ele>866.3</ele>
        <time>2023-04-06T11:33:03Z</time>
      </trkpt>
      <trkpt lat="44.31609" lon="5.61009">
        <ele>866.4</ele>
        <time>2023-04-06T11:33:04Z</time>
      </trkpt>
      <trkpt lat="44.31609" lon="5.61008">
        <ele>866.4</ele>
        <time>2023-04-06T11:33:05Z</time>
      </trkpt>
      <trkpt lat="44.31608" lon="5.61008">
        <ele>866.4</ele>
        <time>2023-04-06T11:33:06Z</time>
      </trkpt>
      <trkpt lat="44.31607" lon="5.61007">
        <ele>866.5</ele>
        <time>2023-04-06T11:33:07Z</time>
      </trkpt>
      <trkpt lat="44.31605" lon="5.61007">
        <ele>866.6</ele>
        <time>2023-04-06T11:33:08Z</time>
      </trkpt>
      <trkpt lat="44.31601" lon="5.61006">
        <ele>866.8</ele>
        <time>2023-04-06T11:33:09Z</time>
      </trkpt>
      <trkpt lat="44.316" lon="5.61005">
        <ele>866.8</ele>
        <time>2023-04-06T11:33:10Z</time>
      </trkpt>
      <trkpt lat="44.31597" lon="5.61003">
        <ele>867</ele>
        <time>2023-04-06T11:33:11Z</time>
      </trkpt>
      <trkpt lat="44.31596" lon="5.61002">
        <ele>867</ele>
        <time>2023-04-06T11:33:12Z</time>
      </trkpt>
      <trkpt lat="44.31593" lon="5.61">
        <ele>867.2</ele>
        <time>2023-04-06T11:33:13Z</time>
      </trkpt>
      <trkpt lat="44.31591" lon="5.61">
        <ele>867.3</ele>
        <time>2023-04-06T11:33:14Z</time>
      </trkpt>
      <trkpt lat="44.31588" lon="5.60999">
        <ele>867.4</ele>
        <time>2023-04-06T11:33:15Z</time>
      </trkpt>
      <trkpt lat="44.31585" lon="5.60998">
        <ele>867.5</ele>
        <time>2023-04-06T11:33:16Z</time>
      </trkpt>
      <trkpt lat="44.31582" lon="5.60997">
        <ele>867.7</ele>
        <time>2023-04-06T11:33:17Z</time>
      </trkpt>
      <trkpt lat="44.31579" lon="5.60996">
        <ele>867.9</ele>
        <time>2023-04-06T11:33:18Z</time>
      </trkpt>
      <trkpt lat="44.31573" lon="5.60995">
        <ele>868.2</ele>
        <time>2023-04-06T11:33:20Z</time>
      </trkpt>
      <trkpt lat="44.3157" lon="5.60994">
        <ele>868.4</ele>
        <time>2023-04-06T11:33:21Z</time>
      </trkpt>
      <trkpt lat="44.31568" lon="5.60994">
        <ele>868.6</ele>
        <time>2023-04-06T11:33:22Z</time>
      </trkpt>
      <trkpt lat="44.31565" lon="5.60994">
        <ele>868.8</ele>
        <time>2023-04-06T11:33:23Z</time>
      </trkpt>
      <trkpt lat="44.31562" lon="5.60994">
        <ele>869</ele>
        <time>2023-04-06T11:33:24Z</time>
      </trkpt>
      <trkpt lat="44.31559" lon="5.60993">
        <ele>869.2</ele>
        <time>2023-04-06T11:33:25Z</time>
      </trkpt>
      <trkpt lat="44.31554" lon="5.60992">
        <ele>869.7</ele>
        <time>2023-04-06T11:33:27Z</time>
      </trkpt>
      <trkpt lat="44.3155" lon="5.60991">
        <ele>870</ele>
        <time>2023-04-06T11:33:28Z</time>
      </trkpt>
      <trkpt lat="44.31549" lon="5.60991">
        <ele>870.1</ele>
        <time>2023-04-06T11:33:29Z</time>
      </trkpt>
      <trkpt lat="44.31546" lon="5.6099">
        <ele>870.3</ele>
        <time>2023-04-06T11:33:30Z</time>
      </trkpt>
      <trkpt lat="44.31543" lon="5.6099">
        <ele>870.6</ele>
        <time>2023-04-06T11:33:31Z</time>
      </trkpt>
      <trkpt lat="44.31541" lon="5.6099">
        <ele>870.8</ele>
        <time>2023-04-06T11:33:32Z</time>
      </trkpt>
      <trkpt lat="44.31537" lon="5.60989">
        <ele>871.2</ele>
        <time>2023-04-06T11:33:33Z</time>
      </trkpt>
      <trkpt lat="44.31536" lon="5.60989">
        <ele>871.3</ele>
        <time>2023-04-06T11:33:34Z</time>
      </trkpt>
      <trkpt lat="44.31533" lon="5.60987">
        <ele>872</ele>
        <time>2023-04-06T11:33:35Z</time>
      </trkpt>
      <trkpt lat="44.31532" lon="5.60986">
        <ele>872.1</ele>
        <time>2023-04-06T11:33:36Z</time>
      </trkpt>
      <trkpt lat="44.31531" lon="5.6098">
        <ele>872.8</ele>
        <time>2023-04-06T11:33:38Z</time>
      </trkpt>
      <trkpt lat="44.31531" lon="5.60976">
        <ele>873.2</ele>
        <time>2023-04-06T11:33:39Z</time>
      </trkpt>
      <trkpt lat="44.31531" lon="5.60972">
        <ele>873.6</ele>
        <time>2023-04-06T11:33:40Z</time>
      </trkpt>
      <trkpt lat="44.31531" lon="5.60968">
        <ele>874.1</ele>
        <time>2023-04-06T11:33:41Z</time>
      </trkpt>
      <trkpt lat="44.31532" lon="5.60963">
        <ele>874.6</ele>
        <time>2023-04-06T11:33:42Z</time>
      </trkpt>
      <trkpt lat="44.31533" lon="5.6096">
        <ele>875</ele>
        <time>2023-04-06T11:33:43Z</time>
      </trkpt>
      <trkpt lat="44.31534" lon="5.60956">
        <ele>875.5</ele>
        <time>2023-04-06T11:33:44Z</time>
      </trkpt>
      <trkpt lat="44.31536" lon="5.60952">
        <ele>876</ele>
        <time>2023-04-06T11:33:45Z</time>
      </trkpt>
      <trkpt lat="44.31537" lon="5.60951">
        <ele>876.2</ele>
        <time>2023-04-06T11:33:46Z</time>
      </trkpt>
      <trkpt lat="44.31539" lon="5.60949">
        <ele>876.5</ele>
        <time>2023-04-06T11:33:47Z</time>
      </trkpt>
      <trkpt lat="44.31543" lon="5.60947">
        <ele>877.2</ele>
        <time>2023-04-06T11:33:49Z</time>
      </trkpt>
      <trkpt lat="44.31546" lon="5.60947">
        <ele>877.6</ele>
        <time>2023-04-06T11:33:50Z</time>
      </trkpt>
      <trkpt lat="44.31548" lon="5.60947">
        <ele>878</ele>
        <time>2023-04-06T11:33:51Z</time>
      </trkpt>
      <trkpt lat="44.31551" lon="5.60946">
        <ele>878.4</ele>
        <time>2023-04-06T11:33:52Z</time>
      </trkpt>
      <trkpt lat="44.31554" lon="5.60946">
        <ele>878.9</ele>
        <time>2023-04-06T11:33:53Z</time>
      </trkpt>
      <trkpt lat="44.31558" lon="5.60945">
        <ele>879.4</ele>
        <time>2023-04-06T11:33:54Z</time>
      </trkpt>
      <trkpt lat="44.31559" lon="5.60945">
        <ele>879.6</ele>
        <time>2023-04-06T11:33:55Z</time>
      </trkpt>
      <trkpt lat="44.31563" lon="5.60945">
        <ele>880.2</ele>
        <time>2023-04-06T11:33:56Z</time>
      </trkpt>
      <trkpt lat="44.31564" lon="5.60945">
        <ele>880.3</ele>
        <time>2023-04-06T11:33:57Z</time>
      </trkpt>
      <trkpt lat="44.31567" lon="5.60945">
        <ele>880.7</ele>
        <time>2023-04-06T11:33:58Z</time>
      </trkpt>
      <trkpt lat="44.31571" lon="5.60946">
        <ele>881.5</ele>
        <time>2023-04-06T11:34:00Z</time>
      </trkpt>
      <trkpt lat="44.31574" lon="5.60945">
        <ele>881.8</ele>
        <time>2023-04-06T11:34:01Z</time>
      </trkpt>
      <trkpt lat="44.31577" lon="5.60945">
        <ele>882.3</ele>
        <time>2023-04-06T11:34:02Z</time>
      </trkpt>
      <trkpt lat="44.31578" lon="5.60945">
        <ele>882.5</ele>
        <time>2023-04-06T11:34:03Z</time>
      </trkpt>
      <trkpt lat="44.3158" lon="5.60944">
        <ele>882.8</ele>
        <time>2023-04-06T11:34:04Z</time>
      </trkpt>
      <trkpt lat="44.31584" lon="5.60943">
        <ele>883.5</ele>
        <time>2023-04-06T11:34:06Z</time>
      </trkpt>
      <trkpt lat="44.31587" lon="5.60943">
        <ele>883.8</ele>
        <time>2023-04-06T11:34:07Z</time>
      </trkpt>
      <trkpt lat="44.31591" lon="5.60944">
        <ele>884.4</ele>
        <time>2023-04-06T11:34:08Z</time>
      </trkpt>
      <trkpt lat="44.31592" lon="5.60945">
        <ele>884.6</ele>
        <time>2023-04-06T11:34:09Z</time>
      </trkpt>
      <trkpt lat="44.31595" lon="5.60945">
        <ele>885.1</ele>
        <time>2023-04-06T11:34:10Z</time>
      </trkpt>
      <trkpt lat="44.31601" lon="5.60946">
        <ele>886</ele>
        <time>2023-04-06T11:34:12Z</time>
      </trkpt>
      <trkpt lat="44.31604" lon="5.60947">
        <ele>886.4</ele>
        <time>2023-04-06T11:34:13Z</time>
      </trkpt>
      <trkpt lat="44.31607" lon="5.60949">
        <ele>887</ele>
        <time>2023-04-06T11:34:14Z</time>
      </trkpt>
      <trkpt lat="44.31608" lon="5.60949">
        <ele>887</ele>
        <time>2023-04-06T11:34:15Z</time>
      </trkpt>
      <trkpt lat="44.3161" lon="5.60951">
        <ele>886.8</ele>
        <time>2023-04-06T11:34:16Z</time>
      </trkpt>
      <trkpt lat="44.31611" lon="5.60951">
        <ele>886.7</ele>
        <time>2023-04-06T11:34:17Z</time>
      </trkpt>
      <trkpt lat="44.31612" lon="5.60951">
        <ele>886.5</ele>
        <time>2023-04-06T11:34:18Z</time>
      </trkpt>
      <trkpt lat="44.31614" lon="5.60949">
        <ele>886.2</ele>
        <time>2023-04-06T11:34:19Z</time>
      </trkpt>
      <trkpt lat="44.31614" lon="5.60947">
        <ele>886.1</ele>
        <time>2023-04-06T11:34:20Z</time>
      </trkpt>
      <trkpt lat="44.31614" lon="5.60945">
        <ele>885.9</ele>
        <time>2023-04-06T11:34:21Z</time>
      </trkpt>
      <trkpt lat="44.31613" lon="5.60944">
        <ele>885.7</ele>
        <time>2023-04-06T11:34:23Z</time>
      </trkpt>
      <trkpt lat="44.3161" lon="5.60944">
        <ele>885.3</ele>
        <time>2023-04-06T11:34:24Z</time>
      </trkpt>
      <trkpt lat="44.31604" lon="5.60942">
        <ele>884.7</ele>
        <time>2023-04-06T11:34:25Z</time>
      </trkpt>
      <trkpt lat="44.31598" lon="5.60942">
        <ele>884</ele>
        <time>2023-04-06T11:34:26Z</time>
      </trkpt>
      <trkpt lat="44.31593" lon="5.60942">
        <ele>883.3</ele>
        <time>2023-04-06T11:34:27Z</time>
      </trkpt>
      <trkpt lat="44.31588" lon="5.60942">
        <ele>882.7</ele>
        <time>2023-04-06T11:34:28Z</time>
      </trkpt>
      <trkpt lat="44.31583" lon="5.60943">
        <ele>882.1</ele>
        <time>2023-04-06T11:34:29Z</time>
      </trkpt>
      <trkpt lat="44.31578" lon="5.60943">
        <ele>881.5</ele>
        <time>2023-04-06T11:34:30Z</time>
      </trkpt>
      <trkpt lat="44.31573" lon="5.60942">
        <ele>880.9</ele>
        <time>2023-04-06T11:34:31Z</time>
      </trkpt>
      <trkpt lat="44.31568" lon="5.60942">
        <ele>880.3</ele>
        <time>2023-04-06T11:34:32Z</time>
      </trkpt>
      <trkpt lat="44.3156" lon="5.60944">
        <ele>879.2</ele>
        <time>2023-04-06T11:34:34Z</time>
      </trkpt>
      <trkpt lat="44.31555" lon="5.60944">
        <ele>878.7</ele>
        <time>2023-04-06T11:34:35Z</time>
      </trkpt>
      <trkpt lat="44.3155" lon="5.60944">
        <ele>878.1</ele>
        <time>2023-04-06T11:34:36Z</time>
      </trkpt>
      <trkpt lat="44.31546" lon="5.60944">
        <ele>877.6</ele>
        <time>2023-04-06T11:34:37Z</time>
      </trkpt>
      <trkpt lat="44.31542" lon="5.60945">
        <ele>877</ele>
        <time>2023-04-06T11:34:38Z</time>
      </trkpt>
      <trkpt lat="44.31538" lon="5.60946">
        <ele>876.6</ele>
        <time>2023-04-06T11:34:39Z</time>
      </trkpt>
      <trkpt lat="44.31534" lon="5.60948">
        <ele>876.1</ele>
        <time>2023-04-06T11:34:40Z</time>
      </trkpt>
      <trkpt lat="44.31532" lon="5.60954">
        <ele>875.5</ele>
        <time>2023-04-06T11:34:41Z</time>
      </trkpt>
      <trkpt lat="44.3153" lon="5.60962">
        <ele>874.8</ele>
        <time>2023-04-06T11:34:42Z</time>
      </trkpt>
      <trkpt lat="44.31529" lon="5.6097">
        <ele>874.1</ele>
        <time>2023-04-06T11:34:43Z</time>
      </trkpt>
      <trkpt lat="44.31523" lon="5.60986">
        <ele>872.1</ele>
        <time>2023-04-06T11:34:45Z</time>
      </trkpt>
      <trkpt lat="44.31518" lon="5.6099">
        <ele>872.3</ele>
        <time>2023-04-06T11:34:46Z</time>
      </trkpt>
      <trkpt lat="44.31512" lon="5.60991">
        <ele>872.5</ele>
        <time>2023-04-06T11:34:47Z</time>
      </trkpt>
      <trkpt lat="44.31508" lon="5.60992">
        <ele>872.6</ele>
        <time>2023-04-06T11:34:48Z</time>
      </trkpt>
      <trkpt lat="44.31503" lon="5.60993">
        <ele>872.7</ele>
        <time>2023-04-06T11:34:49Z</time>
      </trkpt>
      <trkpt lat="44.31496" lon="5.60995">
        <ele>872.9</ele>
        <time>2023-04-06T11:34:51Z</time>
      </trkpt>
      <trkpt lat="44.31492" lon="5.60997">
        <ele>873</ele>
        <time>2023-04-06T11:34:52Z</time>
      </trkpt>
      <trkpt lat="44.31489" lon="5.61">
        <ele>873.2</ele>
        <time>2023-04-06T11:34:53Z</time>
      </trkpt>
      <trkpt lat="44.31485" lon="5.61004">
        <ele>873.3</ele>
        <time>2023-04-06T11:34:54Z</time>
      </trkpt>
      <trkpt lat="44.31483" lon="5.61007">
        <ele>873.4</ele>
        <time>2023-04-06T11:34:55Z</time>
      </trkpt>
      <trkpt lat="44.31478" lon="5.61014">
        <ele>873.6</ele>
        <time>2023-04-06T11:34:57Z</time>
      </trkpt>
      <trkpt lat="44.31475" lon="5.61017">
        <ele>873.7</ele>
        <time>2023-04-06T11:34:58Z</time>
      </trkpt>
      <trkpt lat="44.31473" lon="5.6102">
        <ele>873.8</ele>
        <time>2023-04-06T11:34:59Z</time>
      </trkpt>
      <trkpt lat="44.3147" lon="5.61023">
        <ele>873.9</ele>
        <time>2023-04-06T11:35:00Z</time>
      </trkpt>
      <trkpt lat="44.31467" lon="5.61026">
        <ele>874</ele>
        <time>2023-04-06T11:35:01Z</time>
      </trkpt>
      <trkpt lat="44.31464" lon="5.61028">
        <ele>874.2</ele>
        <time>2023-04-06T11:35:02Z</time>
      </trkpt>
      <trkpt lat="44.31461" lon="5.61031">
        <ele>874.3</ele>
        <time>2023-04-06T11:35:03Z</time>
      </trkpt>
      <trkpt lat="44.31458" lon="5.61033">
        <ele>874.4</ele>
        <time>2023-04-06T11:35:04Z</time>
      </trkpt>
      <trkpt lat="44.31455" lon="5.61034">
        <ele>874.5</ele>
        <time>2023-04-06T11:35:05Z</time>
      </trkpt>
      <trkpt lat="44.31452" lon="5.61035">
        <ele>874.6</ele>
        <time>2023-04-06T11:35:06Z</time>
      </trkpt>
      <trkpt lat="44.31445" lon="5.61036">
        <ele>874.9</ele>
        <time>2023-04-06T11:35:08Z</time>
      </trkpt>
      <trkpt lat="44.31442" lon="5.61037">
        <ele>875.1</ele>
        <time>2023-04-06T11:35:09Z</time>
      </trkpt>
      <trkpt lat="44.31439" lon="5.61038">
        <ele>875.2</ele>
        <time>2023-04-06T11:35:10Z</time>
      </trkpt>
      <trkpt lat="44.31436" lon="5.61037">
        <ele>875.3</ele>
        <time>2023-04-06T11:35:11Z</time>
      </trkpt>
      <trkpt lat="44.31433" lon="5.61037">
        <ele>875.4</ele>
        <time>2023-04-06T11:35:12Z</time>
      </trkpt>
      <trkpt lat="44.3143" lon="5.61036">
        <ele>875.6</ele>
        <time>2023-04-06T11:35:13Z</time>
      </trkpt>
      <trkpt lat="44.31427" lon="5.61035">
        <ele>875.7</ele>
        <time>2023-04-06T11:35:14Z</time>
      </trkpt>
      <trkpt lat="44.31424" lon="5.61034">
        <ele>875.9</ele>
        <time>2023-04-06T11:35:15Z</time>
      </trkpt>
      <trkpt lat="44.31421" lon="5.61034">
        <ele>876</ele>
        <time>2023-04-06T11:35:16Z</time>
      </trkpt>
      <trkpt lat="44.31418" lon="5.61033">
        <ele>876.2</ele>
        <time>2023-04-06T11:35:17Z</time>
      </trkpt>
      <trkpt lat="44.31412" lon="5.6103">
        <ele>876.5</ele>
        <time>2023-04-06T11:35:19Z</time>
      </trkpt>
      <trkpt lat="44.31411" lon="5.6103">
        <ele>876.6</ele>
        <time>2023-04-06T11:35:20Z</time>
      </trkpt>
      <trkpt lat="44.31408" lon="5.61029">
        <ele>876.8</ele>
        <time>2023-04-06T11:35:21Z</time>
      </trkpt>
      <trkpt lat="44.31405" lon="5.61026">
        <ele>877</ele>
        <time>2023-04-06T11:35:22Z</time>
      </trkpt>
      <trkpt lat="44.31402" lon="5.61024">
        <ele>877.2</ele>
        <time>2023-04-06T11:35:23Z</time>
      </trkpt>
      <trkpt lat="44.31399" lon="5.61022">
        <ele>877.4</ele>
        <time>2023-04-06T11:35:24Z</time>
      </trkpt>
      <trkpt lat="44.31397" lon="5.61019">
        <ele>877.6</ele>
        <time>2023-04-06T11:35:25Z</time>
      </trkpt>
      <trkpt lat="44.31394" lon="5.61017">
        <ele>877.8</ele>
        <time>2023-04-06T11:35:26Z</time>
      </trkpt>
      <trkpt lat="44.31391" lon="5.61014">
        <ele>878.1</ele>
        <time>2023-04-06T11:35:27Z</time>
      </trkpt>
      <trkpt lat="44.31389" lon="5.61012">
        <ele>878.3</ele>
        <time>2023-04-06T11:35:28Z</time>
      </trkpt>
      <trkpt lat="44.31386" lon="5.61009">
        <ele>878.6</ele>
        <time>2023-04-06T11:35:29Z</time>
      </trkpt>
      <trkpt lat="44.31384" lon="5.61006">
        <ele>878.9</ele>
        <time>2023-04-06T11:35:30Z</time>
      </trkpt>
      <trkpt lat="44.31382" lon="5.61003">
        <ele>879.1</ele>
        <time>2023-04-06T11:35:31Z</time>
      </trkpt>
      <trkpt lat="44.3138" lon="5.61">
        <ele>879.4</ele>
        <time>2023-04-06T11:35:32Z</time>
      </trkpt>
      <trkpt lat="44.31378" lon="5.60996">
        <ele>879.7</ele>
        <time>2023-04-06T11:35:33Z</time>
      </trkpt>
      <trkpt lat="44.31376" lon="5.60993">
        <ele>880</ele>
        <time>2023-04-06T11:35:34Z</time>
      </trkpt>
      <trkpt lat="44.31373" lon="5.60989">
        <ele>880.4</ele>
        <time>2023-04-06T11:35:35Z</time>
      </trkpt>
      <trkpt lat="44.31371" lon="5.60985">
        <ele>880.7</ele>
        <time>2023-04-06T11:35:36Z</time>
      </trkpt>
      <trkpt lat="44.31369" lon="5.60981">
        <ele>881</ele>
        <time>2023-04-06T11:35:37Z</time>
      </trkpt>
      <trkpt lat="44.31368" lon="5.60978">
        <ele>881.3</ele>
        <time>2023-04-06T11:35:38Z</time>
      </trkpt>
      <trkpt lat="44.31366" lon="5.60975">
        <ele>881.6</ele>
        <time>2023-04-06T11:35:39Z</time>
      </trkpt>
      <trkpt lat="44.31363" lon="5.60968">
        <ele>882.2</ele>
        <time>2023-04-06T11:35:41Z</time>
      </trkpt>
      <trkpt lat="44.3136" lon="5.60965">
        <ele>882.5</ele>
        <time>2023-04-06T11:35:42Z</time>
      </trkpt>
      <trkpt lat="44.31357" lon="5.60963">
        <ele>882.9</ele>
        <time>2023-04-06T11:35:43Z</time>
      </trkpt>
      <trkpt lat="44.31355" lon="5.6096">
        <ele>883.2</ele>
        <time>2023-04-06T11:35:44Z</time>
      </trkpt>
      <trkpt lat="44.31352" lon="5.60958">
        <ele>883.5</ele>
        <time>2023-04-06T11:35:45Z</time>
      </trkpt>
      <trkpt lat="44.31349" lon="5.60957">
        <ele>883.7</ele>
        <time>2023-04-06T11:35:46Z</time>
      </trkpt>
      <trkpt lat="44.31346" lon="5.60956">
        <ele>884</ele>
        <time>2023-04-06T11:35:47Z</time>
      </trkpt>
      <trkpt lat="44.31344" lon="5.60956">
        <ele>884.2</ele>
        <time>2023-04-06T11:35:48Z</time>
      </trkpt>
      <trkpt lat="44.31341" lon="5.60957">
        <ele>884.5</ele>
        <time>2023-04-06T11:35:49Z</time>
      </trkpt>
      <trkpt lat="44.31338" lon="5.60957">
        <ele>884.8</ele>
        <time>2023-04-06T11:35:50Z</time>
      </trkpt>
      <trkpt lat="44.31334" lon="5.60958">
        <ele>885</ele>
        <time>2023-04-06T11:35:51Z</time>
      </trkpt>
      <trkpt lat="44.31331" lon="5.60959">
        <ele>885.3</ele>
        <time>2023-04-06T11:35:52Z</time>
      </trkpt>
      <trkpt lat="44.31328" lon="5.6096">
        <ele>885.6</ele>
        <time>2023-04-06T11:35:53Z</time>
      </trkpt>
      <trkpt lat="44.31326" lon="5.60962">
        <ele>885.9</ele>
        <time>2023-04-06T11:35:54Z</time>
      </trkpt>
      <trkpt lat="44.31323" lon="5.60963">
        <ele>886.2</ele>
        <time>2023-04-06T11:35:55Z</time>
      </trkpt>
      <trkpt lat="44.3132" lon="5.60964">
        <ele>886.5</ele>
        <time>2023-04-06T11:35:56Z</time>
      </trkpt>
      <trkpt lat="44.31317" lon="5.60967">
        <ele>886.9</ele>
        <time>2023-04-06T11:35:57Z</time>
      </trkpt>
      <trkpt lat="44.31314" lon="5.60969">
        <ele>887.2</ele>
        <time>2023-04-06T11:35:58Z</time>
      </trkpt>
      <trkpt lat="44.31312" lon="5.60971">
        <ele>887.6</ele>
        <time>2023-04-06T11:35:59Z</time>
      </trkpt>
      <trkpt lat="44.31309" lon="5.60973">
        <ele>888</ele>
        <time>2023-04-06T11:36:00Z</time>
      </trkpt>
      <trkpt lat="44.31307" lon="5.60976">
        <ele>888.5</ele>
        <time>2023-04-06T11:36:01Z</time>
      </trkpt>
      <trkpt lat="44.31304" lon="5.60979">
        <ele>888.9</ele>
        <time>2023-04-06T11:36:02Z</time>
      </trkpt>
      <trkpt lat="44.31302" lon="5.60981">
        <ele>889.4</ele>
        <time>2023-04-06T11:36:03Z</time>
      </trkpt>
      <trkpt lat="44.31299" lon="5.60983">
        <ele>889.9</ele>
        <time>2023-04-06T11:36:04Z</time>
      </trkpt>
      <trkpt lat="44.31295" lon="5.60984">
        <ele>890.4</ele>
        <time>2023-04-06T11:36:05Z</time>
      </trkpt>
      <trkpt lat="44.31294" lon="5.60984">
        <ele>890.5</ele>
        <time>2023-04-06T11:36:06Z</time>
      </trkpt>
      <trkpt lat="44.31292" lon="5.6098">
        <ele>891.1</ele>
        <time>2023-04-06T11:36:07Z</time>
      </trkpt>
      <trkpt lat="44.31291" lon="5.60978">
        <ele>891.2</ele>
        <time>2023-04-06T11:36:08Z</time>
      </trkpt>
      <trkpt lat="44.3129" lon="5.60974">
        <ele>891.6</ele>
        <time>2023-04-06T11:36:09Z</time>
      </trkpt>
      <trkpt lat="44.3129" lon="5.6097">
        <ele>891.9</ele>
        <time>2023-04-06T11:36:10Z</time>
      </trkpt>
      <trkpt lat="44.31292" lon="5.60965">
        <ele>892.2</ele>
        <time>2023-04-06T11:36:11Z</time>
      </trkpt>
      <trkpt lat="44.31293" lon="5.60964">
        <ele>892.3</ele>
        <time>2023-04-06T11:36:12Z</time>
      </trkpt>
      <trkpt lat="44.31295" lon="5.60962">
        <ele>892.5</ele>
        <time>2023-04-06T11:36:13Z</time>
      </trkpt>
      <trkpt lat="44.31297" lon="5.60959">
        <ele>892.7</ele>
        <time>2023-04-06T11:36:14Z</time>
      </trkpt>
      <trkpt lat="44.31299" lon="5.60957">
        <ele>892.9</ele>
        <time>2023-04-06T11:36:15Z</time>
      </trkpt>
      <trkpt lat="44.31302" lon="5.60953">
        <ele>893.2</ele>
        <time>2023-04-06T11:36:16Z</time>
      </trkpt>
      <trkpt lat="44.31303" lon="5.60951">
        <ele>893.3</ele>
        <time>2023-04-06T11:36:17Z</time>
      </trkpt>
      <trkpt lat="44.31305" lon="5.60948">
        <ele>893.5</ele>
        <time>2023-04-06T11:36:18Z</time>
      </trkpt>
      <trkpt lat="44.31307" lon="5.60944">
        <ele>893.7</ele>
        <time>2023-04-06T11:36:19Z</time>
      </trkpt>
      <trkpt lat="44.31308" lon="5.6094">
        <ele>893.9</ele>
        <time>2023-04-06T11:36:20Z</time>
      </trkpt>
      <trkpt lat="44.3131" lon="5.60937">
        <ele>894.1</ele>
        <time>2023-04-06T11:36:21Z</time>
      </trkpt>
      <trkpt lat="44.31311" lon="5.60933">
        <ele>894.3</ele>
        <time>2023-04-06T11:36:22Z</time>
      </trkpt>
      <trkpt lat="44.31312" lon="5.60929">
        <ele>894.5</ele>
        <time>2023-04-06T11:36:23Z</time>
      </trkpt>
      <trkpt lat="44.31313" lon="5.60925">
        <ele>894.7</ele>
        <time>2023-04-06T11:36:24Z</time>
      </trkpt>
      <trkpt lat="44.31313" lon="5.60921">
        <ele>894.9</ele>
        <time>2023-04-06T11:36:25Z</time>
      </trkpt>
      <trkpt lat="44.31314" lon="5.60917">
        <ele>895</ele>
        <time>2023-04-06T11:36:26Z</time>
      </trkpt>
      <trkpt lat="44.31315" lon="5.60913">
        <ele>895.2</ele>
        <time>2023-04-06T11:36:27Z</time>
      </trkpt>
      <trkpt lat="44.31316" lon="5.60908">
        <ele>895.4</ele>
        <time>2023-04-06T11:36:28Z</time>
      </trkpt>
      <trkpt lat="44.31316" lon="5.60906">
        <ele>895.5</ele>
        <time>2023-04-06T11:36:29Z</time>
      </trkpt>
      <trkpt lat="44.31317" lon="5.60901">
        <ele>895.7</ele>
        <time>2023-04-06T11:36:30Z</time>
      </trkpt>
      <trkpt lat="44.31317" lon="5.60899">
        <ele>895.7</ele>
        <time>2023-04-06T11:36:31Z</time>
      </trkpt>
      <trkpt lat="44.31318" lon="5.60895">
        <ele>895.9</ele>
        <time>2023-04-06T11:36:32Z</time>
      </trkpt>
      <trkpt lat="44.31319" lon="5.60891">
        <ele>896</ele>
        <time>2023-04-06T11:36:33Z</time>
      </trkpt>
      <trkpt lat="44.31321" lon="5.60887">
        <ele>896.1</ele>
        <time>2023-04-06T11:36:34Z</time>
      </trkpt>
      <trkpt lat="44.31327" lon="5.60883">
        <ele>896.3</ele>
        <time>2023-04-06T11:36:36Z</time>
      </trkpt>
      <trkpt lat="44.3133" lon="5.60882">
        <ele>896.3</ele>
        <time>2023-04-06T11:36:37Z</time>
      </trkpt>
      <trkpt lat="44.31337" lon="5.60882">
        <ele>896.5</ele>
        <time>2023-04-06T11:36:39Z</time>
      </trkpt>
      <trkpt lat="44.3134" lon="5.60882">
        <ele>896.6</ele>
        <time>2023-04-06T11:36:40Z</time>
      </trkpt>
      <trkpt lat="44.31344" lon="5.60882">
        <ele>896.7</ele>
        <time>2023-04-06T11:36:41Z</time>
      </trkpt>
      <trkpt lat="44.31347" lon="5.60883">
        <ele>896.8</ele>
        <time>2023-04-06T11:36:42Z</time>
      </trkpt>
      <trkpt lat="44.31351" lon="5.60883">
        <ele>896.9</ele>
        <time>2023-04-06T11:36:43Z</time>
      </trkpt>
      <trkpt lat="44.31358" lon="5.60885">
        <ele>897.2</ele>
        <time>2023-04-06T11:36:45Z</time>
      </trkpt>
      <trkpt lat="44.31362" lon="5.60885">
        <ele>897.3</ele>
        <time>2023-04-06T11:36:46Z</time>
      </trkpt>
      <trkpt lat="44.31365" lon="5.60885">
        <ele>897.4</ele>
        <time>2023-04-06T11:36:47Z</time>
      </trkpt>
      <trkpt lat="44.31369" lon="5.60885">
        <ele>897.6</ele>
        <time>2023-04-06T11:36:48Z</time>
      </trkpt>
      <trkpt lat="44.31372" lon="5.60884">
        <ele>897.7</ele>
        <time>2023-04-06T11:36:49Z</time>
      </trkpt>
      <trkpt lat="44.31375" lon="5.60883">
        <ele>897.8</ele>
        <time>2023-04-06T11:36:50Z</time>
      </trkpt>
      <trkpt lat="44.31378" lon="5.60882">
        <ele>898</ele>
        <time>2023-04-06T11:36:51Z</time>
      </trkpt>
      <trkpt lat="44.31382" lon="5.60881">
        <ele>898.2</ele>
        <time>2023-04-06T11:36:52Z</time>
      </trkpt>
      <trkpt lat="44.31385" lon="5.60879">
        <ele>898.4</ele>
        <time>2023-04-06T11:36:53Z</time>
      </trkpt>
      <trkpt lat="44.31388" lon="5.60878">
        <ele>898.6</ele>
        <time>2023-04-06T11:36:54Z</time>
      </trkpt>
      <trkpt lat="44.31394" lon="5.60874">
        <ele>899</ele>
        <time>2023-04-06T11:36:56Z</time>
      </trkpt>
      <trkpt lat="44.31398" lon="5.60872">
        <ele>899.3</ele>
        <time>2023-04-06T11:36:57Z</time>
      </trkpt>
      <trkpt lat="44.31401" lon="5.6087">
        <ele>899.6</ele>
        <time>2023-04-06T11:36:58Z</time>
      </trkpt>
      <trkpt lat="44.31405" lon="5.60868">
        <ele>899.8</ele>
        <time>2023-04-06T11:36:59Z</time>
      </trkpt>
      <trkpt lat="44.31408" lon="5.60866">
        <ele>900.1</ele>
        <time>2023-04-06T11:37:00Z</time>
      </trkpt>
      <trkpt lat="44.31412" lon="5.60864">
        <ele>900.4</ele>
        <time>2023-04-06T11:37:01Z</time>
      </trkpt>
      <trkpt lat="44.31416" lon="5.60863">
        <ele>900.7</ele>
        <time>2023-04-06T11:37:02Z</time>
      </trkpt>
      <trkpt lat="44.3142" lon="5.60861">
        <ele>901</ele>
        <time>2023-04-06T11:37:03Z</time>
      </trkpt>
      <trkpt lat="44.31424" lon="5.60859">
        <ele>901.2</ele>
        <time>2023-04-06T11:37:04Z</time>
      </trkpt>
      <trkpt lat="44.31427" lon="5.60857">
        <ele>901.5</ele>
        <time>2023-04-06T11:37:05Z</time>
      </trkpt>
      <trkpt lat="44.31434" lon="5.60853">
        <ele>902</ele>
        <time>2023-04-06T11:37:07Z</time>
      </trkpt>
      <trkpt lat="44.31437" lon="5.60851">
        <ele>902.2</ele>
        <time>2023-04-06T11:37:08Z</time>
      </trkpt>
      <trkpt lat="44.3144" lon="5.60849">
        <ele>902.5</ele>
        <time>2023-04-06T11:37:09Z</time>
      </trkpt>
      <trkpt lat="44.31443" lon="5.60847">
        <ele>902.7</ele>
        <time>2023-04-06T11:37:10Z</time>
      </trkpt>
      <trkpt lat="44.31446" lon="5.60845">
        <ele>903</ele>
        <time>2023-04-06T11:37:11Z</time>
      </trkpt>
      <trkpt lat="44.3145" lon="5.60844">
        <ele>903.3</ele>
        <time>2023-04-06T11:37:12Z</time>
      </trkpt>
      <trkpt lat="44.31453" lon="5.60842">
        <ele>903.6</ele>
        <time>2023-04-06T11:37:13Z</time>
      </trkpt>
      <trkpt lat="44.31456" lon="5.6084">
        <ele>903.9</ele>
        <time>2023-04-06T11:37:14Z</time>
      </trkpt>
      <trkpt lat="44.3146" lon="5.60838">
        <ele>904.3</ele>
        <time>2023-04-06T11:37:15Z</time>
      </trkpt>
      <trkpt lat="44.31462" lon="5.60837">
        <ele>904.6</ele>
        <time>2023-04-06T11:37:16Z</time>
      </trkpt>
      <trkpt lat="44.31469" lon="5.60834">
        <ele>905.3</ele>
        <time>2023-04-06T11:37:18Z</time>
      </trkpt>
      <trkpt lat="44.31472" lon="5.60832">
        <ele>905.7</ele>
        <time>2023-04-06T11:37:19Z</time>
      </trkpt>
      <trkpt lat="44.31475" lon="5.60832">
        <ele>906.1</ele>
        <time>2023-04-06T11:37:20Z</time>
      </trkpt>
      <trkpt lat="44.31478" lon="5.60831">
        <ele>906.6</ele>
        <time>2023-04-06T11:37:21Z</time>
      </trkpt>
      <trkpt lat="44.31481" lon="5.60828">
        <ele>907</ele>
        <time>2023-04-06T11:37:22Z</time>
      </trkpt>
      <trkpt lat="44.31482" lon="5.60824">
        <ele>907.3</ele>
        <time>2023-04-06T11:37:23Z</time>
      </trkpt>
      <trkpt lat="44.31481" lon="5.6082">
        <ele>907.7</ele>
        <time>2023-04-06T11:37:24Z</time>
      </trkpt>
      <trkpt lat="44.31479" lon="5.60816">
        <ele>908.2</ele>
        <time>2023-04-06T11:37:25Z</time>
      </trkpt>
      <trkpt lat="44.31477" lon="5.60813">
        <ele>908.6</ele>
        <time>2023-04-06T11:37:26Z</time>
      </trkpt>
      <trkpt lat="44.31473" lon="5.60811">
        <ele>909.1</ele>
        <time>2023-04-06T11:37:27Z</time>
      </trkpt>
      <trkpt lat="44.31467" lon="5.60809">
        <ele>909.9</ele>
        <time>2023-04-06T11:37:29Z</time>
      </trkpt>
      <trkpt lat="44.31464" lon="5.60809">
        <ele>910.4</ele>
        <time>2023-04-06T11:37:30Z</time>
      </trkpt>
      <trkpt lat="44.31461" lon="5.60809">
        <ele>910.8</ele>
        <time>2023-04-06T11:37:31Z</time>
      </trkpt>
      <trkpt lat="44.31458" lon="5.60808">
        <ele>911.2</ele>
        <time>2023-04-06T11:37:32Z</time>
      </trkpt>
      <trkpt lat="44.31455" lon="5.60806">
        <ele>911.6</ele>
        <time>2023-04-06T11:37:33Z</time>
      </trkpt>
      <trkpt lat="44.3145" lon="5.60803">
        <ele>912.4</ele>
        <time>2023-04-06T11:37:35Z</time>
      </trkpt>
      <trkpt lat="44.31446" lon="5.60801">
        <ele>912.9</ele>
        <time>2023-04-06T11:37:36Z</time>
      </trkpt>
      <trkpt lat="44.31445" lon="5.60801">
        <ele>913.1</ele>
        <time>2023-04-06T11:37:37Z</time>
      </trkpt>
      <trkpt lat="44.31442" lon="5.60799">
        <ele>913.4</ele>
        <time>2023-04-06T11:37:38Z</time>
      </trkpt>
      <trkpt lat="44.3144" lon="5.60796">
        <ele>913.8</ele>
        <time>2023-04-06T11:37:39Z</time>
      </trkpt>
      <trkpt lat="44.31437" lon="5.60793">
        <ele>914.3</ele>
        <time>2023-04-06T11:37:40Z</time>
      </trkpt>
      <trkpt lat="44.31436" lon="5.60792">
        <ele>914.4</ele>
        <time>2023-04-06T11:37:41Z</time>
      </trkpt>
      <trkpt lat="44.31433" lon="5.60789">
        <ele>914.9</ele>
        <time>2023-04-06T11:37:42Z</time>
      </trkpt>
      <trkpt lat="44.31432" lon="5.60788">
        <ele>915.1</ele>
        <time>2023-04-06T11:37:43Z</time>
      </trkpt>
      <trkpt lat="44.31429" lon="5.60784">
        <ele>915.5</ele>
        <time>2023-04-06T11:37:44Z</time>
      </trkpt>
      <trkpt lat="44.31428" lon="5.60783">
        <ele>915.7</ele>
        <time>2023-04-06T11:37:45Z</time>
      </trkpt>
      <trkpt lat="44.31425" lon="5.6078">
        <ele>916.1</ele>
        <time>2023-04-06T11:37:46Z</time>
      </trkpt>
      <trkpt lat="44.31424" lon="5.60779">
        <ele>916.3</ele>
        <time>2023-04-06T11:37:47Z</time>
      </trkpt>
      <trkpt lat="44.3142" lon="5.60776">
        <ele>916.7</ele>
        <time>2023-04-06T11:37:48Z</time>
      </trkpt>
      <trkpt lat="44.31419" lon="5.60775">
        <ele>916.9</ele>
        <time>2023-04-06T11:37:49Z</time>
      </trkpt>
      <trkpt lat="44.31415" lon="5.60771">
        <ele>917.5</ele>
        <time>2023-04-06T11:37:51Z</time>
      </trkpt>
      <trkpt lat="44.31413" lon="5.60768">
        <ele>917.9</ele>
        <time>2023-04-06T11:37:52Z</time>
      </trkpt>
      <trkpt lat="44.31409" lon="5.60766">
        <ele>918.3</ele>
        <time>2023-04-06T11:37:53Z</time>
      </trkpt>
      <trkpt lat="44.31408" lon="5.60765">
        <ele>918.5</ele>
        <time>2023-04-06T11:37:54Z</time>
      </trkpt>
      <trkpt lat="44.31406" lon="5.60763">
        <ele>918.8</ele>
        <time>2023-04-06T11:37:55Z</time>
      </trkpt>
      <trkpt lat="44.31402" lon="5.6076">
        <ele>919.3</ele>
        <time>2023-04-06T11:37:56Z</time>
      </trkpt>
      <trkpt lat="44.31401" lon="5.60758">
        <ele>919.4</ele>
        <time>2023-04-06T11:37:57Z</time>
      </trkpt>
      <trkpt lat="44.31399" lon="5.60756">
        <ele>919.8</ele>
        <time>2023-04-06T11:37:58Z</time>
      </trkpt>
      <trkpt lat="44.31397" lon="5.60753">
        <ele>920.1</ele>
        <time>2023-04-06T11:37:59Z</time>
      </trkpt>
      <trkpt lat="44.31395" lon="5.6075">
        <ele>920.5</ele>
        <time>2023-04-06T11:38:00Z</time>
      </trkpt>
      <trkpt lat="44.31389" lon="5.60745">
        <ele>921.3</ele>
        <time>2023-04-06T11:38:02Z</time>
      </trkpt>
      <trkpt lat="44.31388" lon="5.60744">
        <ele>921.4</ele>
        <time>2023-04-06T11:38:03Z</time>
      </trkpt>
      <trkpt lat="44.31386" lon="5.60741">
        <ele>921.7</ele>
        <time>2023-04-06T11:38:04Z</time>
      </trkpt>
      <trkpt lat="44.31383" lon="5.60739">
        <ele>922.1</ele>
        <time>2023-04-06T11:38:05Z</time>
      </trkpt>
      <trkpt lat="44.31381" lon="5.60736">
        <ele>922.5</ele>
        <time>2023-04-06T11:38:06Z</time>
      </trkpt>
      <trkpt lat="44.31378" lon="5.60732">
        <ele>923</ele>
        <time>2023-04-06T11:38:07Z</time>
      </trkpt>
      <trkpt lat="44.31376" lon="5.6073">
        <ele>923.4</ele>
        <time>2023-04-06T11:38:08Z</time>
      </trkpt>
      <trkpt lat="44.31373" lon="5.60727">
        <ele>923.8</ele>
        <time>2023-04-06T11:38:09Z</time>
      </trkpt>
      <trkpt lat="44.31371" lon="5.60725">
        <ele>924.1</ele>
        <time>2023-04-06T11:38:10Z</time>
      </trkpt>
      <trkpt lat="44.31369" lon="5.60722">
        <ele>924.5</ele>
        <time>2023-04-06T11:38:11Z</time>
      </trkpt>
      <trkpt lat="44.31365" lon="5.60717">
        <ele>925.2</ele>
        <time>2023-04-06T11:38:13Z</time>
      </trkpt>
      <trkpt lat="44.31363" lon="5.60714">
        <ele>925.6</ele>
        <time>2023-04-06T11:38:14Z</time>
      </trkpt>
      <trkpt lat="44.31361" lon="5.6071">
        <ele>926.1</ele>
        <time>2023-04-06T11:38:15Z</time>
      </trkpt>
      <trkpt lat="44.3136" lon="5.60709">
        <ele>926.2</ele>
        <time>2023-04-06T11:38:16Z</time>
      </trkpt>
      <trkpt lat="44.31358" lon="5.60705">
        <ele>926.8</ele>
        <time>2023-04-06T11:38:17Z</time>
      </trkpt>
      <trkpt lat="44.31357" lon="5.60703">
        <ele>926.9</ele>
        <time>2023-04-06T11:38:18Z</time>
      </trkpt>
      <trkpt lat="44.31355" lon="5.607">
        <ele>927.3</ele>
        <time>2023-04-06T11:38:19Z</time>
      </trkpt>
      <trkpt lat="44.31353" lon="5.60696">
        <ele>927.6</ele>
        <time>2023-04-06T11:38:20Z</time>
      </trkpt>
      <trkpt lat="44.31352" lon="5.60693">
        <ele>928</ele>
        <time>2023-04-06T11:38:21Z</time>
      </trkpt>
      <trkpt lat="44.3135" lon="5.60689">
        <ele>928.4</ele>
        <time>2023-04-06T11:38:22Z</time>
      </trkpt>
      <trkpt lat="44.31349" lon="5.60686">
        <ele>928.7</ele>
        <time>2023-04-06T11:38:23Z</time>
      </trkpt>
      <trkpt lat="44.31348" lon="5.60681">
        <ele>929.2</ele>
        <time>2023-04-06T11:38:24Z</time>
      </trkpt>
      <trkpt lat="44.31347" lon="5.60679">
        <ele>929.4</ele>
        <time>2023-04-06T11:38:25Z</time>
      </trkpt>
      <trkpt lat="44.31346" lon="5.60675">
        <ele>929.8</ele>
        <time>2023-04-06T11:38:26Z</time>
      </trkpt>
      <trkpt lat="44.31345" lon="5.60673">
        <ele>930</ele>
        <time>2023-04-06T11:38:27Z</time>
      </trkpt>
      <trkpt lat="44.31342" lon="5.60667">
        <ele>930.7</ele>
        <time>2023-04-06T11:38:29Z</time>
      </trkpt>
      <trkpt lat="44.3134" lon="5.60665">
        <ele>931.1</ele>
        <time>2023-04-06T11:38:30Z</time>
      </trkpt>
      <trkpt lat="44.31337" lon="5.60662">
        <ele>931.4</ele>
        <time>2023-04-06T11:38:31Z</time>
      </trkpt>
      <trkpt lat="44.31335" lon="5.60661">
        <ele>931.8</ele>
        <time>2023-04-06T11:38:32Z</time>
      </trkpt>
      <trkpt lat="44.31331" lon="5.60661">
        <ele>932.3</ele>
        <time>2023-04-06T11:38:33Z</time>
      </trkpt>
      <trkpt lat="44.3133" lon="5.60661">
        <ele>932.4</ele>
        <time>2023-04-06T11:38:34Z</time>
      </trkpt>
      <trkpt lat="44.31326" lon="5.6066">
        <ele>932.9</ele>
        <time>2023-04-06T11:38:35Z</time>
      </trkpt>
      <trkpt lat="44.31324" lon="5.6066">
        <ele>933.1</ele>
        <time>2023-04-06T11:38:36Z</time>
      </trkpt>
      <trkpt lat="44.31321" lon="5.6066">
        <ele>933.4</ele>
        <time>2023-04-06T11:38:37Z</time>
      </trkpt>
      <trkpt lat="44.31318" lon="5.60661">
        <ele>933.8</ele>
        <time>2023-04-06T11:38:38Z</time>
      </trkpt>
      <trkpt lat="44.31313" lon="5.60661">
        <ele>934.3</ele>
        <time>2023-04-06T11:38:40Z</time>
      </trkpt>
      <trkpt lat="44.31311" lon="5.60662">
        <ele>934.6</ele>
        <time>2023-04-06T11:38:41Z</time>
      </trkpt>
      <trkpt lat="44.31308" lon="5.60663">
        <ele>934.9</ele>
        <time>2023-04-06T11:38:42Z</time>
      </trkpt>
      <trkpt lat="44.31305" lon="5.60664">
        <ele>935.2</ele>
        <time>2023-04-06T11:38:43Z</time>
      </trkpt>
      <trkpt lat="44.31302" lon="5.60666">
        <ele>935.5</ele>
        <time>2023-04-06T11:38:44Z</time>
      </trkpt>
      <trkpt lat="44.31299" lon="5.60667">
        <ele>935.7</ele>
        <time>2023-04-06T11:38:45Z</time>
      </trkpt>
      <trkpt lat="44.31296" lon="5.60668">
        <ele>936.1</ele>
        <time>2023-04-06T11:38:46Z</time>
      </trkpt>
      <trkpt lat="44.31295" lon="5.60669">
        <ele>936.2</ele>
        <time>2023-04-06T11:38:47Z</time>
      </trkpt>
      <trkpt lat="44.31291" lon="5.6067">
        <ele>936.6</ele>
        <time>2023-04-06T11:38:48Z</time>
      </trkpt>
      <trkpt lat="44.3129" lon="5.6067">
        <ele>936.7</ele>
        <time>2023-04-06T11:38:49Z</time>
      </trkpt>
      <trkpt lat="44.31286" lon="5.60671">
        <ele>937.1</ele>
        <time>2023-04-06T11:38:50Z</time>
      </trkpt>
      <trkpt lat="44.31285" lon="5.60671">
        <ele>937.2</ele>
        <time>2023-04-06T11:38:51Z</time>
      </trkpt>
      <trkpt lat="44.31282" lon="5.60672">
        <ele>937.5</ele>
        <time>2023-04-06T11:38:52Z</time>
      </trkpt>
      <trkpt lat="44.31278" lon="5.60673">
        <ele>937.9</ele>
        <time>2023-04-06T11:38:53Z</time>
      </trkpt>
      <trkpt lat="44.31277" lon="5.60673">
        <ele>938</ele>
        <time>2023-04-06T11:38:54Z</time>
      </trkpt>
      <trkpt lat="44.31274" lon="5.60675">
        <ele>938.4</ele>
        <time>2023-04-06T11:38:55Z</time>
      </trkpt>
      <trkpt lat="44.31272" lon="5.60676">
        <ele>938.5</ele>
        <time>2023-04-06T11:38:56Z</time>
      </trkpt>
      <trkpt lat="44.31269" lon="5.60677">
        <ele>938.9</ele>
        <time>2023-04-06T11:38:57Z</time>
      </trkpt>
      <trkpt lat="44.31267" lon="5.60678">
        <ele>939.1</ele>
        <time>2023-04-06T11:38:58Z</time>
      </trkpt>
      <trkpt lat="44.31265" lon="5.60679">
        <ele>939.4</ele>
        <time>2023-04-06T11:38:59Z</time>
      </trkpt>
      <trkpt lat="44.31262" lon="5.6068">
        <ele>939.7</ele>
        <time>2023-04-06T11:39:00Z</time>
      </trkpt>
      <trkpt lat="44.31259" lon="5.60681">
        <ele>940</ele>
        <time>2023-04-06T11:39:01Z</time>
      </trkpt>
      <trkpt lat="44.31256" lon="5.60683">
        <ele>940.5</ele>
        <time>2023-04-06T11:39:02Z</time>
      </trkpt>
      <trkpt lat="44.31254" lon="5.60683">
        <ele>940.6</ele>
        <time>2023-04-06T11:39:03Z</time>
      </trkpt>
      <trkpt lat="44.31251" lon="5.60686">
        <ele>941.1</ele>
        <time>2023-04-06T11:39:04Z</time>
      </trkpt>
      <trkpt lat="44.3125" lon="5.60687">
        <ele>941.2</ele>
        <time>2023-04-06T11:39:05Z</time>
      </trkpt>
      <trkpt lat="44.31247" lon="5.6069">
        <ele>941.7</ele>
        <time>2023-04-06T11:39:06Z</time>
      </trkpt>
      <trkpt lat="44.31246" lon="5.60691">
        <ele>941.9</ele>
        <time>2023-04-06T11:39:07Z</time>
      </trkpt>
      <trkpt lat="44.31242" lon="5.60693">
        <ele>942.4</ele>
        <time>2023-04-06T11:39:08Z</time>
      </trkpt>
      <trkpt lat="44.31241" lon="5.60694">
        <ele>942.5</ele>
        <time>2023-04-06T11:39:09Z</time>
      </trkpt>
      <trkpt lat="44.31237" lon="5.60695">
        <ele>943</ele>
        <time>2023-04-06T11:39:10Z</time>
      </trkpt>
      <trkpt lat="44.31236" lon="5.60695">
        <ele>943.1</ele>
        <time>2023-04-06T11:39:11Z</time>
      </trkpt>
      <trkpt lat="44.31233" lon="5.60697">
        <ele>943.5</ele>
        <time>2023-04-06T11:39:12Z</time>
      </trkpt>
      <trkpt lat="44.31232" lon="5.60697">
        <ele>943.6</ele>
        <time>2023-04-06T11:39:13Z</time>
      </trkpt>
      <trkpt lat="44.31228" lon="5.60698">
        <ele>944</ele>
        <time>2023-04-06T11:39:14Z</time>
      </trkpt>
      <trkpt lat="44.31227" lon="5.60698">
        <ele>944.1</ele>
        <time>2023-04-06T11:39:15Z</time>
      </trkpt>
      <trkpt lat="44.31224" lon="5.60698">
        <ele>944.5</ele>
        <time>2023-04-06T11:39:16Z</time>
      </trkpt>
      <trkpt lat="44.31221" lon="5.60699">
        <ele>944.9</ele>
        <time>2023-04-06T11:39:17Z</time>
      </trkpt>
      <trkpt lat="44.3122" lon="5.60699">
        <ele>945.1</ele>
        <time>2023-04-06T11:39:18Z</time>
      </trkpt>
      <trkpt lat="44.31217" lon="5.607">
        <ele>945.4</ele>
        <time>2023-04-06T11:39:19Z</time>
      </trkpt>
      <trkpt lat="44.31213" lon="5.607">
        <ele>945.9</ele>
        <time>2023-04-06T11:39:20Z</time>
      </trkpt>
      <trkpt lat="44.31212" lon="5.607">
        <ele>946</ele>
        <time>2023-04-06T11:39:21Z</time>
      </trkpt>
      <trkpt lat="44.31208" lon="5.60701">
        <ele>946.5</ele>
        <time>2023-04-06T11:39:22Z</time>
      </trkpt>
      <trkpt lat="44.31207" lon="5.60702">
        <ele>946.6</ele>
        <time>2023-04-06T11:39:23Z</time>
      </trkpt>
      <trkpt lat="44.31204" lon="5.60703">
        <ele>947.1</ele>
        <time>2023-04-06T11:39:24Z</time>
      </trkpt>
      <trkpt lat="44.31203" lon="5.60704">
        <ele>947.3</ele>
        <time>2023-04-06T11:39:25Z</time>
      </trkpt>
      <trkpt lat="44.312" lon="5.60705">
        <ele>947.6</ele>
        <time>2023-04-06T11:39:26Z</time>
      </trkpt>
      <trkpt lat="44.31197" lon="5.60706">
        <ele>948</ele>
        <time>2023-04-06T11:39:27Z</time>
      </trkpt>
      <trkpt lat="44.31194" lon="5.60706">
        <ele>948.4</ele>
        <time>2023-04-06T11:39:28Z</time>
      </trkpt>
      <trkpt lat="44.31191" lon="5.60706">
        <ele>948.7</ele>
        <time>2023-04-06T11:39:29Z</time>
      </trkpt>
      <trkpt lat="44.31188" lon="5.60707">
        <ele>949</ele>
        <time>2023-04-06T11:39:30Z</time>
      </trkpt>
      <trkpt lat="44.31184" lon="5.60707">
        <ele>949.4</ele>
        <time>2023-04-06T11:39:31Z</time>
      </trkpt>
      <trkpt lat="44.31183" lon="5.60707">
        <ele>949.6</ele>
        <time>2023-04-06T11:39:32Z</time>
      </trkpt>
      <trkpt lat="44.31181" lon="5.60707">
        <ele>949.8</ele>
        <time>2023-04-06T11:39:33Z</time>
      </trkpt>
      <trkpt lat="44.3118" lon="5.60707">
        <ele>949.9</ele>
        <time>2023-04-06T11:39:34Z</time>
      </trkpt>
      <trkpt lat="44.31179" lon="5.60707">
        <ele>950</ele>
        <time>2023-04-06T11:39:35Z</time>
      </trkpt>
      <trkpt lat="44.31177" lon="5.60707">
        <ele>950.1</ele>
        <time>2023-04-06T11:39:36Z</time>
      </trkpt>
      <trkpt lat="44.31176" lon="5.60707">
        <ele>950.2</ele>
        <time>2023-04-06T11:39:37Z</time>
      </trkpt>
      <trkpt lat="44.31173" lon="5.60706">
        <ele>950.5</ele>
        <time>2023-04-06T11:39:38Z</time>
      </trkpt>
      <trkpt lat="44.3117" lon="5.60705">
        <ele>950.7</ele>
        <time>2023-04-06T11:39:39Z</time>
      </trkpt>
      <trkpt lat="44.31167" lon="5.60705">
        <ele>951</ele>
        <time>2023-04-06T11:39:40Z</time>
      </trkpt>
      <trkpt lat="44.31164" lon="5.60704">
        <ele>951.2</ele>
        <time>2023-04-06T11:39:41Z</time>
      </trkpt>
      <trkpt lat="44.31161" lon="5.60703">
        <ele>951.4</ele>
        <time>2023-04-06T11:39:42Z</time>
      </trkpt>
      <trkpt lat="44.31158" lon="5.60702">
        <ele>951.5</ele>
        <time>2023-04-06T11:39:43Z</time>
      </trkpt>
      <trkpt lat="44.31155" lon="5.60701">
        <ele>951.8</ele>
        <time>2023-04-06T11:39:44Z</time>
      </trkpt>
      <trkpt lat="44.31154" lon="5.60701">
        <ele>951.8</ele>
        <time>2023-04-06T11:39:45Z</time>
      </trkpt>
      <trkpt lat="44.3115" lon="5.60701">
        <ele>952.1</ele>
        <time>2023-04-06T11:39:46Z</time>
      </trkpt>
      <trkpt lat="44.31148" lon="5.60701">
        <ele>952.2</ele>
        <time>2023-04-06T11:39:47Z</time>
      </trkpt>
      <trkpt lat="44.31144" lon="5.607">
        <ele>952.4</ele>
        <time>2023-04-06T11:39:48Z</time>
      </trkpt>
      <trkpt lat="44.31143" lon="5.607">
        <ele>952.4</ele>
        <time>2023-04-06T11:39:49Z</time>
      </trkpt>
      <trkpt lat="44.3114" lon="5.607">
        <ele>952.6</ele>
        <time>2023-04-06T11:39:50Z</time>
      </trkpt>
      <trkpt lat="44.31138" lon="5.607">
        <ele>952.7</ele>
        <time>2023-04-06T11:39:51Z</time>
      </trkpt>
      <trkpt lat="44.31134" lon="5.60698">
        <ele>952.9</ele>
        <time>2023-04-06T11:39:53Z</time>
      </trkpt>
      <trkpt lat="44.31131" lon="5.60698">
        <ele>953.1</ele>
        <time>2023-04-06T11:39:54Z</time>
      </trkpt>
      <trkpt lat="44.3113" lon="5.60697">
        <ele>953.2</ele>
        <time>2023-04-06T11:39:55Z</time>
      </trkpt>
      <trkpt lat="44.31128" lon="5.60696">
        <ele>953.3</ele>
        <time>2023-04-06T11:39:56Z</time>
      </trkpt>
      <trkpt lat="44.31123" lon="5.60694">
        <ele>953.6</ele>
        <time>2023-04-06T11:39:58Z</time>
      </trkpt>
      <trkpt lat="44.3112" lon="5.60694">
        <ele>953.7</ele>
        <time>2023-04-06T11:39:59Z</time>
      </trkpt>
      <trkpt lat="44.31117" lon="5.60693">
        <ele>953.8</ele>
        <time>2023-04-06T11:40:00Z</time>
      </trkpt>
      <trkpt lat="44.31116" lon="5.60693">
        <ele>953.8</ele>
        <time>2023-04-06T11:40:01Z</time>
      </trkpt>
      <trkpt lat="44.31114" lon="5.6069">
        <ele>953.9</ele>
        <time>2023-04-06T11:40:02Z</time>
      </trkpt>
      <trkpt lat="44.31113" lon="5.6069">
        <ele>954</ele>
        <time>2023-04-06T11:40:03Z</time>
      </trkpt>
      <trkpt lat="44.3111" lon="5.60686">
        <ele>955</ele>
        <time>2023-04-06T11:40:04Z</time>
      </trkpt>
      <trkpt lat="44.3111" lon="5.60685">
        <ele>955.2</ele>
        <time>2023-04-06T11:40:05Z</time>
      </trkpt>
      <trkpt lat="44.31107" lon="5.60682">
        <ele>955.7</ele>
        <time>2023-04-06T11:40:06Z</time>
      </trkpt>
      <trkpt lat="44.31107" lon="5.60681">
        <ele>955.9</ele>
        <time>2023-04-06T11:40:07Z</time>
      </trkpt>
      <trkpt lat="44.31104" lon="5.60676">
        <ele>956.5</ele>
        <time>2023-04-06T11:40:09Z</time>
      </trkpt>
      <trkpt lat="44.31101" lon="5.60672">
        <ele>957.1</ele>
        <time>2023-04-06T11:40:10Z</time>
      </trkpt>
      <trkpt lat="44.311" lon="5.60671">
        <ele>957.2</ele>
        <time>2023-04-06T11:40:11Z</time>
      </trkpt>
      <trkpt lat="44.31098" lon="5.60668">
        <ele>957.7</ele>
        <time>2023-04-06T11:40:12Z</time>
      </trkpt>
      <trkpt lat="44.31097" lon="5.60667">
        <ele>957.8</ele>
        <time>2023-04-06T11:40:13Z</time>
      </trkpt>
      <trkpt lat="44.31096" lon="5.60664">
        <ele>958.2</ele>
        <time>2023-04-06T11:40:14Z</time>
      </trkpt>
      <trkpt lat="44.31095" lon="5.60663">
        <ele>958.4</ele>
        <time>2023-04-06T11:40:15Z</time>
      </trkpt>
      <trkpt lat="44.31094" lon="5.60659">
        <ele>958.8</ele>
        <time>2023-04-06T11:40:16Z</time>
      </trkpt>
      <trkpt lat="44.31093" lon="5.60658">
        <ele>958.9</ele>
        <time>2023-04-06T11:40:17Z</time>
      </trkpt>
      <trkpt lat="44.31092" lon="5.60656">
        <ele>959.1</ele>
        <time>2023-04-06T11:40:18Z</time>
      </trkpt>
      <trkpt lat="44.31091" lon="5.6065">
        <ele>959.6</ele>
        <time>2023-04-06T11:40:20Z</time>
      </trkpt>
      <trkpt lat="44.3109" lon="5.60647">
        <ele>959.9</ele>
        <time>2023-04-06T11:40:21Z</time>
      </trkpt>
      <trkpt lat="44.31088" lon="5.60644">
        <ele>960.3</ele>
        <time>2023-04-06T11:40:22Z</time>
      </trkpt>
      <trkpt lat="44.31088" lon="5.60643">
        <ele>960.4</ele>
        <time>2023-04-06T11:40:23Z</time>
      </trkpt>
      <trkpt lat="44.31087" lon="5.6064">
        <ele>960.7</ele>
        <time>2023-04-06T11:40:24Z</time>
      </trkpt>
      <trkpt lat="44.31085" lon="5.60635">
        <ele>961.2</ele>
        <time>2023-04-06T11:40:26Z</time>
      </trkpt>
      <trkpt lat="44.31085" lon="5.60633">
        <ele>961.5</ele>
        <time>2023-04-06T11:40:27Z</time>
      </trkpt>
      <trkpt lat="44.31083" lon="5.60629">
        <ele>961.9</ele>
        <time>2023-04-06T11:40:28Z</time>
      </trkpt>
      <trkpt lat="44.31083" lon="5.60627">
        <ele>962.1</ele>
        <time>2023-04-06T11:40:29Z</time>
      </trkpt>
      <trkpt lat="44.31082" lon="5.60622">
        <ele>962.6</ele>
        <time>2023-04-06T11:40:30Z</time>
      </trkpt>
      <trkpt lat="44.31082" lon="5.60621">
        <ele>962.8</ele>
        <time>2023-04-06T11:40:31Z</time>
      </trkpt>
      <trkpt lat="44.31081" lon="5.60616">
        <ele>963.3</ele>
        <time>2023-04-06T11:40:32Z</time>
      </trkpt>
      <trkpt lat="44.3108" lon="5.60614">
        <ele>963.4</ele>
        <time>2023-04-06T11:40:33Z</time>
      </trkpt>
      <trkpt lat="44.31081" lon="5.6061">
        <ele>963.9</ele>
        <time>2023-04-06T11:40:34Z</time>
      </trkpt>
      <trkpt lat="44.31081" lon="5.60608">
        <ele>964.1</ele>
        <time>2023-04-06T11:40:35Z</time>
      </trkpt>
      <trkpt lat="44.31081" lon="5.60603">
        <ele>964.6</ele>
        <time>2023-04-06T11:40:36Z</time>
      </trkpt>
      <trkpt lat="44.31081" lon="5.60601">
        <ele>964.7</ele>
        <time>2023-04-06T11:40:37Z</time>
      </trkpt>
      <trkpt lat="44.31081" lon="5.60596">
        <ele>965.2</ele>
        <time>2023-04-06T11:40:38Z</time>
      </trkpt>
      <trkpt lat="44.31082" lon="5.60595">
        <ele>965.4</ele>
        <time>2023-04-06T11:40:39Z</time>
      </trkpt>
      <trkpt lat="44.31083" lon="5.60591">
        <ele>965.8</ele>
        <time>2023-04-06T11:40:40Z</time>
      </trkpt>
      <trkpt lat="44.31084" lon="5.6059">
        <ele>965.9</ele>
        <time>2023-04-06T11:40:41Z</time>
      </trkpt>
      <trkpt lat="44.31087" lon="5.60587">
        <ele>966.4</ele>
        <time>2023-04-06T11:40:42Z</time>
      </trkpt>
      <trkpt lat="44.31088" lon="5.60587">
        <ele>966.5</ele>
        <time>2023-04-06T11:40:43Z</time>
      </trkpt>
      <trkpt lat="44.31091" lon="5.60586">
        <ele>966.9</ele>
        <time>2023-04-06T11:40:44Z</time>
      </trkpt>
      <trkpt lat="44.31091" lon="5.60586">
        <ele>967</ele>
        <time>2023-04-06T11:40:45Z</time>
      </trkpt>
      <trkpt lat="44.31096" lon="5.60586">
        <ele>967.5</ele>
        <time>2023-04-06T11:40:47Z</time>
      </trkpt>
      <trkpt lat="44.31099" lon="5.60587">
        <ele>967.9</ele>
        <time>2023-04-06T11:40:48Z</time>
      </trkpt>
      <trkpt lat="44.311" lon="5.60587">
        <ele>968.1</ele>
        <time>2023-04-06T11:40:49Z</time>
      </trkpt>
      <trkpt lat="44.31102" lon="5.60586">
        <ele>968.3</ele>
        <time>2023-04-06T11:40:50Z</time>
      </trkpt>
      <trkpt lat="44.31103" lon="5.60585">
        <ele>968.5</ele>
        <time>2023-04-06T11:40:51Z</time>
      </trkpt>
      <trkpt lat="44.31106" lon="5.60582">
        <ele>969</ele>
        <time>2023-04-06T11:40:52Z</time>
      </trkpt>
      <trkpt lat="44.31107" lon="5.60581">
        <ele>969.1</ele>
        <time>2023-04-06T11:40:53Z</time>
      </trkpt>
      <trkpt lat="44.31109" lon="5.60578">
        <ele>969.6</ele>
        <time>2023-04-06T11:40:54Z</time>
      </trkpt>
      <trkpt lat="44.3111" lon="5.60577">
        <ele>969.8</ele>
        <time>2023-04-06T11:40:55Z</time>
      </trkpt>
      <trkpt lat="44.31112" lon="5.60574">
        <ele>970.1</ele>
        <time>2023-04-06T11:40:56Z</time>
      </trkpt>
      <trkpt lat="44.31116" lon="5.6057">
        <ele>970.8</ele>
        <time>2023-04-06T11:40:58Z</time>
      </trkpt>
      <trkpt lat="44.31118" lon="5.60568">
        <ele>971.2</ele>
        <time>2023-04-06T11:40:59Z</time>
      </trkpt>
      <trkpt lat="44.31122" lon="5.60566">
        <ele>971.8</ele>
        <time>2023-04-06T11:41:00Z</time>
      </trkpt>
      <trkpt lat="44.31123" lon="5.60565">
        <ele>972</ele>
        <time>2023-04-06T11:41:01Z</time>
      </trkpt>
      <trkpt lat="44.31126" lon="5.60563">
        <ele>972.6</ele>
        <time>2023-04-06T11:41:02Z</time>
      </trkpt>
      <trkpt lat="44.31127" lon="5.60562">
        <ele>972.7</ele>
        <time>2023-04-06T11:41:03Z</time>
      </trkpt>
      <trkpt lat="44.3113" lon="5.6056">
        <ele>973.2</ele>
        <time>2023-04-06T11:41:04Z</time>
      </trkpt>
      <trkpt lat="44.31131" lon="5.60559">
        <ele>973.4</ele>
        <time>2023-04-06T11:41:05Z</time>
      </trkpt>
      <trkpt lat="44.31133" lon="5.60557">
        <ele>973.8</ele>
        <time>2023-04-06T11:41:06Z</time>
      </trkpt>
      <trkpt lat="44.31135" lon="5.60556">
        <ele>974.2</ele>
        <time>2023-04-06T11:41:07Z</time>
      </trkpt>
      <trkpt lat="44.31139" lon="5.60552">
        <ele>974.9</ele>
        <time>2023-04-06T11:41:09Z</time>
      </trkpt>
      <trkpt lat="44.31141" lon="5.60551">
        <ele>975.3</ele>
        <time>2023-04-06T11:41:10Z</time>
      </trkpt>
      <trkpt lat="44.31143" lon="5.60547">
        <ele>975.9</ele>
        <time>2023-04-06T11:41:11Z</time>
      </trkpt>
      <trkpt lat="44.31144" lon="5.60546">
        <ele>976.1</ele>
        <time>2023-04-06T11:41:12Z</time>
      </trkpt>
      <trkpt lat="44.31146" lon="5.60542">
        <ele>976.8</ele>
        <time>2023-04-06T11:41:13Z</time>
      </trkpt>
      <trkpt lat="44.31147" lon="5.60541">
        <ele>977</ele>
        <time>2023-04-06T11:41:14Z</time>
      </trkpt>
      <trkpt lat="44.31148" lon="5.60537">
        <ele>977.5</ele>
        <time>2023-04-06T11:41:15Z</time>
      </trkpt>
      <trkpt lat="44.3115" lon="5.60532">
        <ele>978.2</ele>
        <time>2023-04-06T11:41:16Z</time>
      </trkpt>
      <trkpt lat="44.31151" lon="5.60531">
        <ele>978.4</ele>
        <time>2023-04-06T11:41:17Z</time>
      </trkpt>
      <trkpt lat="44.31151" lon="5.60528">
        <ele>978.8</ele>
        <time>2023-04-06T11:41:18Z</time>
      </trkpt>
      <trkpt lat="44.31149" lon="5.60525">
        <ele>979.3</ele>
        <time>2023-04-06T11:41:20Z</time>
      </trkpt>
      <trkpt lat="44.31148" lon="5.60523">
        <ele>979.6</ele>
        <time>2023-04-06T11:41:21Z</time>
      </trkpt>
      <trkpt lat="44.31147" lon="5.60522">
        <ele>979.8</ele>
        <time>2023-04-06T11:41:22Z</time>
      </trkpt>
      <trkpt lat="44.31145" lon="5.60521">
        <ele>980.1</ele>
        <time>2023-04-06T11:41:23Z</time>
      </trkpt>
      <trkpt lat="44.31144" lon="5.6052">
        <ele>980.3</ele>
        <time>2023-04-06T11:41:24Z</time>
      </trkpt>
      <trkpt lat="44.31141" lon="5.60519">
        <ele>980.8</ele>
        <time>2023-04-06T11:41:26Z</time>
      </trkpt>
      <trkpt lat="44.31139" lon="5.60518">
        <ele>981</ele>
        <time>2023-04-06T11:41:27Z</time>
      </trkpt>
      <trkpt lat="44.31137" lon="5.60516">
        <ele>981.4</ele>
        <time>2023-04-06T11:41:28Z</time>
      </trkpt>
      <trkpt lat="44.31136" lon="5.60516">
        <ele>981.5</ele>
        <time>2023-04-06T11:41:29Z</time>
      </trkpt>
      <trkpt lat="44.31134" lon="5.60514">
        <ele>981.8</ele>
        <time>2023-04-06T11:41:30Z</time>
      </trkpt>
      <trkpt lat="44.31131" lon="5.60511">
        <ele>982.3</ele>
        <time>2023-04-06T11:41:32Z</time>
      </trkpt>
      <trkpt lat="44.31129" lon="5.6051">
        <ele>982.6</ele>
        <time>2023-04-06T11:41:33Z</time>
      </trkpt>
      <trkpt lat="44.31126" lon="5.60508">
        <ele>983</ele>
        <time>2023-04-06T11:41:34Z</time>
      </trkpt>
      <trkpt lat="44.31125" lon="5.60507">
        <ele>983.2</ele>
        <time>2023-04-06T11:41:35Z</time>
      </trkpt>
      <trkpt lat="44.31122" lon="5.60505">
        <ele>983.7</ele>
        <time>2023-04-06T11:41:36Z</time>
      </trkpt>
      <trkpt lat="44.31121" lon="5.60504">
        <ele>983.8</ele>
        <time>2023-04-06T11:41:37Z</time>
      </trkpt>
      <trkpt lat="44.3112" lon="5.605">
        <ele>984.3</ele>
        <time>2023-04-06T11:41:38Z</time>
      </trkpt>
      <trkpt lat="44.3112" lon="5.60499">
        <ele>984.4</ele>
        <time>2023-04-06T11:41:39Z</time>
      </trkpt>
      <trkpt lat="44.31119" lon="5.60495">
        <ele>984.9</ele>
        <time>2023-04-06T11:41:40Z</time>
      </trkpt>
      <trkpt lat="44.31119" lon="5.60493">
        <ele>985.1</ele>
        <time>2023-04-06T11:41:41Z</time>
      </trkpt>
      <trkpt lat="44.3112" lon="5.60488">
        <ele>985.8</ele>
        <time>2023-04-06T11:41:43Z</time>
      </trkpt>
      <trkpt lat="44.31123" lon="5.60485">
        <ele>986.4</ele>
        <time>2023-04-06T11:41:44Z</time>
      </trkpt>
      <trkpt lat="44.31123" lon="5.60484">
        <ele>986.6</ele>
        <time>2023-04-06T11:41:45Z</time>
      </trkpt>
      <trkpt lat="44.31126" lon="5.60482">
        <ele>987.1</ele>
        <time>2023-04-06T11:41:46Z</time>
      </trkpt>
      <trkpt lat="44.31127" lon="5.60481">
        <ele>987.2</ele>
        <time>2023-04-06T11:41:47Z</time>
      </trkpt>
      <trkpt lat="44.3113" lon="5.6048">
        <ele>987.6</ele>
        <time>2023-04-06T11:41:48Z</time>
      </trkpt>
      <trkpt lat="44.31131" lon="5.6048">
        <ele>987.8</ele>
        <time>2023-04-06T11:41:49Z</time>
      </trkpt>
      <trkpt lat="44.31134" lon="5.60478">
        <ele>988.1</ele>
        <time>2023-04-06T11:41:50Z</time>
      </trkpt>
      <trkpt lat="44.31135" lon="5.60478">
        <ele>988.2</ele>
        <time>2023-04-06T11:41:51Z</time>
      </trkpt>
      <trkpt lat="44.31137" lon="5.60474">
        <ele>988.6</ele>
        <time>2023-04-06T11:41:52Z</time>
      </trkpt>
      <trkpt lat="44.31137" lon="5.60472">
        <ele>988.8</ele>
        <time>2023-04-06T11:41:53Z</time>
      </trkpt>
      <trkpt lat="44.31139" lon="5.60467">
        <ele>989.2</ele>
        <time>2023-04-06T11:41:55Z</time>
      </trkpt>
      <trkpt lat="44.31141" lon="5.60464">
        <ele>989.6</ele>
        <time>2023-04-06T11:41:56Z</time>
      </trkpt>
      <trkpt lat="44.31142" lon="5.60463">
        <ele>989.7</ele>
        <time>2023-04-06T11:41:57Z</time>
      </trkpt>
      <trkpt lat="44.31143" lon="5.60461">
        <ele>989.8</ele>
        <time>2023-04-06T11:41:58Z</time>
      </trkpt>
      <trkpt lat="44.31144" lon="5.60459">
        <ele>990</ele>
        <time>2023-04-06T11:41:59Z</time>
      </trkpt>
      <trkpt lat="44.31146" lon="5.60456">
        <ele>990.4</ele>
        <time>2023-04-06T11:42:00Z</time>
      </trkpt>
      <trkpt lat="44.31147" lon="5.60455">
        <ele>990.5</ele>
        <time>2023-04-06T11:42:01Z</time>
      </trkpt>
      <trkpt lat="44.31149" lon="5.60452">
        <ele>990.9</ele>
        <time>2023-04-06T11:42:02Z</time>
      </trkpt>
      <trkpt lat="44.3115" lon="5.60451">
        <ele>991</ele>
        <time>2023-04-06T11:42:03Z</time>
      </trkpt>
      <trkpt lat="44.31152" lon="5.60448">
        <ele>991.3</ele>
        <time>2023-04-06T11:42:04Z</time>
      </trkpt>
      <trkpt lat="44.31153" lon="5.60447">
        <ele>991.4</ele>
        <time>2023-04-06T11:42:05Z</time>
      </trkpt>
      <trkpt lat="44.31155" lon="5.60444">
        <ele>991.8</ele>
        <time>2023-04-06T11:42:06Z</time>
      </trkpt>
      <trkpt lat="44.31156" lon="5.60442">
        <ele>991.9</ele>
        <time>2023-04-06T11:42:07Z</time>
      </trkpt>
      <trkpt lat="44.31159" lon="5.60439">
        <ele>992.3</ele>
        <time>2023-04-06T11:42:08Z</time>
      </trkpt>
      <trkpt lat="44.3116" lon="5.60438">
        <ele>992.5</ele>
        <time>2023-04-06T11:42:09Z</time>
      </trkpt>
      <trkpt lat="44.31163" lon="5.60435">
        <ele>992.8</ele>
        <time>2023-04-06T11:42:10Z</time>
      </trkpt>
      <trkpt lat="44.31163" lon="5.60435">
        <ele>993</ele>
        <time>2023-04-06T11:42:11Z</time>
      </trkpt>
      <trkpt lat="44.31166" lon="5.60433">
        <ele>993.3</ele>
        <time>2023-04-06T11:42:12Z</time>
      </trkpt>
      <trkpt lat="44.31167" lon="5.60432">
        <ele>993.4</ele>
        <time>2023-04-06T11:42:13Z</time>
      </trkpt>
      <trkpt lat="44.31169" lon="5.60429">
        <ele>993.9</ele>
        <time>2023-04-06T11:42:14Z</time>
      </trkpt>
      <trkpt lat="44.3117" lon="5.60428">
        <ele>994</ele>
        <time>2023-04-06T11:42:15Z</time>
      </trkpt>
      <trkpt lat="44.31173" lon="5.60426">
        <ele>994.5</ele>
        <time>2023-04-06T11:42:16Z</time>
      </trkpt>
      <trkpt lat="44.31174" lon="5.60425">
        <ele>994.6</ele>
        <time>2023-04-06T11:42:17Z</time>
      </trkpt>
      <trkpt lat="44.31176" lon="5.60423">
        <ele>995</ele>
        <time>2023-04-06T11:42:18Z</time>
      </trkpt>
      <trkpt lat="44.31177" lon="5.60422">
        <ele>995.2</ele>
        <time>2023-04-06T11:42:19Z</time>
      </trkpt>
      <trkpt lat="44.31179" lon="5.60419">
        <ele>995.6</ele>
        <time>2023-04-06T11:42:20Z</time>
      </trkpt>
      <trkpt lat="44.3118" lon="5.60417">
        <ele>995.8</ele>
        <time>2023-04-06T11:42:21Z</time>
      </trkpt>
      <trkpt lat="44.31182" lon="5.60414">
        <ele>996.3</ele>
        <time>2023-04-06T11:42:22Z</time>
      </trkpt>
      <trkpt lat="44.31184" lon="5.60413">
        <ele>996.5</ele>
        <time>2023-04-06T11:42:23Z</time>
      </trkpt>
      <trkpt lat="44.31186" lon="5.6041">
        <ele>997.1</ele>
        <time>2023-04-06T11:42:24Z</time>
      </trkpt>
      <trkpt lat="44.31187" lon="5.60409">
        <ele>997.2</ele>
        <time>2023-04-06T11:42:25Z</time>
      </trkpt>
      <trkpt lat="44.31189" lon="5.60406">
        <ele>997.7</ele>
        <time>2023-04-06T11:42:26Z</time>
      </trkpt>
      <trkpt lat="44.31192" lon="5.60404">
        <ele>998.1</ele>
        <time>2023-04-06T11:42:27Z</time>
      </trkpt>
      <trkpt lat="44.31193" lon="5.60403">
        <ele>998.3</ele>
        <time>2023-04-06T11:42:28Z</time>
      </trkpt>
      <trkpt lat="44.31196" lon="5.60401">
        <ele>998.7</ele>
        <time>2023-04-06T11:42:29Z</time>
      </trkpt>
      <trkpt lat="44.31197" lon="5.60401">
        <ele>998.9</ele>
        <time>2023-04-06T11:42:30Z</time>
      </trkpt>
      <trkpt lat="44.31201" lon="5.60399">
        <ele>999.4</ele>
        <time>2023-04-06T11:42:31Z</time>
      </trkpt>
      <trkpt lat="44.31202" lon="5.60399">
        <ele>999.5</ele>
        <time>2023-04-06T11:42:32Z</time>
      </trkpt>
      <trkpt lat="44.31205" lon="5.60398">
        <ele>999.9</ele>
        <time>2023-04-06T11:42:33Z</time>
      </trkpt>
      <trkpt lat="44.31207" lon="5.60398">
        <ele>1000</ele>
        <time>2023-04-06T11:42:34Z</time>
      </trkpt>
      <trkpt lat="44.3121" lon="5.60398">
        <ele>1000.3</ele>
        <time>2023-04-06T11:42:35Z</time>
      </trkpt>
      <trkpt lat="44.31211" lon="5.60398">
        <ele>1000.4</ele>
        <time>2023-04-06T11:42:36Z</time>
      </trkpt>
      <trkpt lat="44.31214" lon="5.60398">
        <ele>1000.6</ele>
        <time>2023-04-06T11:42:37Z</time>
      </trkpt>
      <trkpt lat="44.31215" lon="5.60398">
        <ele>1000.7</ele>
        <time>2023-04-06T11:42:38Z</time>
      </trkpt>
      <trkpt lat="44.31218" lon="5.60398">
        <ele>1000.9</ele>
        <time>2023-04-06T11:42:39Z</time>
      </trkpt>
      <trkpt lat="44.3122" lon="5.60399">
        <ele>1001</ele>
        <time>2023-04-06T11:42:40Z</time>
      </trkpt>
      <trkpt lat="44.31223" lon="5.60399">
        <ele>1001.2</ele>
        <time>2023-04-06T11:42:41Z</time>
      </trkpt>
      <trkpt lat="44.31226" lon="5.60399">
        <ele>1001.5</ele>
        <time>2023-04-06T11:42:42Z</time>
      </trkpt>
      <trkpt lat="44.31229" lon="5.60399">
        <ele>1001.8</ele>
        <time>2023-04-06T11:42:43Z</time>
      </trkpt>
      <trkpt lat="44.31234" lon="5.60401">
        <ele>1002.2</ele>
        <time>2023-04-06T11:42:44Z</time>
      </trkpt>
      <trkpt lat="44.31239" lon="5.60401">
        <ele>1002.6</ele>
        <time>2023-04-06T11:42:45Z</time>
      </trkpt>
      <trkpt lat="44.31245" lon="5.60402">
        <ele>1003.1</ele>
        <time>2023-04-06T11:42:46Z</time>
      </trkpt>
      <trkpt lat="44.31252" lon="5.60403">
        <ele>1003.6</ele>
        <time>2023-04-06T11:42:47Z</time>
      </trkpt>
      <trkpt lat="44.31258" lon="5.60405">
        <ele>1004.2</ele>
        <time>2023-04-06T11:42:48Z</time>
      </trkpt>
      <trkpt lat="44.31264" lon="5.60406">
        <ele>1004.8</ele>
        <time>2023-04-06T11:42:49Z</time>
      </trkpt>
      <trkpt lat="44.31269" lon="5.60405">
        <ele>1005.5</ele>
        <time>2023-04-06T11:42:50Z</time>
      </trkpt>
      <trkpt lat="44.31274" lon="5.60401">
        <ele>1006.2</ele>
        <time>2023-04-06T11:42:51Z</time>
      </trkpt>
      <trkpt lat="44.31278" lon="5.60396">
        <ele>1007</ele>
        <time>2023-04-06T11:42:52Z</time>
      </trkpt>
      <trkpt lat="44.3128" lon="5.6039">
        <ele>1007.7</ele>
        <time>2023-04-06T11:42:53Z</time>
      </trkpt>
      <trkpt lat="44.31282" lon="5.60386">
        <ele>1008.2</ele>
        <time>2023-04-06T11:42:54Z</time>
      </trkpt>
      <trkpt lat="44.31283" lon="5.60382">
        <ele>1008.6</ele>
        <time>2023-04-06T11:42:55Z</time>
      </trkpt>
      <trkpt lat="44.31285" lon="5.60379">
        <ele>1009</ele>
        <time>2023-04-06T11:42:56Z</time>
      </trkpt>
      <trkpt lat="44.31286" lon="5.60374">
        <ele>1009.5</ele>
        <time>2023-04-06T11:42:57Z</time>
      </trkpt>
      <trkpt lat="44.31287" lon="5.60373">
        <ele>1009.7</ele>
        <time>2023-04-06T11:42:58Z</time>
      </trkpt>
      <trkpt lat="44.31289" lon="5.60368">
        <ele>1010.2</ele>
        <time>2023-04-06T11:42:59Z</time>
      </trkpt>
      <trkpt lat="44.31289" lon="5.60366">
        <ele>1010.4</ele>
        <time>2023-04-06T11:43:00Z</time>
      </trkpt>
      <trkpt lat="44.31291" lon="5.60362">
        <ele>1010.9</ele>
        <time>2023-04-06T11:43:01Z</time>
      </trkpt>
      <trkpt lat="44.31292" lon="5.6036">
        <ele>1011.1</ele>
        <time>2023-04-06T11:43:02Z</time>
      </trkpt>
      <trkpt lat="44.31294" lon="5.60355">
        <ele>1011.7</ele>
        <time>2023-04-06T11:43:03Z</time>
      </trkpt>
      <trkpt lat="44.31294" lon="5.60354">
        <ele>1011.9</ele>
        <time>2023-04-06T11:43:04Z</time>
      </trkpt>
      <trkpt lat="44.31297" lon="5.60349">
        <ele>1012.6</ele>
        <time>2023-04-06T11:43:05Z</time>
      </trkpt>
      <trkpt lat="44.31297" lon="5.60348">
        <ele>1012.8</ele>
        <time>2023-04-06T11:43:06Z</time>
      </trkpt>
      <trkpt lat="44.31299" lon="5.60343">
        <ele>1013.4</ele>
        <time>2023-04-06T11:43:07Z</time>
      </trkpt>
      <trkpt lat="44.31299" lon="5.60341">
        <ele>1013.7</ele>
        <time>2023-04-06T11:43:08Z</time>
      </trkpt>
      <trkpt lat="44.313" lon="5.60336">
        <ele>1014.3</ele>
        <time>2023-04-06T11:43:09Z</time>
      </trkpt>
      <trkpt lat="44.31301" lon="5.60334">
        <ele>1014.6</ele>
        <time>2023-04-06T11:43:10Z</time>
      </trkpt>
      <trkpt lat="44.31302" lon="5.6033">
        <ele>1015.1</ele>
        <time>2023-04-06T11:43:11Z</time>
      </trkpt>
      <trkpt lat="44.31302" lon="5.60328">
        <ele>1015.3</ele>
        <time>2023-04-06T11:43:12Z</time>
      </trkpt>
      <trkpt lat="44.31303" lon="5.60324">
        <ele>1015.8</ele>
        <time>2023-04-06T11:43:13Z</time>
      </trkpt>
      <trkpt lat="44.31304" lon="5.60323">
        <ele>1016</ele>
        <time>2023-04-06T11:43:14Z</time>
      </trkpt>
      <trkpt lat="44.31304" lon="5.60319">
        <ele>1016.4</ele>
        <time>2023-04-06T11:43:15Z</time>
      </trkpt>
      <trkpt lat="44.31304" lon="5.60318">
        <ele>1016.5</ele>
        <time>2023-04-06T11:43:16Z</time>
      </trkpt>
      <trkpt lat="44.31305" lon="5.60314">
        <ele>1017</ele>
        <time>2023-04-06T11:43:17Z</time>
      </trkpt>
      <trkpt lat="44.31305" lon="5.60313">
        <ele>1017.2</ele>
        <time>2023-04-06T11:43:18Z</time>
      </trkpt>
      <trkpt lat="44.31306" lon="5.60309">
        <ele>1017.6</ele>
        <time>2023-04-06T11:43:19Z</time>
      </trkpt>
      <trkpt lat="44.31306" lon="5.60307">
        <ele>1017.8</ele>
        <time>2023-04-06T11:43:20Z</time>
      </trkpt>
      <trkpt lat="44.31307" lon="5.60303">
        <ele>1018.2</ele>
        <time>2023-04-06T11:43:21Z</time>
      </trkpt>
      <trkpt lat="44.31307" lon="5.60301">
        <ele>1018.3</ele>
        <time>2023-04-06T11:43:22Z</time>
      </trkpt>
      <trkpt lat="44.31308" lon="5.60297">
        <ele>1018.8</ele>
        <time>2023-04-06T11:43:23Z</time>
      </trkpt>
      <trkpt lat="44.31308" lon="5.60296">
        <ele>1018.9</ele>
        <time>2023-04-06T11:43:24Z</time>
      </trkpt>
      <trkpt lat="44.31309" lon="5.60291">
        <ele>1019.3</ele>
        <time>2023-04-06T11:43:25Z</time>
      </trkpt>
      <trkpt lat="44.3131" lon="5.6029">
        <ele>1019.5</ele>
        <time>2023-04-06T11:43:26Z</time>
      </trkpt>
      <trkpt lat="44.31311" lon="5.60286">
        <ele>1019.9</ele>
        <time>2023-04-06T11:43:27Z</time>
      </trkpt>
      <trkpt lat="44.31312" lon="5.60285">
        <ele>1020.1</ele>
        <time>2023-04-06T11:43:28Z</time>
      </trkpt>
      <trkpt lat="44.31313" lon="5.60281">
        <ele>1020.5</ele>
        <time>2023-04-06T11:43:29Z</time>
      </trkpt>
      <trkpt lat="44.31313" lon="5.60279">
        <ele>1020.6</ele>
        <time>2023-04-06T11:43:30Z</time>
      </trkpt>
      <trkpt lat="44.31314" lon="5.60275">
        <ele>1021.1</ele>
        <time>2023-04-06T11:43:31Z</time>
      </trkpt>
      <trkpt lat="44.31314" lon="5.60274">
        <ele>1021.2</ele>
        <time>2023-04-06T11:43:32Z</time>
      </trkpt>
      <trkpt lat="44.31316" lon="5.6027">
        <ele>1021.7</ele>
        <time>2023-04-06T11:43:33Z</time>
      </trkpt>
      <trkpt lat="44.31316" lon="5.60269">
        <ele>1021.8</ele>
        <time>2023-04-06T11:43:34Z</time>
      </trkpt>
      <trkpt lat="44.31318" lon="5.60265">
        <ele>1022.2</ele>
        <time>2023-04-06T11:43:35Z</time>
      </trkpt>
      <trkpt lat="44.31319" lon="5.60264">
        <ele>1022.4</ele>
        <time>2023-04-06T11:43:36Z</time>
      </trkpt>
      <trkpt lat="44.3132" lon="5.60262">
        <ele>1022.6</ele>
        <time>2023-04-06T11:43:37Z</time>
      </trkpt>
      <trkpt lat="44.31321" lon="5.6026">
        <ele>1022.9</ele>
        <time>2023-04-06T11:43:38Z</time>
      </trkpt>
      <trkpt lat="44.31323" lon="5.60257">
        <ele>1023.3</ele>
        <time>2023-04-06T11:43:39Z</time>
      </trkpt>
      <trkpt lat="44.31323" lon="5.60256">
        <ele>1023.5</ele>
        <time>2023-04-06T11:43:40Z</time>
      </trkpt>
      <trkpt lat="44.31324" lon="5.60252">
        <ele>1023.9</ele>
        <time>2023-04-06T11:43:41Z</time>
      </trkpt>
      <trkpt lat="44.31325" lon="5.6025">
        <ele>1024.1</ele>
        <time>2023-04-06T11:43:42Z</time>
      </trkpt>
      <trkpt lat="44.31326" lon="5.60246">
        <ele>1024.6</ele>
        <time>2023-04-06T11:43:43Z</time>
      </trkpt>
      <trkpt lat="44.31327" lon="5.60245">
        <ele>1024.8</ele>
        <time>2023-04-06T11:43:44Z</time>
      </trkpt>
      <trkpt lat="44.31329" lon="5.60242">
        <ele>1025.3</ele>
        <time>2023-04-06T11:43:45Z</time>
      </trkpt>
      <trkpt lat="44.31329" lon="5.6024">
        <ele>1025.4</ele>
        <time>2023-04-06T11:43:46Z</time>
      </trkpt>
      <trkpt lat="44.31331" lon="5.60238">
        <ele>1025.7</ele>
        <time>2023-04-06T11:43:47Z</time>
      </trkpt>
      <trkpt lat="44.31332" lon="5.60237">
        <ele>1026</ele>
        <time>2023-04-06T11:43:48Z</time>
      </trkpt>
      <trkpt lat="44.31334" lon="5.60234">
        <ele>1026.4</ele>
        <time>2023-04-06T11:43:49Z</time>
      </trkpt>
      <trkpt lat="44.31335" lon="5.60233">
        <ele>1026.6</ele>
        <time>2023-04-06T11:43:50Z</time>
      </trkpt>
      <trkpt lat="44.31337" lon="5.6023">
        <ele>1027.1</ele>
        <time>2023-04-06T11:43:51Z</time>
      </trkpt>
      <trkpt lat="44.31338" lon="5.60229">
        <ele>1027.2</ele>
        <time>2023-04-06T11:43:52Z</time>
      </trkpt>
      <trkpt lat="44.3134" lon="5.60227">
        <ele>1027.7</ele>
        <time>2023-04-06T11:43:53Z</time>
      </trkpt>
      <trkpt lat="44.31341" lon="5.60226">
        <ele>1027.8</ele>
        <time>2023-04-06T11:43:54Z</time>
      </trkpt>
      <trkpt lat="44.31345" lon="5.60223">
        <ele>1028.4</ele>
        <time>2023-04-06T11:43:55Z</time>
      </trkpt>
      <trkpt lat="44.31346" lon="5.60222">
        <ele>1028.6</ele>
        <time>2023-04-06T11:43:56Z</time>
      </trkpt>
      <trkpt lat="44.31349" lon="5.60219">
        <ele>1029.1</ele>
        <time>2023-04-06T11:43:57Z</time>
      </trkpt>
      <trkpt lat="44.3135" lon="5.60218">
        <ele>1029.3</ele>
        <time>2023-04-06T11:43:58Z</time>
      </trkpt>
      <trkpt lat="44.31353" lon="5.60215">
        <ele>1029.8</ele>
        <time>2023-04-06T11:43:59Z</time>
      </trkpt>
      <trkpt lat="44.31354" lon="5.60214">
        <ele>1030</ele>
        <time>2023-04-06T11:44:00Z</time>
      </trkpt>
      <trkpt lat="44.31357" lon="5.6021">
        <ele>1030.5</ele>
        <time>2023-04-06T11:44:01Z</time>
      </trkpt>
      <trkpt lat="44.31358" lon="5.60209">
        <ele>1030.7</ele>
        <time>2023-04-06T11:44:02Z</time>
      </trkpt>
      <trkpt lat="44.31361" lon="5.60206">
        <ele>1031.2</ele>
        <time>2023-04-06T11:44:03Z</time>
      </trkpt>
      <trkpt lat="44.31362" lon="5.60205">
        <ele>1031.4</ele>
        <time>2023-04-06T11:44:04Z</time>
      </trkpt>
      <trkpt lat="44.31365" lon="5.60202">
        <ele>1031.9</ele>
        <time>2023-04-06T11:44:05Z</time>
      </trkpt>
      <trkpt lat="44.31366" lon="5.60201">
        <ele>1032.1</ele>
        <time>2023-04-06T11:44:06Z</time>
      </trkpt>
      <trkpt lat="44.31368" lon="5.60199">
        <ele>1032.5</ele>
        <time>2023-04-06T11:44:07Z</time>
      </trkpt>
      <trkpt lat="44.31369" lon="5.60198">
        <ele>1032.7</ele>
        <time>2023-04-06T11:44:08Z</time>
      </trkpt>
      <trkpt lat="44.31372" lon="5.60195">
        <ele>1033.2</ele>
        <time>2023-04-06T11:44:09Z</time>
      </trkpt>
      <trkpt lat="44.31373" lon="5.60194">
        <ele>1033.4</ele>
        <time>2023-04-06T11:44:10Z</time>
      </trkpt>
      <trkpt lat="44.31376" lon="5.60192">
        <ele>1033.7</ele>
        <time>2023-04-06T11:44:11Z</time>
      </trkpt>
      <trkpt lat="44.31377" lon="5.60192">
        <ele>1033.7</ele>
        <time>2023-04-06T11:44:12Z</time>
      </trkpt>
      <trkpt lat="44.31381" lon="5.60191">
        <ele>1033.7</ele>
        <time>2023-04-06T11:44:13Z</time>
      </trkpt>
      <trkpt lat="44.31382" lon="5.60191">
        <ele>1033.7</ele>
        <time>2023-04-06T11:44:14Z</time>
      </trkpt>
      <trkpt lat="44.31385" lon="5.60193">
        <ele>1033.7</ele>
        <time>2023-04-06T11:44:15Z</time>
      </trkpt>
      <trkpt lat="44.31386" lon="5.60194">
        <ele>1033.7</ele>
        <time>2023-04-06T11:44:16Z</time>
      </trkpt>
      <trkpt lat="44.31389" lon="5.60198">
        <ele>1033.7</ele>
        <time>2023-04-06T11:44:17Z</time>
      </trkpt>
      <trkpt lat="44.3139" lon="5.60199">
        <ele>1033.7</ele>
        <time>2023-04-06T11:44:18Z</time>
      </trkpt>
      <trkpt lat="44.31392" lon="5.60202">
        <ele>1033.7</ele>
        <time>2023-04-06T11:44:19Z</time>
      </trkpt>
      <trkpt lat="44.31392" lon="5.60203">
        <ele>1033.7</ele>
        <time>2023-04-06T11:44:20Z</time>
      </trkpt>
      <trkpt lat="44.31394" lon="5.60207">
        <ele>1033.7</ele>
        <time>2023-04-06T11:44:21Z</time>
      </trkpt>
      <trkpt lat="44.31394" lon="5.60209">
        <ele>1033.8</ele>
        <time>2023-04-06T11:44:22Z</time>
      </trkpt>
      <trkpt lat="44.31395" lon="5.60213">
        <ele>1033.8</ele>
        <time>2023-04-06T11:44:23Z</time>
      </trkpt>
      <trkpt lat="44.31395" lon="5.60215">
        <ele>1033.8</ele>
        <time>2023-04-06T11:44:24Z</time>
      </trkpt>
      <trkpt lat="44.31396" lon="5.6022">
        <ele>1033.8</ele>
        <time>2023-04-06T11:44:25Z</time>
      </trkpt>
      <trkpt lat="44.31396" lon="5.60222">
        <ele>1033.8</ele>
        <time>2023-04-06T11:44:26Z</time>
      </trkpt>
      <trkpt lat="44.31397" lon="5.60226">
        <ele>1033.9</ele>
        <time>2023-04-06T11:44:27Z</time>
      </trkpt>
      <trkpt lat="44.31397" lon="5.60228">
        <ele>1033.9</ele>
        <time>2023-04-06T11:44:28Z</time>
      </trkpt>
      <trkpt lat="44.31397" lon="5.60233">
        <ele>1033.9</ele>
        <time>2023-04-06T11:44:29Z</time>
      </trkpt>
      <trkpt lat="44.31397" lon="5.60235">
        <ele>1033.9</ele>
        <time>2023-04-06T11:44:30Z</time>
      </trkpt>
      <trkpt lat="44.31397" lon="5.6024">
        <ele>1034</ele>
        <time>2023-04-06T11:44:31Z</time>
      </trkpt>
      <trkpt lat="44.31397" lon="5.60241">
        <ele>1034</ele>
        <time>2023-04-06T11:44:32Z</time>
      </trkpt>
      <trkpt lat="44.314" lon="5.60247">
        <ele>1034.2</ele>
        <time>2023-04-06T11:44:34Z</time>
      </trkpt>
      <trkpt lat="44.31403" lon="5.60247">
        <ele>1034.4</ele>
        <time>2023-04-06T11:44:35Z</time>
      </trkpt>
      <trkpt lat="44.31406" lon="5.60245">
        <ele>1034.5</ele>
        <time>2023-04-06T11:44:36Z</time>
      </trkpt>
      <trkpt lat="44.31406" lon="5.60244">
        <ele>1034.5</ele>
        <time>2023-04-06T11:44:37Z</time>
      </trkpt>
      <trkpt lat="44.31407" lon="5.60239">
        <ele>1034.6</ele>
        <time>2023-04-06T11:44:38Z</time>
      </trkpt>
      <trkpt lat="44.31408" lon="5.60237">
        <ele>1034.6</ele>
        <time>2023-04-06T11:44:39Z</time>
      </trkpt>
      <trkpt lat="44.31408" lon="5.60232">
        <ele>1034.7</ele>
        <time>2023-04-06T11:44:40Z</time>
      </trkpt>
      <trkpt lat="44.31408" lon="5.6023">
        <ele>1034.7</ele>
        <time>2023-04-06T11:44:41Z</time>
      </trkpt>
      <trkpt lat="44.31407" lon="5.60226">
        <ele>1034.7</ele>
        <time>2023-04-06T11:44:42Z</time>
      </trkpt>
      <trkpt lat="44.31407" lon="5.60223">
        <ele>1034.7</ele>
        <time>2023-04-06T11:44:43Z</time>
      </trkpt>
      <trkpt lat="44.31408" lon="5.60215">
        <ele>1034.8</ele>
        <time>2023-04-06T11:44:45Z</time>
      </trkpt>
      <trkpt lat="44.31408" lon="5.60212">
        <ele>1034.9</ele>
        <time>2023-04-06T11:44:46Z</time>
      </trkpt>
      <trkpt lat="44.31409" lon="5.60206">
        <ele>1035</ele>
        <time>2023-04-06T11:44:47Z</time>
      </trkpt>
      <trkpt lat="44.31409" lon="5.60205">
        <ele>1035.1</ele>
        <time>2023-04-06T11:44:48Z</time>
      </trkpt>
      <trkpt lat="44.3141" lon="5.602">
        <ele>1035.2</ele>
        <time>2023-04-06T11:44:49Z</time>
      </trkpt>
      <trkpt lat="44.3141" lon="5.60198">
        <ele>1035.3</ele>
        <time>2023-04-06T11:44:50Z</time>
      </trkpt>
      <trkpt lat="44.31411" lon="5.60196">
        <ele>1035.4</ele>
        <time>2023-04-06T11:44:51Z</time>
      </trkpt>
      <trkpt lat="44.31411" lon="5.60194">
        <ele>1035.5</ele>
        <time>2023-04-06T11:44:52Z</time>
      </trkpt>
      <trkpt lat="44.31412" lon="5.6019">
        <ele>1035.6</ele>
        <time>2023-04-06T11:44:53Z</time>
      </trkpt>
      <trkpt lat="44.31412" lon="5.60189">
        <ele>1035.7</ele>
        <time>2023-04-06T11:44:54Z</time>
      </trkpt>
      <trkpt lat="44.31413" lon="5.60183">
        <ele>1035.8</ele>
        <time>2023-04-06T11:44:56Z</time>
      </trkpt>
      <trkpt lat="44.31413" lon="5.60178">
        <ele>1035.9</ele>
        <time>2023-04-06T11:44:57Z</time>
      </trkpt>
      <trkpt lat="44.31414" lon="5.60176">
        <ele>1036</ele>
        <time>2023-04-06T11:44:58Z</time>
      </trkpt>
      <trkpt lat="44.31414" lon="5.60171">
        <ele>1036.1</ele>
        <time>2023-04-06T11:44:59Z</time>
      </trkpt>
      <trkpt lat="44.31415" lon="5.60169">
        <ele>1036.1</ele>
        <time>2023-04-06T11:45:00Z</time>
      </trkpt>
      <trkpt lat="44.31415" lon="5.60164">
        <ele>1036.2</ele>
        <time>2023-04-06T11:45:01Z</time>
      </trkpt>
      <trkpt lat="44.31415" lon="5.60163">
        <ele>1036.3</ele>
        <time>2023-04-06T11:45:02Z</time>
      </trkpt>
      <trkpt lat="44.31415" lon="5.60158">
        <ele>1036.4</ele>
        <time>2023-04-06T11:45:03Z</time>
      </trkpt>
      <trkpt lat="44.31415" lon="5.60156">
        <ele>1036.5</ele>
        <time>2023-04-06T11:45:04Z</time>
      </trkpt>
      <trkpt lat="44.31414" lon="5.60153">
        <ele>1036.6</ele>
        <time>2023-04-06T11:45:05Z</time>
      </trkpt>
      <trkpt lat="44.31411" lon="5.60147">
        <ele>1036.8</ele>
        <time>2023-04-06T11:45:07Z</time>
      </trkpt>
      <trkpt lat="44.31409" lon="5.60144">
        <ele>1037</ele>
        <time>2023-04-06T11:45:08Z</time>
      </trkpt>
      <trkpt lat="44.31408" lon="5.60139">
        <ele>1037.1</ele>
        <time>2023-04-06T11:45:09Z</time>
      </trkpt>
      <trkpt lat="44.31407" lon="5.60137">
        <ele>1037.2</ele>
        <time>2023-04-06T11:45:10Z</time>
      </trkpt>
      <trkpt lat="44.31405" lon="5.60133">
        <ele>1037.4</ele>
        <time>2023-04-06T11:45:11Z</time>
      </trkpt>
      <trkpt lat="44.31404" lon="5.60132">
        <ele>1037.4</ele>
        <time>2023-04-06T11:45:12Z</time>
      </trkpt>
      <trkpt lat="44.31402" lon="5.60129">
        <ele>1037.6</ele>
        <time>2023-04-06T11:45:13Z</time>
      </trkpt>
      <trkpt lat="44.31402" lon="5.60128">
        <ele>1037.7</ele>
        <time>2023-04-06T11:45:14Z</time>
      </trkpt>
      <trkpt lat="44.31399" lon="5.60124">
        <ele>1037.9</ele>
        <time>2023-04-06T11:45:15Z</time>
      </trkpt>
      <trkpt lat="44.31399" lon="5.60123">
        <ele>1037.9</ele>
        <time>2023-04-06T11:45:16Z</time>
      </trkpt>
      <trkpt lat="44.31396" lon="5.60118">
        <ele>1038.2</ele>
        <time>2023-04-06T11:45:18Z</time>
      </trkpt>
      <trkpt lat="44.31394" lon="5.60114">
        <ele>1038.4</ele>
        <time>2023-04-06T11:45:19Z</time>
      </trkpt>
      <trkpt lat="44.31394" lon="5.60113">
        <ele>1038.5</ele>
        <time>2023-04-06T11:45:20Z</time>
      </trkpt>
      <trkpt lat="44.31394" lon="5.6011">
        <ele>1038.6</ele>
        <time>2023-04-06T11:45:21Z</time>
      </trkpt>
      <trkpt lat="44.31393" lon="5.60108">
        <ele>1038.7</ele>
        <time>2023-04-06T11:45:22Z</time>
      </trkpt>
      <trkpt lat="44.31393" lon="5.60104">
        <ele>1038.9</ele>
        <time>2023-04-06T11:45:23Z</time>
      </trkpt>
      <trkpt lat="44.31393" lon="5.60103">
        <ele>1038.9</ele>
        <time>2023-04-06T11:45:24Z</time>
      </trkpt>
      <trkpt lat="44.31392" lon="5.60099">
        <ele>1039.2</ele>
        <time>2023-04-06T11:45:25Z</time>
      </trkpt>
      <trkpt lat="44.31392" lon="5.60097">
        <ele>1039.2</ele>
        <time>2023-04-06T11:45:26Z</time>
      </trkpt>
      <trkpt lat="44.31392" lon="5.60094">
        <ele>1039.4</ele>
        <time>2023-04-06T11:45:27Z</time>
      </trkpt>
      <trkpt lat="44.31391" lon="5.60089">
        <ele>1039.6</ele>
        <time>2023-04-06T11:45:29Z</time>
      </trkpt>
      <trkpt lat="44.3139" lon="5.60086">
        <ele>1039.8</ele>
        <time>2023-04-06T11:45:30Z</time>
      </trkpt>
      <trkpt lat="44.3139" lon="5.60081">
        <ele>1040</ele>
        <time>2023-04-06T11:45:31Z</time>
      </trkpt>
      <trkpt lat="44.3139" lon="5.6008">
        <ele>1040.1</ele>
        <time>2023-04-06T11:45:32Z</time>
      </trkpt>
      <trkpt lat="44.3139" lon="5.60076">
        <ele>1040.2</ele>
        <time>2023-04-06T11:45:33Z</time>
      </trkpt>
      <trkpt lat="44.3139" lon="5.60074">
        <ele>1040.3</ele>
        <time>2023-04-06T11:45:34Z</time>
      </trkpt>
      <trkpt lat="44.3139" lon="5.6007">
        <ele>1040.5</ele>
        <time>2023-04-06T11:45:35Z</time>
      </trkpt>
      <trkpt lat="44.3139" lon="5.60068">
        <ele>1040.6</ele>
        <time>2023-04-06T11:45:36Z</time>
      </trkpt>
      <trkpt lat="44.31391" lon="5.60064">
        <ele>1040.8</ele>
        <time>2023-04-06T11:45:37Z</time>
      </trkpt>
      <trkpt lat="44.31391" lon="5.60062">
        <ele>1040.9</ele>
        <time>2023-04-06T11:45:38Z</time>
      </trkpt>
      <trkpt lat="44.31391" lon="5.60056">
        <ele>1041.2</ele>
        <time>2023-04-06T11:45:40Z</time>
      </trkpt>
      <trkpt lat="44.31392" lon="5.60054">
        <ele>1041.3</ele>
        <time>2023-04-06T11:45:41Z</time>
      </trkpt>
      <trkpt lat="44.31392" lon="5.60052">
        <ele>1041.4</ele>
        <time>2023-04-06T11:45:42Z</time>
      </trkpt>
      <trkpt lat="44.31393" lon="5.60048">
        <ele>1041.5</ele>
        <time>2023-04-06T11:45:43Z</time>
      </trkpt>
      <trkpt lat="44.31393" lon="5.60047">
        <ele>1041.6</ele>
        <time>2023-04-06T11:45:44Z</time>
      </trkpt>
      <trkpt lat="44.31394" lon="5.60041">
        <ele>1041.8</ele>
        <time>2023-04-06T11:45:46Z</time>
      </trkpt>
      <trkpt lat="44.31395" lon="5.60037">
        <ele>1042</ele>
        <time>2023-04-06T11:45:47Z</time>
      </trkpt>
      <trkpt lat="44.31395" lon="5.60036">
        <ele>1042.1</ele>
        <time>2023-04-06T11:45:48Z</time>
      </trkpt>
      <trkpt lat="44.31396" lon="5.60031">
        <ele>1042.4</ele>
        <time>2023-04-06T11:45:49Z</time>
      </trkpt>
      <trkpt lat="44.31396" lon="5.60029">
        <ele>1042.4</ele>
        <time>2023-04-06T11:45:50Z</time>
      </trkpt>
      <trkpt lat="44.31397" lon="5.60025">
        <ele>1042.7</ele>
        <time>2023-04-06T11:45:51Z</time>
      </trkpt>
      <trkpt lat="44.31398" lon="5.60023">
        <ele>1042.8</ele>
        <time>2023-04-06T11:45:52Z</time>
      </trkpt>
      <trkpt lat="44.31398" lon="5.60018">
        <ele>1043</ele>
        <time>2023-04-06T11:45:53Z</time>
      </trkpt>
      <trkpt lat="44.31398" lon="5.60016">
        <ele>1043</ele>
        <time>2023-04-06T11:45:54Z</time>
      </trkpt>
      <trkpt lat="44.31399" lon="5.60014">
        <ele>1043.2</ele>
        <time>2023-04-06T11:45:55Z</time>
      </trkpt>
      <trkpt lat="44.31399" lon="5.60008">
        <ele>1043.3</ele>
        <time>2023-04-06T11:45:57Z</time>
      </trkpt>
      <trkpt lat="44.314" lon="5.60005">
        <ele>1043.4</ele>
        <time>2023-04-06T11:45:58Z</time>
      </trkpt>
      <trkpt lat="44.314" lon="5.6">
        <ele>1043.6</ele>
        <time>2023-04-06T11:45:59Z</time>
      </trkpt>
      <trkpt lat="44.31401" lon="5.59999">
        <ele>1043.6</ele>
        <time>2023-04-06T11:46:00Z</time>
      </trkpt>
      <trkpt lat="44.31401" lon="5.59995">
        <ele>1043.7</ele>
        <time>2023-04-06T11:46:01Z</time>
      </trkpt>
      <trkpt lat="44.31401" lon="5.59993">
        <ele>1043.8</ele>
        <time>2023-04-06T11:46:02Z</time>
      </trkpt>
      <trkpt lat="44.31402" lon="5.59989">
        <ele>1043.9</ele>
        <time>2023-04-06T11:46:03Z</time>
      </trkpt>
      <trkpt lat="44.31402" lon="5.59988">
        <ele>1043.9</ele>
        <time>2023-04-06T11:46:04Z</time>
      </trkpt>
      <trkpt lat="44.31403" lon="5.59983">
        <ele>1044.1</ele>
        <time>2023-04-06T11:46:05Z</time>
      </trkpt>
      <trkpt lat="44.31403" lon="5.59982">
        <ele>1044.1</ele>
        <time>2023-04-06T11:46:06Z</time>
      </trkpt>
      <trkpt lat="44.31405" lon="5.59978">
        <ele>1044.2</ele>
        <time>2023-04-06T11:46:07Z</time>
      </trkpt>
      <trkpt lat="44.31405" lon="5.59976">
        <ele>1044.3</ele>
        <time>2023-04-06T11:46:08Z</time>
      </trkpt>
      <trkpt lat="44.31407" lon="5.59973">
        <ele>1044.4</ele>
        <time>2023-04-06T11:46:09Z</time>
      </trkpt>
      <trkpt lat="44.31408" lon="5.59969">
        <ele>1044.5</ele>
        <time>2023-04-06T11:46:10Z</time>
      </trkpt>
      <trkpt lat="44.31409" lon="5.59967">
        <ele>1044.5</ele>
        <time>2023-04-06T11:46:11Z</time>
      </trkpt>
      <trkpt lat="44.31409" lon="5.59965">
        <ele>1044.6</ele>
        <time>2023-04-06T11:46:12Z</time>
      </trkpt>
      <trkpt lat="44.31409" lon="5.59963">
        <ele>1044.6</ele>
        <time>2023-04-06T11:46:13Z</time>
      </trkpt>
      <trkpt lat="44.3141" lon="5.59961">
        <ele>1044.7</ele>
        <time>2023-04-06T11:46:14Z</time>
      </trkpt>
      <trkpt lat="44.3141" lon="5.59958">
        <ele>1044.8</ele>
        <time>2023-04-06T11:46:15Z</time>
      </trkpt>
      <trkpt lat="44.3141" lon="5.59955">
        <ele>1044.9</ele>
        <time>2023-04-06T11:46:16Z</time>
      </trkpt>
      <trkpt lat="44.3141" lon="5.59953">
        <ele>1045</ele>
        <time>2023-04-06T11:46:17Z</time>
      </trkpt>
      <trkpt lat="44.3141" lon="5.59948">
        <ele>1045.2</ele>
        <time>2023-04-06T11:46:19Z</time>
      </trkpt>
      <trkpt lat="44.3141" lon="5.59946">
        <ele>1045.2</ele>
        <time>2023-04-06T11:46:20Z</time>
      </trkpt>
      <trkpt lat="44.31411" lon="5.59944">
        <ele>1045.3</ele>
        <time>2023-04-06T11:46:21Z</time>
      </trkpt>
      <trkpt lat="44.31411" lon="5.59942">
        <ele>1045.4</ele>
        <time>2023-04-06T11:46:22Z</time>
      </trkpt>
      <trkpt lat="44.31411" lon="5.59939">
        <ele>1045.5</ele>
        <time>2023-04-06T11:46:23Z</time>
      </trkpt>
      <trkpt lat="44.31411" lon="5.59936">
        <ele>1045.7</ele>
        <time>2023-04-06T11:46:24Z</time>
      </trkpt>
      <trkpt lat="44.31411" lon="5.59934">
        <ele>1045.8</ele>
        <time>2023-04-06T11:46:25Z</time>
      </trkpt>
      <trkpt lat="44.31411" lon="5.59931">
        <ele>1045.9</ele>
        <time>2023-04-06T11:46:26Z</time>
      </trkpt>
      <trkpt lat="44.31412" lon="5.5993">
        <ele>1046</ele>
        <time>2023-04-06T11:46:27Z</time>
      </trkpt>
      <trkpt lat="44.31412" lon="5.59929">
        <ele>1046</ele>
        <time>2023-04-06T11:46:28Z</time>
      </trkpt>
      <trkpt lat="44.31412" lon="5.59929">
        <ele>1046</ele>
        <time>2023-04-06T11:46:29Z</time>
      </trkpt>
      <trkpt lat="44.31413" lon="5.59925">
        <ele>1046.2</ele>
        <time>2023-04-06T11:46:30Z</time>
      </trkpt>
      <trkpt lat="44.31413" lon="5.5992">
        <ele>1046.4</ele>
        <time>2023-04-06T11:46:31Z</time>
      </trkpt>
      <trkpt lat="44.31413" lon="5.59919">
        <ele>1046.5</ele>
        <time>2023-04-06T11:46:32Z</time>
      </trkpt>
      <trkpt lat="44.31413" lon="5.59916">
        <ele>1046.6</ele>
        <time>2023-04-06T11:46:33Z</time>
      </trkpt>
      <trkpt lat="44.31414" lon="5.59914">
        <ele>1046.7</ele>
        <time>2023-04-06T11:46:34Z</time>
      </trkpt>
      <trkpt lat="44.31415" lon="5.59908">
        <ele>1047</ele>
        <time>2023-04-06T11:46:35Z</time>
      </trkpt>
      <trkpt lat="44.31415" lon="5.59907">
        <ele>1047.1</ele>
        <time>2023-04-06T11:46:36Z</time>
      </trkpt>
      <trkpt lat="44.31416" lon="5.59902">
        <ele>1047.3</ele>
        <time>2023-04-06T11:46:37Z</time>
      </trkpt>
      <trkpt lat="44.31416" lon="5.599">
        <ele>1047.4</ele>
        <time>2023-04-06T11:46:38Z</time>
      </trkpt>
      <trkpt lat="44.31416" lon="5.59895">
        <ele>1047.6</ele>
        <time>2023-04-06T11:46:39Z</time>
      </trkpt>
      <trkpt lat="44.31416" lon="5.59894">
        <ele>1047.7</ele>
        <time>2023-04-06T11:46:40Z</time>
      </trkpt>
      <trkpt lat="44.31417" lon="5.59889">
        <ele>1047.9</ele>
        <time>2023-04-06T11:46:41Z</time>
      </trkpt>
      <trkpt lat="44.31417" lon="5.59888">
        <ele>1047.9</ele>
        <time>2023-04-06T11:46:42Z</time>
      </trkpt>
      <trkpt lat="44.31417" lon="5.59883">
        <ele>1048.1</ele>
        <time>2023-04-06T11:46:43Z</time>
      </trkpt>
      <trkpt lat="44.31417" lon="5.59881">
        <ele>1048.2</ele>
        <time>2023-04-06T11:46:44Z</time>
      </trkpt>
      <trkpt lat="44.31416" lon="5.59876">
        <ele>1048.3</ele>
        <time>2023-04-06T11:46:45Z</time>
      </trkpt>
      <trkpt lat="44.31416" lon="5.59874">
        <ele>1048.4</ele>
        <time>2023-04-06T11:46:46Z</time>
      </trkpt>
      <trkpt lat="44.31415" lon="5.5987">
        <ele>1048.5</ele>
        <time>2023-04-06T11:46:47Z</time>
      </trkpt>
      <trkpt lat="44.31415" lon="5.59866">
        <ele>1048.6</ele>
        <time>2023-04-06T11:46:48Z</time>
      </trkpt>
      <trkpt lat="44.31415" lon="5.5986">
        <ele>1048.7</ele>
        <time>2023-04-06T11:46:49Z</time>
      </trkpt>
      <trkpt lat="44.31415" lon="5.59858">
        <ele>1048.8</ele>
        <time>2023-04-06T11:46:50Z</time>
      </trkpt>
      <trkpt lat="44.31415" lon="5.59854">
        <ele>1048.8</ele>
        <time>2023-04-06T11:46:51Z</time>
      </trkpt>
      <trkpt lat="44.31416" lon="5.5985">
        <ele>1048.9</ele>
        <time>2023-04-06T11:46:52Z</time>
      </trkpt>
      <trkpt lat="44.31416" lon="5.59846">
        <ele>1049</ele>
        <time>2023-04-06T11:46:53Z</time>
      </trkpt>
      <trkpt lat="44.31416" lon="5.59842">
        <ele>1049</ele>
        <time>2023-04-06T11:46:54Z</time>
      </trkpt>
      <trkpt lat="44.31416" lon="5.59838">
        <ele>1049.1</ele>
        <time>2023-04-06T11:46:55Z</time>
      </trkpt>
      <trkpt lat="44.31417" lon="5.59834">
        <ele>1049.1</ele>
        <time>2023-04-06T11:46:56Z</time>
      </trkpt>
      <trkpt lat="44.31418" lon="5.59826">
        <ele>1049.3</ele>
        <time>2023-04-06T11:46:58Z</time>
      </trkpt>
      <trkpt lat="44.31418" lon="5.59822">
        <ele>1049.3</ele>
        <time>2023-04-06T11:46:59Z</time>
      </trkpt>
      <trkpt lat="44.31419" lon="5.59818">
        <ele>1049.4</ele>
        <time>2023-04-06T11:47:00Z</time>
      </trkpt>
      <trkpt lat="44.31419" lon="5.59814">
        <ele>1049.5</ele>
        <time>2023-04-06T11:47:01Z</time>
      </trkpt>
      <trkpt lat="44.31419" lon="5.59809">
        <ele>1049.6</ele>
        <time>2023-04-06T11:47:02Z</time>
      </trkpt>
      <trkpt lat="44.31419" lon="5.59805">
        <ele>1049.6</ele>
        <time>2023-04-06T11:47:03Z</time>
      </trkpt>
      <trkpt lat="44.3142" lon="5.598">
        <ele>1049.7</ele>
        <time>2023-04-06T11:47:04Z</time>
      </trkpt>
      <trkpt lat="44.3142" lon="5.59799">
        <ele>1049.8</ele>
        <time>2023-04-06T11:47:05Z</time>
      </trkpt>
      <trkpt lat="44.3142" lon="5.59793">
        <ele>1049.9</ele>
        <time>2023-04-06T11:47:06Z</time>
      </trkpt>
      <trkpt lat="44.3142" lon="5.59792">
        <ele>1050</ele>
        <time>2023-04-06T11:47:07Z</time>
      </trkpt>
      <trkpt lat="44.3142" lon="5.59785">
        <ele>1050.2</ele>
        <time>2023-04-06T11:47:09Z</time>
      </trkpt>
      <trkpt lat="44.3142" lon="5.59781">
        <ele>1050.3</ele>
        <time>2023-04-06T11:47:10Z</time>
      </trkpt>
      <trkpt lat="44.3142" lon="5.59779">
        <ele>1050.3</ele>
        <time>2023-04-06T11:47:11Z</time>
      </trkpt>
      <trkpt lat="44.3142" lon="5.59775">
        <ele>1050.5</ele>
        <time>2023-04-06T11:47:12Z</time>
      </trkpt>
      <trkpt lat="44.3142" lon="5.59773">
        <ele>1050.5</ele>
        <time>2023-04-06T11:47:13Z</time>
      </trkpt>
      <trkpt lat="44.3142" lon="5.59769">
        <ele>1050.7</ele>
        <time>2023-04-06T11:47:14Z</time>
      </trkpt>
      <trkpt lat="44.3142" lon="5.59767">
        <ele>1050.8</ele>
        <time>2023-04-06T11:47:15Z</time>
      </trkpt>
      <trkpt lat="44.31421" lon="5.59762">
        <ele>1050.9</ele>
        <time>2023-04-06T11:47:16Z</time>
      </trkpt>
      <trkpt lat="44.31421" lon="5.5976">
        <ele>1051</ele>
        <time>2023-04-06T11:47:17Z</time>
      </trkpt>
      <trkpt lat="44.31422" lon="5.59756">
        <ele>1051.2</ele>
        <time>2023-04-06T11:47:18Z</time>
      </trkpt>
      <trkpt lat="44.31423" lon="5.59752">
        <ele>1051.4</ele>
        <time>2023-04-06T11:47:19Z</time>
      </trkpt>
      <trkpt lat="44.31424" lon="5.59748">
        <ele>1051.6</ele>
        <time>2023-04-06T11:47:20Z</time>
      </trkpt>
      <trkpt lat="44.31425" lon="5.59744">
        <ele>1051.8</ele>
        <time>2023-04-06T11:47:21Z</time>
      </trkpt>
      <trkpt lat="44.31426" lon="5.59739">
        <ele>1052.1</ele>
        <time>2023-04-06T11:47:22Z</time>
      </trkpt>
      <trkpt lat="44.31427" lon="5.59735">
        <ele>1052.3</ele>
        <time>2023-04-06T11:47:23Z</time>
      </trkpt>
      <trkpt lat="44.31427" lon="5.59731">
        <ele>1052.6</ele>
        <time>2023-04-06T11:47:24Z</time>
      </trkpt>
      <trkpt lat="44.31427" lon="5.59726">
        <ele>1052.8</ele>
        <time>2023-04-06T11:47:25Z</time>
      </trkpt>
      <trkpt lat="44.31427" lon="5.59722">
        <ele>1053.1</ele>
        <time>2023-04-06T11:47:26Z</time>
      </trkpt>
      <trkpt lat="44.31427" lon="5.59717">
        <ele>1053.4</ele>
        <time>2023-04-06T11:47:27Z</time>
      </trkpt>
      <trkpt lat="44.31426" lon="5.59715">
        <ele>1053.5</ele>
        <time>2023-04-06T11:47:28Z</time>
      </trkpt>
      <trkpt lat="44.31426" lon="5.59711">
        <ele>1053.7</ele>
        <time>2023-04-06T11:47:29Z</time>
      </trkpt>
      <trkpt lat="44.31427" lon="5.59706">
        <ele>1054</ele>
        <time>2023-04-06T11:47:30Z</time>
      </trkpt>
      <trkpt lat="44.31427" lon="5.59704">
        <ele>1054.1</ele>
        <time>2023-04-06T11:47:31Z</time>
      </trkpt>
      <trkpt lat="44.31427" lon="5.597">
        <ele>1054.4</ele>
        <time>2023-04-06T11:47:32Z</time>
      </trkpt>
      <trkpt lat="44.31428" lon="5.59695">
        <ele>1054.7</ele>
        <time>2023-04-06T11:47:33Z</time>
      </trkpt>
      <trkpt lat="44.31429" lon="5.59691">
        <ele>1055.1</ele>
        <time>2023-04-06T11:47:34Z</time>
      </trkpt>
      <trkpt lat="44.31429" lon="5.59685">
        <ele>1055.5</ele>
        <time>2023-04-06T11:47:35Z</time>
      </trkpt>
      <trkpt lat="44.31429" lon="5.5968">
        <ele>1055.9</ele>
        <time>2023-04-06T11:47:36Z</time>
      </trkpt>
      <trkpt lat="44.31429" lon="5.59674">
        <ele>1056.3</ele>
        <time>2023-04-06T11:47:37Z</time>
      </trkpt>
      <trkpt lat="44.31428" lon="5.59668">
        <ele>1056.7</ele>
        <time>2023-04-06T11:47:38Z</time>
      </trkpt>
      <trkpt lat="44.31428" lon="5.59663">
        <ele>1057.1</ele>
        <time>2023-04-06T11:47:39Z</time>
      </trkpt>
      <trkpt lat="44.31428" lon="5.59658">
        <ele>1057.5</ele>
        <time>2023-04-06T11:47:40Z</time>
      </trkpt>
      <trkpt lat="44.31428" lon="5.59655">
        <ele>1057.8</ele>
        <time>2023-04-06T11:47:41Z</time>
      </trkpt>
      <trkpt lat="44.31428" lon="5.59649">
        <ele>1058.2</ele>
        <time>2023-04-06T11:47:42Z</time>
      </trkpt>
      <trkpt lat="44.31428" lon="5.59647">
        <ele>1058.3</ele>
        <time>2023-04-06T11:47:43Z</time>
      </trkpt>
      <trkpt lat="44.31428" lon="5.59642">
        <ele>1058.7</ele>
        <time>2023-04-06T11:47:44Z</time>
      </trkpt>
      <trkpt lat="44.31428" lon="5.59637">
        <ele>1059</ele>
        <time>2023-04-06T11:47:45Z</time>
      </trkpt>
      <trkpt lat="44.31429" lon="5.59632">
        <ele>1059.4</ele>
        <time>2023-04-06T11:47:46Z</time>
      </trkpt>
      <trkpt lat="44.31429" lon="5.59628">
        <ele>1059.7</ele>
        <time>2023-04-06T11:47:47Z</time>
      </trkpt>
      <trkpt lat="44.31428" lon="5.59624">
        <ele>1060</ele>
        <time>2023-04-06T11:47:48Z</time>
      </trkpt>
      <trkpt lat="44.31427" lon="5.59618">
        <ele>1060.4</ele>
        <time>2023-04-06T11:47:49Z</time>
      </trkpt>
      <trkpt lat="44.31427" lon="5.59616">
        <ele>1060.6</ele>
        <time>2023-04-06T11:47:50Z</time>
      </trkpt>
      <trkpt lat="44.31426" lon="5.59612">
        <ele>1060.9</ele>
        <time>2023-04-06T11:47:51Z</time>
      </trkpt>
      <trkpt lat="44.31425" lon="5.59609">
        <ele>1061.1</ele>
        <time>2023-04-06T11:47:52Z</time>
      </trkpt>
      <trkpt lat="44.31423" lon="5.59605">
        <ele>1061.5</ele>
        <time>2023-04-06T11:47:53Z</time>
      </trkpt>
      <trkpt lat="44.31422" lon="5.596">
        <ele>1061.9</ele>
        <time>2023-04-06T11:47:54Z</time>
      </trkpt>
      <trkpt lat="44.31422" lon="5.59598">
        <ele>1062</ele>
        <time>2023-04-06T11:47:55Z</time>
      </trkpt>
      <trkpt lat="44.3142" lon="5.59593">
        <ele>1062.4</ele>
        <time>2023-04-06T11:47:56Z</time>
      </trkpt>
      <trkpt lat="44.3142" lon="5.59591">
        <ele>1062.5</ele>
        <time>2023-04-06T11:47:57Z</time>
      </trkpt>
      <trkpt lat="44.31418" lon="5.59586">
        <ele>1062.9</ele>
        <time>2023-04-06T11:47:58Z</time>
      </trkpt>
      <trkpt lat="44.31418" lon="5.59585">
        <ele>1063</ele>
        <time>2023-04-06T11:47:59Z</time>
      </trkpt>
      <trkpt lat="44.31419" lon="5.5958">
        <ele>1063.5</ele>
        <time>2023-04-06T11:48:00Z</time>
      </trkpt>
      <trkpt lat="44.31419" lon="5.59578">
        <ele>1063.7</ele>
        <time>2023-04-06T11:48:01Z</time>
      </trkpt>
      <trkpt lat="44.31421" lon="5.59574">
        <ele>1064.1</ele>
        <time>2023-04-06T11:48:02Z</time>
      </trkpt>
      <trkpt lat="44.31422" lon="5.5957">
        <ele>1064.4</ele>
        <time>2023-04-06T11:48:03Z</time>
      </trkpt>
      <trkpt lat="44.31424" lon="5.59565">
        <ele>1064.9</ele>
        <time>2023-04-06T11:48:04Z</time>
      </trkpt>
      <trkpt lat="44.31424" lon="5.59563">
        <ele>1065</ele>
        <time>2023-04-06T11:48:05Z</time>
      </trkpt>
      <trkpt lat="44.31427" lon="5.59559">
        <ele>1065.5</ele>
        <time>2023-04-06T11:48:06Z</time>
      </trkpt>
      <trkpt lat="44.31428" lon="5.59557">
        <ele>1065.6</ele>
        <time>2023-04-06T11:48:07Z</time>
      </trkpt>
      <trkpt lat="44.3143" lon="5.59554">
        <ele>1066</ele>
        <time>2023-04-06T11:48:08Z</time>
      </trkpt>
      <trkpt lat="44.31431" lon="5.59552">
        <ele>1066.2</ele>
        <time>2023-04-06T11:48:09Z</time>
      </trkpt>
      <trkpt lat="44.31433" lon="5.59549">
        <ele>1066.5</ele>
        <time>2023-04-06T11:48:10Z</time>
      </trkpt>
      <trkpt lat="44.31434" lon="5.59548">
        <ele>1066.6</ele>
        <time>2023-04-06T11:48:11Z</time>
      </trkpt>
      <trkpt lat="44.31437" lon="5.59545">
        <ele>1067.1</ele>
        <time>2023-04-06T11:48:12Z</time>
      </trkpt>
      <trkpt lat="44.31438" lon="5.59544">
        <ele>1067.3</ele>
        <time>2023-04-06T11:48:13Z</time>
      </trkpt>
      <trkpt lat="44.31441" lon="5.59542">
        <ele>1067.6</ele>
        <time>2023-04-06T11:48:14Z</time>
      </trkpt>
      <trkpt lat="44.31443" lon="5.59539">
        <ele>1068</ele>
        <time>2023-04-06T11:48:15Z</time>
      </trkpt>
      <trkpt lat="44.31446" lon="5.59536">
        <ele>1068.4</ele>
        <time>2023-04-06T11:48:16Z</time>
      </trkpt>
      <trkpt lat="44.31448" lon="5.59533">
        <ele>1068.8</ele>
        <time>2023-04-06T11:48:17Z</time>
      </trkpt>
      <trkpt lat="44.3145" lon="5.59529">
        <ele>1069.2</ele>
        <time>2023-04-06T11:48:18Z</time>
      </trkpt>
      <trkpt lat="44.31452" lon="5.59524">
        <ele>1069.6</ele>
        <time>2023-04-06T11:48:19Z</time>
      </trkpt>
      <trkpt lat="44.31453" lon="5.5952">
        <ele>1070</ele>
        <time>2023-04-06T11:48:20Z</time>
      </trkpt>
      <trkpt lat="44.31454" lon="5.59516">
        <ele>1070.3</ele>
        <time>2023-04-06T11:48:21Z</time>
      </trkpt>
      <trkpt lat="44.31456" lon="5.59507">
        <ele>1071</ele>
        <time>2023-04-06T11:48:23Z</time>
      </trkpt>
      <trkpt lat="44.31457" lon="5.59503">
        <ele>1071.3</ele>
        <time>2023-04-06T11:48:24Z</time>
      </trkpt>
      <trkpt lat="44.31459" lon="5.59494">
        <ele>1072</ele>
        <time>2023-04-06T11:48:26Z</time>
      </trkpt>
      <trkpt lat="44.31459" lon="5.59492">
        <ele>1072.1</ele>
        <time>2023-04-06T11:48:27Z</time>
      </trkpt>
      <trkpt lat="44.31462" lon="5.59484">
        <ele>1072.8</ele>
        <time>2023-04-06T11:48:29Z</time>
      </trkpt>
      <trkpt lat="44.31464" lon="5.59477">
        <ele>1073.5</ele>
        <time>2023-04-06T11:48:31Z</time>
      </trkpt>
      <trkpt lat="44.31466" lon="5.59473">
        <ele>1073.9</ele>
        <time>2023-04-06T11:48:32Z</time>
      </trkpt>
      <trkpt lat="44.31467" lon="5.59469">
        <ele>1074.3</ele>
        <time>2023-04-06T11:48:33Z</time>
      </trkpt>
      <trkpt lat="44.31468" lon="5.59465">
        <ele>1074.7</ele>
        <time>2023-04-06T11:48:34Z</time>
      </trkpt>
      <trkpt lat="44.31468" lon="5.5946">
        <ele>1075.2</ele>
        <time>2023-04-06T11:48:35Z</time>
      </trkpt>
      <trkpt lat="44.31469" lon="5.59458">
        <ele>1075.4</ele>
        <time>2023-04-06T11:48:36Z</time>
      </trkpt>
      <trkpt lat="44.31469" lon="5.59453">
        <ele>1075.8</ele>
        <time>2023-04-06T11:48:37Z</time>
      </trkpt>
      <trkpt lat="44.31469" lon="5.59451">
        <ele>1075.9</ele>
        <time>2023-04-06T11:48:38Z</time>
      </trkpt>
      <trkpt lat="44.31471" lon="5.59446">
        <ele>1076.4</ele>
        <time>2023-04-06T11:48:39Z</time>
      </trkpt>
      <trkpt lat="44.31471" lon="5.59445">
        <ele>1076.5</ele>
        <time>2023-04-06T11:48:40Z</time>
      </trkpt>
      <trkpt lat="44.31472" lon="5.59439">
        <ele>1076.9</ele>
        <time>2023-04-06T11:48:41Z</time>
      </trkpt>
      <trkpt lat="44.31472" lon="5.59438">
        <ele>1077.1</ele>
        <time>2023-04-06T11:48:42Z</time>
      </trkpt>
      <trkpt lat="44.31475" lon="5.59431">
        <ele>1077.7</ele>
        <time>2023-04-06T11:48:44Z</time>
      </trkpt>
      <trkpt lat="44.31476" lon="5.59427">
        <ele>1078</ele>
        <time>2023-04-06T11:48:45Z</time>
      </trkpt>
      <trkpt lat="44.31477" lon="5.59422">
        <ele>1078.4</ele>
        <time>2023-04-06T11:48:46Z</time>
      </trkpt>
      <trkpt lat="44.31478" lon="5.59421">
        <ele>1078.5</ele>
        <time>2023-04-06T11:48:47Z</time>
      </trkpt>
      <trkpt lat="44.31479" lon="5.59416">
        <ele>1078.9</ele>
        <time>2023-04-06T11:48:48Z</time>
      </trkpt>
      <trkpt lat="44.31479" lon="5.59414">
        <ele>1079</ele>
        <time>2023-04-06T11:48:49Z</time>
      </trkpt>
      <trkpt lat="44.3148" lon="5.5941">
        <ele>1079.4</ele>
        <time>2023-04-06T11:48:50Z</time>
      </trkpt>
      <trkpt lat="44.31481" lon="5.59408">
        <ele>1079.6</ele>
        <time>2023-04-06T11:48:51Z</time>
      </trkpt>
      <trkpt lat="44.31481" lon="5.59404">
        <ele>1080</ele>
        <time>2023-04-06T11:48:52Z</time>
      </trkpt>
      <trkpt lat="44.31481" lon="5.59402">
        <ele>1080.1</ele>
        <time>2023-04-06T11:48:53Z</time>
      </trkpt>
      <trkpt lat="44.31481" lon="5.59399">
        <ele>1080.4</ele>
        <time>2023-04-06T11:48:54Z</time>
      </trkpt>
      <trkpt lat="44.31481" lon="5.59393">
        <ele>1080.9</ele>
        <time>2023-04-06T11:48:56Z</time>
      </trkpt>
      <trkpt lat="44.31481" lon="5.5939">
        <ele>1081.2</ele>
        <time>2023-04-06T11:48:57Z</time>
      </trkpt>
      <trkpt lat="44.31481" lon="5.59386">
        <ele>1081.5</ele>
        <time>2023-04-06T11:48:58Z</time>
      </trkpt>
      <trkpt lat="44.31481" lon="5.59385">
        <ele>1081.6</ele>
        <time>2023-04-06T11:48:59Z</time>
      </trkpt>
      <trkpt lat="44.31481" lon="5.59382">
        <ele>1081.8</ele>
        <time>2023-04-06T11:49:00Z</time>
      </trkpt>
      <trkpt lat="44.31481" lon="5.59377">
        <ele>1082.2</ele>
        <time>2023-04-06T11:49:02Z</time>
      </trkpt>
      <trkpt lat="44.31481" lon="5.59375">
        <ele>1082.3</ele>
        <time>2023-04-06T11:49:03Z</time>
      </trkpt>
      <trkpt lat="44.3148" lon="5.59373">
        <ele>1082.5</ele>
        <time>2023-04-06T11:49:04Z</time>
      </trkpt>
      <trkpt lat="44.3148" lon="5.5937">
        <ele>1082.7</ele>
        <time>2023-04-06T11:49:05Z</time>
      </trkpt>
      <trkpt lat="44.3148" lon="5.59368">
        <ele>1082.8</ele>
        <time>2023-04-06T11:49:06Z</time>
      </trkpt>
      <trkpt lat="44.3148" lon="5.59366">
        <ele>1083</ele>
        <time>2023-04-06T11:49:07Z</time>
      </trkpt>
      <trkpt lat="44.3148" lon="5.59364">
        <ele>1083.1</ele>
        <time>2023-04-06T11:49:08Z</time>
      </trkpt>
      <trkpt lat="44.31479" lon="5.59362">
        <ele>1083.3</ele>
        <time>2023-04-06T11:49:09Z</time>
      </trkpt>
      <trkpt lat="44.31479" lon="5.59359">
        <ele>1083.5</ele>
        <time>2023-04-06T11:49:10Z</time>
      </trkpt>
      <trkpt lat="44.31479" lon="5.59357">
        <ele>1083.6</ele>
        <time>2023-04-06T11:49:11Z</time>
      </trkpt>
      <trkpt lat="44.3148" lon="5.59353">
        <ele>1084</ele>
        <time>2023-04-06T11:49:13Z</time>
      </trkpt>
      <trkpt lat="44.31479" lon="5.5935">
        <ele>1084.2</ele>
        <time>2023-04-06T11:49:14Z</time>
      </trkpt>
      <trkpt lat="44.31479" lon="5.59348">
        <ele>1084.4</ele>
        <time>2023-04-06T11:49:15Z</time>
      </trkpt>
      <trkpt lat="44.31478" lon="5.59344">
        <ele>1084.7</ele>
        <time>2023-04-06T11:49:16Z</time>
      </trkpt>
      <trkpt lat="44.31478" lon="5.59343">
        <ele>1084.8</ele>
        <time>2023-04-06T11:49:17Z</time>
      </trkpt>
      <trkpt lat="44.31477" lon="5.5934">
        <ele>1085</ele>
        <time>2023-04-06T11:49:18Z</time>
      </trkpt>
      <trkpt lat="44.31477" lon="5.59338">
        <ele>1085.2</ele>
        <time>2023-04-06T11:49:19Z</time>
      </trkpt>
      <trkpt lat="44.31476" lon="5.59333">
        <ele>1085.6</ele>
        <time>2023-04-06T11:49:20Z</time>
      </trkpt>
      <trkpt lat="44.31475" lon="5.59332">
        <ele>1085.7</ele>
        <time>2023-04-06T11:49:21Z</time>
      </trkpt>
      <trkpt lat="44.31475" lon="5.59328">
        <ele>1085.9</ele>
        <time>2023-04-06T11:49:22Z</time>
      </trkpt>
      <trkpt lat="44.31474" lon="5.59323">
        <ele>1086.3</ele>
        <time>2023-04-06T11:49:24Z</time>
      </trkpt>
      <trkpt lat="44.31474" lon="5.59321">
        <ele>1086.5</ele>
        <time>2023-04-06T11:49:25Z</time>
      </trkpt>
      <trkpt lat="44.31474" lon="5.59318">
        <ele>1086.7</ele>
        <time>2023-04-06T11:49:26Z</time>
      </trkpt>
      <trkpt lat="44.31473" lon="5.59316">
        <ele>1086.8</ele>
        <time>2023-04-06T11:49:27Z</time>
      </trkpt>
      <trkpt lat="44.31472" lon="5.59313">
        <ele>1087.1</ele>
        <time>2023-04-06T11:49:28Z</time>
      </trkpt>
      <trkpt lat="44.31471" lon="5.59312">
        <ele>1087.1</ele>
        <time>2023-04-06T11:49:29Z</time>
      </trkpt>
      <trkpt lat="44.3147" lon="5.59308">
        <ele>1087.4</ele>
        <time>2023-04-06T11:49:30Z</time>
      </trkpt>
      <trkpt lat="44.31469" lon="5.59307">
        <ele>1087.5</ele>
        <time>2023-04-06T11:49:31Z</time>
      </trkpt>
      <trkpt lat="44.31468" lon="5.59304">
        <ele>1087.6</ele>
        <time>2023-04-06T11:49:32Z</time>
      </trkpt>
      <trkpt lat="44.31468" lon="5.59302">
        <ele>1087.8</ele>
        <time>2023-04-06T11:49:33Z</time>
      </trkpt>
      <trkpt lat="44.31467" lon="5.59298">
        <ele>1088.1</ele>
        <time>2023-04-06T11:49:35Z</time>
      </trkpt>
      <trkpt lat="44.31466" lon="5.59296">
        <ele>1088.2</ele>
        <time>2023-04-06T11:49:36Z</time>
      </trkpt>
      <trkpt lat="44.31465" lon="5.59294">
        <ele>1088.4</ele>
        <time>2023-04-06T11:49:37Z</time>
      </trkpt>
      <trkpt lat="44.31464" lon="5.5929">
        <ele>1088.6</ele>
        <time>2023-04-06T11:49:38Z</time>
      </trkpt>
      <trkpt lat="44.31464" lon="5.59288">
        <ele>1088.7</ele>
        <time>2023-04-06T11:49:39Z</time>
      </trkpt>
      <trkpt lat="44.31462" lon="5.59284">
        <ele>1089.1</ele>
        <time>2023-04-06T11:49:41Z</time>
      </trkpt>
      <trkpt lat="44.31462" lon="5.59282">
        <ele>1089.2</ele>
        <time>2023-04-06T11:49:42Z</time>
      </trkpt>
      <trkpt lat="44.31461" lon="5.5928">
        <ele>1089.3</ele>
        <time>2023-04-06T11:49:43Z</time>
      </trkpt>
      <trkpt lat="44.31461" lon="5.59276">
        <ele>1089.6</ele>
        <time>2023-04-06T11:49:44Z</time>
      </trkpt>
      <trkpt lat="44.31461" lon="5.59275">
        <ele>1089.7</ele>
        <time>2023-04-06T11:49:45Z</time>
      </trkpt>
      <trkpt lat="44.31459" lon="5.5927">
        <ele>1090.2</ele>
        <time>2023-04-06T11:49:47Z</time>
      </trkpt>
      <trkpt lat="44.31458" lon="5.59267">
        <ele>1090.5</ele>
        <time>2023-04-06T11:49:48Z</time>
      </trkpt>
      <trkpt lat="44.31457" lon="5.59265">
        <ele>1090.6</ele>
        <time>2023-04-06T11:49:49Z</time>
      </trkpt>
      <trkpt lat="44.31456" lon="5.59262">
        <ele>1091</ele>
        <time>2023-04-06T11:49:50Z</time>
      </trkpt>
      <trkpt lat="44.31455" lon="5.5926">
        <ele>1091.1</ele>
        <time>2023-04-06T11:49:51Z</time>
      </trkpt>
      <trkpt lat="44.31454" lon="5.59256">
        <ele>1091.5</ele>
        <time>2023-04-06T11:49:52Z</time>
      </trkpt>
      <trkpt lat="44.31453" lon="5.59255">
        <ele>1091.7</ele>
        <time>2023-04-06T11:49:53Z</time>
      </trkpt>
      <trkpt lat="44.31451" lon="5.5925">
        <ele>1092.1</ele>
        <time>2023-04-06T11:49:54Z</time>
      </trkpt>
      <trkpt lat="44.3145" lon="5.59249">
        <ele>1092.2</ele>
        <time>2023-04-06T11:49:55Z</time>
      </trkpt>
      <trkpt lat="44.31449" lon="5.59246">
        <ele>1092.5</ele>
        <time>2023-04-06T11:49:56Z</time>
      </trkpt>
      <trkpt lat="44.31447" lon="5.59242">
        <ele>1092.9</ele>
        <time>2023-04-06T11:49:58Z</time>
      </trkpt>
      <trkpt lat="44.31446" lon="5.59239">
        <ele>1093.1</ele>
        <time>2023-04-06T11:49:59Z</time>
      </trkpt>
      <trkpt lat="44.31444" lon="5.59236">
        <ele>1093.4</ele>
        <time>2023-04-06T11:50:00Z</time>
      </trkpt>
      <trkpt lat="44.31444" lon="5.59234">
        <ele>1093.5</ele>
        <time>2023-04-06T11:50:01Z</time>
      </trkpt>
      <trkpt lat="44.31443" lon="5.59231">
        <ele>1093.8</ele>
        <time>2023-04-06T11:50:02Z</time>
      </trkpt>
      <trkpt lat="44.31442" lon="5.5923">
        <ele>1093.8</ele>
        <time>2023-04-06T11:50:03Z</time>
      </trkpt>
      <trkpt lat="44.3144" lon="5.59226">
        <ele>1094.1</ele>
        <time>2023-04-06T11:50:04Z</time>
      </trkpt>
      <trkpt lat="44.3144" lon="5.59225">
        <ele>1094.3</ele>
        <time>2023-04-06T11:50:05Z</time>
      </trkpt>
      <trkpt lat="44.31439" lon="5.59222">
        <ele>1094.6</ele>
        <time>2023-04-06T11:50:06Z</time>
      </trkpt>
      <trkpt lat="44.31438" lon="5.5922">
        <ele>1094.7</ele>
        <time>2023-04-06T11:50:07Z</time>
      </trkpt>
      <trkpt lat="44.31436" lon="5.59216">
        <ele>1095.1</ele>
        <time>2023-04-06T11:50:09Z</time>
      </trkpt>
      <trkpt lat="44.31435" lon="5.59213">
        <ele>1095.4</ele>
        <time>2023-04-06T11:50:10Z</time>
      </trkpt>
      <trkpt lat="44.31434" lon="5.59212">
        <ele>1095.5</ele>
        <time>2023-04-06T11:50:11Z</time>
      </trkpt>
      <trkpt lat="44.31433" lon="5.59209">
        <ele>1095.7</ele>
        <time>2023-04-06T11:50:12Z</time>
      </trkpt>
      <trkpt lat="44.31433" lon="5.59207">
        <ele>1095.9</ele>
        <time>2023-04-06T11:50:13Z</time>
      </trkpt>
      <trkpt lat="44.31432" lon="5.59205">
        <ele>1096</ele>
        <time>2023-04-06T11:50:14Z</time>
      </trkpt>
      <trkpt lat="44.31432" lon="5.59202">
        <ele>1096.2</ele>
        <time>2023-04-06T11:50:15Z</time>
      </trkpt>
      <trkpt lat="44.31431" lon="5.59199">
        <ele>1096.5</ele>
        <time>2023-04-06T11:50:16Z</time>
      </trkpt>
      <trkpt lat="44.31431" lon="5.59197">
        <ele>1096.6</ele>
        <time>2023-04-06T11:50:17Z</time>
      </trkpt>
      <trkpt lat="44.3143" lon="5.59194">
        <ele>1096.8</ele>
        <time>2023-04-06T11:50:18Z</time>
      </trkpt>
      <trkpt lat="44.31429" lon="5.59193">
        <ele>1096.9</ele>
        <time>2023-04-06T11:50:19Z</time>
      </trkpt>
      <trkpt lat="44.31428" lon="5.59191">
        <ele>1097</ele>
        <time>2023-04-06T11:50:20Z</time>
      </trkpt>
      <trkpt lat="44.31428" lon="5.59189">
        <ele>1097.1</ele>
        <time>2023-04-06T11:50:21Z</time>
      </trkpt>
      <trkpt lat="44.31427" lon="5.59187">
        <ele>1097.2</ele>
        <time>2023-04-06T11:50:22Z</time>
      </trkpt>
      <trkpt lat="44.31427" lon="5.59184">
        <ele>1097.4</ele>
        <time>2023-04-06T11:50:23Z</time>
      </trkpt>
      <trkpt lat="44.31426" lon="5.59182">
        <ele>1097.5</ele>
        <time>2023-04-06T11:50:24Z</time>
      </trkpt>
      <trkpt lat="44.31426" lon="5.5918">
        <ele>1097.6</ele>
        <time>2023-04-06T11:50:25Z</time>
      </trkpt>
      <trkpt lat="44.31425" lon="5.59179">
        <ele>1097.7</ele>
        <time>2023-04-06T11:50:26Z</time>
      </trkpt>
      <trkpt lat="44.31424" lon="5.59177">
        <ele>1097.8</ele>
        <time>2023-04-06T11:50:27Z</time>
      </trkpt>
      <trkpt lat="44.31423" lon="5.59175">
        <ele>1097.9</ele>
        <time>2023-04-06T11:50:28Z</time>
      </trkpt>
      <trkpt lat="44.31422" lon="5.59173">
        <ele>1098.1</ele>
        <time>2023-04-06T11:50:29Z</time>
      </trkpt>
      <trkpt lat="44.31422" lon="5.59171">
        <ele>1098.2</ele>
        <time>2023-04-06T11:50:30Z</time>
      </trkpt>
      <trkpt lat="44.31421" lon="5.59169">
        <ele>1098.4</ele>
        <time>2023-04-06T11:50:31Z</time>
      </trkpt>
      <trkpt lat="44.3142" lon="5.59168">
        <ele>1098.5</ele>
        <time>2023-04-06T11:50:32Z</time>
      </trkpt>
      <trkpt lat="44.3142" lon="5.59166">
        <ele>1098.7</ele>
        <time>2023-04-06T11:50:33Z</time>
      </trkpt>
      <trkpt lat="44.31419" lon="5.59164">
        <ele>1098.9</ele>
        <time>2023-04-06T11:50:34Z</time>
      </trkpt>
      <trkpt lat="44.31418" lon="5.59162">
        <ele>1099</ele>
        <time>2023-04-06T11:50:35Z</time>
      </trkpt>
      <trkpt lat="44.31418" lon="5.59158">
        <ele>1099.3</ele>
        <time>2023-04-06T11:50:36Z</time>
      </trkpt>
      <trkpt lat="44.31417" lon="5.59157">
        <ele>1099.4</ele>
        <time>2023-04-06T11:50:37Z</time>
      </trkpt>
      <trkpt lat="44.31417" lon="5.59155">
        <ele>1099.6</ele>
        <time>2023-04-06T11:50:38Z</time>
      </trkpt>
      <trkpt lat="44.31416" lon="5.59153">
        <ele>1099.7</ele>
        <time>2023-04-06T11:50:39Z</time>
      </trkpt>
      <trkpt lat="44.31415" lon="5.59151">
        <ele>1099.9</ele>
        <time>2023-04-06T11:50:40Z</time>
      </trkpt>
      <trkpt lat="44.31414" lon="5.59149">
        <ele>1100</ele>
        <time>2023-04-06T11:50:41Z</time>
      </trkpt>
      <trkpt lat="44.31413" lon="5.59147">
        <ele>1100.2</ele>
        <time>2023-04-06T11:50:42Z</time>
      </trkpt>
      <trkpt lat="44.31412" lon="5.59145">
        <ele>1100.4</ele>
        <time>2023-04-06T11:50:43Z</time>
      </trkpt>
      <trkpt lat="44.3141" lon="5.59142">
        <ele>1100.6</ele>
        <time>2023-04-06T11:50:44Z</time>
      </trkpt>
      <trkpt lat="44.3141" lon="5.59141">
        <ele>1100.7</ele>
        <time>2023-04-06T11:50:45Z</time>
      </trkpt>
      <trkpt lat="44.31408" lon="5.59137">
        <ele>1100.9</ele>
        <time>2023-04-06T11:50:46Z</time>
      </trkpt>
      <trkpt lat="44.31407" lon="5.59135">
        <ele>1101</ele>
        <time>2023-04-06T11:50:47Z</time>
      </trkpt>
      <trkpt lat="44.31405" lon="5.59131">
        <ele>1101.3</ele>
        <time>2023-04-06T11:50:48Z</time>
      </trkpt>
      <trkpt lat="44.31404" lon="5.5913">
        <ele>1101.4</ele>
        <time>2023-04-06T11:50:49Z</time>
      </trkpt>
      <trkpt lat="44.31403" lon="5.59126">
        <ele>1101.6</ele>
        <time>2023-04-06T11:50:50Z</time>
      </trkpt>
      <trkpt lat="44.31402" lon="5.59125">
        <ele>1101.7</ele>
        <time>2023-04-06T11:50:51Z</time>
      </trkpt>
      <trkpt lat="44.31401" lon="5.59122">
        <ele>1101.9</ele>
        <time>2023-04-06T11:50:52Z</time>
      </trkpt>
      <trkpt lat="44.314" lon="5.59121">
        <ele>1102</ele>
        <time>2023-04-06T11:50:53Z</time>
      </trkpt>
      <trkpt lat="44.31399" lon="5.59119">
        <ele>1102.2</ele>
        <time>2023-04-06T11:50:54Z</time>
      </trkpt>
      <trkpt lat="44.31398" lon="5.59117">
        <ele>1102.4</ele>
        <time>2023-04-06T11:50:55Z</time>
      </trkpt>
      <trkpt lat="44.31396" lon="5.59113">
        <ele>1102.7</ele>
        <time>2023-04-06T11:50:56Z</time>
      </trkpt>
      <trkpt lat="44.31396" lon="5.59112">
        <ele>1102.8</ele>
        <time>2023-04-06T11:50:57Z</time>
      </trkpt>
      <trkpt lat="44.31394" lon="5.59108">
        <ele>1103.2</ele>
        <time>2023-04-06T11:50:58Z</time>
      </trkpt>
      <trkpt lat="44.31393" lon="5.59107">
        <ele>1103.3</ele>
        <time>2023-04-06T11:50:59Z</time>
      </trkpt>
      <trkpt lat="44.31392" lon="5.59103">
        <ele>1103.6</ele>
        <time>2023-04-06T11:51:00Z</time>
      </trkpt>
      <trkpt lat="44.31391" lon="5.59102">
        <ele>1103.8</ele>
        <time>2023-04-06T11:51:01Z</time>
      </trkpt>
      <trkpt lat="44.31389" lon="5.59098">
        <ele>1104.2</ele>
        <time>2023-04-06T11:51:02Z</time>
      </trkpt>
      <trkpt lat="44.31388" lon="5.59097">
        <ele>1104.3</ele>
        <time>2023-04-06T11:51:03Z</time>
      </trkpt>
      <trkpt lat="44.31386" lon="5.59094">
        <ele>1104.7</ele>
        <time>2023-04-06T11:51:04Z</time>
      </trkpt>
      <trkpt lat="44.31385" lon="5.59093">
        <ele>1104.9</ele>
        <time>2023-04-06T11:51:05Z</time>
      </trkpt>
      <trkpt lat="44.31384" lon="5.59089">
        <ele>1105.3</ele>
        <time>2023-04-06T11:51:06Z</time>
      </trkpt>
      <trkpt lat="44.31383" lon="5.59088">
        <ele>1105.4</ele>
        <time>2023-04-06T11:51:07Z</time>
      </trkpt>
      <trkpt lat="44.31381" lon="5.59084">
        <ele>1105.8</ele>
        <time>2023-04-06T11:51:08Z</time>
      </trkpt>
      <trkpt lat="44.3138" lon="5.59083">
        <ele>1106</ele>
        <time>2023-04-06T11:51:09Z</time>
      </trkpt>
      <trkpt lat="44.31378" lon="5.5908">
        <ele>1106.4</ele>
        <time>2023-04-06T11:51:10Z</time>
      </trkpt>
      <trkpt lat="44.31377" lon="5.59079">
        <ele>1106.5</ele>
        <time>2023-04-06T11:51:11Z</time>
      </trkpt>
      <trkpt lat="44.31375" lon="5.59076">
        <ele>1106.9</ele>
        <time>2023-04-06T11:51:12Z</time>
      </trkpt>
      <trkpt lat="44.31374" lon="5.59076">
        <ele>1107</ele>
        <time>2023-04-06T11:51:13Z</time>
      </trkpt>
      <trkpt lat="44.31372" lon="5.59073">
        <ele>1107.4</ele>
        <time>2023-04-06T11:51:14Z</time>
      </trkpt>
      <trkpt lat="44.31371" lon="5.59072">
        <ele>1107.5</ele>
        <time>2023-04-06T11:51:15Z</time>
      </trkpt>
      <trkpt lat="44.31368" lon="5.59069">
        <ele>1108</ele>
        <time>2023-04-06T11:51:16Z</time>
      </trkpt>
      <trkpt lat="44.31367" lon="5.59069">
        <ele>1108.1</ele>
        <time>2023-04-06T11:51:17Z</time>
      </trkpt>
      <trkpt lat="44.31364" lon="5.59066">
        <ele>1108.5</ele>
        <time>2023-04-06T11:51:18Z</time>
      </trkpt>
      <trkpt lat="44.31364" lon="5.59065">
        <ele>1108.6</ele>
        <time>2023-04-06T11:51:19Z</time>
      </trkpt>
      <trkpt lat="44.31361" lon="5.59063">
        <ele>1108.9</ele>
        <time>2023-04-06T11:51:20Z</time>
      </trkpt>
      <trkpt lat="44.3136" lon="5.59062">
        <ele>1109.1</ele>
        <time>2023-04-06T11:51:21Z</time>
      </trkpt>
      <trkpt lat="44.31357" lon="5.5906">
        <ele>1109.4</ele>
        <time>2023-04-06T11:51:22Z</time>
      </trkpt>
      <trkpt lat="44.31356" lon="5.59059">
        <ele>1109.5</ele>
        <time>2023-04-06T11:51:23Z</time>
      </trkpt>
      <trkpt lat="44.31353" lon="5.59057">
        <ele>1109.8</ele>
        <time>2023-04-06T11:51:24Z</time>
      </trkpt>
      <trkpt lat="44.31352" lon="5.59056">
        <ele>1110</ele>
        <time>2023-04-06T11:51:25Z</time>
      </trkpt>
      <trkpt lat="44.31349" lon="5.59055">
        <ele>1110.2</ele>
        <time>2023-04-06T11:51:26Z</time>
      </trkpt>
      <trkpt lat="44.31348" lon="5.59055">
        <ele>1110.3</ele>
        <time>2023-04-06T11:51:27Z</time>
      </trkpt>
      <trkpt lat="44.31346" lon="5.59054">
        <ele>1110.6</ele>
        <time>2023-04-06T11:51:28Z</time>
      </trkpt>
      <trkpt lat="44.31345" lon="5.59053">
        <ele>1110.6</ele>
        <time>2023-04-06T11:51:29Z</time>
      </trkpt>
      <trkpt lat="44.31342" lon="5.59053">
        <ele>1110.9</ele>
        <time>2023-04-06T11:51:30Z</time>
      </trkpt>
      <trkpt lat="44.31341" lon="5.59053">
        <ele>1111</ele>
        <time>2023-04-06T11:51:31Z</time>
      </trkpt>
      <trkpt lat="44.31339" lon="5.59053">
        <ele>1111.1</ele>
        <time>2023-04-06T11:51:32Z</time>
      </trkpt>
      <trkpt lat="44.31337" lon="5.59053">
        <ele>1111.3</ele>
        <time>2023-04-06T11:51:33Z</time>
      </trkpt>
      <trkpt lat="44.31336" lon="5.59054">
        <ele>1111.4</ele>
        <time>2023-04-06T11:51:34Z</time>
      </trkpt>
      <trkpt lat="44.31334" lon="5.59054">
        <ele>1111.6</ele>
        <time>2023-04-06T11:51:35Z</time>
      </trkpt>
      <trkpt lat="44.31332" lon="5.59055">
        <ele>1111.8</ele>
        <time>2023-04-06T11:51:36Z</time>
      </trkpt>
      <trkpt lat="44.31331" lon="5.59056">
        <ele>1112</ele>
        <time>2023-04-06T11:51:37Z</time>
      </trkpt>
      <trkpt lat="44.31329" lon="5.59057">
        <ele>1112.2</ele>
        <time>2023-04-06T11:51:38Z</time>
      </trkpt>
      <trkpt lat="44.31328" lon="5.59059">
        <ele>1112.4</ele>
        <time>2023-04-06T11:51:39Z</time>
      </trkpt>
      <trkpt lat="44.31327" lon="5.59061">
        <ele>1112.6</ele>
        <time>2023-04-06T11:51:40Z</time>
      </trkpt>
      <trkpt lat="44.31325" lon="5.59062">
        <ele>1112.7</ele>
        <time>2023-04-06T11:51:41Z</time>
      </trkpt>
      <trkpt lat="44.31324" lon="5.59064">
        <ele>1113</ele>
        <time>2023-04-06T11:51:42Z</time>
      </trkpt>
      <trkpt lat="44.31323" lon="5.59065">
        <ele>1113.2</ele>
        <time>2023-04-06T11:51:43Z</time>
      </trkpt>
      <trkpt lat="44.31321" lon="5.59066">
        <ele>1113.4</ele>
        <time>2023-04-06T11:51:44Z</time>
      </trkpt>
      <trkpt lat="44.3132" lon="5.59067">
        <ele>1113.6</ele>
        <time>2023-04-06T11:51:45Z</time>
      </trkpt>
      <trkpt lat="44.31318" lon="5.59069">
        <ele>1113.9</ele>
        <time>2023-04-06T11:51:46Z</time>
      </trkpt>
      <trkpt lat="44.31317" lon="5.5907">
        <ele>1114.1</ele>
        <time>2023-04-06T11:51:47Z</time>
      </trkpt>
      <trkpt lat="44.31314" lon="5.59071">
        <ele>1114.5</ele>
        <time>2023-04-06T11:51:48Z</time>
      </trkpt>
      <trkpt lat="44.31313" lon="5.59072">
        <ele>1114.6</ele>
        <time>2023-04-06T11:51:49Z</time>
      </trkpt>
      <trkpt lat="44.31312" lon="5.59071">
        <ele>1114.8</ele>
        <time>2023-04-06T11:51:50Z</time>
      </trkpt>
      <trkpt lat="44.3131" lon="5.5907">
        <ele>1115</ele>
        <time>2023-04-06T11:51:51Z</time>
      </trkpt>
      <trkpt lat="44.31307" lon="5.59068">
        <ele>1115.3</ele>
        <time>2023-04-06T11:51:52Z</time>
      </trkpt>
      <trkpt lat="44.31306" lon="5.59067">
        <ele>1115.4</ele>
        <time>2023-04-06T11:51:53Z</time>
      </trkpt>
      <trkpt lat="44.31304" lon="5.59065">
        <ele>1115.7</ele>
        <time>2023-04-06T11:51:54Z</time>
      </trkpt>
      <trkpt lat="44.31303" lon="5.59065">
        <ele>1115.8</ele>
        <time>2023-04-06T11:51:55Z</time>
      </trkpt>
      <trkpt lat="44.313" lon="5.59063">
        <ele>1116.1</ele>
        <time>2023-04-06T11:51:56Z</time>
      </trkpt>
      <trkpt lat="44.31299" lon="5.59062">
        <ele>1116.1</ele>
        <time>2023-04-06T11:51:57Z</time>
      </trkpt>
      <trkpt lat="44.31296" lon="5.5906">
        <ele>1116.4</ele>
        <time>2023-04-06T11:51:58Z</time>
      </trkpt>
      <trkpt lat="44.31295" lon="5.5906">
        <ele>1116.5</ele>
        <time>2023-04-06T11:51:59Z</time>
      </trkpt>
      <trkpt lat="44.31292" lon="5.59058">
        <ele>1116.8</ele>
        <time>2023-04-06T11:52:00Z</time>
      </trkpt>
      <trkpt lat="44.31291" lon="5.59057">
        <ele>1116.9</ele>
        <time>2023-04-06T11:52:01Z</time>
      </trkpt>
      <trkpt lat="44.31289" lon="5.59054">
        <ele>1117.2</ele>
        <time>2023-04-06T11:52:02Z</time>
      </trkpt>
      <trkpt lat="44.31287" lon="5.59054">
        <ele>1117.3</ele>
        <time>2023-04-06T11:52:03Z</time>
      </trkpt>
      <trkpt lat="44.31284" lon="5.59052">
        <ele>1117.6</ele>
        <time>2023-04-06T11:52:04Z</time>
      </trkpt>
      <trkpt lat="44.31283" lon="5.59051">
        <ele>1117.7</ele>
        <time>2023-04-06T11:52:05Z</time>
      </trkpt>
      <trkpt lat="44.3128" lon="5.59049">
        <ele>1118.1</ele>
        <time>2023-04-06T11:52:06Z</time>
      </trkpt>
      <trkpt lat="44.31279" lon="5.59048">
        <ele>1118.2</ele>
        <time>2023-04-06T11:52:07Z</time>
      </trkpt>
      <trkpt lat="44.31275" lon="5.59047">
        <ele>1118.6</ele>
        <time>2023-04-06T11:52:08Z</time>
      </trkpt>
      <trkpt lat="44.31274" lon="5.59047">
        <ele>1118.7</ele>
        <time>2023-04-06T11:52:09Z</time>
      </trkpt>
      <trkpt lat="44.31272" lon="5.59046">
        <ele>1119</ele>
        <time>2023-04-06T11:52:10Z</time>
      </trkpt>
      <trkpt lat="44.31271" lon="5.59045">
        <ele>1119.1</ele>
        <time>2023-04-06T11:52:11Z</time>
      </trkpt>
      <trkpt lat="44.31268" lon="5.59043">
        <ele>1119.5</ele>
        <time>2023-04-06T11:52:12Z</time>
      </trkpt>
      <trkpt lat="44.31267" lon="5.59043">
        <ele>1119.6</ele>
        <time>2023-04-06T11:52:13Z</time>
      </trkpt>
      <trkpt lat="44.31264" lon="5.59041">
        <ele>1119.9</ele>
        <time>2023-04-06T11:52:14Z</time>
      </trkpt>
      <trkpt lat="44.31264" lon="5.59041">
        <ele>1120</ele>
        <time>2023-04-06T11:52:15Z</time>
      </trkpt>
      <trkpt lat="44.31261" lon="5.59039">
        <ele>1120.3</ele>
        <time>2023-04-06T11:52:16Z</time>
      </trkpt>
      <trkpt lat="44.3126" lon="5.59038">
        <ele>1120.4</ele>
        <time>2023-04-06T11:52:17Z</time>
      </trkpt>
      <trkpt lat="44.31258" lon="5.59036">
        <ele>1120.8</ele>
        <time>2023-04-06T11:52:18Z</time>
      </trkpt>
      <trkpt lat="44.31257" lon="5.59035">
        <ele>1120.9</ele>
        <time>2023-04-06T11:52:19Z</time>
      </trkpt>
      <trkpt lat="44.31254" lon="5.59033">
        <ele>1121.2</ele>
        <time>2023-04-06T11:52:20Z</time>
      </trkpt>
      <trkpt lat="44.31253" lon="5.59033">
        <ele>1121.2</ele>
        <time>2023-04-06T11:52:21Z</time>
      </trkpt>
      <trkpt lat="44.3125" lon="5.59031">
        <ele>1121.5</ele>
        <time>2023-04-06T11:52:22Z</time>
      </trkpt>
      <trkpt lat="44.31249" lon="5.5903">
        <ele>1121.6</ele>
        <time>2023-04-06T11:52:23Z</time>
      </trkpt>
      <trkpt lat="44.31246" lon="5.59028">
        <ele>1121.9</ele>
        <time>2023-04-06T11:52:24Z</time>
      </trkpt>
      <trkpt lat="44.31245" lon="5.59027">
        <ele>1122</ele>
        <time>2023-04-06T11:52:25Z</time>
      </trkpt>
      <trkpt lat="44.31242" lon="5.59026">
        <ele>1122.3</ele>
        <time>2023-04-06T11:52:26Z</time>
      </trkpt>
      <trkpt lat="44.31241" lon="5.59025">
        <ele>1122.4</ele>
        <time>2023-04-06T11:52:27Z</time>
      </trkpt>
      <trkpt lat="44.31238" lon="5.59023">
        <ele>1122.8</ele>
        <time>2023-04-06T11:52:28Z</time>
      </trkpt>
      <trkpt lat="44.31237" lon="5.59023">
        <ele>1122.9</ele>
        <time>2023-04-06T11:52:29Z</time>
      </trkpt>
      <trkpt lat="44.31234" lon="5.59021">
        <ele>1123.2</ele>
        <time>2023-04-06T11:52:30Z</time>
      </trkpt>
      <trkpt lat="44.31233" lon="5.59021">
        <ele>1123.3</ele>
        <time>2023-04-06T11:52:31Z</time>
      </trkpt>
      <trkpt lat="44.3123" lon="5.59019">
        <ele>1123.6</ele>
        <time>2023-04-06T11:52:32Z</time>
      </trkpt>
      <trkpt lat="44.3123" lon="5.59019">
        <ele>1123.8</ele>
        <time>2023-04-06T11:52:33Z</time>
      </trkpt>
      <trkpt lat="44.31227" lon="5.59019">
        <ele>1124</ele>
        <time>2023-04-06T11:52:34Z</time>
      </trkpt>
      <trkpt lat="44.31226" lon="5.59019">
        <ele>1124.1</ele>
        <time>2023-04-06T11:52:35Z</time>
      </trkpt>
      <trkpt lat="44.31224" lon="5.5902">
        <ele>1124.3</ele>
        <time>2023-04-06T11:52:36Z</time>
      </trkpt>
      <trkpt lat="44.31222" lon="5.5902">
        <ele>1124.5</ele>
        <time>2023-04-06T11:52:37Z</time>
      </trkpt>
      <trkpt lat="44.31221" lon="5.59022">
        <ele>1124.6</ele>
        <time>2023-04-06T11:52:38Z</time>
      </trkpt>
      <trkpt lat="44.3122" lon="5.59024">
        <ele>1124.8</ele>
        <time>2023-04-06T11:52:39Z</time>
      </trkpt>
      <trkpt lat="44.31219" lon="5.59026">
        <ele>1124.9</ele>
        <time>2023-04-06T11:52:40Z</time>
      </trkpt>
      <trkpt lat="44.31218" lon="5.59028">
        <ele>1125.1</ele>
        <time>2023-04-06T11:52:41Z</time>
      </trkpt>
      <trkpt lat="44.31217" lon="5.59032">
        <ele>1125.4</ele>
        <time>2023-04-06T11:52:42Z</time>
      </trkpt>
      <trkpt lat="44.31217" lon="5.59033">
        <ele>1125.5</ele>
        <time>2023-04-06T11:52:43Z</time>
      </trkpt>
      <trkpt lat="44.31216" lon="5.59037">
        <ele>1125.9</ele>
        <time>2023-04-06T11:52:44Z</time>
      </trkpt>
      <trkpt lat="44.31215" lon="5.59038">
        <ele>1126</ele>
        <time>2023-04-06T11:52:45Z</time>
      </trkpt>
      <trkpt lat="44.31214" lon="5.59042">
        <ele>1126.4</ele>
        <time>2023-04-06T11:52:46Z</time>
      </trkpt>
      <trkpt lat="44.31214" lon="5.59044">
        <ele>1126.6</ele>
        <time>2023-04-06T11:52:47Z</time>
      </trkpt>
      <trkpt lat="44.31213" lon="5.59047">
        <ele>1127</ele>
        <time>2023-04-06T11:52:48Z</time>
      </trkpt>
      <trkpt lat="44.31213" lon="5.59049">
        <ele>1127.1</ele>
        <time>2023-04-06T11:52:49Z</time>
      </trkpt>
      <trkpt lat="44.31211" lon="5.59053">
        <ele>1127.5</ele>
        <time>2023-04-06T11:52:50Z</time>
      </trkpt>
      <trkpt lat="44.31211" lon="5.59054">
        <ele>1127.6</ele>
        <time>2023-04-06T11:52:51Z</time>
      </trkpt>
      <trkpt lat="44.31209" lon="5.59058">
        <ele>1128</ele>
        <time>2023-04-06T11:52:52Z</time>
      </trkpt>
      <trkpt lat="44.31209" lon="5.59059">
        <ele>1128.1</ele>
        <time>2023-04-06T11:52:53Z</time>
      </trkpt>
      <trkpt lat="44.31208" lon="5.59061">
        <ele>1128.3</ele>
        <time>2023-04-06T11:52:54Z</time>
      </trkpt>
      <trkpt lat="44.31207" lon="5.59063">
        <ele>1128.4</ele>
        <time>2023-04-06T11:52:55Z</time>
      </trkpt>
      <trkpt lat="44.31206" lon="5.59067">
        <ele>1128.7</ele>
        <time>2023-04-06T11:52:56Z</time>
      </trkpt>
      <trkpt lat="44.31206" lon="5.59069">
        <ele>1128.8</ele>
        <time>2023-04-06T11:52:57Z</time>
      </trkpt>
      <trkpt lat="44.31204" lon="5.59073">
        <ele>1129</ele>
        <time>2023-04-06T11:52:58Z</time>
      </trkpt>
      <trkpt lat="44.31203" lon="5.59075">
        <ele>1129.1</ele>
        <time>2023-04-06T11:52:59Z</time>
      </trkpt>
      <trkpt lat="44.31202" lon="5.59078">
        <ele>1129.4</ele>
        <time>2023-04-06T11:53:00Z</time>
      </trkpt>
      <trkpt lat="44.31201" lon="5.5908">
        <ele>1129.4</ele>
        <time>2023-04-06T11:53:01Z</time>
      </trkpt>
      <trkpt lat="44.31199" lon="5.59084">
        <ele>1129.7</ele>
        <time>2023-04-06T11:53:02Z</time>
      </trkpt>
      <trkpt lat="44.31199" lon="5.59086">
        <ele>1129.8</ele>
        <time>2023-04-06T11:53:03Z</time>
      </trkpt>
      <trkpt lat="44.31198" lon="5.59089">
        <ele>1130</ele>
        <time>2023-04-06T11:53:04Z</time>
      </trkpt>
      <trkpt lat="44.31195" lon="5.59094">
        <ele>1130.3</ele>
        <time>2023-04-06T11:53:05Z</time>
      </trkpt>
      <trkpt lat="44.31194" lon="5.59095">
        <ele>1130.5</ele>
        <time>2023-04-06T11:53:06Z</time>
      </trkpt>
      <trkpt lat="44.31192" lon="5.59098">
        <ele>1130.7</ele>
        <time>2023-04-06T11:53:07Z</time>
      </trkpt>
      <trkpt lat="44.31189" lon="5.59102">
        <ele>1131</ele>
        <time>2023-04-06T11:53:08Z</time>
      </trkpt>
      <trkpt lat="44.31189" lon="5.59103">
        <ele>1131.2</ele>
        <time>2023-04-06T11:53:09Z</time>
      </trkpt>
      <trkpt lat="44.31186" lon="5.59107">
        <ele>1131.5</ele>
        <time>2023-04-06T11:53:10Z</time>
      </trkpt>
      <trkpt lat="44.31186" lon="5.59108">
        <ele>1131.6</ele>
        <time>2023-04-06T11:53:11Z</time>
      </trkpt>
      <trkpt lat="44.31184" lon="5.59113">
        <ele>1132</ele>
        <time>2023-04-06T11:53:12Z</time>
      </trkpt>
      <trkpt lat="44.31183" lon="5.59115">
        <ele>1132.2</ele>
        <time>2023-04-06T11:53:13Z</time>
      </trkpt>
      <trkpt lat="44.31182" lon="5.5912">
        <ele>1132.6</ele>
        <time>2023-04-06T11:53:14Z</time>
      </trkpt>
      <trkpt lat="44.31182" lon="5.59121">
        <ele>1132.7</ele>
        <time>2023-04-06T11:53:15Z</time>
      </trkpt>
      <trkpt lat="44.31181" lon="5.59126">
        <ele>1133</ele>
        <time>2023-04-06T11:53:16Z</time>
      </trkpt>
      <trkpt lat="44.31181" lon="5.59127">
        <ele>1133.1</ele>
        <time>2023-04-06T11:53:17Z</time>
      </trkpt>
      <trkpt lat="44.31181" lon="5.59132">
        <ele>1133.4</ele>
        <time>2023-04-06T11:53:18Z</time>
      </trkpt>
      <trkpt lat="44.3118" lon="5.59134">
        <ele>1133.5</ele>
        <time>2023-04-06T11:53:19Z</time>
      </trkpt>
      <trkpt lat="44.3118" lon="5.59139">
        <ele>1133.8</ele>
        <time>2023-04-06T11:53:20Z</time>
      </trkpt>
      <trkpt lat="44.3118" lon="5.59141">
        <ele>1134</ele>
        <time>2023-04-06T11:53:21Z</time>
      </trkpt>
      <trkpt lat="44.31179" lon="5.59146">
        <ele>1134.3</ele>
        <time>2023-04-06T11:53:22Z</time>
      </trkpt>
      <trkpt lat="44.31179" lon="5.59148">
        <ele>1134.4</ele>
        <time>2023-04-06T11:53:23Z</time>
      </trkpt>
      <trkpt lat="44.31177" lon="5.59151">
        <ele>1134.6</ele>
        <time>2023-04-06T11:53:24Z</time>
      </trkpt>
      <trkpt lat="44.31177" lon="5.59153">
        <ele>1134.7</ele>
        <time>2023-04-06T11:53:25Z</time>
      </trkpt>
      <trkpt lat="44.31175" lon="5.59156">
        <ele>1134.9</ele>
        <time>2023-04-06T11:53:26Z</time>
      </trkpt>
      <trkpt lat="44.31174" lon="5.59157">
        <ele>1135</ele>
        <time>2023-04-06T11:53:27Z</time>
      </trkpt>
      <trkpt lat="44.31172" lon="5.5916">
        <ele>1135.2</ele>
        <time>2023-04-06T11:53:28Z</time>
      </trkpt>
      <trkpt lat="44.31171" lon="5.5916">
        <ele>1135.3</ele>
        <time>2023-04-06T11:53:29Z</time>
      </trkpt>
      <trkpt lat="44.31167" lon="5.59163">
        <ele>1135.4</ele>
        <time>2023-04-06T11:53:30Z</time>
      </trkpt>
      <trkpt lat="44.31166" lon="5.59163">
        <ele>1135.5</ele>
        <time>2023-04-06T11:53:31Z</time>
      </trkpt>
      <trkpt lat="44.31163" lon="5.59164">
        <ele>1135.6</ele>
        <time>2023-04-06T11:53:32Z</time>
      </trkpt>
      <trkpt lat="44.31161" lon="5.59164">
        <ele>1135.7</ele>
        <time>2023-04-06T11:53:33Z</time>
      </trkpt>
      <trkpt lat="44.31158" lon="5.59165">
        <ele>1135.8</ele>
        <time>2023-04-06T11:53:34Z</time>
      </trkpt>
      <trkpt lat="44.31157" lon="5.59165">
        <ele>1135.8</ele>
        <time>2023-04-06T11:53:35Z</time>
      </trkpt>
      <trkpt lat="44.31154" lon="5.59164">
        <ele>1136</ele>
        <time>2023-04-06T11:53:36Z</time>
      </trkpt>
      <trkpt lat="44.31153" lon="5.59164">
        <ele>1136</ele>
        <time>2023-04-06T11:53:37Z</time>
      </trkpt>
      <trkpt lat="44.31149" lon="5.59163">
        <ele>1136.2</ele>
        <time>2023-04-06T11:53:38Z</time>
      </trkpt>
      <trkpt lat="44.31148" lon="5.59163">
        <ele>1136.2</ele>
        <time>2023-04-06T11:53:39Z</time>
      </trkpt>
      <trkpt lat="44.31145" lon="5.59161">
        <ele>1136.3</ele>
        <time>2023-04-06T11:53:40Z</time>
      </trkpt>
      <trkpt lat="44.31144" lon="5.5916">
        <ele>1136.3</ele>
        <time>2023-04-06T11:53:41Z</time>
      </trkpt>
      <trkpt lat="44.3114" lon="5.59159">
        <ele>1136.4</ele>
        <time>2023-04-06T11:53:42Z</time>
      </trkpt>
      <trkpt lat="44.31139" lon="5.59158">
        <ele>1136.4</ele>
        <time>2023-04-06T11:53:43Z</time>
      </trkpt>
      <trkpt lat="44.31136" lon="5.59155">
        <ele>1136.4</ele>
        <time>2023-04-06T11:53:44Z</time>
      </trkpt>
      <trkpt lat="44.31135" lon="5.59154">
        <ele>1136.4</ele>
        <time>2023-04-06T11:53:45Z</time>
      </trkpt>
      <trkpt lat="44.31134" lon="5.5915">
        <ele>1136.4</ele>
        <time>2023-04-06T11:53:46Z</time>
      </trkpt>
      <trkpt lat="44.31131" lon="5.59148">
        <ele>1136.4</ele>
        <time>2023-04-06T11:53:47Z</time>
      </trkpt>
      <trkpt lat="44.31129" lon="5.59145">
        <ele>1136.4</ele>
        <time>2023-04-06T11:53:48Z</time>
      </trkpt>
      <trkpt lat="44.31126" lon="5.59143">
        <ele>1136.4</ele>
        <time>2023-04-06T11:53:49Z</time>
      </trkpt>
      <trkpt lat="44.31124" lon="5.5914">
        <ele>1136.4</ele>
        <time>2023-04-06T11:53:50Z</time>
      </trkpt>
      <trkpt lat="44.31122" lon="5.59137">
        <ele>1136.4</ele>
        <time>2023-04-06T11:53:51Z</time>
      </trkpt>
      <trkpt lat="44.3112" lon="5.59134">
        <ele>1136.4</ele>
        <time>2023-04-06T11:53:52Z</time>
      </trkpt>
      <trkpt lat="44.31118" lon="5.59132">
        <ele>1136.4</ele>
        <time>2023-04-06T11:53:53Z</time>
      </trkpt>
      <trkpt lat="44.31115" lon="5.59127">
        <ele>1136.4</ele>
        <time>2023-04-06T11:53:54Z</time>
      </trkpt>
      <trkpt lat="44.31114" lon="5.59125">
        <ele>1136.4</ele>
        <time>2023-04-06T11:53:55Z</time>
      </trkpt>
      <trkpt lat="44.31112" lon="5.59122">
        <ele>1136.4</ele>
        <time>2023-04-06T11:53:56Z</time>
      </trkpt>
      <trkpt lat="44.3111" lon="5.59119">
        <ele>1136.4</ele>
        <time>2023-04-06T11:53:57Z</time>
      </trkpt>
      <trkpt lat="44.31107" lon="5.59115">
        <ele>1136.5</ele>
        <time>2023-04-06T11:53:58Z</time>
      </trkpt>
      <trkpt lat="44.31105" lon="5.59112">
        <ele>1136.6</ele>
        <time>2023-04-06T11:53:59Z</time>
      </trkpt>
      <trkpt lat="44.31102" lon="5.59108">
        <ele>1136.7</ele>
        <time>2023-04-06T11:54:00Z</time>
      </trkpt>
      <trkpt lat="44.311" lon="5.59105">
        <ele>1136.8</ele>
        <time>2023-04-06T11:54:01Z</time>
      </trkpt>
      <trkpt lat="44.31098" lon="5.59103">
        <ele>1136.9</ele>
        <time>2023-04-06T11:54:02Z</time>
      </trkpt>
      <trkpt lat="44.31095" lon="5.59101">
        <ele>1137</ele>
        <time>2023-04-06T11:54:03Z</time>
      </trkpt>
      <trkpt lat="44.31091" lon="5.59099">
        <ele>1137</ele>
        <time>2023-04-06T11:54:04Z</time>
      </trkpt>
      <trkpt lat="44.31088" lon="5.59097">
        <ele>1137.1</ele>
        <time>2023-04-06T11:54:05Z</time>
      </trkpt>
      <trkpt lat="44.31085" lon="5.59095">
        <ele>1137.1</ele>
        <time>2023-04-06T11:54:06Z</time>
      </trkpt>
      <trkpt lat="44.31082" lon="5.59093">
        <ele>1137.1</ele>
        <time>2023-04-06T11:54:07Z</time>
      </trkpt>
      <trkpt lat="44.3108" lon="5.59091">
        <ele>1137.1</ele>
        <time>2023-04-06T11:54:08Z</time>
      </trkpt>
      <trkpt lat="44.31077" lon="5.59088">
        <ele>1137.1</ele>
        <time>2023-04-06T11:54:09Z</time>
      </trkpt>
      <trkpt lat="44.31075" lon="5.59086">
        <ele>1137.1</ele>
        <time>2023-04-06T11:54:10Z</time>
      </trkpt>
      <trkpt lat="44.31072" lon="5.59084">
        <ele>1137.1</ele>
        <time>2023-04-06T11:54:11Z</time>
      </trkpt>
      <trkpt lat="44.31069" lon="5.59082">
        <ele>1137.1</ele>
        <time>2023-04-06T11:54:12Z</time>
      </trkpt>
      <trkpt lat="44.31067" lon="5.59079">
        <ele>1137.1</ele>
        <time>2023-04-06T11:54:13Z</time>
      </trkpt>
      <trkpt lat="44.31064" lon="5.59077">
        <ele>1137.1</ele>
        <time>2023-04-06T11:54:14Z</time>
      </trkpt>
      <trkpt lat="44.31061" lon="5.59074">
        <ele>1137.1</ele>
        <time>2023-04-06T11:54:15Z</time>
      </trkpt>
      <trkpt lat="44.31059" lon="5.59072">
        <ele>1137.1</ele>
        <time>2023-04-06T11:54:16Z</time>
      </trkpt>
      <trkpt lat="44.31056" lon="5.59069">
        <ele>1137.2</ele>
        <time>2023-04-06T11:54:17Z</time>
      </trkpt>
      <trkpt lat="44.31051" lon="5.59064">
        <ele>1137.3</ele>
        <time>2023-04-06T11:54:19Z</time>
      </trkpt>
      <trkpt lat="44.31049" lon="5.59061">
        <ele>1137.3</ele>
        <time>2023-04-06T11:54:20Z</time>
      </trkpt>
      <trkpt lat="44.31046" lon="5.59058">
        <ele>1137.3</ele>
        <time>2023-04-06T11:54:21Z</time>
      </trkpt>
      <trkpt lat="44.31043" lon="5.59056">
        <ele>1137.4</ele>
        <time>2023-04-06T11:54:22Z</time>
      </trkpt>
      <trkpt lat="44.3104" lon="5.59054">
        <ele>1137.4</ele>
        <time>2023-04-06T11:54:23Z</time>
      </trkpt>
      <trkpt lat="44.31037" lon="5.59051">
        <ele>1137.4</ele>
        <time>2023-04-06T11:54:24Z</time>
      </trkpt>
      <trkpt lat="44.31035" lon="5.59049">
        <ele>1137.4</ele>
        <time>2023-04-06T11:54:25Z</time>
      </trkpt>
      <trkpt lat="44.31033" lon="5.59046">
        <ele>1137.3</ele>
        <time>2023-04-06T11:54:26Z</time>
      </trkpt>
      <trkpt lat="44.31031" lon="5.59043">
        <ele>1137.3</ele>
        <time>2023-04-06T11:54:27Z</time>
      </trkpt>
      <trkpt lat="44.31028" lon="5.5904">
        <ele>1137.2</ele>
        <time>2023-04-06T11:54:28Z</time>
      </trkpt>
      <trkpt lat="44.31026" lon="5.59036">
        <ele>1137.2</ele>
        <time>2023-04-06T11:54:29Z</time>
      </trkpt>
      <trkpt lat="44.31024" lon="5.59032">
        <ele>1137.1</ele>
        <time>2023-04-06T11:54:30Z</time>
      </trkpt>
      <trkpt lat="44.31022" lon="5.59028">
        <ele>1137.1</ele>
        <time>2023-04-06T11:54:31Z</time>
      </trkpt>
      <trkpt lat="44.3102" lon="5.59023">
        <ele>1137.1</ele>
        <time>2023-04-06T11:54:32Z</time>
      </trkpt>
      <trkpt lat="44.31018" lon="5.59019">
        <ele>1137.1</ele>
        <time>2023-04-06T11:54:33Z</time>
      </trkpt>
      <trkpt lat="44.31016" lon="5.59015">
        <ele>1137.1</ele>
        <time>2023-04-06T11:54:34Z</time>
      </trkpt>
      <trkpt lat="44.31014" lon="5.59013">
        <ele>1137.2</ele>
        <time>2023-04-06T11:54:35Z</time>
      </trkpt>
      <trkpt lat="44.31012" lon="5.5901">
        <ele>1137.3</ele>
        <time>2023-04-06T11:54:36Z</time>
      </trkpt>
      <trkpt lat="44.3101" lon="5.59007">
        <ele>1137.3</ele>
        <time>2023-04-06T11:54:37Z</time>
      </trkpt>
      <trkpt lat="44.31007" lon="5.59004">
        <ele>1137.4</ele>
        <time>2023-04-06T11:54:38Z</time>
      </trkpt>
      <trkpt lat="44.31006" lon="5.59">
        <ele>1137.5</ele>
        <time>2023-04-06T11:54:39Z</time>
      </trkpt>
      <trkpt lat="44.31003" lon="5.58996">
        <ele>1137.6</ele>
        <time>2023-04-06T11:54:40Z</time>
      </trkpt>
      <trkpt lat="44.31002" lon="5.58995">
        <ele>1137.6</ele>
        <time>2023-04-06T11:54:41Z</time>
      </trkpt>
      <trkpt lat="44.31" lon="5.5899">
        <ele>1137.7</ele>
        <time>2023-04-06T11:54:42Z</time>
      </trkpt>
      <trkpt lat="44.30999" lon="5.58989">
        <ele>1137.7</ele>
        <time>2023-04-06T11:54:43Z</time>
      </trkpt>
      <trkpt lat="44.30998" lon="5.58984">
        <ele>1137.7</ele>
        <time>2023-04-06T11:54:44Z</time>
      </trkpt>
      <trkpt lat="44.30997" lon="5.58983">
        <ele>1137.7</ele>
        <time>2023-04-06T11:54:45Z</time>
      </trkpt>
      <trkpt lat="44.30997" lon="5.58976">
        <ele>1137.7</ele>
        <time>2023-04-06T11:54:47Z</time>
      </trkpt>
      <trkpt lat="44.30997" lon="5.58971">
        <ele>1137.7</ele>
        <time>2023-04-06T11:54:48Z</time>
      </trkpt>
      <trkpt lat="44.30996" lon="5.58966">
        <ele>1137.7</ele>
        <time>2023-04-06T11:54:49Z</time>
      </trkpt>
      <trkpt lat="44.30996" lon="5.58964">
        <ele>1137.7</ele>
        <time>2023-04-06T11:54:50Z</time>
      </trkpt>
      <trkpt lat="44.30996" lon="5.5896">
        <ele>1137.7</ele>
        <time>2023-04-06T11:54:51Z</time>
      </trkpt>
      <trkpt lat="44.30995" lon="5.58951">
        <ele>1137.7</ele>
        <time>2023-04-06T11:54:53Z</time>
      </trkpt>
      <trkpt lat="44.30993" lon="5.58948">
        <ele>1137.7</ele>
        <time>2023-04-06T11:54:54Z</time>
      </trkpt>
      <trkpt lat="44.30992" lon="5.58945">
        <ele>1137.7</ele>
        <time>2023-04-06T11:54:55Z</time>
      </trkpt>
      <trkpt lat="44.3099" lon="5.5894">
        <ele>1137.7</ele>
        <time>2023-04-06T11:54:56Z</time>
      </trkpt>
      <trkpt lat="44.30989" lon="5.58939">
        <ele>1137.7</ele>
        <time>2023-04-06T11:54:57Z</time>
      </trkpt>
      <trkpt lat="44.30988" lon="5.58934">
        <ele>1137.7</ele>
        <time>2023-04-06T11:54:58Z</time>
      </trkpt>
      <trkpt lat="44.30987" lon="5.58933">
        <ele>1137.7</ele>
        <time>2023-04-06T11:54:59Z</time>
      </trkpt>
      <trkpt lat="44.30986" lon="5.58928">
        <ele>1137.8</ele>
        <time>2023-04-06T11:55:00Z</time>
      </trkpt>
      <trkpt lat="44.30986" lon="5.58927">
        <ele>1137.8</ele>
        <time>2023-04-06T11:55:01Z</time>
      </trkpt>
      <trkpt lat="44.30986" lon="5.58924">
        <ele>1137.8</ele>
        <time>2023-04-06T11:55:02Z</time>
      </trkpt>
      <trkpt lat="44.30985" lon="5.58918">
        <ele>1137.9</ele>
        <time>2023-04-06T11:55:04Z</time>
      </trkpt>
      <trkpt lat="44.30984" lon="5.58915">
        <ele>1137.9</ele>
        <time>2023-04-06T11:55:05Z</time>
      </trkpt>
      <trkpt lat="44.30984" lon="5.5891">
        <ele>1137.9</ele>
        <time>2023-04-06T11:55:06Z</time>
      </trkpt>
      <trkpt lat="44.30983" lon="5.58909">
        <ele>1137.9</ele>
        <time>2023-04-06T11:55:07Z</time>
      </trkpt>
      <trkpt lat="44.30983" lon="5.58904">
        <ele>1138</ele>
        <time>2023-04-06T11:55:08Z</time>
      </trkpt>
      <trkpt lat="44.30983" lon="5.58903">
        <ele>1138</ele>
        <time>2023-04-06T11:55:09Z</time>
      </trkpt>
      <trkpt lat="44.30982" lon="5.58898">
        <ele>1138</ele>
        <time>2023-04-06T11:55:10Z</time>
      </trkpt>
      <trkpt lat="44.30982" lon="5.58896">
        <ele>1138</ele>
        <time>2023-04-06T11:55:11Z</time>
      </trkpt>
      <trkpt lat="44.30982" lon="5.5889">
        <ele>1138</ele>
        <time>2023-04-06T11:55:12Z</time>
      </trkpt>
      <trkpt lat="44.30982" lon="5.58888">
        <ele>1138</ele>
        <time>2023-04-06T11:55:13Z</time>
      </trkpt>
      <trkpt lat="44.30983" lon="5.58882">
        <ele>1138</ele>
        <time>2023-04-06T11:55:15Z</time>
      </trkpt>
      <trkpt lat="44.30984" lon="5.58878">
        <ele>1138.1</ele>
        <time>2023-04-06T11:55:16Z</time>
      </trkpt>
      <trkpt lat="44.30984" lon="5.58874">
        <ele>1138.1</ele>
        <time>2023-04-06T11:55:17Z</time>
      </trkpt>
      <trkpt lat="44.30985" lon="5.58869">
        <ele>1138.1</ele>
        <time>2023-04-06T11:55:18Z</time>
      </trkpt>
      <trkpt lat="44.30986" lon="5.58865">
        <ele>1138.1</ele>
        <time>2023-04-06T11:55:19Z</time>
      </trkpt>
      <trkpt lat="44.30986" lon="5.58861">
        <ele>1138.1</ele>
        <time>2023-04-06T11:55:20Z</time>
      </trkpt>
      <trkpt lat="44.30985" lon="5.58857">
        <ele>1138.1</ele>
        <time>2023-04-06T11:55:21Z</time>
      </trkpt>
      <trkpt lat="44.30985" lon="5.58853">
        <ele>1138.1</ele>
        <time>2023-04-06T11:55:22Z</time>
      </trkpt>
      <trkpt lat="44.30985" lon="5.58849">
        <ele>1138.1</ele>
        <time>2023-04-06T11:55:23Z</time>
      </trkpt>
      <trkpt lat="44.30985" lon="5.58844">
        <ele>1138.2</ele>
        <time>2023-04-06T11:55:24Z</time>
      </trkpt>
      <trkpt lat="44.30987" lon="5.58836">
        <ele>1138.3</ele>
        <time>2023-04-06T11:55:26Z</time>
      </trkpt>
      <trkpt lat="44.30988" lon="5.58832">
        <ele>1138.3</ele>
        <time>2023-04-06T11:55:27Z</time>
      </trkpt>
      <trkpt lat="44.30988" lon="5.58827">
        <ele>1138.3</ele>
        <time>2023-04-06T11:55:28Z</time>
      </trkpt>
      <trkpt lat="44.30989" lon="5.58822">
        <ele>1138.4</ele>
        <time>2023-04-06T11:55:29Z</time>
      </trkpt>
      <trkpt lat="44.30989" lon="5.58818">
        <ele>1138.4</ele>
        <time>2023-04-06T11:55:30Z</time>
      </trkpt>
      <trkpt lat="44.30988" lon="5.58814">
        <ele>1138.4</ele>
        <time>2023-04-06T11:55:31Z</time>
      </trkpt>
      <trkpt lat="44.30988" lon="5.5881">
        <ele>1138.5</ele>
        <time>2023-04-06T11:55:32Z</time>
      </trkpt>
      <trkpt lat="44.30987" lon="5.58805">
        <ele>1138.5</ele>
        <time>2023-04-06T11:55:33Z</time>
      </trkpt>
      <trkpt lat="44.30987" lon="5.58801">
        <ele>1138.6</ele>
        <time>2023-04-06T11:55:34Z</time>
      </trkpt>
      <trkpt lat="44.30987" lon="5.58797">
        <ele>1138.6</ele>
        <time>2023-04-06T11:55:35Z</time>
      </trkpt>
      <trkpt lat="44.30987" lon="5.5879">
        <ele>1138.7</ele>
        <time>2023-04-06T11:55:37Z</time>
      </trkpt>
      <trkpt lat="44.30988" lon="5.58785">
        <ele>1138.7</ele>
        <time>2023-04-06T11:55:38Z</time>
      </trkpt>
      <trkpt lat="44.30988" lon="5.58781">
        <ele>1138.7</ele>
        <time>2023-04-06T11:55:39Z</time>
      </trkpt>
      <trkpt lat="44.30987" lon="5.58777">
        <ele>1138.8</ele>
        <time>2023-04-06T11:55:40Z</time>
      </trkpt>
      <trkpt lat="44.30987" lon="5.58773">
        <ele>1138.8</ele>
        <time>2023-04-06T11:55:41Z</time>
      </trkpt>
      <trkpt lat="44.30987" lon="5.58765">
        <ele>1138.9</ele>
        <time>2023-04-06T11:55:43Z</time>
      </trkpt>
      <trkpt lat="44.30989" lon="5.58759">
        <ele>1139</ele>
        <time>2023-04-06T11:55:44Z</time>
      </trkpt>
      <trkpt lat="44.30992" lon="5.58751">
        <ele>1139</ele>
        <time>2023-04-06T11:55:45Z</time>
      </trkpt>
      <trkpt lat="44.30993" lon="5.58744">
        <ele>1139</ele>
        <time>2023-04-06T11:55:46Z</time>
      </trkpt>
      <trkpt lat="44.30994" lon="5.58739">
        <ele>1139</ele>
        <time>2023-04-06T11:55:47Z</time>
      </trkpt>
      <trkpt lat="44.30995" lon="5.58734">
        <ele>1139.1</ele>
        <time>2023-04-06T11:55:48Z</time>
      </trkpt>
      <trkpt lat="44.30996" lon="5.5873">
        <ele>1139.1</ele>
        <time>2023-04-06T11:55:49Z</time>
      </trkpt>
      <trkpt lat="44.30996" lon="5.58726">
        <ele>1139.2</ele>
        <time>2023-04-06T11:55:50Z</time>
      </trkpt>
      <trkpt lat="44.30996" lon="5.58721">
        <ele>1139.2</ele>
        <time>2023-04-06T11:55:51Z</time>
      </trkpt>
      <trkpt lat="44.30996" lon="5.58717">
        <ele>1139.2</ele>
        <time>2023-04-06T11:55:52Z</time>
      </trkpt>
      <trkpt lat="44.30996" lon="5.58712">
        <ele>1139.2</ele>
        <time>2023-04-06T11:55:53Z</time>
      </trkpt>
      <trkpt lat="44.30996" lon="5.58707">
        <ele>1139.2</ele>
        <time>2023-04-06T11:55:54Z</time>
      </trkpt>
      <trkpt lat="44.30997" lon="5.58697">
        <ele>1139.3</ele>
        <time>2023-04-06T11:55:56Z</time>
      </trkpt>
      <trkpt lat="44.30998" lon="5.58695">
        <ele>1139.3</ele>
        <time>2023-04-06T11:55:57Z</time>
      </trkpt>
      <trkpt lat="44.30998" lon="5.58689">
        <ele>1139.4</ele>
        <time>2023-04-06T11:55:58Z</time>
      </trkpt>
      <trkpt lat="44.30999" lon="5.58684">
        <ele>1139.9</ele>
        <time>2023-04-06T11:55:59Z</time>
      </trkpt>
      <trkpt lat="44.30999" lon="5.58678">
        <ele>1140.6</ele>
        <time>2023-04-06T11:56:00Z</time>
      </trkpt>
      <trkpt lat="44.30998" lon="5.58677">
        <ele>1140.8</ele>
        <time>2023-04-06T11:56:01Z</time>
      </trkpt>
      <trkpt lat="44.30997" lon="5.58671">
        <ele>1141.6</ele>
        <time>2023-04-06T11:56:02Z</time>
      </trkpt>
      <trkpt lat="44.30997" lon="5.58669">
        <ele>1142</ele>
        <time>2023-04-06T11:56:03Z</time>
      </trkpt>
      <trkpt lat="44.30997" lon="5.58665">
        <ele>1142.8</ele>
        <time>2023-04-06T11:56:04Z</time>
      </trkpt>
      <trkpt lat="44.30997" lon="5.58661">
        <ele>1143.5</ele>
        <time>2023-04-06T11:56:05Z</time>
      </trkpt>
      <trkpt lat="44.30998" lon="5.58654">
        <ele>1144.6</ele>
        <time>2023-04-06T11:56:07Z</time>
      </trkpt>
      <trkpt lat="44.30999" lon="5.5865">
        <ele>1145.2</ele>
        <time>2023-04-06T11:56:08Z</time>
      </trkpt>
      <trkpt lat="44.31001" lon="5.58645">
        <ele>1146.1</ele>
        <time>2023-04-06T11:56:09Z</time>
      </trkpt>
      <trkpt lat="44.31001" lon="5.58642">
        <ele>1146.4</ele>
        <time>2023-04-06T11:56:10Z</time>
      </trkpt>
      <trkpt lat="44.31001" lon="5.58638">
        <ele>1146.9</ele>
        <time>2023-04-06T11:56:11Z</time>
      </trkpt>
      <trkpt lat="44.31" lon="5.58634">
        <ele>1147.4</ele>
        <time>2023-04-06T11:56:12Z</time>
      </trkpt>
      <trkpt lat="44.31" lon="5.58629">
        <ele>1147.8</ele>
        <time>2023-04-06T11:56:13Z</time>
      </trkpt>
      <trkpt lat="44.31" lon="5.58627">
        <ele>1148</ele>
        <time>2023-04-06T11:56:14Z</time>
      </trkpt>
      <trkpt lat="44.31" lon="5.58621">
        <ele>1148.3</ele>
        <time>2023-04-06T11:56:15Z</time>
      </trkpt>
      <trkpt lat="44.31" lon="5.5862">
        <ele>1148.4</ele>
        <time>2023-04-06T11:56:16Z</time>
      </trkpt>
      <trkpt lat="44.31001" lon="5.58614">
        <ele>1148.7</ele>
        <time>2023-04-06T11:56:17Z</time>
      </trkpt>
      <trkpt lat="44.31002" lon="5.58612">
        <ele>1148.7</ele>
        <time>2023-04-06T11:56:18Z</time>
      </trkpt>
      <trkpt lat="44.31004" lon="5.58605">
        <ele>1149.1</ele>
        <time>2023-04-06T11:56:20Z</time>
      </trkpt>
      <trkpt lat="44.31004" lon="5.586">
        <ele>1149.3</ele>
        <time>2023-04-06T11:56:21Z</time>
      </trkpt>
      <trkpt lat="44.31004" lon="5.58596">
        <ele>1149.5</ele>
        <time>2023-04-06T11:56:22Z</time>
      </trkpt>
      <trkpt lat="44.31005" lon="5.58591">
        <ele>1149.7</ele>
        <time>2023-04-06T11:56:23Z</time>
      </trkpt>
      <trkpt lat="44.31005" lon="5.58587">
        <ele>1149.9</ele>
        <time>2023-04-06T11:56:24Z</time>
      </trkpt>
      <trkpt lat="44.31005" lon="5.58583">
        <ele>1150.1</ele>
        <time>2023-04-06T11:56:25Z</time>
      </trkpt>
      <trkpt lat="44.31006" lon="5.58578">
        <ele>1150.3</ele>
        <time>2023-04-06T11:56:26Z</time>
      </trkpt>
      <trkpt lat="44.31006" lon="5.58574">
        <ele>1150.6</ele>
        <time>2023-04-06T11:56:27Z</time>
      </trkpt>
      <trkpt lat="44.31005" lon="5.5857">
        <ele>1150.9</ele>
        <time>2023-04-06T11:56:28Z</time>
      </trkpt>
      <trkpt lat="44.31006" lon="5.58565">
        <ele>1151.4</ele>
        <time>2023-04-06T11:56:29Z</time>
      </trkpt>
      <trkpt lat="44.31006" lon="5.58557">
        <ele>1152.5</ele>
        <time>2023-04-06T11:56:31Z</time>
      </trkpt>
      <trkpt lat="44.31006" lon="5.58553">
        <ele>1153.2</ele>
        <time>2023-04-06T11:56:32Z</time>
      </trkpt>
      <trkpt lat="44.31007" lon="5.58547">
        <ele>1154.4</ele>
        <time>2023-04-06T11:56:33Z</time>
      </trkpt>
      <trkpt lat="44.31007" lon="5.58545">
        <ele>1154.9</ele>
        <time>2023-04-06T11:56:34Z</time>
      </trkpt>
      <trkpt lat="44.31007" lon="5.58541">
        <ele>1155.9</ele>
        <time>2023-04-06T11:56:35Z</time>
      </trkpt>
      <trkpt lat="44.31008" lon="5.58537">
        <ele>1156.8</ele>
        <time>2023-04-06T11:56:36Z</time>
      </trkpt>
      <trkpt lat="44.31007" lon="5.58533">
        <ele>1157.6</ele>
        <time>2023-04-06T11:56:37Z</time>
      </trkpt>
      <trkpt lat="44.31007" lon="5.58528">
        <ele>1158.6</ele>
        <time>2023-04-06T11:56:38Z</time>
      </trkpt>
      <trkpt lat="44.31007" lon="5.58526">
        <ele>1159</ele>
        <time>2023-04-06T11:56:39Z</time>
      </trkpt>
      <trkpt lat="44.31006" lon="5.58522">
        <ele>1159.6</ele>
        <time>2023-04-06T11:56:40Z</time>
      </trkpt>
      <trkpt lat="44.31007" lon="5.58516">
        <ele>1160.5</ele>
        <time>2023-04-06T11:56:42Z</time>
      </trkpt>
      <trkpt lat="44.31007" lon="5.58513">
        <ele>1160.9</ele>
        <time>2023-04-06T11:56:43Z</time>
      </trkpt>
      <trkpt lat="44.31007" lon="5.58509">
        <ele>1161.3</ele>
        <time>2023-04-06T11:56:44Z</time>
      </trkpt>
      <trkpt lat="44.31007" lon="5.58508">
        <ele>1161.4</ele>
        <time>2023-04-06T11:56:45Z</time>
      </trkpt>
      <trkpt lat="44.31007" lon="5.58508">
        <ele>1161.5</ele>
        <time>2023-04-06T11:56:46Z</time>
      </trkpt>
      <trkpt lat="44.31007" lon="5.58503">
        <ele>1162</ele>
        <time>2023-04-06T11:56:47Z</time>
      </trkpt>
      <trkpt lat="44.31007" lon="5.58502">
        <ele>1162.2</ele>
        <time>2023-04-06T11:56:48Z</time>
      </trkpt>
      <trkpt lat="44.31007" lon="5.58498">
        <ele>1162.5</ele>
        <time>2023-04-06T11:56:49Z</time>
      </trkpt>
      <trkpt lat="44.31007" lon="5.58498">
        <ele>1162.6</ele>
        <time>2023-04-06T11:56:50Z</time>
      </trkpt>
      <trkpt lat="44.31007" lon="5.58497">
        <ele>1162.7</ele>
        <time>2023-04-06T11:56:51Z</time>
      </trkpt>
      <trkpt lat="44.31007" lon="5.58496">
        <ele>1162.7</ele>
        <time>2023-04-06T11:56:52Z</time>
      </trkpt>
      <trkpt lat="44.31008" lon="5.58491">
        <ele>1163.3</ele>
        <time>2023-04-06T11:56:53Z</time>
      </trkpt>
      <trkpt lat="44.31008" lon="5.58489">
        <ele>1163.5</ele>
        <time>2023-04-06T11:56:54Z</time>
      </trkpt>
      <trkpt lat="44.31007" lon="5.58487">
        <ele>1163.8</ele>
        <time>2023-04-06T11:56:55Z</time>
      </trkpt>
      <trkpt lat="44.31007" lon="5.58485">
        <ele>1164.1</ele>
        <time>2023-04-06T11:56:56Z</time>
      </trkpt>
      <trkpt lat="44.31008" lon="5.5848">
        <ele>1164.6</ele>
        <time>2023-04-06T11:56:57Z</time>
      </trkpt>
      <trkpt lat="44.31008" lon="5.58478">
        <ele>1164.8</ele>
        <time>2023-04-06T11:56:58Z</time>
      </trkpt>
      <trkpt lat="44.31009" lon="5.58474">
        <ele>1165.3</ele>
        <time>2023-04-06T11:56:59Z</time>
      </trkpt>
      <trkpt lat="44.31009" lon="5.58472">
        <ele>1165.5</ele>
        <time>2023-04-06T11:57:00Z</time>
      </trkpt>
      <trkpt lat="44.3101" lon="5.58467">
        <ele>1165.9</ele>
        <time>2023-04-06T11:57:01Z</time>
      </trkpt>
      <trkpt lat="44.3101" lon="5.58466">
        <ele>1166</ele>
        <time>2023-04-06T11:57:02Z</time>
      </trkpt>
      <trkpt lat="44.31011" lon="5.58462">
        <ele>1166.2</ele>
        <time>2023-04-06T11:57:03Z</time>
      </trkpt>
      <trkpt lat="44.31011" lon="5.58461">
        <ele>1166.3</ele>
        <time>2023-04-06T11:57:04Z</time>
      </trkpt>
      <trkpt lat="44.31012" lon="5.58458">
        <ele>1166.4</ele>
        <time>2023-04-06T11:57:05Z</time>
      </trkpt>
      <trkpt lat="44.31012" lon="5.58457">
        <ele>1166.4</ele>
        <time>2023-04-06T11:57:06Z</time>
      </trkpt>
      <trkpt lat="44.31013" lon="5.58456">
        <ele>1166.4</ele>
        <time>2023-04-06T11:57:07Z</time>
      </trkpt>
      <trkpt lat="44.31013" lon="5.58455">
        <ele>1166.5</ele>
        <time>2023-04-06T11:57:08Z</time>
      </trkpt>
      <trkpt lat="44.31014" lon="5.58448">
        <ele>1166.6</ele>
        <time>2023-04-06T11:57:10Z</time>
      </trkpt>
      <trkpt lat="44.31014" lon="5.58445">
        <ele>1166.6</ele>
        <time>2023-04-06T11:57:11Z</time>
      </trkpt>
      <trkpt lat="44.31014" lon="5.58445">
        <ele>1166.6</ele>
        <time>2023-04-06T11:57:12Z</time>
      </trkpt>
      <trkpt lat="44.31014" lon="5.58444">
        <ele>1166.6</ele>
        <time>2023-04-06T11:57:13Z</time>
      </trkpt>
      <trkpt lat="44.31013" lon="5.58441">
        <ele>1166.7</ele>
        <time>2023-04-06T11:57:14Z</time>
      </trkpt>
      <trkpt lat="44.31013" lon="5.58436">
        <ele>1166.7</ele>
        <time>2023-04-06T11:57:15Z</time>
      </trkpt>
      <trkpt lat="44.31013" lon="5.58434">
        <ele>1166.7</ele>
        <time>2023-04-06T11:57:16Z</time>
      </trkpt>
      <trkpt lat="44.31013" lon="5.5843">
        <ele>1166.7</ele>
        <time>2023-04-06T11:57:17Z</time>
      </trkpt>
      <trkpt lat="44.31013" lon="5.58426">
        <ele>1166.7</ele>
        <time>2023-04-06T11:57:18Z</time>
      </trkpt>
      <trkpt lat="44.31013" lon="5.58421">
        <ele>1166.6</ele>
        <time>2023-04-06T11:57:19Z</time>
      </trkpt>
      <trkpt lat="44.31014" lon="5.5842">
        <ele>1166.6</ele>
        <time>2023-04-06T11:57:20Z</time>
      </trkpt>
      <trkpt lat="44.31014" lon="5.58415">
        <ele>1166.5</ele>
        <time>2023-04-06T11:57:21Z</time>
      </trkpt>
      <trkpt lat="44.31014" lon="5.58414">
        <ele>1166.5</ele>
        <time>2023-04-06T11:57:22Z</time>
      </trkpt>
      <trkpt lat="44.31014" lon="5.58409">
        <ele>1166.4</ele>
        <time>2023-04-06T11:57:23Z</time>
      </trkpt>
      <trkpt lat="44.31014" lon="5.58407">
        <ele>1166.3</ele>
        <time>2023-04-06T11:57:24Z</time>
      </trkpt>
      <trkpt lat="44.31015" lon="5.58402">
        <ele>1166.2</ele>
        <time>2023-04-06T11:57:25Z</time>
      </trkpt>
      <trkpt lat="44.31015" lon="5.584">
        <ele>1166.2</ele>
        <time>2023-04-06T11:57:26Z</time>
      </trkpt>
      <trkpt lat="44.31016" lon="5.58396">
        <ele>1166.1</ele>
        <time>2023-04-06T11:57:27Z</time>
      </trkpt>
      <trkpt lat="44.31016" lon="5.58395">
        <ele>1166.1</ele>
        <time>2023-04-06T11:57:28Z</time>
      </trkpt>
      <trkpt lat="44.31017" lon="5.5839">
        <ele>1166</ele>
        <time>2023-04-06T11:57:29Z</time>
      </trkpt>
      <trkpt lat="44.31017" lon="5.58388">
        <ele>1166</ele>
        <time>2023-04-06T11:57:30Z</time>
      </trkpt>
      <trkpt lat="44.31017" lon="5.58384">
        <ele>1165.9</ele>
        <time>2023-04-06T11:57:31Z</time>
      </trkpt>
      <trkpt lat="44.31017" lon="5.58382">
        <ele>1165.8</ele>
        <time>2023-04-06T11:57:32Z</time>
      </trkpt>
      <trkpt lat="44.31018" lon="5.58379">
        <ele>1165.7</ele>
        <time>2023-04-06T11:57:33Z</time>
      </trkpt>
      <trkpt lat="44.31019" lon="5.58375">
        <ele>1165.6</ele>
        <time>2023-04-06T11:57:34Z</time>
      </trkpt>
      <trkpt lat="44.31019" lon="5.58371">
        <ele>1165.5</ele>
        <time>2023-04-06T11:57:35Z</time>
      </trkpt>
      <trkpt lat="44.3102" lon="5.58367">
        <ele>1165.4</ele>
        <time>2023-04-06T11:57:36Z</time>
      </trkpt>
      <trkpt lat="44.31021" lon="5.58362">
        <ele>1165.3</ele>
        <time>2023-04-06T11:57:37Z</time>
      </trkpt>
      <trkpt lat="44.31023" lon="5.58359">
        <ele>1165.2</ele>
        <time>2023-04-06T11:57:38Z</time>
      </trkpt>
      <trkpt lat="44.31025" lon="5.58355">
        <ele>1165</ele>
        <time>2023-04-06T11:57:39Z</time>
      </trkpt>
      <trkpt lat="44.31025" lon="5.58353">
        <ele>1165</ele>
        <time>2023-04-06T11:57:40Z</time>
      </trkpt>
      <trkpt lat="44.31027" lon="5.58349">
        <ele>1164.9</ele>
        <time>2023-04-06T11:57:41Z</time>
      </trkpt>
      <trkpt lat="44.31027" lon="5.58347">
        <ele>1164.8</ele>
        <time>2023-04-06T11:57:42Z</time>
      </trkpt>
      <trkpt lat="44.31029" lon="5.58343">
        <ele>1164.7</ele>
        <time>2023-04-06T11:57:43Z</time>
      </trkpt>
      <trkpt lat="44.31029" lon="5.58341">
        <ele>1164.7</ele>
        <time>2023-04-06T11:57:44Z</time>
      </trkpt>
      <trkpt lat="44.31031" lon="5.58337">
        <ele>1164.6</ele>
        <time>2023-04-06T11:57:45Z</time>
      </trkpt>
      <trkpt lat="44.31032" lon="5.58336">
        <ele>1164.5</ele>
        <time>2023-04-06T11:57:46Z</time>
      </trkpt>
      <trkpt lat="44.31034" lon="5.58332">
        <ele>1164.3</ele>
        <time>2023-04-06T11:57:47Z</time>
      </trkpt>
      <trkpt lat="44.31034" lon="5.5833">
        <ele>1164.2</ele>
        <time>2023-04-06T11:57:48Z</time>
      </trkpt>
      <trkpt lat="44.31036" lon="5.58325">
        <ele>1164</ele>
        <time>2023-04-06T11:57:49Z</time>
      </trkpt>
      <trkpt lat="44.31037" lon="5.58324">
        <ele>1163.9</ele>
        <time>2023-04-06T11:57:50Z</time>
      </trkpt>
      <trkpt lat="44.31038" lon="5.58319">
        <ele>1163.7</ele>
        <time>2023-04-06T11:57:51Z</time>
      </trkpt>
      <trkpt lat="44.31038" lon="5.58317">
        <ele>1163.6</ele>
        <time>2023-04-06T11:57:52Z</time>
      </trkpt>
      <trkpt lat="44.31037" lon="5.58315">
        <ele>1163.6</ele>
        <time>2023-04-06T11:57:53Z</time>
      </trkpt>
      <trkpt lat="44.31036" lon="5.58314">
        <ele>1163.5</ele>
        <time>2023-04-06T11:57:54Z</time>
      </trkpt>
      <trkpt lat="44.31036" lon="5.58312">
        <ele>1163.5</ele>
        <time>2023-04-06T11:57:55Z</time>
      </trkpt>
      <trkpt lat="44.31035" lon="5.58309">
        <ele>1163.4</ele>
        <time>2023-04-06T11:57:56Z</time>
      </trkpt>
      <trkpt lat="44.31034" lon="5.58305">
        <ele>1163.4</ele>
        <time>2023-04-06T11:57:57Z</time>
      </trkpt>
      <trkpt lat="44.31034" lon="5.58301">
        <ele>1163.3</ele>
        <time>2023-04-06T11:57:58Z</time>
      </trkpt>
      <trkpt lat="44.31034" lon="5.58296">
        <ele>1163.3</ele>
        <time>2023-04-06T11:57:59Z</time>
      </trkpt>
      <trkpt lat="44.31033" lon="5.58292">
        <ele>1163.4</ele>
        <time>2023-04-06T11:58:00Z</time>
      </trkpt>
      <trkpt lat="44.31033" lon="5.58287">
        <ele>1163.5</ele>
        <time>2023-04-06T11:58:01Z</time>
      </trkpt>
      <trkpt lat="44.31033" lon="5.58283">
        <ele>1163.6</ele>
        <time>2023-04-06T11:58:02Z</time>
      </trkpt>
      <trkpt lat="44.31033" lon="5.58278">
        <ele>1163.8</ele>
        <time>2023-04-06T11:58:03Z</time>
      </trkpt>
      <trkpt lat="44.31033" lon="5.58273">
        <ele>1164</ele>
        <time>2023-04-06T11:58:04Z</time>
      </trkpt>
      <trkpt lat="44.31033" lon="5.58268">
        <ele>1164.1</ele>
        <time>2023-04-06T11:58:05Z</time>
      </trkpt>
      <trkpt lat="44.31032" lon="5.58263">
        <ele>1164.1</ele>
        <time>2023-04-06T11:58:06Z</time>
      </trkpt>
      <trkpt lat="44.31032" lon="5.58261">
        <ele>1164.1</ele>
        <time>2023-04-06T11:58:07Z</time>
      </trkpt>
      <trkpt lat="44.31032" lon="5.58256">
        <ele>1164</ele>
        <time>2023-04-06T11:58:08Z</time>
      </trkpt>
      <trkpt lat="44.31032" lon="5.58255">
        <ele>1164</ele>
        <time>2023-04-06T11:58:09Z</time>
      </trkpt>
      <trkpt lat="44.31033" lon="5.58249">
        <ele>1163.8</ele>
        <time>2023-04-06T11:58:10Z</time>
      </trkpt>
      <trkpt lat="44.31033" lon="5.58248">
        <ele>1163.7</ele>
        <time>2023-04-06T11:58:11Z</time>
      </trkpt>
      <trkpt lat="44.31033" lon="5.58243">
        <ele>1163.6</ele>
        <time>2023-04-06T11:58:12Z</time>
      </trkpt>
      <trkpt lat="44.31033" lon="5.58241">
        <ele>1163.5</ele>
        <time>2023-04-06T11:58:13Z</time>
      </trkpt>
      <trkpt lat="44.31033" lon="5.58236">
        <ele>1163.3</ele>
        <time>2023-04-06T11:58:14Z</time>
      </trkpt>
      <trkpt lat="44.31033" lon="5.58234">
        <ele>1163.3</ele>
        <time>2023-04-06T11:58:15Z</time>
      </trkpt>
      <trkpt lat="44.31033" lon="5.5823">
        <ele>1163.1</ele>
        <time>2023-04-06T11:58:16Z</time>
      </trkpt>
      <trkpt lat="44.31032" lon="5.58226">
        <ele>1163</ele>
        <time>2023-04-06T11:58:17Z</time>
      </trkpt>
      <trkpt lat="44.31032" lon="5.58222">
        <ele>1162.9</ele>
        <time>2023-04-06T11:58:18Z</time>
      </trkpt>
      <trkpt lat="44.31032" lon="5.58218">
        <ele>1162.8</ele>
        <time>2023-04-06T11:58:19Z</time>
      </trkpt>
      <trkpt lat="44.31033" lon="5.58214">
        <ele>1162.8</ele>
        <time>2023-04-06T11:58:20Z</time>
      </trkpt>
      <trkpt lat="44.31033" lon="5.58208">
        <ele>1163</ele>
        <time>2023-04-06T11:58:21Z</time>
      </trkpt>
      <trkpt lat="44.31033" lon="5.58206">
        <ele>1163</ele>
        <time>2023-04-06T11:58:22Z</time>
      </trkpt>
      <trkpt lat="44.31032" lon="5.58201">
        <ele>1163.3</ele>
        <time>2023-04-06T11:58:23Z</time>
      </trkpt>
      <trkpt lat="44.31031" lon="5.58197">
        <ele>1163.6</ele>
        <time>2023-04-06T11:58:24Z</time>
      </trkpt>
      <trkpt lat="44.3103" lon="5.58192">
        <ele>1164</ele>
        <time>2023-04-06T11:58:25Z</time>
      </trkpt>
      <trkpt lat="44.31029" lon="5.58187">
        <ele>1164.5</ele>
        <time>2023-04-06T11:58:26Z</time>
      </trkpt>
      <trkpt lat="44.31029" lon="5.5818">
        <ele>1165</ele>
        <time>2023-04-06T11:58:27Z</time>
      </trkpt>
      <trkpt lat="44.31029" lon="5.58173">
        <ele>1165.5</ele>
        <time>2023-04-06T11:58:28Z</time>
      </trkpt>
      <trkpt lat="44.31029" lon="5.58166">
        <ele>1165.9</ele>
        <time>2023-04-06T11:58:29Z</time>
      </trkpt>
      <trkpt lat="44.31028" lon="5.5816">
        <ele>1166.1</ele>
        <time>2023-04-06T11:58:30Z</time>
      </trkpt>
      <trkpt lat="44.31026" lon="5.58156">
        <ele>1166.1</ele>
        <time>2023-04-06T11:58:31Z</time>
      </trkpt>
      <trkpt lat="44.31025" lon="5.58153">
        <ele>1166.1</ele>
        <time>2023-04-06T11:58:32Z</time>
      </trkpt>
      <trkpt lat="44.31025" lon="5.58148">
        <ele>1166.2</ele>
        <time>2023-04-06T11:58:33Z</time>
      </trkpt>
      <trkpt lat="44.31025" lon="5.58144">
        <ele>1166.2</ele>
        <time>2023-04-06T11:58:34Z</time>
      </trkpt>
      <trkpt lat="44.31023" lon="5.58139">
        <ele>1166.1</ele>
        <time>2023-04-06T11:58:35Z</time>
      </trkpt>
      <trkpt lat="44.31022" lon="5.58133">
        <ele>1166.1</ele>
        <time>2023-04-06T11:58:36Z</time>
      </trkpt>
      <trkpt lat="44.31022" lon="5.58128">
        <ele>1166.1</ele>
        <time>2023-04-06T11:58:37Z</time>
      </trkpt>
      <trkpt lat="44.31022" lon="5.58122">
        <ele>1166</ele>
        <time>2023-04-06T11:58:38Z</time>
      </trkpt>
      <trkpt lat="44.31022" lon="5.58116">
        <ele>1165.9</ele>
        <time>2023-04-06T11:58:39Z</time>
      </trkpt>
      <trkpt lat="44.31022" lon="5.58111">
        <ele>1165.9</ele>
        <time>2023-04-06T11:58:40Z</time>
      </trkpt>
      <trkpt lat="44.31022" lon="5.58106">
        <ele>1165.7</ele>
        <time>2023-04-06T11:58:41Z</time>
      </trkpt>
      <trkpt lat="44.31022" lon="5.58101">
        <ele>1165.6</ele>
        <time>2023-04-06T11:58:42Z</time>
      </trkpt>
      <trkpt lat="44.31022" lon="5.58096">
        <ele>1165.4</ele>
        <time>2023-04-06T11:58:43Z</time>
      </trkpt>
      <trkpt lat="44.31023" lon="5.58092">
        <ele>1165.1</ele>
        <time>2023-04-06T11:58:44Z</time>
      </trkpt>
      <trkpt lat="44.31023" lon="5.58087">
        <ele>1164.9</ele>
        <time>2023-04-06T11:58:45Z</time>
      </trkpt>
      <trkpt lat="44.31023" lon="5.58085">
        <ele>1164.8</ele>
        <time>2023-04-06T11:58:46Z</time>
      </trkpt>
      <trkpt lat="44.31024" lon="5.58081">
        <ele>1164.6</ele>
        <time>2023-04-06T11:58:47Z</time>
      </trkpt>
      <trkpt lat="44.31026" lon="5.58076">
        <ele>1164.4</ele>
        <time>2023-04-06T11:58:48Z</time>
      </trkpt>
      <trkpt lat="44.31026" lon="5.58071">
        <ele>1164.1</ele>
        <time>2023-04-06T11:58:49Z</time>
      </trkpt>
      <trkpt lat="44.31027" lon="5.58066">
        <ele>1163.8</ele>
        <time>2023-04-06T11:58:50Z</time>
      </trkpt>
      <trkpt lat="44.31026" lon="5.58062">
        <ele>1163.5</ele>
        <time>2023-04-06T11:58:51Z</time>
      </trkpt>
      <trkpt lat="44.31026" lon="5.58057">
        <ele>1163.2</ele>
        <time>2023-04-06T11:58:52Z</time>
      </trkpt>
      <trkpt lat="44.31026" lon="5.58052">
        <ele>1162.7</ele>
        <time>2023-04-06T11:58:53Z</time>
      </trkpt>
      <trkpt lat="44.31026" lon="5.58048">
        <ele>1162.3</ele>
        <time>2023-04-06T11:58:54Z</time>
      </trkpt>
      <trkpt lat="44.31025" lon="5.58043">
        <ele>1161.8</ele>
        <time>2023-04-06T11:58:55Z</time>
      </trkpt>
      <trkpt lat="44.31025" lon="5.58038">
        <ele>1161.4</ele>
        <time>2023-04-06T11:58:56Z</time>
      </trkpt>
      <trkpt lat="44.31025" lon="5.58034">
        <ele>1161.2</ele>
        <time>2023-04-06T11:58:57Z</time>
      </trkpt>
      <trkpt lat="44.31024" lon="5.58029">
        <ele>1160.8</ele>
        <time>2023-04-06T11:58:58Z</time>
      </trkpt>
      <trkpt lat="44.31024" lon="5.58027">
        <ele>1160.7</ele>
        <time>2023-04-06T11:58:59Z</time>
      </trkpt>
      <trkpt lat="44.31023" lon="5.58023">
        <ele>1160.5</ele>
        <time>2023-04-06T11:59:00Z</time>
      </trkpt>
      <trkpt lat="44.31022" lon="5.58019">
        <ele>1160.4</ele>
        <time>2023-04-06T11:59:01Z</time>
      </trkpt>
      <trkpt lat="44.3102" lon="5.58016">
        <ele>1160.3</ele>
        <time>2023-04-06T11:59:02Z</time>
      </trkpt>
      <trkpt lat="44.31018" lon="5.58012">
        <ele>1160.2</ele>
        <time>2023-04-06T11:59:03Z</time>
      </trkpt>
      <trkpt lat="44.31016" lon="5.58009">
        <ele>1160.2</ele>
        <time>2023-04-06T11:59:04Z</time>
      </trkpt>
      <trkpt lat="44.31013" lon="5.58005">
        <ele>1160.3</ele>
        <time>2023-04-06T11:59:05Z</time>
      </trkpt>
      <trkpt lat="44.31009" lon="5.57997">
        <ele>1160.7</ele>
        <time>2023-04-06T11:59:07Z</time>
      </trkpt>
      <trkpt lat="44.31008" lon="5.57993">
        <ele>1161</ele>
        <time>2023-04-06T11:59:08Z</time>
      </trkpt>
      <trkpt lat="44.31006" lon="5.57988">
        <ele>1161.4</ele>
        <time>2023-04-06T11:59:09Z</time>
      </trkpt>
      <trkpt lat="44.31006" lon="5.57987">
        <ele>1161.6</ele>
        <time>2023-04-06T11:59:10Z</time>
      </trkpt>
      <trkpt lat="44.31005" lon="5.57984">
        <ele>1161.8</ele>
        <time>2023-04-06T11:59:11Z</time>
      </trkpt>
      <trkpt lat="44.31005" lon="5.57979">
        <ele>1162.3</ele>
        <time>2023-04-06T11:59:13Z</time>
      </trkpt>
      <trkpt lat="44.31004" lon="5.57976">
        <ele>1162.6</ele>
        <time>2023-04-06T11:59:14Z</time>
      </trkpt>
      <trkpt lat="44.31003" lon="5.57972">
        <ele>1163</ele>
        <time>2023-04-06T11:59:15Z</time>
      </trkpt>
      <trkpt lat="44.31003" lon="5.57971">
        <ele>1163.1</ele>
        <time>2023-04-06T11:59:16Z</time>
      </trkpt>
      <trkpt lat="44.31003" lon="5.57967">
        <ele>1163.5</ele>
        <time>2023-04-06T11:59:17Z</time>
      </trkpt>
      <trkpt lat="44.31003" lon="5.57965">
        <ele>1163.7</ele>
        <time>2023-04-06T11:59:18Z</time>
      </trkpt>
      <trkpt lat="44.31004" lon="5.57964">
        <ele>1163.9</ele>
        <time>2023-04-06T11:59:19Z</time>
      </trkpt>
      <trkpt lat="44.31004" lon="5.57962">
        <ele>1164</ele>
        <time>2023-04-06T11:59:20Z</time>
      </trkpt>
      <trkpt lat="44.31004" lon="5.57958">
        <ele>1164.4</ele>
        <time>2023-04-06T11:59:21Z</time>
      </trkpt>
      <trkpt lat="44.31005" lon="5.57955">
        <ele>1164.8</ele>
        <time>2023-04-06T11:59:22Z</time>
      </trkpt>
      <trkpt lat="44.31005" lon="5.57949">
        <ele>1165.3</ele>
        <time>2023-04-06T11:59:24Z</time>
      </trkpt>
      <trkpt lat="44.31006" lon="5.57945">
        <ele>1165.6</ele>
        <time>2023-04-06T11:59:25Z</time>
      </trkpt>
      <trkpt lat="44.31005" lon="5.57941">
        <ele>1165.9</ele>
        <time>2023-04-06T11:59:26Z</time>
      </trkpt>
      <trkpt lat="44.31006" lon="5.57936">
        <ele>1166.3</ele>
        <time>2023-04-06T11:59:27Z</time>
      </trkpt>
      <trkpt lat="44.31006" lon="5.57932">
        <ele>1166.6</ele>
        <time>2023-04-06T11:59:28Z</time>
      </trkpt>
      <trkpt lat="44.31006" lon="5.57928">
        <ele>1167</ele>
        <time>2023-04-06T11:59:29Z</time>
      </trkpt>
      <trkpt lat="44.31006" lon="5.57924">
        <ele>1167.3</ele>
        <time>2023-04-06T11:59:30Z</time>
      </trkpt>
      <trkpt lat="44.31007" lon="5.5792">
        <ele>1167.7</ele>
        <time>2023-04-06T11:59:31Z</time>
      </trkpt>
      <trkpt lat="44.31008" lon="5.57915">
        <ele>1168.2</ele>
        <time>2023-04-06T11:59:32Z</time>
      </trkpt>
      <trkpt lat="44.31009" lon="5.57911">
        <ele>1168.6</ele>
        <time>2023-04-06T11:59:33Z</time>
      </trkpt>
      <trkpt lat="44.31011" lon="5.57901">
        <ele>1169.8</ele>
        <time>2023-04-06T11:59:35Z</time>
      </trkpt>
      <trkpt lat="44.31012" lon="5.57896">
        <ele>1170.4</ele>
        <time>2023-04-06T11:59:36Z</time>
      </trkpt>
      <trkpt lat="44.31012" lon="5.57891">
        <ele>1170.9</ele>
        <time>2023-04-06T11:59:37Z</time>
      </trkpt>
      <trkpt lat="44.31013" lon="5.57886">
        <ele>1171.4</ele>
        <time>2023-04-06T11:59:38Z</time>
      </trkpt>
      <trkpt lat="44.31013" lon="5.57882">
        <ele>1171.8</ele>
        <time>2023-04-06T11:59:39Z</time>
      </trkpt>
      <trkpt lat="44.31012" lon="5.57874">
        <ele>1172.4</ele>
        <time>2023-04-06T11:59:41Z</time>
      </trkpt>
      <trkpt lat="44.31012" lon="5.57871">
        <ele>1172.7</ele>
        <time>2023-04-06T11:59:42Z</time>
      </trkpt>
      <trkpt lat="44.31012" lon="5.57865">
        <ele>1173.1</ele>
        <time>2023-04-06T11:59:43Z</time>
      </trkpt>
      <trkpt lat="44.31012" lon="5.57863">
        <ele>1173.2</ele>
        <time>2023-04-06T11:59:44Z</time>
      </trkpt>
      <trkpt lat="44.31012" lon="5.57859">
        <ele>1173.5</ele>
        <time>2023-04-06T11:59:45Z</time>
      </trkpt>
      <trkpt lat="44.31012" lon="5.57854">
        <ele>1173.9</ele>
        <time>2023-04-06T11:59:46Z</time>
      </trkpt>
      <trkpt lat="44.31011" lon="5.57848">
        <ele>1174.2</ele>
        <time>2023-04-06T11:59:47Z</time>
      </trkpt>
      <trkpt lat="44.31011" lon="5.57844">
        <ele>1174.4</ele>
        <time>2023-04-06T11:59:48Z</time>
      </trkpt>
      <trkpt lat="44.31011" lon="5.57839">
        <ele>1174.7</ele>
        <time>2023-04-06T11:59:49Z</time>
      </trkpt>
      <trkpt lat="44.31012" lon="5.57833">
        <ele>1175</ele>
        <time>2023-04-06T11:59:50Z</time>
      </trkpt>
      <trkpt lat="44.31014" lon="5.57821">
        <ele>1175.7</ele>
        <time>2023-04-06T11:59:52Z</time>
      </trkpt>
      <trkpt lat="44.31015" lon="5.57815">
        <ele>1176.1</ele>
        <time>2023-04-06T11:59:53Z</time>
      </trkpt>
      <trkpt lat="44.31017" lon="5.57809">
        <ele>1176.6</ele>
        <time>2023-04-06T11:59:54Z</time>
      </trkpt>
      <trkpt lat="44.31019" lon="5.57802">
        <ele>1177.1</ele>
        <time>2023-04-06T11:59:55Z</time>
      </trkpt>
      <trkpt lat="44.31022" lon="5.57791">
        <ele>1177.6</ele>
        <time>2023-04-06T11:59:56Z</time>
      </trkpt>
      <trkpt lat="44.31025" lon="5.5778">
        <ele>1178</ele>
        <time>2023-04-06T11:59:57Z</time>
      </trkpt>
      <trkpt lat="44.31029" lon="5.57773">
        <ele>1178</ele>
        <time>2023-04-06T11:59:58Z</time>
      </trkpt>
      <trkpt lat="44.31032" lon="5.57767">
        <ele>1177.9</ele>
        <time>2023-04-06T11:59:59Z</time>
      </trkpt>
      <trkpt lat="44.31034" lon="5.57761">
        <ele>1177.6</ele>
        <time>2023-04-06T12:00:00Z</time>
      </trkpt>
      <trkpt lat="44.31036" lon="5.57756">
        <ele>1177.2</ele>
        <time>2023-04-06T12:00:01Z</time>
      </trkpt>
      <trkpt lat="44.3104" lon="5.57743">
        <ele>1176.5</ele>
        <time>2023-04-06T12:00:03Z</time>
      </trkpt>
      <trkpt lat="44.31043" lon="5.57734">
        <ele>1176.1</ele>
        <time>2023-04-06T12:00:04Z</time>
      </trkpt>
      <trkpt lat="44.31046" lon="5.57728">
        <ele>1175.7</ele>
        <time>2023-04-06T12:00:05Z</time>
      </trkpt>
      <trkpt lat="44.31049" lon="5.57721">
        <ele>1175.2</ele>
        <time>2023-04-06T12:00:06Z</time>
      </trkpt>
      <trkpt lat="44.3105" lon="5.57713">
        <ele>1174.7</ele>
        <time>2023-04-06T12:00:07Z</time>
      </trkpt>
      <trkpt lat="44.31052" lon="5.57705">
        <ele>1174.4</ele>
        <time>2023-04-06T12:00:08Z</time>
      </trkpt>
      <trkpt lat="44.31054" lon="5.57697">
        <ele>1174.2</ele>
        <time>2023-04-06T12:00:09Z</time>
      </trkpt>
      <trkpt lat="44.31056" lon="5.57689">
        <ele>1174.3</ele>
        <time>2023-04-06T12:00:10Z</time>
      </trkpt>
      <trkpt lat="44.31058" lon="5.57682">
        <ele>1174.4</ele>
        <time>2023-04-06T12:00:11Z</time>
      </trkpt>
      <trkpt lat="44.3106" lon="5.57675">
        <ele>1174.6</ele>
        <time>2023-04-06T12:00:12Z</time>
      </trkpt>
      <trkpt lat="44.31064" lon="5.57661">
        <ele>1174.6</ele>
        <time>2023-04-06T12:00:14Z</time>
      </trkpt>
      <trkpt lat="44.31067" lon="5.57654">
        <ele>1174.6</ele>
        <time>2023-04-06T12:00:15Z</time>
      </trkpt>
      <trkpt lat="44.3107" lon="5.57648">
        <ele>1174.5</ele>
        <time>2023-04-06T12:00:16Z</time>
      </trkpt>
      <trkpt lat="44.31073" lon="5.57642">
        <ele>1174.4</ele>
        <time>2023-04-06T12:00:17Z</time>
      </trkpt>
      <trkpt lat="44.31077" lon="5.57632">
        <ele>1174.2</ele>
        <time>2023-04-06T12:00:18Z</time>
      </trkpt>
      <trkpt lat="44.31081" lon="5.57624">
        <ele>1173.8</ele>
        <time>2023-04-06T12:00:19Z</time>
      </trkpt>
      <trkpt lat="44.31084" lon="5.57618">
        <ele>1173.3</ele>
        <time>2023-04-06T12:00:20Z</time>
      </trkpt>
      <trkpt lat="44.31086" lon="5.57614">
        <ele>1172.9</ele>
        <time>2023-04-06T12:00:21Z</time>
      </trkpt>
      <trkpt lat="44.31087" lon="5.57612">
        <ele>1172.7</ele>
        <time>2023-04-06T12:00:22Z</time>
      </trkpt>
      <trkpt lat="44.31087" lon="5.5761">
        <ele>1172.6</ele>
        <time>2023-04-06T12:00:23Z</time>
      </trkpt>
      <trkpt lat="44.31088" lon="5.57608">
        <ele>1172.4</ele>
        <time>2023-04-06T12:00:25Z</time>
      </trkpt>
      <trkpt lat="44.31089" lon="5.57607">
        <ele>1172.3</ele>
        <time>2023-04-06T12:00:26Z</time>
      </trkpt>
      <trkpt lat="44.31091" lon="5.57606">
        <ele>1172</ele>
        <time>2023-04-06T12:00:27Z</time>
      </trkpt>
      <trkpt lat="44.31092" lon="5.57605">
        <ele>1171.9</ele>
        <time>2023-04-06T12:00:28Z</time>
      </trkpt>
      <trkpt lat="44.31092" lon="5.57605">
        <ele>1171.9</ele>
        <time>2023-04-06T12:00:29Z</time>
      </trkpt>
      <trkpt lat="44.31093" lon="5.57605">
        <ele>1171.8</ele>
        <time>2023-04-06T12:00:30Z</time>
      </trkpt>
      <trkpt lat="44.31096" lon="5.57604">
        <ele>1171.9</ele>
        <time>2023-04-06T12:00:31Z</time>
      </trkpt>
      <trkpt lat="44.31097" lon="5.57604">
        <ele>1172</ele>
        <time>2023-04-06T12:00:32Z</time>
      </trkpt>
      <trkpt lat="44.31099" lon="5.57603">
        <ele>1172</ele>
        <time>2023-04-06T12:00:33Z</time>
      </trkpt>
      <trkpt lat="44.31099" lon="5.57603">
        <ele>1172.1</ele>
        <time>2023-04-06T12:00:34Z</time>
      </trkpt>
      <trkpt lat="44.311" lon="5.57603">
        <ele>1172.1</ele>
        <time>2023-04-06T12:00:36Z</time>
      </trkpt>
      <trkpt lat="44.311" lon="5.57604">
        <ele>1172.1</ele>
        <time>2023-04-06T12:00:37Z</time>
      </trkpt>
      <trkpt lat="44.31101" lon="5.57604">
        <ele>1172.1</ele>
        <time>2023-04-06T12:00:38Z</time>
      </trkpt>
      <trkpt lat="44.31102" lon="5.57603">
        <ele>1172.1</ele>
        <time>2023-04-06T12:00:39Z</time>
      </trkpt>
      <trkpt lat="44.31102" lon="5.57602">
        <ele>1172.1</ele>
        <time>2023-04-06T12:00:40Z</time>
      </trkpt>
      <trkpt lat="44.31103" lon="5.57601">
        <ele>1172.1</ele>
        <time>2023-04-06T12:00:41Z</time>
      </trkpt>
      <trkpt lat="44.31104" lon="5.576">
        <ele>1172.1</ele>
        <time>2023-04-06T12:00:42Z</time>
      </trkpt>
      <trkpt lat="44.31105" lon="5.57599">
        <ele>1172.1</ele>
        <time>2023-04-06T12:00:43Z</time>
      </trkpt>
      <trkpt lat="44.31105" lon="5.57599">
        <ele>1172.1</ele>
        <time>2023-04-06T12:00:44Z</time>
      </trkpt>
      <trkpt lat="44.31105" lon="5.57599">
        <ele>1172.1</ele>
        <time>2023-04-06T12:00:45Z</time>
      </trkpt>
      <trkpt lat="44.31105" lon="5.57599">
        <ele>1172.1</ele>
        <time>2023-04-06T12:00:46Z</time>
      </trkpt>
      <trkpt lat="44.31105" lon="5.57599">
        <ele>1172.1</ele>
        <time>2023-04-06T12:00:47Z</time>
      </trkpt>
      <trkpt lat="44.31105" lon="5.57599">
        <ele>1172.1</ele>
        <time>2023-04-06T12:00:48Z</time>
      </trkpt>
      <trkpt lat="44.31105" lon="5.57599">
        <ele>1172.1</ele>
        <time>2023-04-06T12:00:49Z</time>
      </trkpt>
      <trkpt lat="44.31105" lon="5.57599">
        <ele>1172.1</ele>
        <time>2023-04-06T12:00:50Z</time>
      </trkpt>
      <trkpt lat="44.31105" lon="5.57599">
        <ele>1172.1</ele>
        <time>2023-04-06T12:00:51Z</time>
      </trkpt>
      <trkpt lat="44.31105" lon="5.57599">
        <ele>1172.1</ele>
        <time>2023-04-06T12:00:52Z</time>
      </trkpt>
      <trkpt lat="44.31105" lon="5.57599">
        <ele>1172.1</ele>
        <time>2023-04-06T12:00:53Z</time>
      </trkpt>
      <trkpt lat="44.31105" lon="5.57599">
        <ele>1172.1</ele>
        <time>2023-04-06T12:00:54Z</time>
      </trkpt>
      <trkpt lat="44.31104" lon="5.57591">
        <ele>1171.9</ele>
        <time>2023-04-06T12:01:30Z</time>
      </trkpt>
      <trkpt lat="44.31104" lon="5.57591">
        <ele>1171.9</ele>
        <time>2023-04-06T12:01:31Z</time>
      </trkpt>
      <trkpt lat="44.31104" lon="5.57592">
        <ele>1171.9</ele>
        <time>2023-04-06T12:01:32Z</time>
      </trkpt>
      <trkpt lat="44.31104" lon="5.57592">
        <ele>1171.9</ele>
        <time>2023-04-06T12:01:33Z</time>
      </trkpt>
      <trkpt lat="44.31104" lon="5.57592">
        <ele>1171.9</ele>
        <time>2023-04-06T12:01:34Z</time>
      </trkpt>
      <trkpt lat="44.31104" lon="5.57591">
        <ele>1171.8</ele>
        <time>2023-04-06T12:01:35Z</time>
      </trkpt>
      <trkpt lat="44.31104" lon="5.57591">
        <ele>1171.8</ele>
        <time>2023-04-06T12:01:37Z</time>
      </trkpt>
      <trkpt lat="44.31104" lon="5.5759">
        <ele>1171.8</ele>
        <time>2023-04-06T12:01:38Z</time>
      </trkpt>
      <trkpt lat="44.31104" lon="5.5759">
        <ele>1171.8</ele>
        <time>2023-04-06T12:01:39Z</time>
      </trkpt>
      <trkpt lat="44.31104" lon="5.5759">
        <ele>1171.8</ele>
        <time>2023-04-06T12:01:40Z</time>
      </trkpt>
      <trkpt lat="44.31104" lon="5.5759">
        <ele>1171.8</ele>
        <time>2023-04-06T12:01:41Z</time>
      </trkpt>
      <trkpt lat="44.31104" lon="5.5759">
        <ele>1171.8</ele>
        <time>2023-04-06T12:01:42Z</time>
      </trkpt>
      <trkpt lat="44.31104" lon="5.5759">
        <ele>1171.8</ele>
        <time>2023-04-06T12:01:43Z</time>
      </trkpt>
      <trkpt lat="44.31104" lon="5.5759">
        <ele>1171.8</ele>
        <time>2023-04-06T12:01:44Z</time>
      </trkpt>
      <trkpt lat="44.31104" lon="5.5759">
        <ele>1171.8</ele>
        <time>2023-04-06T12:01:45Z</time>
      </trkpt>
      <trkpt lat="44.31104" lon="5.5759">
        <ele>1171.8</ele>
        <time>2023-04-06T12:01:46Z</time>
      </trkpt>
      <trkpt lat="44.31104" lon="5.5759">
        <ele>1171.8</ele>
        <time>2023-04-06T12:01:47Z</time>
      </trkpt>
      <trkpt lat="44.31104" lon="5.5759">
        <ele>1171.8</ele>
        <time>2023-04-06T12:01:48Z</time>
      </trkpt>
      <trkpt lat="44.31104" lon="5.5759">
        <ele>1171.8</ele>
        <time>2023-04-06T12:01:49Z</time>
      </trkpt>
      <trkpt lat="44.31103" lon="5.5759">
        <ele>1171.8</ele>
        <time>2023-04-06T12:01:50Z</time>
      </trkpt>
      <trkpt lat="44.31104" lon="5.5759">
        <ele>1171.8</ele>
        <time>2023-04-06T12:01:51Z</time>
      </trkpt>
      <trkpt lat="44.31104" lon="5.57591">
        <ele>1171.7</ele>
        <time>2023-04-06T12:01:52Z</time>
      </trkpt>
      <trkpt lat="44.31104" lon="5.57591">
        <ele>1171.7</ele>
        <time>2023-04-06T12:01:53Z</time>
      </trkpt>
      <trkpt lat="44.31104" lon="5.57591">
        <ele>1171.7</ele>
        <time>2023-04-06T12:01:54Z</time>
      </trkpt>
      <trkpt lat="44.31104" lon="5.57592">
        <ele>1171.7</ele>
        <time>2023-04-06T12:01:55Z</time>
      </trkpt>
      <trkpt lat="44.31105" lon="5.57592">
        <ele>1171.6</ele>
        <time>2023-04-06T12:01:56Z</time>
      </trkpt>
      <trkpt lat="44.31106" lon="5.57591">
        <ele>1171.6</ele>
        <time>2023-04-06T12:01:57Z</time>
      </trkpt>
      <trkpt lat="44.31107" lon="5.57591">
        <ele>1171.5</ele>
        <time>2023-04-06T12:01:58Z</time>
      </trkpt>
      <trkpt lat="44.31107" lon="5.57591">
        <ele>1171.4</ele>
        <time>2023-04-06T12:01:59Z</time>
      </trkpt>
      <trkpt lat="44.31107" lon="5.5759">
        <ele>1171.4</ele>
        <time>2023-04-06T12:02:00Z</time>
      </trkpt>
      <trkpt lat="44.31108" lon="5.5759">
        <ele>1171.3</ele>
        <time>2023-04-06T12:02:01Z</time>
      </trkpt>
      <trkpt lat="44.31109" lon="5.57589">
        <ele>1171.3</ele>
        <time>2023-04-06T12:02:02Z</time>
      </trkpt>
      <trkpt lat="44.31109" lon="5.57589">
        <ele>1171.2</ele>
        <time>2023-04-06T12:02:03Z</time>
      </trkpt>
      <trkpt lat="44.31109" lon="5.57589">
        <ele>1171.2</ele>
        <time>2023-04-06T12:02:04Z</time>
      </trkpt>
      <trkpt lat="44.3111" lon="5.57589">
        <ele>1171.2</ele>
        <time>2023-04-06T12:02:05Z</time>
      </trkpt>
      <trkpt lat="44.3111" lon="5.57589">
        <ele>1171.2</ele>
        <time>2023-04-06T12:02:06Z</time>
      </trkpt>
      <trkpt lat="44.31109" lon="5.57589">
        <ele>1171.2</ele>
        <time>2023-04-06T12:02:07Z</time>
      </trkpt>
      <trkpt lat="44.31109" lon="5.57589">
        <ele>1171.2</ele>
        <time>2023-04-06T12:02:08Z</time>
      </trkpt>
      <trkpt lat="44.31109" lon="5.57589">
        <ele>1171.2</ele>
        <time>2023-04-06T12:02:09Z</time>
      </trkpt>
      <trkpt lat="44.31109" lon="5.57589">
        <ele>1171.2</ele>
        <time>2023-04-06T12:02:10Z</time>
      </trkpt>
      <trkpt lat="44.31109" lon="5.57589">
        <ele>1171.2</ele>
        <time>2023-04-06T12:02:11Z</time>
      </trkpt>
      <trkpt lat="44.31109" lon="5.57589">
        <ele>1171.2</ele>
        <time>2023-04-06T12:02:12Z</time>
      </trkpt>
      <trkpt lat="44.31109" lon="5.57589">
        <ele>1171.2</ele>
        <time>2023-04-06T12:02:13Z</time>
      </trkpt>
      <trkpt lat="44.31109" lon="5.57589">
        <ele>1171.2</ele>
        <time>2023-04-06T12:02:14Z</time>
      </trkpt>
      <trkpt lat="44.31109" lon="5.57589">
        <ele>1171.2</ele>
        <time>2023-04-06T12:02:15Z</time>
      </trkpt>
      <trkpt lat="44.31108" lon="5.57585">
        <ele>1170.8</ele>
        <time>2023-04-06T12:02:48Z</time>
      </trkpt>
      <trkpt lat="44.31108" lon="5.57583">
        <ele>1170.6</ele>
        <time>2023-04-06T12:02:49Z</time>
      </trkpt>
      <trkpt lat="44.31108" lon="5.5758">
        <ele>1170.4</ele>
        <time>2023-04-06T12:02:50Z</time>
      </trkpt>
      <trkpt lat="44.31109" lon="5.57576">
        <ele>1170.1</ele>
        <time>2023-04-06T12:02:51Z</time>
      </trkpt>
      <trkpt lat="44.31109" lon="5.57575">
        <ele>1170</ele>
        <time>2023-04-06T12:02:52Z</time>
      </trkpt>
      <trkpt lat="44.31109" lon="5.57569">
        <ele>1169.6</ele>
        <time>2023-04-06T12:02:53Z</time>
      </trkpt>
      <trkpt lat="44.3111" lon="5.57567">
        <ele>1169.4</ele>
        <time>2023-04-06T12:02:54Z</time>
      </trkpt>
      <trkpt lat="44.3111" lon="5.57562">
        <ele>1169.1</ele>
        <time>2023-04-06T12:02:55Z</time>
      </trkpt>
      <trkpt lat="44.31111" lon="5.57558">
        <ele>1168.7</ele>
        <time>2023-04-06T12:02:56Z</time>
      </trkpt>
      <trkpt lat="44.31112" lon="5.57553">
        <ele>1168.3</ele>
        <time>2023-04-06T12:02:57Z</time>
      </trkpt>
      <trkpt lat="44.31112" lon="5.5755">
        <ele>1167.9</ele>
        <time>2023-04-06T12:02:58Z</time>
      </trkpt>
      <trkpt lat="44.31114" lon="5.57545">
        <ele>1167.4</ele>
        <time>2023-04-06T12:02:59Z</time>
      </trkpt>
      <trkpt lat="44.31114" lon="5.57543">
        <ele>1167.2</ele>
        <time>2023-04-06T12:03:00Z</time>
      </trkpt>
      <trkpt lat="44.31115" lon="5.57538">
        <ele>1166.7</ele>
        <time>2023-04-06T12:03:01Z</time>
      </trkpt>
      <trkpt lat="44.31116" lon="5.57534">
        <ele>1166.1</ele>
        <time>2023-04-06T12:03:02Z</time>
      </trkpt>
      <trkpt lat="44.31118" lon="5.57529">
        <ele>1165.5</ele>
        <time>2023-04-06T12:03:03Z</time>
      </trkpt>
      <trkpt lat="44.3112" lon="5.57525">
        <ele>1164.8</ele>
        <time>2023-04-06T12:03:04Z</time>
      </trkpt>
      <trkpt lat="44.31123" lon="5.57521">
        <ele>1164.1</ele>
        <time>2023-04-06T12:03:05Z</time>
      </trkpt>
      <trkpt lat="44.31126" lon="5.57517">
        <ele>1163.4</ele>
        <time>2023-04-06T12:03:06Z</time>
      </trkpt>
      <trkpt lat="44.31129" lon="5.57512">
        <ele>1162.6</ele>
        <time>2023-04-06T12:03:07Z</time>
      </trkpt>
      <trkpt lat="44.31132" lon="5.57509">
        <ele>1161.8</ele>
        <time>2023-04-06T12:03:08Z</time>
      </trkpt>
      <trkpt lat="44.31135" lon="5.57505">
        <ele>1161.1</ele>
        <time>2023-04-06T12:03:09Z</time>
      </trkpt>
      <trkpt lat="44.31138" lon="5.57501">
        <ele>1160.1</ele>
        <time>2023-04-06T12:03:10Z</time>
      </trkpt>
      <trkpt lat="44.31142" lon="5.57496">
        <ele>1159</ele>
        <time>2023-04-06T12:03:11Z</time>
      </trkpt>
      <trkpt lat="44.31145" lon="5.57492">
        <ele>1158.2</ele>
        <time>2023-04-06T12:03:12Z</time>
      </trkpt>
      <trkpt lat="44.31147" lon="5.57488">
        <ele>1157.4</ele>
        <time>2023-04-06T12:03:13Z</time>
      </trkpt>
      <trkpt lat="44.3115" lon="5.57485">
        <ele>1156.7</ele>
        <time>2023-04-06T12:03:14Z</time>
      </trkpt>
      <trkpt lat="44.31152" lon="5.5748">
        <ele>1156</ele>
        <time>2023-04-06T12:03:15Z</time>
      </trkpt>
      <trkpt lat="44.31155" lon="5.57473">
        <ele>1155.1</ele>
        <time>2023-04-06T12:03:16Z</time>
      </trkpt>
      <trkpt lat="44.31156" lon="5.57467">
        <ele>1154.3</ele>
        <time>2023-04-06T12:03:17Z</time>
      </trkpt>
      <trkpt lat="44.31158" lon="5.57462">
        <ele>1153.6</ele>
        <time>2023-04-06T12:03:18Z</time>
      </trkpt>
      <trkpt lat="44.31159" lon="5.57458">
        <ele>1153</ele>
        <time>2023-04-06T12:03:19Z</time>
      </trkpt>
      <trkpt lat="44.31161" lon="5.57453">
        <ele>1152.3</ele>
        <time>2023-04-06T12:03:20Z</time>
      </trkpt>
      <trkpt lat="44.31162" lon="5.57449">
        <ele>1151.5</ele>
        <time>2023-04-06T12:03:21Z</time>
      </trkpt>
      <trkpt lat="44.31164" lon="5.57444">
        <ele>1150.4</ele>
        <time>2023-04-06T12:03:22Z</time>
      </trkpt>
      <trkpt lat="44.31165" lon="5.57439">
        <ele>1149.3</ele>
        <time>2023-04-06T12:03:23Z</time>
      </trkpt>
      <trkpt lat="44.31166" lon="5.57433">
        <ele>1148.2</ele>
        <time>2023-04-06T12:03:24Z</time>
      </trkpt>
      <trkpt lat="44.31166" lon="5.57428">
        <ele>1147.3</ele>
        <time>2023-04-06T12:03:25Z</time>
      </trkpt>
      <trkpt lat="44.31166" lon="5.57423">
        <ele>1146.3</ele>
        <time>2023-04-06T12:03:26Z</time>
      </trkpt>
      <trkpt lat="44.31166" lon="5.57418">
        <ele>1145.5</ele>
        <time>2023-04-06T12:03:27Z</time>
      </trkpt>
      <trkpt lat="44.31166" lon="5.57412">
        <ele>1144.6</ele>
        <time>2023-04-06T12:03:28Z</time>
      </trkpt>
      <trkpt lat="44.31165" lon="5.57407">
        <ele>1143.8</ele>
        <time>2023-04-06T12:03:29Z</time>
      </trkpt>
      <trkpt lat="44.31165" lon="5.57399">
        <ele>1142.8</ele>
        <time>2023-04-06T12:03:30Z</time>
      </trkpt>
      <trkpt lat="44.31164" lon="5.57392">
        <ele>1141.9</ele>
        <time>2023-04-06T12:03:31Z</time>
      </trkpt>
      <trkpt lat="44.31165" lon="5.57386">
        <ele>1141.2</ele>
        <time>2023-04-06T12:03:32Z</time>
      </trkpt>
      <trkpt lat="44.31165" lon="5.5738">
        <ele>1140.4</ele>
        <time>2023-04-06T12:03:33Z</time>
      </trkpt>
      <trkpt lat="44.31166" lon="5.57374">
        <ele>1139.7</ele>
        <time>2023-04-06T12:03:34Z</time>
      </trkpt>
      <trkpt lat="44.31166" lon="5.57369">
        <ele>1139</ele>
        <time>2023-04-06T12:03:35Z</time>
      </trkpt>
      <trkpt lat="44.31167" lon="5.57363">
        <ele>1138.3</ele>
        <time>2023-04-06T12:03:36Z</time>
      </trkpt>
      <trkpt lat="44.31167" lon="5.57359">
        <ele>1137.7</ele>
        <time>2023-04-06T12:03:37Z</time>
      </trkpt>
      <trkpt lat="44.31168" lon="5.57355">
        <ele>1137.2</ele>
        <time>2023-04-06T12:03:38Z</time>
      </trkpt>
      <trkpt lat="44.31168" lon="5.5735">
        <ele>1136.6</ele>
        <time>2023-04-06T12:03:39Z</time>
      </trkpt>
      <trkpt lat="44.31169" lon="5.57345">
        <ele>1135.9</ele>
        <time>2023-04-06T12:03:40Z</time>
      </trkpt>
      <trkpt lat="44.31169" lon="5.57338">
        <ele>1135.1</ele>
        <time>2023-04-06T12:03:41Z</time>
      </trkpt>
      <trkpt lat="44.3117" lon="5.57332">
        <ele>1134.4</ele>
        <time>2023-04-06T12:03:42Z</time>
      </trkpt>
      <trkpt lat="44.31171" lon="5.57326">
        <ele>1133.6</ele>
        <time>2023-04-06T12:03:43Z</time>
      </trkpt>
      <trkpt lat="44.31172" lon="5.57318">
        <ele>1132.7</ele>
        <time>2023-04-06T12:03:44Z</time>
      </trkpt>
      <trkpt lat="44.31173" lon="5.57312">
        <ele>1132.1</ele>
        <time>2023-04-06T12:03:45Z</time>
      </trkpt>
      <trkpt lat="44.31172" lon="5.57306">
        <ele>1131.5</ele>
        <time>2023-04-06T12:03:46Z</time>
      </trkpt>
      <trkpt lat="44.31172" lon="5.57301">
        <ele>1131.1</ele>
        <time>2023-04-06T12:03:47Z</time>
      </trkpt>
      <trkpt lat="44.31172" lon="5.57297">
        <ele>1130.6</ele>
        <time>2023-04-06T12:03:48Z</time>
      </trkpt>
      <trkpt lat="44.31173" lon="5.57292">
        <ele>1130.1</ele>
        <time>2023-04-06T12:03:49Z</time>
      </trkpt>
      <trkpt lat="44.31174" lon="5.5729">
        <ele>1129.9</ele>
        <time>2023-04-06T12:03:50Z</time>
      </trkpt>
      <trkpt lat="44.31175" lon="5.57286">
        <ele>1129.3</ele>
        <time>2023-04-06T12:03:51Z</time>
      </trkpt>
      <trkpt lat="44.31176" lon="5.57284">
        <ele>1129.1</ele>
        <time>2023-04-06T12:03:52Z</time>
      </trkpt>
      <trkpt lat="44.31177" lon="5.57281">
        <ele>1128.6</ele>
        <time>2023-04-06T12:03:53Z</time>
      </trkpt>
      <trkpt lat="44.31178" lon="5.57277">
        <ele>1128.2</ele>
        <time>2023-04-06T12:03:54Z</time>
      </trkpt>
      <trkpt lat="44.31179" lon="5.57272">
        <ele>1127.7</ele>
        <time>2023-04-06T12:03:55Z</time>
      </trkpt>
      <trkpt lat="44.3118" lon="5.57268">
        <ele>1127.3</ele>
        <time>2023-04-06T12:03:56Z</time>
      </trkpt>
      <trkpt lat="44.3118" lon="5.57263">
        <ele>1126.9</ele>
        <time>2023-04-06T12:03:57Z</time>
      </trkpt>
      <trkpt lat="44.31181" lon="5.57257">
        <ele>1126.4</ele>
        <time>2023-04-06T12:03:58Z</time>
      </trkpt>
      <trkpt lat="44.31181" lon="5.57252">
        <ele>1125.9</ele>
        <time>2023-04-06T12:03:59Z</time>
      </trkpt>
      <trkpt lat="44.31182" lon="5.57247">
        <ele>1125.5</ele>
        <time>2023-04-06T12:04:00Z</time>
      </trkpt>
      <trkpt lat="44.31183" lon="5.57243">
        <ele>1125</ele>
        <time>2023-04-06T12:04:01Z</time>
      </trkpt>
      <trkpt lat="44.31183" lon="5.57238">
        <ele>1124.4</ele>
        <time>2023-04-06T12:04:02Z</time>
      </trkpt>
      <trkpt lat="44.31185" lon="5.57233">
        <ele>1123.8</ele>
        <time>2023-04-06T12:04:03Z</time>
      </trkpt>
      <trkpt lat="44.31186" lon="5.57229">
        <ele>1123.3</ele>
        <time>2023-04-06T12:04:04Z</time>
      </trkpt>
      <trkpt lat="44.31186" lon="5.57223">
        <ele>1122.8</ele>
        <time>2023-04-06T12:04:05Z</time>
      </trkpt>
      <trkpt lat="44.31187" lon="5.57222">
        <ele>1122.6</ele>
        <time>2023-04-06T12:04:06Z</time>
      </trkpt>
      <trkpt lat="44.31187" lon="5.57218">
        <ele>1122.3</ele>
        <time>2023-04-06T12:04:07Z</time>
      </trkpt>
      <trkpt lat="44.31187" lon="5.57214">
        <ele>1122</ele>
        <time>2023-04-06T12:04:08Z</time>
      </trkpt>
      <trkpt lat="44.31188" lon="5.5721">
        <ele>1121.6</ele>
        <time>2023-04-06T12:04:09Z</time>
      </trkpt>
      <trkpt lat="44.3119" lon="5.57205">
        <ele>1121.1</ele>
        <time>2023-04-06T12:04:10Z</time>
      </trkpt>
      <trkpt lat="44.31191" lon="5.572">
        <ele>1120.5</ele>
        <time>2023-04-06T12:04:11Z</time>
      </trkpt>
      <trkpt lat="44.31193" lon="5.57194">
        <ele>1119.8</ele>
        <time>2023-04-06T12:04:12Z</time>
      </trkpt>
      <trkpt lat="44.31194" lon="5.57188">
        <ele>1119.1</ele>
        <time>2023-04-06T12:04:13Z</time>
      </trkpt>
      <trkpt lat="44.31195" lon="5.5718">
        <ele>1118.5</ele>
        <time>2023-04-06T12:04:14Z</time>
      </trkpt>
      <trkpt lat="44.31194" lon="5.57174">
        <ele>1117.9</ele>
        <time>2023-04-06T12:04:15Z</time>
      </trkpt>
      <trkpt lat="44.31194" lon="5.57169">
        <ele>1117.3</ele>
        <time>2023-04-06T12:04:16Z</time>
      </trkpt>
      <trkpt lat="44.31192" lon="5.57164">
        <ele>1116.7</ele>
        <time>2023-04-06T12:04:17Z</time>
      </trkpt>
      <trkpt lat="44.31191" lon="5.57159">
        <ele>1116.1</ele>
        <time>2023-04-06T12:04:18Z</time>
      </trkpt>
      <trkpt lat="44.31189" lon="5.57155">
        <ele>1115.6</ele>
        <time>2023-04-06T12:04:19Z</time>
      </trkpt>
      <trkpt lat="44.31187" lon="5.57151">
        <ele>1115.1</ele>
        <time>2023-04-06T12:04:20Z</time>
      </trkpt>
      <trkpt lat="44.31185" lon="5.57146">
        <ele>1114.6</ele>
        <time>2023-04-06T12:04:21Z</time>
      </trkpt>
      <trkpt lat="44.31183" lon="5.57141">
        <ele>1114.1</ele>
        <time>2023-04-06T12:04:22Z</time>
      </trkpt>
      <trkpt lat="44.31181" lon="5.57135">
        <ele>1113.5</ele>
        <time>2023-04-06T12:04:23Z</time>
      </trkpt>
      <trkpt lat="44.31181" lon="5.57129">
        <ele>1112.7</ele>
        <time>2023-04-06T12:04:24Z</time>
      </trkpt>
      <trkpt lat="44.31182" lon="5.57119">
        <ele>1111.6</ele>
        <time>2023-04-06T12:04:25Z</time>
      </trkpt>
      <trkpt lat="44.31186" lon="5.57101">
        <ele>1109.2</ele>
        <time>2023-04-06T12:04:27Z</time>
      </trkpt>
      <trkpt lat="44.31188" lon="5.57094">
        <ele>1108.1</ele>
        <time>2023-04-06T12:04:28Z</time>
      </trkpt>
      <trkpt lat="44.3119" lon="5.57087">
        <ele>1107.3</ele>
        <time>2023-04-06T12:04:29Z</time>
      </trkpt>
      <trkpt lat="44.31191" lon="5.5708">
        <ele>1106.5</ele>
        <time>2023-04-06T12:04:30Z</time>
      </trkpt>
      <trkpt lat="44.31192" lon="5.57073">
        <ele>1105.7</ele>
        <time>2023-04-06T12:04:31Z</time>
      </trkpt>
      <trkpt lat="44.31193" lon="5.57067">
        <ele>1105.2</ele>
        <time>2023-04-06T12:04:32Z</time>
      </trkpt>
      <trkpt lat="44.31196" lon="5.57057">
        <ele>1104.6</ele>
        <time>2023-04-06T12:04:34Z</time>
      </trkpt>
      <trkpt lat="44.31197" lon="5.57052">
        <ele>1104.4</ele>
        <time>2023-04-06T12:04:35Z</time>
      </trkpt>
      <trkpt lat="44.31197" lon="5.57048">
        <ele>1104.2</ele>
        <time>2023-04-06T12:04:36Z</time>
      </trkpt>
      <trkpt lat="44.31196" lon="5.57043">
        <ele>1103.9</ele>
        <time>2023-04-06T12:04:37Z</time>
      </trkpt>
      <trkpt lat="44.31196" lon="5.57038">
        <ele>1103.6</ele>
        <time>2023-04-06T12:04:38Z</time>
      </trkpt>
      <trkpt lat="44.31197" lon="5.57028">
        <ele>1102.9</ele>
        <time>2023-04-06T12:04:40Z</time>
      </trkpt>
      <trkpt lat="44.31201" lon="5.57019">
        <ele>1102.2</ele>
        <time>2023-04-06T12:04:42Z</time>
      </trkpt>
      <trkpt lat="44.31202" lon="5.57014">
        <ele>1101.9</ele>
        <time>2023-04-06T12:04:43Z</time>
      </trkpt>
      <trkpt lat="44.31203" lon="5.5701">
        <ele>1101.7</ele>
        <time>2023-04-06T12:04:44Z</time>
      </trkpt>
      <trkpt lat="44.31204" lon="5.57007">
        <ele>1101.5</ele>
        <time>2023-04-06T12:04:45Z</time>
      </trkpt>
      <trkpt lat="44.31205" lon="5.57002">
        <ele>1101.2</ele>
        <time>2023-04-06T12:04:46Z</time>
      </trkpt>
      <trkpt lat="44.31205" lon="5.57">
        <ele>1101.1</ele>
        <time>2023-04-06T12:04:47Z</time>
      </trkpt>
      <trkpt lat="44.31206" lon="5.56996">
        <ele>1101</ele>
        <time>2023-04-06T12:04:48Z</time>
      </trkpt>
      <trkpt lat="44.31206" lon="5.56992">
        <ele>1100.8</ele>
        <time>2023-04-06T12:04:49Z</time>
      </trkpt>
      <trkpt lat="44.31206" lon="5.56988">
        <ele>1100.7</ele>
        <time>2023-04-06T12:04:50Z</time>
      </trkpt>
      <trkpt lat="44.31207" lon="5.56984">
        <ele>1100.6</ele>
        <time>2023-04-06T12:04:51Z</time>
      </trkpt>
      <trkpt lat="44.31208" lon="5.56979">
        <ele>1100.5</ele>
        <time>2023-04-06T12:04:52Z</time>
      </trkpt>
      <trkpt lat="44.31208" lon="5.56973">
        <ele>1100.3</ele>
        <time>2023-04-06T12:04:53Z</time>
      </trkpt>
      <trkpt lat="44.31207" lon="5.56968">
        <ele>1100.2</ele>
        <time>2023-04-06T12:04:54Z</time>
      </trkpt>
      <trkpt lat="44.31205" lon="5.56958">
        <ele>1100</ele>
        <time>2023-04-06T12:04:56Z</time>
      </trkpt>
      <trkpt lat="44.31204" lon="5.56954">
        <ele>1099.9</ele>
        <time>2023-04-06T12:04:57Z</time>
      </trkpt>
      <trkpt lat="44.31203" lon="5.5695">
        <ele>1099.7</ele>
        <time>2023-04-06T12:04:58Z</time>
      </trkpt>
      <trkpt lat="44.31201" lon="5.56946">
        <ele>1099.5</ele>
        <time>2023-04-06T12:04:59Z</time>
      </trkpt>
      <trkpt lat="44.31198" lon="5.56942">
        <ele>1099.1</ele>
        <time>2023-04-06T12:05:00Z</time>
      </trkpt>
      <trkpt lat="44.31195" lon="5.56939">
        <ele>1098.6</ele>
        <time>2023-04-06T12:05:01Z</time>
      </trkpt>
      <trkpt lat="44.31193" lon="5.56935">
        <ele>1098.3</ele>
        <time>2023-04-06T12:05:02Z</time>
      </trkpt>
      <trkpt lat="44.3119" lon="5.56932">
        <ele>1097.9</ele>
        <time>2023-04-06T12:05:03Z</time>
      </trkpt>
      <trkpt lat="44.31188" lon="5.56929">
        <ele>1097.4</ele>
        <time>2023-04-06T12:05:04Z</time>
      </trkpt>
      <trkpt lat="44.31186" lon="5.56926">
        <ele>1097</ele>
        <time>2023-04-06T12:05:05Z</time>
      </trkpt>
      <trkpt lat="44.31187" lon="5.5692">
        <ele>1096.9</ele>
        <time>2023-04-06T12:05:07Z</time>
      </trkpt>
      <trkpt lat="44.31188" lon="5.56918">
        <ele>1096.5</ele>
        <time>2023-04-06T12:05:08Z</time>
      </trkpt>
      <trkpt lat="44.3119" lon="5.56917">
        <ele>1096</ele>
        <time>2023-04-06T12:05:09Z</time>
      </trkpt>
      <trkpt lat="44.3119" lon="5.56916">
        <ele>1095.6</ele>
        <time>2023-04-06T12:05:10Z</time>
      </trkpt>
      <trkpt lat="44.31191" lon="5.56914">
        <ele>1095.2</ele>
        <time>2023-04-06T12:05:11Z</time>
      </trkpt>
      <trkpt lat="44.31192" lon="5.56913">
        <ele>1094.7</ele>
        <time>2023-04-06T12:05:13Z</time>
      </trkpt>
      <trkpt lat="44.31192" lon="5.56912">
        <ele>1094.3</ele>
        <time>2023-04-06T12:05:14Z</time>
      </trkpt>
      <trkpt lat="44.31193" lon="5.56912">
        <ele>1093.9</ele>
        <time>2023-04-06T12:05:15Z</time>
      </trkpt>
      <trkpt lat="44.31193" lon="5.56909">
        <ele>1093.4</ele>
        <time>2023-04-06T12:05:16Z</time>
      </trkpt>
      <trkpt lat="44.31194" lon="5.56907">
        <ele>1092.7</ele>
        <time>2023-04-06T12:05:17Z</time>
      </trkpt>
      <trkpt lat="44.31195" lon="5.56905">
        <ele>1092.2</ele>
        <time>2023-04-06T12:05:18Z</time>
      </trkpt>
      <trkpt lat="44.31196" lon="5.56903">
        <ele>1092.3</ele>
        <time>2023-04-06T12:05:19Z</time>
      </trkpt>
      <trkpt lat="44.31199" lon="5.56899">
        <ele>1091.8</ele>
        <time>2023-04-06T12:05:20Z</time>
      </trkpt>
      <trkpt lat="44.312" lon="5.56898">
        <ele>1091.4</ele>
        <time>2023-04-06T12:05:21Z</time>
      </trkpt>
      <trkpt lat="44.31203" lon="5.56895">
        <ele>1091</ele>
        <time>2023-04-06T12:05:22Z</time>
      </trkpt>
      <trkpt lat="44.31207" lon="5.56893">
        <ele>1090.4</ele>
        <time>2023-04-06T12:05:23Z</time>
      </trkpt>
      <trkpt lat="44.3121" lon="5.5689">
        <ele>1089.9</ele>
        <time>2023-04-06T12:05:24Z</time>
      </trkpt>
      <trkpt lat="44.31213" lon="5.56888">
        <ele>1089.4</ele>
        <time>2023-04-06T12:05:25Z</time>
      </trkpt>
      <trkpt lat="44.31217" lon="5.56886">
        <ele>1088.8</ele>
        <time>2023-04-06T12:05:26Z</time>
      </trkpt>
      <trkpt lat="44.31221" lon="5.56883">
        <ele>1088.3</ele>
        <time>2023-04-06T12:05:27Z</time>
      </trkpt>
      <trkpt lat="44.31227" lon="5.56876">
        <ele>1087.5</ele>
        <time>2023-04-06T12:05:29Z</time>
      </trkpt>
      <trkpt lat="44.3123" lon="5.56872">
        <ele>1087.1</ele>
        <time>2023-04-06T12:05:30Z</time>
      </trkpt>
      <trkpt lat="44.31233" lon="5.56869">
        <ele>1086.8</ele>
        <time>2023-04-06T12:05:31Z</time>
      </trkpt>
      <trkpt lat="44.31236" lon="5.56865">
        <ele>1086.5</ele>
        <time>2023-04-06T12:05:32Z</time>
      </trkpt>
      <trkpt lat="44.31239" lon="5.56862">
        <ele>1086.1</ele>
        <time>2023-04-06T12:05:33Z</time>
      </trkpt>
      <trkpt lat="44.31247" lon="5.56861">
        <ele>1085.4</ele>
        <time>2023-04-06T12:05:35Z</time>
      </trkpt>
      <trkpt lat="44.31254" lon="5.56861">
        <ele>1084.4</ele>
        <time>2023-04-06T12:05:36Z</time>
      </trkpt>
      <trkpt lat="44.3126" lon="5.56861">
        <ele>1083</ele>
        <time>2023-04-06T12:05:37Z</time>
      </trkpt>
      <trkpt lat="44.31267" lon="5.56861">
        <ele>1081.7</ele>
        <time>2023-04-06T12:05:38Z</time>
      </trkpt>
      <trkpt lat="44.31273" lon="5.56862">
        <ele>1080.4</ele>
        <time>2023-04-06T12:05:39Z</time>
      </trkpt>
      <trkpt lat="44.31281" lon="5.56864">
        <ele>1078.9</ele>
        <time>2023-04-06T12:05:40Z</time>
      </trkpt>
      <trkpt lat="44.31289" lon="5.56865">
        <ele>1077.3</ele>
        <time>2023-04-06T12:05:41Z</time>
      </trkpt>
      <trkpt lat="44.31298" lon="5.56865">
        <ele>1075.6</ele>
        <time>2023-04-06T12:05:42Z</time>
      </trkpt>
      <trkpt lat="44.31308" lon="5.56865">
        <ele>1073.9</ele>
        <time>2023-04-06T12:05:43Z</time>
      </trkpt>
      <trkpt lat="44.31319" lon="5.56866">
        <ele>1072</ele>
        <time>2023-04-06T12:05:44Z</time>
      </trkpt>
      <trkpt lat="44.31339" lon="5.56871">
        <ele>1068.4</ele>
        <time>2023-04-06T12:05:46Z</time>
      </trkpt>
      <trkpt lat="44.31349" lon="5.56876">
        <ele>1066.8</ele>
        <time>2023-04-06T12:05:47Z</time>
      </trkpt>
      <trkpt lat="44.31359" lon="5.56881">
        <ele>1065.2</ele>
        <time>2023-04-06T12:05:48Z</time>
      </trkpt>
      <trkpt lat="44.31368" lon="5.56886">
        <ele>1063.8</ele>
        <time>2023-04-06T12:05:49Z</time>
      </trkpt>
      <trkpt lat="44.31376" lon="5.56892">
        <ele>1062.5</ele>
        <time>2023-04-06T12:05:50Z</time>
      </trkpt>
      <trkpt lat="44.31391" lon="5.56901">
        <ele>1060.1</ele>
        <time>2023-04-06T12:05:52Z</time>
      </trkpt>
      <trkpt lat="44.31399" lon="5.56906">
        <ele>1059</ele>
        <time>2023-04-06T12:05:53Z</time>
      </trkpt>
      <trkpt lat="44.31413" lon="5.56913">
        <ele>1056.8</ele>
        <time>2023-04-06T12:05:55Z</time>
      </trkpt>
      <trkpt lat="44.31428" lon="5.56911">
        <ele>1054.8</ele>
        <time>2023-04-06T12:05:57Z</time>
      </trkpt>
      <trkpt lat="44.31436" lon="5.56909">
        <ele>1053.8</ele>
        <time>2023-04-06T12:05:58Z</time>
      </trkpt>
      <trkpt lat="44.31445" lon="5.56907">
        <ele>1052.7</ele>
        <time>2023-04-06T12:05:59Z</time>
      </trkpt>
      <trkpt lat="44.31452" lon="5.56906">
        <ele>1051.8</ele>
        <time>2023-04-06T12:06:00Z</time>
      </trkpt>
      <trkpt lat="44.31458" lon="5.56905">
        <ele>1051.1</ele>
        <time>2023-04-06T12:06:01Z</time>
      </trkpt>
      <trkpt lat="44.31464" lon="5.56905">
        <ele>1050.5</ele>
        <time>2023-04-06T12:06:02Z</time>
      </trkpt>
      <trkpt lat="44.3147" lon="5.56904">
        <ele>1050</ele>
        <time>2023-04-06T12:06:03Z</time>
      </trkpt>
      <trkpt lat="44.31477" lon="5.56903">
        <ele>1049.5</ele>
        <time>2023-04-06T12:06:04Z</time>
      </trkpt>
      <trkpt lat="44.31482" lon="5.56902">
        <ele>1049.1</ele>
        <time>2023-04-06T12:06:05Z</time>
      </trkpt>
      <trkpt lat="44.31487" lon="5.56902">
        <ele>1048.8</ele>
        <time>2023-04-06T12:06:06Z</time>
      </trkpt>
      <trkpt lat="44.31496" lon="5.56902">
        <ele>1048.5</ele>
        <time>2023-04-06T12:06:08Z</time>
      </trkpt>
      <trkpt lat="44.315" lon="5.56903">
        <ele>1048.3</ele>
        <time>2023-04-06T12:06:09Z</time>
      </trkpt>
      <trkpt lat="44.31504" lon="5.56903">
        <ele>1048.2</ele>
        <time>2023-04-06T12:06:10Z</time>
      </trkpt>
      <trkpt lat="44.31508" lon="5.56904">
        <ele>1048.1</ele>
        <time>2023-04-06T12:06:11Z</time>
      </trkpt>
      <trkpt lat="44.31511" lon="5.56905">
        <ele>1048</ele>
        <time>2023-04-06T12:06:12Z</time>
      </trkpt>
      <trkpt lat="44.31517" lon="5.56907">
        <ele>1047.9</ele>
        <time>2023-04-06T12:06:14Z</time>
      </trkpt>
      <trkpt lat="44.3152" lon="5.56908">
        <ele>1047.8</ele>
        <time>2023-04-06T12:06:15Z</time>
      </trkpt>
      <trkpt lat="44.31524" lon="5.56908">
        <ele>1047.7</ele>
        <time>2023-04-06T12:06:16Z</time>
      </trkpt>
      <trkpt lat="44.31527" lon="5.56909">
        <ele>1047.6</ele>
        <time>2023-04-06T12:06:17Z</time>
      </trkpt>
      <trkpt lat="44.31531" lon="5.56909">
        <ele>1047.5</ele>
        <time>2023-04-06T12:06:18Z</time>
      </trkpt>
      <trkpt lat="44.31534" lon="5.56909">
        <ele>1047.4</ele>
        <time>2023-04-06T12:06:19Z</time>
      </trkpt>
      <trkpt lat="44.31538" lon="5.56907">
        <ele>1047.3</ele>
        <time>2023-04-06T12:06:20Z</time>
      </trkpt>
      <trkpt lat="44.31542" lon="5.56906">
        <ele>1047.2</ele>
        <time>2023-04-06T12:06:21Z</time>
      </trkpt>
      <trkpt lat="44.31546" lon="5.56906">
        <ele>1047.1</ele>
        <time>2023-04-06T12:06:22Z</time>
      </trkpt>
      <trkpt lat="44.3155" lon="5.56908">
        <ele>1046.9</ele>
        <time>2023-04-06T12:06:23Z</time>
      </trkpt>
      <trkpt lat="44.31557" lon="5.56914">
        <ele>1044.2</ele>
        <time>2023-04-06T12:06:25Z</time>
      </trkpt>
      <trkpt lat="44.3156" lon="5.56917">
        <ele>1041.8</ele>
        <time>2023-04-06T12:06:26Z</time>
      </trkpt>
      <trkpt lat="44.31562" lon="5.56921">
        <ele>1042.1</ele>
        <time>2023-04-06T12:06:27Z</time>
      </trkpt>
      <trkpt lat="44.31565" lon="5.56924">
        <ele>1042.5</ele>
        <time>2023-04-06T12:06:28Z</time>
      </trkpt>
      <trkpt lat="44.31568" lon="5.56927">
        <ele>1042.9</ele>
        <time>2023-04-06T12:06:29Z</time>
      </trkpt>
      <trkpt lat="44.3157" lon="5.5693">
        <ele>1043.3</ele>
        <time>2023-04-06T12:06:30Z</time>
      </trkpt>
      <trkpt lat="44.31572" lon="5.56933">
        <ele>1043.6</ele>
        <time>2023-04-06T12:06:31Z</time>
      </trkpt>
      <trkpt lat="44.31574" lon="5.56936">
        <ele>1044</ele>
        <time>2023-04-06T12:06:32Z</time>
      </trkpt>
      <trkpt lat="44.31576" lon="5.56939">
        <ele>1044.4</ele>
        <time>2023-04-06T12:06:33Z</time>
      </trkpt>
      <trkpt lat="44.31578" lon="5.56942">
        <ele>1044.7</ele>
        <time>2023-04-06T12:06:34Z</time>
      </trkpt>
      <trkpt lat="44.31582" lon="5.5695">
        <ele>1045.6</ele>
        <time>2023-04-06T12:06:36Z</time>
      </trkpt>
      <trkpt lat="44.31583" lon="5.56952">
        <ele>1045.7</ele>
        <time>2023-04-06T12:06:37Z</time>
      </trkpt>
      <trkpt lat="44.31585" lon="5.56955">
        <ele>1046.1</ele>
        <time>2023-04-06T12:06:38Z</time>
      </trkpt>
      <trkpt lat="44.31587" lon="5.56958">
        <ele>1046.4</ele>
        <time>2023-04-06T12:06:39Z</time>
      </trkpt>
      <trkpt lat="44.31589" lon="5.56961">
        <ele>1046.8</ele>
        <time>2023-04-06T12:06:40Z</time>
      </trkpt>
      <trkpt lat="44.31591" lon="5.56964">
        <ele>1047.2</ele>
        <time>2023-04-06T12:06:41Z</time>
      </trkpt>
      <trkpt lat="44.31593" lon="5.56967">
        <ele>1047.7</ele>
        <time>2023-04-06T12:06:42Z</time>
      </trkpt>
      <trkpt lat="44.31595" lon="5.5697">
        <ele>1048.1</ele>
        <time>2023-04-06T12:06:43Z</time>
      </trkpt>
      <trkpt lat="44.31597" lon="5.56974">
        <ele>1048.6</ele>
        <time>2023-04-06T12:06:44Z</time>
      </trkpt>
      <trkpt lat="44.31598" lon="5.56975">
        <ele>1048.8</ele>
        <time>2023-04-06T12:06:45Z</time>
      </trkpt>
      <trkpt lat="44.31602" lon="5.5698">
        <ele>1049.7</ele>
        <time>2023-04-06T12:06:47Z</time>
      </trkpt>
      <trkpt lat="44.31604" lon="5.56984">
        <ele>1050.2</ele>
        <time>2023-04-06T12:06:48Z</time>
      </trkpt>
      <trkpt lat="44.31606" lon="5.56988">
        <ele>1050.8</ele>
        <time>2023-04-06T12:06:49Z</time>
      </trkpt>
      <trkpt lat="44.31607" lon="5.56989">
        <ele>1051</ele>
        <time>2023-04-06T12:06:50Z</time>
      </trkpt>
      <trkpt lat="44.31609" lon="5.56994">
        <ele>1051.7</ele>
        <time>2023-04-06T12:06:51Z</time>
      </trkpt>
      <trkpt lat="44.31609" lon="5.56996">
        <ele>1052</ele>
        <time>2023-04-06T12:06:52Z</time>
      </trkpt>
      <trkpt lat="44.3161" lon="5.57">
        <ele>1052.5</ele>
        <time>2023-04-06T12:06:53Z</time>
      </trkpt>
      <trkpt lat="44.31611" lon="5.57003">
        <ele>1053</ele>
        <time>2023-04-06T12:06:54Z</time>
      </trkpt>
      <trkpt lat="44.31614" lon="5.57008">
        <ele>1053.8</ele>
        <time>2023-04-06T12:06:55Z</time>
      </trkpt>
      <trkpt lat="44.31614" lon="5.57009">
        <ele>1054</ele>
        <time>2023-04-06T12:06:56Z</time>
      </trkpt>
      <trkpt lat="44.31618" lon="5.57016">
        <ele>1055</ele>
        <time>2023-04-06T12:06:58Z</time>
      </trkpt>
      <trkpt lat="44.31619" lon="5.57019">
        <ele>1055.5</ele>
        <time>2023-04-06T12:06:59Z</time>
      </trkpt>
      <trkpt lat="44.31622" lon="5.57023">
        <ele>1056.2</ele>
        <time>2023-04-06T12:07:00Z</time>
      </trkpt>
      <trkpt lat="44.31623" lon="5.57025">
        <ele>1056.5</ele>
        <time>2023-04-06T12:07:01Z</time>
      </trkpt>
      <trkpt lat="44.31625" lon="5.57028">
        <ele>1057</ele>
        <time>2023-04-06T12:07:02Z</time>
      </trkpt>
      <trkpt lat="44.31629" lon="5.57035">
        <ele>1058.1</ele>
        <time>2023-04-06T12:07:04Z</time>
      </trkpt>
      <trkpt lat="44.3163" lon="5.57036">
        <ele>1058.3</ele>
        <time>2023-04-06T12:07:05Z</time>
      </trkpt>
      <trkpt lat="44.31633" lon="5.5704">
        <ele>1058.9</ele>
        <time>2023-04-06T12:07:06Z</time>
      </trkpt>
      <trkpt lat="44.31633" lon="5.57041">
        <ele>1059.1</ele>
        <time>2023-04-06T12:07:07Z</time>
      </trkpt>
      <trkpt lat="44.31636" lon="5.57045">
        <ele>1059.7</ele>
        <time>2023-04-06T12:07:08Z</time>
      </trkpt>
      <trkpt lat="44.31636" lon="5.57046">
        <ele>1059.9</ele>
        <time>2023-04-06T12:07:09Z</time>
      </trkpt>
      <trkpt lat="44.31638" lon="5.5705">
        <ele>1060.6</ele>
        <time>2023-04-06T12:07:10Z</time>
      </trkpt>
      <trkpt lat="44.31639" lon="5.57052">
        <ele>1060.8</ele>
        <time>2023-04-06T12:07:11Z</time>
      </trkpt>
      <trkpt lat="44.31641" lon="5.57056">
        <ele>1061.6</ele>
        <time>2023-04-06T12:07:12Z</time>
      </trkpt>
      <trkpt lat="44.31642" lon="5.57058">
        <ele>1061.8</ele>
        <time>2023-04-06T12:07:13Z</time>
      </trkpt>
      <trkpt lat="44.31645" lon="5.57063">
        <ele>1062.7</ele>
        <time>2023-04-06T12:07:15Z</time>
      </trkpt>
      <trkpt lat="44.31646" lon="5.57068">
        <ele>1063.3</ele>
        <time>2023-04-06T12:07:16Z</time>
      </trkpt>
      <trkpt lat="44.31646" lon="5.57069">
        <ele>1063.5</ele>
        <time>2023-04-06T12:07:17Z</time>
      </trkpt>
      <trkpt lat="44.31647" lon="5.57073">
        <ele>1064.1</ele>
        <time>2023-04-06T12:07:18Z</time>
      </trkpt>
      <trkpt lat="44.31647" lon="5.57075">
        <ele>1064.3</ele>
        <time>2023-04-06T12:07:19Z</time>
      </trkpt>
      <trkpt lat="44.31649" lon="5.57078">
        <ele>1064.9</ele>
        <time>2023-04-06T12:07:20Z</time>
      </trkpt>
      <trkpt lat="44.3165" lon="5.57082">
        <ele>1065.5</ele>
        <time>2023-04-06T12:07:21Z</time>
      </trkpt>
      <trkpt lat="44.31652" lon="5.57085">
        <ele>1066.1</ele>
        <time>2023-04-06T12:07:22Z</time>
      </trkpt>
      <trkpt lat="44.31654" lon="5.57088">
        <ele>1066.7</ele>
        <time>2023-04-06T12:07:23Z</time>
      </trkpt>
      <trkpt lat="44.31656" lon="5.57091">
        <ele>1067.2</ele>
        <time>2023-04-06T12:07:24Z</time>
      </trkpt>
      <trkpt lat="44.3166" lon="5.57095">
        <ele>1068.1</ele>
        <time>2023-04-06T12:07:26Z</time>
      </trkpt>
      <trkpt lat="44.31661" lon="5.57098">
        <ele>1068.5</ele>
        <time>2023-04-06T12:07:27Z</time>
      </trkpt>
      <trkpt lat="44.31664" lon="5.57101">
        <ele>1069.1</ele>
        <time>2023-04-06T12:07:28Z</time>
      </trkpt>
      <trkpt lat="44.31665" lon="5.57103">
        <ele>1069.3</ele>
        <time>2023-04-06T12:07:29Z</time>
      </trkpt>
      <trkpt lat="44.31668" lon="5.57106">
        <ele>1069.8</ele>
        <time>2023-04-06T12:07:30Z</time>
      </trkpt>
      <trkpt lat="44.31669" lon="5.57107">
        <ele>1070</ele>
        <time>2023-04-06T12:07:31Z</time>
      </trkpt>
      <trkpt lat="44.31672" lon="5.5711">
        <ele>1070.4</ele>
        <time>2023-04-06T12:07:32Z</time>
      </trkpt>
      <trkpt lat="44.31673" lon="5.57111">
        <ele>1070.5</ele>
        <time>2023-04-06T12:07:33Z</time>
      </trkpt>
      <trkpt lat="44.31675" lon="5.57115">
        <ele>1070.9</ele>
        <time>2023-04-06T12:07:34Z</time>
      </trkpt>
      <trkpt lat="44.31676" lon="5.57116">
        <ele>1071.1</ele>
        <time>2023-04-06T12:07:35Z</time>
      </trkpt>
      <trkpt lat="44.31678" lon="5.5712">
        <ele>1071.5</ele>
        <time>2023-04-06T12:07:36Z</time>
      </trkpt>
      <trkpt lat="44.31679" lon="5.57121">
        <ele>1071.7</ele>
        <time>2023-04-06T12:07:37Z</time>
      </trkpt>
      <trkpt lat="44.31681" lon="5.57124">
        <ele>1072.1</ele>
        <time>2023-04-06T12:07:38Z</time>
      </trkpt>
      <trkpt lat="44.31682" lon="5.57126">
        <ele>1072.2</ele>
        <time>2023-04-06T12:07:39Z</time>
      </trkpt>
      <trkpt lat="44.31685" lon="5.57129">
        <ele>1072.6</ele>
        <time>2023-04-06T12:07:40Z</time>
      </trkpt>
      <trkpt lat="44.31686" lon="5.5713">
        <ele>1072.8</ele>
        <time>2023-04-06T12:07:41Z</time>
      </trkpt>
      <trkpt lat="44.31689" lon="5.57133">
        <ele>1073.2</ele>
        <time>2023-04-06T12:07:42Z</time>
      </trkpt>
      <trkpt lat="44.3169" lon="5.57134">
        <ele>1073.4</ele>
        <time>2023-04-06T12:07:43Z</time>
      </trkpt>
      <trkpt lat="44.31692" lon="5.57137">
        <ele>1073.7</ele>
        <time>2023-04-06T12:07:44Z</time>
      </trkpt>
      <trkpt lat="44.31694" lon="5.5714">
        <ele>1073.9</ele>
        <time>2023-04-06T12:07:45Z</time>
      </trkpt>
      <trkpt lat="44.31697" lon="5.57143">
        <ele>1074.3</ele>
        <time>2023-04-06T12:07:46Z</time>
      </trkpt>
      <trkpt lat="44.31698" lon="5.57144">
        <ele>1074.4</ele>
        <time>2023-04-06T12:07:47Z</time>
      </trkpt>
      <trkpt lat="44.317" lon="5.57147">
        <ele>1074.7</ele>
        <time>2023-04-06T12:07:48Z</time>
      </trkpt>
      <trkpt lat="44.31701" lon="5.57148">
        <ele>1074.8</ele>
        <time>2023-04-06T12:07:49Z</time>
      </trkpt>
      <trkpt lat="44.31704" lon="5.57152">
        <ele>1075.1</ele>
        <time>2023-04-06T12:07:50Z</time>
      </trkpt>
      <trkpt lat="44.31705" lon="5.57153">
        <ele>1075.2</ele>
        <time>2023-04-06T12:07:51Z</time>
      </trkpt>
      <trkpt lat="44.31707" lon="5.57155">
        <ele>1075.4</ele>
        <time>2023-04-06T12:07:52Z</time>
      </trkpt>
      <trkpt lat="44.3171" lon="5.57158">
        <ele>1075.7</ele>
        <time>2023-04-06T12:07:53Z</time>
      </trkpt>
      <trkpt lat="44.31713" lon="5.5716">
        <ele>1076</ele>
        <time>2023-04-06T12:07:54Z</time>
      </trkpt>
      <trkpt lat="44.31715" lon="5.57161">
        <ele>1076.2</ele>
        <time>2023-04-06T12:07:55Z</time>
      </trkpt>
      <trkpt lat="44.31718" lon="5.57165">
        <ele>1076.6</ele>
        <time>2023-04-06T12:07:56Z</time>
      </trkpt>
      <trkpt lat="44.31719" lon="5.57166">
        <ele>1076.8</ele>
        <time>2023-04-06T12:07:57Z</time>
      </trkpt>
      <trkpt lat="44.31721" lon="5.5717">
        <ele>1077.1</ele>
        <time>2023-04-06T12:07:58Z</time>
      </trkpt>
      <trkpt lat="44.31722" lon="5.57171">
        <ele>1077.2</ele>
        <time>2023-04-06T12:07:59Z</time>
      </trkpt>
      <trkpt lat="44.31723" lon="5.57174">
        <ele>1077.5</ele>
        <time>2023-04-06T12:08:00Z</time>
      </trkpt>
      <trkpt lat="44.31725" lon="5.57177">
        <ele>1077.8</ele>
        <time>2023-04-06T12:08:01Z</time>
      </trkpt>
      <trkpt lat="44.31728" lon="5.57181">
        <ele>1078.2</ele>
        <time>2023-04-06T12:08:02Z</time>
      </trkpt>
      <trkpt lat="44.3173" lon="5.57182">
        <ele>1078.3</ele>
        <time>2023-04-06T12:08:03Z</time>
      </trkpt>
      <trkpt lat="44.31732" lon="5.57185">
        <ele>1078.6</ele>
        <time>2023-04-06T12:08:04Z</time>
      </trkpt>
      <trkpt lat="44.31735" lon="5.57189">
        <ele>1078.9</ele>
        <time>2023-04-06T12:08:05Z</time>
      </trkpt>
      <trkpt lat="44.31736" lon="5.5719">
        <ele>1079</ele>
        <time>2023-04-06T12:08:06Z</time>
      </trkpt>
      <trkpt lat="44.31739" lon="5.57193">
        <ele>1079.4</ele>
        <time>2023-04-06T12:08:07Z</time>
      </trkpt>
      <trkpt lat="44.3174" lon="5.57194">
        <ele>1079.5</ele>
        <time>2023-04-06T12:08:08Z</time>
      </trkpt>
      <trkpt lat="44.31743" lon="5.57198">
        <ele>1079.8</ele>
        <time>2023-04-06T12:08:09Z</time>
      </trkpt>
      <trkpt lat="44.31744" lon="5.57199">
        <ele>1079.9</ele>
        <time>2023-04-06T12:08:10Z</time>
      </trkpt>
      <trkpt lat="44.31746" lon="5.57203">
        <ele>1080.2</ele>
        <time>2023-04-06T12:08:11Z</time>
      </trkpt>
      <trkpt lat="44.31747" lon="5.57204">
        <ele>1080.3</ele>
        <time>2023-04-06T12:08:12Z</time>
      </trkpt>
      <trkpt lat="44.31749" lon="5.57208">
        <ele>1080.6</ele>
        <time>2023-04-06T12:08:13Z</time>
      </trkpt>
      <trkpt lat="44.3175" lon="5.5721">
        <ele>1080.7</ele>
        <time>2023-04-06T12:08:14Z</time>
      </trkpt>
      <trkpt lat="44.31753" lon="5.57213">
        <ele>1081</ele>
        <time>2023-04-06T12:08:15Z</time>
      </trkpt>
      <trkpt lat="44.31754" lon="5.57214">
        <ele>1081.2</ele>
        <time>2023-04-06T12:08:16Z</time>
      </trkpt>
      <trkpt lat="44.31758" lon="5.57218">
        <ele>1081.5</ele>
        <time>2023-04-06T12:08:17Z</time>
      </trkpt>
      <trkpt lat="44.31759" lon="5.57219">
        <ele>1081.6</ele>
        <time>2023-04-06T12:08:18Z</time>
      </trkpt>
      <trkpt lat="44.31762" lon="5.57222">
        <ele>1082</ele>
        <time>2023-04-06T12:08:19Z</time>
      </trkpt>
      <trkpt lat="44.31763" lon="5.57223">
        <ele>1082.1</ele>
        <time>2023-04-06T12:08:20Z</time>
      </trkpt>
      <trkpt lat="44.31766" lon="5.57226">
        <ele>1082.4</ele>
        <time>2023-04-06T12:08:21Z</time>
      </trkpt>
      <trkpt lat="44.31767" lon="5.57227">
        <ele>1082.5</ele>
        <time>2023-04-06T12:08:22Z</time>
      </trkpt>
      <trkpt lat="44.31769" lon="5.57229">
        <ele>1082.7</ele>
        <time>2023-04-06T12:08:23Z</time>
      </trkpt>
      <trkpt lat="44.31772" lon="5.57231">
        <ele>1082.9</ele>
        <time>2023-04-06T12:08:24Z</time>
      </trkpt>
      <trkpt lat="44.31775" lon="5.57234">
        <ele>1083.2</ele>
        <time>2023-04-06T12:08:25Z</time>
      </trkpt>
      <trkpt lat="44.31776" lon="5.57236">
        <ele>1083.3</ele>
        <time>2023-04-06T12:08:26Z</time>
      </trkpt>
      <trkpt lat="44.31778" lon="5.5724">
        <ele>1083.6</ele>
        <time>2023-04-06T12:08:27Z</time>
      </trkpt>
      <trkpt lat="44.31778" lon="5.57241">
        <ele>1083.7</ele>
        <time>2023-04-06T12:08:28Z</time>
      </trkpt>
      <trkpt lat="44.31781" lon="5.57244">
        <ele>1083.9</ele>
        <time>2023-04-06T12:08:29Z</time>
      </trkpt>
      <trkpt lat="44.31783" lon="5.57246">
        <ele>1084.1</ele>
        <time>2023-04-06T12:08:30Z</time>
      </trkpt>
      <trkpt lat="44.31785" lon="5.57249">
        <ele>1084.3</ele>
        <time>2023-04-06T12:08:31Z</time>
      </trkpt>
      <trkpt lat="44.31788" lon="5.57251">
        <ele>1084.5</ele>
        <time>2023-04-06T12:08:32Z</time>
      </trkpt>
      <trkpt lat="44.31791" lon="5.57253">
        <ele>1084.7</ele>
        <time>2023-04-06T12:08:33Z</time>
      </trkpt>
      <trkpt lat="44.31794" lon="5.57256">
        <ele>1084.9</ele>
        <time>2023-04-06T12:08:34Z</time>
      </trkpt>
      <trkpt lat="44.31797" lon="5.57258">
        <ele>1085.1</ele>
        <time>2023-04-06T12:08:35Z</time>
      </trkpt>
      <trkpt lat="44.31799" lon="5.5726">
        <ele>1085.4</ele>
        <time>2023-04-06T12:08:36Z</time>
      </trkpt>
      <trkpt lat="44.31801" lon="5.57263">
        <ele>1085.6</ele>
        <time>2023-04-06T12:08:37Z</time>
      </trkpt>
      <trkpt lat="44.31803" lon="5.57265">
        <ele>1085.8</ele>
        <time>2023-04-06T12:08:38Z</time>
      </trkpt>
      <trkpt lat="44.31807" lon="5.57268">
        <ele>1086.2</ele>
        <time>2023-04-06T12:08:39Z</time>
      </trkpt>
      <trkpt lat="44.31808" lon="5.57269">
        <ele>1086.3</ele>
        <time>2023-04-06T12:08:40Z</time>
      </trkpt>
      <trkpt lat="44.3181" lon="5.57271">
        <ele>1086.5</ele>
        <time>2023-04-06T12:08:41Z</time>
      </trkpt>
      <trkpt lat="44.31814" lon="5.57275">
        <ele>1086.9</ele>
        <time>2023-04-06T12:08:42Z</time>
      </trkpt>
      <trkpt lat="44.31815" lon="5.57276">
        <ele>1087</ele>
        <time>2023-04-06T12:08:43Z</time>
      </trkpt>
      <trkpt lat="44.31818" lon="5.57279">
        <ele>1087.4</ele>
        <time>2023-04-06T12:08:44Z</time>
      </trkpt>
      <trkpt lat="44.31819" lon="5.57279">
        <ele>1087.5</ele>
        <time>2023-04-06T12:08:45Z</time>
      </trkpt>
      <trkpt lat="44.31822" lon="5.5728">
        <ele>1087.7</ele>
        <time>2023-04-06T12:08:46Z</time>
      </trkpt>
      <trkpt lat="44.31825" lon="5.57282">
        <ele>1088</ele>
        <time>2023-04-06T12:08:47Z</time>
      </trkpt>
      <trkpt lat="44.31829" lon="5.57284">
        <ele>1088.4</ele>
        <time>2023-04-06T12:08:48Z</time>
      </trkpt>
      <trkpt lat="44.31832" lon="5.57285">
        <ele>1088.6</ele>
        <time>2023-04-06T12:08:49Z</time>
      </trkpt>
      <trkpt lat="44.31834" lon="5.57287">
        <ele>1088.8</ele>
        <time>2023-04-06T12:08:50Z</time>
      </trkpt>
      <trkpt lat="44.31838" lon="5.5729">
        <ele>1089.2</ele>
        <time>2023-04-06T12:08:51Z</time>
      </trkpt>
      <trkpt lat="44.31839" lon="5.57291">
        <ele>1089.3</ele>
        <time>2023-04-06T12:08:52Z</time>
      </trkpt>
      <trkpt lat="44.31842" lon="5.57294">
        <ele>1089.6</ele>
        <time>2023-04-06T12:08:53Z</time>
      </trkpt>
      <trkpt lat="44.31846" lon="5.57296">
        <ele>1089.8</ele>
        <time>2023-04-06T12:08:54Z</time>
      </trkpt>
      <trkpt lat="44.31849" lon="5.57299">
        <ele>1090.1</ele>
        <time>2023-04-06T12:08:55Z</time>
      </trkpt>
      <trkpt lat="44.31853" lon="5.57302">
        <ele>1090.3</ele>
        <time>2023-04-06T12:08:56Z</time>
      </trkpt>
      <trkpt lat="44.31856" lon="5.57305">
        <ele>1090.6</ele>
        <time>2023-04-06T12:08:57Z</time>
      </trkpt>
      <trkpt lat="44.3186" lon="5.57307">
        <ele>1090.8</ele>
        <time>2023-04-06T12:08:58Z</time>
      </trkpt>
      <trkpt lat="44.31865" lon="5.57309">
        <ele>1091.2</ele>
        <time>2023-04-06T12:08:59Z</time>
      </trkpt>
      <trkpt lat="44.31869" lon="5.57311">
        <ele>1091.5</ele>
        <time>2023-04-06T12:09:00Z</time>
      </trkpt>
      <trkpt lat="44.31873" lon="5.57314">
        <ele>1092</ele>
        <time>2023-04-06T12:09:01Z</time>
      </trkpt>
      <trkpt lat="44.31876" lon="5.57317">
        <ele>1092.4</ele>
        <time>2023-04-06T12:09:02Z</time>
      </trkpt>
      <trkpt lat="44.31879" lon="5.5732">
        <ele>1092.8</ele>
        <time>2023-04-06T12:09:03Z</time>
      </trkpt>
      <trkpt lat="44.31882" lon="5.57323">
        <ele>1093.1</ele>
        <time>2023-04-06T12:09:04Z</time>
      </trkpt>
      <trkpt lat="44.31886" lon="5.57325">
        <ele>1093.6</ele>
        <time>2023-04-06T12:09:05Z</time>
      </trkpt>
      <trkpt lat="44.3189" lon="5.57327">
        <ele>1094</ele>
        <time>2023-04-06T12:09:06Z</time>
      </trkpt>
      <trkpt lat="44.31894" lon="5.57329">
        <ele>1094.4</ele>
        <time>2023-04-06T12:09:07Z</time>
      </trkpt>
      <trkpt lat="44.31897" lon="5.57332">
        <ele>1094.8</ele>
        <time>2023-04-06T12:09:08Z</time>
      </trkpt>
      <trkpt lat="44.319" lon="5.57335">
        <ele>1095.1</ele>
        <time>2023-04-06T12:09:09Z</time>
      </trkpt>
      <trkpt lat="44.31902" lon="5.57338">
        <ele>1095.5</ele>
        <time>2023-04-06T12:09:10Z</time>
      </trkpt>
      <trkpt lat="44.31905" lon="5.5734">
        <ele>1095.8</ele>
        <time>2023-04-06T12:09:11Z</time>
      </trkpt>
      <trkpt lat="44.31908" lon="5.57342">
        <ele>1096</ele>
        <time>2023-04-06T12:09:12Z</time>
      </trkpt>
      <trkpt lat="44.3191" lon="5.57345">
        <ele>1096.2</ele>
        <time>2023-04-06T12:09:13Z</time>
      </trkpt>
      <trkpt lat="44.31913" lon="5.57347">
        <ele>1096.3</ele>
        <time>2023-04-06T12:09:14Z</time>
      </trkpt>
      <trkpt lat="44.31916" lon="5.57349">
        <ele>1096.4</ele>
        <time>2023-04-06T12:09:15Z</time>
      </trkpt>
      <trkpt lat="44.31918" lon="5.57351">
        <ele>1096.4</ele>
        <time>2023-04-06T12:09:16Z</time>
      </trkpt>
      <trkpt lat="44.3192" lon="5.57353">
        <ele>1096.4</ele>
        <time>2023-04-06T12:09:17Z</time>
      </trkpt>
      <trkpt lat="44.31922" lon="5.57356">
        <ele>1096.3</ele>
        <time>2023-04-06T12:09:18Z</time>
      </trkpt>
      <trkpt lat="44.31924" lon="5.5736">
        <ele>1096.2</ele>
        <time>2023-04-06T12:09:19Z</time>
      </trkpt>
      <trkpt lat="44.31926" lon="5.57364">
        <ele>1096</ele>
        <time>2023-04-06T12:09:20Z</time>
      </trkpt>
      <trkpt lat="44.31929" lon="5.57371">
        <ele>1095.7</ele>
        <time>2023-04-06T12:09:21Z</time>
      </trkpt>
      <trkpt lat="44.31933" lon="5.57377">
        <ele>1095.3</ele>
        <time>2023-04-06T12:09:22Z</time>
      </trkpt>
      <trkpt lat="44.31938" lon="5.57381">
        <ele>1094.9</ele>
        <time>2023-04-06T12:09:23Z</time>
      </trkpt>
      <trkpt lat="44.31942" lon="5.57387">
        <ele>1094.5</ele>
        <time>2023-04-06T12:09:24Z</time>
      </trkpt>
      <trkpt lat="44.31946" lon="5.57392">
        <ele>1094.2</ele>
        <time>2023-04-06T12:09:25Z</time>
      </trkpt>
      <trkpt lat="44.3195" lon="5.57398">
        <ele>1093.8</ele>
        <time>2023-04-06T12:09:26Z</time>
      </trkpt>
      <trkpt lat="44.31954" lon="5.57404">
        <ele>1093.4</ele>
        <time>2023-04-06T12:09:27Z</time>
      </trkpt>
      <trkpt lat="44.31959" lon="5.57409">
        <ele>1093</ele>
        <time>2023-04-06T12:09:28Z</time>
      </trkpt>
      <trkpt lat="44.31963" lon="5.57415">
        <ele>1092.5</ele>
        <time>2023-04-06T12:09:29Z</time>
      </trkpt>
      <trkpt lat="44.31968" lon="5.57421">
        <ele>1091.9</ele>
        <time>2023-04-06T12:09:30Z</time>
      </trkpt>
      <trkpt lat="44.31974" lon="5.57427">
        <ele>1091.3</ele>
        <time>2023-04-06T12:09:31Z</time>
      </trkpt>
      <trkpt lat="44.3198" lon="5.57432">
        <ele>1090.5</ele>
        <time>2023-04-06T12:09:32Z</time>
      </trkpt>
      <trkpt lat="44.31986" lon="5.57436">
        <ele>1089.9</ele>
        <time>2023-04-06T12:09:33Z</time>
      </trkpt>
      <trkpt lat="44.31992" lon="5.5744">
        <ele>1089.2</ele>
        <time>2023-04-06T12:09:34Z</time>
      </trkpt>
      <trkpt lat="44.31998" lon="5.57444">
        <ele>1088.6</ele>
        <time>2023-04-06T12:09:35Z</time>
      </trkpt>
      <trkpt lat="44.32005" lon="5.57446">
        <ele>1088</ele>
        <time>2023-04-06T12:09:36Z</time>
      </trkpt>
      <trkpt lat="44.32011" lon="5.57448">
        <ele>1087.4</ele>
        <time>2023-04-06T12:09:37Z</time>
      </trkpt>
      <trkpt lat="44.32018" lon="5.57449">
        <ele>1086.7</ele>
        <time>2023-04-06T12:09:38Z</time>
      </trkpt>
      <trkpt lat="44.32026" lon="5.5745">
        <ele>1085.9</ele>
        <time>2023-04-06T12:09:39Z</time>
      </trkpt>
      <trkpt lat="44.32036" lon="5.57451">
        <ele>1085</ele>
        <time>2023-04-06T12:09:40Z</time>
      </trkpt>
      <trkpt lat="44.32047" lon="5.57451">
        <ele>1083.8</ele>
        <time>2023-04-06T12:09:41Z</time>
      </trkpt>
      <trkpt lat="44.32058" lon="5.5745">
        <ele>1082.6</ele>
        <time>2023-04-06T12:09:42Z</time>
      </trkpt>
      <trkpt lat="44.32069" lon="5.57449">
        <ele>1081.6</ele>
        <time>2023-04-06T12:09:43Z</time>
      </trkpt>
      <trkpt lat="44.32079" lon="5.57449">
        <ele>1080.9</ele>
        <time>2023-04-06T12:09:44Z</time>
      </trkpt>
      <trkpt lat="44.321" lon="5.57444">
        <ele>1079.9</ele>
        <time>2023-04-06T12:09:46Z</time>
      </trkpt>
      <trkpt lat="44.32111" lon="5.57441">
        <ele>1079.5</ele>
        <time>2023-04-06T12:09:47Z</time>
      </trkpt>
      <trkpt lat="44.3212" lon="5.57438">
        <ele>1079.3</ele>
        <time>2023-04-06T12:09:48Z</time>
      </trkpt>
      <trkpt lat="44.3213" lon="5.57436">
        <ele>1079.3</ele>
        <time>2023-04-06T12:09:49Z</time>
      </trkpt>
      <trkpt lat="44.32139" lon="5.57434">
        <ele>1079.6</ele>
        <time>2023-04-06T12:09:50Z</time>
      </trkpt>
      <trkpt lat="44.32147" lon="5.57434">
        <ele>1080.1</ele>
        <time>2023-04-06T12:09:51Z</time>
      </trkpt>
      <trkpt lat="44.32155" lon="5.57434">
        <ele>1080.9</ele>
        <time>2023-04-06T12:09:52Z</time>
      </trkpt>
      <trkpt lat="44.32161" lon="5.57434">
        <ele>1081.7</ele>
        <time>2023-04-06T12:09:53Z</time>
      </trkpt>
      <trkpt lat="44.32165" lon="5.57436">
        <ele>1082.4</ele>
        <time>2023-04-06T12:09:54Z</time>
      </trkpt>
      <trkpt lat="44.32169" lon="5.57438">
        <ele>1083.1</ele>
        <time>2023-04-06T12:09:55Z</time>
      </trkpt>
      <trkpt lat="44.32173" lon="5.5744">
        <ele>1083.8</ele>
        <time>2023-04-06T12:09:56Z</time>
      </trkpt>
      <trkpt lat="44.32176" lon="5.57442">
        <ele>1084.5</ele>
        <time>2023-04-06T12:09:57Z</time>
      </trkpt>
      <trkpt lat="44.32179" lon="5.57445">
        <ele>1085.3</ele>
        <time>2023-04-06T12:09:58Z</time>
      </trkpt>
      <trkpt lat="44.32183" lon="5.57447">
        <ele>1086.1</ele>
        <time>2023-04-06T12:09:59Z</time>
      </trkpt>
      <trkpt lat="44.32186" lon="5.57449">
        <ele>1086.9</ele>
        <time>2023-04-06T12:10:00Z</time>
      </trkpt>
      <trkpt lat="44.32191" lon="5.57454">
        <ele>1088.4</ele>
        <time>2023-04-06T12:10:02Z</time>
      </trkpt>
      <trkpt lat="44.32194" lon="5.57454">
        <ele>1089.1</ele>
        <time>2023-04-06T12:10:03Z</time>
      </trkpt>
      <trkpt lat="44.32197" lon="5.57455">
        <ele>1089.7</ele>
        <time>2023-04-06T12:10:04Z</time>
      </trkpt>
      <trkpt lat="44.322" lon="5.57456">
        <ele>1090.5</ele>
        <time>2023-04-06T12:10:05Z</time>
      </trkpt>
      <trkpt lat="44.32203" lon="5.57457">
        <ele>1091.2</ele>
        <time>2023-04-06T12:10:06Z</time>
      </trkpt>
      <trkpt lat="44.32209" lon="5.57459">
        <ele>1092.6</ele>
        <time>2023-04-06T12:10:08Z</time>
      </trkpt>
      <trkpt lat="44.32213" lon="5.5746">
        <ele>1093.3</ele>
        <time>2023-04-06T12:10:09Z</time>
      </trkpt>
      <trkpt lat="44.32216" lon="5.57462">
        <ele>1094</ele>
        <time>2023-04-06T12:10:10Z</time>
      </trkpt>
      <trkpt lat="44.32218" lon="5.57465">
        <ele>1094.7</ele>
        <time>2023-04-06T12:10:11Z</time>
      </trkpt>
      <trkpt lat="44.3222" lon="5.57467">
        <ele>1095.3</ele>
        <time>2023-04-06T12:10:12Z</time>
      </trkpt>
      <trkpt lat="44.32223" lon="5.57474">
        <ele>1096.5</ele>
        <time>2023-04-06T12:10:14Z</time>
      </trkpt>
      <trkpt lat="44.32224" lon="5.57477">
        <ele>1097.1</ele>
        <time>2023-04-06T12:10:15Z</time>
      </trkpt>
      <trkpt lat="44.32226" lon="5.57482">
        <ele>1098</ele>
        <time>2023-04-06T12:10:16Z</time>
      </trkpt>
      <trkpt lat="44.32226" lon="5.57484">
        <ele>1098.3</ele>
        <time>2023-04-06T12:10:17Z</time>
      </trkpt>
      <trkpt lat="44.32228" lon="5.57488">
        <ele>1099</ele>
        <time>2023-04-06T12:10:18Z</time>
      </trkpt>
      <trkpt lat="44.32229" lon="5.57491">
        <ele>1099.6</ele>
        <time>2023-04-06T12:10:19Z</time>
      </trkpt>
      <trkpt lat="44.32233" lon="5.57494">
        <ele>1100.4</ele>
        <time>2023-04-06T12:10:20Z</time>
      </trkpt>
      <trkpt lat="44.32234" lon="5.57495">
        <ele>1100.7</ele>
        <time>2023-04-06T12:10:21Z</time>
      </trkpt>
      <trkpt lat="44.32237" lon="5.57496">
        <ele>1101.4</ele>
        <time>2023-04-06T12:10:22Z</time>
      </trkpt>
      <trkpt lat="44.3224" lon="5.57498">
        <ele>1102</ele>
        <time>2023-04-06T12:10:23Z</time>
      </trkpt>
      <trkpt lat="44.32246" lon="5.57502">
        <ele>1103.3</ele>
        <time>2023-04-06T12:10:25Z</time>
      </trkpt>
      <trkpt lat="44.32249" lon="5.57503">
        <ele>1104</ele>
        <time>2023-04-06T12:10:26Z</time>
      </trkpt>
      <trkpt lat="44.32252" lon="5.57504">
        <ele>1104.6</ele>
        <time>2023-04-06T12:10:27Z</time>
      </trkpt>
      <trkpt lat="44.32256" lon="5.57506">
        <ele>1105.3</ele>
        <time>2023-04-06T12:10:28Z</time>
      </trkpt>
      <trkpt lat="44.32257" lon="5.57507">
        <ele>1105.6</ele>
        <time>2023-04-06T12:10:29Z</time>
      </trkpt>
      <trkpt lat="44.32264" lon="5.57511">
        <ele>1107.1</ele>
        <time>2023-04-06T12:10:31Z</time>
      </trkpt>
      <trkpt lat="44.32265" lon="5.57511">
        <ele>1107.4</ele>
        <time>2023-04-06T12:10:32Z</time>
      </trkpt>
      <trkpt lat="44.32267" lon="5.57513">
        <ele>1108</ele>
        <time>2023-04-06T12:10:33Z</time>
      </trkpt>
      <trkpt lat="44.3227" lon="5.57514">
        <ele>1108.6</ele>
        <time>2023-04-06T12:10:34Z</time>
      </trkpt>
      <trkpt lat="44.32273" lon="5.57516">
        <ele>1109.3</ele>
        <time>2023-04-06T12:10:35Z</time>
      </trkpt>
      <trkpt lat="44.32275" lon="5.57516">
        <ele>1109.6</ele>
        <time>2023-04-06T12:10:36Z</time>
      </trkpt>
      <trkpt lat="44.32278" lon="5.57518">
        <ele>1110.4</ele>
        <time>2023-04-06T12:10:37Z</time>
      </trkpt>
      <trkpt lat="44.32279" lon="5.57519">
        <ele>1110.6</ele>
        <time>2023-04-06T12:10:38Z</time>
      </trkpt>
      <trkpt lat="44.32282" lon="5.5752">
        <ele>1111.8</ele>
        <time>2023-04-06T12:10:39Z</time>
      </trkpt>
      <trkpt lat="44.32283" lon="5.57521">
        <ele>1112</ele>
        <time>2023-04-06T12:10:40Z</time>
      </trkpt>
      <trkpt lat="44.32288" lon="5.5752">
        <ele>1112.9</ele>
        <time>2023-04-06T12:10:42Z</time>
      </trkpt>
      <trkpt lat="44.32291" lon="5.5752">
        <ele>1113.4</ele>
        <time>2023-04-06T12:10:43Z</time>
      </trkpt>
      <trkpt lat="44.32294" lon="5.57522">
        <ele>1114.1</ele>
        <time>2023-04-06T12:10:44Z</time>
      </trkpt>
      <trkpt lat="44.32296" lon="5.57523">
        <ele>1114.3</ele>
        <time>2023-04-06T12:10:45Z</time>
      </trkpt>
      <trkpt lat="44.32298" lon="5.57525">
        <ele>1114.9</ele>
        <time>2023-04-06T12:10:46Z</time>
      </trkpt>
      <trkpt lat="44.32299" lon="5.57525">
        <ele>1115.1</ele>
        <time>2023-04-06T12:10:47Z</time>
      </trkpt>
      <trkpt lat="44.32302" lon="5.57525">
        <ele>1115.6</ele>
        <time>2023-04-06T12:10:48Z</time>
      </trkpt>
      <trkpt lat="44.32303" lon="5.57526">
        <ele>1115.8</ele>
        <time>2023-04-06T12:10:49Z</time>
      </trkpt>
      <trkpt lat="44.32307" lon="5.57527">
        <ele>1116.4</ele>
        <time>2023-04-06T12:10:50Z</time>
      </trkpt>
      <trkpt lat="44.32308" lon="5.57527">
        <ele>1116.5</ele>
        <time>2023-04-06T12:10:51Z</time>
      </trkpt>
      <trkpt lat="44.32313" lon="5.57528">
        <ele>1117.3</ele>
        <time>2023-04-06T12:10:53Z</time>
      </trkpt>
      <trkpt lat="44.32316" lon="5.57528">
        <ele>1117.9</ele>
        <time>2023-04-06T12:10:54Z</time>
      </trkpt>
      <trkpt lat="44.32317" lon="5.57529">
        <ele>1118</ele>
        <time>2023-04-06T12:10:55Z</time>
      </trkpt>
      <trkpt lat="44.32321" lon="5.57529">
        <ele>1118.6</ele>
        <time>2023-04-06T12:10:56Z</time>
      </trkpt>
      <trkpt lat="44.32322" lon="5.57529">
        <ele>1118.7</ele>
        <time>2023-04-06T12:10:57Z</time>
      </trkpt>
      <trkpt lat="44.32326" lon="5.57529">
        <ele>1119.4</ele>
        <time>2023-04-06T12:10:59Z</time>
      </trkpt>
      <trkpt lat="44.32329" lon="5.57529">
        <ele>1119.9</ele>
        <time>2023-04-06T12:11:00Z</time>
      </trkpt>
      <trkpt lat="44.3233" lon="5.57529">
        <ele>1120</ele>
        <time>2023-04-06T12:11:01Z</time>
      </trkpt>
      <trkpt lat="44.32333" lon="5.57529">
        <ele>1120.5</ele>
        <time>2023-04-06T12:11:02Z</time>
      </trkpt>
      <trkpt lat="44.32334" lon="5.57529">
        <ele>1120.7</ele>
        <time>2023-04-06T12:11:03Z</time>
      </trkpt>
      <trkpt lat="44.32337" lon="5.57529">
        <ele>1121.2</ele>
        <time>2023-04-06T12:11:04Z</time>
      </trkpt>
      <trkpt lat="44.32339" lon="5.57529">
        <ele>1121.3</ele>
        <time>2023-04-06T12:11:05Z</time>
      </trkpt>
      <trkpt lat="44.32342" lon="5.57527">
        <ele>1121.9</ele>
        <time>2023-04-06T12:11:06Z</time>
      </trkpt>
      <trkpt lat="44.32343" lon="5.57527">
        <ele>1122.1</ele>
        <time>2023-04-06T12:11:07Z</time>
      </trkpt>
      <trkpt lat="44.32347" lon="5.57526">
        <ele>1122.7</ele>
        <time>2023-04-06T12:11:08Z</time>
      </trkpt>
      <trkpt lat="44.32348" lon="5.57526">
        <ele>1122.8</ele>
        <time>2023-04-06T12:11:09Z</time>
      </trkpt>
      <trkpt lat="44.32351" lon="5.57527">
        <ele>1123.2</ele>
        <time>2023-04-06T12:11:10Z</time>
      </trkpt>
      <trkpt lat="44.32352" lon="5.57527">
        <ele>1123.3</ele>
        <time>2023-04-06T12:11:11Z</time>
      </trkpt>
      <trkpt lat="44.32355" lon="5.57527">
        <ele>1123.7</ele>
        <time>2023-04-06T12:11:12Z</time>
      </trkpt>
      <trkpt lat="44.32356" lon="5.57527">
        <ele>1123.8</ele>
        <time>2023-04-06T12:11:13Z</time>
      </trkpt>
      <trkpt lat="44.32359" lon="5.57527">
        <ele>1124.2</ele>
        <time>2023-04-06T12:11:14Z</time>
      </trkpt>
      <trkpt lat="44.3236" lon="5.57527">
        <ele>1124.3</ele>
        <time>2023-04-06T12:11:15Z</time>
      </trkpt>
      <trkpt lat="44.32363" lon="5.57527">
        <ele>1124.6</ele>
        <time>2023-04-06T12:11:16Z</time>
      </trkpt>
      <trkpt lat="44.32364" lon="5.57527">
        <ele>1124.7</ele>
        <time>2023-04-06T12:11:17Z</time>
      </trkpt>
      <trkpt lat="44.32367" lon="5.57527">
        <ele>1124.9</ele>
        <time>2023-04-06T12:11:18Z</time>
      </trkpt>
      <trkpt lat="44.32368" lon="5.57527">
        <ele>1125</ele>
        <time>2023-04-06T12:11:19Z</time>
      </trkpt>
      <trkpt lat="44.3237" lon="5.57526">
        <ele>1125.2</ele>
        <time>2023-04-06T12:11:20Z</time>
      </trkpt>
      <trkpt lat="44.32373" lon="5.57522">
        <ele>1125.4</ele>
        <time>2023-04-06T12:11:22Z</time>
      </trkpt>
      <trkpt lat="44.32374" lon="5.5752">
        <ele>1125.6</ele>
        <time>2023-04-06T12:11:23Z</time>
      </trkpt>
      <trkpt lat="44.32376" lon="5.57517">
        <ele>1125.8</ele>
        <time>2023-04-06T12:11:24Z</time>
      </trkpt>
      <trkpt lat="44.32378" lon="5.57513">
        <ele>1126.1</ele>
        <time>2023-04-06T12:11:25Z</time>
      </trkpt>
      <trkpt lat="44.32379" lon="5.57511">
        <ele>1126.3</ele>
        <time>2023-04-06T12:11:26Z</time>
      </trkpt>
      <trkpt lat="44.3238" lon="5.57508">
        <ele>1126.5</ele>
        <time>2023-04-06T12:11:27Z</time>
      </trkpt>
      <trkpt lat="44.32381" lon="5.57504">
        <ele>1126.8</ele>
        <time>2023-04-06T12:11:28Z</time>
      </trkpt>
      <trkpt lat="44.32383" lon="5.57499">
        <ele>1127.2</ele>
        <time>2023-04-06T12:11:29Z</time>
      </trkpt>
      <trkpt lat="44.32383" lon="5.57498">
        <ele>1127.4</ele>
        <time>2023-04-06T12:11:30Z</time>
      </trkpt>
      <trkpt lat="44.32384" lon="5.57496">
        <ele>1127.6</ele>
        <time>2023-04-06T12:11:31Z</time>
      </trkpt>
      <trkpt lat="44.32385" lon="5.57491">
        <ele>1128.1</ele>
        <time>2023-04-06T12:11:33Z</time>
      </trkpt>
      <trkpt lat="44.32387" lon="5.57488">
        <ele>1128.4</ele>
        <time>2023-04-06T12:11:34Z</time>
      </trkpt>
      <trkpt lat="44.32389" lon="5.57484">
        <ele>1128.9</ele>
        <time>2023-04-06T12:11:35Z</time>
      </trkpt>
      <trkpt lat="44.32389" lon="5.57483">
        <ele>1129.1</ele>
        <time>2023-04-06T12:11:36Z</time>
      </trkpt>
      <trkpt lat="44.3239" lon="5.57479">
        <ele>1129.5</ele>
        <time>2023-04-06T12:11:37Z</time>
      </trkpt>
      <trkpt lat="44.32391" lon="5.57477">
        <ele>1129.7</ele>
        <time>2023-04-06T12:11:38Z</time>
      </trkpt>
      <trkpt lat="44.32392" lon="5.57473">
        <ele>1130.1</ele>
        <time>2023-04-06T12:11:39Z</time>
      </trkpt>
      <trkpt lat="44.32392" lon="5.57471">
        <ele>1130.3</ele>
        <time>2023-04-06T12:11:40Z</time>
      </trkpt>
      <trkpt lat="44.32394" lon="5.57467">
        <ele>1130.7</ele>
        <time>2023-04-06T12:11:41Z</time>
      </trkpt>
      <trkpt lat="44.32394" lon="5.57466">
        <ele>1130.8</ele>
        <time>2023-04-06T12:11:42Z</time>
      </trkpt>
      <trkpt lat="44.32396" lon="5.57464">
        <ele>1131</ele>
        <time>2023-04-06T12:11:43Z</time>
      </trkpt>
      <trkpt lat="44.32397" lon="5.57463">
        <ele>1131.2</ele>
        <time>2023-04-06T12:11:44Z</time>
      </trkpt>
      <trkpt lat="44.32399" lon="5.57462">
        <ele>1131.4</ele>
        <time>2023-04-06T12:11:45Z</time>
      </trkpt>
      <trkpt lat="44.324" lon="5.57462">
        <ele>1131.6</ele>
        <time>2023-04-06T12:11:46Z</time>
      </trkpt>
      <trkpt lat="44.32403" lon="5.57461">
        <ele>1131.9</ele>
        <time>2023-04-06T12:11:47Z</time>
      </trkpt>
      <trkpt lat="44.32404" lon="5.57461">
        <ele>1132.1</ele>
        <time>2023-04-06T12:11:48Z</time>
      </trkpt>
      <trkpt lat="44.32408" lon="5.57461">
        <ele>1132.4</ele>
        <time>2023-04-06T12:11:49Z</time>
      </trkpt>
      <trkpt lat="44.32409" lon="5.57461">
        <ele>1132.6</ele>
        <time>2023-04-06T12:11:50Z</time>
      </trkpt>
      <trkpt lat="44.32412" lon="5.57461">
        <ele>1133</ele>
        <time>2023-04-06T12:11:51Z</time>
      </trkpt>
      <trkpt lat="44.32414" lon="5.57461">
        <ele>1133.2</ele>
        <time>2023-04-06T12:11:52Z</time>
      </trkpt>
      <trkpt lat="44.32417" lon="5.57462">
        <ele>1133.6</ele>
        <time>2023-04-06T12:11:53Z</time>
      </trkpt>
      <trkpt lat="44.32418" lon="5.57463">
        <ele>1133.8</ele>
        <time>2023-04-06T12:11:54Z</time>
      </trkpt>
      <trkpt lat="44.32421" lon="5.57466">
        <ele>1134.3</ele>
        <time>2023-04-06T12:11:55Z</time>
      </trkpt>
      <trkpt lat="44.32422" lon="5.57467">
        <ele>1134.5</ele>
        <time>2023-04-06T12:11:56Z</time>
      </trkpt>
      <trkpt lat="44.32425" lon="5.57471">
        <ele>1135</ele>
        <time>2023-04-06T12:11:57Z</time>
      </trkpt>
      <trkpt lat="44.32425" lon="5.57472">
        <ele>1135.2</ele>
        <time>2023-04-06T12:11:58Z</time>
      </trkpt>
      <trkpt lat="44.32428" lon="5.57475">
        <ele>1135.7</ele>
        <time>2023-04-06T12:11:59Z</time>
      </trkpt>
      <trkpt lat="44.32429" lon="5.57476">
        <ele>1135.9</ele>
        <time>2023-04-06T12:12:00Z</time>
      </trkpt>
      <trkpt lat="44.32432" lon="5.5748">
        <ele>1136.5</ele>
        <time>2023-04-06T12:12:01Z</time>
      </trkpt>
      <trkpt lat="44.32433" lon="5.57481">
        <ele>1136.7</ele>
        <time>2023-04-06T12:12:02Z</time>
      </trkpt>
      <trkpt lat="44.32435" lon="5.57484">
        <ele>1137.3</ele>
        <time>2023-04-06T12:12:03Z</time>
      </trkpt>
      <trkpt lat="44.32436" lon="5.57485">
        <ele>1137.5</ele>
        <time>2023-04-06T12:12:04Z</time>
      </trkpt>
      <trkpt lat="44.32439" lon="5.57487">
        <ele>1138.3</ele>
        <time>2023-04-06T12:12:05Z</time>
      </trkpt>
      <trkpt lat="44.32441" lon="5.57488">
        <ele>1138.5</ele>
        <time>2023-04-06T12:12:06Z</time>
      </trkpt>
      <trkpt lat="44.32444" lon="5.5749">
        <ele>1139.2</ele>
        <time>2023-04-06T12:12:07Z</time>
      </trkpt>
      <trkpt lat="44.32445" lon="5.5749">
        <ele>1139.5</ele>
        <time>2023-04-06T12:12:08Z</time>
      </trkpt>
      <trkpt lat="44.32448" lon="5.57491">
        <ele>1140.1</ele>
        <time>2023-04-06T12:12:09Z</time>
      </trkpt>
      <trkpt lat="44.32448" lon="5.57492">
        <ele>1140.2</ele>
        <time>2023-04-06T12:12:10Z</time>
      </trkpt>
      <trkpt lat="44.32452" lon="5.57491">
        <ele>1140.9</ele>
        <time>2023-04-06T12:12:11Z</time>
      </trkpt>
      <trkpt lat="44.32453" lon="5.57491">
        <ele>1141.1</ele>
        <time>2023-04-06T12:12:12Z</time>
      </trkpt>
      <trkpt lat="44.32456" lon="5.57491">
        <ele>1141.8</ele>
        <time>2023-04-06T12:12:13Z</time>
      </trkpt>
      <trkpt lat="44.32457" lon="5.57492">
        <ele>1142</ele>
        <time>2023-04-06T12:12:14Z</time>
      </trkpt>
      <trkpt lat="44.32461" lon="5.57493">
        <ele>1142.7</ele>
        <time>2023-04-06T12:12:15Z</time>
      </trkpt>
      <trkpt lat="44.32462" lon="5.57494">
        <ele>1143</ele>
        <time>2023-04-06T12:12:16Z</time>
      </trkpt>
      <trkpt lat="44.32465" lon="5.57497">
        <ele>1143.7</ele>
        <time>2023-04-06T12:12:17Z</time>
      </trkpt>
      <trkpt lat="44.32466" lon="5.57497">
        <ele>1143.9</ele>
        <time>2023-04-06T12:12:18Z</time>
      </trkpt>
      <trkpt lat="44.32468" lon="5.57499">
        <ele>1144.6</ele>
        <time>2023-04-06T12:12:19Z</time>
      </trkpt>
      <trkpt lat="44.32469" lon="5.575">
        <ele>1144.7</ele>
        <time>2023-04-06T12:12:20Z</time>
      </trkpt>
      <trkpt lat="44.32471" lon="5.57502">
        <ele>1145.1</ele>
        <time>2023-04-06T12:12:21Z</time>
      </trkpt>
      <trkpt lat="44.32472" lon="5.57503">
        <ele>1145.5</ele>
        <time>2023-04-06T12:12:22Z</time>
      </trkpt>
      <trkpt lat="44.32475" lon="5.57505">
        <ele>1146.1</ele>
        <time>2023-04-06T12:12:23Z</time>
      </trkpt>
      <trkpt lat="44.32476" lon="5.57505">
        <ele>1146.3</ele>
        <time>2023-04-06T12:12:24Z</time>
      </trkpt>
      <trkpt lat="44.32479" lon="5.57507">
        <ele>1146.9</ele>
        <time>2023-04-06T12:12:25Z</time>
      </trkpt>
      <trkpt lat="44.3248" lon="5.57507">
        <ele>1147.1</ele>
        <time>2023-04-06T12:12:26Z</time>
      </trkpt>
      <trkpt lat="44.32483" lon="5.57509">
        <ele>1147.7</ele>
        <time>2023-04-06T12:12:27Z</time>
      </trkpt>
      <trkpt lat="44.32485" lon="5.57509">
        <ele>1148</ele>
        <time>2023-04-06T12:12:28Z</time>
      </trkpt>
      <trkpt lat="44.32488" lon="5.57511">
        <ele>1148.6</ele>
        <time>2023-04-06T12:12:29Z</time>
      </trkpt>
      <trkpt lat="44.3249" lon="5.57512">
        <ele>1148.9</ele>
        <time>2023-04-06T12:12:30Z</time>
      </trkpt>
      <trkpt lat="44.32493" lon="5.57514">
        <ele>1149.4</ele>
        <time>2023-04-06T12:12:31Z</time>
      </trkpt>
      <trkpt lat="44.32494" lon="5.57514">
        <ele>1149.6</ele>
        <time>2023-04-06T12:12:32Z</time>
      </trkpt>
      <trkpt lat="44.32497" lon="5.57516">
        <ele>1150</ele>
        <time>2023-04-06T12:12:33Z</time>
      </trkpt>
      <trkpt lat="44.32498" lon="5.57517">
        <ele>1150.1</ele>
        <time>2023-04-06T12:12:34Z</time>
      </trkpt>
      <trkpt lat="44.325" lon="5.57519">
        <ele>1150.6</ele>
        <time>2023-04-06T12:12:35Z</time>
      </trkpt>
      <trkpt lat="44.32501" lon="5.57519">
        <ele>1150.7</ele>
        <time>2023-04-06T12:12:36Z</time>
      </trkpt>
      <trkpt lat="44.32504" lon="5.57522">
        <ele>1151.1</ele>
        <time>2023-04-06T12:12:37Z</time>
      </trkpt>
      <trkpt lat="44.32505" lon="5.57522">
        <ele>1151.3</ele>
        <time>2023-04-06T12:12:38Z</time>
      </trkpt>
      <trkpt lat="44.32507" lon="5.57525">
        <ele>1151.6</ele>
        <time>2023-04-06T12:12:39Z</time>
      </trkpt>
      <trkpt lat="44.32508" lon="5.57526">
        <ele>1151.8</ele>
        <time>2023-04-06T12:12:40Z</time>
      </trkpt>
      <trkpt lat="44.3251" lon="5.57529">
        <ele>1152.1</ele>
        <time>2023-04-06T12:12:41Z</time>
      </trkpt>
      <trkpt lat="44.32511" lon="5.5753">
        <ele>1152.2</ele>
        <time>2023-04-06T12:12:42Z</time>
      </trkpt>
      <trkpt lat="44.32512" lon="5.57534">
        <ele>1152.6</ele>
        <time>2023-04-06T12:12:43Z</time>
      </trkpt>
      <trkpt lat="44.32512" lon="5.57535">
        <ele>1152.7</ele>
        <time>2023-04-06T12:12:44Z</time>
      </trkpt>
      <trkpt lat="44.32513" lon="5.57539">
        <ele>1153</ele>
        <time>2023-04-06T12:12:45Z</time>
      </trkpt>
      <trkpt lat="44.32513" lon="5.57541">
        <ele>1153.1</ele>
        <time>2023-04-06T12:12:46Z</time>
      </trkpt>
      <trkpt lat="44.32515" lon="5.57544">
        <ele>1153.4</ele>
        <time>2023-04-06T12:12:47Z</time>
      </trkpt>
      <trkpt lat="44.32515" lon="5.57546">
        <ele>1153.5</ele>
        <time>2023-04-06T12:12:48Z</time>
      </trkpt>
      <trkpt lat="44.32518" lon="5.57548">
        <ele>1153.8</ele>
        <time>2023-04-06T12:12:49Z</time>
      </trkpt>
      <trkpt lat="44.32519" lon="5.5755">
        <ele>1154.2</ele>
        <time>2023-04-06T12:12:50Z</time>
      </trkpt>
      <trkpt lat="44.32521" lon="5.57553">
        <ele>1154.1</ele>
        <time>2023-04-06T12:12:51Z</time>
      </trkpt>
      <trkpt lat="44.32521" lon="5.57553">
        <ele>1154</ele>
        <time>2023-04-06T12:12:52Z</time>
      </trkpt>
      <trkpt lat="44.32522" lon="5.57555">
        <ele>1154</ele>
        <time>2023-04-06T12:12:53Z</time>
      </trkpt>
      <trkpt lat="44.32524" lon="5.57555">
        <ele>1153.9</ele>
        <time>2023-04-06T12:12:54Z</time>
      </trkpt>
      <trkpt lat="44.32525" lon="5.57555">
        <ele>1153.8</ele>
        <time>2023-04-06T12:12:55Z</time>
      </trkpt>
      <trkpt lat="44.32525" lon="5.57555">
        <ele>1153.8</ele>
        <time>2023-04-06T12:12:56Z</time>
      </trkpt>
      <trkpt lat="44.32525" lon="5.57554">
        <ele>1153.8</ele>
        <time>2023-04-06T12:12:57Z</time>
      </trkpt>
      <trkpt lat="44.32525" lon="5.57554">
        <ele>1153.8</ele>
        <time>2023-04-06T12:12:58Z</time>
      </trkpt>
      <trkpt lat="44.32525" lon="5.57553">
        <ele>1153.8</ele>
        <time>2023-04-06T12:12:59Z</time>
      </trkpt>
      <trkpt lat="44.32525" lon="5.57553">
        <ele>1153.7</ele>
        <time>2023-04-06T12:13:00Z</time>
      </trkpt>
      <trkpt lat="44.32525" lon="5.57552">
        <ele>1153.7</ele>
        <time>2023-04-06T12:13:01Z</time>
      </trkpt>
      <trkpt lat="44.32525" lon="5.57552">
        <ele>1153.7</ele>
        <time>2023-04-06T12:13:02Z</time>
      </trkpt>
      <trkpt lat="44.32526" lon="5.57551">
        <ele>1153.7</ele>
        <time>2023-04-06T12:13:03Z</time>
      </trkpt>
      <trkpt lat="44.32526" lon="5.5755">
        <ele>1153.7</ele>
        <time>2023-04-06T12:13:04Z</time>
      </trkpt>
      <trkpt lat="44.32526" lon="5.5755">
        <ele>1153.7</ele>
        <time>2023-04-06T12:13:05Z</time>
      </trkpt>
      <trkpt lat="44.32526" lon="5.57549">
        <ele>1153.6</ele>
        <time>2023-04-06T12:13:06Z</time>
      </trkpt>
      <trkpt lat="44.32526" lon="5.57549">
        <ele>1153.6</ele>
        <time>2023-04-06T12:13:07Z</time>
      </trkpt>
      <trkpt lat="44.32526" lon="5.57548">
        <ele>1153.6</ele>
        <time>2023-04-06T12:13:08Z</time>
      </trkpt>
      <trkpt lat="44.32526" lon="5.57548">
        <ele>1153.6</ele>
        <time>2023-04-06T12:13:09Z</time>
      </trkpt>
      <trkpt lat="44.32526" lon="5.57547">
        <ele>1153.6</ele>
        <time>2023-04-06T12:13:10Z</time>
      </trkpt>
      <trkpt lat="44.32526" lon="5.57547">
        <ele>1153.5</ele>
        <time>2023-04-06T12:13:37Z</time>
      </trkpt>
      <trkpt lat="44.32526" lon="5.57546">
        <ele>1153.5</ele>
        <time>2023-04-06T12:13:38Z</time>
      </trkpt>
      <trkpt lat="44.32526" lon="5.57545">
        <ele>1153.5</ele>
        <time>2023-04-06T12:13:39Z</time>
      </trkpt>
      <trkpt lat="44.32527" lon="5.57541">
        <ele>1153.3</ele>
        <time>2023-04-06T12:13:40Z</time>
      </trkpt>
      <trkpt lat="44.32527" lon="5.5754">
        <ele>1153.3</ele>
        <time>2023-04-06T12:13:41Z</time>
      </trkpt>
      <trkpt lat="44.32529" lon="5.57536">
        <ele>1153.2</ele>
        <time>2023-04-06T12:13:42Z</time>
      </trkpt>
      <trkpt lat="44.32529" lon="5.57535">
        <ele>1153.1</ele>
        <time>2023-04-06T12:13:43Z</time>
      </trkpt>
      <trkpt lat="44.32531" lon="5.57531">
        <ele>1153</ele>
        <time>2023-04-06T12:13:44Z</time>
      </trkpt>
      <trkpt lat="44.32531" lon="5.5753">
        <ele>1152.9</ele>
        <time>2023-04-06T12:13:45Z</time>
      </trkpt>
      <trkpt lat="44.32533" lon="5.57526">
        <ele>1152.8</ele>
        <time>2023-04-06T12:13:46Z</time>
      </trkpt>
      <trkpt lat="44.32534" lon="5.57524">
        <ele>1152.7</ele>
        <time>2023-04-06T12:13:47Z</time>
      </trkpt>
      <trkpt lat="44.32535" lon="5.57521">
        <ele>1152.6</ele>
        <time>2023-04-06T12:13:48Z</time>
      </trkpt>
      <trkpt lat="44.32536" lon="5.5752">
        <ele>1152.5</ele>
        <time>2023-04-06T12:13:49Z</time>
      </trkpt>
      <trkpt lat="44.32538" lon="5.57516">
        <ele>1152.4</ele>
        <time>2023-04-06T12:13:50Z</time>
      </trkpt>
      <trkpt lat="44.32538" lon="5.57515">
        <ele>1152.3</ele>
        <time>2023-04-06T12:13:51Z</time>
      </trkpt>
      <trkpt lat="44.3254" lon="5.57511">
        <ele>1152.2</ele>
        <time>2023-04-06T12:13:52Z</time>
      </trkpt>
      <trkpt lat="44.32541" lon="5.5751">
        <ele>1152.1</ele>
        <time>2023-04-06T12:13:53Z</time>
      </trkpt>
      <trkpt lat="44.32543" lon="5.57506">
        <ele>1152</ele>
        <time>2023-04-06T12:13:54Z</time>
      </trkpt>
      <trkpt lat="44.32544" lon="5.57504">
        <ele>1151.9</ele>
        <time>2023-04-06T12:13:55Z</time>
      </trkpt>
      <trkpt lat="44.32545" lon="5.57499">
        <ele>1151.7</ele>
        <time>2023-04-06T12:13:56Z</time>
      </trkpt>
      <trkpt lat="44.32546" lon="5.57498">
        <ele>1151.7</ele>
        <time>2023-04-06T12:13:57Z</time>
      </trkpt>
      <trkpt lat="44.32547" lon="5.57493">
        <ele>1151.5</ele>
        <time>2023-04-06T12:13:58Z</time>
      </trkpt>
      <trkpt lat="44.32548" lon="5.57492">
        <ele>1151.4</ele>
        <time>2023-04-06T12:13:59Z</time>
      </trkpt>
      <trkpt lat="44.32549" lon="5.57489">
        <ele>1151.3</ele>
        <time>2023-04-06T12:14:00Z</time>
      </trkpt>
      <trkpt lat="44.32551" lon="5.57484">
        <ele>1151.1</ele>
        <time>2023-04-06T12:14:02Z</time>
      </trkpt>
      <trkpt lat="44.32551" lon="5.57481">
        <ele>1151</ele>
        <time>2023-04-06T12:14:03Z</time>
      </trkpt>
      <trkpt lat="44.32552" lon="5.57479">
        <ele>1151</ele>
        <time>2023-04-06T12:14:04Z</time>
      </trkpt>
      <trkpt lat="44.32553" lon="5.57477">
        <ele>1150.9</ele>
        <time>2023-04-06T12:14:05Z</time>
      </trkpt>
      <trkpt lat="44.32554" lon="5.57476">
        <ele>1150.8</ele>
        <time>2023-04-06T12:14:06Z</time>
      </trkpt>
      <trkpt lat="44.32557" lon="5.57472">
        <ele>1150.7</ele>
        <time>2023-04-06T12:14:08Z</time>
      </trkpt>
      <trkpt lat="44.32558" lon="5.57471">
        <ele>1150.6</ele>
        <time>2023-04-06T12:14:09Z</time>
      </trkpt>
      <trkpt lat="44.3256" lon="5.57468">
        <ele>1150.4</ele>
        <time>2023-04-06T12:14:10Z</time>
      </trkpt>
      <trkpt lat="44.32561" lon="5.57467">
        <ele>1150.4</ele>
        <time>2023-04-06T12:14:11Z</time>
      </trkpt>
      <trkpt lat="44.32564" lon="5.57464">
        <ele>1150.2</ele>
        <time>2023-04-06T12:14:12Z</time>
      </trkpt>
      <trkpt lat="44.32564" lon="5.57464">
        <ele>1150.2</ele>
        <time>2023-04-06T12:14:13Z</time>
      </trkpt>
      <trkpt lat="44.32567" lon="5.57461">
        <ele>1150</ele>
        <time>2023-04-06T12:14:14Z</time>
      </trkpt>
      <trkpt lat="44.32568" lon="5.5746">
        <ele>1150</ele>
        <time>2023-04-06T12:14:15Z</time>
      </trkpt>
      <trkpt lat="44.3257" lon="5.57458">
        <ele>1149.9</ele>
        <time>2023-04-06T12:14:16Z</time>
      </trkpt>
      <trkpt lat="44.32571" lon="5.57458">
        <ele>1149.8</ele>
        <time>2023-04-06T12:14:17Z</time>
      </trkpt>
      <trkpt lat="44.32574" lon="5.57455">
        <ele>1149.7</ele>
        <time>2023-04-06T12:14:18Z</time>
      </trkpt>
      <trkpt lat="44.32575" lon="5.57454">
        <ele>1149.6</ele>
        <time>2023-04-06T12:14:19Z</time>
      </trkpt>
      <trkpt lat="44.32577" lon="5.57452">
        <ele>1149.5</ele>
        <time>2023-04-06T12:14:20Z</time>
      </trkpt>
      <trkpt lat="44.32578" lon="5.57451">
        <ele>1149.4</ele>
        <time>2023-04-06T12:14:21Z</time>
      </trkpt>
      <trkpt lat="44.32579" lon="5.5745">
        <ele>1149.4</ele>
        <time>2023-04-06T12:14:22Z</time>
      </trkpt>
      <trkpt lat="44.32581" lon="5.57446">
        <ele>1149.2</ele>
        <time>2023-04-06T12:14:24Z</time>
      </trkpt>
      <trkpt lat="44.32583" lon="5.57444">
        <ele>1149.1</ele>
        <time>2023-04-06T12:14:25Z</time>
      </trkpt>
      <trkpt lat="44.32585" lon="5.5744">
        <ele>1148.9</ele>
        <time>2023-04-06T12:14:26Z</time>
      </trkpt>
      <trkpt lat="44.32586" lon="5.57438">
        <ele>1148.9</ele>
        <time>2023-04-06T12:14:27Z</time>
      </trkpt>
      <trkpt lat="44.32589" lon="5.57434">
        <ele>1148.7</ele>
        <time>2023-04-06T12:14:28Z</time>
      </trkpt>
      <trkpt lat="44.32589" lon="5.57432">
        <ele>1148.6</ele>
        <time>2023-04-06T12:14:29Z</time>
      </trkpt>
      <trkpt lat="44.32591" lon="5.57428">
        <ele>1148.4</ele>
        <time>2023-04-06T12:14:30Z</time>
      </trkpt>
      <trkpt lat="44.32592" lon="5.57427">
        <ele>1148.4</ele>
        <time>2023-04-06T12:14:31Z</time>
      </trkpt>
      <trkpt lat="44.32594" lon="5.57423">
        <ele>1148.2</ele>
        <time>2023-04-06T12:14:32Z</time>
      </trkpt>
      <trkpt lat="44.32594" lon="5.57422">
        <ele>1148.2</ele>
        <time>2023-04-06T12:14:33Z</time>
      </trkpt>
      <trkpt lat="44.32596" lon="5.57418">
        <ele>1148</ele>
        <time>2023-04-06T12:14:34Z</time>
      </trkpt>
      <trkpt lat="44.32597" lon="5.57417">
        <ele>1148</ele>
        <time>2023-04-06T12:14:35Z</time>
      </trkpt>
      <trkpt lat="44.32599" lon="5.57414">
        <ele>1147.9</ele>
        <time>2023-04-06T12:14:36Z</time>
      </trkpt>
      <trkpt lat="44.326" lon="5.57413">
        <ele>1147.8</ele>
        <time>2023-04-06T12:14:37Z</time>
      </trkpt>
      <trkpt lat="44.32601" lon="5.5741">
        <ele>1147.7</ele>
        <time>2023-04-06T12:14:38Z</time>
      </trkpt>
      <trkpt lat="44.32604" lon="5.57406">
        <ele>1147.5</ele>
        <time>2023-04-06T12:14:40Z</time>
      </trkpt>
      <trkpt lat="44.32605" lon="5.57403">
        <ele>1147.4</ele>
        <time>2023-04-06T12:14:41Z</time>
      </trkpt>
      <trkpt lat="44.32607" lon="5.574">
        <ele>1147.2</ele>
        <time>2023-04-06T12:14:42Z</time>
      </trkpt>
      <trkpt lat="44.32608" lon="5.57398">
        <ele>1147.2</ele>
        <time>2023-04-06T12:14:43Z</time>
      </trkpt>
      <trkpt lat="44.3261" lon="5.57395">
        <ele>1147.1</ele>
        <time>2023-04-06T12:14:44Z</time>
      </trkpt>
      <trkpt lat="44.3261" lon="5.57394">
        <ele>1147</ele>
        <time>2023-04-06T12:14:45Z</time>
      </trkpt>
      <trkpt lat="44.32613" lon="5.57392">
        <ele>1146.8</ele>
        <time>2023-04-06T12:14:46Z</time>
      </trkpt>
      <trkpt lat="44.32614" lon="5.57391">
        <ele>1146.8</ele>
        <time>2023-04-06T12:14:47Z</time>
      </trkpt>
      <trkpt lat="44.32617" lon="5.57388">
        <ele>1146.6</ele>
        <time>2023-04-06T12:14:48Z</time>
      </trkpt>
      <trkpt lat="44.32618" lon="5.57387">
        <ele>1146.6</ele>
        <time>2023-04-06T12:14:49Z</time>
      </trkpt>
      <trkpt lat="44.32621" lon="5.57384">
        <ele>1146.4</ele>
        <time>2023-04-06T12:14:51Z</time>
      </trkpt>
      <trkpt lat="44.32624" lon="5.57382">
        <ele>1146.2</ele>
        <time>2023-04-06T12:14:52Z</time>
      </trkpt>
      <trkpt lat="44.32625" lon="5.57381">
        <ele>1146.2</ele>
        <time>2023-04-06T12:14:53Z</time>
      </trkpt>
      <trkpt lat="44.32628" lon="5.57379">
        <ele>1146</ele>
        <time>2023-04-06T12:14:54Z</time>
      </trkpt>
      <trkpt lat="44.32628" lon="5.57378">
        <ele>1146</ele>
        <time>2023-04-06T12:14:55Z</time>
      </trkpt>
      <trkpt lat="44.32631" lon="5.57375">
        <ele>1145.9</ele>
        <time>2023-04-06T12:14:56Z</time>
      </trkpt>
      <trkpt lat="44.32631" lon="5.57374">
        <ele>1145.8</ele>
        <time>2023-04-06T12:14:57Z</time>
      </trkpt>
      <trkpt lat="44.32634" lon="5.57372">
        <ele>1145.7</ele>
        <time>2023-04-06T12:14:58Z</time>
      </trkpt>
      <trkpt lat="44.32635" lon="5.57372">
        <ele>1145.6</ele>
        <time>2023-04-06T12:14:59Z</time>
      </trkpt>
      <trkpt lat="44.32637" lon="5.57371">
        <ele>1145.5</ele>
        <time>2023-04-06T12:15:00Z</time>
      </trkpt>
      <trkpt lat="44.32641" lon="5.57369">
        <ele>1145.3</ele>
        <time>2023-04-06T12:15:02Z</time>
      </trkpt>
      <trkpt lat="44.32643" lon="5.57368">
        <ele>1145.2</ele>
        <time>2023-04-06T12:15:03Z</time>
      </trkpt>
      <trkpt lat="44.32645" lon="5.57367">
        <ele>1145.1</ele>
        <time>2023-04-06T12:15:04Z</time>
      </trkpt>
      <trkpt lat="44.32646" lon="5.57366">
        <ele>1145.1</ele>
        <time>2023-04-06T12:15:05Z</time>
      </trkpt>
      <trkpt lat="44.32648" lon="5.57363">
        <ele>1145</ele>
        <time>2023-04-06T12:15:06Z</time>
      </trkpt>
      <trkpt lat="44.32652" lon="5.57358">
        <ele>1144.7</ele>
        <time>2023-04-06T12:15:08Z</time>
      </trkpt>
      <trkpt lat="44.32654" lon="5.57356">
        <ele>1144.6</ele>
        <time>2023-04-06T12:15:09Z</time>
      </trkpt>
      <trkpt lat="44.32657" lon="5.57353">
        <ele>1144.4</ele>
        <time>2023-04-06T12:15:10Z</time>
      </trkpt>
      <trkpt lat="44.32658" lon="5.57352">
        <ele>1144.3</ele>
        <time>2023-04-06T12:15:11Z</time>
      </trkpt>
      <trkpt lat="44.3266" lon="5.57349">
        <ele>1144.2</ele>
        <time>2023-04-06T12:15:12Z</time>
      </trkpt>
      <trkpt lat="44.32661" lon="5.57348">
        <ele>1144.2</ele>
        <time>2023-04-06T12:15:13Z</time>
      </trkpt>
      <trkpt lat="44.32663" lon="5.57345">
        <ele>1144</ele>
        <time>2023-04-06T12:15:14Z</time>
      </trkpt>
      <trkpt lat="44.32663" lon="5.57344">
        <ele>1144</ele>
        <time>2023-04-06T12:15:15Z</time>
      </trkpt>
      <trkpt lat="44.32666" lon="5.57341">
        <ele>1143.8</ele>
        <time>2023-04-06T12:15:16Z</time>
      </trkpt>
      <trkpt lat="44.32667" lon="5.5734">
        <ele>1143.8</ele>
        <time>2023-04-06T12:15:17Z</time>
      </trkpt>
      <trkpt lat="44.3267" lon="5.57337">
        <ele>1143.6</ele>
        <time>2023-04-06T12:15:19Z</time>
      </trkpt>
      <trkpt lat="44.32672" lon="5.57334">
        <ele>1143.4</ele>
        <time>2023-04-06T12:15:20Z</time>
      </trkpt>
      <trkpt lat="44.32673" lon="5.57332">
        <ele>1143.4</ele>
        <time>2023-04-06T12:15:21Z</time>
      </trkpt>
      <trkpt lat="44.32675" lon="5.57329">
        <ele>1143.2</ele>
        <time>2023-04-06T12:15:22Z</time>
      </trkpt>
      <trkpt lat="44.32676" lon="5.57329">
        <ele>1143.2</ele>
        <time>2023-04-06T12:15:23Z</time>
      </trkpt>
      <trkpt lat="44.32678" lon="5.57326">
        <ele>1143.1</ele>
        <time>2023-04-06T12:15:24Z</time>
      </trkpt>
      <trkpt lat="44.32679" lon="5.57325">
        <ele>1143</ele>
        <time>2023-04-06T12:15:25Z</time>
      </trkpt>
      <trkpt lat="44.32681" lon="5.57323">
        <ele>1142.9</ele>
        <time>2023-04-06T12:15:26Z</time>
      </trkpt>
      <trkpt lat="44.32682" lon="5.57322">
        <ele>1142.8</ele>
        <time>2023-04-06T12:15:27Z</time>
      </trkpt>
      <trkpt lat="44.32684" lon="5.5732">
        <ele>1142.7</ele>
        <time>2023-04-06T12:15:28Z</time>
      </trkpt>
      <trkpt lat="44.32687" lon="5.57318">
        <ele>1142.6</ele>
        <time>2023-04-06T12:15:30Z</time>
      </trkpt>
      <trkpt lat="44.32688" lon="5.57316">
        <ele>1142.5</ele>
        <time>2023-04-06T12:15:31Z</time>
      </trkpt>
      <trkpt lat="44.3269" lon="5.57313">
        <ele>1142.4</ele>
        <time>2023-04-06T12:15:32Z</time>
      </trkpt>
      <trkpt lat="44.32691" lon="5.57312">
        <ele>1142.3</ele>
        <time>2023-04-06T12:15:33Z</time>
      </trkpt>
      <trkpt lat="44.32693" lon="5.5731">
        <ele>1142.2</ele>
        <time>2023-04-06T12:15:34Z</time>
      </trkpt>
      <trkpt lat="44.32696" lon="5.57308">
        <ele>1142</ele>
        <time>2023-04-06T12:15:36Z</time>
      </trkpt>
      <trkpt lat="44.32697" lon="5.57307">
        <ele>1142</ele>
        <time>2023-04-06T12:15:37Z</time>
      </trkpt>
      <trkpt lat="44.32698" lon="5.57305">
        <ele>1141.9</ele>
        <time>2023-04-06T12:15:38Z</time>
      </trkpt>
      <trkpt lat="44.32699" lon="5.57304">
        <ele>1141.8</ele>
        <time>2023-04-06T12:15:39Z</time>
      </trkpt>
      <trkpt lat="44.32702" lon="5.57301">
        <ele>1141.7</ele>
        <time>2023-04-06T12:15:40Z</time>
      </trkpt>
      <trkpt lat="44.32702" lon="5.573">
        <ele>1141.6</ele>
        <time>2023-04-06T12:15:41Z</time>
      </trkpt>
      <trkpt lat="44.32705" lon="5.57299">
        <ele>1141.5</ele>
        <time>2023-04-06T12:15:42Z</time>
      </trkpt>
      <trkpt lat="44.32706" lon="5.57298">
        <ele>1141.5</ele>
        <time>2023-04-06T12:15:43Z</time>
      </trkpt>
      <trkpt lat="44.32707" lon="5.57297">
        <ele>1141.4</ele>
        <time>2023-04-06T12:15:44Z</time>
      </trkpt>
      <trkpt lat="44.32709" lon="5.57297">
        <ele>1141.3</ele>
        <time>2023-04-06T12:15:45Z</time>
      </trkpt>
      <trkpt lat="44.32709" lon="5.57296">
        <ele>1141.3</ele>
        <time>2023-04-06T12:15:46Z</time>
      </trkpt>
      <trkpt lat="44.32709" lon="5.57296">
        <ele>1141.3</ele>
        <time>2023-04-06T12:15:47Z</time>
      </trkpt>
      <trkpt lat="44.32712" lon="5.57296">
        <ele>1141.1</ele>
        <time>2023-04-06T12:15:48Z</time>
      </trkpt>
      <trkpt lat="44.32714" lon="5.57296">
        <ele>1141.1</ele>
        <time>2023-04-06T12:15:49Z</time>
      </trkpt>
      <trkpt lat="44.32715" lon="5.57296">
        <ele>1141</ele>
        <time>2023-04-06T12:15:50Z</time>
      </trkpt>
      <trkpt lat="44.32716" lon="5.57295">
        <ele>1140.9</ele>
        <time>2023-04-06T12:15:52Z</time>
      </trkpt>
      <trkpt lat="44.32717" lon="5.57295">
        <ele>1140.9</ele>
        <time>2023-04-06T12:15:53Z</time>
      </trkpt>
      <trkpt lat="44.32717" lon="5.57295">
        <ele>1140.9</ele>
        <time>2023-04-06T12:15:54Z</time>
      </trkpt>
      <trkpt lat="44.32717" lon="5.57295">
        <ele>1140.9</ele>
        <time>2023-04-06T12:15:55Z</time>
      </trkpt>
      <trkpt lat="44.32717" lon="5.57295">
        <ele>1140.9</ele>
        <time>2023-04-06T12:15:56Z</time>
      </trkpt>
      <trkpt lat="44.32717" lon="5.57295">
        <ele>1140.9</ele>
        <time>2023-04-06T12:15:58Z</time>
      </trkpt>
      <trkpt lat="44.32718" lon="5.57297">
        <ele>1140.8</ele>
        <time>2023-04-06T12:16:07Z</time>
      </trkpt>
      <trkpt lat="44.32718" lon="5.57297">
        <ele>1140.8</ele>
        <time>2023-04-06T12:16:08Z</time>
      </trkpt>
      <trkpt lat="44.32718" lon="5.57297">
        <ele>1140.8</ele>
        <time>2023-04-06T12:16:09Z</time>
      </trkpt>
      <trkpt lat="44.32718" lon="5.57297">
        <ele>1140.8</ele>
        <time>2023-04-06T12:16:10Z</time>
      </trkpt>
      <trkpt lat="44.32718" lon="5.57297">
        <ele>1140.8</ele>
        <time>2023-04-06T12:16:11Z</time>
      </trkpt>
      <trkpt lat="44.32718" lon="5.57297">
        <ele>1140.8</ele>
        <time>2023-04-06T12:16:12Z</time>
      </trkpt>
      <trkpt lat="44.32718" lon="5.57297">
        <ele>1140.8</ele>
        <time>2023-04-06T12:16:13Z</time>
      </trkpt>
      <trkpt lat="44.32718" lon="5.57297">
        <ele>1140.8</ele>
        <time>2023-04-06T12:16:14Z</time>
      </trkpt>
      <trkpt lat="44.32718" lon="5.57297">
        <ele>1140.8</ele>
        <time>2023-04-06T12:16:15Z</time>
      </trkpt>
      <trkpt lat="44.32718" lon="5.57297">
        <ele>1140.8</ele>
        <time>2023-04-06T12:16:16Z</time>
      </trkpt>
      <trkpt lat="44.32718" lon="5.57297">
        <ele>1140.8</ele>
        <time>2023-04-06T12:16:17Z</time>
      </trkpt>
      <trkpt lat="44.32718" lon="5.57297">
        <ele>1140.8</ele>
        <time>2023-04-06T12:16:18Z</time>
      </trkpt>
      <trkpt lat="44.32718" lon="5.57297">
        <ele>1140.8</ele>
        <time>2023-04-06T12:16:19Z</time>
      </trkpt>
      <trkpt lat="44.32718" lon="5.57297">
        <ele>1140.8</ele>
        <time>2023-04-06T12:16:20Z</time>
      </trkpt>
      <trkpt lat="44.32718" lon="5.57297">
        <ele>1140.8</ele>
        <time>2023-04-06T12:16:21Z</time>
      </trkpt>
      <trkpt lat="44.32718" lon="5.57297">
        <ele>1140.8</ele>
        <time>2023-04-06T12:16:22Z</time>
      </trkpt>
      <trkpt lat="44.32718" lon="5.57297">
        <ele>1140.8</ele>
        <time>2023-04-06T12:16:23Z</time>
      </trkpt>
      <trkpt lat="44.32718" lon="5.57297">
        <ele>1140.8</ele>
        <time>2023-04-06T12:16:24Z</time>
      </trkpt>
      <trkpt lat="44.32718" lon="5.57297">
        <ele>1140.8</ele>
        <time>2023-04-06T12:16:25Z</time>
      </trkpt>
      <trkpt lat="44.32718" lon="5.57297">
        <ele>1140.8</ele>
        <time>2023-04-06T12:16:26Z</time>
      </trkpt>
      <trkpt lat="44.32718" lon="5.57297">
        <ele>1140.8</ele>
        <time>2023-04-06T12:16:27Z</time>
      </trkpt>
      <trkpt lat="44.32718" lon="5.57297">
        <ele>1140.8</ele>
        <time>2023-04-06T12:16:28Z</time>
      </trkpt>
      <trkpt lat="44.32718" lon="5.57297">
        <ele>1140.8</ele>
        <time>2023-04-06T12:16:29Z</time>
      </trkpt>
      <trkpt lat="44.32718" lon="5.57297">
        <ele>1140.8</ele>
        <time>2023-04-06T12:16:30Z</time>
      </trkpt>
      <trkpt lat="44.32718" lon="5.57297">
        <ele>1140.8</ele>
        <time>2023-04-06T12:16:31Z</time>
      </trkpt>
      <trkpt lat="44.32719" lon="5.57296">
        <ele>1140.8</ele>
        <time>2023-04-06T12:16:32Z</time>
      </trkpt>
      <trkpt lat="44.32719" lon="5.57294">
        <ele>1140.7</ele>
        <time>2023-04-06T12:16:33Z</time>
      </trkpt>
      <trkpt lat="44.3272" lon="5.57294">
        <ele>1140.7</ele>
        <time>2023-04-06T12:16:34Z</time>
      </trkpt>
      <trkpt lat="44.32721" lon="5.57294">
        <ele>1140.7</ele>
        <time>2023-04-06T12:16:35Z</time>
      </trkpt>
      <trkpt lat="44.32721" lon="5.57295">
        <ele>1140.6</ele>
        <time>2023-04-06T12:16:36Z</time>
      </trkpt>
      <trkpt lat="44.32722" lon="5.57295">
        <ele>1140.6</ele>
        <time>2023-04-06T12:16:37Z</time>
      </trkpt>
      <trkpt lat="44.32722" lon="5.57296">
        <ele>1140.6</ele>
        <time>2023-04-06T12:16:38Z</time>
      </trkpt>
      <trkpt lat="44.32721" lon="5.57296">
        <ele>1140.6</ele>
        <time>2023-04-06T12:16:39Z</time>
      </trkpt>
      <trkpt lat="44.32721" lon="5.57296">
        <ele>1140.6</ele>
        <time>2023-04-06T12:16:40Z</time>
      </trkpt>
      <trkpt lat="44.32721" lon="5.57296">
        <ele>1140.6</ele>
        <time>2023-04-06T12:16:41Z</time>
      </trkpt>
      <trkpt lat="44.32721" lon="5.57296">
        <ele>1140.6</ele>
        <time>2023-04-06T12:16:42Z</time>
      </trkpt>
      <trkpt lat="44.32721" lon="5.57297">
        <ele>1140.5</ele>
        <time>2023-04-06T12:16:43Z</time>
      </trkpt>
      <trkpt lat="44.3272" lon="5.57298">
        <ele>1140.5</ele>
        <time>2023-04-06T12:16:44Z</time>
      </trkpt>
      <trkpt lat="44.32719" lon="5.57299">
        <ele>1140.4</ele>
        <time>2023-04-06T12:16:45Z</time>
      </trkpt>
      <trkpt lat="44.32719" lon="5.57299">
        <ele>1140.4</ele>
        <time>2023-04-06T12:16:46Z</time>
      </trkpt>
      <trkpt lat="44.32719" lon="5.573">
        <ele>1140.4</ele>
        <time>2023-04-06T12:16:47Z</time>
      </trkpt>
      <trkpt lat="44.32719" lon="5.57299">
        <ele>1140.4</ele>
        <time>2023-04-06T12:16:48Z</time>
      </trkpt>
      <trkpt lat="44.32719" lon="5.573">
        <ele>1140.4</ele>
        <time>2023-04-06T12:16:49Z</time>
      </trkpt>
      <trkpt lat="44.32719" lon="5.573">
        <ele>1140.4</ele>
        <time>2023-04-06T12:16:50Z</time>
      </trkpt>
      <trkpt lat="44.32719" lon="5.573">
        <ele>1140.4</ele>
        <time>2023-04-06T12:16:51Z</time>
      </trkpt>
      <trkpt lat="44.32719" lon="5.573">
        <ele>1140.4</ele>
        <time>2023-04-06T12:16:52Z</time>
      </trkpt>
      <trkpt lat="44.32719" lon="5.573">
        <ele>1140.4</ele>
        <time>2023-04-06T12:16:53Z</time>
      </trkpt>
      <trkpt lat="44.32719" lon="5.573">
        <ele>1140.4</ele>
        <time>2023-04-06T12:16:54Z</time>
      </trkpt>
      <trkpt lat="44.32719" lon="5.573">
        <ele>1140.4</ele>
        <time>2023-04-06T12:16:55Z</time>
      </trkpt>
      <trkpt lat="44.32719" lon="5.573">
        <ele>1140.4</ele>
        <time>2023-04-06T12:16:56Z</time>
      </trkpt>
      <trkpt lat="44.32719" lon="5.57301">
        <ele>1140.3</ele>
        <time>2023-04-06T12:16:57Z</time>
      </trkpt>
      <trkpt lat="44.32729" lon="5.57296">
        <ele>1139.8</ele>
        <time>2023-04-06T12:18:04Z</time>
      </trkpt>
      <trkpt lat="44.3273" lon="5.57294">
        <ele>1139.8</ele>
        <time>2023-04-06T12:18:05Z</time>
      </trkpt>
      <trkpt lat="44.32733" lon="5.57291">
        <ele>1139.6</ele>
        <time>2023-04-06T12:18:07Z</time>
      </trkpt>
      <trkpt lat="44.32734" lon="5.57291">
        <ele>1139.5</ele>
        <time>2023-04-06T12:18:08Z</time>
      </trkpt>
      <trkpt lat="44.32736" lon="5.5729">
        <ele>1139.5</ele>
        <time>2023-04-06T12:18:09Z</time>
      </trkpt>
      <trkpt lat="44.32737" lon="5.57289">
        <ele>1139.4</ele>
        <time>2023-04-06T12:18:10Z</time>
      </trkpt>
      <trkpt lat="44.32738" lon="5.57289">
        <ele>1139.3</ele>
        <time>2023-04-06T12:18:11Z</time>
      </trkpt>
      <trkpt lat="44.32739" lon="5.57288">
        <ele>1139.3</ele>
        <time>2023-04-06T12:18:12Z</time>
      </trkpt>
      <trkpt lat="44.32739" lon="5.57288">
        <ele>1139.3</ele>
        <time>2023-04-06T12:18:13Z</time>
      </trkpt>
      <trkpt lat="44.32739" lon="5.57288">
        <ele>1139.3</ele>
        <time>2023-04-06T12:18:14Z</time>
      </trkpt>
      <trkpt lat="44.32739" lon="5.57289">
        <ele>1139.2</ele>
        <time>2023-04-06T12:18:15Z</time>
      </trkpt>
      <trkpt lat="44.32739" lon="5.57289">
        <ele>1139.2</ele>
        <time>2023-04-06T12:18:16Z</time>
      </trkpt>
      <trkpt lat="44.32739" lon="5.57289">
        <ele>1139.2</ele>
        <time>2023-04-06T12:18:17Z</time>
      </trkpt>
      <trkpt lat="44.3274" lon="5.57289">
        <ele>1139.2</ele>
        <time>2023-04-06T12:18:18Z</time>
      </trkpt>
      <trkpt lat="44.32741" lon="5.5729">
        <ele>1139.1</ele>
        <time>2023-04-06T12:18:19Z</time>
      </trkpt>
      <trkpt lat="44.32741" lon="5.5729">
        <ele>1139.1</ele>
        <time>2023-04-06T12:18:20Z</time>
      </trkpt>
      <trkpt lat="44.32742" lon="5.5729">
        <ele>1139.1</ele>
        <time>2023-04-06T12:18:21Z</time>
      </trkpt>
      <trkpt lat="44.32743" lon="5.5729">
        <ele>1139</ele>
        <time>2023-04-06T12:18:23Z</time>
      </trkpt>
      <trkpt lat="44.32743" lon="5.57289">
        <ele>1139</ele>
        <time>2023-04-06T12:18:24Z</time>
      </trkpt>
      <trkpt lat="44.32744" lon="5.57289">
        <ele>1139</ele>
        <time>2023-04-06T12:18:25Z</time>
      </trkpt>
      <trkpt lat="44.32745" lon="5.57289">
        <ele>1138.9</ele>
        <time>2023-04-06T12:18:26Z</time>
      </trkpt>
      <trkpt lat="44.32746" lon="5.57288">
        <ele>1138.9</ele>
        <time>2023-04-06T12:18:27Z</time>
      </trkpt>
      <trkpt lat="44.32746" lon="5.57288">
        <ele>1138.9</ele>
        <time>2023-04-06T12:18:28Z</time>
      </trkpt>
      <trkpt lat="44.32746" lon="5.57287">
        <ele>1138.9</ele>
        <time>2023-04-06T12:18:29Z</time>
      </trkpt>
      <trkpt lat="44.32746" lon="5.57287">
        <ele>1138.8</ele>
        <time>2023-04-06T12:18:30Z</time>
      </trkpt>
      <trkpt lat="44.32746" lon="5.57287">
        <ele>1138.8</ele>
        <time>2023-04-06T12:18:31Z</time>
      </trkpt>
      <trkpt lat="44.32746" lon="5.57286">
        <ele>1138.8</ele>
        <time>2023-04-06T12:18:32Z</time>
      </trkpt>
      <trkpt lat="44.32746" lon="5.57286">
        <ele>1138.8</ele>
        <time>2023-04-06T12:18:34Z</time>
      </trkpt>
      <trkpt lat="44.32747" lon="5.57286">
        <ele>1138.8</ele>
        <time>2023-04-06T12:18:35Z</time>
      </trkpt>
      <trkpt lat="44.32747" lon="5.57286">
        <ele>1138.8</ele>
        <time>2023-04-06T12:18:36Z</time>
      </trkpt>
      <trkpt lat="44.32748" lon="5.57286">
        <ele>1138.7</ele>
        <time>2023-04-06T12:18:37Z</time>
      </trkpt>
      <trkpt lat="44.32749" lon="5.57286">
        <ele>1138.7</ele>
        <time>2023-04-06T12:18:38Z</time>
      </trkpt>
      <trkpt lat="44.3275" lon="5.57285">
        <ele>1138.6</ele>
        <time>2023-04-06T12:18:39Z</time>
      </trkpt>
      <trkpt lat="44.3275" lon="5.57285">
        <ele>1138.6</ele>
        <time>2023-04-06T12:18:40Z</time>
      </trkpt>
      <trkpt lat="44.3275" lon="5.57285">
        <ele>1138.6</ele>
        <time>2023-04-06T12:18:41Z</time>
      </trkpt>
      <trkpt lat="44.32752" lon="5.57284">
        <ele>1138.5</ele>
        <time>2023-04-06T12:18:42Z</time>
      </trkpt>
      <trkpt lat="44.32753" lon="5.57283">
        <ele>1138.5</ele>
        <time>2023-04-06T12:18:43Z</time>
      </trkpt>
      <trkpt lat="44.32755" lon="5.57281">
        <ele>1138.3</ele>
        <time>2023-04-06T12:18:45Z</time>
      </trkpt>
      <trkpt lat="44.32756" lon="5.57281">
        <ele>1138.3</ele>
        <time>2023-04-06T12:18:46Z</time>
      </trkpt>
      <trkpt lat="44.32757" lon="5.5728">
        <ele>1138.2</ele>
        <time>2023-04-06T12:18:47Z</time>
      </trkpt>
      <trkpt lat="44.32758" lon="5.5728">
        <ele>1138.2</ele>
        <time>2023-04-06T12:18:48Z</time>
      </trkpt>
      <trkpt lat="44.32758" lon="5.5728">
        <ele>1138.2</ele>
        <time>2023-04-06T12:18:49Z</time>
      </trkpt>
      <trkpt lat="44.32759" lon="5.57279">
        <ele>1138.1</ele>
        <time>2023-04-06T12:18:50Z</time>
      </trkpt>
      <trkpt lat="44.32761" lon="5.57279">
        <ele>1138.1</ele>
        <time>2023-04-06T12:18:51Z</time>
      </trkpt>
      <trkpt lat="44.32762" lon="5.57278">
        <ele>1138</ele>
        <time>2023-04-06T12:18:52Z</time>
      </trkpt>
      <trkpt lat="44.32763" lon="5.57278">
        <ele>1137.9</ele>
        <time>2023-04-06T12:18:53Z</time>
      </trkpt>
      <trkpt lat="44.32765" lon="5.57278">
        <ele>1137.9</ele>
        <time>2023-04-06T12:18:54Z</time>
      </trkpt>
      <trkpt lat="44.32767" lon="5.57277">
        <ele>1137.8</ele>
        <time>2023-04-06T12:18:56Z</time>
      </trkpt>
      <trkpt lat="44.32768" lon="5.57277">
        <ele>1137.7</ele>
        <time>2023-04-06T12:18:57Z</time>
      </trkpt>
      <trkpt lat="44.32769" lon="5.57276">
        <ele>1137.7</ele>
        <time>2023-04-06T12:18:58Z</time>
      </trkpt>
      <trkpt lat="44.32769" lon="5.57276">
        <ele>1137.7</ele>
        <time>2023-04-06T12:18:59Z</time>
      </trkpt>
      <trkpt lat="44.3277" lon="5.57277">
        <ele>1137.6</ele>
        <time>2023-04-06T12:19:00Z</time>
      </trkpt>
      <trkpt lat="44.32771" lon="5.57277">
        <ele>1137.6</ele>
        <time>2023-04-06T12:19:02Z</time>
      </trkpt>
      <trkpt lat="44.3277" lon="5.57277">
        <ele>1137.6</ele>
        <time>2023-04-06T12:19:03Z</time>
      </trkpt>
      <trkpt lat="44.32771" lon="5.57277">
        <ele>1137.6</ele>
        <time>2023-04-06T12:19:04Z</time>
      </trkpt>
      <trkpt lat="44.32771" lon="5.57277">
        <ele>1137.6</ele>
        <time>2023-04-06T12:19:05Z</time>
      </trkpt>
      <trkpt lat="44.32772" lon="5.57276">
        <ele>1137.5</ele>
        <time>2023-04-06T12:19:06Z</time>
      </trkpt>
      <trkpt lat="44.32776" lon="5.57274">
        <ele>1137.3</ele>
        <time>2023-04-06T12:19:08Z</time>
      </trkpt>
      <trkpt lat="44.3278" lon="5.57273">
        <ele>1137.1</ele>
        <time>2023-04-06T12:19:09Z</time>
      </trkpt>
      <trkpt lat="44.32784" lon="5.57272">
        <ele>1136.9</ele>
        <time>2023-04-06T12:19:10Z</time>
      </trkpt>
      <trkpt lat="44.32789" lon="5.57272">
        <ele>1136.7</ele>
        <time>2023-04-06T12:19:11Z</time>
      </trkpt>
      <trkpt lat="44.32793" lon="5.57271">
        <ele>1136.5</ele>
        <time>2023-04-06T12:19:12Z</time>
      </trkpt>
      <trkpt lat="44.328" lon="5.57271">
        <ele>1136.2</ele>
        <time>2023-04-06T12:19:14Z</time>
      </trkpt>
      <trkpt lat="44.32803" lon="5.57271">
        <ele>1136.1</ele>
        <time>2023-04-06T12:19:15Z</time>
      </trkpt>
      <trkpt lat="44.32807" lon="5.57271">
        <ele>1135.9</ele>
        <time>2023-04-06T12:19:16Z</time>
      </trkpt>
      <trkpt lat="44.32808" lon="5.57271">
        <ele>1135.8</ele>
        <time>2023-04-06T12:19:17Z</time>
      </trkpt>
      <trkpt lat="44.32811" lon="5.57271">
        <ele>1135.7</ele>
        <time>2023-04-06T12:19:18Z</time>
      </trkpt>
      <trkpt lat="44.32815" lon="5.5727">
        <ele>1135.5</ele>
        <time>2023-04-06T12:19:19Z</time>
      </trkpt>
      <trkpt lat="44.32818" lon="5.5727">
        <ele>1135.3</ele>
        <time>2023-04-06T12:19:20Z</time>
      </trkpt>
      <trkpt lat="44.32821" lon="5.57271">
        <ele>1135.2</ele>
        <time>2023-04-06T12:19:21Z</time>
      </trkpt>
      <trkpt lat="44.32825" lon="5.57271">
        <ele>1135</ele>
        <time>2023-04-06T12:19:22Z</time>
      </trkpt>
      <trkpt lat="44.32825" lon="5.57271">
        <ele>1135</ele>
        <time>2023-04-06T12:19:23Z</time>
      </trkpt>
      <trkpt lat="44.32827" lon="5.5727">
        <ele>1134.9</ele>
        <time>2023-04-06T12:19:24Z</time>
      </trkpt>
      <trkpt lat="44.32828" lon="5.5727">
        <ele>1134.9</ele>
        <time>2023-04-06T12:19:25Z</time>
      </trkpt>
      <trkpt lat="44.3283" lon="5.5727">
        <ele>1134.8</ele>
        <time>2023-04-06T12:19:26Z</time>
      </trkpt>
      <trkpt lat="44.32832" lon="5.57269">
        <ele>1134.7</ele>
        <time>2023-04-06T12:19:27Z</time>
      </trkpt>
      <trkpt lat="44.32835" lon="5.57265">
        <ele>1134.5</ele>
        <time>2023-04-06T12:19:28Z</time>
      </trkpt>
      <trkpt lat="44.32836" lon="5.57264">
        <ele>1134.5</ele>
        <time>2023-04-06T12:19:29Z</time>
      </trkpt>
      <trkpt lat="44.32839" lon="5.57262">
        <ele>1134.3</ele>
        <time>2023-04-06T12:19:31Z</time>
      </trkpt>
      <trkpt lat="44.32839" lon="5.57262">
        <ele>1134.3</ele>
        <time>2023-04-06T12:19:32Z</time>
      </trkpt>
      <trkpt lat="44.3284" lon="5.57262">
        <ele>1134.3</ele>
        <time>2023-04-06T12:19:33Z</time>
      </trkpt>
      <trkpt lat="44.3284" lon="5.57261">
        <ele>1134.2</ele>
        <time>2023-04-06T12:19:34Z</time>
      </trkpt>
      <trkpt lat="44.32841" lon="5.5726">
        <ele>1134.2</ele>
        <time>2023-04-06T12:19:35Z</time>
      </trkpt>
      <trkpt lat="44.32842" lon="5.57259">
        <ele>1134.1</ele>
        <time>2023-04-06T12:19:36Z</time>
      </trkpt>
      <trkpt lat="44.32842" lon="5.57258">
        <ele>1134.1</ele>
        <time>2023-04-06T12:19:37Z</time>
      </trkpt>
      <trkpt lat="44.32843" lon="5.57257">
        <ele>1134.1</ele>
        <time>2023-04-06T12:19:38Z</time>
      </trkpt>
      <trkpt lat="44.32843" lon="5.57258">
        <ele>1134</ele>
        <time>2023-04-06T12:19:39Z</time>
      </trkpt>
      <trkpt lat="44.32844" lon="5.57258">
        <ele>1134</ele>
        <time>2023-04-06T12:19:40Z</time>
      </trkpt>
      <trkpt lat="44.32845" lon="5.57258">
        <ele>1133.9</ele>
        <time>2023-04-06T12:19:42Z</time>
      </trkpt>
      <trkpt lat="44.32845" lon="5.57258">
        <ele>1133.9</ele>
        <time>2023-04-06T12:19:43Z</time>
      </trkpt>
      <trkpt lat="44.32846" lon="5.57258">
        <ele>1133.9</ele>
        <time>2023-04-06T12:19:44Z</time>
      </trkpt>
      <trkpt lat="44.32846" lon="5.57258">
        <ele>1133.9</ele>
        <time>2023-04-06T12:19:45Z</time>
      </trkpt>
      <trkpt lat="44.32848" lon="5.57257">
        <ele>1133.8</ele>
        <time>2023-04-06T12:19:46Z</time>
      </trkpt>
      <trkpt lat="44.32851" lon="5.57257">
        <ele>1133.7</ele>
        <time>2023-04-06T12:19:48Z</time>
      </trkpt>
      <trkpt lat="44.32852" lon="5.57257">
        <ele>1133.6</ele>
        <time>2023-04-06T12:19:49Z</time>
      </trkpt>
      <trkpt lat="44.32854" lon="5.57257">
        <ele>1133.5</ele>
        <time>2023-04-06T12:19:50Z</time>
      </trkpt>
      <trkpt lat="44.32857" lon="5.57256">
        <ele>1133.4</ele>
        <time>2023-04-06T12:19:51Z</time>
      </trkpt>
      <trkpt lat="44.32858" lon="5.57256">
        <ele>1133.3</ele>
        <time>2023-04-06T12:19:52Z</time>
      </trkpt>
      <trkpt lat="44.3286" lon="5.57253">
        <ele>1133.2</ele>
        <time>2023-04-06T12:19:53Z</time>
      </trkpt>
      <trkpt lat="44.32861" lon="5.57252">
        <ele>1133.2</ele>
        <time>2023-04-06T12:19:54Z</time>
      </trkpt>
      <trkpt lat="44.32864" lon="5.57248">
        <ele>1133</ele>
        <time>2023-04-06T12:19:55Z</time>
      </trkpt>
      <trkpt lat="44.32865" lon="5.57247">
        <ele>1132.9</ele>
        <time>2023-04-06T12:19:56Z</time>
      </trkpt>
      <trkpt lat="44.32867" lon="5.57244">
        <ele>1132.8</ele>
        <time>2023-04-06T12:19:57Z</time>
      </trkpt>
      <trkpt lat="44.32868" lon="5.57241">
        <ele>1132.6</ele>
        <time>2023-04-06T12:19:58Z</time>
      </trkpt>
      <trkpt lat="44.3287" lon="5.57237">
        <ele>1132.5</ele>
        <time>2023-04-06T12:19:59Z</time>
      </trkpt>
      <trkpt lat="44.32871" lon="5.57236">
        <ele>1132.4</ele>
        <time>2023-04-06T12:20:00Z</time>
      </trkpt>
      <trkpt lat="44.32873" lon="5.57233">
        <ele>1132.3</ele>
        <time>2023-04-06T12:20:01Z</time>
      </trkpt>
      <trkpt lat="44.32874" lon="5.57232">
        <ele>1132.2</ele>
        <time>2023-04-06T12:20:02Z</time>
      </trkpt>
      <trkpt lat="44.32877" lon="5.57231">
        <ele>1132.1</ele>
        <time>2023-04-06T12:20:03Z</time>
      </trkpt>
      <trkpt lat="44.32878" lon="5.57231">
        <ele>1132.1</ele>
        <time>2023-04-06T12:20:04Z</time>
      </trkpt>
      <trkpt lat="44.32879" lon="5.5723">
        <ele>1132</ele>
        <time>2023-04-06T12:20:05Z</time>
      </trkpt>
      <trkpt lat="44.3288" lon="5.5723">
        <ele>1131.9</ele>
        <time>2023-04-06T12:20:06Z</time>
      </trkpt>
      <trkpt lat="44.32881" lon="5.5723">
        <ele>1131.9</ele>
        <time>2023-04-06T12:20:07Z</time>
      </trkpt>
      <trkpt lat="44.32883" lon="5.57231">
        <ele>1131.8</ele>
        <time>2023-04-06T12:20:08Z</time>
      </trkpt>
      <trkpt lat="44.32884" lon="5.57231">
        <ele>1131.8</ele>
        <time>2023-04-06T12:20:09Z</time>
      </trkpt>
      <trkpt lat="44.32884" lon="5.57231">
        <ele>1131.8</ele>
        <time>2023-04-06T12:20:10Z</time>
      </trkpt>
      <trkpt lat="44.32884" lon="5.57231">
        <ele>1131.8</ele>
        <time>2023-04-06T12:20:11Z</time>
      </trkpt>
      <trkpt lat="44.32884" lon="5.57231">
        <ele>1131.8</ele>
        <time>2023-04-06T12:20:12Z</time>
      </trkpt>
      <trkpt lat="44.32884" lon="5.57232">
        <ele>1131.7</ele>
        <time>2023-04-06T12:20:13Z</time>
      </trkpt>
      <trkpt lat="44.32885" lon="5.57232">
        <ele>1131.7</ele>
        <time>2023-04-06T12:20:14Z</time>
      </trkpt>
      <trkpt lat="44.32886" lon="5.57232">
        <ele>1131.6</ele>
        <time>2023-04-06T12:20:15Z</time>
      </trkpt>
      <trkpt lat="44.32886" lon="5.57232">
        <ele>1131.6</ele>
        <time>2023-04-06T12:20:16Z</time>
      </trkpt>
      <trkpt lat="44.32887" lon="5.57233">
        <ele>1131.6</ele>
        <time>2023-04-06T12:20:17Z</time>
      </trkpt>
      <trkpt lat="44.32888" lon="5.57233">
        <ele>1131.6</ele>
        <time>2023-04-06T12:20:18Z</time>
      </trkpt>
      <trkpt lat="44.32889" lon="5.57234">
        <ele>1131.5</ele>
        <time>2023-04-06T12:20:19Z</time>
      </trkpt>
      <trkpt lat="44.3289" lon="5.57235">
        <ele>1131.4</ele>
        <time>2023-04-06T12:20:20Z</time>
      </trkpt>
      <trkpt lat="44.32891" lon="5.57236">
        <ele>1131.4</ele>
        <time>2023-04-06T12:20:21Z</time>
      </trkpt>
      <trkpt lat="44.32893" lon="5.57237">
        <ele>1131.3</ele>
        <time>2023-04-06T12:20:22Z</time>
      </trkpt>
      <trkpt lat="44.32894" lon="5.57237">
        <ele>1131.2</ele>
        <time>2023-04-06T12:20:23Z</time>
      </trkpt>
      <trkpt lat="44.32895" lon="5.57237">
        <ele>1131.2</ele>
        <time>2023-04-06T12:20:24Z</time>
      </trkpt>
      <trkpt lat="44.32899" lon="5.57239">
        <ele>1131</ele>
        <time>2023-04-06T12:20:25Z</time>
      </trkpt>
      <trkpt lat="44.32901" lon="5.57239">
        <ele>1130.9</ele>
        <time>2023-04-06T12:20:26Z</time>
      </trkpt>
      <trkpt lat="44.32904" lon="5.5724">
        <ele>1130.7</ele>
        <time>2023-04-06T12:20:27Z</time>
      </trkpt>
      <trkpt lat="44.32907" lon="5.57242">
        <ele>1130.6</ele>
        <time>2023-04-06T12:20:28Z</time>
      </trkpt>
      <trkpt lat="44.32908" lon="5.57243">
        <ele>1130.6</ele>
        <time>2023-04-06T12:20:29Z</time>
      </trkpt>
      <trkpt lat="44.32909" lon="5.57243">
        <ele>1130.5</ele>
        <time>2023-04-06T12:20:30Z</time>
      </trkpt>
      <trkpt lat="44.32909" lon="5.57243">
        <ele>1130.5</ele>
        <time>2023-04-06T12:20:31Z</time>
      </trkpt>
      <trkpt lat="44.32911" lon="5.57244">
        <ele>1130.4</ele>
        <time>2023-04-06T12:20:32Z</time>
      </trkpt>
      <trkpt lat="44.32914" lon="5.57245">
        <ele>1130.2</ele>
        <time>2023-04-06T12:20:33Z</time>
      </trkpt>
      <trkpt lat="44.32915" lon="5.57246">
        <ele>1130.2</ele>
        <time>2023-04-06T12:20:34Z</time>
      </trkpt>
      <trkpt lat="44.32918" lon="5.57246">
        <ele>1130.1</ele>
        <time>2023-04-06T12:20:35Z</time>
      </trkpt>
      <trkpt lat="44.32922" lon="5.57245">
        <ele>1129.9</ele>
        <time>2023-04-06T12:20:36Z</time>
      </trkpt>
      <trkpt lat="44.32923" lon="5.57245">
        <ele>1129.8</ele>
        <time>2023-04-06T12:20:37Z</time>
      </trkpt>
      <trkpt lat="44.32926" lon="5.57243">
        <ele>1129.7</ele>
        <time>2023-04-06T12:20:38Z</time>
      </trkpt>
      <trkpt lat="44.32927" lon="5.57242">
        <ele>1129.6</ele>
        <time>2023-04-06T12:20:39Z</time>
      </trkpt>
      <trkpt lat="44.3293" lon="5.57239">
        <ele>1129.5</ele>
        <time>2023-04-06T12:20:40Z</time>
      </trkpt>
      <trkpt lat="44.32932" lon="5.57236">
        <ele>1129.3</ele>
        <time>2023-04-06T12:20:41Z</time>
      </trkpt>
      <trkpt lat="44.32932" lon="5.57231">
        <ele>1129.1</ele>
        <time>2023-04-06T12:20:42Z</time>
      </trkpt>
      <trkpt lat="44.32932" lon="5.57229">
        <ele>1129.1</ele>
        <time>2023-04-06T12:20:43Z</time>
      </trkpt>
      <trkpt lat="44.32933" lon="5.57225">
        <ele>1128.9</ele>
        <time>2023-04-06T12:20:44Z</time>
      </trkpt>
      <trkpt lat="44.32934" lon="5.5722">
        <ele>1128.8</ele>
        <time>2023-04-06T12:20:45Z</time>
      </trkpt>
      <trkpt lat="44.32934" lon="5.57218">
        <ele>1128.7</ele>
        <time>2023-04-06T12:20:46Z</time>
      </trkpt>
      <trkpt lat="44.32935" lon="5.57214">
        <ele>1128.5</ele>
        <time>2023-04-06T12:20:47Z</time>
      </trkpt>
      <trkpt lat="44.32936" lon="5.57212">
        <ele>1128.5</ele>
        <time>2023-04-06T12:20:48Z</time>
      </trkpt>
      <trkpt lat="44.32938" lon="5.57207">
        <ele>1128.3</ele>
        <time>2023-04-06T12:20:49Z</time>
      </trkpt>
      <trkpt lat="44.32938" lon="5.57205">
        <ele>1128.2</ele>
        <time>2023-04-06T12:20:50Z</time>
      </trkpt>
      <trkpt lat="44.32941" lon="5.57202">
        <ele>1128.1</ele>
        <time>2023-04-06T12:20:51Z</time>
      </trkpt>
      <trkpt lat="44.32942" lon="5.57201">
        <ele>1128</ele>
        <time>2023-04-06T12:20:52Z</time>
      </trkpt>
      <trkpt lat="44.32944" lon="5.57199">
        <ele>1127.9</ele>
        <time>2023-04-06T12:20:53Z</time>
      </trkpt>
      <trkpt lat="44.32945" lon="5.57198">
        <ele>1127.8</ele>
        <time>2023-04-06T12:20:54Z</time>
      </trkpt>
      <trkpt lat="44.32947" lon="5.57195">
        <ele>1127.7</ele>
        <time>2023-04-06T12:20:55Z</time>
      </trkpt>
      <trkpt lat="44.32948" lon="5.57194">
        <ele>1127.6</ele>
        <time>2023-04-06T12:20:56Z</time>
      </trkpt>
      <trkpt lat="44.3295" lon="5.57192">
        <ele>1127.5</ele>
        <time>2023-04-06T12:20:57Z</time>
      </trkpt>
      <trkpt lat="44.32951" lon="5.57191">
        <ele>1127.5</ele>
        <time>2023-04-06T12:20:58Z</time>
      </trkpt>
      <trkpt lat="44.32953" lon="5.57188">
        <ele>1127.3</ele>
        <time>2023-04-06T12:20:59Z</time>
      </trkpt>
      <trkpt lat="44.32953" lon="5.57187">
        <ele>1127.3</ele>
        <time>2023-04-06T12:21:00Z</time>
      </trkpt>
      <trkpt lat="44.32954" lon="5.57185">
        <ele>1127.2</ele>
        <time>2023-04-06T12:21:01Z</time>
      </trkpt>
      <trkpt lat="44.32955" lon="5.57183">
        <ele>1127.1</ele>
        <time>2023-04-06T12:21:02Z</time>
      </trkpt>
      <trkpt lat="44.32956" lon="5.57181">
        <ele>1127.1</ele>
        <time>2023-04-06T12:21:03Z</time>
      </trkpt>
      <trkpt lat="44.32957" lon="5.57178">
        <ele>1127</ele>
        <time>2023-04-06T12:21:04Z</time>
      </trkpt>
      <trkpt lat="44.32958" lon="5.57175">
        <ele>1126.8</ele>
        <time>2023-04-06T12:21:05Z</time>
      </trkpt>
      <trkpt lat="44.32959" lon="5.57174">
        <ele>1126.8</ele>
        <time>2023-04-06T12:21:06Z</time>
      </trkpt>
      <trkpt lat="44.32961" lon="5.5717">
        <ele>1126.6</ele>
        <time>2023-04-06T12:21:07Z</time>
      </trkpt>
      <trkpt lat="44.32961" lon="5.57168">
        <ele>1126.6</ele>
        <time>2023-04-06T12:21:08Z</time>
      </trkpt>
      <trkpt lat="44.32962" lon="5.57164">
        <ele>1126.4</ele>
        <time>2023-04-06T12:21:09Z</time>
      </trkpt>
      <trkpt lat="44.32962" lon="5.57162">
        <ele>1126.4</ele>
        <time>2023-04-06T12:21:10Z</time>
      </trkpt>
      <trkpt lat="44.32962" lon="5.57157">
        <ele>1126.2</ele>
        <time>2023-04-06T12:21:11Z</time>
      </trkpt>
      <trkpt lat="44.32962" lon="5.57155">
        <ele>1126.1</ele>
        <time>2023-04-06T12:21:12Z</time>
      </trkpt>
      <trkpt lat="44.3296" lon="5.5715">
        <ele>1125.9</ele>
        <time>2023-04-06T12:21:13Z</time>
      </trkpt>
      <trkpt lat="44.32959" lon="5.57149">
        <ele>1125.9</ele>
        <time>2023-04-06T12:21:14Z</time>
      </trkpt>
      <trkpt lat="44.32957" lon="5.57147">
        <ele>1125.7</ele>
        <time>2023-04-06T12:21:15Z</time>
      </trkpt>
      <trkpt lat="44.32954" lon="5.57144">
        <ele>1125.6</ele>
        <time>2023-04-06T12:21:16Z</time>
      </trkpt>
      <trkpt lat="44.32953" lon="5.57143">
        <ele>1125.5</ele>
        <time>2023-04-06T12:21:17Z</time>
      </trkpt>
      <trkpt lat="44.32952" lon="5.57139">
        <ele>1125.4</ele>
        <time>2023-04-06T12:21:18Z</time>
      </trkpt>
      <trkpt lat="44.32952" lon="5.57138">
        <ele>1125.4</ele>
        <time>2023-04-06T12:21:19Z</time>
      </trkpt>
      <trkpt lat="44.32952" lon="5.57132">
        <ele>1125.2</ele>
        <time>2023-04-06T12:21:20Z</time>
      </trkpt>
      <trkpt lat="44.32952" lon="5.5713">
        <ele>1125.1</ele>
        <time>2023-04-06T12:21:21Z</time>
      </trkpt>
      <trkpt lat="44.32951" lon="5.57126">
        <ele>1125</ele>
        <time>2023-04-06T12:21:22Z</time>
      </trkpt>
      <trkpt lat="44.3295" lon="5.57122">
        <ele>1124.8</ele>
        <time>2023-04-06T12:21:23Z</time>
      </trkpt>
      <trkpt lat="44.32949" lon="5.57117">
        <ele>1124.7</ele>
        <time>2023-04-06T12:21:24Z</time>
      </trkpt>
      <trkpt lat="44.32949" lon="5.57116">
        <ele>1124.6</ele>
        <time>2023-04-06T12:21:25Z</time>
      </trkpt>
      <trkpt lat="44.32948" lon="5.57111">
        <ele>1124.5</ele>
        <time>2023-04-06T12:21:26Z</time>
      </trkpt>
      <trkpt lat="44.32948" lon="5.5711">
        <ele>1124.4</ele>
        <time>2023-04-06T12:21:27Z</time>
      </trkpt>
      <trkpt lat="44.32946" lon="5.57107">
        <ele>1124.3</ele>
        <time>2023-04-06T12:21:28Z</time>
      </trkpt>
      <trkpt lat="44.32944" lon="5.57104">
        <ele>1124.1</ele>
        <time>2023-04-06T12:21:29Z</time>
      </trkpt>
      <trkpt lat="44.32942" lon="5.57102">
        <ele>1124</ele>
        <time>2023-04-06T12:21:30Z</time>
      </trkpt>
      <trkpt lat="44.32939" lon="5.57095">
        <ele>1123.8</ele>
        <time>2023-04-06T12:21:32Z</time>
      </trkpt>
      <trkpt lat="44.32938" lon="5.57091">
        <ele>1123.6</ele>
        <time>2023-04-06T12:21:33Z</time>
      </trkpt>
      <trkpt lat="44.32937" lon="5.57087">
        <ele>1123.5</ele>
        <time>2023-04-06T12:21:34Z</time>
      </trkpt>
      <trkpt lat="44.32936" lon="5.57083">
        <ele>1123.3</ele>
        <time>2023-04-06T12:21:35Z</time>
      </trkpt>
      <trkpt lat="44.32936" lon="5.57079">
        <ele>1123.2</ele>
        <time>2023-04-06T12:21:36Z</time>
      </trkpt>
      <trkpt lat="44.32936" lon="5.57073">
        <ele>1123</ele>
        <time>2023-04-06T12:21:38Z</time>
      </trkpt>
      <trkpt lat="44.32935" lon="5.5707">
        <ele>1122.9</ele>
        <time>2023-04-06T12:21:39Z</time>
      </trkpt>
      <trkpt lat="44.32935" lon="5.57065">
        <ele>1122.7</ele>
        <time>2023-04-06T12:21:40Z</time>
      </trkpt>
      <trkpt lat="44.32935" lon="5.57064">
        <ele>1122.7</ele>
        <time>2023-04-06T12:21:41Z</time>
      </trkpt>
      <trkpt lat="44.32936" lon="5.5706">
        <ele>1122.5</ele>
        <time>2023-04-06T12:21:42Z</time>
      </trkpt>
      <trkpt lat="44.32936" lon="5.57058">
        <ele>1122.5</ele>
        <time>2023-04-06T12:21:43Z</time>
      </trkpt>
      <trkpt lat="44.32937" lon="5.57054">
        <ele>1122.3</ele>
        <time>2023-04-06T12:21:44Z</time>
      </trkpt>
      <trkpt lat="44.32938" lon="5.57049">
        <ele>1122.2</ele>
        <time>2023-04-06T12:21:45Z</time>
      </trkpt>
      <trkpt lat="44.32938" lon="5.57048">
        <ele>1122.1</ele>
        <time>2023-04-06T12:21:46Z</time>
      </trkpt>
      <trkpt lat="44.32939" lon="5.57044">
        <ele>1122</ele>
        <time>2023-04-06T12:21:47Z</time>
      </trkpt>
      <trkpt lat="44.3294" lon="5.57042">
        <ele>1121.9</ele>
        <time>2023-04-06T12:21:48Z</time>
      </trkpt>
      <trkpt lat="44.32941" lon="5.57039">
        <ele>1121.8</ele>
        <time>2023-04-06T12:21:49Z</time>
      </trkpt>
      <trkpt lat="44.32943" lon="5.57035">
        <ele>1121.6</ele>
        <time>2023-04-06T12:21:50Z</time>
      </trkpt>
      <trkpt lat="44.32945" lon="5.57031">
        <ele>1121.5</ele>
        <time>2023-04-06T12:21:51Z</time>
      </trkpt>
      <trkpt lat="44.32947" lon="5.57027">
        <ele>1121.3</ele>
        <time>2023-04-06T12:21:52Z</time>
      </trkpt>
      <trkpt lat="44.32949" lon="5.57022">
        <ele>1121.1</ele>
        <time>2023-04-06T12:21:53Z</time>
      </trkpt>
      <trkpt lat="44.3295" lon="5.57018">
        <ele>1121</ele>
        <time>2023-04-06T12:21:54Z</time>
      </trkpt>
      <trkpt lat="44.32951" lon="5.57014">
        <ele>1120.9</ele>
        <time>2023-04-06T12:21:55Z</time>
      </trkpt>
      <trkpt lat="44.32952" lon="5.57011">
        <ele>1120.7</ele>
        <time>2023-04-06T12:21:56Z</time>
      </trkpt>
      <trkpt lat="44.32954" lon="5.57006">
        <ele>1120.5</ele>
        <time>2023-04-06T12:21:57Z</time>
      </trkpt>
      <trkpt lat="44.32955" lon="5.57005">
        <ele>1120.5</ele>
        <time>2023-04-06T12:21:58Z</time>
      </trkpt>
      <trkpt lat="44.32956" lon="5.57">
        <ele>1120.3</ele>
        <time>2023-04-06T12:21:59Z</time>
      </trkpt>
      <trkpt lat="44.32957" lon="5.56999">
        <ele>1120.3</ele>
        <time>2023-04-06T12:22:00Z</time>
      </trkpt>
      <trkpt lat="44.32959" lon="5.56996">
        <ele>1120.1</ele>
        <time>2023-04-06T12:22:01Z</time>
      </trkpt>
      <trkpt lat="44.3296" lon="5.56992">
        <ele>1120</ele>
        <time>2023-04-06T12:22:02Z</time>
      </trkpt>
      <trkpt lat="44.32963" lon="5.56989">
        <ele>1119.8</ele>
        <time>2023-04-06T12:22:03Z</time>
      </trkpt>
      <trkpt lat="44.32965" lon="5.56985">
        <ele>1119.7</ele>
        <time>2023-04-06T12:22:04Z</time>
      </trkpt>
      <trkpt lat="44.32967" lon="5.56981">
        <ele>1119.5</ele>
        <time>2023-04-06T12:22:05Z</time>
      </trkpt>
      <trkpt lat="44.3297" lon="5.56977">
        <ele>1119.3</ele>
        <time>2023-04-06T12:22:06Z</time>
      </trkpt>
      <trkpt lat="44.32973" lon="5.56974">
        <ele>1119.2</ele>
        <time>2023-04-06T12:22:07Z</time>
      </trkpt>
      <trkpt lat="44.32977" lon="5.56968">
        <ele>1118.9</ele>
        <time>2023-04-06T12:22:09Z</time>
      </trkpt>
      <trkpt lat="44.3298" lon="5.56966">
        <ele>1118.7</ele>
        <time>2023-04-06T12:22:10Z</time>
      </trkpt>
      <trkpt lat="44.32983" lon="5.56963">
        <ele>1118.6</ele>
        <time>2023-04-06T12:22:11Z</time>
      </trkpt>
      <trkpt lat="44.32984" lon="5.56963">
        <ele>1118.5</ele>
        <time>2023-04-06T12:22:12Z</time>
      </trkpt>
      <trkpt lat="44.32985" lon="5.56962">
        <ele>1118.4</ele>
        <time>2023-04-06T12:22:13Z</time>
      </trkpt>
      <trkpt lat="44.32986" lon="5.56962">
        <ele>1118.4</ele>
        <time>2023-04-06T12:22:14Z</time>
      </trkpt>
      <trkpt lat="44.32987" lon="5.56961">
        <ele>1118.3</ele>
        <time>2023-04-06T12:22:15Z</time>
      </trkpt>
      <trkpt lat="44.32988" lon="5.5696">
        <ele>1118.3</ele>
        <time>2023-04-06T12:22:16Z</time>
      </trkpt>
      <trkpt lat="44.32988" lon="5.5696">
        <ele>1118.3</ele>
        <time>2023-04-06T12:22:17Z</time>
      </trkpt>
      <trkpt lat="44.32988" lon="5.5696">
        <ele>1118.3</ele>
        <time>2023-04-06T12:22:18Z</time>
      </trkpt>
      <trkpt lat="44.32988" lon="5.5696">
        <ele>1118.3</ele>
        <time>2023-04-06T12:22:20Z</time>
      </trkpt>
      <trkpt lat="44.32988" lon="5.5696">
        <ele>1118.3</ele>
        <time>2023-04-06T12:22:21Z</time>
      </trkpt>
      <trkpt lat="44.32988" lon="5.5696">
        <ele>1118.3</ele>
        <time>2023-04-06T12:22:22Z</time>
      </trkpt>
      <trkpt lat="44.32988" lon="5.5696">
        <ele>1118.3</ele>
        <time>2023-04-06T12:22:23Z</time>
      </trkpt>
      <trkpt lat="44.32988" lon="5.5696">
        <ele>1118.3</ele>
        <time>2023-04-06T12:22:24Z</time>
      </trkpt>
      <trkpt lat="44.32988" lon="5.5696">
        <ele>1118.3</ele>
        <time>2023-04-06T12:22:26Z</time>
      </trkpt>
      <trkpt lat="44.32989" lon="5.56959">
        <ele>1118.3</ele>
        <time>2023-04-06T12:22:27Z</time>
      </trkpt>
      <trkpt lat="44.3299" lon="5.56959">
        <ele>1118.2</ele>
        <time>2023-04-06T12:22:28Z</time>
      </trkpt>
      <trkpt lat="44.32992" lon="5.56958">
        <ele>1118.1</ele>
        <time>2023-04-06T12:22:29Z</time>
      </trkpt>
      <trkpt lat="44.32992" lon="5.56957">
        <ele>1118.1</ele>
        <time>2023-04-06T12:22:30Z</time>
      </trkpt>
      <trkpt lat="44.32993" lon="5.56957">
        <ele>1118</ele>
        <time>2023-04-06T12:22:31Z</time>
      </trkpt>
      <trkpt lat="44.32993" lon="5.56957">
        <ele>1118</ele>
        <time>2023-04-06T12:22:32Z</time>
      </trkpt>
      <trkpt lat="44.32993" lon="5.56957">
        <ele>1118</ele>
        <time>2023-04-06T12:22:33Z</time>
      </trkpt>
      <trkpt lat="44.32993" lon="5.56957">
        <ele>1118</ele>
        <time>2023-04-06T12:22:34Z</time>
      </trkpt>
      <trkpt lat="44.32994" lon="5.56957">
        <ele>1118</ele>
        <time>2023-04-06T12:22:35Z</time>
      </trkpt>
      <trkpt lat="44.32996" lon="5.56957">
        <ele>1117.9</ele>
        <time>2023-04-06T12:22:37Z</time>
      </trkpt>
      <trkpt lat="44.32998" lon="5.56956">
        <ele>1117.8</ele>
        <time>2023-04-06T12:22:38Z</time>
      </trkpt>
      <trkpt lat="44.32999" lon="5.56956">
        <ele>1117.7</ele>
        <time>2023-04-06T12:22:39Z</time>
      </trkpt>
      <trkpt lat="44.32999" lon="5.56955">
        <ele>1117.7</ele>
        <time>2023-04-06T12:22:40Z</time>
      </trkpt>
      <trkpt lat="44.33" lon="5.56955">
        <ele>1117.7</ele>
        <time>2023-04-06T12:22:41Z</time>
      </trkpt>
      <trkpt lat="44.33" lon="5.56954">
        <ele>1117.7</ele>
        <time>2023-04-06T12:22:43Z</time>
      </trkpt>
      <trkpt lat="44.33001" lon="5.56954">
        <ele>1117.6</ele>
        <time>2023-04-06T12:22:44Z</time>
      </trkpt>
      <trkpt lat="44.33002" lon="5.56954">
        <ele>1117.6</ele>
        <time>2023-04-06T12:22:45Z</time>
      </trkpt>
      <trkpt lat="44.33002" lon="5.56953">
        <ele>1117.6</ele>
        <time>2023-04-06T12:22:46Z</time>
      </trkpt>
      <trkpt lat="44.33003" lon="5.56953">
        <ele>1117.6</ele>
        <time>2023-04-06T12:22:47Z</time>
      </trkpt>
      <trkpt lat="44.33006" lon="5.56948">
        <ele>1117.3</ele>
        <time>2023-04-06T12:22:49Z</time>
      </trkpt>
      <trkpt lat="44.33008" lon="5.56945">
        <ele>1117.2</ele>
        <time>2023-04-06T12:22:50Z</time>
      </trkpt>
      <trkpt lat="44.3301" lon="5.56942">
        <ele>1117</ele>
        <time>2023-04-06T12:22:51Z</time>
      </trkpt>
      <trkpt lat="44.33012" lon="5.56939">
        <ele>1116.9</ele>
        <time>2023-04-06T12:22:52Z</time>
      </trkpt>
      <trkpt lat="44.33014" lon="5.56935">
        <ele>1116.8</ele>
        <time>2023-04-06T12:22:53Z</time>
      </trkpt>
      <trkpt lat="44.33018" lon="5.56928">
        <ele>1116.5</ele>
        <time>2023-04-06T12:22:55Z</time>
      </trkpt>
      <trkpt lat="44.33021" lon="5.56924">
        <ele>1116.3</ele>
        <time>2023-04-06T12:22:56Z</time>
      </trkpt>
      <trkpt lat="44.33025" lon="5.56921">
        <ele>1116.1</ele>
        <time>2023-04-06T12:22:57Z</time>
      </trkpt>
      <trkpt lat="44.33028" lon="5.56918">
        <ele>1115.9</ele>
        <time>2023-04-06T12:22:58Z</time>
      </trkpt>
      <trkpt lat="44.33032" lon="5.56914">
        <ele>1115.6</ele>
        <time>2023-04-06T12:22:59Z</time>
      </trkpt>
      <trkpt lat="44.33039" lon="5.56908">
        <ele>1115.3</ele>
        <time>2023-04-06T12:23:01Z</time>
      </trkpt>
      <trkpt lat="44.33043" lon="5.56905">
        <ele>1115.1</ele>
        <time>2023-04-06T12:23:02Z</time>
      </trkpt>
      <trkpt lat="44.33046" lon="5.56902">
        <ele>1114.9</ele>
        <time>2023-04-06T12:23:03Z</time>
      </trkpt>
      <trkpt lat="44.3305" lon="5.569">
        <ele>1114.7</ele>
        <time>2023-04-06T12:23:04Z</time>
      </trkpt>
      <trkpt lat="44.33053" lon="5.56897">
        <ele>1114.5</ele>
        <time>2023-04-06T12:23:05Z</time>
      </trkpt>
      <trkpt lat="44.33057" lon="5.56895">
        <ele>1114.3</ele>
        <time>2023-04-06T12:23:06Z</time>
      </trkpt>
      <trkpt lat="44.3306" lon="5.56892">
        <ele>1114.2</ele>
        <time>2023-04-06T12:23:07Z</time>
      </trkpt>
      <trkpt lat="44.33063" lon="5.5689">
        <ele>1114</ele>
        <time>2023-04-06T12:23:08Z</time>
      </trkpt>
      <trkpt lat="44.33066" lon="5.56887">
        <ele>1113.8</ele>
        <time>2023-04-06T12:23:09Z</time>
      </trkpt>
      <trkpt lat="44.33068" lon="5.56885">
        <ele>1113.7</ele>
        <time>2023-04-06T12:23:10Z</time>
      </trkpt>
      <trkpt lat="44.33074" lon="5.56882">
        <ele>1113.4</ele>
        <time>2023-04-06T12:23:12Z</time>
      </trkpt>
      <trkpt lat="44.33077" lon="5.5688">
        <ele>1113.3</ele>
        <time>2023-04-06T12:23:13Z</time>
      </trkpt>
      <trkpt lat="44.3308" lon="5.56877">
        <ele>1113.1</ele>
        <time>2023-04-06T12:23:14Z</time>
      </trkpt>
      <trkpt lat="44.33083" lon="5.56875">
        <ele>1113</ele>
        <time>2023-04-06T12:23:15Z</time>
      </trkpt>
      <trkpt lat="44.33086" lon="5.56873">
        <ele>1112.8</ele>
        <time>2023-04-06T12:23:16Z</time>
      </trkpt>
      <trkpt lat="44.33089" lon="5.56872">
        <ele>1112.6</ele>
        <time>2023-04-06T12:23:17Z</time>
      </trkpt>
      <trkpt lat="44.33092" lon="5.5687">
        <ele>1112.5</ele>
        <time>2023-04-06T12:23:18Z</time>
      </trkpt>
      <trkpt lat="44.33095" lon="5.56869">
        <ele>1112.3</ele>
        <time>2023-04-06T12:23:19Z</time>
      </trkpt>
      <trkpt lat="44.33098" lon="5.56867">
        <ele>1112.2</ele>
        <time>2023-04-06T12:23:20Z</time>
      </trkpt>
      <trkpt lat="44.331" lon="5.56866">
        <ele>1112.1</ele>
        <time>2023-04-06T12:23:21Z</time>
      </trkpt>
      <trkpt lat="44.33106" lon="5.56862">
        <ele>1111.8</ele>
        <time>2023-04-06T12:23:23Z</time>
      </trkpt>
      <trkpt lat="44.33109" lon="5.56861">
        <ele>1111.7</ele>
        <time>2023-04-06T12:23:24Z</time>
      </trkpt>
      <trkpt lat="44.33111" lon="5.56859">
        <ele>1111.5</ele>
        <time>2023-04-06T12:23:25Z</time>
      </trkpt>
      <trkpt lat="44.33115" lon="5.56857">
        <ele>1111.3</ele>
        <time>2023-04-06T12:23:26Z</time>
      </trkpt>
      <trkpt lat="44.33116" lon="5.56856">
        <ele>1111.3</ele>
        <time>2023-04-06T12:23:27Z</time>
      </trkpt>
      <trkpt lat="44.33118" lon="5.56854">
        <ele>1111.1</ele>
        <time>2023-04-06T12:23:28Z</time>
      </trkpt>
      <trkpt lat="44.33121" lon="5.56852">
        <ele>1111</ele>
        <time>2023-04-06T12:23:29Z</time>
      </trkpt>
      <trkpt lat="44.33123" lon="5.5685">
        <ele>1110.9</ele>
        <time>2023-04-06T12:23:30Z</time>
      </trkpt>
      <trkpt lat="44.33125" lon="5.56848">
        <ele>1110.8</ele>
        <time>2023-04-06T12:23:31Z</time>
      </trkpt>
      <trkpt lat="44.33128" lon="5.56846">
        <ele>1111.5</ele>
        <time>2023-04-06T12:23:32Z</time>
      </trkpt>
      <trkpt lat="44.33134" lon="5.5684">
        <ele>1113</ele>
        <time>2023-04-06T12:23:34Z</time>
      </trkpt>
      <trkpt lat="44.33135" lon="5.5684">
        <ele>1113.2</ele>
        <time>2023-04-06T12:23:35Z</time>
      </trkpt>
      <trkpt lat="44.33137" lon="5.56837">
        <ele>1113.9</ele>
        <time>2023-04-06T12:23:36Z</time>
      </trkpt>
      <trkpt lat="44.3314" lon="5.56835">
        <ele>1114.4</ele>
        <time>2023-04-06T12:23:37Z</time>
      </trkpt>
      <trkpt lat="44.33143" lon="5.56833">
        <ele>1115.2</ele>
        <time>2023-04-06T12:23:38Z</time>
      </trkpt>
      <trkpt lat="44.33144" lon="5.56832">
        <ele>1115.4</ele>
        <time>2023-04-06T12:23:39Z</time>
      </trkpt>
      <trkpt lat="44.33146" lon="5.56829">
        <ele>1116.1</ele>
        <time>2023-04-06T12:23:40Z</time>
      </trkpt>
      <trkpt lat="44.33147" lon="5.56829">
        <ele>1116.3</ele>
        <time>2023-04-06T12:23:41Z</time>
      </trkpt>
      <trkpt lat="44.33151" lon="5.56827">
        <ele>1117</ele>
        <time>2023-04-06T12:23:42Z</time>
      </trkpt>
      <trkpt lat="44.33152" lon="5.56826">
        <ele>1117.2</ele>
        <time>2023-04-06T12:23:43Z</time>
      </trkpt>
      <trkpt lat="44.33157" lon="5.56825">
        <ele>1118</ele>
        <time>2023-04-06T12:23:45Z</time>
      </trkpt>
      <trkpt lat="44.33161" lon="5.56823">
        <ele>1118.5</ele>
        <time>2023-04-06T12:23:46Z</time>
      </trkpt>
      <trkpt lat="44.33162" lon="5.56823">
        <ele>1118.7</ele>
        <time>2023-04-06T12:23:47Z</time>
      </trkpt>
      <trkpt lat="44.33165" lon="5.56822">
        <ele>1119.1</ele>
        <time>2023-04-06T12:23:48Z</time>
      </trkpt>
      <trkpt lat="44.33166" lon="5.56821">
        <ele>1119.3</ele>
        <time>2023-04-06T12:23:49Z</time>
      </trkpt>
      <trkpt lat="44.33169" lon="5.5682">
        <ele>1119.7</ele>
        <time>2023-04-06T12:23:50Z</time>
      </trkpt>
      <trkpt lat="44.3317" lon="5.5682">
        <ele>1119.9</ele>
        <time>2023-04-06T12:23:51Z</time>
      </trkpt>
      <trkpt lat="44.33173" lon="5.56819">
        <ele>1120.3</ele>
        <time>2023-04-06T12:23:52Z</time>
      </trkpt>
      <trkpt lat="44.33174" lon="5.56819">
        <ele>1120.5</ele>
        <time>2023-04-06T12:23:53Z</time>
      </trkpt>
      <trkpt lat="44.33177" lon="5.56819">
        <ele>1120.9</ele>
        <time>2023-04-06T12:23:54Z</time>
      </trkpt>
      <trkpt lat="44.33178" lon="5.56819">
        <ele>1121</ele>
        <time>2023-04-06T12:23:55Z</time>
      </trkpt>
      <trkpt lat="44.33181" lon="5.56819">
        <ele>1121.4</ele>
        <time>2023-04-06T12:23:56Z</time>
      </trkpt>
      <trkpt lat="44.33183" lon="5.56819">
        <ele>1121.5</ele>
        <time>2023-04-06T12:23:57Z</time>
      </trkpt>
      <trkpt lat="44.33184" lon="5.56819">
        <ele>1121.7</ele>
        <time>2023-04-06T12:23:58Z</time>
      </trkpt>
      <trkpt lat="44.33186" lon="5.56819">
        <ele>1121.9</ele>
        <time>2023-04-06T12:23:59Z</time>
      </trkpt>
      <trkpt lat="44.33189" lon="5.56817">
        <ele>1122.3</ele>
        <time>2023-04-06T12:24:00Z</time>
      </trkpt>
      <trkpt lat="44.3319" lon="5.56816">
        <ele>1122.5</ele>
        <time>2023-04-06T12:24:01Z</time>
      </trkpt>
      <trkpt lat="44.33194" lon="5.56814">
        <ele>1122.8</ele>
        <time>2023-04-06T12:24:02Z</time>
      </trkpt>
      <trkpt lat="44.33195" lon="5.56814">
        <ele>1122.9</ele>
        <time>2023-04-06T12:24:03Z</time>
      </trkpt>
      <trkpt lat="44.33199" lon="5.56812">
        <ele>1123.2</ele>
        <time>2023-04-06T12:24:04Z</time>
      </trkpt>
      <trkpt lat="44.332" lon="5.56812">
        <ele>1123.3</ele>
        <time>2023-04-06T12:24:05Z</time>
      </trkpt>
      <trkpt lat="44.33206" lon="5.56809">
        <ele>1123.9</ele>
        <time>2023-04-06T12:24:07Z</time>
      </trkpt>
      <trkpt lat="44.33209" lon="5.56808">
        <ele>1124.1</ele>
        <time>2023-04-06T12:24:08Z</time>
      </trkpt>
      <trkpt lat="44.33212" lon="5.56808">
        <ele>1124.3</ele>
        <time>2023-04-06T12:24:09Z</time>
      </trkpt>
      <trkpt lat="44.33215" lon="5.56807">
        <ele>1124.6</ele>
        <time>2023-04-06T12:24:10Z</time>
      </trkpt>
      <trkpt lat="44.33219" lon="5.56806">
        <ele>1124.9</ele>
        <time>2023-04-06T12:24:11Z</time>
      </trkpt>
      <trkpt lat="44.3322" lon="5.56805">
        <ele>1125</ele>
        <time>2023-04-06T12:24:12Z</time>
      </trkpt>
      <trkpt lat="44.33223" lon="5.56803">
        <ele>1125.3</ele>
        <time>2023-04-06T12:24:13Z</time>
      </trkpt>
      <trkpt lat="44.33226" lon="5.56801">
        <ele>1125.5</ele>
        <time>2023-04-06T12:24:14Z</time>
      </trkpt>
      <trkpt lat="44.3323" lon="5.56798">
        <ele>1125.8</ele>
        <time>2023-04-06T12:24:15Z</time>
      </trkpt>
      <trkpt lat="44.33233" lon="5.56796">
        <ele>1126</ele>
        <time>2023-04-06T12:24:16Z</time>
      </trkpt>
      <trkpt lat="44.33235" lon="5.56794">
        <ele>1126.2</ele>
        <time>2023-04-06T12:24:17Z</time>
      </trkpt>
      <trkpt lat="44.33239" lon="5.56792">
        <ele>1126.4</ele>
        <time>2023-04-06T12:24:18Z</time>
      </trkpt>
      <trkpt lat="44.3324" lon="5.56791">
        <ele>1126.5</ele>
        <time>2023-04-06T12:24:19Z</time>
      </trkpt>
      <trkpt lat="44.33241" lon="5.5679">
        <ele>1126.5</ele>
        <time>2023-04-06T12:24:20Z</time>
      </trkpt>
      <trkpt lat="44.33241" lon="5.56788">
        <ele>1126.6</ele>
        <time>2023-04-06T12:24:21Z</time>
      </trkpt>
      <trkpt lat="44.33244" lon="5.56785">
        <ele>1126.8</ele>
        <time>2023-04-06T12:24:22Z</time>
      </trkpt>
      <trkpt lat="44.33246" lon="5.56781">
        <ele>1127</ele>
        <time>2023-04-06T12:24:23Z</time>
      </trkpt>
      <trkpt lat="44.33248" lon="5.56777">
        <ele>1127.2</ele>
        <time>2023-04-06T12:24:24Z</time>
      </trkpt>
      <trkpt lat="44.3325" lon="5.56773">
        <ele>1127.3</ele>
        <time>2023-04-06T12:24:25Z</time>
      </trkpt>
      <trkpt lat="44.33252" lon="5.5677">
        <ele>1127.5</ele>
        <time>2023-04-06T12:24:26Z</time>
      </trkpt>
      <trkpt lat="44.33255" lon="5.56766">
        <ele>1127.7</ele>
        <time>2023-04-06T12:24:27Z</time>
      </trkpt>
      <trkpt lat="44.33257" lon="5.56763">
        <ele>1127.8</ele>
        <time>2023-04-06T12:24:28Z</time>
      </trkpt>
      <trkpt lat="44.33259" lon="5.5676">
        <ele>1128</ele>
        <time>2023-04-06T12:24:29Z</time>
      </trkpt>
      <trkpt lat="44.33262" lon="5.56758">
        <ele>1128.1</ele>
        <time>2023-04-06T12:24:30Z</time>
      </trkpt>
      <trkpt lat="44.33264" lon="5.56754">
        <ele>1128.3</ele>
        <time>2023-04-06T12:24:31Z</time>
      </trkpt>
      <trkpt lat="44.33266" lon="5.56751">
        <ele>1128.4</ele>
        <time>2023-04-06T12:24:32Z</time>
      </trkpt>
      <trkpt lat="44.33268" lon="5.56747">
        <ele>1128.6</ele>
        <time>2023-04-06T12:24:33Z</time>
      </trkpt>
      <trkpt lat="44.33271" lon="5.56744">
        <ele>1128.8</ele>
        <time>2023-04-06T12:24:34Z</time>
      </trkpt>
      <trkpt lat="44.33273" lon="5.56741">
        <ele>1128.9</ele>
        <time>2023-04-06T12:24:35Z</time>
      </trkpt>
      <trkpt lat="44.33276" lon="5.56738">
        <ele>1129.1</ele>
        <time>2023-04-06T12:24:36Z</time>
      </trkpt>
      <trkpt lat="44.33279" lon="5.56735">
        <ele>1129.3</ele>
        <time>2023-04-06T12:24:37Z</time>
      </trkpt>
      <trkpt lat="44.33281" lon="5.56732">
        <ele>1129.4</ele>
        <time>2023-04-06T12:24:38Z</time>
      </trkpt>
      <trkpt lat="44.33284" lon="5.56729">
        <ele>1129.6</ele>
        <time>2023-04-06T12:24:39Z</time>
      </trkpt>
      <trkpt lat="44.33286" lon="5.56726">
        <ele>1129.7</ele>
        <time>2023-04-06T12:24:40Z</time>
      </trkpt>
      <trkpt lat="44.33289" lon="5.56724">
        <ele>1129.8</ele>
        <time>2023-04-06T12:24:41Z</time>
      </trkpt>
      <trkpt lat="44.33291" lon="5.56721">
        <ele>1129.9</ele>
        <time>2023-04-06T12:24:42Z</time>
      </trkpt>
      <trkpt lat="44.33294" lon="5.56717">
        <ele>1130</ele>
        <time>2023-04-06T12:24:43Z</time>
      </trkpt>
      <trkpt lat="44.33296" lon="5.56714">
        <ele>1130.1</ele>
        <time>2023-04-06T12:24:44Z</time>
      </trkpt>
      <trkpt lat="44.33299" lon="5.56711">
        <ele>1130.2</ele>
        <time>2023-04-06T12:24:45Z</time>
      </trkpt>
      <trkpt lat="44.33302" lon="5.56708">
        <ele>1130.2</ele>
        <time>2023-04-06T12:24:46Z</time>
      </trkpt>
      <trkpt lat="44.33305" lon="5.56705">
        <ele>1130.3</ele>
        <time>2023-04-06T12:24:47Z</time>
      </trkpt>
      <trkpt lat="44.33308" lon="5.567">
        <ele>1130.3</ele>
        <time>2023-04-06T12:24:48Z</time>
      </trkpt>
      <trkpt lat="44.3331" lon="5.56695">
        <ele>1130.4</ele>
        <time>2023-04-06T12:24:49Z</time>
      </trkpt>
      <trkpt lat="44.33312" lon="5.56691">
        <ele>1130.4</ele>
        <time>2023-04-06T12:24:50Z</time>
      </trkpt>
      <trkpt lat="44.33314" lon="5.56686">
        <ele>1130.5</ele>
        <time>2023-04-06T12:24:51Z</time>
      </trkpt>
      <trkpt lat="44.33316" lon="5.56683">
        <ele>1130.5</ele>
        <time>2023-04-06T12:24:52Z</time>
      </trkpt>
      <trkpt lat="44.33318" lon="5.56678">
        <ele>1130.6</ele>
        <time>2023-04-06T12:24:53Z</time>
      </trkpt>
      <trkpt lat="44.33318" lon="5.56676">
        <ele>1130.6</ele>
        <time>2023-04-06T12:24:54Z</time>
      </trkpt>
      <trkpt lat="44.3332" lon="5.56671">
        <ele>1130.6</ele>
        <time>2023-04-06T12:24:55Z</time>
      </trkpt>
      <trkpt lat="44.33321" lon="5.56669">
        <ele>1130.6</ele>
        <time>2023-04-06T12:24:56Z</time>
      </trkpt>
      <trkpt lat="44.33323" lon="5.56665">
        <ele>1130.6</ele>
        <time>2023-04-06T12:24:57Z</time>
      </trkpt>
      <trkpt lat="44.33324" lon="5.56662">
        <ele>1130.6</ele>
        <time>2023-04-06T12:24:58Z</time>
      </trkpt>
      <trkpt lat="44.33326" lon="5.56659">
        <ele>1130.5</ele>
        <time>2023-04-06T12:24:59Z</time>
      </trkpt>
      <trkpt lat="44.33328" lon="5.56655">
        <ele>1130.4</ele>
        <time>2023-04-06T12:25:00Z</time>
      </trkpt>
      <trkpt lat="44.3333" lon="5.56652">
        <ele>1130.4</ele>
        <time>2023-04-06T12:25:01Z</time>
      </trkpt>
      <trkpt lat="44.33333" lon="5.56649">
        <ele>1130.3</ele>
        <time>2023-04-06T12:25:02Z</time>
      </trkpt>
      <trkpt lat="44.33335" lon="5.56646">
        <ele>1130.2</ele>
        <time>2023-04-06T12:25:03Z</time>
      </trkpt>
      <trkpt lat="44.33337" lon="5.56642">
        <ele>1130.1</ele>
        <time>2023-04-06T12:25:04Z</time>
      </trkpt>
      <trkpt lat="44.33339" lon="5.56638">
        <ele>1130</ele>
        <time>2023-04-06T12:25:05Z</time>
      </trkpt>
      <trkpt lat="44.33339" lon="5.56633">
        <ele>1129.9</ele>
        <time>2023-04-06T12:25:06Z</time>
      </trkpt>
      <trkpt lat="44.3334" lon="5.56628">
        <ele>1129.8</ele>
        <time>2023-04-06T12:25:07Z</time>
      </trkpt>
      <trkpt lat="44.3334" lon="5.56623">
        <ele>1129.7</ele>
        <time>2023-04-06T12:25:08Z</time>
      </trkpt>
      <trkpt lat="44.33339" lon="5.56618">
        <ele>1129.6</ele>
        <time>2023-04-06T12:25:09Z</time>
      </trkpt>
      <trkpt lat="44.33339" lon="5.56615">
        <ele>1129.5</ele>
        <time>2023-04-06T12:25:10Z</time>
      </trkpt>
      <trkpt lat="44.33339" lon="5.5661">
        <ele>1129.3</ele>
        <time>2023-04-06T12:25:11Z</time>
      </trkpt>
      <trkpt lat="44.33339" lon="5.56605">
        <ele>1129.1</ele>
        <time>2023-04-06T12:25:12Z</time>
      </trkpt>
      <trkpt lat="44.3334" lon="5.56599">
        <ele>1128.8</ele>
        <time>2023-04-06T12:25:13Z</time>
      </trkpt>
      <trkpt lat="44.33341" lon="5.56594">
        <ele>1128.5</ele>
        <time>2023-04-06T12:25:14Z</time>
      </trkpt>
      <trkpt lat="44.33341" lon="5.56589">
        <ele>1128.2</ele>
        <time>2023-04-06T12:25:15Z</time>
      </trkpt>
      <trkpt lat="44.3334" lon="5.56584">
        <ele>1127.9</ele>
        <time>2023-04-06T12:25:16Z</time>
      </trkpt>
      <trkpt lat="44.33339" lon="5.56579">
        <ele>1127.7</ele>
        <time>2023-04-06T12:25:17Z</time>
      </trkpt>
      <trkpt lat="44.33337" lon="5.56573">
        <ele>1127.3</ele>
        <time>2023-04-06T12:25:18Z</time>
      </trkpt>
      <trkpt lat="44.33336" lon="5.56566">
        <ele>1126.8</ele>
        <time>2023-04-06T12:25:19Z</time>
      </trkpt>
      <trkpt lat="44.33333" lon="5.56559">
        <ele>1126.3</ele>
        <time>2023-04-06T12:25:20Z</time>
      </trkpt>
      <trkpt lat="44.33331" lon="5.56552">
        <ele>1125.7</ele>
        <time>2023-04-06T12:25:21Z</time>
      </trkpt>
      <trkpt lat="44.33329" lon="5.56545">
        <ele>1125.1</ele>
        <time>2023-04-06T12:25:22Z</time>
      </trkpt>
      <trkpt lat="44.33328" lon="5.56538">
        <ele>1124.5</ele>
        <time>2023-04-06T12:25:23Z</time>
      </trkpt>
      <trkpt lat="44.33327" lon="5.56531">
        <ele>1123.9</ele>
        <time>2023-04-06T12:25:24Z</time>
      </trkpt>
      <trkpt lat="44.33326" lon="5.56524">
        <ele>1123.1</ele>
        <time>2023-04-06T12:25:25Z</time>
      </trkpt>
      <trkpt lat="44.33324" lon="5.56516">
        <ele>1122.3</ele>
        <time>2023-04-06T12:25:26Z</time>
      </trkpt>
      <trkpt lat="44.33322" lon="5.56508">
        <ele>1121.5</ele>
        <time>2023-04-06T12:25:27Z</time>
      </trkpt>
      <trkpt lat="44.33322" lon="5.56502">
        <ele>1120.7</ele>
        <time>2023-04-06T12:25:28Z</time>
      </trkpt>
      <trkpt lat="44.33322" lon="5.56495">
        <ele>1120</ele>
        <time>2023-04-06T12:25:29Z</time>
      </trkpt>
      <trkpt lat="44.33323" lon="5.56488">
        <ele>1119.3</ele>
        <time>2023-04-06T12:25:30Z</time>
      </trkpt>
      <trkpt lat="44.33325" lon="5.5648">
        <ele>1118.4</ele>
        <time>2023-04-06T12:25:31Z</time>
      </trkpt>
      <trkpt lat="44.33328" lon="5.56472">
        <ele>1117.5</ele>
        <time>2023-04-06T12:25:32Z</time>
      </trkpt>
      <trkpt lat="44.3333" lon="5.56464">
        <ele>1116.9</ele>
        <time>2023-04-06T12:25:33Z</time>
      </trkpt>
      <trkpt lat="44.33333" lon="5.5646">
        <ele>1116.5</ele>
        <time>2023-04-06T12:25:34Z</time>
      </trkpt>
      <trkpt lat="44.33337" lon="5.56454">
        <ele>1116.1</ele>
        <time>2023-04-06T12:25:35Z</time>
      </trkpt>
      <trkpt lat="44.3334" lon="5.5645">
        <ele>1115.9</ele>
        <time>2023-04-06T12:25:36Z</time>
      </trkpt>
      <trkpt lat="44.33344" lon="5.56447">
        <ele>1115.7</ele>
        <time>2023-04-06T12:25:37Z</time>
      </trkpt>
      <trkpt lat="44.33347" lon="5.56447">
        <ele>1115.5</ele>
        <time>2023-04-06T12:25:38Z</time>
      </trkpt>
      <trkpt lat="44.33351" lon="5.56446">
        <ele>1115.2</ele>
        <time>2023-04-06T12:25:39Z</time>
      </trkpt>
      <trkpt lat="44.33354" lon="5.56446">
        <ele>1114.9</ele>
        <time>2023-04-06T12:25:40Z</time>
      </trkpt>
      <trkpt lat="44.33357" lon="5.56445">
        <ele>1114.5</ele>
        <time>2023-04-06T12:25:41Z</time>
      </trkpt>
      <trkpt lat="44.3336" lon="5.56445">
        <ele>1114</ele>
        <time>2023-04-06T12:25:42Z</time>
      </trkpt>
      <trkpt lat="44.33363" lon="5.56445">
        <ele>1113.6</ele>
        <time>2023-04-06T12:25:43Z</time>
      </trkpt>
      <trkpt lat="44.33366" lon="5.56446">
        <ele>1113.1</ele>
        <time>2023-04-06T12:25:44Z</time>
      </trkpt>
      <trkpt lat="44.33369" lon="5.56447">
        <ele>1112.7</ele>
        <time>2023-04-06T12:25:45Z</time>
      </trkpt>
      <trkpt lat="44.33372" lon="5.56448">
        <ele>1112.2</ele>
        <time>2023-04-06T12:25:46Z</time>
      </trkpt>
      <trkpt lat="44.33375" lon="5.56448">
        <ele>1111.7</ele>
        <time>2023-04-06T12:25:47Z</time>
      </trkpt>
      <trkpt lat="44.33378" lon="5.56447">
        <ele>1111.3</ele>
        <time>2023-04-06T12:25:48Z</time>
      </trkpt>
      <trkpt lat="44.33382" lon="5.56444">
        <ele>1110.7</ele>
        <time>2023-04-06T12:25:49Z</time>
      </trkpt>
      <trkpt lat="44.33388" lon="5.5644">
        <ele>1109.8</ele>
        <time>2023-04-06T12:25:50Z</time>
      </trkpt>
      <trkpt lat="44.33393" lon="5.56437">
        <ele>1109.1</ele>
        <time>2023-04-06T12:25:51Z</time>
      </trkpt>
      <trkpt lat="44.33398" lon="5.56434">
        <ele>1108.3</ele>
        <time>2023-04-06T12:25:52Z</time>
      </trkpt>
      <trkpt lat="44.33402" lon="5.56433">
        <ele>1107.7</ele>
        <time>2023-04-06T12:25:53Z</time>
      </trkpt>
      <trkpt lat="44.33405" lon="5.5643">
        <ele>1106.6</ele>
        <time>2023-04-06T12:25:54Z</time>
      </trkpt>
      <trkpt lat="44.33408" lon="5.56426">
        <ele>1106.8</ele>
        <time>2023-04-06T12:25:55Z</time>
      </trkpt>
      <trkpt lat="44.3341" lon="5.56422">
        <ele>1107</ele>
        <time>2023-04-06T12:25:56Z</time>
      </trkpt>
      <trkpt lat="44.33412" lon="5.56417">
        <ele>1107.1</ele>
        <time>2023-04-06T12:25:57Z</time>
      </trkpt>
      <trkpt lat="44.33414" lon="5.56411">
        <ele>1107.2</ele>
        <time>2023-04-06T12:25:58Z</time>
      </trkpt>
      <trkpt lat="44.33416" lon="5.56406">
        <ele>1107.1</ele>
        <time>2023-04-06T12:25:59Z</time>
      </trkpt>
      <trkpt lat="44.33417" lon="5.56402">
        <ele>1107.1</ele>
        <time>2023-04-06T12:26:00Z</time>
      </trkpt>
      <trkpt lat="44.33417" lon="5.56398">
        <ele>1107</ele>
        <time>2023-04-06T12:26:01Z</time>
      </trkpt>
      <trkpt lat="44.33418" lon="5.56394">
        <ele>1106.9</ele>
        <time>2023-04-06T12:26:02Z</time>
      </trkpt>
      <trkpt lat="44.33418" lon="5.5639">
        <ele>1106.7</ele>
        <time>2023-04-06T12:26:03Z</time>
      </trkpt>
      <trkpt lat="44.33419" lon="5.56386">
        <ele>1106.5</ele>
        <time>2023-04-06T12:26:04Z</time>
      </trkpt>
      <trkpt lat="44.3342" lon="5.56381">
        <ele>1106.2</ele>
        <time>2023-04-06T12:26:05Z</time>
      </trkpt>
      <trkpt lat="44.33421" lon="5.56375">
        <ele>1105.8</ele>
        <time>2023-04-06T12:26:06Z</time>
      </trkpt>
      <trkpt lat="44.33423" lon="5.56369">
        <ele>1105.3</ele>
        <time>2023-04-06T12:26:07Z</time>
      </trkpt>
      <trkpt lat="44.33426" lon="5.56365">
        <ele>1104.7</ele>
        <time>2023-04-06T12:26:08Z</time>
      </trkpt>
      <trkpt lat="44.33432" lon="5.56354">
        <ele>1103.6</ele>
        <time>2023-04-06T12:26:10Z</time>
      </trkpt>
      <trkpt lat="44.33436" lon="5.56348">
        <ele>1103</ele>
        <time>2023-04-06T12:26:11Z</time>
      </trkpt>
      <trkpt lat="44.33442" lon="5.56342">
        <ele>1102.3</ele>
        <time>2023-04-06T12:26:12Z</time>
      </trkpt>
      <trkpt lat="44.33448" lon="5.56337">
        <ele>1101.4</ele>
        <time>2023-04-06T12:26:13Z</time>
      </trkpt>
      <trkpt lat="44.33454" lon="5.56333">
        <ele>1100.1</ele>
        <time>2023-04-06T12:26:14Z</time>
      </trkpt>
      <trkpt lat="44.33461" lon="5.56329">
        <ele>1098.7</ele>
        <time>2023-04-06T12:26:15Z</time>
      </trkpt>
      <trkpt lat="44.33468" lon="5.56325">
        <ele>1097.6</ele>
        <time>2023-04-06T12:26:16Z</time>
      </trkpt>
      <trkpt lat="44.33476" lon="5.5632">
        <ele>1096.7</ele>
        <time>2023-04-06T12:26:17Z</time>
      </trkpt>
      <trkpt lat="44.33483" lon="5.56315">
        <ele>1096.1</ele>
        <time>2023-04-06T12:26:18Z</time>
      </trkpt>
      <trkpt lat="44.33489" lon="5.56308">
        <ele>1095.7</ele>
        <time>2023-04-06T12:26:19Z</time>
      </trkpt>
      <trkpt lat="44.33493" lon="5.56291">
        <ele>1095</ele>
        <time>2023-04-06T12:26:21Z</time>
      </trkpt>
      <trkpt lat="44.33495" lon="5.56282">
        <ele>1094.7</ele>
        <time>2023-04-06T12:26:22Z</time>
      </trkpt>
      <trkpt lat="44.33498" lon="5.56274">
        <ele>1094.5</ele>
        <time>2023-04-06T12:26:23Z</time>
      </trkpt>
      <trkpt lat="44.33501" lon="5.56266">
        <ele>1094.4</ele>
        <time>2023-04-06T12:26:24Z</time>
      </trkpt>
      <trkpt lat="44.33503" lon="5.56258">
        <ele>1094.3</ele>
        <time>2023-04-06T12:26:25Z</time>
      </trkpt>
      <trkpt lat="44.33505" lon="5.5625">
        <ele>1094.2</ele>
        <time>2023-04-06T12:26:26Z</time>
      </trkpt>
      <trkpt lat="44.33506" lon="5.56243">
        <ele>1094.2</ele>
        <time>2023-04-06T12:26:27Z</time>
      </trkpt>
      <trkpt lat="44.33508" lon="5.56235">
        <ele>1094.2</ele>
        <time>2023-04-06T12:26:28Z</time>
      </trkpt>
      <trkpt lat="44.33511" lon="5.56227">
        <ele>1094.3</ele>
        <time>2023-04-06T12:26:29Z</time>
      </trkpt>
      <trkpt lat="44.33513" lon="5.5622">
        <ele>1094.3</ele>
        <time>2023-04-06T12:26:30Z</time>
      </trkpt>
      <trkpt lat="44.33518" lon="5.56207">
        <ele>1094.5</ele>
        <time>2023-04-06T12:26:32Z</time>
      </trkpt>
      <trkpt lat="44.3352" lon="5.562">
        <ele>1094.6</ele>
        <time>2023-04-06T12:26:33Z</time>
      </trkpt>
      <trkpt lat="44.33522" lon="5.56193">
        <ele>1094.7</ele>
        <time>2023-04-06T12:26:34Z</time>
      </trkpt>
      <trkpt lat="44.33524" lon="5.56187">
        <ele>1094.9</ele>
        <time>2023-04-06T12:26:35Z</time>
      </trkpt>
      <trkpt lat="44.33526" lon="5.56181">
        <ele>1095</ele>
        <time>2023-04-06T12:26:36Z</time>
      </trkpt>
      <trkpt lat="44.33528" lon="5.56174">
        <ele>1095.1</ele>
        <time>2023-04-06T12:26:37Z</time>
      </trkpt>
      <trkpt lat="44.3353" lon="5.56168">
        <ele>1095.3</ele>
        <time>2023-04-06T12:26:38Z</time>
      </trkpt>
      <trkpt lat="44.3353" lon="5.56162">
        <ele>1095.4</ele>
        <time>2023-04-06T12:26:39Z</time>
      </trkpt>
      <trkpt lat="44.33531" lon="5.56156">
        <ele>1095.4</ele>
        <time>2023-04-06T12:26:40Z</time>
      </trkpt>
      <trkpt lat="44.33532" lon="5.5615">
        <ele>1095.5</ele>
        <time>2023-04-06T12:26:41Z</time>
      </trkpt>
      <trkpt lat="44.33535" lon="5.56137">
        <ele>1095.4</ele>
        <time>2023-04-06T12:26:43Z</time>
      </trkpt>
      <trkpt lat="44.33536" lon="5.56131">
        <ele>1095.4</ele>
        <time>2023-04-06T12:26:44Z</time>
      </trkpt>
      <trkpt lat="44.33538" lon="5.56126">
        <ele>1095.2</ele>
        <time>2023-04-06T12:26:45Z</time>
      </trkpt>
      <trkpt lat="44.3354" lon="5.56121">
        <ele>1095</ele>
        <time>2023-04-06T12:26:46Z</time>
      </trkpt>
      <trkpt lat="44.33541" lon="5.56116">
        <ele>1094.7</ele>
        <time>2023-04-06T12:26:47Z</time>
      </trkpt>
      <trkpt lat="44.33542" lon="5.56111">
        <ele>1094.4</ele>
        <time>2023-04-06T12:26:48Z</time>
      </trkpt>
      <trkpt lat="44.33544" lon="5.56106">
        <ele>1094.1</ele>
        <time>2023-04-06T12:26:49Z</time>
      </trkpt>
      <trkpt lat="44.33547" lon="5.56102">
        <ele>1093.7</ele>
        <time>2023-04-06T12:26:50Z</time>
      </trkpt>
      <trkpt lat="44.3355" lon="5.56097">
        <ele>1093.3</ele>
        <time>2023-04-06T12:26:51Z</time>
      </trkpt>
      <trkpt lat="44.33553" lon="5.56093">
        <ele>1092.9</ele>
        <time>2023-04-06T12:26:52Z</time>
      </trkpt>
      <trkpt lat="44.33557" lon="5.56089">
        <ele>1092.6</ele>
        <time>2023-04-06T12:26:53Z</time>
      </trkpt>
      <trkpt lat="44.33561" lon="5.56084">
        <ele>1092.3</ele>
        <time>2023-04-06T12:26:54Z</time>
      </trkpt>
      <trkpt lat="44.3357" lon="5.56073">
        <ele>1091.7</ele>
        <time>2023-04-06T12:26:56Z</time>
      </trkpt>
      <trkpt lat="44.33574" lon="5.56067">
        <ele>1091.5</ele>
        <time>2023-04-06T12:26:57Z</time>
      </trkpt>
      <trkpt lat="44.33579" lon="5.56063">
        <ele>1091.3</ele>
        <time>2023-04-06T12:26:58Z</time>
      </trkpt>
      <trkpt lat="44.33583" lon="5.5606">
        <ele>1091.2</ele>
        <time>2023-04-06T12:26:59Z</time>
      </trkpt>
      <trkpt lat="44.33588" lon="5.56056">
        <ele>1091</ele>
        <time>2023-04-06T12:27:00Z</time>
      </trkpt>
      <trkpt lat="44.33592" lon="5.56052">
        <ele>1090.8</ele>
        <time>2023-04-06T12:27:01Z</time>
      </trkpt>
      <trkpt lat="44.33596" lon="5.56047">
        <ele>1090.5</ele>
        <time>2023-04-06T12:27:02Z</time>
      </trkpt>
      <trkpt lat="44.336" lon="5.56042">
        <ele>1090.2</ele>
        <time>2023-04-06T12:27:03Z</time>
      </trkpt>
      <trkpt lat="44.33604" lon="5.56037">
        <ele>1090</ele>
        <time>2023-04-06T12:27:04Z</time>
      </trkpt>
      <trkpt lat="44.33608" lon="5.56032">
        <ele>1089.7</ele>
        <time>2023-04-06T12:27:05Z</time>
      </trkpt>
      <trkpt lat="44.33616" lon="5.56022">
        <ele>1089.4</ele>
        <time>2023-04-06T12:27:07Z</time>
      </trkpt>
      <trkpt lat="44.3362" lon="5.56019">
        <ele>1089.2</ele>
        <time>2023-04-06T12:27:08Z</time>
      </trkpt>
      <trkpt lat="44.33623" lon="5.56015">
        <ele>1089.1</ele>
        <time>2023-04-06T12:27:09Z</time>
      </trkpt>
      <trkpt lat="44.33626" lon="5.56012">
        <ele>1089</ele>
        <time>2023-04-06T12:27:10Z</time>
      </trkpt>
      <trkpt lat="44.3363" lon="5.56008">
        <ele>1088.9</ele>
        <time>2023-04-06T12:27:11Z</time>
      </trkpt>
      <trkpt lat="44.33636" lon="5.55999">
        <ele>1088.4</ele>
        <time>2023-04-06T12:27:13Z</time>
      </trkpt>
      <trkpt lat="44.3364" lon="5.55995">
        <ele>1088.1</ele>
        <time>2023-04-06T12:27:14Z</time>
      </trkpt>
      <trkpt lat="44.33644" lon="5.55991">
        <ele>1087.7</ele>
        <time>2023-04-06T12:27:15Z</time>
      </trkpt>
      <trkpt lat="44.33648" lon="5.55988">
        <ele>1087.3</ele>
        <time>2023-04-06T12:27:16Z</time>
      </trkpt>
      <trkpt lat="44.33653" lon="5.55984">
        <ele>1086.8</ele>
        <time>2023-04-06T12:27:17Z</time>
      </trkpt>
      <trkpt lat="44.33658" lon="5.55981">
        <ele>1086.3</ele>
        <time>2023-04-06T12:27:18Z</time>
      </trkpt>
      <trkpt lat="44.33663" lon="5.55976">
        <ele>1085.8</ele>
        <time>2023-04-06T12:27:19Z</time>
      </trkpt>
      <trkpt lat="44.33668" lon="5.55972">
        <ele>1085.3</ele>
        <time>2023-04-06T12:27:20Z</time>
      </trkpt>
      <trkpt lat="44.33673" lon="5.55967">
        <ele>1084.8</ele>
        <time>2023-04-06T12:27:21Z</time>
      </trkpt>
      <trkpt lat="44.33678" lon="5.55962">
        <ele>1084.3</ele>
        <time>2023-04-06T12:27:22Z</time>
      </trkpt>
      <trkpt lat="44.33689" lon="5.55956">
        <ele>1083.3</ele>
        <time>2023-04-06T12:27:24Z</time>
      </trkpt>
      <trkpt lat="44.33694" lon="5.55954">
        <ele>1082.7</ele>
        <time>2023-04-06T12:27:25Z</time>
      </trkpt>
      <trkpt lat="44.33699" lon="5.55951">
        <ele>1082.2</ele>
        <time>2023-04-06T12:27:26Z</time>
      </trkpt>
      <trkpt lat="44.33705" lon="5.55947">
        <ele>1081.7</ele>
        <time>2023-04-06T12:27:27Z</time>
      </trkpt>
      <trkpt lat="44.33711" lon="5.55944">
        <ele>1081.1</ele>
        <time>2023-04-06T12:27:28Z</time>
      </trkpt>
      <trkpt lat="44.33717" lon="5.55939">
        <ele>1080.6</ele>
        <time>2023-04-06T12:27:29Z</time>
      </trkpt>
      <trkpt lat="44.33722" lon="5.55933">
        <ele>1080</ele>
        <time>2023-04-06T12:27:30Z</time>
      </trkpt>
      <trkpt lat="44.33726" lon="5.55927">
        <ele>1079.3</ele>
        <time>2023-04-06T12:27:31Z</time>
      </trkpt>
      <trkpt lat="44.33728" lon="5.55922">
        <ele>1078.6</ele>
        <time>2023-04-06T12:27:32Z</time>
      </trkpt>
      <trkpt lat="44.33732" lon="5.55916">
        <ele>1077.8</ele>
        <time>2023-04-06T12:27:33Z</time>
      </trkpt>
      <trkpt lat="44.33736" lon="5.5591">
        <ele>1076.8</ele>
        <time>2023-04-06T12:27:34Z</time>
      </trkpt>
      <trkpt lat="44.33739" lon="5.55904">
        <ele>1075.8</ele>
        <time>2023-04-06T12:27:35Z</time>
      </trkpt>
      <trkpt lat="44.33742" lon="5.55898">
        <ele>1074.9</ele>
        <time>2023-04-06T12:27:36Z</time>
      </trkpt>
      <trkpt lat="44.33745" lon="5.55892">
        <ele>1074.1</ele>
        <time>2023-04-06T12:27:37Z</time>
      </trkpt>
      <trkpt lat="44.33748" lon="5.55884">
        <ele>1073.2</ele>
        <time>2023-04-06T12:27:38Z</time>
      </trkpt>
      <trkpt lat="44.33752" lon="5.55876">
        <ele>1072.3</ele>
        <time>2023-04-06T12:27:39Z</time>
      </trkpt>
      <trkpt lat="44.33755" lon="5.55866">
        <ele>1071.4</ele>
        <time>2023-04-06T12:27:40Z</time>
      </trkpt>
      <trkpt lat="44.33758" lon="5.55856">
        <ele>1070.4</ele>
        <time>2023-04-06T12:27:41Z</time>
      </trkpt>
      <trkpt lat="44.33761" lon="5.55845">
        <ele>1069.6</ele>
        <time>2023-04-06T12:27:42Z</time>
      </trkpt>
      <trkpt lat="44.33764" lon="5.55835">
        <ele>1069</ele>
        <time>2023-04-06T12:27:43Z</time>
      </trkpt>
      <trkpt lat="44.33767" lon="5.55825">
        <ele>1068.5</ele>
        <time>2023-04-06T12:27:44Z</time>
      </trkpt>
      <trkpt lat="44.3377" lon="5.55815">
        <ele>1067.9</ele>
        <time>2023-04-06T12:27:45Z</time>
      </trkpt>
      <trkpt lat="44.33772" lon="5.55804">
        <ele>1067.3</ele>
        <time>2023-04-06T12:27:46Z</time>
      </trkpt>
      <trkpt lat="44.33775" lon="5.55794">
        <ele>1066.7</ele>
        <time>2023-04-06T12:27:47Z</time>
      </trkpt>
      <trkpt lat="44.33778" lon="5.55785">
        <ele>1066.1</ele>
        <time>2023-04-06T12:27:48Z</time>
      </trkpt>
      <trkpt lat="44.3378" lon="5.55775">
        <ele>1065.6</ele>
        <time>2023-04-06T12:27:49Z</time>
      </trkpt>
      <trkpt lat="44.33781" lon="5.55766">
        <ele>1065.3</ele>
        <time>2023-04-06T12:27:50Z</time>
      </trkpt>
      <trkpt lat="44.33782" lon="5.55756">
        <ele>1065</ele>
        <time>2023-04-06T12:27:51Z</time>
      </trkpt>
      <trkpt lat="44.33783" lon="5.55748">
        <ele>1064.8</ele>
        <time>2023-04-06T12:27:52Z</time>
      </trkpt>
      <trkpt lat="44.33783" lon="5.55738">
        <ele>1064.7</ele>
        <time>2023-04-06T12:27:53Z</time>
      </trkpt>
      <trkpt lat="44.33782" lon="5.5573">
        <ele>1065.2</ele>
        <time>2023-04-06T12:27:54Z</time>
      </trkpt>
      <trkpt lat="44.33781" lon="5.55723">
        <ele>1065.7</ele>
        <time>2023-04-06T12:27:55Z</time>
      </trkpt>
      <trkpt lat="44.3378" lon="5.55718">
        <ele>1066.1</ele>
        <time>2023-04-06T12:27:56Z</time>
      </trkpt>
      <trkpt lat="44.33779" lon="5.55713">
        <ele>1066.4</ele>
        <time>2023-04-06T12:27:57Z</time>
      </trkpt>
      <trkpt lat="44.33779" lon="5.55709">
        <ele>1066.8</ele>
        <time>2023-04-06T12:27:58Z</time>
      </trkpt>
      <trkpt lat="44.33779" lon="5.55704">
        <ele>1067.1</ele>
        <time>2023-04-06T12:27:59Z</time>
      </trkpt>
      <trkpt lat="44.33779" lon="5.55697">
        <ele>1067.6</ele>
        <time>2023-04-06T12:28:00Z</time>
      </trkpt>
      <trkpt lat="44.33781" lon="5.5569">
        <ele>1068.1</ele>
        <time>2023-04-06T12:28:01Z</time>
      </trkpt>
      <trkpt lat="44.33782" lon="5.55683">
        <ele>1068.6</ele>
        <time>2023-04-06T12:28:02Z</time>
      </trkpt>
      <trkpt lat="44.33783" lon="5.55677">
        <ele>1069</ele>
        <time>2023-04-06T12:28:03Z</time>
      </trkpt>
      <trkpt lat="44.33785" lon="5.55672">
        <ele>1069.4</ele>
        <time>2023-04-06T12:28:04Z</time>
      </trkpt>
      <trkpt lat="44.33786" lon="5.55667">
        <ele>1069.7</ele>
        <time>2023-04-06T12:28:05Z</time>
      </trkpt>
      <trkpt lat="44.33787" lon="5.55662">
        <ele>1070.1</ele>
        <time>2023-04-06T12:28:06Z</time>
      </trkpt>
      <trkpt lat="44.33787" lon="5.55655">
        <ele>1070.6</ele>
        <time>2023-04-06T12:28:07Z</time>
      </trkpt>
      <trkpt lat="44.33787" lon="5.55648">
        <ele>1071.1</ele>
        <time>2023-04-06T12:28:08Z</time>
      </trkpt>
      <trkpt lat="44.33785" lon="5.55642">
        <ele>1071.6</ele>
        <time>2023-04-06T12:28:09Z</time>
      </trkpt>
      <trkpt lat="44.33782" lon="5.55637">
        <ele>1072</ele>
        <time>2023-04-06T12:28:10Z</time>
      </trkpt>
      <trkpt lat="44.33777" lon="5.55632">
        <ele>1072.5</ele>
        <time>2023-04-06T12:28:11Z</time>
      </trkpt>
      <trkpt lat="44.33772" lon="5.5563">
        <ele>1073.1</ele>
        <time>2023-04-06T12:28:12Z</time>
      </trkpt>
      <trkpt lat="44.33767" lon="5.55629">
        <ele>1073.6</ele>
        <time>2023-04-06T12:28:13Z</time>
      </trkpt>
      <trkpt lat="44.33763" lon="5.55628">
        <ele>1074</ele>
        <time>2023-04-06T12:28:14Z</time>
      </trkpt>
      <trkpt lat="44.33759" lon="5.55629">
        <ele>1074.4</ele>
        <time>2023-04-06T12:28:15Z</time>
      </trkpt>
      <trkpt lat="44.33755" lon="5.55629">
        <ele>1074.7</ele>
        <time>2023-04-06T12:28:16Z</time>
      </trkpt>
      <trkpt lat="44.33752" lon="5.5563">
        <ele>1075.1</ele>
        <time>2023-04-06T12:28:17Z</time>
      </trkpt>
      <trkpt lat="44.33748" lon="5.5563">
        <ele>1075.4</ele>
        <time>2023-04-06T12:28:18Z</time>
      </trkpt>
      <trkpt lat="44.33745" lon="5.5563">
        <ele>1075.7</ele>
        <time>2023-04-06T12:28:19Z</time>
      </trkpt>
      <trkpt lat="44.33742" lon="5.5563">
        <ele>1076</ele>
        <time>2023-04-06T12:28:20Z</time>
      </trkpt>
      <trkpt lat="44.33739" lon="5.5563">
        <ele>1076.3</ele>
        <time>2023-04-06T12:28:21Z</time>
      </trkpt>
      <trkpt lat="44.33736" lon="5.5563">
        <ele>1076.6</ele>
        <time>2023-04-06T12:28:22Z</time>
      </trkpt>
      <trkpt lat="44.33732" lon="5.5563">
        <ele>1077</ele>
        <time>2023-04-06T12:28:23Z</time>
      </trkpt>
      <trkpt lat="44.33729" lon="5.55628">
        <ele>1077.3</ele>
        <time>2023-04-06T12:28:24Z</time>
      </trkpt>
      <trkpt lat="44.33727" lon="5.55626">
        <ele>1077.6</ele>
        <time>2023-04-06T12:28:25Z</time>
      </trkpt>
      <trkpt lat="44.33723" lon="5.55624">
        <ele>1077.9</ele>
        <time>2023-04-06T12:28:26Z</time>
      </trkpt>
      <trkpt lat="44.3372" lon="5.55623">
        <ele>1078.2</ele>
        <time>2023-04-06T12:28:27Z</time>
      </trkpt>
      <trkpt lat="44.33718" lon="5.55621">
        <ele>1078.5</ele>
        <time>2023-04-06T12:28:28Z</time>
      </trkpt>
      <trkpt lat="44.33715" lon="5.55619">
        <ele>1078.8</ele>
        <time>2023-04-06T12:28:29Z</time>
      </trkpt>
      <trkpt lat="44.33712" lon="5.55617">
        <ele>1079.1</ele>
        <time>2023-04-06T12:28:30Z</time>
      </trkpt>
      <trkpt lat="44.3371" lon="5.55615">
        <ele>1079.4</ele>
        <time>2023-04-06T12:28:31Z</time>
      </trkpt>
      <trkpt lat="44.33707" lon="5.55613">
        <ele>1079.7</ele>
        <time>2023-04-06T12:28:32Z</time>
      </trkpt>
      <trkpt lat="44.33704" lon="5.5561">
        <ele>1080</ele>
        <time>2023-04-06T12:28:33Z</time>
      </trkpt>
      <trkpt lat="44.33702" lon="5.55607">
        <ele>1080.3</ele>
        <time>2023-04-06T12:28:34Z</time>
      </trkpt>
      <trkpt lat="44.337" lon="5.55605">
        <ele>1080.6</ele>
        <time>2023-04-06T12:28:35Z</time>
      </trkpt>
      <trkpt lat="44.33698" lon="5.55602">
        <ele>1080.8</ele>
        <time>2023-04-06T12:28:36Z</time>
      </trkpt>
      <trkpt lat="44.33696" lon="5.55599">
        <ele>1081.1</ele>
        <time>2023-04-06T12:28:37Z</time>
      </trkpt>
      <trkpt lat="44.33695" lon="5.55595">
        <ele>1081.4</ele>
        <time>2023-04-06T12:28:38Z</time>
      </trkpt>
      <trkpt lat="44.33693" lon="5.55592">
        <ele>1081.7</ele>
        <time>2023-04-06T12:28:39Z</time>
      </trkpt>
      <trkpt lat="44.33691" lon="5.55588">
        <ele>1082</ele>
        <time>2023-04-06T12:28:40Z</time>
      </trkpt>
      <trkpt lat="44.33689" lon="5.55585">
        <ele>1082.3</ele>
        <time>2023-04-06T12:28:41Z</time>
      </trkpt>
      <trkpt lat="44.33687" lon="5.55582">
        <ele>1082.6</ele>
        <time>2023-04-06T12:28:42Z</time>
      </trkpt>
      <trkpt lat="44.33686" lon="5.55578">
        <ele>1082.9</ele>
        <time>2023-04-06T12:28:43Z</time>
      </trkpt>
      <trkpt lat="44.33684" lon="5.55575">
        <ele>1083.2</ele>
        <time>2023-04-06T12:28:44Z</time>
      </trkpt>
      <trkpt lat="44.33681" lon="5.55572">
        <ele>1083.5</ele>
        <time>2023-04-06T12:28:45Z</time>
      </trkpt>
      <trkpt lat="44.33679" lon="5.55569">
        <ele>1083.8</ele>
        <time>2023-04-06T12:28:46Z</time>
      </trkpt>
      <trkpt lat="44.33677" lon="5.55566">
        <ele>1084.1</ele>
        <time>2023-04-06T12:28:47Z</time>
      </trkpt>
      <trkpt lat="44.33675" lon="5.55563">
        <ele>1084.4</ele>
        <time>2023-04-06T12:28:48Z</time>
      </trkpt>
      <trkpt lat="44.33671" lon="5.55557">
        <ele>1085</ele>
        <time>2023-04-06T12:28:50Z</time>
      </trkpt>
      <trkpt lat="44.33669" lon="5.55554">
        <ele>1085.2</ele>
        <time>2023-04-06T12:28:51Z</time>
      </trkpt>
      <trkpt lat="44.33667" lon="5.55551">
        <ele>1085.5</ele>
        <time>2023-04-06T12:28:52Z</time>
      </trkpt>
      <trkpt lat="44.33665" lon="5.55548">
        <ele>1085.8</ele>
        <time>2023-04-06T12:28:53Z</time>
      </trkpt>
      <trkpt lat="44.33662" lon="5.55545">
        <ele>1086.1</ele>
        <time>2023-04-06T12:28:54Z</time>
      </trkpt>
      <trkpt lat="44.3366" lon="5.55543">
        <ele>1086.4</ele>
        <time>2023-04-06T12:28:55Z</time>
      </trkpt>
      <trkpt lat="44.33658" lon="5.55539">
        <ele>1086.7</ele>
        <time>2023-04-06T12:28:56Z</time>
      </trkpt>
      <trkpt lat="44.33653" lon="5.55534">
        <ele>1087.3</ele>
        <time>2023-04-06T12:28:58Z</time>
      </trkpt>
      <trkpt lat="44.3365" lon="5.55532">
        <ele>1087.6</ele>
        <time>2023-04-06T12:28:59Z</time>
      </trkpt>
      <trkpt lat="44.33648" lon="5.5553">
        <ele>1087.9</ele>
        <time>2023-04-06T12:29:00Z</time>
      </trkpt>
      <trkpt lat="44.33646" lon="5.55527">
        <ele>1088.1</ele>
        <time>2023-04-06T12:29:01Z</time>
      </trkpt>
      <trkpt lat="44.33643" lon="5.55524">
        <ele>1088.4</ele>
        <time>2023-04-06T12:29:02Z</time>
      </trkpt>
      <trkpt lat="44.33641" lon="5.55522">
        <ele>1088.7</ele>
        <time>2023-04-06T12:29:03Z</time>
      </trkpt>
      <trkpt lat="44.33638" lon="5.55519">
        <ele>1089.1</ele>
        <time>2023-04-06T12:29:04Z</time>
      </trkpt>
      <trkpt lat="44.33636" lon="5.55517">
        <ele>1089.3</ele>
        <time>2023-04-06T12:29:05Z</time>
      </trkpt>
      <trkpt lat="44.33633" lon="5.55514">
        <ele>1089.7</ele>
        <time>2023-04-06T12:29:06Z</time>
      </trkpt>
      <trkpt lat="44.33631" lon="5.55512">
        <ele>1090</ele>
        <time>2023-04-06T12:29:07Z</time>
      </trkpt>
      <trkpt lat="44.33625" lon="5.55506">
        <ele>1090.6</ele>
        <time>2023-04-06T12:29:09Z</time>
      </trkpt>
      <trkpt lat="44.33623" lon="5.55503">
        <ele>1090.9</ele>
        <time>2023-04-06T12:29:10Z</time>
      </trkpt>
      <trkpt lat="44.3362" lon="5.555">
        <ele>1091.2</ele>
        <time>2023-04-06T12:29:11Z</time>
      </trkpt>
      <trkpt lat="44.33618" lon="5.55497">
        <ele>1091.5</ele>
        <time>2023-04-06T12:29:12Z</time>
      </trkpt>
      <trkpt lat="44.33616" lon="5.55494">
        <ele>1091.8</ele>
        <time>2023-04-06T12:29:13Z</time>
      </trkpt>
      <trkpt lat="44.33613" lon="5.55488">
        <ele>1092.4</ele>
        <time>2023-04-06T12:29:15Z</time>
      </trkpt>
      <trkpt lat="44.33613" lon="5.55485">
        <ele>1092.6</ele>
        <time>2023-04-06T12:29:16Z</time>
      </trkpt>
      <trkpt lat="44.33613" lon="5.5548">
        <ele>1092.9</ele>
        <time>2023-04-06T12:29:17Z</time>
      </trkpt>
      <trkpt lat="44.33613" lon="5.55479">
        <ele>1093</ele>
        <time>2023-04-06T12:29:18Z</time>
      </trkpt>
      <trkpt lat="44.33615" lon="5.55475">
        <ele>1093.3</ele>
        <time>2023-04-06T12:29:19Z</time>
      </trkpt>
      <trkpt lat="44.33616" lon="5.55474">
        <ele>1093.4</ele>
        <time>2023-04-06T12:29:20Z</time>
      </trkpt>
      <trkpt lat="44.33619" lon="5.55473">
        <ele>1093.6</ele>
        <time>2023-04-06T12:29:21Z</time>
      </trkpt>
      <trkpt lat="44.33622" lon="5.55472">
        <ele>1093.5</ele>
        <time>2023-04-06T12:29:22Z</time>
      </trkpt>
      <trkpt lat="44.33626" lon="5.55471">
        <ele>1093.4</ele>
        <time>2023-04-06T12:29:23Z</time>
      </trkpt>
      <trkpt lat="44.33629" lon="5.5547">
        <ele>1093.3</ele>
        <time>2023-04-06T12:29:24Z</time>
      </trkpt>
      <trkpt lat="44.33631" lon="5.55469">
        <ele>1093.2</ele>
        <time>2023-04-06T12:29:25Z</time>
      </trkpt>
      <trkpt lat="44.33635" lon="5.55469">
        <ele>1093</ele>
        <time>2023-04-06T12:29:26Z</time>
      </trkpt>
      <trkpt lat="44.33639" lon="5.55468">
        <ele>1092.9</ele>
        <time>2023-04-06T12:29:27Z</time>
      </trkpt>
      <trkpt lat="44.33643" lon="5.55467">
        <ele>1092.8</ele>
        <time>2023-04-06T12:29:28Z</time>
      </trkpt>
      <trkpt lat="44.33646" lon="5.55467">
        <ele>1092.6</ele>
        <time>2023-04-06T12:29:29Z</time>
      </trkpt>
      <trkpt lat="44.33654" lon="5.55466">
        <ele>1092.4</ele>
        <time>2023-04-06T12:29:31Z</time>
      </trkpt>
      <trkpt lat="44.33658" lon="5.55465">
        <ele>1092.2</ele>
        <time>2023-04-06T12:29:32Z</time>
      </trkpt>
      <trkpt lat="44.33663" lon="5.55465">
        <ele>1092.1</ele>
        <time>2023-04-06T12:29:33Z</time>
      </trkpt>
      <trkpt lat="44.33668" lon="5.55464">
        <ele>1091.9</ele>
        <time>2023-04-06T12:29:34Z</time>
      </trkpt>
      <trkpt lat="44.33672" lon="5.55464">
        <ele>1091.8</ele>
        <time>2023-04-06T12:29:35Z</time>
      </trkpt>
      <trkpt lat="44.33681" lon="5.55459">
        <ele>1091.4</ele>
        <time>2023-04-06T12:29:37Z</time>
      </trkpt>
      <trkpt lat="44.33683" lon="5.55455">
        <ele>1091.3</ele>
        <time>2023-04-06T12:29:38Z</time>
      </trkpt>
      <trkpt lat="44.33683" lon="5.5545">
        <ele>1091.2</ele>
        <time>2023-04-06T12:29:39Z</time>
      </trkpt>
      <trkpt lat="44.33682" lon="5.55445">
        <ele>1091</ele>
        <time>2023-04-06T12:29:40Z</time>
      </trkpt>
      <trkpt lat="44.33679" lon="5.55441">
        <ele>1090.9</ele>
        <time>2023-04-06T12:29:41Z</time>
      </trkpt>
      <trkpt lat="44.33673" lon="5.55434">
        <ele>1090.6</ele>
        <time>2023-04-06T12:29:43Z</time>
      </trkpt>
      <trkpt lat="44.3367" lon="5.55431">
        <ele>1090.5</ele>
        <time>2023-04-06T12:29:44Z</time>
      </trkpt>
      <trkpt lat="44.33667" lon="5.55428">
        <ele>1090.4</ele>
        <time>2023-04-06T12:29:45Z</time>
      </trkpt>
      <trkpt lat="44.33662" lon="5.55423">
        <ele>1090.2</ele>
        <time>2023-04-06T12:29:46Z</time>
      </trkpt>
      <trkpt lat="44.33658" lon="5.55418">
        <ele>1090</ele>
        <time>2023-04-06T12:29:47Z</time>
      </trkpt>
      <trkpt lat="44.33649" lon="5.55409">
        <ele>1089.6</ele>
        <time>2023-04-06T12:29:49Z</time>
      </trkpt>
      <trkpt lat="44.33645" lon="5.55404">
        <ele>1089.4</ele>
        <time>2023-04-06T12:29:50Z</time>
      </trkpt>
      <trkpt lat="44.33641" lon="5.554">
        <ele>1089.3</ele>
        <time>2023-04-06T12:29:51Z</time>
      </trkpt>
      <trkpt lat="44.33637" lon="5.55395">
        <ele>1089.1</ele>
        <time>2023-04-06T12:29:52Z</time>
      </trkpt>
      <trkpt lat="44.33634" lon="5.55389">
        <ele>1088.9</ele>
        <time>2023-04-06T12:29:53Z</time>
      </trkpt>
      <trkpt lat="44.33631" lon="5.55383">
        <ele>1088.7</ele>
        <time>2023-04-06T12:29:54Z</time>
      </trkpt>
      <trkpt lat="44.33628" lon="5.55377">
        <ele>1088.5</ele>
        <time>2023-04-06T12:29:55Z</time>
      </trkpt>
      <trkpt lat="44.33624" lon="5.5537">
        <ele>1088.3</ele>
        <time>2023-04-06T12:29:56Z</time>
      </trkpt>
      <trkpt lat="44.33622" lon="5.55363">
        <ele>1088.1</ele>
        <time>2023-04-06T12:29:57Z</time>
      </trkpt>
      <trkpt lat="44.33619" lon="5.55356">
        <ele>1087.9</ele>
        <time>2023-04-06T12:29:58Z</time>
      </trkpt>
      <trkpt lat="44.33615" lon="5.5534">
        <ele>1087.5</ele>
        <time>2023-04-06T12:30:00Z</time>
      </trkpt>
      <trkpt lat="44.33612" lon="5.55332">
        <ele>1087.3</ele>
        <time>2023-04-06T12:30:01Z</time>
      </trkpt>
      <trkpt lat="44.3361" lon="5.55323">
        <ele>1087.1</ele>
        <time>2023-04-06T12:30:02Z</time>
      </trkpt>
      <trkpt lat="44.33607" lon="5.55315">
        <ele>1086.8</ele>
        <time>2023-04-06T12:30:03Z</time>
      </trkpt>
      <trkpt lat="44.33604" lon="5.55306">
        <ele>1086.6</ele>
        <time>2023-04-06T12:30:04Z</time>
      </trkpt>
      <trkpt lat="44.336" lon="5.55297">
        <ele>1086.3</ele>
        <time>2023-04-06T12:30:05Z</time>
      </trkpt>
      <trkpt lat="44.33596" lon="5.55288">
        <ele>1086.1</ele>
        <time>2023-04-06T12:30:06Z</time>
      </trkpt>
      <trkpt lat="44.33593" lon="5.55279">
        <ele>1085.8</ele>
        <time>2023-04-06T12:30:07Z</time>
      </trkpt>
      <trkpt lat="44.33589" lon="5.55269">
        <ele>1085.5</ele>
        <time>2023-04-06T12:30:08Z</time>
      </trkpt>
      <trkpt lat="44.33586" lon="5.55259">
        <ele>1085.3</ele>
        <time>2023-04-06T12:30:09Z</time>
      </trkpt>
      <trkpt lat="44.33583" lon="5.55249">
        <ele>1085</ele>
        <time>2023-04-06T12:30:10Z</time>
      </trkpt>
      <trkpt lat="44.33581" lon="5.55239">
        <ele>1084.7</ele>
        <time>2023-04-06T12:30:11Z</time>
      </trkpt>
      <trkpt lat="44.33578" lon="5.55229">
        <ele>1084.5</ele>
        <time>2023-04-06T12:30:12Z</time>
      </trkpt>
      <trkpt lat="44.33575" lon="5.55219">
        <ele>1084.2</ele>
        <time>2023-04-06T12:30:13Z</time>
      </trkpt>
      <trkpt lat="44.33573" lon="5.55209">
        <ele>1083.9</ele>
        <time>2023-04-06T12:30:14Z</time>
      </trkpt>
      <trkpt lat="44.33572" lon="5.55199">
        <ele>1083.7</ele>
        <time>2023-04-06T12:30:15Z</time>
      </trkpt>
      <trkpt lat="44.33575" lon="5.55183">
        <ele>1083.3</ele>
        <time>2023-04-06T12:30:17Z</time>
      </trkpt>
      <trkpt lat="44.33579" lon="5.55176">
        <ele>1083.1</ele>
        <time>2023-04-06T12:30:18Z</time>
      </trkpt>
      <trkpt lat="44.33585" lon="5.55175">
        <ele>1082.9</ele>
        <time>2023-04-06T12:30:19Z</time>
      </trkpt>
      <trkpt lat="44.33591" lon="5.55175">
        <ele>1082.7</ele>
        <time>2023-04-06T12:30:20Z</time>
      </trkpt>
      <trkpt lat="44.33596" lon="5.55175">
        <ele>1082.5</ele>
        <time>2023-04-06T12:30:21Z</time>
      </trkpt>
      <trkpt lat="44.33602" lon="5.55176">
        <ele>1082.3</ele>
        <time>2023-04-06T12:30:22Z</time>
      </trkpt>
      <trkpt lat="44.33609" lon="5.55178">
        <ele>1082</ele>
        <time>2023-04-06T12:30:23Z</time>
      </trkpt>
      <trkpt lat="44.33617" lon="5.55181">
        <ele>1081.8</ele>
        <time>2023-04-06T12:30:24Z</time>
      </trkpt>
      <trkpt lat="44.33624" lon="5.55185">
        <ele>1081.5</ele>
        <time>2023-04-06T12:30:25Z</time>
      </trkpt>
      <trkpt lat="44.33632" lon="5.5519">
        <ele>1081.2</ele>
        <time>2023-04-06T12:30:26Z</time>
      </trkpt>
      <trkpt lat="44.3364" lon="5.55196">
        <ele>1080.9</ele>
        <time>2023-04-06T12:30:27Z</time>
      </trkpt>
      <trkpt lat="44.33648" lon="5.55202">
        <ele>1080.6</ele>
        <time>2023-04-06T12:30:28Z</time>
      </trkpt>
      <trkpt lat="44.33657" lon="5.55207">
        <ele>1080.2</ele>
        <time>2023-04-06T12:30:29Z</time>
      </trkpt>
      <trkpt lat="44.33666" lon="5.55213">
        <ele>1079.9</ele>
        <time>2023-04-06T12:30:30Z</time>
      </trkpt>
      <trkpt lat="44.33675" lon="5.55217">
        <ele>1079.6</ele>
        <time>2023-04-06T12:30:31Z</time>
      </trkpt>
      <trkpt lat="44.33685" lon="5.55221">
        <ele>1079.2</ele>
        <time>2023-04-06T12:30:32Z</time>
      </trkpt>
      <trkpt lat="44.33694" lon="5.55224">
        <ele>1078.9</ele>
        <time>2023-04-06T12:30:33Z</time>
      </trkpt>
      <trkpt lat="44.33703" lon="5.55225">
        <ele>1078.6</ele>
        <time>2023-04-06T12:30:34Z</time>
      </trkpt>
      <trkpt lat="44.33711" lon="5.55225">
        <ele>1078.3</ele>
        <time>2023-04-06T12:30:35Z</time>
      </trkpt>
      <trkpt lat="44.3372" lon="5.55222">
        <ele>1078</ele>
        <time>2023-04-06T12:30:36Z</time>
      </trkpt>
      <trkpt lat="44.33728" lon="5.5522">
        <ele>1077.7</ele>
        <time>2023-04-06T12:30:37Z</time>
      </trkpt>
      <trkpt lat="44.33737" lon="5.5522">
        <ele>1077.4</ele>
        <time>2023-04-06T12:30:38Z</time>
      </trkpt>
      <trkpt lat="44.33744" lon="5.5522">
        <ele>1077.1</ele>
        <time>2023-04-06T12:30:39Z</time>
      </trkpt>
      <trkpt lat="44.3375" lon="5.55222">
        <ele>1076.9</ele>
        <time>2023-04-06T12:30:40Z</time>
      </trkpt>
      <trkpt lat="44.33756" lon="5.55224">
        <ele>1076.7</ele>
        <time>2023-04-06T12:30:41Z</time>
      </trkpt>
      <trkpt lat="44.33763" lon="5.55228">
        <ele>1076.5</ele>
        <time>2023-04-06T12:30:42Z</time>
      </trkpt>
      <trkpt lat="44.3377" lon="5.55232">
        <ele>1076.2</ele>
        <time>2023-04-06T12:30:43Z</time>
      </trkpt>
      <trkpt lat="44.33778" lon="5.55235">
        <ele>1075.9</ele>
        <time>2023-04-06T12:30:44Z</time>
      </trkpt>
      <trkpt lat="44.33786" lon="5.55237">
        <ele>1075.6</ele>
        <time>2023-04-06T12:30:45Z</time>
      </trkpt>
      <trkpt lat="44.33794" lon="5.55238">
        <ele>1075.4</ele>
        <time>2023-04-06T12:30:46Z</time>
      </trkpt>
      <trkpt lat="44.338" lon="5.55236">
        <ele>1075.1</ele>
        <time>2023-04-06T12:30:47Z</time>
      </trkpt>
      <trkpt lat="44.33806" lon="5.55231">
        <ele>1074.9</ele>
        <time>2023-04-06T12:30:48Z</time>
      </trkpt>
      <trkpt lat="44.33811" lon="5.55225">
        <ele>1074.7</ele>
        <time>2023-04-06T12:30:49Z</time>
      </trkpt>
      <trkpt lat="44.33813" lon="5.55218">
        <ele>1074.5</ele>
        <time>2023-04-06T12:30:50Z</time>
      </trkpt>
      <trkpt lat="44.3381" lon="5.55212">
        <ele>1074.3</ele>
        <time>2023-04-06T12:30:51Z</time>
      </trkpt>
      <trkpt lat="44.33807" lon="5.55205">
        <ele>1074.1</ele>
        <time>2023-04-06T12:30:52Z</time>
      </trkpt>
      <trkpt lat="44.33804" lon="5.55199">
        <ele>1073.9</ele>
        <time>2023-04-06T12:30:53Z</time>
      </trkpt>
      <trkpt lat="44.33801" lon="5.55193">
        <ele>1073.8</ele>
        <time>2023-04-06T12:30:54Z</time>
      </trkpt>
      <trkpt lat="44.33798" lon="5.55185">
        <ele>1073.6</ele>
        <time>2023-04-06T12:30:55Z</time>
      </trkpt>
      <trkpt lat="44.33796" lon="5.55179">
        <ele>1073.4</ele>
        <time>2023-04-06T12:30:56Z</time>
      </trkpt>
      <trkpt lat="44.33794" lon="5.55171">
        <ele>1073.2</ele>
        <time>2023-04-06T12:30:57Z</time>
      </trkpt>
      <trkpt lat="44.33792" lon="5.55164">
        <ele>1073</ele>
        <time>2023-04-06T12:30:58Z</time>
      </trkpt>
      <trkpt lat="44.33791" lon="5.55157">
        <ele>1072.8</ele>
        <time>2023-04-06T12:30:59Z</time>
      </trkpt>
      <trkpt lat="44.3379" lon="5.55151">
        <ele>1072.7</ele>
        <time>2023-04-06T12:31:00Z</time>
      </trkpt>
      <trkpt lat="44.33787" lon="5.55145">
        <ele>1072.5</ele>
        <time>2023-04-06T12:31:01Z</time>
      </trkpt>
      <trkpt lat="44.33783" lon="5.5514">
        <ele>1072.3</ele>
        <time>2023-04-06T12:31:02Z</time>
      </trkpt>
      <trkpt lat="44.33779" lon="5.55135">
        <ele>1072.1</ele>
        <time>2023-04-06T12:31:03Z</time>
      </trkpt>
      <trkpt lat="44.33776" lon="5.5513">
        <ele>1071.9</ele>
        <time>2023-04-06T12:31:04Z</time>
      </trkpt>
      <trkpt lat="44.33773" lon="5.55123">
        <ele>1071.7</ele>
        <time>2023-04-06T12:31:05Z</time>
      </trkpt>
      <trkpt lat="44.3377" lon="5.55118">
        <ele>1071.6</ele>
        <time>2023-04-06T12:31:06Z</time>
      </trkpt>
      <trkpt lat="44.33767" lon="5.55111">
        <ele>1071.4</ele>
        <time>2023-04-06T12:31:07Z</time>
      </trkpt>
      <trkpt lat="44.33765" lon="5.55104">
        <ele>1071.2</ele>
        <time>2023-04-06T12:31:08Z</time>
      </trkpt>
      <trkpt lat="44.33763" lon="5.55097">
        <ele>1071</ele>
        <time>2023-04-06T12:31:09Z</time>
      </trkpt>
      <trkpt lat="44.33761" lon="5.55091">
        <ele>1070.9</ele>
        <time>2023-04-06T12:31:10Z</time>
      </trkpt>
      <trkpt lat="44.33759" lon="5.55084">
        <ele>1070.7</ele>
        <time>2023-04-06T12:31:11Z</time>
      </trkpt>
      <trkpt lat="44.33756" lon="5.55077">
        <ele>1070.5</ele>
        <time>2023-04-06T12:31:12Z</time>
      </trkpt>
      <trkpt lat="44.33754" lon="5.55072">
        <ele>1070.3</ele>
        <time>2023-04-06T12:31:13Z</time>
      </trkpt>
      <trkpt lat="44.3375" lon="5.55067">
        <ele>1070.1</ele>
        <time>2023-04-06T12:31:14Z</time>
      </trkpt>
      <trkpt lat="44.33747" lon="5.55062">
        <ele>1070</ele>
        <time>2023-04-06T12:31:15Z</time>
      </trkpt>
      <trkpt lat="44.33743" lon="5.55058">
        <ele>1069.8</ele>
        <time>2023-04-06T12:31:16Z</time>
      </trkpt>
      <trkpt lat="44.3374" lon="5.55054">
        <ele>1069.7</ele>
        <time>2023-04-06T12:31:17Z</time>
      </trkpt>
      <trkpt lat="44.33737" lon="5.5505">
        <ele>1069.5</ele>
        <time>2023-04-06T12:31:18Z</time>
      </trkpt>
      <trkpt lat="44.33733" lon="5.55046">
        <ele>1069.4</ele>
        <time>2023-04-06T12:31:19Z</time>
      </trkpt>
      <trkpt lat="44.3373" lon="5.55042">
        <ele>1069.2</ele>
        <time>2023-04-06T12:31:20Z</time>
      </trkpt>
      <trkpt lat="44.33726" lon="5.55038">
        <ele>1069</ele>
        <time>2023-04-06T12:31:21Z</time>
      </trkpt>
      <trkpt lat="44.33724" lon="5.55034">
        <ele>1068.9</ele>
        <time>2023-04-06T12:31:22Z</time>
      </trkpt>
      <trkpt lat="44.33721" lon="5.5503">
        <ele>1068.8</ele>
        <time>2023-04-06T12:31:23Z</time>
      </trkpt>
      <trkpt lat="44.33718" lon="5.55025">
        <ele>1068.6</ele>
        <time>2023-04-06T12:31:24Z</time>
      </trkpt>
      <trkpt lat="44.33716" lon="5.55022">
        <ele>1068.5</ele>
        <time>2023-04-06T12:31:25Z</time>
      </trkpt>
      <trkpt lat="44.33714" lon="5.55018">
        <ele>1068.4</ele>
        <time>2023-04-06T12:31:26Z</time>
      </trkpt>
      <trkpt lat="44.33712" lon="5.55015">
        <ele>1068.3</ele>
        <time>2023-04-06T12:31:27Z</time>
      </trkpt>
      <trkpt lat="44.33711" lon="5.55011">
        <ele>1068.2</ele>
        <time>2023-04-06T12:31:28Z</time>
      </trkpt>
      <trkpt lat="44.33709" lon="5.55007">
        <ele>1068.1</ele>
        <time>2023-04-06T12:31:29Z</time>
      </trkpt>
      <trkpt lat="44.33707" lon="5.55003">
        <ele>1068</ele>
        <time>2023-04-06T12:31:30Z</time>
      </trkpt>
      <trkpt lat="44.33706" lon="5.54998">
        <ele>1067.8</ele>
        <time>2023-04-06T12:31:31Z</time>
      </trkpt>
      <trkpt lat="44.33706" lon="5.54993">
        <ele>1067.7</ele>
        <time>2023-04-06T12:31:32Z</time>
      </trkpt>
      <trkpt lat="44.33705" lon="5.54988">
        <ele>1067.6</ele>
        <time>2023-04-06T12:31:33Z</time>
      </trkpt>
      <trkpt lat="44.33704" lon="5.54983">
        <ele>1067.5</ele>
        <time>2023-04-06T12:31:34Z</time>
      </trkpt>
      <trkpt lat="44.33703" lon="5.54979">
        <ele>1067.3</ele>
        <time>2023-04-06T12:31:35Z</time>
      </trkpt>
      <trkpt lat="44.33702" lon="5.54974">
        <ele>1067.2</ele>
        <time>2023-04-06T12:31:36Z</time>
      </trkpt>
      <trkpt lat="44.33701" lon="5.54969">
        <ele>1067.1</ele>
        <time>2023-04-06T12:31:37Z</time>
      </trkpt>
      <trkpt lat="44.33699" lon="5.54965">
        <ele>1067</ele>
        <time>2023-04-06T12:31:38Z</time>
      </trkpt>
      <trkpt lat="44.33698" lon="5.5496">
        <ele>1066.8</ele>
        <time>2023-04-06T12:31:39Z</time>
      </trkpt>
      <trkpt lat="44.33695" lon="5.54955">
        <ele>1066.7</ele>
        <time>2023-04-06T12:31:40Z</time>
      </trkpt>
      <trkpt lat="44.33693" lon="5.54949">
        <ele>1066.5</ele>
        <time>2023-04-06T12:31:41Z</time>
      </trkpt>
      <trkpt lat="44.3369" lon="5.54944">
        <ele>1066.4</ele>
        <time>2023-04-06T12:31:43Z</time>
      </trkpt>
      <trkpt lat="44.33686" lon="5.54934">
        <ele>1066.1</ele>
        <time>2023-04-06T12:31:44Z</time>
      </trkpt>
      <trkpt lat="44.33684" lon="5.5493">
        <ele>1066</ele>
        <time>2023-04-06T12:31:45Z</time>
      </trkpt>
      <trkpt lat="44.33683" lon="5.54925">
        <ele>1065.8</ele>
        <time>2023-04-06T12:31:46Z</time>
      </trkpt>
      <trkpt lat="44.33681" lon="5.5492">
        <ele>1065.7</ele>
        <time>2023-04-06T12:31:47Z</time>
      </trkpt>
      <trkpt lat="44.3368" lon="5.54915">
        <ele>1065.6</ele>
        <time>2023-04-06T12:31:48Z</time>
      </trkpt>
      <trkpt lat="44.33679" lon="5.54911">
        <ele>1065.5</ele>
        <time>2023-04-06T12:31:49Z</time>
      </trkpt>
      <trkpt lat="44.33675" lon="5.54902">
        <ele>1065.2</ele>
        <time>2023-04-06T12:31:51Z</time>
      </trkpt>
      <trkpt lat="44.33673" lon="5.54898">
        <ele>1065.1</ele>
        <time>2023-04-06T12:31:52Z</time>
      </trkpt>
      <trkpt lat="44.3367" lon="5.54893">
        <ele>1064.9</ele>
        <time>2023-04-06T12:31:53Z</time>
      </trkpt>
      <trkpt lat="44.33667" lon="5.54889">
        <ele>1064.8</ele>
        <time>2023-04-06T12:31:54Z</time>
      </trkpt>
      <trkpt lat="44.33663" lon="5.54883">
        <ele>1064.6</ele>
        <time>2023-04-06T12:31:55Z</time>
      </trkpt>
      <trkpt lat="44.33659" lon="5.54878">
        <ele>1064.4</ele>
        <time>2023-04-06T12:31:56Z</time>
      </trkpt>
      <trkpt lat="44.33656" lon="5.54874">
        <ele>1064.3</ele>
        <time>2023-04-06T12:31:57Z</time>
      </trkpt>
      <trkpt lat="44.33654" lon="5.54869">
        <ele>1064.1</ele>
        <time>2023-04-06T12:31:58Z</time>
      </trkpt>
      <trkpt lat="44.33651" lon="5.54866">
        <ele>1064</ele>
        <time>2023-04-06T12:31:59Z</time>
      </trkpt>
      <trkpt lat="44.33649" lon="5.54863">
        <ele>1063.9</ele>
        <time>2023-04-06T12:32:00Z</time>
      </trkpt>
      <trkpt lat="44.33647" lon="5.54859">
        <ele>1063.7</ele>
        <time>2023-04-06T12:32:02Z</time>
      </trkpt>
      <trkpt lat="44.33645" lon="5.54856">
        <ele>1063.6</ele>
        <time>2023-04-06T12:32:03Z</time>
      </trkpt>
      <trkpt lat="44.3364" lon="5.54848">
        <ele>1063.3</ele>
        <time>2023-04-06T12:32:04Z</time>
      </trkpt>
      <trkpt lat="44.33638" lon="5.54844">
        <ele>1063.1</ele>
        <time>2023-04-06T12:32:05Z</time>
      </trkpt>
      <trkpt lat="44.33635" lon="5.54841">
        <ele>1063</ele>
        <time>2023-04-06T12:32:06Z</time>
      </trkpt>
      <trkpt lat="44.33633" lon="5.54838">
        <ele>1062.9</ele>
        <time>2023-04-06T12:32:07Z</time>
      </trkpt>
      <trkpt lat="44.33631" lon="5.54835">
        <ele>1062.7</ele>
        <time>2023-04-06T12:32:08Z</time>
      </trkpt>
      <trkpt lat="44.33629" lon="5.54833">
        <ele>1062.6</ele>
        <time>2023-04-06T12:32:09Z</time>
      </trkpt>
      <trkpt lat="44.33627" lon="5.54831">
        <ele>1062.5</ele>
        <time>2023-04-06T12:32:10Z</time>
      </trkpt>
      <trkpt lat="44.33624" lon="5.54828">
        <ele>1062.4</ele>
        <time>2023-04-06T12:32:11Z</time>
      </trkpt>
      <trkpt lat="44.3362" lon="5.54824">
        <ele>1062.2</ele>
        <time>2023-04-06T12:32:13Z</time>
      </trkpt>
      <trkpt lat="44.33618" lon="5.54821">
        <ele>1062.1</ele>
        <time>2023-04-06T12:32:14Z</time>
      </trkpt>
      <trkpt lat="44.33615" lon="5.54817">
        <ele>1061.9</ele>
        <time>2023-04-06T12:32:15Z</time>
      </trkpt>
      <trkpt lat="44.33614" lon="5.54816">
        <ele>1061.8</ele>
        <time>2023-04-06T12:32:16Z</time>
      </trkpt>
      <trkpt lat="44.33611" lon="5.54813">
        <ele>1061.7</ele>
        <time>2023-04-06T12:32:17Z</time>
      </trkpt>
      <trkpt lat="44.3361" lon="5.54812">
        <ele>1061.6</ele>
        <time>2023-04-06T12:32:18Z</time>
      </trkpt>
      <trkpt lat="44.33608" lon="5.5481">
        <ele>1061.5</ele>
        <time>2023-04-06T12:32:19Z</time>
      </trkpt>
      <trkpt lat="44.33605" lon="5.54809">
        <ele>1061.4</ele>
        <time>2023-04-06T12:32:20Z</time>
      </trkpt>
      <trkpt lat="44.33602" lon="5.54806">
        <ele>1061.2</ele>
        <time>2023-04-06T12:32:21Z</time>
      </trkpt>
      <trkpt lat="44.33599" lon="5.54803">
        <ele>1061.1</ele>
        <time>2023-04-06T12:32:22Z</time>
      </trkpt>
      <trkpt lat="44.33594" lon="5.54798">
        <ele>1060.8</ele>
        <time>2023-04-06T12:32:24Z</time>
      </trkpt>
      <trkpt lat="44.33592" lon="5.54795">
        <ele>1060.7</ele>
        <time>2023-04-06T12:32:25Z</time>
      </trkpt>
      <trkpt lat="44.3359" lon="5.54793">
        <ele>1060.6</ele>
        <time>2023-04-06T12:32:26Z</time>
      </trkpt>
      <trkpt lat="44.33587" lon="5.5479">
        <ele>1060.5</ele>
        <time>2023-04-06T12:32:27Z</time>
      </trkpt>
      <trkpt lat="44.33585" lon="5.54787">
        <ele>1060.3</ele>
        <time>2023-04-06T12:32:28Z</time>
      </trkpt>
      <trkpt lat="44.33583" lon="5.54784">
        <ele>1060.2</ele>
        <time>2023-04-06T12:32:29Z</time>
      </trkpt>
      <trkpt lat="44.33581" lon="5.54781">
        <ele>1060.1</ele>
        <time>2023-04-06T12:32:30Z</time>
      </trkpt>
      <trkpt lat="44.33578" lon="5.54778">
        <ele>1059.9</ele>
        <time>2023-04-06T12:32:31Z</time>
      </trkpt>
      <trkpt lat="44.33576" lon="5.54775">
        <ele>1059.8</ele>
        <time>2023-04-06T12:32:32Z</time>
      </trkpt>
      <trkpt lat="44.33574" lon="5.54772">
        <ele>1059.7</ele>
        <time>2023-04-06T12:32:33Z</time>
      </trkpt>
      <trkpt lat="44.33569" lon="5.54766">
        <ele>1059.4</ele>
        <time>2023-04-06T12:32:35Z</time>
      </trkpt>
      <trkpt lat="44.33568" lon="5.54765">
        <ele>1059.4</ele>
        <time>2023-04-06T12:32:36Z</time>
      </trkpt>
      <trkpt lat="44.33565" lon="5.54761">
        <ele>1059.2</ele>
        <time>2023-04-06T12:32:37Z</time>
      </trkpt>
      <trkpt lat="44.33565" lon="5.54759">
        <ele>1059.1</ele>
        <time>2023-04-06T12:32:38Z</time>
      </trkpt>
      <trkpt lat="44.33562" lon="5.54756">
        <ele>1059</ele>
        <time>2023-04-06T12:32:39Z</time>
      </trkpt>
      <trkpt lat="44.3356" lon="5.54754">
        <ele>1058.9</ele>
        <time>2023-04-06T12:32:40Z</time>
      </trkpt>
      <trkpt lat="44.33557" lon="5.54751">
        <ele>1058.8</ele>
        <time>2023-04-06T12:32:41Z</time>
      </trkpt>
      <trkpt lat="44.33555" lon="5.54749">
        <ele>1058.6</ele>
        <time>2023-04-06T12:32:42Z</time>
      </trkpt>
      <trkpt lat="44.33552" lon="5.54748">
        <ele>1058.5</ele>
        <time>2023-04-06T12:32:43Z</time>
      </trkpt>
      <trkpt lat="44.33549" lon="5.54745">
        <ele>1058.4</ele>
        <time>2023-04-06T12:32:44Z</time>
      </trkpt>
      <trkpt lat="44.33547" lon="5.54744">
        <ele>1058.3</ele>
        <time>2023-04-06T12:32:45Z</time>
      </trkpt>
      <trkpt lat="44.33545" lon="5.54741">
        <ele>1058.2</ele>
        <time>2023-04-06T12:32:46Z</time>
      </trkpt>
      <trkpt lat="44.33543" lon="5.54739">
        <ele>1058.1</ele>
        <time>2023-04-06T12:32:47Z</time>
      </trkpt>
      <trkpt lat="44.33541" lon="5.54736">
        <ele>1057.9</ele>
        <time>2023-04-06T12:32:48Z</time>
      </trkpt>
      <trkpt lat="44.33539" lon="5.54733">
        <ele>1057.8</ele>
        <time>2023-04-06T12:32:49Z</time>
      </trkpt>
      <trkpt lat="44.33537" lon="5.5473">
        <ele>1057.7</ele>
        <time>2023-04-06T12:32:50Z</time>
      </trkpt>
      <trkpt lat="44.33535" lon="5.54727">
        <ele>1057.6</ele>
        <time>2023-04-06T12:32:51Z</time>
      </trkpt>
      <trkpt lat="44.33533" lon="5.54723">
        <ele>1057.4</ele>
        <time>2023-04-06T12:32:52Z</time>
      </trkpt>
      <trkpt lat="44.33531" lon="5.54719">
        <ele>1057.3</ele>
        <time>2023-04-06T12:32:53Z</time>
      </trkpt>
      <trkpt lat="44.33528" lon="5.54716">
        <ele>1057.1</ele>
        <time>2023-04-06T12:32:54Z</time>
      </trkpt>
      <trkpt lat="44.33526" lon="5.54712">
        <ele>1057</ele>
        <time>2023-04-06T12:32:55Z</time>
      </trkpt>
      <trkpt lat="44.33524" lon="5.54708">
        <ele>1056.8</ele>
        <time>2023-04-06T12:32:56Z</time>
      </trkpt>
      <trkpt lat="44.33521" lon="5.54703">
        <ele>1056.6</ele>
        <time>2023-04-06T12:32:57Z</time>
      </trkpt>
      <trkpt lat="44.3352" lon="5.54698">
        <ele>1056.5</ele>
        <time>2023-04-06T12:32:58Z</time>
      </trkpt>
      <trkpt lat="44.33517" lon="5.54693">
        <ele>1056.3</ele>
        <time>2023-04-06T12:32:59Z</time>
      </trkpt>
      <trkpt lat="44.33515" lon="5.54689">
        <ele>1056.2</ele>
        <time>2023-04-06T12:33:00Z</time>
      </trkpt>
      <trkpt lat="44.3351" lon="5.5468">
        <ele>1055.8</ele>
        <time>2023-04-06T12:33:02Z</time>
      </trkpt>
      <trkpt lat="44.33509" lon="5.54675">
        <ele>1055.7</ele>
        <time>2023-04-06T12:33:03Z</time>
      </trkpt>
      <trkpt lat="44.33507" lon="5.54669">
        <ele>1055.5</ele>
        <time>2023-04-06T12:33:04Z</time>
      </trkpt>
      <trkpt lat="44.33506" lon="5.54662">
        <ele>1055.2</ele>
        <time>2023-04-06T12:33:05Z</time>
      </trkpt>
      <trkpt lat="44.33505" lon="5.54655">
        <ele>1055</ele>
        <time>2023-04-06T12:33:06Z</time>
      </trkpt>
      <trkpt lat="44.33504" lon="5.54641">
        <ele>1054.6</ele>
        <time>2023-04-06T12:33:08Z</time>
      </trkpt>
      <trkpt lat="44.33504" lon="5.54634">
        <ele>1054.4</ele>
        <time>2023-04-06T12:33:09Z</time>
      </trkpt>
      <trkpt lat="44.33504" lon="5.54626">
        <ele>1054.2</ele>
        <time>2023-04-06T12:33:10Z</time>
      </trkpt>
      <trkpt lat="44.33504" lon="5.54619">
        <ele>1054</ele>
        <time>2023-04-06T12:33:11Z</time>
      </trkpt>
      <trkpt lat="44.33503" lon="5.54613">
        <ele>1053.8</ele>
        <time>2023-04-06T12:33:12Z</time>
      </trkpt>
      <trkpt lat="44.33504" lon="5.54599">
        <ele>1053.4</ele>
        <time>2023-04-06T12:33:14Z</time>
      </trkpt>
      <trkpt lat="44.33504" lon="5.54591">
        <ele>1053.1</ele>
        <time>2023-04-06T12:33:15Z</time>
      </trkpt>
      <trkpt lat="44.33504" lon="5.54583">
        <ele>1052.9</ele>
        <time>2023-04-06T12:33:16Z</time>
      </trkpt>
      <trkpt lat="44.33503" lon="5.54575">
        <ele>1052.7</ele>
        <time>2023-04-06T12:33:17Z</time>
      </trkpt>
      <trkpt lat="44.33504" lon="5.54567">
        <ele>1052.4</ele>
        <time>2023-04-06T12:33:18Z</time>
      </trkpt>
      <trkpt lat="44.33504" lon="5.5456">
        <ele>1052.2</ele>
        <time>2023-04-06T12:33:19Z</time>
      </trkpt>
      <trkpt lat="44.33504" lon="5.54553">
        <ele>1052</ele>
        <time>2023-04-06T12:33:20Z</time>
      </trkpt>
      <trkpt lat="44.33505" lon="5.54546">
        <ele>1051.8</ele>
        <time>2023-04-06T12:33:21Z</time>
      </trkpt>
      <trkpt lat="44.33507" lon="5.5454">
        <ele>1051.6</ele>
        <time>2023-04-06T12:33:22Z</time>
      </trkpt>
      <trkpt lat="44.33511" lon="5.54533">
        <ele>1051.3</ele>
        <time>2023-04-06T12:33:23Z</time>
      </trkpt>
      <trkpt lat="44.33521" lon="5.54525">
        <ele>1050.9</ele>
        <time>2023-04-06T12:33:25Z</time>
      </trkpt>
      <trkpt lat="44.33526" lon="5.54521">
        <ele>1050.6</ele>
        <time>2023-04-06T12:33:26Z</time>
      </trkpt>
      <trkpt lat="44.33531" lon="5.54518">
        <ele>1050.4</ele>
        <time>2023-04-06T12:33:27Z</time>
      </trkpt>
      <trkpt lat="44.33537" lon="5.54517">
        <ele>1050.1</ele>
        <time>2023-04-06T12:33:28Z</time>
      </trkpt>
      <trkpt lat="44.33543" lon="5.54517">
        <ele>1049.9</ele>
        <time>2023-04-06T12:33:29Z</time>
      </trkpt>
      <trkpt lat="44.33549" lon="5.54516">
        <ele>1049.6</ele>
        <time>2023-04-06T12:33:30Z</time>
      </trkpt>
      <trkpt lat="44.33554" lon="5.54517">
        <ele>1049.4</ele>
        <time>2023-04-06T12:33:31Z</time>
      </trkpt>
      <trkpt lat="44.3356" lon="5.54517">
        <ele>1049.2</ele>
        <time>2023-04-06T12:33:32Z</time>
      </trkpt>
      <trkpt lat="44.33566" lon="5.54517">
        <ele>1048.9</ele>
        <time>2023-04-06T12:33:33Z</time>
      </trkpt>
      <trkpt lat="44.33573" lon="5.54516">
        <ele>1048.6</ele>
        <time>2023-04-06T12:33:34Z</time>
      </trkpt>
      <trkpt lat="44.33587" lon="5.54517">
        <ele>1048</ele>
        <time>2023-04-06T12:33:36Z</time>
      </trkpt>
      <trkpt lat="44.33594" lon="5.54519">
        <ele>1047.7</ele>
        <time>2023-04-06T12:33:37Z</time>
      </trkpt>
      <trkpt lat="44.33601" lon="5.54522">
        <ele>1047.4</ele>
        <time>2023-04-06T12:33:38Z</time>
      </trkpt>
      <trkpt lat="44.33608" lon="5.54528">
        <ele>1047.1</ele>
        <time>2023-04-06T12:33:39Z</time>
      </trkpt>
      <trkpt lat="44.33613" lon="5.54536">
        <ele>1046.8</ele>
        <time>2023-04-06T12:33:40Z</time>
      </trkpt>
      <trkpt lat="44.33616" lon="5.54546">
        <ele>1046.5</ele>
        <time>2023-04-06T12:33:41Z</time>
      </trkpt>
      <trkpt lat="44.33619" lon="5.54556">
        <ele>1046.1</ele>
        <time>2023-04-06T12:33:42Z</time>
      </trkpt>
      <trkpt lat="44.33622" lon="5.54567">
        <ele>1045.8</ele>
        <time>2023-04-06T12:33:43Z</time>
      </trkpt>
      <trkpt lat="44.33624" lon="5.54578">
        <ele>1045.5</ele>
        <time>2023-04-06T12:33:44Z</time>
      </trkpt>
      <trkpt lat="44.33626" lon="5.54588">
        <ele>1045.1</ele>
        <time>2023-04-06T12:33:45Z</time>
      </trkpt>
      <trkpt lat="44.33629" lon="5.54598">
        <ele>1044.8</ele>
        <time>2023-04-06T12:33:46Z</time>
      </trkpt>
      <trkpt lat="44.33633" lon="5.54608">
        <ele>1044.5</ele>
        <time>2023-04-06T12:33:47Z</time>
      </trkpt>
      <trkpt lat="44.33638" lon="5.54617">
        <ele>1044.1</ele>
        <time>2023-04-06T12:33:48Z</time>
      </trkpt>
      <trkpt lat="44.33643" lon="5.54626">
        <ele>1043.8</ele>
        <time>2023-04-06T12:33:49Z</time>
      </trkpt>
      <trkpt lat="44.33649" lon="5.54636">
        <ele>1043.4</ele>
        <time>2023-04-06T12:33:50Z</time>
      </trkpt>
      <trkpt lat="44.33662" lon="5.54656">
        <ele>1042.6</ele>
        <time>2023-04-06T12:33:52Z</time>
      </trkpt>
      <trkpt lat="44.33668" lon="5.54668">
        <ele>1042.2</ele>
        <time>2023-04-06T12:33:53Z</time>
      </trkpt>
      <trkpt lat="44.33674" lon="5.5468">
        <ele>1041.7</ele>
        <time>2023-04-06T12:33:54Z</time>
      </trkpt>
      <trkpt lat="44.3368" lon="5.54691">
        <ele>1041.3</ele>
        <time>2023-04-06T12:33:55Z</time>
      </trkpt>
      <trkpt lat="44.33686" lon="5.54703">
        <ele>1040.9</ele>
        <time>2023-04-06T12:33:56Z</time>
      </trkpt>
      <trkpt lat="44.33691" lon="5.54714">
        <ele>1040.5</ele>
        <time>2023-04-06T12:33:57Z</time>
      </trkpt>
      <trkpt lat="44.33696" lon="5.54726">
        <ele>1040.1</ele>
        <time>2023-04-06T12:33:58Z</time>
      </trkpt>
      <trkpt lat="44.33701" lon="5.54736">
        <ele>1039.7</ele>
        <time>2023-04-06T12:33:59Z</time>
      </trkpt>
      <trkpt lat="44.33705" lon="5.54745">
        <ele>1039.4</ele>
        <time>2023-04-06T12:34:00Z</time>
      </trkpt>
      <trkpt lat="44.33711" lon="5.54752">
        <ele>1039.1</ele>
        <time>2023-04-06T12:34:01Z</time>
      </trkpt>
      <trkpt lat="44.33723" lon="5.54766">
        <ele>1038.4</ele>
        <time>2023-04-06T12:34:03Z</time>
      </trkpt>
      <trkpt lat="44.33729" lon="5.54774">
        <ele>1038.1</ele>
        <time>2023-04-06T12:34:04Z</time>
      </trkpt>
      <trkpt lat="44.33735" lon="5.54782">
        <ele>1037.7</ele>
        <time>2023-04-06T12:34:05Z</time>
      </trkpt>
      <trkpt lat="44.33742" lon="5.54791">
        <ele>1037.4</ele>
        <time>2023-04-06T12:34:06Z</time>
      </trkpt>
      <trkpt lat="44.33748" lon="5.54799">
        <ele>1037</ele>
        <time>2023-04-06T12:34:07Z</time>
      </trkpt>
      <trkpt lat="44.33753" lon="5.54809">
        <ele>1036.6</ele>
        <time>2023-04-06T12:34:08Z</time>
      </trkpt>
      <trkpt lat="44.33758" lon="5.54819">
        <ele>1036.3</ele>
        <time>2023-04-06T12:34:09Z</time>
      </trkpt>
      <trkpt lat="44.33764" lon="5.54829">
        <ele>1035.9</ele>
        <time>2023-04-06T12:34:10Z</time>
      </trkpt>
      <trkpt lat="44.33772" lon="5.54837">
        <ele>1035.5</ele>
        <time>2023-04-06T12:34:11Z</time>
      </trkpt>
      <trkpt lat="44.3378" lon="5.54842">
        <ele>1035.1</ele>
        <time>2023-04-06T12:34:12Z</time>
      </trkpt>
      <trkpt lat="44.33789" lon="5.54847">
        <ele>1034.7</ele>
        <time>2023-04-06T12:34:13Z</time>
      </trkpt>
      <trkpt lat="44.33797" lon="5.54852">
        <ele>1034.3</ele>
        <time>2023-04-06T12:34:14Z</time>
      </trkpt>
      <trkpt lat="44.33806" lon="5.54857">
        <ele>1034</ele>
        <time>2023-04-06T12:34:15Z</time>
      </trkpt>
      <trkpt lat="44.33813" lon="5.54862">
        <ele>1033.6</ele>
        <time>2023-04-06T12:34:16Z</time>
      </trkpt>
      <trkpt lat="44.33821" lon="5.54867">
        <ele>1033.2</ele>
        <time>2023-04-06T12:34:17Z</time>
      </trkpt>
      <trkpt lat="44.33829" lon="5.5487">
        <ele>1032.9</ele>
        <time>2023-04-06T12:34:18Z</time>
      </trkpt>
      <trkpt lat="44.33837" lon="5.54874">
        <ele>1032.6</ele>
        <time>2023-04-06T12:34:19Z</time>
      </trkpt>
      <trkpt lat="44.33844" lon="5.54878">
        <ele>1032.2</ele>
        <time>2023-04-06T12:34:20Z</time>
      </trkpt>
      <trkpt lat="44.33851" lon="5.54881">
        <ele>1031.9</ele>
        <time>2023-04-06T12:34:21Z</time>
      </trkpt>
      <trkpt lat="44.33856" lon="5.54884">
        <ele>1031.7</ele>
        <time>2023-04-06T12:34:22Z</time>
      </trkpt>
      <trkpt lat="44.33861" lon="5.54886">
        <ele>1031.5</ele>
        <time>2023-04-06T12:34:23Z</time>
      </trkpt>
      <trkpt lat="44.33865" lon="5.54887">
        <ele>1031.3</ele>
        <time>2023-04-06T12:34:24Z</time>
      </trkpt>
      <trkpt lat="44.33871" lon="5.54886">
        <ele>1031.1</ele>
        <time>2023-04-06T12:34:25Z</time>
      </trkpt>
      <trkpt lat="44.33875" lon="5.54885">
        <ele>1030.9</ele>
        <time>2023-04-06T12:34:26Z</time>
      </trkpt>
      <trkpt lat="44.33878" lon="5.54885">
        <ele>1030.8</ele>
        <time>2023-04-06T12:34:27Z</time>
      </trkpt>
      <trkpt lat="44.33882" lon="5.54884">
        <ele>1030.6</ele>
        <time>2023-04-06T12:34:28Z</time>
      </trkpt>
      <trkpt lat="44.33885" lon="5.54882">
        <ele>1030.5</ele>
        <time>2023-04-06T12:34:29Z</time>
      </trkpt>
      <trkpt lat="44.33888" lon="5.54879">
        <ele>1030.3</ele>
        <time>2023-04-06T12:34:30Z</time>
      </trkpt>
      <trkpt lat="44.3389" lon="5.54875">
        <ele>1030.2</ele>
        <time>2023-04-06T12:34:31Z</time>
      </trkpt>
      <trkpt lat="44.33891" lon="5.54871">
        <ele>1030</ele>
        <time>2023-04-06T12:34:32Z</time>
      </trkpt>
      <trkpt lat="44.33891" lon="5.54866">
        <ele>1029.9</ele>
        <time>2023-04-06T12:34:33Z</time>
      </trkpt>
      <trkpt lat="44.33891" lon="5.54861">
        <ele>1029.7</ele>
        <time>2023-04-06T12:34:34Z</time>
      </trkpt>
      <trkpt lat="44.33891" lon="5.54854">
        <ele>1029.5</ele>
        <time>2023-04-06T12:34:35Z</time>
      </trkpt>
      <trkpt lat="44.33891" lon="5.54848">
        <ele>1029.4</ele>
        <time>2023-04-06T12:34:36Z</time>
      </trkpt>
      <trkpt lat="44.33891" lon="5.54841">
        <ele>1029.2</ele>
        <time>2023-04-06T12:34:37Z</time>
      </trkpt>
      <trkpt lat="44.3389" lon="5.54835">
        <ele>1029</ele>
        <time>2023-04-06T12:34:38Z</time>
      </trkpt>
      <trkpt lat="44.3389" lon="5.54827">
        <ele>1028.7</ele>
        <time>2023-04-06T12:34:39Z</time>
      </trkpt>
      <trkpt lat="44.33889" lon="5.5482">
        <ele>1028.5</ele>
        <time>2023-04-06T12:34:40Z</time>
      </trkpt>
      <trkpt lat="44.33887" lon="5.54815">
        <ele>1028.4</ele>
        <time>2023-04-06T12:34:41Z</time>
      </trkpt>
      <trkpt lat="44.33886" lon="5.5481">
        <ele>1028.2</ele>
        <time>2023-04-06T12:34:42Z</time>
      </trkpt>
      <trkpt lat="44.33885" lon="5.54805">
        <ele>1028</ele>
        <time>2023-04-06T12:34:43Z</time>
      </trkpt>
      <trkpt lat="44.33884" lon="5.54798">
        <ele>1027.6</ele>
        <time>2023-04-06T12:34:44Z</time>
      </trkpt>
      <trkpt lat="44.33884" lon="5.54792">
        <ele>1027.2</ele>
        <time>2023-04-06T12:34:45Z</time>
      </trkpt>
      <trkpt lat="44.33885" lon="5.54787">
        <ele>1026.9</ele>
        <time>2023-04-06T12:34:46Z</time>
      </trkpt>
      <trkpt lat="44.33888" lon="5.54784">
        <ele>1026.6</ele>
        <time>2023-04-06T12:34:47Z</time>
      </trkpt>
      <trkpt lat="44.33892" lon="5.54783">
        <ele>1026.2</ele>
        <time>2023-04-06T12:34:48Z</time>
      </trkpt>
      <trkpt lat="44.33896" lon="5.54784">
        <ele>1025.8</ele>
        <time>2023-04-06T12:34:49Z</time>
      </trkpt>
      <trkpt lat="44.339" lon="5.54785">
        <ele>1025.3</ele>
        <time>2023-04-06T12:34:50Z</time>
      </trkpt>
      <trkpt lat="44.33904" lon="5.54787">
        <ele>1024.9</ele>
        <time>2023-04-06T12:34:51Z</time>
      </trkpt>
      <trkpt lat="44.33909" lon="5.54789">
        <ele>1024.3</ele>
        <time>2023-04-06T12:34:52Z</time>
      </trkpt>
      <trkpt lat="44.33914" lon="5.54792">
        <ele>1023.7</ele>
        <time>2023-04-06T12:34:53Z</time>
      </trkpt>
      <trkpt lat="44.33919" lon="5.54795">
        <ele>1023.2</ele>
        <time>2023-04-06T12:34:54Z</time>
      </trkpt>
      <trkpt lat="44.33924" lon="5.54798">
        <ele>1022.5</ele>
        <time>2023-04-06T12:34:55Z</time>
      </trkpt>
      <trkpt lat="44.33929" lon="5.54802">
        <ele>1021.9</ele>
        <time>2023-04-06T12:34:56Z</time>
      </trkpt>
      <trkpt lat="44.33934" lon="5.54805">
        <ele>1021.3</ele>
        <time>2023-04-06T12:34:57Z</time>
      </trkpt>
      <trkpt lat="44.3394" lon="5.54809">
        <ele>1020.5</ele>
        <time>2023-04-06T12:34:58Z</time>
      </trkpt>
      <trkpt lat="44.33946" lon="5.54814">
        <ele>1019.7</ele>
        <time>2023-04-06T12:34:59Z</time>
      </trkpt>
      <trkpt lat="44.33952" lon="5.54818">
        <ele>1018.9</ele>
        <time>2023-04-06T12:35:00Z</time>
      </trkpt>
      <trkpt lat="44.33959" lon="5.54822">
        <ele>1018</ele>
        <time>2023-04-06T12:35:01Z</time>
      </trkpt>
      <trkpt lat="44.33965" lon="5.54827">
        <ele>1017.1</ele>
        <time>2023-04-06T12:35:02Z</time>
      </trkpt>
      <trkpt lat="44.33972" lon="5.54832">
        <ele>1016.3</ele>
        <time>2023-04-06T12:35:03Z</time>
      </trkpt>
      <trkpt lat="44.33978" lon="5.54838">
        <ele>1015.5</ele>
        <time>2023-04-06T12:35:04Z</time>
      </trkpt>
      <trkpt lat="44.33985" lon="5.54842">
        <ele>1014.8</ele>
        <time>2023-04-06T12:35:05Z</time>
      </trkpt>
      <trkpt lat="44.33992" lon="5.54844">
        <ele>1014.1</ele>
        <time>2023-04-06T12:35:06Z</time>
      </trkpt>
      <trkpt lat="44.34" lon="5.54845">
        <ele>1013.4</ele>
        <time>2023-04-06T12:35:07Z</time>
      </trkpt>
      <trkpt lat="44.34006" lon="5.54845">
        <ele>1012.8</ele>
        <time>2023-04-06T12:35:08Z</time>
      </trkpt>
      <trkpt lat="44.34013" lon="5.54846">
        <ele>1012.2</ele>
        <time>2023-04-06T12:35:09Z</time>
      </trkpt>
      <trkpt lat="44.3402" lon="5.54848">
        <ele>1011.7</ele>
        <time>2023-04-06T12:35:10Z</time>
      </trkpt>
      <trkpt lat="44.34027" lon="5.54851">
        <ele>1011.4</ele>
        <time>2023-04-06T12:35:11Z</time>
      </trkpt>
      <trkpt lat="44.34033" lon="5.54853">
        <ele>1011</ele>
        <time>2023-04-06T12:35:12Z</time>
      </trkpt>
      <trkpt lat="44.34039" lon="5.54856">
        <ele>1010.7</ele>
        <time>2023-04-06T12:35:13Z</time>
      </trkpt>
      <trkpt lat="44.34045" lon="5.54861">
        <ele>1010.3</ele>
        <time>2023-04-06T12:35:14Z</time>
      </trkpt>
      <trkpt lat="44.3405" lon="5.54867">
        <ele>1009.9</ele>
        <time>2023-04-06T12:35:15Z</time>
      </trkpt>
      <trkpt lat="44.34055" lon="5.54874">
        <ele>1009.6</ele>
        <time>2023-04-06T12:35:16Z</time>
      </trkpt>
      <trkpt lat="44.3406" lon="5.54879">
        <ele>1009.4</ele>
        <time>2023-04-06T12:35:17Z</time>
      </trkpt>
      <trkpt lat="44.34065" lon="5.54885">
        <ele>1009.3</ele>
        <time>2023-04-06T12:35:18Z</time>
      </trkpt>
      <trkpt lat="44.34069" lon="5.54891">
        <ele>1009.2</ele>
        <time>2023-04-06T12:35:19Z</time>
      </trkpt>
      <trkpt lat="44.34071" lon="5.54898">
        <ele>1009.2</ele>
        <time>2023-04-06T12:35:20Z</time>
      </trkpt>
      <trkpt lat="44.34072" lon="5.54905">
        <ele>1009.2</ele>
        <time>2023-04-06T12:35:21Z</time>
      </trkpt>
      <trkpt lat="44.34074" lon="5.54912">
        <ele>1009.3</ele>
        <time>2023-04-06T12:35:22Z</time>
      </trkpt>
      <trkpt lat="44.34075" lon="5.54919">
        <ele>1009.4</ele>
        <time>2023-04-06T12:35:23Z</time>
      </trkpt>
      <trkpt lat="44.34078" lon="5.54927">
        <ele>1009.4</ele>
        <time>2023-04-06T12:35:24Z</time>
      </trkpt>
      <trkpt lat="44.34082" lon="5.54935">
        <ele>1009.5</ele>
        <time>2023-04-06T12:35:25Z</time>
      </trkpt>
      <trkpt lat="44.34087" lon="5.54941">
        <ele>1009.6</ele>
        <time>2023-04-06T12:35:26Z</time>
      </trkpt>
      <trkpt lat="44.34093" lon="5.54941">
        <ele>1009.8</ele>
        <time>2023-04-06T12:35:27Z</time>
      </trkpt>
      <trkpt lat="44.34099" lon="5.54941">
        <ele>1010.1</ele>
        <time>2023-04-06T12:35:28Z</time>
      </trkpt>
      <trkpt lat="44.34105" lon="5.5494">
        <ele>1010.3</ele>
        <time>2023-04-06T12:35:29Z</time>
      </trkpt>
      <trkpt lat="44.3411" lon="5.54937">
        <ele>1010.5</ele>
        <time>2023-04-06T12:35:30Z</time>
      </trkpt>
      <trkpt lat="44.34115" lon="5.54935">
        <ele>1010.8</ele>
        <time>2023-04-06T12:35:31Z</time>
      </trkpt>
      <trkpt lat="44.3412" lon="5.54931">
        <ele>1011</ele>
        <time>2023-04-06T12:35:32Z</time>
      </trkpt>
      <trkpt lat="44.34125" lon="5.54927">
        <ele>1011.2</ele>
        <time>2023-04-06T12:35:33Z</time>
      </trkpt>
      <trkpt lat="44.3413" lon="5.54924">
        <ele>1011.3</ele>
        <time>2023-04-06T12:35:34Z</time>
      </trkpt>
      <trkpt lat="44.34135" lon="5.54921">
        <ele>1011.4</ele>
        <time>2023-04-06T12:35:35Z</time>
      </trkpt>
      <trkpt lat="44.34139" lon="5.54919">
        <ele>1011.5</ele>
        <time>2023-04-06T12:35:36Z</time>
      </trkpt>
      <trkpt lat="44.34148" lon="5.54914">
        <ele>1011.7</ele>
        <time>2023-04-06T12:35:38Z</time>
      </trkpt>
      <trkpt lat="44.34153" lon="5.54911">
        <ele>1011.9</ele>
        <time>2023-04-06T12:35:39Z</time>
      </trkpt>
      <trkpt lat="44.34157" lon="5.54908">
        <ele>1012</ele>
        <time>2023-04-06T12:35:40Z</time>
      </trkpt>
      <trkpt lat="44.34161" lon="5.54903">
        <ele>1012.2</ele>
        <time>2023-04-06T12:35:41Z</time>
      </trkpt>
      <trkpt lat="44.34165" lon="5.54899">
        <ele>1012.4</ele>
        <time>2023-04-06T12:35:42Z</time>
      </trkpt>
      <trkpt lat="44.34169" lon="5.54895">
        <ele>1012.5</ele>
        <time>2023-04-06T12:35:43Z</time>
      </trkpt>
      <trkpt lat="44.34173" lon="5.5489">
        <ele>1012.7</ele>
        <time>2023-04-06T12:35:44Z</time>
      </trkpt>
      <trkpt lat="44.34176" lon="5.54886">
        <ele>1012.8</ele>
        <time>2023-04-06T12:35:45Z</time>
      </trkpt>
      <trkpt lat="44.3418" lon="5.54881">
        <ele>1013</ele>
        <time>2023-04-06T12:35:46Z</time>
      </trkpt>
      <trkpt lat="44.34183" lon="5.54876">
        <ele>1013.1</ele>
        <time>2023-04-06T12:35:47Z</time>
      </trkpt>
      <trkpt lat="44.34188" lon="5.54865">
        <ele>1013.9</ele>
        <time>2023-04-06T12:35:49Z</time>
      </trkpt>
      <trkpt lat="44.3419" lon="5.54859">
        <ele>1014.8</ele>
        <time>2023-04-06T12:35:50Z</time>
      </trkpt>
      <trkpt lat="44.34191" lon="5.54854">
        <ele>1016.3</ele>
        <time>2023-04-06T12:35:51Z</time>
      </trkpt>
      <trkpt lat="44.34192" lon="5.54849">
        <ele>1018.1</ele>
        <time>2023-04-06T12:35:52Z</time>
      </trkpt>
      <trkpt lat="44.34193" lon="5.54844">
        <ele>1020.3</ele>
        <time>2023-04-06T12:35:53Z</time>
      </trkpt>
      <trkpt lat="44.34196" lon="5.54835">
        <ele>1024.5</ele>
        <time>2023-04-06T12:35:55Z</time>
      </trkpt>
      <trkpt lat="44.34198" lon="5.54831">
        <ele>1025.1</ele>
        <time>2023-04-06T12:35:56Z</time>
      </trkpt>
      <trkpt lat="44.342" lon="5.54827">
        <ele>1025.5</ele>
        <time>2023-04-06T12:35:57Z</time>
      </trkpt>
      <trkpt lat="44.34203" lon="5.54824">
        <ele>1025.7</ele>
        <time>2023-04-06T12:35:58Z</time>
      </trkpt>
      <trkpt lat="44.34205" lon="5.54821">
        <ele>1026</ele>
        <time>2023-04-06T12:35:59Z</time>
      </trkpt>
      <trkpt lat="44.34208" lon="5.54818">
        <ele>1026.2</ele>
        <time>2023-04-06T12:36:00Z</time>
      </trkpt>
      <trkpt lat="44.34211" lon="5.54815">
        <ele>1026.4</ele>
        <time>2023-04-06T12:36:01Z</time>
      </trkpt>
      <trkpt lat="44.34214" lon="5.54812">
        <ele>1026.5</ele>
        <time>2023-04-06T12:36:02Z</time>
      </trkpt>
      <trkpt lat="44.34216" lon="5.54809">
        <ele>1026.6</ele>
        <time>2023-04-06T12:36:03Z</time>
      </trkpt>
      <trkpt lat="44.34218" lon="5.54805">
        <ele>1026.8</ele>
        <time>2023-04-06T12:36:04Z</time>
      </trkpt>
      <trkpt lat="44.34223" lon="5.54799">
        <ele>1027</ele>
        <time>2023-04-06T12:36:06Z</time>
      </trkpt>
      <trkpt lat="44.34225" lon="5.54796">
        <ele>1027.1</ele>
        <time>2023-04-06T12:36:07Z</time>
      </trkpt>
      <trkpt lat="44.34228" lon="5.54793">
        <ele>1027.2</ele>
        <time>2023-04-06T12:36:08Z</time>
      </trkpt>
      <trkpt lat="44.3423" lon="5.54791">
        <ele>1027.4</ele>
        <time>2023-04-06T12:36:09Z</time>
      </trkpt>
      <trkpt lat="44.34233" lon="5.54788">
        <ele>1027.6</ele>
        <time>2023-04-06T12:36:10Z</time>
      </trkpt>
      <trkpt lat="44.34235" lon="5.54786">
        <ele>1027.8</ele>
        <time>2023-04-06T12:36:11Z</time>
      </trkpt>
      <trkpt lat="44.34238" lon="5.54783">
        <ele>1028.1</ele>
        <time>2023-04-06T12:36:12Z</time>
      </trkpt>
      <trkpt lat="44.34241" lon="5.54781">
        <ele>1028.3</ele>
        <time>2023-04-06T12:36:13Z</time>
      </trkpt>
      <trkpt lat="44.34244" lon="5.54778">
        <ele>1028.6</ele>
        <time>2023-04-06T12:36:14Z</time>
      </trkpt>
      <trkpt lat="44.34247" lon="5.54776">
        <ele>1028.7</ele>
        <time>2023-04-06T12:36:15Z</time>
      </trkpt>
      <trkpt lat="44.34252" lon="5.54772">
        <ele>1029</ele>
        <time>2023-04-06T12:36:17Z</time>
      </trkpt>
      <trkpt lat="44.34254" lon="5.54769">
        <ele>1029.1</ele>
        <time>2023-04-06T12:36:18Z</time>
      </trkpt>
      <trkpt lat="44.34256" lon="5.54766">
        <ele>1029.2</ele>
        <time>2023-04-06T12:36:19Z</time>
      </trkpt>
      <trkpt lat="44.34259" lon="5.54763">
        <ele>1029.3</ele>
        <time>2023-04-06T12:36:20Z</time>
      </trkpt>
      <trkpt lat="44.3426" lon="5.54762">
        <ele>1029.3</ele>
        <time>2023-04-06T12:36:21Z</time>
      </trkpt>
      <trkpt lat="44.34265" lon="5.54757">
        <ele>1029.5</ele>
        <time>2023-04-06T12:36:23Z</time>
      </trkpt>
      <trkpt lat="44.34267" lon="5.54754">
        <ele>1029.6</ele>
        <time>2023-04-06T12:36:24Z</time>
      </trkpt>
      <trkpt lat="44.3427" lon="5.54752">
        <ele>1029.7</ele>
        <time>2023-04-06T12:36:25Z</time>
      </trkpt>
      <trkpt lat="44.34273" lon="5.54749">
        <ele>1029.8</ele>
        <time>2023-04-06T12:36:26Z</time>
      </trkpt>
      <trkpt lat="44.34275" lon="5.54747">
        <ele>1029.9</ele>
        <time>2023-04-06T12:36:27Z</time>
      </trkpt>
      <trkpt lat="44.3428" lon="5.54744">
        <ele>1030.2</ele>
        <time>2023-04-06T12:36:29Z</time>
      </trkpt>
      <trkpt lat="44.34282" lon="5.54742">
        <ele>1030.4</ele>
        <time>2023-04-06T12:36:30Z</time>
      </trkpt>
      <trkpt lat="44.34286" lon="5.5474">
        <ele>1030.8</ele>
        <time>2023-04-06T12:36:31Z</time>
      </trkpt>
      <trkpt lat="44.34287" lon="5.54739">
        <ele>1030.9</ele>
        <time>2023-04-06T12:36:32Z</time>
      </trkpt>
      <trkpt lat="44.3429" lon="5.54737">
        <ele>1031</ele>
        <time>2023-04-06T12:36:33Z</time>
      </trkpt>
      <trkpt lat="44.34292" lon="5.54737">
        <ele>1031</ele>
        <time>2023-04-06T12:36:34Z</time>
      </trkpt>
      <trkpt lat="44.34293" lon="5.54738">
        <ele>1030.9</ele>
        <time>2023-04-06T12:36:35Z</time>
      </trkpt>
      <trkpt lat="44.34292" lon="5.54739">
        <ele>1030.9</ele>
        <time>2023-04-06T12:36:36Z</time>
      </trkpt>
      <trkpt lat="44.34292" lon="5.54739">
        <ele>1030.8</ele>
        <time>2023-04-06T12:36:37Z</time>
      </trkpt>
      <trkpt lat="44.34293" lon="5.54739">
        <ele>1030.8</ele>
        <time>2023-04-06T12:36:38Z</time>
      </trkpt>
      <trkpt lat="44.34293" lon="5.54738">
        <ele>1030.8</ele>
        <time>2023-04-06T12:36:39Z</time>
      </trkpt>
      <trkpt lat="44.34293" lon="5.54738">
        <ele>1030.8</ele>
        <time>2023-04-06T12:36:40Z</time>
      </trkpt>
      <trkpt lat="44.34293" lon="5.54738">
        <ele>1030.8</ele>
        <time>2023-04-06T12:36:41Z</time>
      </trkpt>
      <trkpt lat="44.34293" lon="5.54738">
        <ele>1030.8</ele>
        <time>2023-04-06T12:36:42Z</time>
      </trkpt>
      <trkpt lat="44.34293" lon="5.54738">
        <ele>1030.8</ele>
        <time>2023-04-06T12:36:43Z</time>
      </trkpt>
      <trkpt lat="44.34293" lon="5.54738">
        <ele>1030.8</ele>
        <time>2023-04-06T12:36:44Z</time>
      </trkpt>
      <trkpt lat="44.34293" lon="5.54738">
        <ele>1030.7</ele>
        <time>2023-04-06T12:36:45Z</time>
      </trkpt>
      <trkpt lat="44.34294" lon="5.54739">
        <ele>1030.7</ele>
        <time>2023-04-06T12:36:46Z</time>
      </trkpt>
      <trkpt lat="44.34295" lon="5.54739">
        <ele>1030.6</ele>
        <time>2023-04-06T12:36:47Z</time>
      </trkpt>
      <trkpt lat="44.34295" lon="5.54739">
        <ele>1030.6</ele>
        <time>2023-04-06T12:36:48Z</time>
      </trkpt>
      <trkpt lat="44.34295" lon="5.54739">
        <ele>1030.6</ele>
        <time>2023-04-06T12:36:49Z</time>
      </trkpt>
      <trkpt lat="44.34295" lon="5.5474">
        <ele>1030.6</ele>
        <time>2023-04-06T12:36:51Z</time>
      </trkpt>
      <trkpt lat="44.34295" lon="5.5474">
        <ele>1030.6</ele>
        <time>2023-04-06T12:36:52Z</time>
      </trkpt>
      <trkpt lat="44.34296" lon="5.5474">
        <ele>1030.6</ele>
        <time>2023-04-06T12:36:53Z</time>
      </trkpt>
      <trkpt lat="44.34296" lon="5.54741">
        <ele>1030.6</ele>
        <time>2023-04-06T12:36:54Z</time>
      </trkpt>
      <trkpt lat="44.34296" lon="5.54741">
        <ele>1030.6</ele>
        <time>2023-04-06T12:36:55Z</time>
      </trkpt>
      <trkpt lat="44.34296" lon="5.54741">
        <ele>1030.6</ele>
        <time>2023-04-06T12:36:57Z</time>
      </trkpt>
      <trkpt lat="44.34296" lon="5.54741">
        <ele>1030.6</ele>
        <time>2023-04-06T12:36:58Z</time>
      </trkpt>
      <trkpt lat="44.34296" lon="5.54741">
        <ele>1030.6</ele>
        <time>2023-04-06T12:36:59Z</time>
      </trkpt>
      <trkpt lat="44.34296" lon="5.54741">
        <ele>1030.6</ele>
        <time>2023-04-06T12:37:00Z</time>
      </trkpt>
      <trkpt lat="44.34296" lon="5.54741">
        <ele>1030.6</ele>
        <time>2023-04-06T12:37:01Z</time>
      </trkpt>
      <trkpt lat="44.34296" lon="5.54739">
        <ele>1030.5</ele>
        <time>2023-04-06T12:38:19Z</time>
      </trkpt>
      <trkpt lat="44.34297" lon="5.54738">
        <ele>1030.4</ele>
        <time>2023-04-06T12:38:20Z</time>
      </trkpt>
      <trkpt lat="44.34297" lon="5.54738">
        <ele>1030.4</ele>
        <time>2023-04-06T12:38:22Z</time>
      </trkpt>
      <trkpt lat="44.34297" lon="5.54738">
        <ele>1030.4</ele>
        <time>2023-04-06T12:38:23Z</time>
      </trkpt>
      <trkpt lat="44.34297" lon="5.54738">
        <ele>1030.4</ele>
        <time>2023-04-06T12:38:24Z</time>
      </trkpt>
      <trkpt lat="44.34297" lon="5.54738">
        <ele>1030.4</ele>
        <time>2023-04-06T12:38:25Z</time>
      </trkpt>
      <trkpt lat="44.34297" lon="5.54738">
        <ele>1030.4</ele>
        <time>2023-04-06T12:38:27Z</time>
      </trkpt>
      <trkpt lat="44.34297" lon="5.54738">
        <ele>1030.4</ele>
        <time>2023-04-06T12:38:28Z</time>
      </trkpt>
      <trkpt lat="44.34297" lon="5.54738">
        <ele>1030.4</ele>
        <time>2023-04-06T12:38:29Z</time>
      </trkpt>
      <trkpt lat="44.34297" lon="5.54738">
        <ele>1030.4</ele>
        <time>2023-04-06T12:38:31Z</time>
      </trkpt>
      <trkpt lat="44.34297" lon="5.54739">
        <ele>1030.4</ele>
        <time>2023-04-06T12:38:32Z</time>
      </trkpt>
      <trkpt lat="44.34298" lon="5.54742">
        <ele>1030.2</ele>
        <time>2023-04-06T12:38:39Z</time>
      </trkpt>
      <trkpt lat="44.34298" lon="5.54744">
        <ele>1030.2</ele>
        <time>2023-04-06T12:38:40Z</time>
      </trkpt>
      <trkpt lat="44.34299" lon="5.54743">
        <ele>1030.1</ele>
        <time>2023-04-06T12:38:41Z</time>
      </trkpt>
      <trkpt lat="44.34299" lon="5.54742">
        <ele>1030.1</ele>
        <time>2023-04-06T12:38:42Z</time>
      </trkpt>
      <trkpt lat="44.34299" lon="5.54742">
        <ele>1030.1</ele>
        <time>2023-04-06T12:38:43Z</time>
      </trkpt>
      <trkpt lat="44.34299" lon="5.54742">
        <ele>1030.1</ele>
        <time>2023-04-06T12:38:44Z</time>
      </trkpt>
      <trkpt lat="44.34299" lon="5.54742">
        <ele>1030.1</ele>
        <time>2023-04-06T12:38:45Z</time>
      </trkpt>
      <trkpt lat="44.34299" lon="5.54742">
        <ele>1030.1</ele>
        <time>2023-04-06T12:38:46Z</time>
      </trkpt>
      <trkpt lat="44.34298" lon="5.54741">
        <ele>1030</ele>
        <time>2023-04-06T12:38:47Z</time>
      </trkpt>
      <trkpt lat="44.34298" lon="5.5474">
        <ele>1030</ele>
        <time>2023-04-06T12:38:48Z</time>
      </trkpt>
      <trkpt lat="44.34297" lon="5.54739">
        <ele>1030</ele>
        <time>2023-04-06T12:38:49Z</time>
      </trkpt>
      <trkpt lat="44.34297" lon="5.54739">
        <ele>1029.9</ele>
        <time>2023-04-06T12:38:50Z</time>
      </trkpt>
      <trkpt lat="44.34297" lon="5.54739">
        <ele>1029.9</ele>
        <time>2023-04-06T12:38:51Z</time>
      </trkpt>
      <trkpt lat="44.34297" lon="5.54739">
        <ele>1029.9</ele>
        <time>2023-04-06T12:38:52Z</time>
      </trkpt>
      <trkpt lat="44.34297" lon="5.54739">
        <ele>1029.9</ele>
        <time>2023-04-06T12:38:53Z</time>
      </trkpt>
      <trkpt lat="44.34297" lon="5.54739">
        <ele>1029.9</ele>
        <time>2023-04-06T12:38:54Z</time>
      </trkpt>
      <trkpt lat="44.34297" lon="5.54739">
        <ele>1029.9</ele>
        <time>2023-04-06T12:38:55Z</time>
      </trkpt>
      <trkpt lat="44.34297" lon="5.54739">
        <ele>1029.9</ele>
        <time>2023-04-06T12:38:56Z</time>
      </trkpt>
      <trkpt lat="44.34297" lon="5.54739">
        <ele>1029.9</ele>
        <time>2023-04-06T12:38:57Z</time>
      </trkpt>
      <trkpt lat="44.34297" lon="5.54739">
        <ele>1029.9</ele>
        <time>2023-04-06T12:38:58Z</time>
      </trkpt>
      <trkpt lat="44.343" lon="5.54745">
        <ele>1029.7</ele>
        <time>2023-04-06T12:39:29Z</time>
      </trkpt>
      <trkpt lat="44.34301" lon="5.54746">
        <ele>1029.6</ele>
        <time>2023-04-06T12:39:30Z</time>
      </trkpt>
      <trkpt lat="44.34301" lon="5.54746">
        <ele>1029.6</ele>
        <time>2023-04-06T12:39:31Z</time>
      </trkpt>
      <trkpt lat="44.34301" lon="5.54746">
        <ele>1029.6</ele>
        <time>2023-04-06T12:39:32Z</time>
      </trkpt>
      <trkpt lat="44.34301" lon="5.54746">
        <ele>1029.6</ele>
        <time>2023-04-06T12:39:33Z</time>
      </trkpt>
      <trkpt lat="44.34301" lon="5.54746">
        <ele>1029.6</ele>
        <time>2023-04-06T12:39:34Z</time>
      </trkpt>
      <trkpt lat="44.34301" lon="5.54746">
        <ele>1029.6</ele>
        <time>2023-04-06T12:39:35Z</time>
      </trkpt>
      <trkpt lat="44.34301" lon="5.54746">
        <ele>1029.6</ele>
        <time>2023-04-06T12:39:36Z</time>
      </trkpt>
      <trkpt lat="44.34301" lon="5.54746">
        <ele>1029.6</ele>
        <time>2023-04-06T12:39:37Z</time>
      </trkpt>
      <trkpt lat="44.34302" lon="5.54745">
        <ele>1029.6</ele>
        <time>2023-04-06T12:39:38Z</time>
      </trkpt>
      <trkpt lat="44.34304" lon="5.54744">
        <ele>1029.4</ele>
        <time>2023-04-06T12:39:40Z</time>
      </trkpt>
      <trkpt lat="44.34308" lon="5.54743">
        <ele>1029.2</ele>
        <time>2023-04-06T12:39:41Z</time>
      </trkpt>
      <trkpt lat="44.34309" lon="5.54742">
        <ele>1029.1</ele>
        <time>2023-04-06T12:39:42Z</time>
      </trkpt>
      <trkpt lat="44.34313" lon="5.54742">
        <ele>1029</ele>
        <time>2023-04-06T12:39:43Z</time>
      </trkpt>
      <trkpt lat="44.34314" lon="5.54742">
        <ele>1028.9</ele>
        <time>2023-04-06T12:39:44Z</time>
      </trkpt>
      <trkpt lat="44.34315" lon="5.54742">
        <ele>1028.8</ele>
        <time>2023-04-06T12:39:45Z</time>
      </trkpt>
      <trkpt lat="44.34317" lon="5.54742">
        <ele>1028.7</ele>
        <time>2023-04-06T12:39:46Z</time>
      </trkpt>
      <trkpt lat="44.3432" lon="5.54742">
        <ele>1028.6</ele>
        <time>2023-04-06T12:39:47Z</time>
      </trkpt>
      <trkpt lat="44.34321" lon="5.54742">
        <ele>1028.5</ele>
        <time>2023-04-06T12:39:48Z</time>
      </trkpt>
      <trkpt lat="44.34324" lon="5.54742">
        <ele>1028.3</ele>
        <time>2023-04-06T12:39:49Z</time>
      </trkpt>
      <trkpt lat="44.34328" lon="5.54741">
        <ele>1028.2</ele>
        <time>2023-04-06T12:39:50Z</time>
      </trkpt>
      <trkpt lat="44.34331" lon="5.54742">
        <ele>1028</ele>
        <time>2023-04-06T12:39:51Z</time>
      </trkpt>
      <trkpt lat="44.34335" lon="5.54743">
        <ele>1027.8</ele>
        <time>2023-04-06T12:39:52Z</time>
      </trkpt>
      <trkpt lat="44.34339" lon="5.54743">
        <ele>1027.6</ele>
        <time>2023-04-06T12:39:53Z</time>
      </trkpt>
      <trkpt lat="44.34342" lon="5.54743">
        <ele>1027.4</ele>
        <time>2023-04-06T12:39:54Z</time>
      </trkpt>
      <trkpt lat="44.34348" lon="5.54742">
        <ele>1027</ele>
        <time>2023-04-06T12:39:56Z</time>
      </trkpt>
      <trkpt lat="44.34351" lon="5.54742">
        <ele>1026.9</ele>
        <time>2023-04-06T12:39:57Z</time>
      </trkpt>
      <trkpt lat="44.34354" lon="5.54741">
        <ele>1026.7</ele>
        <time>2023-04-06T12:39:58Z</time>
      </trkpt>
      <trkpt lat="44.34357" lon="5.54739">
        <ele>1026.6</ele>
        <time>2023-04-06T12:39:59Z</time>
      </trkpt>
      <trkpt lat="44.3436" lon="5.54738">
        <ele>1026.4</ele>
        <time>2023-04-06T12:40:00Z</time>
      </trkpt>
      <trkpt lat="44.34363" lon="5.54737">
        <ele>1026.2</ele>
        <time>2023-04-06T12:40:01Z</time>
      </trkpt>
      <trkpt lat="44.34365" lon="5.54736">
        <ele>1026.1</ele>
        <time>2023-04-06T12:40:02Z</time>
      </trkpt>
      <trkpt lat="44.34368" lon="5.54734">
        <ele>1025.9</ele>
        <time>2023-04-06T12:40:03Z</time>
      </trkpt>
      <trkpt lat="44.3437" lon="5.54734">
        <ele>1025.8</ele>
        <time>2023-04-06T12:40:04Z</time>
      </trkpt>
      <trkpt lat="44.34372" lon="5.54732">
        <ele>1025.7</ele>
        <time>2023-04-06T12:40:05Z</time>
      </trkpt>
      <trkpt lat="44.34378" lon="5.54728">
        <ele>1025.3</ele>
        <time>2023-04-06T12:40:07Z</time>
      </trkpt>
      <trkpt lat="44.34381" lon="5.54725">
        <ele>1025.1</ele>
        <time>2023-04-06T12:40:08Z</time>
      </trkpt>
      <trkpt lat="44.34384" lon="5.54721">
        <ele>1024.9</ele>
        <time>2023-04-06T12:40:09Z</time>
      </trkpt>
      <trkpt lat="44.34387" lon="5.54717">
        <ele>1024.7</ele>
        <time>2023-04-06T12:40:10Z</time>
      </trkpt>
      <trkpt lat="44.34389" lon="5.54712">
        <ele>1024.5</ele>
        <time>2023-04-06T12:40:11Z</time>
      </trkpt>
      <trkpt lat="44.34391" lon="5.54708">
        <ele>1024.3</ele>
        <time>2023-04-06T12:40:12Z</time>
      </trkpt>
      <trkpt lat="44.34393" lon="5.54703">
        <ele>1024.1</ele>
        <time>2023-04-06T12:40:13Z</time>
      </trkpt>
      <trkpt lat="44.34396" lon="5.54698">
        <ele>1023.8</ele>
        <time>2023-04-06T12:40:14Z</time>
      </trkpt>
      <trkpt lat="44.34399" lon="5.54695">
        <ele>1023.6</ele>
        <time>2023-04-06T12:40:15Z</time>
      </trkpt>
      <trkpt lat="44.34403" lon="5.54691">
        <ele>1023.4</ele>
        <time>2023-04-06T12:40:16Z</time>
      </trkpt>
      <trkpt lat="44.3441" lon="5.54687">
        <ele>1023</ele>
        <time>2023-04-06T12:40:18Z</time>
      </trkpt>
      <trkpt lat="44.34414" lon="5.54685">
        <ele>1022.7</ele>
        <time>2023-04-06T12:40:19Z</time>
      </trkpt>
      <trkpt lat="44.3442" lon="5.54683">
        <ele>1022.4</ele>
        <time>2023-04-06T12:40:20Z</time>
      </trkpt>
      <trkpt lat="44.34425" lon="5.54681">
        <ele>1022.1</ele>
        <time>2023-04-06T12:40:21Z</time>
      </trkpt>
      <trkpt lat="44.34431" lon="5.54679">
        <ele>1021.8</ele>
        <time>2023-04-06T12:40:22Z</time>
      </trkpt>
      <trkpt lat="44.34436" lon="5.54677">
        <ele>1021.5</ele>
        <time>2023-04-06T12:40:23Z</time>
      </trkpt>
      <trkpt lat="44.34441" lon="5.54675">
        <ele>1021.2</ele>
        <time>2023-04-06T12:40:24Z</time>
      </trkpt>
      <trkpt lat="44.34445" lon="5.54675">
        <ele>1021</ele>
        <time>2023-04-06T12:40:25Z</time>
      </trkpt>
      <trkpt lat="44.3445" lon="5.54675">
        <ele>1020.7</ele>
        <time>2023-04-06T12:40:26Z</time>
      </trkpt>
      <trkpt lat="44.34456" lon="5.54677">
        <ele>1020.4</ele>
        <time>2023-04-06T12:40:27Z</time>
      </trkpt>
      <trkpt lat="44.34466" lon="5.5468">
        <ele>1019.9</ele>
        <time>2023-04-06T12:40:29Z</time>
      </trkpt>
      <trkpt lat="44.3447" lon="5.54682">
        <ele>1019.5</ele>
        <time>2023-04-06T12:40:30Z</time>
      </trkpt>
      <trkpt lat="44.34474" lon="5.54682">
        <ele>1019.1</ele>
        <time>2023-04-06T12:40:31Z</time>
      </trkpt>
      <trkpt lat="44.34477" lon="5.54683">
        <ele>1018.7</ele>
        <time>2023-04-06T12:40:32Z</time>
      </trkpt>
      <trkpt lat="44.34481" lon="5.54684">
        <ele>1018.4</ele>
        <time>2023-04-06T12:40:33Z</time>
      </trkpt>
      <trkpt lat="44.34484" lon="5.54684">
        <ele>1018.1</ele>
        <time>2023-04-06T12:40:34Z</time>
      </trkpt>
      <trkpt lat="44.34488" lon="5.54684">
        <ele>1017.7</ele>
        <time>2023-04-06T12:40:35Z</time>
      </trkpt>
      <trkpt lat="44.34492" lon="5.54684">
        <ele>1017.3</ele>
        <time>2023-04-06T12:40:36Z</time>
      </trkpt>
      <trkpt lat="44.34496" lon="5.54682">
        <ele>1016.9</ele>
        <time>2023-04-06T12:40:37Z</time>
      </trkpt>
      <trkpt lat="44.34501" lon="5.54681">
        <ele>1016.4</ele>
        <time>2023-04-06T12:40:38Z</time>
      </trkpt>
      <trkpt lat="44.3451" lon="5.54677">
        <ele>1015.4</ele>
        <time>2023-04-06T12:40:40Z</time>
      </trkpt>
      <trkpt lat="44.34514" lon="5.54674">
        <ele>1015</ele>
        <time>2023-04-06T12:40:41Z</time>
      </trkpt>
      <trkpt lat="44.34518" lon="5.54671">
        <ele>1014.6</ele>
        <time>2023-04-06T12:40:42Z</time>
      </trkpt>
      <trkpt lat="44.34523" lon="5.54667">
        <ele>1014</ele>
        <time>2023-04-06T12:40:43Z</time>
      </trkpt>
      <trkpt lat="44.34526" lon="5.54662">
        <ele>1013.6</ele>
        <time>2023-04-06T12:40:44Z</time>
      </trkpt>
      <trkpt lat="44.3453" lon="5.54658">
        <ele>1013.1</ele>
        <time>2023-04-06T12:40:45Z</time>
      </trkpt>
      <trkpt lat="44.34533" lon="5.54654">
        <ele>1012.6</ele>
        <time>2023-04-06T12:40:46Z</time>
      </trkpt>
      <trkpt lat="44.34535" lon="5.5465">
        <ele>1012.3</ele>
        <time>2023-04-06T12:40:47Z</time>
      </trkpt>
      <trkpt lat="44.34537" lon="5.54647">
        <ele>1012</ele>
        <time>2023-04-06T12:40:48Z</time>
      </trkpt>
      <trkpt lat="44.34539" lon="5.54643">
        <ele>1011.7</ele>
        <time>2023-04-06T12:40:49Z</time>
      </trkpt>
      <trkpt lat="44.34542" lon="5.5464">
        <ele>1011.3</ele>
        <time>2023-04-06T12:40:50Z</time>
      </trkpt>
      <trkpt lat="44.34544" lon="5.54636">
        <ele>1011</ele>
        <time>2023-04-06T12:40:51Z</time>
      </trkpt>
      <trkpt lat="44.34546" lon="5.54633">
        <ele>1010.7</ele>
        <time>2023-04-06T12:40:52Z</time>
      </trkpt>
      <trkpt lat="44.34549" lon="5.5463">
        <ele>1010.3</ele>
        <time>2023-04-06T12:40:53Z</time>
      </trkpt>
      <trkpt lat="44.3455" lon="5.54629">
        <ele>1010.2</ele>
        <time>2023-04-06T12:40:54Z</time>
      </trkpt>
      <trkpt lat="44.34553" lon="5.54629">
        <ele>1009.9</ele>
        <time>2023-04-06T12:40:55Z</time>
      </trkpt>
      <trkpt lat="44.34554" lon="5.54629">
        <ele>1009.8</ele>
        <time>2023-04-06T12:40:56Z</time>
      </trkpt>
      <trkpt lat="44.34557" lon="5.54629">
        <ele>1009.5</ele>
        <time>2023-04-06T12:40:57Z</time>
      </trkpt>
      <trkpt lat="44.34559" lon="5.54629">
        <ele>1009.4</ele>
        <time>2023-04-06T12:40:58Z</time>
      </trkpt>
      <trkpt lat="44.34562" lon="5.54629">
        <ele>1009</ele>
        <time>2023-04-06T12:40:59Z</time>
      </trkpt>
      <trkpt lat="44.34566" lon="5.54629">
        <ele>1008.6</ele>
        <time>2023-04-06T12:41:00Z</time>
      </trkpt>
      <trkpt lat="44.3457" lon="5.5463">
        <ele>1008.3</ele>
        <time>2023-04-06T12:41:01Z</time>
      </trkpt>
      <trkpt lat="44.34574" lon="5.54632">
        <ele>1007.8</ele>
        <time>2023-04-06T12:41:02Z</time>
      </trkpt>
      <trkpt lat="44.34578" lon="5.54635">
        <ele>1007.4</ele>
        <time>2023-04-06T12:41:03Z</time>
      </trkpt>
      <trkpt lat="44.34582" lon="5.54638">
        <ele>1006.9</ele>
        <time>2023-04-06T12:41:04Z</time>
      </trkpt>
      <trkpt lat="44.34587" lon="5.5464">
        <ele>1006.4</ele>
        <time>2023-04-06T12:41:05Z</time>
      </trkpt>
      <trkpt lat="44.34592" lon="5.54642">
        <ele>1005.9</ele>
        <time>2023-04-06T12:41:06Z</time>
      </trkpt>
      <trkpt lat="44.34597" lon="5.54645">
        <ele>1005.3</ele>
        <time>2023-04-06T12:41:07Z</time>
      </trkpt>
      <trkpt lat="44.34602" lon="5.54647">
        <ele>1004.8</ele>
        <time>2023-04-06T12:41:08Z</time>
      </trkpt>
      <trkpt lat="44.34607" lon="5.54648">
        <ele>1004.3</ele>
        <time>2023-04-06T12:41:09Z</time>
      </trkpt>
      <trkpt lat="44.34612" lon="5.54649">
        <ele>1003.8</ele>
        <time>2023-04-06T12:41:10Z</time>
      </trkpt>
      <trkpt lat="44.34617" lon="5.5465">
        <ele>1003.3</ele>
        <time>2023-04-06T12:41:11Z</time>
      </trkpt>
      <trkpt lat="44.34621" lon="5.5465">
        <ele>1002.9</ele>
        <time>2023-04-06T12:41:12Z</time>
      </trkpt>
      <trkpt lat="44.34625" lon="5.54651">
        <ele>1002.6</ele>
        <time>2023-04-06T12:41:13Z</time>
      </trkpt>
      <trkpt lat="44.34629" lon="5.54652">
        <ele>1002.2</ele>
        <time>2023-04-06T12:41:14Z</time>
      </trkpt>
      <trkpt lat="44.34633" lon="5.54653">
        <ele>1001.7</ele>
        <time>2023-04-06T12:41:15Z</time>
      </trkpt>
      <trkpt lat="44.34638" lon="5.54654">
        <ele>1001.3</ele>
        <time>2023-04-06T12:41:16Z</time>
      </trkpt>
      <trkpt lat="44.34642" lon="5.54654">
        <ele>1000.9</ele>
        <time>2023-04-06T12:41:17Z</time>
      </trkpt>
      <trkpt lat="44.34647" lon="5.54655">
        <ele>1000.4</ele>
        <time>2023-04-06T12:41:18Z</time>
      </trkpt>
      <trkpt lat="44.34652" lon="5.54658">
        <ele>999.9</ele>
        <time>2023-04-06T12:41:19Z</time>
      </trkpt>
      <trkpt lat="44.34657" lon="5.5466">
        <ele>999.3</ele>
        <time>2023-04-06T12:41:20Z</time>
      </trkpt>
      <trkpt lat="44.34669" lon="5.54665">
        <ele>998.1</ele>
        <time>2023-04-06T12:41:21Z</time>
      </trkpt>
      <trkpt lat="44.34686" lon="5.54668">
        <ele>996.4</ele>
        <time>2023-04-06T12:41:22Z</time>
      </trkpt>
      <trkpt lat="44.34693" lon="5.54669">
        <ele>995.7</ele>
        <time>2023-04-06T12:41:23Z</time>
      </trkpt>
      <trkpt lat="44.34698" lon="5.5467">
        <ele>995.2</ele>
        <time>2023-04-06T12:41:24Z</time>
      </trkpt>
      <trkpt lat="44.34703" lon="5.5467">
        <ele>994.7</ele>
        <time>2023-04-06T12:41:25Z</time>
      </trkpt>
      <trkpt lat="44.34706" lon="5.5467">
        <ele>994.4</ele>
        <time>2023-04-06T12:41:26Z</time>
      </trkpt>
      <trkpt lat="44.3471" lon="5.5467">
        <ele>994.1</ele>
        <time>2023-04-06T12:41:27Z</time>
      </trkpt>
      <trkpt lat="44.34713" lon="5.54669">
        <ele>993.7</ele>
        <time>2023-04-06T12:41:28Z</time>
      </trkpt>
      <trkpt lat="44.34717" lon="5.54668">
        <ele>993.3</ele>
        <time>2023-04-06T12:41:29Z</time>
      </trkpt>
      <trkpt lat="44.3472" lon="5.54667">
        <ele>993</ele>
        <time>2023-04-06T12:41:30Z</time>
      </trkpt>
      <trkpt lat="44.34723" lon="5.54664">
        <ele>992.6</ele>
        <time>2023-04-06T12:41:31Z</time>
      </trkpt>
      <trkpt lat="44.34725" lon="5.54661">
        <ele>992.3</ele>
        <time>2023-04-06T12:41:32Z</time>
      </trkpt>
      <trkpt lat="44.34728" lon="5.54658">
        <ele>992</ele>
        <time>2023-04-06T12:41:33Z</time>
      </trkpt>
      <trkpt lat="44.3473" lon="5.54655">
        <ele>991.7</ele>
        <time>2023-04-06T12:41:34Z</time>
      </trkpt>
      <trkpt lat="44.34733" lon="5.54652">
        <ele>991.3</ele>
        <time>2023-04-06T12:41:35Z</time>
      </trkpt>
      <trkpt lat="44.34737" lon="5.5465">
        <ele>990.9</ele>
        <time>2023-04-06T12:41:36Z</time>
      </trkpt>
      <trkpt lat="44.34742" lon="5.54646">
        <ele>990.4</ele>
        <time>2023-04-06T12:41:37Z</time>
      </trkpt>
      <trkpt lat="44.34747" lon="5.54642">
        <ele>989.8</ele>
        <time>2023-04-06T12:41:38Z</time>
      </trkpt>
      <trkpt lat="44.34751" lon="5.54638">
        <ele>989.3</ele>
        <time>2023-04-06T12:41:39Z</time>
      </trkpt>
      <trkpt lat="44.34754" lon="5.54636">
        <ele>989</ele>
        <time>2023-04-06T12:41:40Z</time>
      </trkpt>
      <trkpt lat="44.34757" lon="5.54635">
        <ele>988.7</ele>
        <time>2023-04-06T12:41:41Z</time>
      </trkpt>
      <trkpt lat="44.3476" lon="5.54633">
        <ele>988.3</ele>
        <time>2023-04-06T12:41:42Z</time>
      </trkpt>
      <trkpt lat="44.34764" lon="5.5463">
        <ele>987.9</ele>
        <time>2023-04-06T12:41:43Z</time>
      </trkpt>
      <trkpt lat="44.34768" lon="5.54628">
        <ele>987.5</ele>
        <time>2023-04-06T12:41:44Z</time>
      </trkpt>
      <trkpt lat="44.34773" lon="5.54627">
        <ele>986.9</ele>
        <time>2023-04-06T12:41:45Z</time>
      </trkpt>
      <trkpt lat="44.34779" lon="5.54625">
        <ele>986.3</ele>
        <time>2023-04-06T12:41:46Z</time>
      </trkpt>
      <trkpt lat="44.34784" lon="5.54624">
        <ele>985.9</ele>
        <time>2023-04-06T12:41:47Z</time>
      </trkpt>
      <trkpt lat="44.3479" lon="5.54622">
        <ele>985.3</ele>
        <time>2023-04-06T12:41:48Z</time>
      </trkpt>
      <trkpt lat="44.34796" lon="5.54622">
        <ele>984.7</ele>
        <time>2023-04-06T12:41:49Z</time>
      </trkpt>
      <trkpt lat="44.34801" lon="5.54623">
        <ele>984.2</ele>
        <time>2023-04-06T12:41:50Z</time>
      </trkpt>
      <trkpt lat="44.34806" lon="5.54623">
        <ele>983.6</ele>
        <time>2023-04-06T12:41:51Z</time>
      </trkpt>
      <trkpt lat="44.34812" lon="5.54624">
        <ele>983.1</ele>
        <time>2023-04-06T12:41:52Z</time>
      </trkpt>
      <trkpt lat="44.34817" lon="5.54624">
        <ele>982.6</ele>
        <time>2023-04-06T12:41:53Z</time>
      </trkpt>
      <trkpt lat="44.34821" lon="5.54625">
        <ele>982.2</ele>
        <time>2023-04-06T12:41:54Z</time>
      </trkpt>
      <trkpt lat="44.34825" lon="5.54627">
        <ele>981.8</ele>
        <time>2023-04-06T12:41:55Z</time>
      </trkpt>
      <trkpt lat="44.34829" lon="5.54628">
        <ele>981.4</ele>
        <time>2023-04-06T12:41:56Z</time>
      </trkpt>
      <trkpt lat="44.34835" lon="5.5463">
        <ele>980.8</ele>
        <time>2023-04-06T12:41:57Z</time>
      </trkpt>
      <trkpt lat="44.3484" lon="5.54632">
        <ele>980.2</ele>
        <time>2023-04-06T12:41:58Z</time>
      </trkpt>
      <trkpt lat="44.34846" lon="5.54633">
        <ele>979.7</ele>
        <time>2023-04-06T12:41:59Z</time>
      </trkpt>
      <trkpt lat="44.34851" lon="5.54634">
        <ele>979.1</ele>
        <time>2023-04-06T12:42:00Z</time>
      </trkpt>
      <trkpt lat="44.34857" lon="5.54636">
        <ele>978.6</ele>
        <time>2023-04-06T12:42:01Z</time>
      </trkpt>
      <trkpt lat="44.34863" lon="5.54637">
        <ele>978</ele>
        <time>2023-04-06T12:42:02Z</time>
      </trkpt>
      <trkpt lat="44.34869" lon="5.5464">
        <ele>977.4</ele>
        <time>2023-04-06T12:42:03Z</time>
      </trkpt>
      <trkpt lat="44.34875" lon="5.54642">
        <ele>976.8</ele>
        <time>2023-04-06T12:42:04Z</time>
      </trkpt>
      <trkpt lat="44.3488" lon="5.54643">
        <ele>976.2</ele>
        <time>2023-04-06T12:42:05Z</time>
      </trkpt>
      <trkpt lat="44.34885" lon="5.54645">
        <ele>975.7</ele>
        <time>2023-04-06T12:42:06Z</time>
      </trkpt>
      <trkpt lat="44.3489" lon="5.54646">
        <ele>975.3</ele>
        <time>2023-04-06T12:42:07Z</time>
      </trkpt>
      <trkpt lat="44.34893" lon="5.54647">
        <ele>974.9</ele>
        <time>2023-04-06T12:42:08Z</time>
      </trkpt>
      <trkpt lat="44.34897" lon="5.54648">
        <ele>974.5</ele>
        <time>2023-04-06T12:42:09Z</time>
      </trkpt>
      <trkpt lat="44.34901" lon="5.5465">
        <ele>974.1</ele>
        <time>2023-04-06T12:42:10Z</time>
      </trkpt>
      <trkpt lat="44.34905" lon="5.54651">
        <ele>973.7</ele>
        <time>2023-04-06T12:42:11Z</time>
      </trkpt>
      <trkpt lat="44.34911" lon="5.5465">
        <ele>973.2</ele>
        <time>2023-04-06T12:42:12Z</time>
      </trkpt>
      <trkpt lat="44.34915" lon="5.54648">
        <ele>972.7</ele>
        <time>2023-04-06T12:42:13Z</time>
      </trkpt>
      <trkpt lat="44.34919" lon="5.54645">
        <ele>972.3</ele>
        <time>2023-04-06T12:42:14Z</time>
      </trkpt>
      <trkpt lat="44.34921" lon="5.54642">
        <ele>971.9</ele>
        <time>2023-04-06T12:42:15Z</time>
      </trkpt>
      <trkpt lat="44.34923" lon="5.54638">
        <ele>971.6</ele>
        <time>2023-04-06T12:42:16Z</time>
      </trkpt>
      <trkpt lat="44.34926" lon="5.54635">
        <ele>971.3</ele>
        <time>2023-04-06T12:42:17Z</time>
      </trkpt>
      <trkpt lat="44.34929" lon="5.54631">
        <ele>970.9</ele>
        <time>2023-04-06T12:42:19Z</time>
      </trkpt>
      <trkpt lat="44.34934" lon="5.54623">
        <ele>970.1</ele>
        <time>2023-04-06T12:42:20Z</time>
      </trkpt>
      <trkpt lat="44.34936" lon="5.54618">
        <ele>969.7</ele>
        <time>2023-04-06T12:42:21Z</time>
      </trkpt>
      <trkpt lat="44.34937" lon="5.54613">
        <ele>969.3</ele>
        <time>2023-04-06T12:42:22Z</time>
      </trkpt>
      <trkpt lat="44.34938" lon="5.54608">
        <ele>969</ele>
        <time>2023-04-06T12:42:23Z</time>
      </trkpt>
      <trkpt lat="44.34939" lon="5.54603">
        <ele>968.6</ele>
        <time>2023-04-06T12:42:24Z</time>
      </trkpt>
      <trkpt lat="44.34941" lon="5.54598">
        <ele>968.2</ele>
        <time>2023-04-06T12:42:25Z</time>
      </trkpt>
      <trkpt lat="44.34943" lon="5.54594">
        <ele>967.8</ele>
        <time>2023-04-06T12:42:26Z</time>
      </trkpt>
      <trkpt lat="44.34947" lon="5.54584">
        <ele>967.1</ele>
        <time>2023-04-06T12:42:28Z</time>
      </trkpt>
      <trkpt lat="44.34952" lon="5.54574">
        <ele>966.2</ele>
        <time>2023-04-06T12:42:30Z</time>
      </trkpt>
      <trkpt lat="44.34955" lon="5.54568">
        <ele>965.7</ele>
        <time>2023-04-06T12:42:31Z</time>
      </trkpt>
      <trkpt lat="44.34958" lon="5.54562">
        <ele>965.1</ele>
        <time>2023-04-06T12:42:32Z</time>
      </trkpt>
      <trkpt lat="44.3496" lon="5.54554">
        <ele>964.6</ele>
        <time>2023-04-06T12:42:33Z</time>
      </trkpt>
      <trkpt lat="44.34961" lon="5.54548">
        <ele>964.1</ele>
        <time>2023-04-06T12:42:34Z</time>
      </trkpt>
      <trkpt lat="44.34964" lon="5.54534">
        <ele>963.1</ele>
        <time>2023-04-06T12:42:36Z</time>
      </trkpt>
      <trkpt lat="44.34965" lon="5.54528">
        <ele>962.7</ele>
        <time>2023-04-06T12:42:37Z</time>
      </trkpt>
      <trkpt lat="44.34966" lon="5.54522">
        <ele>962.2</ele>
        <time>2023-04-06T12:42:38Z</time>
      </trkpt>
      <trkpt lat="44.34967" lon="5.54513">
        <ele>961.6</ele>
        <time>2023-04-06T12:42:40Z</time>
      </trkpt>
      <trkpt lat="44.34969" lon="5.54507">
        <ele>961.1</ele>
        <time>2023-04-06T12:42:42Z</time>
      </trkpt>
      <trkpt lat="44.34969" lon="5.54503">
        <ele>960.8</ele>
        <time>2023-04-06T12:42:43Z</time>
      </trkpt>
      <trkpt lat="44.3497" lon="5.54502">
        <ele>960.7</ele>
        <time>2023-04-06T12:42:44Z</time>
      </trkpt>
      <trkpt lat="44.34969" lon="5.54497">
        <ele>960.4</ele>
        <time>2023-04-06T12:42:45Z</time>
      </trkpt>
      <trkpt lat="44.34969" lon="5.54496">
        <ele>960.3</ele>
        <time>2023-04-06T12:42:46Z</time>
      </trkpt>
      <trkpt lat="44.34968" lon="5.54492">
        <ele>960.1</ele>
        <time>2023-04-06T12:42:47Z</time>
      </trkpt>
      <trkpt lat="44.34967" lon="5.54487">
        <ele>959.7</ele>
        <time>2023-04-06T12:42:48Z</time>
      </trkpt>
      <trkpt lat="44.34966" lon="5.54485">
        <ele>959.5</ele>
        <time>2023-04-06T12:42:49Z</time>
      </trkpt>
      <trkpt lat="44.34963" lon="5.54482">
        <ele>959.1</ele>
        <time>2023-04-06T12:42:50Z</time>
      </trkpt>
      <trkpt lat="44.34962" lon="5.54482">
        <ele>959</ele>
        <time>2023-04-06T12:42:51Z</time>
      </trkpt>
      <trkpt lat="44.34958" lon="5.54482">
        <ele>958.7</ele>
        <time>2023-04-06T12:42:52Z</time>
      </trkpt>
      <trkpt lat="44.34955" lon="5.54481">
        <ele>958.3</ele>
        <time>2023-04-06T12:42:53Z</time>
      </trkpt>
      <trkpt lat="44.34951" lon="5.54482">
        <ele>958</ele>
        <time>2023-04-06T12:42:54Z</time>
      </trkpt>
      <trkpt lat="44.34948" lon="5.54481">
        <ele>957.6</ele>
        <time>2023-04-06T12:42:55Z</time>
      </trkpt>
      <trkpt lat="44.34945" lon="5.54479">
        <ele>957.3</ele>
        <time>2023-04-06T12:42:56Z</time>
      </trkpt>
      <trkpt lat="44.34938" lon="5.54476">
        <ele>956.6</ele>
        <time>2023-04-06T12:42:58Z</time>
      </trkpt>
      <trkpt lat="44.34934" lon="5.54474">
        <ele>956.2</ele>
        <time>2023-04-06T12:42:59Z</time>
      </trkpt>
      <trkpt lat="44.3493" lon="5.54473">
        <ele>955.8</ele>
        <time>2023-04-06T12:43:00Z</time>
      </trkpt>
      <trkpt lat="44.34926" lon="5.54473">
        <ele>955.4</ele>
        <time>2023-04-06T12:43:01Z</time>
      </trkpt>
      <trkpt lat="44.34922" lon="5.54472">
        <ele>955</ele>
        <time>2023-04-06T12:43:02Z</time>
      </trkpt>
      <trkpt lat="44.34915" lon="5.54471">
        <ele>954.3</ele>
        <time>2023-04-06T12:43:04Z</time>
      </trkpt>
      <trkpt lat="44.34911" lon="5.5447">
        <ele>953.9</ele>
        <time>2023-04-06T12:43:05Z</time>
      </trkpt>
      <trkpt lat="44.34906" lon="5.5447">
        <ele>953.4</ele>
        <time>2023-04-06T12:43:06Z</time>
      </trkpt>
      <trkpt lat="44.34902" lon="5.54468">
        <ele>953</ele>
        <time>2023-04-06T12:43:07Z</time>
      </trkpt>
      <trkpt lat="44.34899" lon="5.54466">
        <ele>952.6</ele>
        <time>2023-04-06T12:43:08Z</time>
      </trkpt>
      <trkpt lat="44.34894" lon="5.54456">
        <ele>951.8</ele>
        <time>2023-04-06T12:43:10Z</time>
      </trkpt>
      <trkpt lat="44.34892" lon="5.54452">
        <ele>951.4</ele>
        <time>2023-04-06T12:43:11Z</time>
      </trkpt>
      <trkpt lat="44.34888" lon="5.54449">
        <ele>951</ele>
        <time>2023-04-06T12:43:12Z</time>
      </trkpt>
      <trkpt lat="44.34884" lon="5.54445">
        <ele>950.5</ele>
        <time>2023-04-06T12:43:13Z</time>
      </trkpt>
      <trkpt lat="44.34879" lon="5.54442">
        <ele>950</ele>
        <time>2023-04-06T12:43:14Z</time>
      </trkpt>
      <trkpt lat="44.34868" lon="5.54432">
        <ele>948.7</ele>
        <time>2023-04-06T12:43:16Z</time>
      </trkpt>
      <trkpt lat="44.34863" lon="5.54428">
        <ele>948.1</ele>
        <time>2023-04-06T12:43:17Z</time>
      </trkpt>
      <trkpt lat="44.34856" lon="5.54424">
        <ele>947.4</ele>
        <time>2023-04-06T12:43:18Z</time>
      </trkpt>
      <trkpt lat="44.34851" lon="5.54421">
        <ele>946.8</ele>
        <time>2023-04-06T12:43:19Z</time>
      </trkpt>
      <trkpt lat="44.34845" lon="5.54418">
        <ele>946.2</ele>
        <time>2023-04-06T12:43:20Z</time>
      </trkpt>
      <trkpt lat="44.34839" lon="5.54412">
        <ele>945.5</ele>
        <time>2023-04-06T12:43:21Z</time>
      </trkpt>
      <trkpt lat="44.34833" lon="5.54406">
        <ele>944.7</ele>
        <time>2023-04-06T12:43:22Z</time>
      </trkpt>
      <trkpt lat="44.34825" lon="5.54399">
        <ele>943.8</ele>
        <time>2023-04-06T12:43:23Z</time>
      </trkpt>
      <trkpt lat="44.34819" lon="5.54391">
        <ele>943</ele>
        <time>2023-04-06T12:43:24Z</time>
      </trkpt>
      <trkpt lat="44.34814" lon="5.54384">
        <ele>942.3</ele>
        <time>2023-04-06T12:43:25Z</time>
      </trkpt>
      <trkpt lat="44.3481" lon="5.54378">
        <ele>941.7</ele>
        <time>2023-04-06T12:43:26Z</time>
      </trkpt>
      <trkpt lat="44.34806" lon="5.54371">
        <ele>941.1</ele>
        <time>2023-04-06T12:43:27Z</time>
      </trkpt>
      <trkpt lat="44.34803" lon="5.54367">
        <ele>940.7</ele>
        <time>2023-04-06T12:43:28Z</time>
      </trkpt>
      <trkpt lat="44.34799" lon="5.54363">
        <ele>940.2</ele>
        <time>2023-04-06T12:43:29Z</time>
      </trkpt>
      <trkpt lat="44.34795" lon="5.54358">
        <ele>939.7</ele>
        <time>2023-04-06T12:43:30Z</time>
      </trkpt>
      <trkpt lat="44.34789" lon="5.54349">
        <ele>938.8</ele>
        <time>2023-04-06T12:43:32Z</time>
      </trkpt>
      <trkpt lat="44.34787" lon="5.54345">
        <ele>938.5</ele>
        <time>2023-04-06T12:43:33Z</time>
      </trkpt>
      <trkpt lat="44.34786" lon="5.5434">
        <ele>938.1</ele>
        <time>2023-04-06T12:43:34Z</time>
      </trkpt>
      <trkpt lat="44.34786" lon="5.54339">
        <ele>938</ele>
        <time>2023-04-06T12:43:35Z</time>
      </trkpt>
      <trkpt lat="44.34788" lon="5.54334">
        <ele>937.7</ele>
        <time>2023-04-06T12:43:36Z</time>
      </trkpt>
      <trkpt lat="44.34788" lon="5.54333">
        <ele>937.6</ele>
        <time>2023-04-06T12:43:37Z</time>
      </trkpt>
      <trkpt lat="44.34792" lon="5.54331">
        <ele>937.2</ele>
        <time>2023-04-06T12:43:38Z</time>
      </trkpt>
      <trkpt lat="44.34793" lon="5.5433">
        <ele>937.1</ele>
        <time>2023-04-06T12:43:39Z</time>
      </trkpt>
      <trkpt lat="44.34796" lon="5.54327">
        <ele>934</ele>
        <time>2023-04-06T12:43:40Z</time>
      </trkpt>
      <trkpt lat="44.34796" lon="5.54326">
        <ele>933.8</ele>
        <time>2023-04-06T12:43:41Z</time>
      </trkpt>
      <trkpt lat="44.348" lon="5.54321">
        <ele>932.9</ele>
        <time>2023-04-06T12:43:43Z</time>
      </trkpt>
      <trkpt lat="44.34801" lon="5.5432">
        <ele>932.6</ele>
        <time>2023-04-06T12:43:44Z</time>
      </trkpt>
      <trkpt lat="44.34803" lon="5.54318">
        <ele>932.4</ele>
        <time>2023-04-06T12:43:45Z</time>
      </trkpt>
      <trkpt lat="44.34805" lon="5.54315">
        <ele>931.7</ele>
        <time>2023-04-06T12:43:46Z</time>
      </trkpt>
      <trkpt lat="44.34808" lon="5.54311">
        <ele>931.1</ele>
        <time>2023-04-06T12:43:47Z</time>
      </trkpt>
      <trkpt lat="44.34811" lon="5.54307">
        <ele>930.5</ele>
        <time>2023-04-06T12:43:48Z</time>
      </trkpt>
      <trkpt lat="44.34814" lon="5.54303">
        <ele>929.7</ele>
        <time>2023-04-06T12:43:49Z</time>
      </trkpt>
      <trkpt lat="44.34819" lon="5.54299">
        <ele>928.8</ele>
        <time>2023-04-06T12:43:50Z</time>
      </trkpt>
      <trkpt lat="44.34825" lon="5.54294">
        <ele>927.6</ele>
        <time>2023-04-06T12:43:51Z</time>
      </trkpt>
      <trkpt lat="44.34831" lon="5.54289">
        <ele>926.4</ele>
        <time>2023-04-06T12:43:52Z</time>
      </trkpt>
      <trkpt lat="44.34842" lon="5.54281">
        <ele>924.4</ele>
        <time>2023-04-06T12:43:54Z</time>
      </trkpt>
      <trkpt lat="44.34847" lon="5.54278">
        <ele>923.5</ele>
        <time>2023-04-06T12:43:55Z</time>
      </trkpt>
      <trkpt lat="44.34853" lon="5.54273">
        <ele>922.5</ele>
        <time>2023-04-06T12:43:56Z</time>
      </trkpt>
      <trkpt lat="44.34857" lon="5.54268">
        <ele>921.4</ele>
        <time>2023-04-06T12:43:57Z</time>
      </trkpt>
      <trkpt lat="44.34863" lon="5.54261">
        <ele>920.2</ele>
        <time>2023-04-06T12:43:58Z</time>
      </trkpt>
      <trkpt lat="44.34868" lon="5.54255">
        <ele>919.1</ele>
        <time>2023-04-06T12:43:59Z</time>
      </trkpt>
      <trkpt lat="44.34873" lon="5.54251">
        <ele>918.1</ele>
        <time>2023-04-06T12:44:00Z</time>
      </trkpt>
      <trkpt lat="44.34878" lon="5.54247">
        <ele>917.1</ele>
        <time>2023-04-06T12:44:01Z</time>
      </trkpt>
      <trkpt lat="44.34883" lon="5.54243">
        <ele>916.2</ele>
        <time>2023-04-06T12:44:02Z</time>
      </trkpt>
      <trkpt lat="44.34888" lon="5.5424">
        <ele>915.3</ele>
        <time>2023-04-06T12:44:03Z</time>
      </trkpt>
      <trkpt lat="44.34898" lon="5.54239">
        <ele>913.6</ele>
        <time>2023-04-06T12:44:05Z</time>
      </trkpt>
      <trkpt lat="44.34902" lon="5.5424">
        <ele>912.8</ele>
        <time>2023-04-06T12:44:06Z</time>
      </trkpt>
      <trkpt lat="44.34907" lon="5.5424">
        <ele>912</ele>
        <time>2023-04-06T12:44:07Z</time>
      </trkpt>
      <trkpt lat="44.34913" lon="5.54242">
        <ele>910.9</ele>
        <time>2023-04-06T12:44:08Z</time>
      </trkpt>
      <trkpt lat="44.34919" lon="5.54244">
        <ele>909.9</ele>
        <time>2023-04-06T12:44:09Z</time>
      </trkpt>
      <trkpt lat="44.34931" lon="5.54249">
        <ele>907.7</ele>
        <time>2023-04-06T12:44:11Z</time>
      </trkpt>
      <trkpt lat="44.34936" lon="5.54251">
        <ele>906.8</ele>
        <time>2023-04-06T12:44:12Z</time>
      </trkpt>
      <trkpt lat="44.34941" lon="5.5425">
        <ele>905.8</ele>
        <time>2023-04-06T12:44:13Z</time>
      </trkpt>
      <trkpt lat="44.34948" lon="5.54247">
        <ele>904.7</ele>
        <time>2023-04-06T12:44:14Z</time>
      </trkpt>
      <trkpt lat="44.34954" lon="5.54244">
        <ele>903.6</ele>
        <time>2023-04-06T12:44:15Z</time>
      </trkpt>
      <trkpt lat="44.3496" lon="5.54243">
        <ele>902.5</ele>
        <time>2023-04-06T12:44:16Z</time>
      </trkpt>
      <trkpt lat="44.34966" lon="5.54242">
        <ele>901.5</ele>
        <time>2023-04-06T12:44:17Z</time>
      </trkpt>
      <trkpt lat="44.34972" lon="5.54241">
        <ele>900.5</ele>
        <time>2023-04-06T12:44:18Z</time>
      </trkpt>
      <trkpt lat="44.34977" lon="5.5424">
        <ele>899.5</ele>
        <time>2023-04-06T12:44:19Z</time>
      </trkpt>
      <trkpt lat="44.34983" lon="5.54241">
        <ele>898.5</ele>
        <time>2023-04-06T12:44:20Z</time>
      </trkpt>
      <trkpt lat="44.34992" lon="5.54245">
        <ele>896.8</ele>
        <time>2023-04-06T12:44:22Z</time>
      </trkpt>
      <trkpt lat="44.34996" lon="5.54248">
        <ele>896</ele>
        <time>2023-04-06T12:44:23Z</time>
      </trkpt>
      <trkpt lat="44.35001" lon="5.5425">
        <ele>895.2</ele>
        <time>2023-04-06T12:44:24Z</time>
      </trkpt>
      <trkpt lat="44.35005" lon="5.54252">
        <ele>894.4</ele>
        <time>2023-04-06T12:44:25Z</time>
      </trkpt>
      <trkpt lat="44.3501" lon="5.54256">
        <ele>893.5</ele>
        <time>2023-04-06T12:44:26Z</time>
      </trkpt>
      <trkpt lat="44.35019" lon="5.54262">
        <ele>891.7</ele>
        <time>2023-04-06T12:44:28Z</time>
      </trkpt>
      <trkpt lat="44.35024" lon="5.54265">
        <ele>890.8</ele>
        <time>2023-04-06T12:44:29Z</time>
      </trkpt>
      <trkpt lat="44.35029" lon="5.54268">
        <ele>889.8</ele>
        <time>2023-04-06T12:44:30Z</time>
      </trkpt>
      <trkpt lat="44.35035" lon="5.5427">
        <ele>888.8</ele>
        <time>2023-04-06T12:44:31Z</time>
      </trkpt>
      <trkpt lat="44.3504" lon="5.54273">
        <ele>887.7</ele>
        <time>2023-04-06T12:44:32Z</time>
      </trkpt>
      <trkpt lat="44.35046" lon="5.54276">
        <ele>886.7</ele>
        <time>2023-04-06T12:44:33Z</time>
      </trkpt>
      <trkpt lat="44.35051" lon="5.54279">
        <ele>885.7</ele>
        <time>2023-04-06T12:44:34Z</time>
      </trkpt>
      <trkpt lat="44.35056" lon="5.54282">
        <ele>884.8</ele>
        <time>2023-04-06T12:44:35Z</time>
      </trkpt>
      <trkpt lat="44.35061" lon="5.54285">
        <ele>883.9</ele>
        <time>2023-04-06T12:44:36Z</time>
      </trkpt>
      <trkpt lat="44.35066" lon="5.54287">
        <ele>883</ele>
        <time>2023-04-06T12:44:37Z</time>
      </trkpt>
      <trkpt lat="44.35077" lon="5.54289">
        <ele>881.1</ele>
        <time>2023-04-06T12:44:39Z</time>
      </trkpt>
      <trkpt lat="44.35082" lon="5.54289">
        <ele>880.2</ele>
        <time>2023-04-06T12:44:40Z</time>
      </trkpt>
      <trkpt lat="44.35087" lon="5.54291">
        <ele>879.4</ele>
        <time>2023-04-06T12:44:41Z</time>
      </trkpt>
      <trkpt lat="44.35091" lon="5.54292">
        <ele>878.6</ele>
        <time>2023-04-06T12:44:42Z</time>
      </trkpt>
      <trkpt lat="44.35096" lon="5.54294">
        <ele>877.7</ele>
        <time>2023-04-06T12:44:43Z</time>
      </trkpt>
      <trkpt lat="44.35101" lon="5.54295">
        <ele>876.8</ele>
        <time>2023-04-06T12:44:44Z</time>
      </trkpt>
      <trkpt lat="44.35106" lon="5.54295">
        <ele>876</ele>
        <time>2023-04-06T12:44:45Z</time>
      </trkpt>
      <trkpt lat="44.3511" lon="5.54295">
        <ele>875.2</ele>
        <time>2023-04-06T12:44:46Z</time>
      </trkpt>
      <trkpt lat="44.35115" lon="5.54294">
        <ele>874.4</ele>
        <time>2023-04-06T12:44:47Z</time>
      </trkpt>
      <trkpt lat="44.35119" lon="5.54291">
        <ele>873.6</ele>
        <time>2023-04-06T12:44:48Z</time>
      </trkpt>
      <trkpt lat="44.35129" lon="5.54279">
        <ele>871.4</ele>
        <time>2023-04-06T12:44:50Z</time>
      </trkpt>
      <trkpt lat="44.35133" lon="5.54274">
        <ele>870.4</ele>
        <time>2023-04-06T12:44:51Z</time>
      </trkpt>
      <trkpt lat="44.35138" lon="5.5427">
        <ele>869.5</ele>
        <time>2023-04-06T12:44:52Z</time>
      </trkpt>
      <trkpt lat="44.35142" lon="5.54266">
        <ele>868.6</ele>
        <time>2023-04-06T12:44:53Z</time>
      </trkpt>
      <trkpt lat="44.35145" lon="5.54261">
        <ele>867.8</ele>
        <time>2023-04-06T12:44:54Z</time>
      </trkpt>
      <trkpt lat="44.3515" lon="5.54253">
        <ele>866.4</ele>
        <time>2023-04-06T12:44:56Z</time>
      </trkpt>
      <trkpt lat="44.35153" lon="5.5425">
        <ele>865.8</ele>
        <time>2023-04-06T12:44:57Z</time>
      </trkpt>
      <trkpt lat="44.35154" lon="5.5425">
        <ele>865.7</ele>
        <time>2023-04-06T12:44:58Z</time>
      </trkpt>
      <trkpt lat="44.35156" lon="5.54249">
        <ele>865.3</ele>
        <time>2023-04-06T12:44:59Z</time>
      </trkpt>
      <trkpt lat="44.35157" lon="5.54248">
        <ele>865.1</ele>
        <time>2023-04-06T12:45:00Z</time>
      </trkpt>
      <trkpt lat="44.35161" lon="5.54243">
        <ele>864.3</ele>
        <time>2023-04-06T12:45:02Z</time>
      </trkpt>
      <trkpt lat="44.35162" lon="5.54241">
        <ele>863.9</ele>
        <time>2023-04-06T12:45:03Z</time>
      </trkpt>
      <trkpt lat="44.35163" lon="5.54239">
        <ele>863.6</ele>
        <time>2023-04-06T12:45:04Z</time>
      </trkpt>
      <trkpt lat="44.35165" lon="5.54236">
        <ele>863</ele>
        <time>2023-04-06T12:45:05Z</time>
      </trkpt>
      <trkpt lat="44.35168" lon="5.54233">
        <ele>862.4</ele>
        <time>2023-04-06T12:45:06Z</time>
      </trkpt>
      <trkpt lat="44.35171" lon="5.5423">
        <ele>861.8</ele>
        <time>2023-04-06T12:45:07Z</time>
      </trkpt>
      <trkpt lat="44.35175" lon="5.54228">
        <ele>861.1</ele>
        <time>2023-04-06T12:45:08Z</time>
      </trkpt>
      <trkpt lat="44.35179" lon="5.54225">
        <ele>860.3</ele>
        <time>2023-04-06T12:45:09Z</time>
      </trkpt>
      <trkpt lat="44.35183" lon="5.54222">
        <ele>859.5</ele>
        <time>2023-04-06T12:45:10Z</time>
      </trkpt>
      <trkpt lat="44.35188" lon="5.54218">
        <ele>858.5</ele>
        <time>2023-04-06T12:45:11Z</time>
      </trkpt>
      <trkpt lat="44.35193" lon="5.54215">
        <ele>857.6</ele>
        <time>2023-04-06T12:45:12Z</time>
      </trkpt>
      <trkpt lat="44.35197" lon="5.54211">
        <ele>856.7</ele>
        <time>2023-04-06T12:45:13Z</time>
      </trkpt>
      <trkpt lat="44.35201" lon="5.54205">
        <ele>855.7</ele>
        <time>2023-04-06T12:45:14Z</time>
      </trkpt>
      <trkpt lat="44.35205" lon="5.54198">
        <ele>854.5</ele>
        <time>2023-04-06T12:45:15Z</time>
      </trkpt>
      <trkpt lat="44.35207" lon="5.5419">
        <ele>853.5</ele>
        <time>2023-04-06T12:45:16Z</time>
      </trkpt>
      <trkpt lat="44.35211" lon="5.54185">
        <ele>852.6</ele>
        <time>2023-04-06T12:45:17Z</time>
      </trkpt>
      <trkpt lat="44.35216" lon="5.54183">
        <ele>851.8</ele>
        <time>2023-04-06T12:45:18Z</time>
      </trkpt>
      <trkpt lat="44.3522" lon="5.54182">
        <ele>851.1</ele>
        <time>2023-04-06T12:45:19Z</time>
      </trkpt>
      <trkpt lat="44.35224" lon="5.54183">
        <ele>850.3</ele>
        <time>2023-04-06T12:45:20Z</time>
      </trkpt>
      <trkpt lat="44.35229" lon="5.54185">
        <ele>849.5</ele>
        <time>2023-04-06T12:45:21Z</time>
      </trkpt>
      <trkpt lat="44.35233" lon="5.54187">
        <ele>848.7</ele>
        <time>2023-04-06T12:45:22Z</time>
      </trkpt>
      <trkpt lat="44.35242" lon="5.54196">
        <ele>846.8</ele>
        <time>2023-04-06T12:45:24Z</time>
      </trkpt>
      <trkpt lat="44.35247" lon="5.542">
        <ele>845.7</ele>
        <time>2023-04-06T12:45:25Z</time>
      </trkpt>
      <trkpt lat="44.35253" lon="5.54203">
        <ele>844.7</ele>
        <time>2023-04-06T12:45:26Z</time>
      </trkpt>
      <trkpt lat="44.35259" lon="5.54204">
        <ele>843.7</ele>
        <time>2023-04-06T12:45:27Z</time>
      </trkpt>
      <trkpt lat="44.35264" lon="5.54204">
        <ele>842.8</ele>
        <time>2023-04-06T12:45:28Z</time>
      </trkpt>
      <trkpt lat="44.35269" lon="5.54204">
        <ele>841.9</ele>
        <time>2023-04-06T12:45:29Z</time>
      </trkpt>
      <trkpt lat="44.35274" lon="5.54206">
        <ele>841</ele>
        <time>2023-04-06T12:45:30Z</time>
      </trkpt>
      <trkpt lat="44.3528" lon="5.54208">
        <ele>840</ele>
        <time>2023-04-06T12:45:31Z</time>
      </trkpt>
      <trkpt lat="44.35286" lon="5.5421">
        <ele>838.9</ele>
        <time>2023-04-06T12:45:32Z</time>
      </trkpt>
      <trkpt lat="44.35293" lon="5.54211">
        <ele>837.7</ele>
        <time>2023-04-06T12:45:33Z</time>
      </trkpt>
      <trkpt lat="44.35299" lon="5.5421">
        <ele>836.7</ele>
        <time>2023-04-06T12:45:34Z</time>
      </trkpt>
      <trkpt lat="44.35305" lon="5.54209">
        <ele>835.5</ele>
        <time>2023-04-06T12:45:35Z</time>
      </trkpt>
      <trkpt lat="44.35313" lon="5.54208">
        <ele>834.2</ele>
        <time>2023-04-06T12:45:36Z</time>
      </trkpt>
      <trkpt lat="44.35321" lon="5.54206">
        <ele>832.8</ele>
        <time>2023-04-06T12:45:37Z</time>
      </trkpt>
      <trkpt lat="44.35329" lon="5.54204">
        <ele>831.4</ele>
        <time>2023-04-06T12:45:38Z</time>
      </trkpt>
      <trkpt lat="44.35336" lon="5.542">
        <ele>830.1</ele>
        <time>2023-04-06T12:45:39Z</time>
      </trkpt>
      <trkpt lat="44.35342" lon="5.54196">
        <ele>828.9</ele>
        <time>2023-04-06T12:45:40Z</time>
      </trkpt>
      <trkpt lat="44.35349" lon="5.54194">
        <ele>827.7</ele>
        <time>2023-04-06T12:45:41Z</time>
      </trkpt>
      <trkpt lat="44.35356" lon="5.54193">
        <ele>826.4</ele>
        <time>2023-04-06T12:45:42Z</time>
      </trkpt>
      <trkpt lat="44.35363" lon="5.54192">
        <ele>825.2</ele>
        <time>2023-04-06T12:45:43Z</time>
      </trkpt>
      <trkpt lat="44.3537" lon="5.5419">
        <ele>824</ele>
        <time>2023-04-06T12:45:44Z</time>
      </trkpt>
      <trkpt lat="44.35377" lon="5.54189">
        <ele>822.7</ele>
        <time>2023-04-06T12:45:45Z</time>
      </trkpt>
      <trkpt lat="44.35384" lon="5.5419">
        <ele>821.5</ele>
        <time>2023-04-06T12:45:46Z</time>
      </trkpt>
      <trkpt lat="44.3539" lon="5.5419">
        <ele>820.5</ele>
        <time>2023-04-06T12:45:47Z</time>
      </trkpt>
      <trkpt lat="44.35396" lon="5.54191">
        <ele>819.6</ele>
        <time>2023-04-06T12:45:48Z</time>
      </trkpt>
      <trkpt lat="44.354" lon="5.54192">
        <ele>818.8</ele>
        <time>2023-04-06T12:45:49Z</time>
      </trkpt>
      <trkpt lat="44.35405" lon="5.54194">
        <ele>817.9</ele>
        <time>2023-04-06T12:45:50Z</time>
      </trkpt>
      <trkpt lat="44.35408" lon="5.54195">
        <ele>817.3</ele>
        <time>2023-04-06T12:45:51Z</time>
      </trkpt>
      <trkpt lat="44.35412" lon="5.54196">
        <ele>816.7</ele>
        <time>2023-04-06T12:45:52Z</time>
      </trkpt>
      <trkpt lat="44.35415" lon="5.54197">
        <ele>816.1</ele>
        <time>2023-04-06T12:45:53Z</time>
      </trkpt>
      <trkpt lat="44.35419" lon="5.54196">
        <ele>815.5</ele>
        <time>2023-04-06T12:45:54Z</time>
      </trkpt>
      <trkpt lat="44.35424" lon="5.54196">
        <ele>814.6</ele>
        <time>2023-04-06T12:45:55Z</time>
      </trkpt>
      <trkpt lat="44.35429" lon="5.54195">
        <ele>813.6</ele>
        <time>2023-04-06T12:45:56Z</time>
      </trkpt>
      <trkpt lat="44.35435" lon="5.54194">
        <ele>812.7</ele>
        <time>2023-04-06T12:45:57Z</time>
      </trkpt>
      <trkpt lat="44.3544" lon="5.54191">
        <ele>811.7</ele>
        <time>2023-04-06T12:45:58Z</time>
      </trkpt>
      <trkpt lat="44.35445" lon="5.54186">
        <ele>810.6</ele>
        <time>2023-04-06T12:45:59Z</time>
      </trkpt>
      <trkpt lat="44.3545" lon="5.54182">
        <ele>809.6</ele>
        <time>2023-04-06T12:46:00Z</time>
      </trkpt>
      <trkpt lat="44.35456" lon="5.54179">
        <ele>808.6</ele>
        <time>2023-04-06T12:46:01Z</time>
      </trkpt>
      <trkpt lat="44.3546" lon="5.54177">
        <ele>807.7</ele>
        <time>2023-04-06T12:46:02Z</time>
      </trkpt>
      <trkpt lat="44.35465" lon="5.54176">
        <ele>806.9</ele>
        <time>2023-04-06T12:46:03Z</time>
      </trkpt>
      <trkpt lat="44.35469" lon="5.54174">
        <ele>806.2</ele>
        <time>2023-04-06T12:46:04Z</time>
      </trkpt>
      <trkpt lat="44.35473" lon="5.54173">
        <ele>805.5</ele>
        <time>2023-04-06T12:46:05Z</time>
      </trkpt>
      <trkpt lat="44.35478" lon="5.54172">
        <ele>804.7</ele>
        <time>2023-04-06T12:46:06Z</time>
      </trkpt>
      <trkpt lat="44.35483" lon="5.54171">
        <ele>803.7</ele>
        <time>2023-04-06T12:46:07Z</time>
      </trkpt>
      <trkpt lat="44.35489" lon="5.54169">
        <ele>802.7</ele>
        <time>2023-04-06T12:46:08Z</time>
      </trkpt>
      <trkpt lat="44.35493" lon="5.54168">
        <ele>801.9</ele>
        <time>2023-04-06T12:46:09Z</time>
      </trkpt>
      <trkpt lat="44.35497" lon="5.54167">
        <ele>801.3</ele>
        <time>2023-04-06T12:46:10Z</time>
      </trkpt>
      <trkpt lat="44.35501" lon="5.54167">
        <ele>800.6</ele>
        <time>2023-04-06T12:46:11Z</time>
      </trkpt>
      <trkpt lat="44.35505" lon="5.54169">
        <ele>799.8</ele>
        <time>2023-04-06T12:46:12Z</time>
      </trkpt>
      <trkpt lat="44.35511" lon="5.54171">
        <ele>798.8</ele>
        <time>2023-04-06T12:46:13Z</time>
      </trkpt>
      <trkpt lat="44.35516" lon="5.54171">
        <ele>797.9</ele>
        <time>2023-04-06T12:46:14Z</time>
      </trkpt>
      <trkpt lat="44.35521" lon="5.54167">
        <ele>796.9</ele>
        <time>2023-04-06T12:46:15Z</time>
      </trkpt>
      <trkpt lat="44.35527" lon="5.5416">
        <ele>795.6</ele>
        <time>2023-04-06T12:46:16Z</time>
      </trkpt>
      <trkpt lat="44.35531" lon="5.54153">
        <ele>794.5</ele>
        <time>2023-04-06T12:46:17Z</time>
      </trkpt>
      <trkpt lat="44.35536" lon="5.54148">
        <ele>793.4</ele>
        <time>2023-04-06T12:46:18Z</time>
      </trkpt>
      <trkpt lat="44.3554" lon="5.54144">
        <ele>792.5</ele>
        <time>2023-04-06T12:46:19Z</time>
      </trkpt>
      <trkpt lat="44.35545" lon="5.54142">
        <ele>791.7</ele>
        <time>2023-04-06T12:46:20Z</time>
      </trkpt>
      <trkpt lat="44.3555" lon="5.54142">
        <ele>790.8</ele>
        <time>2023-04-06T12:46:21Z</time>
      </trkpt>
      <trkpt lat="44.35555" lon="5.54142">
        <ele>789.9</ele>
        <time>2023-04-06T12:46:22Z</time>
      </trkpt>
      <trkpt lat="44.3556" lon="5.54144">
        <ele>789</ele>
        <time>2023-04-06T12:46:23Z</time>
      </trkpt>
      <trkpt lat="44.35565" lon="5.54146">
        <ele>788.2</ele>
        <time>2023-04-06T12:46:24Z</time>
      </trkpt>
      <trkpt lat="44.3557" lon="5.54147">
        <ele>787.2</ele>
        <time>2023-04-06T12:46:25Z</time>
      </trkpt>
      <trkpt lat="44.35576" lon="5.54148">
        <ele>786.3</ele>
        <time>2023-04-06T12:46:26Z</time>
      </trkpt>
      <trkpt lat="44.35582" lon="5.54147">
        <ele>785.2</ele>
        <time>2023-04-06T12:46:27Z</time>
      </trkpt>
      <trkpt lat="44.35588" lon="5.54147">
        <ele>784.2</ele>
        <time>2023-04-06T12:46:28Z</time>
      </trkpt>
      <trkpt lat="44.35594" lon="5.54146">
        <ele>783.1</ele>
        <time>2023-04-06T12:46:29Z</time>
      </trkpt>
      <trkpt lat="44.35601" lon="5.54145">
        <ele>781.9</ele>
        <time>2023-04-06T12:46:30Z</time>
      </trkpt>
      <trkpt lat="44.35607" lon="5.54143">
        <ele>780.8</ele>
        <time>2023-04-06T12:46:31Z</time>
      </trkpt>
      <trkpt lat="44.35613" lon="5.5414">
        <ele>779.7</ele>
        <time>2023-04-06T12:46:32Z</time>
      </trkpt>
      <trkpt lat="44.35618" lon="5.54137">
        <ele>778.8</ele>
        <time>2023-04-06T12:46:33Z</time>
      </trkpt>
      <trkpt lat="44.35623" lon="5.54136">
        <ele>777.9</ele>
        <time>2023-04-06T12:46:34Z</time>
      </trkpt>
      <trkpt lat="44.35628" lon="5.54136">
        <ele>776.9</ele>
        <time>2023-04-06T12:46:35Z</time>
      </trkpt>
      <trkpt lat="44.35635" lon="5.54139">
        <ele>775.8</ele>
        <time>2023-04-06T12:46:36Z</time>
      </trkpt>
      <trkpt lat="44.35641" lon="5.54143">
        <ele>774.6</ele>
        <time>2023-04-06T12:46:37Z</time>
      </trkpt>
      <trkpt lat="44.35647" lon="5.54147">
        <ele>773.4</ele>
        <time>2023-04-06T12:46:38Z</time>
      </trkpt>
      <trkpt lat="44.35654" lon="5.54149">
        <ele>772.2</ele>
        <time>2023-04-06T12:46:39Z</time>
      </trkpt>
      <trkpt lat="44.35662" lon="5.54148">
        <ele>770.9</ele>
        <time>2023-04-06T12:46:40Z</time>
      </trkpt>
      <trkpt lat="44.35669" lon="5.54147">
        <ele>769.5</ele>
        <time>2023-04-06T12:46:41Z</time>
      </trkpt>
      <trkpt lat="44.35676" lon="5.54145">
        <ele>768.4</ele>
        <time>2023-04-06T12:46:42Z</time>
      </trkpt>
      <trkpt lat="44.35681" lon="5.5414">
        <ele>767.2</ele>
        <time>2023-04-06T12:46:43Z</time>
      </trkpt>
      <trkpt lat="44.35686" lon="5.54135">
        <ele>766.2</ele>
        <time>2023-04-06T12:46:44Z</time>
      </trkpt>
      <trkpt lat="44.3569" lon="5.54129">
        <ele>765.2</ele>
        <time>2023-04-06T12:46:45Z</time>
      </trkpt>
      <trkpt lat="44.35694" lon="5.54125">
        <ele>764.3</ele>
        <time>2023-04-06T12:46:46Z</time>
      </trkpt>
      <trkpt lat="44.35699" lon="5.54123">
        <ele>763.5</ele>
        <time>2023-04-06T12:46:47Z</time>
      </trkpt>
      <trkpt lat="44.35704" lon="5.54124">
        <ele>762.5</ele>
        <time>2023-04-06T12:46:48Z</time>
      </trkpt>
      <trkpt lat="44.35711" lon="5.54127">
        <ele>761.4</ele>
        <time>2023-04-06T12:46:49Z</time>
      </trkpt>
      <trkpt lat="44.35717" lon="5.54132">
        <ele>760.2</ele>
        <time>2023-04-06T12:46:50Z</time>
      </trkpt>
      <trkpt lat="44.35721" lon="5.54138">
        <ele>758.8</ele>
        <time>2023-04-06T12:46:51Z</time>
      </trkpt>
      <trkpt lat="44.35725" lon="5.54144">
        <ele>757.9</ele>
        <time>2023-04-06T12:46:52Z</time>
      </trkpt>
      <trkpt lat="44.35728" lon="5.54151">
        <ele>757</ele>
        <time>2023-04-06T12:46:53Z</time>
      </trkpt>
      <trkpt lat="44.35733" lon="5.54156">
        <ele>756.1</ele>
        <time>2023-04-06T12:46:54Z</time>
      </trkpt>
      <trkpt lat="44.35739" lon="5.54159">
        <ele>755.6</ele>
        <time>2023-04-06T12:46:55Z</time>
      </trkpt>
      <trkpt lat="44.35745" lon="5.54157">
        <ele>755.1</ele>
        <time>2023-04-06T12:46:56Z</time>
      </trkpt>
      <trkpt lat="44.3575" lon="5.54151">
        <ele>754.5</ele>
        <time>2023-04-06T12:46:57Z</time>
      </trkpt>
      <trkpt lat="44.35754" lon="5.54144">
        <ele>754.5</ele>
        <time>2023-04-06T12:46:58Z</time>
      </trkpt>
      <trkpt lat="44.35756" lon="5.54136">
        <ele>754.3</ele>
        <time>2023-04-06T12:46:59Z</time>
      </trkpt>
      <trkpt lat="44.35758" lon="5.54128">
        <ele>754.3</ele>
        <time>2023-04-06T12:47:00Z</time>
      </trkpt>
      <trkpt lat="44.3576" lon="5.5412">
        <ele>754.2</ele>
        <time>2023-04-06T12:47:01Z</time>
      </trkpt>
      <trkpt lat="44.35763" lon="5.54112">
        <ele>752.9</ele>
        <time>2023-04-06T12:47:02Z</time>
      </trkpt>
      <trkpt lat="44.35766" lon="5.54095">
        <ele>752.7</ele>
        <time>2023-04-06T12:47:04Z</time>
      </trkpt>
      <trkpt lat="44.35767" lon="5.54087">
        <ele>752.3</ele>
        <time>2023-04-06T12:47:05Z</time>
      </trkpt>
      <trkpt lat="44.35768" lon="5.54079">
        <ele>752.3</ele>
        <time>2023-04-06T12:47:06Z</time>
      </trkpt>
      <trkpt lat="44.35769" lon="5.54071">
        <ele>751.8</ele>
        <time>2023-04-06T12:47:07Z</time>
      </trkpt>
      <trkpt lat="44.3577" lon="5.54064">
        <ele>751.8</ele>
        <time>2023-04-06T12:47:08Z</time>
      </trkpt>
      <trkpt lat="44.35772" lon="5.54049">
        <ele>751.1</ele>
        <time>2023-04-06T12:47:10Z</time>
      </trkpt>
      <trkpt lat="44.35773" lon="5.54041">
        <ele>750.2</ele>
        <time>2023-04-06T12:47:11Z</time>
      </trkpt>
      <trkpt lat="44.35774" lon="5.54033">
        <ele>749.6</ele>
        <time>2023-04-06T12:47:12Z</time>
      </trkpt>
      <trkpt lat="44.35775" lon="5.54026">
        <ele>749.6</ele>
        <time>2023-04-06T12:47:13Z</time>
      </trkpt>
      <trkpt lat="44.35777" lon="5.54019">
        <ele>748.9</ele>
        <time>2023-04-06T12:47:14Z</time>
      </trkpt>
      <trkpt lat="44.35779" lon="5.54014">
        <ele>748.9</ele>
        <time>2023-04-06T12:47:15Z</time>
      </trkpt>
      <trkpt lat="44.35781" lon="5.54009">
        <ele>748.8</ele>
        <time>2023-04-06T12:47:16Z</time>
      </trkpt>
      <trkpt lat="44.35784" lon="5.54007">
        <ele>748.8</ele>
        <time>2023-04-06T12:47:17Z</time>
      </trkpt>
      <trkpt lat="44.35788" lon="5.54005">
        <ele>747.9</ele>
        <time>2023-04-06T12:47:18Z</time>
      </trkpt>
      <trkpt lat="44.35791" lon="5.54003">
        <ele>747.9</ele>
        <time>2023-04-06T12:47:19Z</time>
      </trkpt>
      <trkpt lat="44.35794" lon="5.54002">
        <ele>747.1</ele>
        <time>2023-04-06T12:47:20Z</time>
      </trkpt>
      <trkpt lat="44.35794" lon="5.53999">
        <ele>747</ele>
        <time>2023-04-06T12:47:21Z</time>
      </trkpt>
      <trkpt lat="44.35791" lon="5.53998">
        <ele>747</ele>
        <time>2023-04-06T12:47:22Z</time>
      </trkpt>
      <trkpt lat="44.35787" lon="5.53998">
        <ele>747</ele>
        <time>2023-04-06T12:47:23Z</time>
      </trkpt>
      <trkpt lat="44.35783" lon="5.53997">
        <ele>746.9</ele>
        <time>2023-04-06T12:47:24Z</time>
      </trkpt>
      <trkpt lat="44.35779" lon="5.53997">
        <ele>746.9</ele>
        <time>2023-04-06T12:47:25Z</time>
      </trkpt>
      <trkpt lat="44.35776" lon="5.53994">
        <ele>746.8</ele>
        <time>2023-04-06T12:47:26Z</time>
      </trkpt>
      <trkpt lat="44.35773" lon="5.5399">
        <ele>746.7</ele>
        <time>2023-04-06T12:47:27Z</time>
      </trkpt>
      <trkpt lat="44.35771" lon="5.53987">
        <ele>746.7</ele>
        <time>2023-04-06T12:47:28Z</time>
      </trkpt>
      <trkpt lat="44.35768" lon="5.53983">
        <ele>746.7</ele>
        <time>2023-04-06T12:47:29Z</time>
      </trkpt>
      <trkpt lat="44.35765" lon="5.5398">
        <ele>746.7</ele>
        <time>2023-04-06T12:47:30Z</time>
      </trkpt>
      <trkpt lat="44.35762" lon="5.53977">
        <ele>746.7</ele>
        <time>2023-04-06T12:47:31Z</time>
      </trkpt>
      <trkpt lat="44.35758" lon="5.53974">
        <ele>746.7</ele>
        <time>2023-04-06T12:47:32Z</time>
      </trkpt>
      <trkpt lat="44.35754" lon="5.53971">
        <ele>746.8</ele>
        <time>2023-04-06T12:47:33Z</time>
      </trkpt>
      <trkpt lat="44.3575" lon="5.53968">
        <ele>746.8</ele>
        <time>2023-04-06T12:47:34Z</time>
      </trkpt>
      <trkpt lat="44.35747" lon="5.53965">
        <ele>746.8</ele>
        <time>2023-04-06T12:47:35Z</time>
      </trkpt>
      <trkpt lat="44.35745" lon="5.53961">
        <ele>746.9</ele>
        <time>2023-04-06T12:47:36Z</time>
      </trkpt>
      <trkpt lat="44.35742" lon="5.53957">
        <ele>747</ele>
        <time>2023-04-06T12:47:37Z</time>
      </trkpt>
      <trkpt lat="44.35739" lon="5.53948">
        <ele>747.1</ele>
        <time>2023-04-06T12:47:39Z</time>
      </trkpt>
      <trkpt lat="44.35738" lon="5.53944">
        <ele>747.2</ele>
        <time>2023-04-06T12:47:40Z</time>
      </trkpt>
      <trkpt lat="44.35737" lon="5.53939">
        <ele>747.2</ele>
        <time>2023-04-06T12:47:41Z</time>
      </trkpt>
      <trkpt lat="44.35736" lon="5.53935">
        <ele>747.2</ele>
        <time>2023-04-06T12:47:42Z</time>
      </trkpt>
      <trkpt lat="44.35734" lon="5.53931">
        <ele>747.2</ele>
        <time>2023-04-06T12:47:43Z</time>
      </trkpt>
      <trkpt lat="44.35731" lon="5.53928">
        <ele>747.2</ele>
        <time>2023-04-06T12:47:44Z</time>
      </trkpt>
      <trkpt lat="44.35727" lon="5.53925">
        <ele>747.1</ele>
        <time>2023-04-06T12:47:45Z</time>
      </trkpt>
      <trkpt lat="44.35723" lon="5.53922">
        <ele>747</ele>
        <time>2023-04-06T12:47:46Z</time>
      </trkpt>
      <trkpt lat="44.35718" lon="5.5392">
        <ele>746.9</ele>
        <time>2023-04-06T12:47:47Z</time>
      </trkpt>
      <trkpt lat="44.35713" lon="5.53917">
        <ele>746.7</ele>
        <time>2023-04-06T12:47:48Z</time>
      </trkpt>
      <trkpt lat="44.35702" lon="5.53914">
        <ele>746.5</ele>
        <time>2023-04-06T12:47:50Z</time>
      </trkpt>
      <trkpt lat="44.35696" lon="5.53913">
        <ele>746.5</ele>
        <time>2023-04-06T12:47:51Z</time>
      </trkpt>
      <trkpt lat="44.3569" lon="5.5391">
        <ele>746.5</ele>
        <time>2023-04-06T12:47:52Z</time>
      </trkpt>
      <trkpt lat="44.35685" lon="5.53905">
        <ele>746.5</ele>
        <time>2023-04-06T12:47:53Z</time>
      </trkpt>
      <trkpt lat="44.35681" lon="5.53902">
        <ele>746.5</ele>
        <time>2023-04-06T12:47:54Z</time>
      </trkpt>
      <trkpt lat="44.35676" lon="5.53899">
        <ele>746.5</ele>
        <time>2023-04-06T12:47:55Z</time>
      </trkpt>
      <trkpt lat="44.35673" lon="5.53896">
        <ele>746.5</ele>
        <time>2023-04-06T12:47:56Z</time>
      </trkpt>
      <trkpt lat="44.35668" lon="5.53893">
        <ele>746.4</ele>
        <time>2023-04-06T12:47:57Z</time>
      </trkpt>
      <trkpt lat="44.35664" lon="5.53891">
        <ele>746.3</ele>
        <time>2023-04-06T12:47:58Z</time>
      </trkpt>
      <trkpt lat="44.3566" lon="5.53891">
        <ele>746.3</ele>
        <time>2023-04-06T12:47:59Z</time>
      </trkpt>
      <trkpt lat="44.35653" lon="5.53893">
        <ele>746.2</ele>
        <time>2023-04-06T12:48:01Z</time>
      </trkpt>
      <trkpt lat="44.35649" lon="5.53894">
        <ele>746.2</ele>
        <time>2023-04-06T12:48:02Z</time>
      </trkpt>
      <trkpt lat="44.35646" lon="5.53895">
        <ele>746.2</ele>
        <time>2023-04-06T12:48:03Z</time>
      </trkpt>
      <trkpt lat="44.35642" lon="5.53896">
        <ele>746.2</ele>
        <time>2023-04-06T12:48:04Z</time>
      </trkpt>
      <trkpt lat="44.35638" lon="5.53897">
        <ele>746.3</ele>
        <time>2023-04-06T12:48:05Z</time>
      </trkpt>
      <trkpt lat="44.35635" lon="5.53898">
        <ele>746.4</ele>
        <time>2023-04-06T12:48:06Z</time>
      </trkpt>
      <trkpt lat="44.35632" lon="5.53898">
        <ele>746.4</ele>
        <time>2023-04-06T12:48:07Z</time>
      </trkpt>
      <trkpt lat="44.35629" lon="5.53898">
        <ele>746.6</ele>
        <time>2023-04-06T12:48:08Z</time>
      </trkpt>
      <trkpt lat="44.35625" lon="5.53898">
        <ele>746.7</ele>
        <time>2023-04-06T12:48:09Z</time>
      </trkpt>
      <trkpt lat="44.35622" lon="5.53897">
        <ele>747</ele>
        <time>2023-04-06T12:48:10Z</time>
      </trkpt>
      <trkpt lat="44.35615" lon="5.53896">
        <ele>747.5</ele>
        <time>2023-04-06T12:48:12Z</time>
      </trkpt>
      <trkpt lat="44.35612" lon="5.53895">
        <ele>747.9</ele>
        <time>2023-04-06T12:48:13Z</time>
      </trkpt>
      <trkpt lat="44.35609" lon="5.53895">
        <ele>748.2</ele>
        <time>2023-04-06T12:48:14Z</time>
      </trkpt>
      <trkpt lat="44.35605" lon="5.53894">
        <ele>748.6</ele>
        <time>2023-04-06T12:48:15Z</time>
      </trkpt>
      <trkpt lat="44.35602" lon="5.53893">
        <ele>748.9</ele>
        <time>2023-04-06T12:48:16Z</time>
      </trkpt>
      <trkpt lat="44.35599" lon="5.53892">
        <ele>749.2</ele>
        <time>2023-04-06T12:48:17Z</time>
      </trkpt>
      <trkpt lat="44.35595" lon="5.53891">
        <ele>749.6</ele>
        <time>2023-04-06T12:48:18Z</time>
      </trkpt>
      <trkpt lat="44.35592" lon="5.5389">
        <ele>749.9</ele>
        <time>2023-04-06T12:48:19Z</time>
      </trkpt>
      <trkpt lat="44.35589" lon="5.53889">
        <ele>750.3</ele>
        <time>2023-04-06T12:48:20Z</time>
      </trkpt>
      <trkpt lat="44.35585" lon="5.53889">
        <ele>750.7</ele>
        <time>2023-04-06T12:48:21Z</time>
      </trkpt>
      <trkpt lat="44.35579" lon="5.53887">
        <ele>751.4</ele>
        <time>2023-04-06T12:48:23Z</time>
      </trkpt>
      <trkpt lat="44.35575" lon="5.53885">
        <ele>751.7</ele>
        <time>2023-04-06T12:48:24Z</time>
      </trkpt>
      <trkpt lat="44.35572" lon="5.53884">
        <ele>752</ele>
        <time>2023-04-06T12:48:25Z</time>
      </trkpt>
      <trkpt lat="44.35568" lon="5.53884">
        <ele>752.4</ele>
        <time>2023-04-06T12:48:26Z</time>
      </trkpt>
      <trkpt lat="44.35565" lon="5.53883">
        <ele>752.7</ele>
        <time>2023-04-06T12:48:27Z</time>
      </trkpt>
      <trkpt lat="44.35558" lon="5.53883">
        <ele>753.2</ele>
        <time>2023-04-06T12:48:29Z</time>
      </trkpt>
      <trkpt lat="44.35555" lon="5.53883">
        <ele>753.5</ele>
        <time>2023-04-06T12:48:30Z</time>
      </trkpt>
      <trkpt lat="44.35551" lon="5.53883">
        <ele>753.8</ele>
        <time>2023-04-06T12:48:31Z</time>
      </trkpt>
      <trkpt lat="44.35548" lon="5.53882">
        <ele>754</ele>
        <time>2023-04-06T12:48:32Z</time>
      </trkpt>
      <trkpt lat="44.35546" lon="5.53881">
        <ele>754.2</ele>
        <time>2023-04-06T12:48:33Z</time>
      </trkpt>
      <trkpt lat="44.35539" lon="5.53876">
        <ele>754.6</ele>
        <time>2023-04-06T12:48:35Z</time>
      </trkpt>
      <trkpt lat="44.35536" lon="5.53872">
        <ele>754.8</ele>
        <time>2023-04-06T12:48:36Z</time>
      </trkpt>
      <trkpt lat="44.35533" lon="5.53868">
        <ele>755.1</ele>
        <time>2023-04-06T12:48:37Z</time>
      </trkpt>
      <trkpt lat="44.3553" lon="5.53864">
        <ele>755.3</ele>
        <time>2023-04-06T12:48:38Z</time>
      </trkpt>
      <trkpt lat="44.35528" lon="5.5386">
        <ele>755.6</ele>
        <time>2023-04-06T12:48:39Z</time>
      </trkpt>
      <trkpt lat="44.3552" lon="5.53851">
        <ele>756.1</ele>
        <time>2023-04-06T12:48:41Z</time>
      </trkpt>
      <trkpt lat="44.35517" lon="5.53847">
        <ele>756.3</ele>
        <time>2023-04-06T12:48:42Z</time>
      </trkpt>
      <trkpt lat="44.35513" lon="5.53842">
        <ele>756.5</ele>
        <time>2023-04-06T12:48:43Z</time>
      </trkpt>
      <trkpt lat="44.35509" lon="5.53838">
        <ele>756.7</ele>
        <time>2023-04-06T12:48:44Z</time>
      </trkpt>
      <trkpt lat="44.35505" lon="5.53834">
        <ele>757</ele>
        <time>2023-04-06T12:48:45Z</time>
      </trkpt>
      <trkpt lat="44.35501" lon="5.5383">
        <ele>757.2</ele>
        <time>2023-04-06T12:48:46Z</time>
      </trkpt>
      <trkpt lat="44.35497" lon="5.53826">
        <ele>757.3</ele>
        <time>2023-04-06T12:48:47Z</time>
      </trkpt>
      <trkpt lat="44.35493" lon="5.53822">
        <ele>757.5</ele>
        <time>2023-04-06T12:48:48Z</time>
      </trkpt>
      <trkpt lat="44.35488" lon="5.53818">
        <ele>757.7</ele>
        <time>2023-04-06T12:48:49Z</time>
      </trkpt>
      <trkpt lat="44.35484" lon="5.53814">
        <ele>757.9</ele>
        <time>2023-04-06T12:48:50Z</time>
      </trkpt>
      <trkpt lat="44.35475" lon="5.53806">
        <ele>758.3</ele>
        <time>2023-04-06T12:48:52Z</time>
      </trkpt>
      <trkpt lat="44.35471" lon="5.53801">
        <ele>758.5</ele>
        <time>2023-04-06T12:48:53Z</time>
      </trkpt>
      <trkpt lat="44.35467" lon="5.53797">
        <ele>758.7</ele>
        <time>2023-04-06T12:48:54Z</time>
      </trkpt>
      <trkpt lat="44.35462" lon="5.53793">
        <ele>758.9</ele>
        <time>2023-04-06T12:48:55Z</time>
      </trkpt>
      <trkpt lat="44.35458" lon="5.53789">
        <ele>759.1</ele>
        <time>2023-04-06T12:48:56Z</time>
      </trkpt>
      <trkpt lat="44.35454" lon="5.53785">
        <ele>759.3</ele>
        <time>2023-04-06T12:48:57Z</time>
      </trkpt>
      <trkpt lat="44.3545" lon="5.53781">
        <ele>759.5</ele>
        <time>2023-04-06T12:48:58Z</time>
      </trkpt>
      <trkpt lat="44.35445" lon="5.53777">
        <ele>759.7</ele>
        <time>2023-04-06T12:48:59Z</time>
      </trkpt>
      <trkpt lat="44.3544" lon="5.53774">
        <ele>759.9</ele>
        <time>2023-04-06T12:49:00Z</time>
      </trkpt>
      <trkpt lat="44.35435" lon="5.53771">
        <ele>760</ele>
        <time>2023-04-06T12:49:01Z</time>
      </trkpt>
      <trkpt lat="44.35423" lon="5.5377">
        <ele>760.3</ele>
        <time>2023-04-06T12:49:03Z</time>
      </trkpt>
      <trkpt lat="44.35416" lon="5.5377">
        <ele>760.5</ele>
        <time>2023-04-06T12:49:04Z</time>
      </trkpt>
      <trkpt lat="44.3541" lon="5.5377">
        <ele>760.7</ele>
        <time>2023-04-06T12:49:05Z</time>
      </trkpt>
      <trkpt lat="44.35405" lon="5.53769">
        <ele>760.9</ele>
        <time>2023-04-06T12:49:06Z</time>
      </trkpt>
      <trkpt lat="44.35399" lon="5.53769">
        <ele>761.1</ele>
        <time>2023-04-06T12:49:07Z</time>
      </trkpt>
      <trkpt lat="44.35389" lon="5.53766">
        <ele>761.5</ele>
        <time>2023-04-06T12:49:09Z</time>
      </trkpt>
      <trkpt lat="44.35384" lon="5.53763">
        <ele>761.8</ele>
        <time>2023-04-06T12:49:10Z</time>
      </trkpt>
      <trkpt lat="44.35379" lon="5.53761">
        <ele>762.1</ele>
        <time>2023-04-06T12:49:11Z</time>
      </trkpt>
      <trkpt lat="44.35374" lon="5.53758">
        <ele>762.3</ele>
        <time>2023-04-06T12:49:12Z</time>
      </trkpt>
      <trkpt lat="44.3537" lon="5.53755">
        <ele>762.6</ele>
        <time>2023-04-06T12:49:13Z</time>
      </trkpt>
      <trkpt lat="44.35365" lon="5.53752">
        <ele>762.9</ele>
        <time>2023-04-06T12:49:14Z</time>
      </trkpt>
      <trkpt lat="44.35361" lon="5.53748">
        <ele>763.2</ele>
        <time>2023-04-06T12:49:15Z</time>
      </trkpt>
      <trkpt lat="44.35356" lon="5.53744">
        <ele>763.5</ele>
        <time>2023-04-06T12:49:16Z</time>
      </trkpt>
      <trkpt lat="44.35352" lon="5.5374">
        <ele>763.9</ele>
        <time>2023-04-06T12:49:17Z</time>
      </trkpt>
      <trkpt lat="44.35347" lon="5.53737">
        <ele>764.2</ele>
        <time>2023-04-06T12:49:18Z</time>
      </trkpt>
      <trkpt lat="44.35343" lon="5.53732">
        <ele>764.7</ele>
        <time>2023-04-06T12:49:19Z</time>
      </trkpt>
      <trkpt lat="44.35339" lon="5.53727">
        <ele>765.2</ele>
        <time>2023-04-06T12:49:20Z</time>
      </trkpt>
      <trkpt lat="44.35337" lon="5.5372">
        <ele>765.8</ele>
        <time>2023-04-06T12:49:21Z</time>
      </trkpt>
      <trkpt lat="44.35336" lon="5.53713">
        <ele>766.4</ele>
        <time>2023-04-06T12:49:22Z</time>
      </trkpt>
      <trkpt lat="44.35338" lon="5.53706">
        <ele>767.1</ele>
        <time>2023-04-06T12:49:23Z</time>
      </trkpt>
      <trkpt lat="44.35341" lon="5.537">
        <ele>767.5</ele>
        <time>2023-04-06T12:49:24Z</time>
      </trkpt>
      <trkpt lat="44.3535" lon="5.53692">
        <ele>768.1</ele>
        <time>2023-04-06T12:49:26Z</time>
      </trkpt>
      <trkpt lat="44.35355" lon="5.53689">
        <ele>768.4</ele>
        <time>2023-04-06T12:49:27Z</time>
      </trkpt>
      <trkpt lat="44.35359" lon="5.53687">
        <ele>768.6</ele>
        <time>2023-04-06T12:49:28Z</time>
      </trkpt>
      <trkpt lat="44.35364" lon="5.53684">
        <ele>768.7</ele>
        <time>2023-04-06T12:49:29Z</time>
      </trkpt>
      <trkpt lat="44.35368" lon="5.53682">
        <ele>768.9</ele>
        <time>2023-04-06T12:49:30Z</time>
      </trkpt>
      <trkpt lat="44.35372" lon="5.53681">
        <ele>769</ele>
        <time>2023-04-06T12:49:31Z</time>
      </trkpt>
      <trkpt lat="44.35377" lon="5.53679">
        <ele>769.1</ele>
        <time>2023-04-06T12:49:32Z</time>
      </trkpt>
      <trkpt lat="44.35381" lon="5.53676">
        <ele>769.2</ele>
        <time>2023-04-06T12:49:33Z</time>
      </trkpt>
      <trkpt lat="44.35386" lon="5.53673">
        <ele>769.3</ele>
        <time>2023-04-06T12:49:34Z</time>
      </trkpt>
      <trkpt lat="44.3539" lon="5.53671">
        <ele>769.3</ele>
        <time>2023-04-06T12:49:35Z</time>
      </trkpt>
      <trkpt lat="44.35395" lon="5.53668">
        <ele>769.4</ele>
        <time>2023-04-06T12:49:36Z</time>
      </trkpt>
      <trkpt lat="44.35399" lon="5.53665">
        <ele>769.4</ele>
        <time>2023-04-06T12:49:37Z</time>
      </trkpt>
      <trkpt lat="44.35404" lon="5.53662">
        <ele>769.3</ele>
        <time>2023-04-06T12:49:38Z</time>
      </trkpt>
      <trkpt lat="44.35408" lon="5.5366">
        <ele>769.3</ele>
        <time>2023-04-06T12:49:39Z</time>
      </trkpt>
      <trkpt lat="44.35413" lon="5.53659">
        <ele>769.3</ele>
        <time>2023-04-06T12:49:40Z</time>
      </trkpt>
      <trkpt lat="44.35418" lon="5.53657">
        <ele>769.4</ele>
        <time>2023-04-06T12:49:41Z</time>
      </trkpt>
      <trkpt lat="44.35423" lon="5.53656">
        <ele>769.4</ele>
        <time>2023-04-06T12:49:42Z</time>
      </trkpt>
      <trkpt lat="44.35428" lon="5.53655">
        <ele>769.5</ele>
        <time>2023-04-06T12:49:43Z</time>
      </trkpt>
      <trkpt lat="44.35432" lon="5.53652">
        <ele>769.6</ele>
        <time>2023-04-06T12:49:44Z</time>
      </trkpt>
      <trkpt lat="44.35436" lon="5.53649">
        <ele>769.7</ele>
        <time>2023-04-06T12:49:45Z</time>
      </trkpt>
      <trkpt lat="44.3544" lon="5.53645">
        <ele>769.8</ele>
        <time>2023-04-06T12:49:46Z</time>
      </trkpt>
      <trkpt lat="44.35444" lon="5.53642">
        <ele>770</ele>
        <time>2023-04-06T12:49:47Z</time>
      </trkpt>
      <trkpt lat="44.35448" lon="5.53638">
        <ele>770.2</ele>
        <time>2023-04-06T12:49:48Z</time>
      </trkpt>
      <trkpt lat="44.35452" lon="5.53634">
        <ele>770.4</ele>
        <time>2023-04-06T12:49:49Z</time>
      </trkpt>
      <trkpt lat="44.35456" lon="5.53631">
        <ele>770.5</ele>
        <time>2023-04-06T12:49:50Z</time>
      </trkpt>
      <trkpt lat="44.35461" lon="5.5363">
        <ele>770.7</ele>
        <time>2023-04-06T12:49:51Z</time>
      </trkpt>
      <trkpt lat="44.35465" lon="5.53628">
        <ele>770.9</ele>
        <time>2023-04-06T12:49:52Z</time>
      </trkpt>
      <trkpt lat="44.3547" lon="5.53626">
        <ele>771.1</ele>
        <time>2023-04-06T12:49:53Z</time>
      </trkpt>
      <trkpt lat="44.35474" lon="5.53624">
        <ele>771.3</ele>
        <time>2023-04-06T12:49:54Z</time>
      </trkpt>
      <trkpt lat="44.35478" lon="5.53623">
        <ele>771.5</ele>
        <time>2023-04-06T12:49:55Z</time>
      </trkpt>
      <trkpt lat="44.35482" lon="5.53622">
        <ele>771.7</ele>
        <time>2023-04-06T12:49:56Z</time>
      </trkpt>
      <trkpt lat="44.35485" lon="5.53619">
        <ele>771.9</ele>
        <time>2023-04-06T12:49:57Z</time>
      </trkpt>
      <trkpt lat="44.35489" lon="5.53616">
        <ele>772.2</ele>
        <time>2023-04-06T12:49:58Z</time>
      </trkpt>
      <trkpt lat="44.35492" lon="5.53613">
        <ele>772.3</ele>
        <time>2023-04-06T12:49:59Z</time>
      </trkpt>
      <trkpt lat="44.35495" lon="5.5361">
        <ele>772.5</ele>
        <time>2023-04-06T12:50:00Z</time>
      </trkpt>
      <trkpt lat="44.35498" lon="5.53608">
        <ele>772.6</ele>
        <time>2023-04-06T12:50:01Z</time>
      </trkpt>
      <trkpt lat="44.35502" lon="5.53606">
        <ele>772.7</ele>
        <time>2023-04-06T12:50:02Z</time>
      </trkpt>
      <trkpt lat="44.35505" lon="5.53606">
        <ele>772.7</ele>
        <time>2023-04-06T12:50:03Z</time>
      </trkpt>
      <trkpt lat="44.35508" lon="5.53605">
        <ele>772.8</ele>
        <time>2023-04-06T12:50:04Z</time>
      </trkpt>
      <trkpt lat="44.35511" lon="5.53604">
        <ele>772.9</ele>
        <time>2023-04-06T12:50:05Z</time>
      </trkpt>
      <trkpt lat="44.35514" lon="5.53602">
        <ele>773.1</ele>
        <time>2023-04-06T12:50:06Z</time>
      </trkpt>
      <trkpt lat="44.35517" lon="5.536">
        <ele>773.2</ele>
        <time>2023-04-06T12:50:07Z</time>
      </trkpt>
      <trkpt lat="44.3552" lon="5.53598">
        <ele>773.4</ele>
        <time>2023-04-06T12:50:08Z</time>
      </trkpt>
      <trkpt lat="44.35521" lon="5.53594">
        <ele>773.6</ele>
        <time>2023-04-06T12:50:09Z</time>
      </trkpt>
      <trkpt lat="44.35521" lon="5.5359">
        <ele>773.7</ele>
        <time>2023-04-06T12:50:10Z</time>
      </trkpt>
      <trkpt lat="44.3552" lon="5.53589">
        <ele>773.7</ele>
        <time>2023-04-06T12:50:11Z</time>
      </trkpt>
      <trkpt lat="44.3552" lon="5.53587">
        <ele>773.8</ele>
        <time>2023-04-06T12:50:12Z</time>
      </trkpt>
      <trkpt lat="44.3552" lon="5.53587">
        <ele>773.8</ele>
        <time>2023-04-06T12:50:13Z</time>
      </trkpt>
      <trkpt lat="44.35521" lon="5.53587">
        <ele>773.9</ele>
        <time>2023-04-06T12:50:14Z</time>
      </trkpt>
      <trkpt lat="44.35522" lon="5.53588">
        <ele>773.9</ele>
        <time>2023-04-06T12:50:15Z</time>
      </trkpt>
      <trkpt lat="44.35523" lon="5.53589">
        <ele>773.9</ele>
        <time>2023-04-06T12:50:16Z</time>
      </trkpt>
      <trkpt lat="44.35523" lon="5.53589">
        <ele>773.9</ele>
        <time>2023-04-06T12:50:17Z</time>
      </trkpt>
      <trkpt lat="44.35523" lon="5.53589">
        <ele>773.9</ele>
        <time>2023-04-06T12:50:18Z</time>
      </trkpt>
      <trkpt lat="44.35523" lon="5.53589">
        <ele>773.9</ele>
        <time>2023-04-06T12:50:19Z</time>
      </trkpt>
      <trkpt lat="44.35523" lon="5.53589">
        <ele>773.9</ele>
        <time>2023-04-06T12:50:20Z</time>
      </trkpt>
      <trkpt lat="44.35524" lon="5.53588">
        <ele>774</ele>
        <time>2023-04-06T12:50:21Z</time>
      </trkpt>
      <trkpt lat="44.35524" lon="5.53588">
        <ele>774</ele>
        <time>2023-04-06T12:50:22Z</time>
      </trkpt>
      <trkpt lat="44.35525" lon="5.53587">
        <ele>774</ele>
        <time>2023-04-06T12:50:23Z</time>
      </trkpt>
      <trkpt lat="44.35526" lon="5.53586">
        <ele>774.1</ele>
        <time>2023-04-06T12:50:24Z</time>
      </trkpt>
      <trkpt lat="44.35527" lon="5.53585">
        <ele>774.1</ele>
        <time>2023-04-06T12:50:25Z</time>
      </trkpt>
      <trkpt lat="44.35527" lon="5.53585">
        <ele>774.1</ele>
        <time>2023-04-06T12:50:26Z</time>
      </trkpt>
      <trkpt lat="44.35526" lon="5.53584">
        <ele>774.1</ele>
        <time>2023-04-06T12:50:27Z</time>
      </trkpt>
      <trkpt lat="44.35526" lon="5.53583">
        <ele>774.1</ele>
        <time>2023-04-06T12:50:28Z</time>
      </trkpt>
      <trkpt lat="44.35526" lon="5.53583">
        <ele>774.1</ele>
        <time>2023-04-06T12:50:29Z</time>
      </trkpt>
      <trkpt lat="44.35526" lon="5.53582">
        <ele>774.1</ele>
        <time>2023-04-06T12:50:30Z</time>
      </trkpt>
      <trkpt lat="44.35526" lon="5.53582">
        <ele>774.1</ele>
        <time>2023-04-06T12:50:31Z</time>
      </trkpt>
      <trkpt lat="44.35526" lon="5.53581">
        <ele>774.1</ele>
        <time>2023-04-06T12:50:32Z</time>
      </trkpt>
      <trkpt lat="44.35526" lon="5.53581">
        <ele>774.1</ele>
        <time>2023-04-06T12:50:33Z</time>
      </trkpt>
      <trkpt lat="44.35526" lon="5.5358">
        <ele>774.1</ele>
        <time>2023-04-06T12:50:34Z</time>
      </trkpt>
      <trkpt lat="44.35526" lon="5.53579">
        <ele>774.1</ele>
        <time>2023-04-06T12:50:35Z</time>
      </trkpt>
      <trkpt lat="44.35526" lon="5.53579">
        <ele>774.1</ele>
        <time>2023-04-06T12:50:36Z</time>
      </trkpt>
      <trkpt lat="44.35526" lon="5.53578">
        <ele>774.1</ele>
        <time>2023-04-06T12:50:37Z</time>
      </trkpt>
      <trkpt lat="44.35526" lon="5.53578">
        <ele>774.2</ele>
        <time>2023-04-06T12:50:38Z</time>
      </trkpt>
      <trkpt lat="44.35526" lon="5.53577">
        <ele>774.2</ele>
        <time>2023-04-06T12:50:39Z</time>
      </trkpt>
      <trkpt lat="44.35526" lon="5.53577">
        <ele>774.2</ele>
        <time>2023-04-06T12:50:40Z</time>
      </trkpt>
      <trkpt lat="44.35526" lon="5.53576">
        <ele>774.2</ele>
        <time>2023-04-06T12:50:41Z</time>
      </trkpt>
      <trkpt lat="44.35526" lon="5.53575">
        <ele>774.2</ele>
        <time>2023-04-06T12:50:42Z</time>
      </trkpt>
      <trkpt lat="44.35526" lon="5.53575">
        <ele>774.2</ele>
        <time>2023-04-06T12:50:43Z</time>
      </trkpt>
      <trkpt lat="44.35525" lon="5.53574">
        <ele>774.2</ele>
        <time>2023-04-06T12:50:44Z</time>
      </trkpt>
      <trkpt lat="44.35525" lon="5.53574">
        <ele>774.2</ele>
        <time>2023-04-06T12:50:52Z</time>
      </trkpt>
      <trkpt lat="44.35525" lon="5.53573">
        <ele>774.2</ele>
        <time>2023-04-06T12:50:53Z</time>
      </trkpt>
      <trkpt lat="44.35525" lon="5.53573">
        <ele>774.2</ele>
        <time>2023-04-06T12:50:54Z</time>
      </trkpt>
      <trkpt lat="44.35524" lon="5.53569">
        <ele>774.2</ele>
        <time>2023-04-06T12:50:55Z</time>
      </trkpt>
      <trkpt lat="44.35523" lon="5.53568">
        <ele>774.2</ele>
        <time>2023-04-06T12:50:56Z</time>
      </trkpt>
      <trkpt lat="44.35521" lon="5.53561">
        <ele>774.2</ele>
        <time>2023-04-06T12:50:58Z</time>
      </trkpt>
      <trkpt lat="44.3552" lon="5.53558">
        <ele>774.2</ele>
        <time>2023-04-06T12:50:59Z</time>
      </trkpt>
      <trkpt lat="44.35519" lon="5.53552">
        <ele>774.2</ele>
        <time>2023-04-06T12:51:00Z</time>
      </trkpt>
      <trkpt lat="44.35519" lon="5.5355">
        <ele>774.3</ele>
        <time>2023-04-06T12:51:01Z</time>
      </trkpt>
      <trkpt lat="44.35519" lon="5.53546">
        <ele>774.3</ele>
        <time>2023-04-06T12:51:02Z</time>
      </trkpt>
      <trkpt lat="44.35519" lon="5.53542">
        <ele>774.4</ele>
        <time>2023-04-06T12:51:03Z</time>
      </trkpt>
      <trkpt lat="44.35519" lon="5.53534">
        <ele>774.6</ele>
        <time>2023-04-06T12:51:05Z</time>
      </trkpt>
      <trkpt lat="44.35519" lon="5.5353">
        <ele>774.6</ele>
        <time>2023-04-06T12:51:06Z</time>
      </trkpt>
      <trkpt lat="44.35519" lon="5.53526">
        <ele>774.7</ele>
        <time>2023-04-06T12:51:07Z</time>
      </trkpt>
      <trkpt lat="44.35519" lon="5.53521">
        <ele>774.8</ele>
        <time>2023-04-06T12:51:08Z</time>
      </trkpt>
      <trkpt lat="44.3552" lon="5.53516">
        <ele>774.9</ele>
        <time>2023-04-06T12:51:09Z</time>
      </trkpt>
      <trkpt lat="44.35521" lon="5.53511">
        <ele>775.1</ele>
        <time>2023-04-06T12:51:10Z</time>
      </trkpt>
      <trkpt lat="44.35522" lon="5.53506">
        <ele>775.2</ele>
        <time>2023-04-06T12:51:11Z</time>
      </trkpt>
      <trkpt lat="44.35521" lon="5.53501">
        <ele>775.4</ele>
        <time>2023-04-06T12:51:12Z</time>
      </trkpt>
      <trkpt lat="44.3552" lon="5.53496">
        <ele>775.6</ele>
        <time>2023-04-06T12:51:13Z</time>
      </trkpt>
      <trkpt lat="44.35518" lon="5.53491">
        <ele>775.9</ele>
        <time>2023-04-06T12:51:14Z</time>
      </trkpt>
      <trkpt lat="44.35514" lon="5.53481">
        <ele>776.5</ele>
        <time>2023-04-06T12:51:16Z</time>
      </trkpt>
      <trkpt lat="44.35512" lon="5.53476">
        <ele>776.8</ele>
        <time>2023-04-06T12:51:17Z</time>
      </trkpt>
      <trkpt lat="44.3551" lon="5.53471">
        <ele>777.1</ele>
        <time>2023-04-06T12:51:18Z</time>
      </trkpt>
      <trkpt lat="44.35507" lon="5.53466">
        <ele>777.4</ele>
        <time>2023-04-06T12:51:19Z</time>
      </trkpt>
      <trkpt lat="44.35504" lon="5.53461">
        <ele>777.8</ele>
        <time>2023-04-06T12:51:20Z</time>
      </trkpt>
      <trkpt lat="44.35501" lon="5.53458">
        <ele>778.1</ele>
        <time>2023-04-06T12:51:21Z</time>
      </trkpt>
      <trkpt lat="44.35499" lon="5.53454">
        <ele>778.3</ele>
        <time>2023-04-06T12:51:22Z</time>
      </trkpt>
      <trkpt lat="44.35497" lon="5.5345">
        <ele>778.6</ele>
        <time>2023-04-06T12:51:23Z</time>
      </trkpt>
      <trkpt lat="44.35495" lon="5.53446">
        <ele>778.8</ele>
        <time>2023-04-06T12:51:24Z</time>
      </trkpt>
      <trkpt lat="44.35494" lon="5.53442">
        <ele>779</ele>
        <time>2023-04-06T12:51:25Z</time>
      </trkpt>
      <trkpt lat="44.35493" lon="5.53433">
        <ele>779.5</ele>
        <time>2023-04-06T12:51:27Z</time>
      </trkpt>
      <trkpt lat="44.35493" lon="5.53428">
        <ele>779.8</ele>
        <time>2023-04-06T12:51:28Z</time>
      </trkpt>
      <trkpt lat="44.35492" lon="5.53424">
        <ele>780</ele>
        <time>2023-04-06T12:51:29Z</time>
      </trkpt>
      <trkpt lat="44.35491" lon="5.53419">
        <ele>780.2</ele>
        <time>2023-04-06T12:51:30Z</time>
      </trkpt>
      <trkpt lat="44.35489" lon="5.53414">
        <ele>780.4</ele>
        <time>2023-04-06T12:51:31Z</time>
      </trkpt>
      <trkpt lat="44.35487" lon="5.53409">
        <ele>780.7</ele>
        <time>2023-04-06T12:51:32Z</time>
      </trkpt>
      <trkpt lat="44.35486" lon="5.53404">
        <ele>780.9</ele>
        <time>2023-04-06T12:51:33Z</time>
      </trkpt>
      <trkpt lat="44.35485" lon="5.534">
        <ele>781.1</ele>
        <time>2023-04-06T12:51:34Z</time>
      </trkpt>
      <trkpt lat="44.35483" lon="5.53396">
        <ele>781.3</ele>
        <time>2023-04-06T12:51:35Z</time>
      </trkpt>
      <trkpt lat="44.35482" lon="5.53392">
        <ele>781.4</ele>
        <time>2023-04-06T12:51:36Z</time>
      </trkpt>
      <trkpt lat="44.35482" lon="5.53388">
        <ele>781.6</ele>
        <time>2023-04-06T12:51:37Z</time>
      </trkpt>
      <trkpt lat="44.35481" lon="5.53384">
        <ele>781.8</ele>
        <time>2023-04-06T12:51:38Z</time>
      </trkpt>
      <trkpt lat="44.35479" lon="5.53379">
        <ele>782</ele>
        <time>2023-04-06T12:51:39Z</time>
      </trkpt>
      <trkpt lat="44.35477" lon="5.53376">
        <ele>782.2</ele>
        <time>2023-04-06T12:51:40Z</time>
      </trkpt>
      <trkpt lat="44.35475" lon="5.53372">
        <ele>782.4</ele>
        <time>2023-04-06T12:51:41Z</time>
      </trkpt>
      <trkpt lat="44.35473" lon="5.53363">
        <ele>782.7</ele>
        <time>2023-04-06T12:51:43Z</time>
      </trkpt>
      <trkpt lat="44.35472" lon="5.53358">
        <ele>783</ele>
        <time>2023-04-06T12:51:44Z</time>
      </trkpt>
      <trkpt lat="44.35471" lon="5.53354">
        <ele>783.1</ele>
        <time>2023-04-06T12:51:45Z</time>
      </trkpt>
      <trkpt lat="44.35468" lon="5.53349">
        <ele>783.4</ele>
        <time>2023-04-06T12:51:46Z</time>
      </trkpt>
      <trkpt lat="44.35465" lon="5.53343">
        <ele>783.7</ele>
        <time>2023-04-06T12:51:47Z</time>
      </trkpt>
      <trkpt lat="44.35462" lon="5.53338">
        <ele>784</ele>
        <time>2023-04-06T12:51:48Z</time>
      </trkpt>
      <trkpt lat="44.35459" lon="5.53333">
        <ele>784.2</ele>
        <time>2023-04-06T12:51:49Z</time>
      </trkpt>
      <trkpt lat="44.35457" lon="5.53328">
        <ele>784.5</ele>
        <time>2023-04-06T12:51:50Z</time>
      </trkpt>
      <trkpt lat="44.35455" lon="5.53322">
        <ele>784.7</ele>
        <time>2023-04-06T12:51:51Z</time>
      </trkpt>
      <trkpt lat="44.35455" lon="5.53316">
        <ele>785</ele>
        <time>2023-04-06T12:51:52Z</time>
      </trkpt>
      <trkpt lat="44.35455" lon="5.5331">
        <ele>785.2</ele>
        <time>2023-04-06T12:51:53Z</time>
      </trkpt>
      <trkpt lat="44.35455" lon="5.53304">
        <ele>785.4</ele>
        <time>2023-04-06T12:51:54Z</time>
      </trkpt>
      <trkpt lat="44.35456" lon="5.53298">
        <ele>785.7</ele>
        <time>2023-04-06T12:51:55Z</time>
      </trkpt>
      <trkpt lat="44.35458" lon="5.53291">
        <ele>786</ele>
        <time>2023-04-06T12:51:56Z</time>
      </trkpt>
      <trkpt lat="44.3546" lon="5.53285">
        <ele>786.3</ele>
        <time>2023-04-06T12:51:57Z</time>
      </trkpt>
      <trkpt lat="44.35461" lon="5.53281">
        <ele>786.5</ele>
        <time>2023-04-06T12:51:58Z</time>
      </trkpt>
      <trkpt lat="44.35461" lon="5.53275">
        <ele>786.7</ele>
        <time>2023-04-06T12:51:59Z</time>
      </trkpt>
      <trkpt lat="44.35462" lon="5.53268">
        <ele>787</ele>
        <time>2023-04-06T12:52:00Z</time>
      </trkpt>
      <trkpt lat="44.35462" lon="5.53262">
        <ele>787.2</ele>
        <time>2023-04-06T12:52:01Z</time>
      </trkpt>
      <trkpt lat="44.35462" lon="5.53256">
        <ele>787.4</ele>
        <time>2023-04-06T12:52:02Z</time>
      </trkpt>
      <trkpt lat="44.35462" lon="5.53251">
        <ele>787.7</ele>
        <time>2023-04-06T12:52:03Z</time>
      </trkpt>
      <trkpt lat="44.35462" lon="5.53245">
        <ele>787.9</ele>
        <time>2023-04-06T12:52:04Z</time>
      </trkpt>
      <trkpt lat="44.35462" lon="5.53239">
        <ele>788.1</ele>
        <time>2023-04-06T12:52:05Z</time>
      </trkpt>
      <trkpt lat="44.35461" lon="5.53234">
        <ele>787.1</ele>
        <time>2023-04-06T12:52:06Z</time>
      </trkpt>
      <trkpt lat="44.35461" lon="5.53228">
        <ele>786.8</ele>
        <time>2023-04-06T12:52:07Z</time>
      </trkpt>
      <trkpt lat="44.35461" lon="5.53223">
        <ele>786.4</ele>
        <time>2023-04-06T12:52:08Z</time>
      </trkpt>
      <trkpt lat="44.35462" lon="5.53219">
        <ele>786.2</ele>
        <time>2023-04-06T12:52:09Z</time>
      </trkpt>
      <trkpt lat="44.35461" lon="5.53215">
        <ele>785.9</ele>
        <time>2023-04-06T12:52:10Z</time>
      </trkpt>
      <trkpt lat="44.35461" lon="5.53214">
        <ele>785.8</ele>
        <time>2023-04-06T12:52:11Z</time>
      </trkpt>
      <trkpt lat="44.3546" lon="5.5321">
        <ele>785.6</ele>
        <time>2023-04-06T12:52:12Z</time>
      </trkpt>
      <trkpt lat="44.3546" lon="5.53209">
        <ele>785.5</ele>
        <time>2023-04-06T12:52:13Z</time>
      </trkpt>
      <trkpt lat="44.35459" lon="5.53205">
        <ele>785.2</ele>
        <time>2023-04-06T12:52:15Z</time>
      </trkpt>
      <trkpt lat="44.35459" lon="5.53204">
        <ele>785.2</ele>
        <time>2023-04-06T12:52:16Z</time>
      </trkpt>
      <trkpt lat="44.35459" lon="5.53203">
        <ele>785.1</ele>
        <time>2023-04-06T12:52:17Z</time>
      </trkpt>
      <trkpt lat="44.35459" lon="5.53203">
        <ele>785.1</ele>
        <time>2023-04-06T12:52:18Z</time>
      </trkpt>
      <trkpt lat="44.35458" lon="5.53201">
        <ele>784.9</ele>
        <time>2023-04-06T12:52:19Z</time>
      </trkpt>
      <trkpt lat="44.35458" lon="5.53198">
        <ele>784.8</ele>
        <time>2023-04-06T12:52:20Z</time>
      </trkpt>
      <trkpt lat="44.35457" lon="5.53197">
        <ele>784.6</ele>
        <time>2023-04-06T12:52:21Z</time>
      </trkpt>
      <trkpt lat="44.35456" lon="5.53196">
        <ele>784.5</ele>
        <time>2023-04-06T12:52:22Z</time>
      </trkpt>
      <trkpt lat="44.35456" lon="5.53195">
        <ele>784.5</ele>
        <time>2023-04-06T12:52:23Z</time>
      </trkpt>
      <trkpt lat="44.35455" lon="5.53195">
        <ele>784.4</ele>
        <time>2023-04-06T12:52:24Z</time>
      </trkpt>
      <trkpt lat="44.35454" lon="5.53196">
        <ele>784.4</ele>
        <time>2023-04-06T12:52:25Z</time>
      </trkpt>
      <trkpt lat="44.35454" lon="5.53197">
        <ele>784.3</ele>
        <time>2023-04-06T12:52:26Z</time>
      </trkpt>
      <trkpt lat="44.35454" lon="5.53199">
        <ele>784.1</ele>
        <time>2023-04-06T12:52:27Z</time>
      </trkpt>
      <trkpt lat="44.35454" lon="5.53201">
        <ele>784</ele>
        <time>2023-04-06T12:52:28Z</time>
      </trkpt>
      <trkpt lat="44.35455" lon="5.53205">
        <ele>783.7</ele>
        <time>2023-04-06T12:52:29Z</time>
      </trkpt>
      <trkpt lat="44.35455" lon="5.53207">
        <ele>783.6</ele>
        <time>2023-04-06T12:52:30Z</time>
      </trkpt>
      <trkpt lat="44.35455" lon="5.53212">
        <ele>783.3</ele>
        <time>2023-04-06T12:52:32Z</time>
      </trkpt>
      <trkpt lat="44.35456" lon="5.53214">
        <ele>783.2</ele>
        <time>2023-04-06T12:52:33Z</time>
      </trkpt>
      <trkpt lat="44.35456" lon="5.53217">
        <ele>783</ele>
        <time>2023-04-06T12:52:34Z</time>
      </trkpt>
      <trkpt lat="44.35455" lon="5.5322">
        <ele>782.7</ele>
        <time>2023-04-06T12:52:35Z</time>
      </trkpt>
      <trkpt lat="44.35454" lon="5.53221">
        <ele>782.7</ele>
        <time>2023-04-06T12:52:36Z</time>
      </trkpt>
      <trkpt lat="44.35453" lon="5.53224">
        <ele>782.5</ele>
        <time>2023-04-06T12:52:37Z</time>
      </trkpt>
      <trkpt lat="44.35453" lon="5.53226">
        <ele>782.4</ele>
        <time>2023-04-06T12:52:38Z</time>
      </trkpt>
      <trkpt lat="44.35453" lon="5.53227">
        <ele>782.3</ele>
        <time>2023-04-06T12:52:39Z</time>
      </trkpt>
      <trkpt lat="44.35454" lon="5.53227">
        <ele>782.2</ele>
        <time>2023-04-06T12:52:40Z</time>
      </trkpt>
      <trkpt lat="44.35455" lon="5.53228">
        <ele>782.1</ele>
        <time>2023-04-06T12:52:41Z</time>
      </trkpt>
      <trkpt lat="44.3546" lon="5.53226">
        <ele>781.7</ele>
        <time>2023-04-06T12:52:43Z</time>
      </trkpt>
      <trkpt lat="44.35461" lon="5.53224">
        <ele>781.5</ele>
        <time>2023-04-06T12:52:44Z</time>
      </trkpt>
      <trkpt lat="44.35462" lon="5.53222">
        <ele>781.3</ele>
        <time>2023-04-06T12:52:45Z</time>
      </trkpt>
      <trkpt lat="44.35463" lon="5.53217">
        <ele>781</ele>
        <time>2023-04-06T12:52:46Z</time>
      </trkpt>
      <trkpt lat="44.35463" lon="5.53215">
        <ele>780.9</ele>
        <time>2023-04-06T12:52:47Z</time>
      </trkpt>
      <trkpt lat="44.35465" lon="5.53206">
        <ele>780.3</ele>
        <time>2023-04-06T12:52:49Z</time>
      </trkpt>
      <trkpt lat="44.35466" lon="5.53202">
        <ele>780</ele>
        <time>2023-04-06T12:52:50Z</time>
      </trkpt>
      <trkpt lat="44.35467" lon="5.53198">
        <ele>779.7</ele>
        <time>2023-04-06T12:52:51Z</time>
      </trkpt>
      <trkpt lat="44.35467" lon="5.53194">
        <ele>779.5</ele>
        <time>2023-04-06T12:52:52Z</time>
      </trkpt>
      <trkpt lat="44.35469" lon="5.5319">
        <ele>779.2</ele>
        <time>2023-04-06T12:52:53Z</time>
      </trkpt>
      <trkpt lat="44.3547" lon="5.53185">
        <ele>778.9</ele>
        <time>2023-04-06T12:52:54Z</time>
      </trkpt>
      <trkpt lat="44.35473" lon="5.53181">
        <ele>778.6</ele>
        <time>2023-04-06T12:52:55Z</time>
      </trkpt>
      <trkpt lat="44.35475" lon="5.53177">
        <ele>778.2</ele>
        <time>2023-04-06T12:52:56Z</time>
      </trkpt>
      <trkpt lat="44.35478" lon="5.53173">
        <ele>777.9</ele>
        <time>2023-04-06T12:52:57Z</time>
      </trkpt>
      <trkpt lat="44.3548" lon="5.5317">
        <ele>777.6</ele>
        <time>2023-04-06T12:52:58Z</time>
      </trkpt>
      <trkpt lat="44.35485" lon="5.53164">
        <ele>777</ele>
        <time>2023-04-06T12:53:00Z</time>
      </trkpt>
      <trkpt lat="44.35487" lon="5.5316">
        <ele>776.7</ele>
        <time>2023-04-06T12:53:01Z</time>
      </trkpt>
      <trkpt lat="44.35488" lon="5.53155">
        <ele>776.4</ele>
        <time>2023-04-06T12:53:02Z</time>
      </trkpt>
      <trkpt lat="44.3549" lon="5.5315">
        <ele>776.1</ele>
        <time>2023-04-06T12:53:03Z</time>
      </trkpt>
      <trkpt lat="44.35491" lon="5.53146">
        <ele>775.7</ele>
        <time>2023-04-06T12:53:04Z</time>
      </trkpt>
      <trkpt lat="44.35494" lon="5.53137">
        <ele>775.1</ele>
        <time>2023-04-06T12:53:06Z</time>
      </trkpt>
      <trkpt lat="44.35496" lon="5.53131">
        <ele>774.7</ele>
        <time>2023-04-06T12:53:07Z</time>
      </trkpt>
      <trkpt lat="44.35499" lon="5.53126">
        <ele>774.3</ele>
        <time>2023-04-06T12:53:08Z</time>
      </trkpt>
      <trkpt lat="44.35502" lon="5.53121">
        <ele>773.9</ele>
        <time>2023-04-06T12:53:09Z</time>
      </trkpt>
      <trkpt lat="44.35505" lon="5.53116">
        <ele>773.5</ele>
        <time>2023-04-06T12:53:10Z</time>
      </trkpt>
      <trkpt lat="44.35511" lon="5.53107">
        <ele>772.7</ele>
        <time>2023-04-06T12:53:12Z</time>
      </trkpt>
      <trkpt lat="44.35515" lon="5.53103">
        <ele>772.3</ele>
        <time>2023-04-06T12:53:13Z</time>
      </trkpt>
      <trkpt lat="44.35519" lon="5.53099">
        <ele>771.8</ele>
        <time>2023-04-06T12:53:14Z</time>
      </trkpt>
      <trkpt lat="44.35523" lon="5.53095">
        <ele>771.4</ele>
        <time>2023-04-06T12:53:15Z</time>
      </trkpt>
      <trkpt lat="44.35528" lon="5.5309">
        <ele>770.9</ele>
        <time>2023-04-06T12:53:16Z</time>
      </trkpt>
      <trkpt lat="44.35536" lon="5.53079">
        <ele>769.8</ele>
        <time>2023-04-06T12:53:18Z</time>
      </trkpt>
      <trkpt lat="44.3554" lon="5.53074">
        <ele>769.4</ele>
        <time>2023-04-06T12:53:19Z</time>
      </trkpt>
      <trkpt lat="44.35544" lon="5.53068">
        <ele>768.8</ele>
        <time>2023-04-06T12:53:20Z</time>
      </trkpt>
      <trkpt lat="44.35549" lon="5.53062">
        <ele>768.3</ele>
        <time>2023-04-06T12:53:21Z</time>
      </trkpt>
      <trkpt lat="44.35553" lon="5.53056">
        <ele>767.7</ele>
        <time>2023-04-06T12:53:22Z</time>
      </trkpt>
      <trkpt lat="44.35561" lon="5.53049">
        <ele>766.9</ele>
        <time>2023-04-06T12:53:24Z</time>
      </trkpt>
      <trkpt lat="44.35566" lon="5.53049">
        <ele>766.5</ele>
        <time>2023-04-06T12:53:25Z</time>
      </trkpt>
      <trkpt lat="44.35571" lon="5.53048">
        <ele>766</ele>
        <time>2023-04-06T12:53:26Z</time>
      </trkpt>
      <trkpt lat="44.35575" lon="5.53048">
        <ele>765.6</ele>
        <time>2023-04-06T12:53:27Z</time>
      </trkpt>
      <trkpt lat="44.35579" lon="5.53046">
        <ele>765.3</ele>
        <time>2023-04-06T12:53:28Z</time>
      </trkpt>
      <trkpt lat="44.35582" lon="5.53044">
        <ele>765</ele>
        <time>2023-04-06T12:53:29Z</time>
      </trkpt>
      <trkpt lat="44.35585" lon="5.53042">
        <ele>764.7</ele>
        <time>2023-04-06T12:53:30Z</time>
      </trkpt>
      <trkpt lat="44.35588" lon="5.53038">
        <ele>764.3</ele>
        <time>2023-04-06T12:53:31Z</time>
      </trkpt>
      <trkpt lat="44.3559" lon="5.53033">
        <ele>764</ele>
        <time>2023-04-06T12:53:32Z</time>
      </trkpt>
      <trkpt lat="44.35593" lon="5.53029">
        <ele>763.6</ele>
        <time>2023-04-06T12:53:33Z</time>
      </trkpt>
      <trkpt lat="44.35595" lon="5.53024">
        <ele>763.2</ele>
        <time>2023-04-06T12:53:34Z</time>
      </trkpt>
      <trkpt lat="44.35598" lon="5.5302">
        <ele>762.8</ele>
        <time>2023-04-06T12:53:35Z</time>
      </trkpt>
      <trkpt lat="44.35602" lon="5.53015">
        <ele>762.4</ele>
        <time>2023-04-06T12:53:36Z</time>
      </trkpt>
      <trkpt lat="44.35605" lon="5.5301">
        <ele>762</ele>
        <time>2023-04-06T12:53:37Z</time>
      </trkpt>
      <trkpt lat="44.3561" lon="5.53005">
        <ele>761.4</ele>
        <time>2023-04-06T12:53:38Z</time>
      </trkpt>
      <trkpt lat="44.35619" lon="5.52997">
        <ele>760.5</ele>
        <time>2023-04-06T12:53:40Z</time>
      </trkpt>
      <trkpt lat="44.35624" lon="5.52994">
        <ele>760</ele>
        <time>2023-04-06T12:53:41Z</time>
      </trkpt>
      <trkpt lat="44.35627" lon="5.52992">
        <ele>759.7</ele>
        <time>2023-04-06T12:53:42Z</time>
      </trkpt>
      <trkpt lat="44.35631" lon="5.5299">
        <ele>759.3</ele>
        <time>2023-04-06T12:53:43Z</time>
      </trkpt>
      <trkpt lat="44.35636" lon="5.52988">
        <ele>758.9</ele>
        <time>2023-04-06T12:53:44Z</time>
      </trkpt>
      <trkpt lat="44.35641" lon="5.52984">
        <ele>758.4</ele>
        <time>2023-04-06T12:53:45Z</time>
      </trkpt>
      <trkpt lat="44.35646" lon="5.5298">
        <ele>757.9</ele>
        <time>2023-04-06T12:53:46Z</time>
      </trkpt>
      <trkpt lat="44.35651" lon="5.52976">
        <ele>757.4</ele>
        <time>2023-04-06T12:53:47Z</time>
      </trkpt>
      <trkpt lat="44.35656" lon="5.52974">
        <ele>756.9</ele>
        <time>2023-04-06T12:53:48Z</time>
      </trkpt>
      <trkpt lat="44.35661" lon="5.52972">
        <ele>756.4</ele>
        <time>2023-04-06T12:53:49Z</time>
      </trkpt>
      <trkpt lat="44.35666" lon="5.52971">
        <ele>756</ele>
        <time>2023-04-06T12:53:50Z</time>
      </trkpt>
      <trkpt lat="44.35671" lon="5.52971">
        <ele>755.6</ele>
        <time>2023-04-06T12:53:51Z</time>
      </trkpt>
      <trkpt lat="44.35674" lon="5.52972">
        <ele>755.3</ele>
        <time>2023-04-06T12:53:52Z</time>
      </trkpt>
      <trkpt lat="44.35677" lon="5.52972">
        <ele>755</ele>
        <time>2023-04-06T12:53:53Z</time>
      </trkpt>
      <trkpt lat="44.3568" lon="5.52973">
        <ele>754.7</ele>
        <time>2023-04-06T12:53:54Z</time>
      </trkpt>
      <trkpt lat="44.35683" lon="5.52974">
        <ele>754.4</ele>
        <time>2023-04-06T12:53:55Z</time>
      </trkpt>
      <trkpt lat="44.35687" lon="5.52975">
        <ele>754.1</ele>
        <time>2023-04-06T12:53:56Z</time>
      </trkpt>
      <trkpt lat="44.3569" lon="5.52976">
        <ele>753.8</ele>
        <time>2023-04-06T12:53:57Z</time>
      </trkpt>
      <trkpt lat="44.35694" lon="5.52978">
        <ele>753.5</ele>
        <time>2023-04-06T12:53:58Z</time>
      </trkpt>
      <trkpt lat="44.35697" lon="5.52979">
        <ele>753.2</ele>
        <time>2023-04-06T12:53:59Z</time>
      </trkpt>
      <trkpt lat="44.357" lon="5.5298">
        <ele>752.9</ele>
        <time>2023-04-06T12:54:00Z</time>
      </trkpt>
      <trkpt lat="44.35706" lon="5.52982">
        <ele>752.4</ele>
        <time>2023-04-06T12:54:02Z</time>
      </trkpt>
      <trkpt lat="44.35709" lon="5.52984">
        <ele>752</ele>
        <time>2023-04-06T12:54:03Z</time>
      </trkpt>
      <trkpt lat="44.3571" lon="5.52985">
        <ele>751.9</ele>
        <time>2023-04-06T12:54:04Z</time>
      </trkpt>
      <trkpt lat="44.35713" lon="5.52989">
        <ele>751.6</ele>
        <time>2023-04-06T12:54:05Z</time>
      </trkpt>
      <trkpt lat="44.35713" lon="5.52991">
        <ele>751.5</ele>
        <time>2023-04-06T12:54:06Z</time>
      </trkpt>
      <trkpt lat="44.35715" lon="5.52994">
        <ele>751.2</ele>
        <time>2023-04-06T12:54:07Z</time>
      </trkpt>
      <trkpt lat="44.35715" lon="5.52996">
        <ele>751.1</ele>
        <time>2023-04-06T12:54:08Z</time>
      </trkpt>
      <trkpt lat="44.35716" lon="5.52999">
        <ele>750.9</ele>
        <time>2023-04-06T12:54:09Z</time>
      </trkpt>
      <trkpt lat="44.35717" lon="5.53001">
        <ele>750.8</ele>
        <time>2023-04-06T12:54:10Z</time>
      </trkpt>
      <trkpt lat="44.3572" lon="5.53003">
        <ele>750.5</ele>
        <time>2023-04-06T12:54:11Z</time>
      </trkpt>
      <trkpt lat="44.35723" lon="5.53006">
        <ele>750.1</ele>
        <time>2023-04-06T12:54:12Z</time>
      </trkpt>
      <trkpt lat="44.35725" lon="5.53007">
        <ele>749.9</ele>
        <time>2023-04-06T12:54:13Z</time>
      </trkpt>
      <trkpt lat="44.35728" lon="5.5301">
        <ele>749.6</ele>
        <time>2023-04-06T12:54:14Z</time>
      </trkpt>
      <trkpt lat="44.35731" lon="5.53012">
        <ele>749.3</ele>
        <time>2023-04-06T12:54:15Z</time>
      </trkpt>
      <trkpt lat="44.35733" lon="5.53015">
        <ele>749.1</ele>
        <time>2023-04-06T12:54:16Z</time>
      </trkpt>
      <trkpt lat="44.35737" lon="5.53017">
        <ele>748.7</ele>
        <time>2023-04-06T12:54:17Z</time>
      </trkpt>
      <trkpt lat="44.35738" lon="5.53018">
        <ele>748.6</ele>
        <time>2023-04-06T12:54:18Z</time>
      </trkpt>
      <trkpt lat="44.35741" lon="5.53018">
        <ele>748.3</ele>
        <time>2023-04-06T12:54:19Z</time>
      </trkpt>
      <trkpt lat="44.35745" lon="5.53018">
        <ele>748</ele>
        <time>2023-04-06T12:54:20Z</time>
      </trkpt>
      <trkpt lat="44.35748" lon="5.53019">
        <ele>747.7</ele>
        <time>2023-04-06T12:54:21Z</time>
      </trkpt>
      <trkpt lat="44.35752" lon="5.53021">
        <ele>747.4</ele>
        <time>2023-04-06T12:54:22Z</time>
      </trkpt>
      <trkpt lat="44.35755" lon="5.53023">
        <ele>747</ele>
        <time>2023-04-06T12:54:23Z</time>
      </trkpt>
      <trkpt lat="44.35758" lon="5.53025">
        <ele>746.8</ele>
        <time>2023-04-06T12:54:24Z</time>
      </trkpt>
      <trkpt lat="44.3576" lon="5.53028">
        <ele>746.5</ele>
        <time>2023-04-06T12:54:25Z</time>
      </trkpt>
      <trkpt lat="44.35762" lon="5.53031">
        <ele>746.2</ele>
        <time>2023-04-06T12:54:26Z</time>
      </trkpt>
      <trkpt lat="44.35765" lon="5.53034">
        <ele>745.9</ele>
        <time>2023-04-06T12:54:27Z</time>
      </trkpt>
      <trkpt lat="44.35766" lon="5.53035">
        <ele>745.8</ele>
        <time>2023-04-06T12:54:28Z</time>
      </trkpt>
      <trkpt lat="44.35769" lon="5.53034">
        <ele>745.6</ele>
        <time>2023-04-06T12:54:29Z</time>
      </trkpt>
      <trkpt lat="44.35772" lon="5.53033">
        <ele>745.3</ele>
        <time>2023-04-06T12:54:30Z</time>
      </trkpt>
      <trkpt lat="44.35775" lon="5.53033">
        <ele>745</ele>
        <time>2023-04-06T12:54:31Z</time>
      </trkpt>
      <trkpt lat="44.35778" lon="5.53035">
        <ele>744.6</ele>
        <time>2023-04-06T12:54:32Z</time>
      </trkpt>
      <trkpt lat="44.3578" lon="5.53036">
        <ele>744.5</ele>
        <time>2023-04-06T12:54:33Z</time>
      </trkpt>
      <trkpt lat="44.35782" lon="5.53038">
        <ele>744.3</ele>
        <time>2023-04-06T12:54:34Z</time>
      </trkpt>
      <trkpt lat="44.35783" lon="5.53039">
        <ele>744.2</ele>
        <time>2023-04-06T12:54:35Z</time>
      </trkpt>
      <trkpt lat="44.35786" lon="5.53043">
        <ele>743.8</ele>
        <time>2023-04-06T12:54:36Z</time>
      </trkpt>
      <trkpt lat="44.35786" lon="5.53045">
        <ele>743.7</ele>
        <time>2023-04-06T12:54:37Z</time>
      </trkpt>
      <trkpt lat="44.35789" lon="5.53049">
        <ele>743.3</ele>
        <time>2023-04-06T12:54:38Z</time>
      </trkpt>
      <trkpt lat="44.3579" lon="5.5305">
        <ele>743.2</ele>
        <time>2023-04-06T12:54:39Z</time>
      </trkpt>
      <trkpt lat="44.35792" lon="5.53054">
        <ele>743</ele>
        <time>2023-04-06T12:54:40Z</time>
      </trkpt>
      <trkpt lat="44.35793" lon="5.53055">
        <ele>742.8</ele>
        <time>2023-04-06T12:54:41Z</time>
      </trkpt>
      <trkpt lat="44.35795" lon="5.53058">
        <ele>742.6</ele>
        <time>2023-04-06T12:54:42Z</time>
      </trkpt>
      <trkpt lat="44.35795" lon="5.5306">
        <ele>742.5</ele>
        <time>2023-04-06T12:54:43Z</time>
      </trkpt>
      <trkpt lat="44.35798" lon="5.53063">
        <ele>742.1</ele>
        <time>2023-04-06T12:54:44Z</time>
      </trkpt>
      <trkpt lat="44.358" lon="5.53064">
        <ele>742</ele>
        <time>2023-04-06T12:54:45Z</time>
      </trkpt>
      <trkpt lat="44.35802" lon="5.53066">
        <ele>741.7</ele>
        <time>2023-04-06T12:54:46Z</time>
      </trkpt>
      <trkpt lat="44.35805" lon="5.53069">
        <ele>741.4</ele>
        <time>2023-04-06T12:54:47Z</time>
      </trkpt>
      <trkpt lat="44.35807" lon="5.53072">
        <ele>741.1</ele>
        <time>2023-04-06T12:54:48Z</time>
      </trkpt>
      <trkpt lat="44.3581" lon="5.53076">
        <ele>740.8</ele>
        <time>2023-04-06T12:54:49Z</time>
      </trkpt>
      <trkpt lat="44.35813" lon="5.53079">
        <ele>740.4</ele>
        <time>2023-04-06T12:54:50Z</time>
      </trkpt>
      <trkpt lat="44.35817" lon="5.53081">
        <ele>740.1</ele>
        <time>2023-04-06T12:54:51Z</time>
      </trkpt>
      <trkpt lat="44.3582" lon="5.53083">
        <ele>739.8</ele>
        <time>2023-04-06T12:54:52Z</time>
      </trkpt>
      <trkpt lat="44.35824" lon="5.53085">
        <ele>739.4</ele>
        <time>2023-04-06T12:54:53Z</time>
      </trkpt>
      <trkpt lat="44.35828" lon="5.53088">
        <ele>739</ele>
        <time>2023-04-06T12:54:54Z</time>
      </trkpt>
      <trkpt lat="44.35831" lon="5.53092">
        <ele>738.7</ele>
        <time>2023-04-06T12:54:55Z</time>
      </trkpt>
      <trkpt lat="44.35833" lon="5.53094">
        <ele>738.4</ele>
        <time>2023-04-06T12:54:56Z</time>
      </trkpt>
      <trkpt lat="44.35836" lon="5.53097">
        <ele>738.1</ele>
        <time>2023-04-06T12:54:57Z</time>
      </trkpt>
      <trkpt lat="44.35838" lon="5.53099">
        <ele>737.9</ele>
        <time>2023-04-06T12:54:58Z</time>
      </trkpt>
      <trkpt lat="44.35841" lon="5.53101">
        <ele>737.6</ele>
        <time>2023-04-06T12:54:59Z</time>
      </trkpt>
      <trkpt lat="44.35843" lon="5.53102">
        <ele>737.4</ele>
        <time>2023-04-06T12:55:00Z</time>
      </trkpt>
      <trkpt lat="44.35846" lon="5.53104">
        <ele>737.1</ele>
        <time>2023-04-06T12:55:01Z</time>
      </trkpt>
      <trkpt lat="44.35849" lon="5.53106">
        <ele>736.9</ele>
        <time>2023-04-06T12:55:02Z</time>
      </trkpt>
      <trkpt lat="44.35851" lon="5.53109">
        <ele>736.5</ele>
        <time>2023-04-06T12:55:03Z</time>
      </trkpt>
      <trkpt lat="44.35854" lon="5.53113">
        <ele>736.2</ele>
        <time>2023-04-06T12:55:04Z</time>
      </trkpt>
      <trkpt lat="44.35857" lon="5.53116">
        <ele>735.9</ele>
        <time>2023-04-06T12:55:05Z</time>
      </trkpt>
      <trkpt lat="44.3586" lon="5.53117">
        <ele>735.6</ele>
        <time>2023-04-06T12:55:06Z</time>
      </trkpt>
      <trkpt lat="44.35864" lon="5.53114">
        <ele>735.2</ele>
        <time>2023-04-06T12:55:07Z</time>
      </trkpt>
      <trkpt lat="44.35865" lon="5.53113">
        <ele>735.1</ele>
        <time>2023-04-06T12:55:08Z</time>
      </trkpt>
      <trkpt lat="44.35867" lon="5.53109">
        <ele>734.8</ele>
        <time>2023-04-06T12:55:09Z</time>
      </trkpt>
      <trkpt lat="44.35869" lon="5.53105">
        <ele>734.5</ele>
        <time>2023-04-06T12:55:10Z</time>
      </trkpt>
      <trkpt lat="44.35871" lon="5.53102">
        <ele>734.2</ele>
        <time>2023-04-06T12:55:11Z</time>
      </trkpt>
      <trkpt lat="44.35873" lon="5.53098">
        <ele>733.9</ele>
        <time>2023-04-06T12:55:12Z</time>
      </trkpt>
      <trkpt lat="44.35874" lon="5.53094">
        <ele>733.6</ele>
        <time>2023-04-06T12:55:13Z</time>
      </trkpt>
      <trkpt lat="44.35876" lon="5.53089">
        <ele>733.3</ele>
        <time>2023-04-06T12:55:14Z</time>
      </trkpt>
      <trkpt lat="44.35878" lon="5.53084">
        <ele>732.9</ele>
        <time>2023-04-06T12:55:15Z</time>
      </trkpt>
      <trkpt lat="44.35881" lon="5.53079">
        <ele>732.5</ele>
        <time>2023-04-06T12:55:16Z</time>
      </trkpt>
      <trkpt lat="44.35884" lon="5.53073">
        <ele>732</ele>
        <time>2023-04-06T12:55:17Z</time>
      </trkpt>
      <trkpt lat="44.35888" lon="5.53067">
        <ele>731.5</ele>
        <time>2023-04-06T12:55:18Z</time>
      </trkpt>
      <trkpt lat="44.35892" lon="5.5306">
        <ele>730.9</ele>
        <time>2023-04-06T12:55:19Z</time>
      </trkpt>
      <trkpt lat="44.35896" lon="5.53054">
        <ele>730.4</ele>
        <time>2023-04-06T12:55:20Z</time>
      </trkpt>
      <trkpt lat="44.35899" lon="5.53047">
        <ele>729.9</ele>
        <time>2023-04-06T12:55:21Z</time>
      </trkpt>
      <trkpt lat="44.35902" lon="5.53042">
        <ele>729.5</ele>
        <time>2023-04-06T12:55:22Z</time>
      </trkpt>
      <trkpt lat="44.35905" lon="5.53035">
        <ele>729</ele>
        <time>2023-04-06T12:55:23Z</time>
      </trkpt>
      <trkpt lat="44.35908" lon="5.53029">
        <ele>728.5</ele>
        <time>2023-04-06T12:55:24Z</time>
      </trkpt>
      <trkpt lat="44.35912" lon="5.53023">
        <ele>728</ele>
        <time>2023-04-06T12:55:25Z</time>
      </trkpt>
      <trkpt lat="44.35915" lon="5.53017">
        <ele>727.5</ele>
        <time>2023-04-06T12:55:26Z</time>
      </trkpt>
      <trkpt lat="44.35918" lon="5.53011">
        <ele>727.1</ele>
        <time>2023-04-06T12:55:27Z</time>
      </trkpt>
      <trkpt lat="44.35921" lon="5.53007">
        <ele>726.7</ele>
        <time>2023-04-06T12:55:28Z</time>
      </trkpt>
      <trkpt lat="44.35923" lon="5.53003">
        <ele>726.3</ele>
        <time>2023-04-06T12:55:29Z</time>
      </trkpt>
      <trkpt lat="44.35926" lon="5.52999">
        <ele>726</ele>
        <time>2023-04-06T12:55:30Z</time>
      </trkpt>
      <trkpt lat="44.35929" lon="5.52995">
        <ele>725.7</ele>
        <time>2023-04-06T12:55:31Z</time>
      </trkpt>
      <trkpt lat="44.35931" lon="5.52992">
        <ele>725.4</ele>
        <time>2023-04-06T12:55:32Z</time>
      </trkpt>
      <trkpt lat="44.35934" lon="5.52988">
        <ele>725</ele>
        <time>2023-04-06T12:55:33Z</time>
      </trkpt>
      <trkpt lat="44.35936" lon="5.52986">
        <ele>724.8</ele>
        <time>2023-04-06T12:55:34Z</time>
      </trkpt>
      <trkpt lat="44.35939" lon="5.52983">
        <ele>724.5</ele>
        <time>2023-04-06T12:55:35Z</time>
      </trkpt>
      <trkpt lat="44.35942" lon="5.52979">
        <ele>724.1</ele>
        <time>2023-04-06T12:55:36Z</time>
      </trkpt>
      <trkpt lat="44.35945" lon="5.52976">
        <ele>723.8</ele>
        <time>2023-04-06T12:55:37Z</time>
      </trkpt>
      <trkpt lat="44.35948" lon="5.52972">
        <ele>723.4</ele>
        <time>2023-04-06T12:55:38Z</time>
      </trkpt>
      <trkpt lat="44.35952" lon="5.52968">
        <ele>723</ele>
        <time>2023-04-06T12:55:39Z</time>
      </trkpt>
      <trkpt lat="44.35955" lon="5.52964">
        <ele>722.6</ele>
        <time>2023-04-06T12:55:40Z</time>
      </trkpt>
      <trkpt lat="44.35959" lon="5.52961">
        <ele>722.2</ele>
        <time>2023-04-06T12:55:41Z</time>
      </trkpt>
      <trkpt lat="44.35963" lon="5.52958">
        <ele>721.8</ele>
        <time>2023-04-06T12:55:42Z</time>
      </trkpt>
      <trkpt lat="44.35966" lon="5.52954">
        <ele>721.4</ele>
        <time>2023-04-06T12:55:43Z</time>
      </trkpt>
      <trkpt lat="44.3597" lon="5.5295">
        <ele>721</ele>
        <time>2023-04-06T12:55:44Z</time>
      </trkpt>
      <trkpt lat="44.35974" lon="5.52945">
        <ele>720.5</ele>
        <time>2023-04-06T12:55:45Z</time>
      </trkpt>
      <trkpt lat="44.35977" lon="5.52938">
        <ele>720</ele>
        <time>2023-04-06T12:55:46Z</time>
      </trkpt>
      <trkpt lat="44.35981" lon="5.52931">
        <ele>719.4</ele>
        <time>2023-04-06T12:55:47Z</time>
      </trkpt>
      <trkpt lat="44.35986" lon="5.52924">
        <ele>718.8</ele>
        <time>2023-04-06T12:55:48Z</time>
      </trkpt>
      <trkpt lat="44.35991" lon="5.52918">
        <ele>718.3</ele>
        <time>2023-04-06T12:55:49Z</time>
      </trkpt>
      <trkpt lat="44.36" lon="5.52905">
        <ele>717.1</ele>
        <time>2023-04-06T12:55:51Z</time>
      </trkpt>
      <trkpt lat="44.36008" lon="5.52893">
        <ele>716.1</ele>
        <time>2023-04-06T12:55:53Z</time>
      </trkpt>
      <trkpt lat="44.36011" lon="5.52887">
        <ele>715.6</ele>
        <time>2023-04-06T12:55:54Z</time>
      </trkpt>
      <trkpt lat="44.36014" lon="5.52881">
        <ele>715.1</ele>
        <time>2023-04-06T12:55:55Z</time>
      </trkpt>
      <trkpt lat="44.36018" lon="5.52876">
        <ele>714.6</ele>
        <time>2023-04-06T12:55:56Z</time>
      </trkpt>
      <trkpt lat="44.36022" lon="5.5287">
        <ele>714.2</ele>
        <time>2023-04-06T12:55:57Z</time>
      </trkpt>
      <trkpt lat="44.36026" lon="5.52865">
        <ele>713.7</ele>
        <time>2023-04-06T12:55:58Z</time>
      </trkpt>
      <trkpt lat="44.36029" lon="5.52859">
        <ele>713.2</ele>
        <time>2023-04-06T12:55:59Z</time>
      </trkpt>
      <trkpt lat="44.36033" lon="5.52853">
        <ele>712.7</ele>
        <time>2023-04-06T12:56:00Z</time>
      </trkpt>
      <trkpt lat="44.36036" lon="5.52847">
        <ele>712.2</ele>
        <time>2023-04-06T12:56:01Z</time>
      </trkpt>
      <trkpt lat="44.3604" lon="5.52842">
        <ele>711.8</ele>
        <time>2023-04-06T12:56:02Z</time>
      </trkpt>
      <trkpt lat="44.36043" lon="5.52837">
        <ele>711.3</ele>
        <time>2023-04-06T12:56:03Z</time>
      </trkpt>
      <trkpt lat="44.36045" lon="5.52832">
        <ele>710.9</ele>
        <time>2023-04-06T12:56:04Z</time>
      </trkpt>
      <trkpt lat="44.36048" lon="5.52827">
        <ele>710.6</ele>
        <time>2023-04-06T12:56:05Z</time>
      </trkpt>
      <trkpt lat="44.36053" lon="5.52818">
        <ele>709.8</ele>
        <time>2023-04-06T12:56:07Z</time>
      </trkpt>
      <trkpt lat="44.36055" lon="5.52814">
        <ele>709.6</ele>
        <time>2023-04-06T12:56:08Z</time>
      </trkpt>
      <trkpt lat="44.36058" lon="5.5281">
        <ele>709.2</ele>
        <time>2023-04-06T12:56:09Z</time>
      </trkpt>
      <trkpt lat="44.36061" lon="5.52806">
        <ele>708.8</ele>
        <time>2023-04-06T12:56:10Z</time>
      </trkpt>
      <trkpt lat="44.36064" lon="5.52802">
        <ele>708.3</ele>
        <time>2023-04-06T12:56:11Z</time>
      </trkpt>
      <trkpt lat="44.36072" lon="5.52794">
        <ele>707.3</ele>
        <time>2023-04-06T12:56:13Z</time>
      </trkpt>
      <trkpt lat="44.36076" lon="5.5279">
        <ele>706.8</ele>
        <time>2023-04-06T12:56:14Z</time>
      </trkpt>
      <trkpt lat="44.36081" lon="5.52786">
        <ele>706.2</ele>
        <time>2023-04-06T12:56:15Z</time>
      </trkpt>
      <trkpt lat="44.36086" lon="5.52782">
        <ele>705.6</ele>
        <time>2023-04-06T12:56:16Z</time>
      </trkpt>
      <trkpt lat="44.3609" lon="5.52778">
        <ele>705.1</ele>
        <time>2023-04-06T12:56:17Z</time>
      </trkpt>
      <trkpt lat="44.36093" lon="5.52774">
        <ele>704.6</ele>
        <time>2023-04-06T12:56:18Z</time>
      </trkpt>
      <trkpt lat="44.36097" lon="5.52769">
        <ele>704.1</ele>
        <time>2023-04-06T12:56:19Z</time>
      </trkpt>
      <trkpt lat="44.361" lon="5.52764">
        <ele>703.6</ele>
        <time>2023-04-06T12:56:20Z</time>
      </trkpt>
      <trkpt lat="44.36103" lon="5.52759">
        <ele>703.1</ele>
        <time>2023-04-06T12:56:21Z</time>
      </trkpt>
      <trkpt lat="44.36105" lon="5.52753">
        <ele>702.7</ele>
        <time>2023-04-06T12:56:22Z</time>
      </trkpt>
      <trkpt lat="44.36108" lon="5.52744">
        <ele>701.9</ele>
        <time>2023-04-06T12:56:24Z</time>
      </trkpt>
      <trkpt lat="44.36111" lon="5.52738">
        <ele>701.4</ele>
        <time>2023-04-06T12:56:25Z</time>
      </trkpt>
      <trkpt lat="44.36114" lon="5.52732">
        <ele>700.8</ele>
        <time>2023-04-06T12:56:26Z</time>
      </trkpt>
      <trkpt lat="44.36116" lon="5.52726">
        <ele>700.3</ele>
        <time>2023-04-06T12:56:27Z</time>
      </trkpt>
      <trkpt lat="44.36119" lon="5.5272">
        <ele>699.8</ele>
        <time>2023-04-06T12:56:28Z</time>
      </trkpt>
      <trkpt lat="44.36121" lon="5.52715">
        <ele>699.3</ele>
        <time>2023-04-06T12:56:29Z</time>
      </trkpt>
      <trkpt lat="44.36124" lon="5.52709">
        <ele>698.8</ele>
        <time>2023-04-06T12:56:30Z</time>
      </trkpt>
      <trkpt lat="44.36128" lon="5.52704">
        <ele>698.2</ele>
        <time>2023-04-06T12:56:31Z</time>
      </trkpt>
      <trkpt lat="44.36133" lon="5.52701">
        <ele>697.7</ele>
        <time>2023-04-06T12:56:32Z</time>
      </trkpt>
      <trkpt lat="44.36136" lon="5.52699">
        <ele>697.3</ele>
        <time>2023-04-06T12:56:33Z</time>
      </trkpt>
      <trkpt lat="44.3614" lon="5.52698">
        <ele>696.9</ele>
        <time>2023-04-06T12:56:34Z</time>
      </trkpt>
      <trkpt lat="44.36143" lon="5.52697">
        <ele>696.6</ele>
        <time>2023-04-06T12:56:35Z</time>
      </trkpt>
      <trkpt lat="44.36147" lon="5.52696">
        <ele>696.2</ele>
        <time>2023-04-06T12:56:36Z</time>
      </trkpt>
      <trkpt lat="44.3615" lon="5.52693">
        <ele>695.8</ele>
        <time>2023-04-06T12:56:37Z</time>
      </trkpt>
      <trkpt lat="44.36154" lon="5.52689">
        <ele>695.2</ele>
        <time>2023-04-06T12:56:38Z</time>
      </trkpt>
      <trkpt lat="44.36161" lon="5.5268">
        <ele>694.3</ele>
        <time>2023-04-06T12:56:40Z</time>
      </trkpt>
      <trkpt lat="44.36163" lon="5.52676">
        <ele>693.9</ele>
        <time>2023-04-06T12:56:41Z</time>
      </trkpt>
      <trkpt lat="44.36166" lon="5.52674">
        <ele>693.6</ele>
        <time>2023-04-06T12:56:42Z</time>
      </trkpt>
      <trkpt lat="44.36168" lon="5.52671">
        <ele>693.2</ele>
        <time>2023-04-06T12:56:43Z</time>
      </trkpt>
      <trkpt lat="44.36172" lon="5.52668">
        <ele>692.9</ele>
        <time>2023-04-06T12:56:44Z</time>
      </trkpt>
      <trkpt lat="44.36176" lon="5.52666">
        <ele>692.4</ele>
        <time>2023-04-06T12:56:45Z</time>
      </trkpt>
      <trkpt lat="44.36182" lon="5.52663">
        <ele>691.7</ele>
        <time>2023-04-06T12:56:46Z</time>
      </trkpt>
      <trkpt lat="44.36188" lon="5.52658">
        <ele>691</ele>
        <time>2023-04-06T12:56:47Z</time>
      </trkpt>
      <trkpt lat="44.36193" lon="5.52653">
        <ele>690.4</ele>
        <time>2023-04-06T12:56:48Z</time>
      </trkpt>
      <trkpt lat="44.36196" lon="5.52646">
        <ele>689.7</ele>
        <time>2023-04-06T12:56:49Z</time>
      </trkpt>
      <trkpt lat="44.36202" lon="5.52635">
        <ele>688.7</ele>
        <time>2023-04-06T12:56:51Z</time>
      </trkpt>
      <trkpt lat="44.36205" lon="5.5263">
        <ele>688.2</ele>
        <time>2023-04-06T12:56:52Z</time>
      </trkpt>
      <trkpt lat="44.36209" lon="5.52624">
        <ele>687.6</ele>
        <time>2023-04-06T12:56:53Z</time>
      </trkpt>
      <trkpt lat="44.36212" lon="5.52619">
        <ele>687.1</ele>
        <time>2023-04-06T12:56:54Z</time>
      </trkpt>
      <trkpt lat="44.36215" lon="5.52615">
        <ele>686.6</ele>
        <time>2023-04-06T12:56:55Z</time>
      </trkpt>
      <trkpt lat="44.36219" lon="5.5261">
        <ele>686.2</ele>
        <time>2023-04-06T12:56:56Z</time>
      </trkpt>
      <trkpt lat="44.36222" lon="5.52605">
        <ele>685.7</ele>
        <time>2023-04-06T12:56:57Z</time>
      </trkpt>
      <trkpt lat="44.36224" lon="5.52599">
        <ele>685.2</ele>
        <time>2023-04-06T12:56:58Z</time>
      </trkpt>
      <trkpt lat="44.36227" lon="5.52594">
        <ele>684.7</ele>
        <time>2023-04-06T12:56:59Z</time>
      </trkpt>
      <trkpt lat="44.36229" lon="5.52591">
        <ele>684.4</ele>
        <time>2023-04-06T12:57:00Z</time>
      </trkpt>
      <trkpt lat="44.36233" lon="5.52584">
        <ele>683.7</ele>
        <time>2023-04-06T12:57:02Z</time>
      </trkpt>
      <trkpt lat="44.36236" lon="5.5258">
        <ele>683.3</ele>
        <time>2023-04-06T12:57:03Z</time>
      </trkpt>
      <trkpt lat="44.36237" lon="5.52575">
        <ele>682.9</ele>
        <time>2023-04-06T12:57:04Z</time>
      </trkpt>
      <trkpt lat="44.36238" lon="5.52571">
        <ele>682.6</ele>
        <time>2023-04-06T12:57:05Z</time>
      </trkpt>
      <trkpt lat="44.36239" lon="5.52566">
        <ele>682.2</ele>
        <time>2023-04-06T12:57:06Z</time>
      </trkpt>
      <trkpt lat="44.36239" lon="5.52562">
        <ele>681.9</ele>
        <time>2023-04-06T12:57:07Z</time>
      </trkpt>
      <trkpt lat="44.36241" lon="5.52558">
        <ele>681.6</ele>
        <time>2023-04-06T12:57:08Z</time>
      </trkpt>
      <trkpt lat="44.36242" lon="5.52554">
        <ele>681.2</ele>
        <time>2023-04-06T12:57:09Z</time>
      </trkpt>
      <trkpt lat="44.36244" lon="5.52549">
        <ele>680.8</ele>
        <time>2023-04-06T12:57:10Z</time>
      </trkpt>
      <trkpt lat="44.36245" lon="5.52545">
        <ele>680.5</ele>
        <time>2023-04-06T12:57:11Z</time>
      </trkpt>
      <trkpt lat="44.36246" lon="5.5254">
        <ele>680.1</ele>
        <time>2023-04-06T12:57:12Z</time>
      </trkpt>
      <trkpt lat="44.36247" lon="5.52535">
        <ele>679.7</ele>
        <time>2023-04-06T12:57:13Z</time>
      </trkpt>
      <trkpt lat="44.36248" lon="5.5253">
        <ele>679.3</ele>
        <time>2023-04-06T12:57:14Z</time>
      </trkpt>
      <trkpt lat="44.36249" lon="5.52525">
        <ele>678.9</ele>
        <time>2023-04-06T12:57:15Z</time>
      </trkpt>
      <trkpt lat="44.36251" lon="5.5252">
        <ele>678.5</ele>
        <time>2023-04-06T12:57:16Z</time>
      </trkpt>
      <trkpt lat="44.36255" lon="5.52507">
        <ele>677.5</ele>
        <time>2023-04-06T12:57:18Z</time>
      </trkpt>
      <trkpt lat="44.36256" lon="5.52501">
        <ele>677</ele>
        <time>2023-04-06T12:57:19Z</time>
      </trkpt>
      <trkpt lat="44.36256" lon="5.52497">
        <ele>676.7</ele>
        <time>2023-04-06T12:57:20Z</time>
      </trkpt>
      <trkpt lat="44.36256" lon="5.52492">
        <ele>676.3</ele>
        <time>2023-04-06T12:57:21Z</time>
      </trkpt>
      <trkpt lat="44.36256" lon="5.5249">
        <ele>676.2</ele>
        <time>2023-04-06T12:57:22Z</time>
      </trkpt>
      <trkpt lat="44.36256" lon="5.52486">
        <ele>675.9</ele>
        <time>2023-04-06T12:57:23Z</time>
      </trkpt>
      <trkpt lat="44.36257" lon="5.5248">
        <ele>675.5</ele>
        <time>2023-04-06T12:57:24Z</time>
      </trkpt>
      <trkpt lat="44.36259" lon="5.52474">
        <ele>674.9</ele>
        <time>2023-04-06T12:57:25Z</time>
      </trkpt>
      <trkpt lat="44.3626" lon="5.52468">
        <ele>674.5</ele>
        <time>2023-04-06T12:57:26Z</time>
      </trkpt>
      <trkpt lat="44.36261" lon="5.52462">
        <ele>674.1</ele>
        <time>2023-04-06T12:57:27Z</time>
      </trkpt>
      <trkpt lat="44.36263" lon="5.52453">
        <ele>673.3</ele>
        <time>2023-04-06T12:57:29Z</time>
      </trkpt>
      <trkpt lat="44.36264" lon="5.52448">
        <ele>673</ele>
        <time>2023-04-06T12:57:30Z</time>
      </trkpt>
      <trkpt lat="44.36265" lon="5.52443">
        <ele>672.6</ele>
        <time>2023-04-06T12:57:31Z</time>
      </trkpt>
      <trkpt lat="44.36266" lon="5.52438">
        <ele>672.2</ele>
        <time>2023-04-06T12:57:32Z</time>
      </trkpt>
      <trkpt lat="44.36266" lon="5.52434">
        <ele>671.8</ele>
        <time>2023-04-06T12:57:33Z</time>
      </trkpt>
      <trkpt lat="44.36267" lon="5.52429">
        <ele>671.5</ele>
        <time>2023-04-06T12:57:34Z</time>
      </trkpt>
      <trkpt lat="44.36269" lon="5.52425">
        <ele>671.2</ele>
        <time>2023-04-06T12:57:35Z</time>
      </trkpt>
      <trkpt lat="44.36269" lon="5.52421">
        <ele>670.9</ele>
        <time>2023-04-06T12:57:36Z</time>
      </trkpt>
      <trkpt lat="44.3627" lon="5.52417">
        <ele>670.6</ele>
        <time>2023-04-06T12:57:37Z</time>
      </trkpt>
      <trkpt lat="44.3627" lon="5.52414">
        <ele>670.3</ele>
        <time>2023-04-06T12:57:38Z</time>
      </trkpt>
      <trkpt lat="44.3627" lon="5.52404">
        <ele>669.6</ele>
        <time>2023-04-06T12:57:40Z</time>
      </trkpt>
      <trkpt lat="44.36271" lon="5.52399">
        <ele>669.2</ele>
        <time>2023-04-06T12:57:41Z</time>
      </trkpt>
      <trkpt lat="44.36273" lon="5.52394">
        <ele>668.7</ele>
        <time>2023-04-06T12:57:42Z</time>
      </trkpt>
      <trkpt lat="44.36275" lon="5.52389">
        <ele>668.4</ele>
        <time>2023-04-06T12:57:43Z</time>
      </trkpt>
      <trkpt lat="44.36276" lon="5.52385">
        <ele>668</ele>
        <time>2023-04-06T12:57:44Z</time>
      </trkpt>
      <trkpt lat="44.36277" lon="5.52381">
        <ele>667.7</ele>
        <time>2023-04-06T12:57:45Z</time>
      </trkpt>
      <trkpt lat="44.36278" lon="5.52377">
        <ele>667.4</ele>
        <time>2023-04-06T12:57:46Z</time>
      </trkpt>
      <trkpt lat="44.36279" lon="5.52373">
        <ele>667.1</ele>
        <time>2023-04-06T12:57:47Z</time>
      </trkpt>
      <trkpt lat="44.36279" lon="5.52369">
        <ele>666.8</ele>
        <time>2023-04-06T12:57:48Z</time>
      </trkpt>
      <trkpt lat="44.3628" lon="5.52365">
        <ele>666.5</ele>
        <time>2023-04-06T12:57:49Z</time>
      </trkpt>
      <trkpt lat="44.36281" lon="5.52361">
        <ele>666.2</ele>
        <time>2023-04-06T12:57:50Z</time>
      </trkpt>
      <trkpt lat="44.36282" lon="5.52358">
        <ele>665.9</ele>
        <time>2023-04-06T12:57:51Z</time>
      </trkpt>
      <trkpt lat="44.36283" lon="5.52354">
        <ele>665.6</ele>
        <time>2023-04-06T12:57:52Z</time>
      </trkpt>
      <trkpt lat="44.36283" lon="5.52349">
        <ele>665.3</ele>
        <time>2023-04-06T12:57:53Z</time>
      </trkpt>
      <trkpt lat="44.36283" lon="5.52345">
        <ele>664.9</ele>
        <time>2023-04-06T12:57:54Z</time>
      </trkpt>
      <trkpt lat="44.36284" lon="5.5234">
        <ele>664.5</ele>
        <time>2023-04-06T12:57:55Z</time>
      </trkpt>
      <trkpt lat="44.36284" lon="5.52334">
        <ele>664.1</ele>
        <time>2023-04-06T12:57:56Z</time>
      </trkpt>
      <trkpt lat="44.36284" lon="5.52328">
        <ele>663.6</ele>
        <time>2023-04-06T12:57:57Z</time>
      </trkpt>
      <trkpt lat="44.36283" lon="5.52322">
        <ele>663.2</ele>
        <time>2023-04-06T12:57:58Z</time>
      </trkpt>
      <trkpt lat="44.36283" lon="5.52316">
        <ele>662.7</ele>
        <time>2023-04-06T12:57:59Z</time>
      </trkpt>
      <trkpt lat="44.36282" lon="5.52309">
        <ele>662.2</ele>
        <time>2023-04-06T12:58:00Z</time>
      </trkpt>
      <trkpt lat="44.36283" lon="5.52303">
        <ele>661.8</ele>
        <time>2023-04-06T12:58:01Z</time>
      </trkpt>
      <trkpt lat="44.36283" lon="5.52297">
        <ele>661.3</ele>
        <time>2023-04-06T12:58:02Z</time>
      </trkpt>
      <trkpt lat="44.36285" lon="5.52287">
        <ele>660.5</ele>
        <time>2023-04-06T12:58:04Z</time>
      </trkpt>
      <trkpt lat="44.36286" lon="5.52282">
        <ele>660.1</ele>
        <time>2023-04-06T12:58:05Z</time>
      </trkpt>
      <trkpt lat="44.36287" lon="5.52278">
        <ele>659.8</ele>
        <time>2023-04-06T12:58:06Z</time>
      </trkpt>
      <trkpt lat="44.36287" lon="5.52274">
        <ele>659.4</ele>
        <time>2023-04-06T12:58:07Z</time>
      </trkpt>
      <trkpt lat="44.36288" lon="5.52269">
        <ele>659</ele>
        <time>2023-04-06T12:58:08Z</time>
      </trkpt>
      <trkpt lat="44.36288" lon="5.52264">
        <ele>658.6</ele>
        <time>2023-04-06T12:58:09Z</time>
      </trkpt>
      <trkpt lat="44.36288" lon="5.52259">
        <ele>658.2</ele>
        <time>2023-04-06T12:58:10Z</time>
      </trkpt>
      <trkpt lat="44.36289" lon="5.52255">
        <ele>657.9</ele>
        <time>2023-04-06T12:58:11Z</time>
      </trkpt>
      <trkpt lat="44.36291" lon="5.52252">
        <ele>657.6</ele>
        <time>2023-04-06T12:58:12Z</time>
      </trkpt>
      <trkpt lat="44.36293" lon="5.52248">
        <ele>657.2</ele>
        <time>2023-04-06T12:58:13Z</time>
      </trkpt>
      <trkpt lat="44.36294" lon="5.52244">
        <ele>656.9</ele>
        <time>2023-04-06T12:58:14Z</time>
      </trkpt>
      <trkpt lat="44.36295" lon="5.5224">
        <ele>656.5</ele>
        <time>2023-04-06T12:58:15Z</time>
      </trkpt>
      <trkpt lat="44.36298" lon="5.52237">
        <ele>656.2</ele>
        <time>2023-04-06T12:58:16Z</time>
      </trkpt>
      <trkpt lat="44.363" lon="5.52233">
        <ele>655.7</ele>
        <time>2023-04-06T12:58:17Z</time>
      </trkpt>
      <trkpt lat="44.36304" lon="5.52229">
        <ele>655.3</ele>
        <time>2023-04-06T12:58:18Z</time>
      </trkpt>
      <trkpt lat="44.36307" lon="5.52226">
        <ele>654.9</ele>
        <time>2023-04-06T12:58:19Z</time>
      </trkpt>
      <trkpt lat="44.3631" lon="5.52222">
        <ele>654.4</ele>
        <time>2023-04-06T12:58:20Z</time>
      </trkpt>
      <trkpt lat="44.36313" lon="5.52219">
        <ele>654</ele>
        <time>2023-04-06T12:58:21Z</time>
      </trkpt>
      <trkpt lat="44.36315" lon="5.52216">
        <ele>653.6</ele>
        <time>2023-04-06T12:58:22Z</time>
      </trkpt>
      <trkpt lat="44.36317" lon="5.52211">
        <ele>653.2</ele>
        <time>2023-04-06T12:58:23Z</time>
      </trkpt>
      <trkpt lat="44.3632" lon="5.52206">
        <ele>652.7</ele>
        <time>2023-04-06T12:58:24Z</time>
      </trkpt>
      <trkpt lat="44.36322" lon="5.52201">
        <ele>652.2</ele>
        <time>2023-04-06T12:58:25Z</time>
      </trkpt>
      <trkpt lat="44.36324" lon="5.52197">
        <ele>651.9</ele>
        <time>2023-04-06T12:58:26Z</time>
      </trkpt>
      <trkpt lat="44.36326" lon="5.52193">
        <ele>651.5</ele>
        <time>2023-04-06T12:58:27Z</time>
      </trkpt>
      <trkpt lat="44.36327" lon="5.52189">
        <ele>651.1</ele>
        <time>2023-04-06T12:58:28Z</time>
      </trkpt>
      <trkpt lat="44.36329" lon="5.52185">
        <ele>650.7</ele>
        <time>2023-04-06T12:58:29Z</time>
      </trkpt>
      <trkpt lat="44.36331" lon="5.52181">
        <ele>650.4</ele>
        <time>2023-04-06T12:58:30Z</time>
      </trkpt>
      <trkpt lat="44.36333" lon="5.52178">
        <ele>650.1</ele>
        <time>2023-04-06T12:58:31Z</time>
      </trkpt>
      <trkpt lat="44.36335" lon="5.52174">
        <ele>649.7</ele>
        <time>2023-04-06T12:58:32Z</time>
      </trkpt>
      <trkpt lat="44.36338" lon="5.5217">
        <ele>649.2</ele>
        <time>2023-04-06T12:58:33Z</time>
      </trkpt>
      <trkpt lat="44.36343" lon="5.52167">
        <ele>648.6</ele>
        <time>2023-04-06T12:58:34Z</time>
      </trkpt>
      <trkpt lat="44.36348" lon="5.52165">
        <ele>648.1</ele>
        <time>2023-04-06T12:58:35Z</time>
      </trkpt>
      <trkpt lat="44.36352" lon="5.52163">
        <ele>647.6</ele>
        <time>2023-04-06T12:58:36Z</time>
      </trkpt>
      <trkpt lat="44.36356" lon="5.52162">
        <ele>647.1</ele>
        <time>2023-04-06T12:58:37Z</time>
      </trkpt>
      <trkpt lat="44.3636" lon="5.5216">
        <ele>646.7</ele>
        <time>2023-04-06T12:58:38Z</time>
      </trkpt>
      <trkpt lat="44.36363" lon="5.52158">
        <ele>646.3</ele>
        <time>2023-04-06T12:58:39Z</time>
      </trkpt>
      <trkpt lat="44.36366" lon="5.52157">
        <ele>646</ele>
        <time>2023-04-06T12:58:40Z</time>
      </trkpt>
      <trkpt lat="44.36368" lon="5.52156">
        <ele>645.7</ele>
        <time>2023-04-06T12:58:41Z</time>
      </trkpt>
      <trkpt lat="44.36371" lon="5.52153">
        <ele>645.3</ele>
        <time>2023-04-06T12:58:42Z</time>
      </trkpt>
      <trkpt lat="44.36372" lon="5.52149">
        <ele>645</ele>
        <time>2023-04-06T12:58:43Z</time>
      </trkpt>
      <trkpt lat="44.36374" lon="5.52145">
        <ele>644.6</ele>
        <time>2023-04-06T12:58:44Z</time>
      </trkpt>
      <trkpt lat="44.36374" lon="5.52139">
        <ele>644.2</ele>
        <time>2023-04-06T12:58:45Z</time>
      </trkpt>
      <trkpt lat="44.36375" lon="5.52133">
        <ele>644</ele>
        <time>2023-04-06T12:58:46Z</time>
      </trkpt>
      <trkpt lat="44.36377" lon="5.52126">
        <ele>644.3</ele>
        <time>2023-04-06T12:58:47Z</time>
      </trkpt>
      <trkpt lat="44.36379" lon="5.52119">
        <ele>644.5</ele>
        <time>2023-04-06T12:58:48Z</time>
      </trkpt>
      <trkpt lat="44.36381" lon="5.52113">
        <ele>644.8</ele>
        <time>2023-04-06T12:58:49Z</time>
      </trkpt>
      <trkpt lat="44.36384" lon="5.52108">
        <ele>645.1</ele>
        <time>2023-04-06T12:58:50Z</time>
      </trkpt>
      <trkpt lat="44.36388" lon="5.52103">
        <ele>645.3</ele>
        <time>2023-04-06T12:58:51Z</time>
      </trkpt>
      <trkpt lat="44.36392" lon="5.52098">
        <ele>645.6</ele>
        <time>2023-04-06T12:58:52Z</time>
      </trkpt>
      <trkpt lat="44.36395" lon="5.52092">
        <ele>645.9</ele>
        <time>2023-04-06T12:58:53Z</time>
      </trkpt>
      <trkpt lat="44.36398" lon="5.52086">
        <ele>646.1</ele>
        <time>2023-04-06T12:58:54Z</time>
      </trkpt>
      <trkpt lat="44.36399" lon="5.5208">
        <ele>646.4</ele>
        <time>2023-04-06T12:58:55Z</time>
      </trkpt>
      <trkpt lat="44.364" lon="5.52074">
        <ele>646.6</ele>
        <time>2023-04-06T12:58:56Z</time>
      </trkpt>
      <trkpt lat="44.364" lon="5.52068">
        <ele>646.8</ele>
        <time>2023-04-06T12:58:57Z</time>
      </trkpt>
      <trkpt lat="44.364" lon="5.52063">
        <ele>647</ele>
        <time>2023-04-06T12:58:58Z</time>
      </trkpt>
      <trkpt lat="44.364" lon="5.52057">
        <ele>647.2</ele>
        <time>2023-04-06T12:58:59Z</time>
      </trkpt>
      <trkpt lat="44.36399" lon="5.52053">
        <ele>647.4</ele>
        <time>2023-04-06T12:59:00Z</time>
      </trkpt>
      <trkpt lat="44.36399" lon="5.52049">
        <ele>647.6</ele>
        <time>2023-04-06T12:59:01Z</time>
      </trkpt>
      <trkpt lat="44.36399" lon="5.52045">
        <ele>647.7</ele>
        <time>2023-04-06T12:59:02Z</time>
      </trkpt>
      <trkpt lat="44.36399" lon="5.5204">
        <ele>647.9</ele>
        <time>2023-04-06T12:59:03Z</time>
      </trkpt>
      <trkpt lat="44.36401" lon="5.52036">
        <ele>648.1</ele>
        <time>2023-04-06T12:59:04Z</time>
      </trkpt>
      <trkpt lat="44.36404" lon="5.52031">
        <ele>648.3</ele>
        <time>2023-04-06T12:59:05Z</time>
      </trkpt>
      <trkpt lat="44.36408" lon="5.52027">
        <ele>648.6</ele>
        <time>2023-04-06T12:59:06Z</time>
      </trkpt>
      <trkpt lat="44.36413" lon="5.52024">
        <ele>648.8</ele>
        <time>2023-04-06T12:59:07Z</time>
      </trkpt>
      <trkpt lat="44.36417" lon="5.52021">
        <ele>649.1</ele>
        <time>2023-04-06T12:59:08Z</time>
      </trkpt>
      <trkpt lat="44.3642" lon="5.52019">
        <ele>649.2</ele>
        <time>2023-04-06T12:59:09Z</time>
      </trkpt>
      <trkpt lat="44.36422" lon="5.52016">
        <ele>649.4</ele>
        <time>2023-04-06T12:59:10Z</time>
      </trkpt>
      <trkpt lat="44.36425" lon="5.52013">
        <ele>649.6</ele>
        <time>2023-04-06T12:59:11Z</time>
      </trkpt>
      <trkpt lat="44.36427" lon="5.52009">
        <ele>649.8</ele>
        <time>2023-04-06T12:59:12Z</time>
      </trkpt>
      <trkpt lat="44.36429" lon="5.52004">
        <ele>650</ele>
        <time>2023-04-06T12:59:13Z</time>
      </trkpt>
      <trkpt lat="44.36432" lon="5.52001">
        <ele>650.2</ele>
        <time>2023-04-06T12:59:14Z</time>
      </trkpt>
      <trkpt lat="44.36434" lon="5.51998">
        <ele>650.3</ele>
        <time>2023-04-06T12:59:15Z</time>
      </trkpt>
      <trkpt lat="44.36437" lon="5.51996">
        <ele>650.5</ele>
        <time>2023-04-06T12:59:16Z</time>
      </trkpt>
      <trkpt lat="44.3644" lon="5.51993">
        <ele>650.7</ele>
        <time>2023-04-06T12:59:17Z</time>
      </trkpt>
      <trkpt lat="44.36442" lon="5.5199">
        <ele>650.8</ele>
        <time>2023-04-06T12:59:18Z</time>
      </trkpt>
      <trkpt lat="44.36445" lon="5.51988">
        <ele>651</ele>
        <time>2023-04-06T12:59:19Z</time>
      </trkpt>
      <trkpt lat="44.36449" lon="5.51987">
        <ele>651.2</ele>
        <time>2023-04-06T12:59:20Z</time>
      </trkpt>
      <trkpt lat="44.36454" lon="5.51987">
        <ele>651.5</ele>
        <time>2023-04-06T12:59:21Z</time>
      </trkpt>
      <trkpt lat="44.36458" lon="5.51989">
        <ele>651.7</ele>
        <time>2023-04-06T12:59:22Z</time>
      </trkpt>
      <trkpt lat="44.36461" lon="5.5199">
        <ele>651.9</ele>
        <time>2023-04-06T12:59:23Z</time>
      </trkpt>
      <trkpt lat="44.36465" lon="5.5199">
        <ele>652</ele>
        <time>2023-04-06T12:59:24Z</time>
      </trkpt>
      <trkpt lat="44.36468" lon="5.5199">
        <ele>652.2</ele>
        <time>2023-04-06T12:59:25Z</time>
      </trkpt>
      <trkpt lat="44.36473" lon="5.51988">
        <ele>652.5</ele>
        <time>2023-04-06T12:59:27Z</time>
      </trkpt>
      <trkpt lat="44.3648" lon="5.51987">
        <ele>652.9</ele>
        <time>2023-04-06T12:59:29Z</time>
      </trkpt>
      <trkpt lat="44.36486" lon="5.51989">
        <ele>653.2</ele>
        <time>2023-04-06T12:59:30Z</time>
      </trkpt>
      <trkpt lat="44.3649" lon="5.5199">
        <ele>653.4</ele>
        <time>2023-04-06T12:59:31Z</time>
      </trkpt>
      <trkpt lat="44.36493" lon="5.51989">
        <ele>653.6</ele>
        <time>2023-04-06T12:59:32Z</time>
      </trkpt>
      <trkpt lat="44.36496" lon="5.51988">
        <ele>653.7</ele>
        <time>2023-04-06T12:59:33Z</time>
      </trkpt>
      <trkpt lat="44.36499" lon="5.51985">
        <ele>653.9</ele>
        <time>2023-04-06T12:59:34Z</time>
      </trkpt>
      <trkpt lat="44.36501" lon="5.51983">
        <ele>654</ele>
        <time>2023-04-06T12:59:35Z</time>
      </trkpt>
      <trkpt lat="44.36504" lon="5.51981">
        <ele>654.2</ele>
        <time>2023-04-06T12:59:36Z</time>
      </trkpt>
      <trkpt lat="44.36509" lon="5.51979">
        <ele>654.5</ele>
        <time>2023-04-06T12:59:38Z</time>
      </trkpt>
      <trkpt lat="44.36512" lon="5.51978">
        <ele>654.6</ele>
        <time>2023-04-06T12:59:39Z</time>
      </trkpt>
      <trkpt lat="44.36516" lon="5.51978">
        <ele>654.8</ele>
        <time>2023-04-06T12:59:40Z</time>
      </trkpt>
      <trkpt lat="44.36517" lon="5.51978">
        <ele>654.9</ele>
        <time>2023-04-06T12:59:41Z</time>
      </trkpt>
      <trkpt lat="44.3652" lon="5.51978">
        <ele>655</ele>
        <time>2023-04-06T12:59:42Z</time>
      </trkpt>
      <trkpt lat="44.36522" lon="5.51978">
        <ele>655.2</ele>
        <time>2023-04-06T12:59:43Z</time>
      </trkpt>
      <trkpt lat="44.36526" lon="5.51978">
        <ele>655.4</ele>
        <time>2023-04-06T12:59:44Z</time>
      </trkpt>
      <trkpt lat="44.36528" lon="5.51978">
        <ele>655.5</ele>
        <time>2023-04-06T12:59:45Z</time>
      </trkpt>
      <trkpt lat="44.36531" lon="5.51977">
        <ele>655.6</ele>
        <time>2023-04-06T12:59:46Z</time>
      </trkpt>
      <trkpt lat="44.36534" lon="5.51976">
        <ele>655.8</ele>
        <time>2023-04-06T12:59:47Z</time>
      </trkpt>
      <trkpt lat="44.36539" lon="5.51975">
        <ele>656</ele>
        <time>2023-04-06T12:59:49Z</time>
      </trkpt>
      <trkpt lat="44.36541" lon="5.51974">
        <ele>656.2</ele>
        <time>2023-04-06T12:59:50Z</time>
      </trkpt>
      <trkpt lat="44.36545" lon="5.51973">
        <ele>656.4</ele>
        <time>2023-04-06T12:59:51Z</time>
      </trkpt>
      <trkpt lat="44.36548" lon="5.51973">
        <ele>656.5</ele>
        <time>2023-04-06T12:59:52Z</time>
      </trkpt>
      <trkpt lat="44.36551" lon="5.51973">
        <ele>656.7</ele>
        <time>2023-04-06T12:59:53Z</time>
      </trkpt>
      <trkpt lat="44.36555" lon="5.51972">
        <ele>656.9</ele>
        <time>2023-04-06T12:59:54Z</time>
      </trkpt>
      <trkpt lat="44.36556" lon="5.51972">
        <ele>657</ele>
        <time>2023-04-06T12:59:55Z</time>
      </trkpt>
      <trkpt lat="44.36559" lon="5.51971">
        <ele>657.1</ele>
        <time>2023-04-06T12:59:56Z</time>
      </trkpt>
      <trkpt lat="44.36563" lon="5.5197">
        <ele>657.3</ele>
        <time>2023-04-06T12:59:57Z</time>
      </trkpt>
      <trkpt lat="44.36566" lon="5.51968">
        <ele>657.5</ele>
        <time>2023-04-06T12:59:58Z</time>
      </trkpt>
      <trkpt lat="44.36573" lon="5.51964">
        <ele>657.9</ele>
        <time>2023-04-06T13:00:00Z</time>
      </trkpt>
      <trkpt lat="44.36576" lon="5.51962">
        <ele>658</ele>
        <time>2023-04-06T13:00:01Z</time>
      </trkpt>
      <trkpt lat="44.36579" lon="5.5196">
        <ele>658.2</ele>
        <time>2023-04-06T13:00:02Z</time>
      </trkpt>
      <trkpt lat="44.36582" lon="5.51957">
        <ele>658.4</ele>
        <time>2023-04-06T13:00:03Z</time>
      </trkpt>
      <trkpt lat="44.36586" lon="5.51955">
        <ele>658.6</ele>
        <time>2023-04-06T13:00:04Z</time>
      </trkpt>
      <trkpt lat="44.36589" lon="5.51953">
        <ele>658.8</ele>
        <time>2023-04-06T13:00:05Z</time>
      </trkpt>
      <trkpt lat="44.36593" lon="5.51951">
        <ele>659</ele>
        <time>2023-04-06T13:00:06Z</time>
      </trkpt>
      <trkpt lat="44.36597" lon="5.51949">
        <ele>659.3</ele>
        <time>2023-04-06T13:00:07Z</time>
      </trkpt>
      <trkpt lat="44.36601" lon="5.51946">
        <ele>659.5</ele>
        <time>2023-04-06T13:00:08Z</time>
      </trkpt>
      <trkpt lat="44.36605" lon="5.51944">
        <ele>659.7</ele>
        <time>2023-04-06T13:00:09Z</time>
      </trkpt>
      <trkpt lat="44.36612" lon="5.5194">
        <ele>660.1</ele>
        <time>2023-04-06T13:00:11Z</time>
      </trkpt>
      <trkpt lat="44.36615" lon="5.51939">
        <ele>660.3</ele>
        <time>2023-04-06T13:00:12Z</time>
      </trkpt>
      <trkpt lat="44.36618" lon="5.51938">
        <ele>660.4</ele>
        <time>2023-04-06T13:00:13Z</time>
      </trkpt>
      <trkpt lat="44.36622" lon="5.51939">
        <ele>660.6</ele>
        <time>2023-04-06T13:00:14Z</time>
      </trkpt>
      <trkpt lat="44.36625" lon="5.5194">
        <ele>660.8</ele>
        <time>2023-04-06T13:00:15Z</time>
      </trkpt>
      <trkpt lat="44.36629" lon="5.51943">
        <ele>661</ele>
        <time>2023-04-06T13:00:16Z</time>
      </trkpt>
      <trkpt lat="44.36632" lon="5.51945">
        <ele>661.2</ele>
        <time>2023-04-06T13:00:17Z</time>
      </trkpt>
      <trkpt lat="44.36635" lon="5.51948">
        <ele>661.4</ele>
        <time>2023-04-06T13:00:18Z</time>
      </trkpt>
      <trkpt lat="44.36637" lon="5.51951">
        <ele>661.6</ele>
        <time>2023-04-06T13:00:19Z</time>
      </trkpt>
      <trkpt lat="44.3664" lon="5.51954">
        <ele>661.7</ele>
        <time>2023-04-06T13:00:20Z</time>
      </trkpt>
      <trkpt lat="44.36644" lon="5.51962">
        <ele>662.1</ele>
        <time>2023-04-06T13:00:22Z</time>
      </trkpt>
      <trkpt lat="44.36646" lon="5.51965">
        <ele>662.3</ele>
        <time>2023-04-06T13:00:23Z</time>
      </trkpt>
      <trkpt lat="44.36648" lon="5.51968">
        <ele>662.4</ele>
        <time>2023-04-06T13:00:24Z</time>
      </trkpt>
      <trkpt lat="44.3665" lon="5.51971">
        <ele>662.6</ele>
        <time>2023-04-06T13:00:25Z</time>
      </trkpt>
      <trkpt lat="44.36652" lon="5.51974">
        <ele>662.7</ele>
        <time>2023-04-06T13:00:26Z</time>
      </trkpt>
      <trkpt lat="44.36655" lon="5.51978">
        <ele>662.9</ele>
        <time>2023-04-06T13:00:27Z</time>
      </trkpt>
      <trkpt lat="44.36657" lon="5.51981">
        <ele>663.1</ele>
        <time>2023-04-06T13:00:28Z</time>
      </trkpt>
      <trkpt lat="44.3666" lon="5.51984">
        <ele>663.3</ele>
        <time>2023-04-06T13:00:29Z</time>
      </trkpt>
      <trkpt lat="44.36663" lon="5.51987">
        <ele>663.4</ele>
        <time>2023-04-06T13:00:30Z</time>
      </trkpt>
      <trkpt lat="44.36666" lon="5.51989">
        <ele>663.6</ele>
        <time>2023-04-06T13:00:31Z</time>
      </trkpt>
      <trkpt lat="44.36668" lon="5.51992">
        <ele>663.8</ele>
        <time>2023-04-06T13:00:32Z</time>
      </trkpt>
      <trkpt lat="44.3667" lon="5.51995">
        <ele>664</ele>
        <time>2023-04-06T13:00:33Z</time>
      </trkpt>
      <trkpt lat="44.36673" lon="5.51998">
        <ele>664.1</ele>
        <time>2023-04-06T13:00:34Z</time>
      </trkpt>
      <trkpt lat="44.36676" lon="5.52001">
        <ele>664.3</ele>
        <time>2023-04-06T13:00:35Z</time>
      </trkpt>
      <trkpt lat="44.36678" lon="5.52004">
        <ele>664.5</ele>
        <time>2023-04-06T13:00:36Z</time>
      </trkpt>
      <trkpt lat="44.36684" lon="5.5201">
        <ele>664.9</ele>
        <time>2023-04-06T13:00:38Z</time>
      </trkpt>
      <trkpt lat="44.36687" lon="5.52013">
        <ele>665.1</ele>
        <time>2023-04-06T13:00:39Z</time>
      </trkpt>
      <trkpt lat="44.36691" lon="5.52016">
        <ele>665.3</ele>
        <time>2023-04-06T13:00:40Z</time>
      </trkpt>
      <trkpt lat="44.36694" lon="5.52019">
        <ele>665.5</ele>
        <time>2023-04-06T13:00:41Z</time>
      </trkpt>
      <trkpt lat="44.36697" lon="5.52023">
        <ele>665.7</ele>
        <time>2023-04-06T13:00:42Z</time>
      </trkpt>
      <trkpt lat="44.367" lon="5.52027">
        <ele>665.9</ele>
        <time>2023-04-06T13:00:43Z</time>
      </trkpt>
      <trkpt lat="44.36703" lon="5.52031">
        <ele>666.1</ele>
        <time>2023-04-06T13:00:44Z</time>
      </trkpt>
      <trkpt lat="44.36706" lon="5.52034">
        <ele>666.3</ele>
        <time>2023-04-06T13:00:45Z</time>
      </trkpt>
      <trkpt lat="44.36709" lon="5.52037">
        <ele>666.5</ele>
        <time>2023-04-06T13:00:46Z</time>
      </trkpt>
      <trkpt lat="44.36713" lon="5.52041">
        <ele>666.8</ele>
        <time>2023-04-06T13:00:47Z</time>
      </trkpt>
      <trkpt lat="44.3672" lon="5.5205">
        <ele>667.3</ele>
        <time>2023-04-06T13:00:49Z</time>
      </trkpt>
      <trkpt lat="44.36723" lon="5.52053">
        <ele>667.5</ele>
        <time>2023-04-06T13:00:50Z</time>
      </trkpt>
      <trkpt lat="44.36726" lon="5.52057">
        <ele>667.7</ele>
        <time>2023-04-06T13:00:51Z</time>
      </trkpt>
      <trkpt lat="44.36729" lon="5.5206">
        <ele>667.8</ele>
        <time>2023-04-06T13:00:52Z</time>
      </trkpt>
      <trkpt lat="44.36731" lon="5.52063">
        <ele>668</ele>
        <time>2023-04-06T13:00:53Z</time>
      </trkpt>
      <trkpt lat="44.36734" lon="5.52067">
        <ele>668.2</ele>
        <time>2023-04-06T13:00:54Z</time>
      </trkpt>
      <trkpt lat="44.36739" lon="5.52075">
        <ele>668.6</ele>
        <time>2023-04-06T13:00:56Z</time>
      </trkpt>
      <trkpt lat="44.36741" lon="5.52079">
        <ele>668.8</ele>
        <time>2023-04-06T13:00:57Z</time>
      </trkpt>
      <trkpt lat="44.36743" lon="5.52082">
        <ele>669</ele>
        <time>2023-04-06T13:00:58Z</time>
      </trkpt>
      <trkpt lat="44.36745" lon="5.52085">
        <ele>669.3</ele>
        <time>2023-04-06T13:00:59Z</time>
      </trkpt>
      <trkpt lat="44.36748" lon="5.52086">
        <ele>669.5</ele>
        <time>2023-04-06T13:01:00Z</time>
      </trkpt>
      <trkpt lat="44.3675" lon="5.52087">
        <ele>669.7</ele>
        <time>2023-04-06T13:01:01Z</time>
      </trkpt>
      <trkpt lat="44.36754" lon="5.52088">
        <ele>670</ele>
        <time>2023-04-06T13:01:02Z</time>
      </trkpt>
      <trkpt lat="44.36757" lon="5.5209">
        <ele>670.3</ele>
        <time>2023-04-06T13:01:03Z</time>
      </trkpt>
      <trkpt lat="44.3676" lon="5.5209">
        <ele>670.6</ele>
        <time>2023-04-06T13:01:04Z</time>
      </trkpt>
      <trkpt lat="44.36764" lon="5.52091">
        <ele>670.8</ele>
        <time>2023-04-06T13:01:05Z</time>
      </trkpt>
      <trkpt lat="44.36772" lon="5.52093">
        <ele>671.5</ele>
        <time>2023-04-06T13:01:07Z</time>
      </trkpt>
      <trkpt lat="44.36776" lon="5.52094">
        <ele>671.8</ele>
        <time>2023-04-06T13:01:08Z</time>
      </trkpt>
      <trkpt lat="44.3678" lon="5.52094">
        <ele>672.1</ele>
        <time>2023-04-06T13:01:09Z</time>
      </trkpt>
      <trkpt lat="44.36783" lon="5.52095">
        <ele>672.4</ele>
        <time>2023-04-06T13:01:10Z</time>
      </trkpt>
      <trkpt lat="44.36787" lon="5.52094">
        <ele>672.6</ele>
        <time>2023-04-06T13:01:11Z</time>
      </trkpt>
      <trkpt lat="44.3679" lon="5.52095">
        <ele>672.9</ele>
        <time>2023-04-06T13:01:12Z</time>
      </trkpt>
      <trkpt lat="44.36794" lon="5.52095">
        <ele>673.2</ele>
        <time>2023-04-06T13:01:13Z</time>
      </trkpt>
      <trkpt lat="44.36799" lon="5.52096">
        <ele>673.6</ele>
        <time>2023-04-06T13:01:14Z</time>
      </trkpt>
      <trkpt lat="44.36804" lon="5.52098">
        <ele>674</ele>
        <time>2023-04-06T13:01:15Z</time>
      </trkpt>
      <trkpt lat="44.36809" lon="5.521">
        <ele>674.5</ele>
        <time>2023-04-06T13:01:16Z</time>
      </trkpt>
      <trkpt lat="44.3682" lon="5.52105">
        <ele>675.3</ele>
        <time>2023-04-06T13:01:18Z</time>
      </trkpt>
      <trkpt lat="44.36824" lon="5.52107">
        <ele>675.7</ele>
        <time>2023-04-06T13:01:19Z</time>
      </trkpt>
      <trkpt lat="44.3683" lon="5.52109">
        <ele>676.2</ele>
        <time>2023-04-06T13:01:20Z</time>
      </trkpt>
      <trkpt lat="44.36837" lon="5.52111">
        <ele>676.7</ele>
        <time>2023-04-06T13:01:21Z</time>
      </trkpt>
      <trkpt lat="44.36842" lon="5.52114">
        <ele>677.2</ele>
        <time>2023-04-06T13:01:22Z</time>
      </trkpt>
      <trkpt lat="44.36847" lon="5.52117">
        <ele>677.6</ele>
        <time>2023-04-06T13:01:23Z</time>
      </trkpt>
      <trkpt lat="44.36852" lon="5.52119">
        <ele>678.1</ele>
        <time>2023-04-06T13:01:24Z</time>
      </trkpt>
      <trkpt lat="44.36858" lon="5.52123">
        <ele>678.5</ele>
        <time>2023-04-06T13:01:25Z</time>
      </trkpt>
      <trkpt lat="44.36863" lon="5.52126">
        <ele>679</ele>
        <time>2023-04-06T13:01:26Z</time>
      </trkpt>
      <trkpt lat="44.36868" lon="5.52128">
        <ele>679.4</ele>
        <time>2023-04-06T13:01:27Z</time>
      </trkpt>
      <trkpt lat="44.36873" lon="5.5213">
        <ele>679.8</ele>
        <time>2023-04-06T13:01:28Z</time>
      </trkpt>
      <trkpt lat="44.36877" lon="5.52133">
        <ele>680.2</ele>
        <time>2023-04-06T13:01:29Z</time>
      </trkpt>
      <trkpt lat="44.36882" lon="5.52134">
        <ele>680.6</ele>
        <time>2023-04-06T13:01:30Z</time>
      </trkpt>
      <trkpt lat="44.36887" lon="5.52135">
        <ele>680.9</ele>
        <time>2023-04-06T13:01:31Z</time>
      </trkpt>
      <trkpt lat="44.36891" lon="5.52136">
        <ele>681.3</ele>
        <time>2023-04-06T13:01:32Z</time>
      </trkpt>
      <trkpt lat="44.36895" lon="5.52137">
        <ele>681.6</ele>
        <time>2023-04-06T13:01:33Z</time>
      </trkpt>
      <trkpt lat="44.36899" lon="5.52138">
        <ele>682</ele>
        <time>2023-04-06T13:01:34Z</time>
      </trkpt>
      <trkpt lat="44.36904" lon="5.52139">
        <ele>682.3</ele>
        <time>2023-04-06T13:01:35Z</time>
      </trkpt>
      <trkpt lat="44.36908" lon="5.52141">
        <ele>682.7</ele>
        <time>2023-04-06T13:01:36Z</time>
      </trkpt>
      <trkpt lat="44.36912" lon="5.52142">
        <ele>683</ele>
        <time>2023-04-06T13:01:37Z</time>
      </trkpt>
      <trkpt lat="44.36916" lon="5.52143">
        <ele>683.3</ele>
        <time>2023-04-06T13:01:38Z</time>
      </trkpt>
      <trkpt lat="44.36919" lon="5.52144">
        <ele>683.6</ele>
        <time>2023-04-06T13:01:39Z</time>
      </trkpt>
      <trkpt lat="44.36923" lon="5.52145">
        <ele>683.8</ele>
        <time>2023-04-06T13:01:40Z</time>
      </trkpt>
      <trkpt lat="44.36926" lon="5.52146">
        <ele>684.1</ele>
        <time>2023-04-06T13:01:41Z</time>
      </trkpt>
      <trkpt lat="44.3693" lon="5.52147">
        <ele>684.4</ele>
        <time>2023-04-06T13:01:42Z</time>
      </trkpt>
      <trkpt lat="44.36935" lon="5.52148">
        <ele>684.8</ele>
        <time>2023-04-06T13:01:43Z</time>
      </trkpt>
      <trkpt lat="44.36939" lon="5.52149">
        <ele>685.2</ele>
        <time>2023-04-06T13:01:44Z</time>
      </trkpt>
      <trkpt lat="44.36944" lon="5.5215">
        <ele>685.5</ele>
        <time>2023-04-06T13:01:45Z</time>
      </trkpt>
      <trkpt lat="44.36948" lon="5.52151">
        <ele>685.9</ele>
        <time>2023-04-06T13:01:46Z</time>
      </trkpt>
      <trkpt lat="44.36952" lon="5.52152">
        <ele>686.2</ele>
        <time>2023-04-06T13:01:47Z</time>
      </trkpt>
      <trkpt lat="44.36956" lon="5.52153">
        <ele>686.5</ele>
        <time>2023-04-06T13:01:48Z</time>
      </trkpt>
      <trkpt lat="44.3696" lon="5.52154">
        <ele>686.9</ele>
        <time>2023-04-06T13:01:49Z</time>
      </trkpt>
      <trkpt lat="44.36964" lon="5.52156">
        <ele>687.2</ele>
        <time>2023-04-06T13:01:50Z</time>
      </trkpt>
      <trkpt lat="44.36969" lon="5.52157">
        <ele>687.5</ele>
        <time>2023-04-06T13:01:51Z</time>
      </trkpt>
      <trkpt lat="44.36973" lon="5.52158">
        <ele>687.9</ele>
        <time>2023-04-06T13:01:52Z</time>
      </trkpt>
      <trkpt lat="44.36978" lon="5.52159">
        <ele>688.3</ele>
        <time>2023-04-06T13:01:53Z</time>
      </trkpt>
      <trkpt lat="44.36982" lon="5.5216">
        <ele>688.6</ele>
        <time>2023-04-06T13:01:54Z</time>
      </trkpt>
      <trkpt lat="44.36986" lon="5.52161">
        <ele>689</ele>
        <time>2023-04-06T13:01:55Z</time>
      </trkpt>
      <trkpt lat="44.36991" lon="5.52162">
        <ele>689.3</ele>
        <time>2023-04-06T13:01:56Z</time>
      </trkpt>
      <trkpt lat="44.36995" lon="5.52163">
        <ele>689.6</ele>
        <time>2023-04-06T13:01:57Z</time>
      </trkpt>
      <trkpt lat="44.37" lon="5.52165">
        <ele>690</ele>
        <time>2023-04-06T13:01:58Z</time>
      </trkpt>
      <trkpt lat="44.37004" lon="5.52167">
        <ele>690.4</ele>
        <time>2023-04-06T13:01:59Z</time>
      </trkpt>
      <trkpt lat="44.37009" lon="5.52168">
        <ele>690.8</ele>
        <time>2023-04-06T13:02:00Z</time>
      </trkpt>
      <trkpt lat="44.37013" lon="5.52169">
        <ele>691.1</ele>
        <time>2023-04-06T13:02:01Z</time>
      </trkpt>
      <trkpt lat="44.37017" lon="5.52171">
        <ele>691.4</ele>
        <time>2023-04-06T13:02:02Z</time>
      </trkpt>
      <trkpt lat="44.37022" lon="5.52172">
        <ele>691.8</ele>
        <time>2023-04-06T13:02:03Z</time>
      </trkpt>
      <trkpt lat="44.37026" lon="5.52173">
        <ele>692.2</ele>
        <time>2023-04-06T13:02:04Z</time>
      </trkpt>
      <trkpt lat="44.3703" lon="5.52174">
        <ele>692.5</ele>
        <time>2023-04-06T13:02:05Z</time>
      </trkpt>
      <trkpt lat="44.37034" lon="5.52174">
        <ele>692.8</ele>
        <time>2023-04-06T13:02:06Z</time>
      </trkpt>
      <trkpt lat="44.37038" lon="5.52175">
        <ele>693.1</ele>
        <time>2023-04-06T13:02:07Z</time>
      </trkpt>
      <trkpt lat="44.37042" lon="5.52177">
        <ele>693.4</ele>
        <time>2023-04-06T13:02:08Z</time>
      </trkpt>
      <trkpt lat="44.37046" lon="5.52177">
        <ele>693.8</ele>
        <time>2023-04-06T13:02:09Z</time>
      </trkpt>
      <trkpt lat="44.37051" lon="5.52178">
        <ele>694.1</ele>
        <time>2023-04-06T13:02:10Z</time>
      </trkpt>
      <trkpt lat="44.37055" lon="5.52179">
        <ele>694.5</ele>
        <time>2023-04-06T13:02:11Z</time>
      </trkpt>
      <trkpt lat="44.37059" lon="5.5218">
        <ele>694.8</ele>
        <time>2023-04-06T13:02:12Z</time>
      </trkpt>
      <trkpt lat="44.37063" lon="5.52181">
        <ele>695.1</ele>
        <time>2023-04-06T13:02:13Z</time>
      </trkpt>
      <trkpt lat="44.37067" lon="5.52182">
        <ele>695.4</ele>
        <time>2023-04-06T13:02:14Z</time>
      </trkpt>
      <trkpt lat="44.37071" lon="5.52183">
        <ele>695.7</ele>
        <time>2023-04-06T13:02:15Z</time>
      </trkpt>
      <trkpt lat="44.37075" lon="5.52184">
        <ele>696.1</ele>
        <time>2023-04-06T13:02:16Z</time>
      </trkpt>
      <trkpt lat="44.37079" lon="5.52184">
        <ele>696.4</ele>
        <time>2023-04-06T13:02:17Z</time>
      </trkpt>
      <trkpt lat="44.37083" lon="5.52186">
        <ele>696.7</ele>
        <time>2023-04-06T13:02:18Z</time>
      </trkpt>
      <trkpt lat="44.37087" lon="5.52187">
        <ele>697.1</ele>
        <time>2023-04-06T13:02:19Z</time>
      </trkpt>
      <trkpt lat="44.37092" lon="5.52188">
        <ele>697.4</ele>
        <time>2023-04-06T13:02:20Z</time>
      </trkpt>
      <trkpt lat="44.37096" lon="5.5219">
        <ele>697.8</ele>
        <time>2023-04-06T13:02:21Z</time>
      </trkpt>
      <trkpt lat="44.371" lon="5.52191">
        <ele>698.1</ele>
        <time>2023-04-06T13:02:22Z</time>
      </trkpt>
      <trkpt lat="44.37103" lon="5.52192">
        <ele>698.4</ele>
        <time>2023-04-06T13:02:23Z</time>
      </trkpt>
      <trkpt lat="44.37107" lon="5.52193">
        <ele>698.7</ele>
        <time>2023-04-06T13:02:24Z</time>
      </trkpt>
      <trkpt lat="44.37111" lon="5.52194">
        <ele>699</ele>
        <time>2023-04-06T13:02:25Z</time>
      </trkpt>
      <trkpt lat="44.37116" lon="5.52195">
        <ele>699.4</ele>
        <time>2023-04-06T13:02:26Z</time>
      </trkpt>
      <trkpt lat="44.3712" lon="5.52196">
        <ele>699.7</ele>
        <time>2023-04-06T13:02:27Z</time>
      </trkpt>
      <trkpt lat="44.37124" lon="5.52198">
        <ele>700</ele>
        <time>2023-04-06T13:02:28Z</time>
      </trkpt>
      <trkpt lat="44.37127" lon="5.522">
        <ele>700.3</ele>
        <time>2023-04-06T13:02:29Z</time>
      </trkpt>
      <trkpt lat="44.37131" lon="5.52202">
        <ele>700.6</ele>
        <time>2023-04-06T13:02:30Z</time>
      </trkpt>
      <trkpt lat="44.37134" lon="5.52206">
        <ele>701</ele>
        <time>2023-04-06T13:02:31Z</time>
      </trkpt>
      <trkpt lat="44.37136" lon="5.5221">
        <ele>701.3</ele>
        <time>2023-04-06T13:02:32Z</time>
      </trkpt>
      <trkpt lat="44.37139" lon="5.52215">
        <ele>701.6</ele>
        <time>2023-04-06T13:02:33Z</time>
      </trkpt>
      <trkpt lat="44.37142" lon="5.52219">
        <ele>701.9</ele>
        <time>2023-04-06T13:02:34Z</time>
      </trkpt>
      <trkpt lat="44.37144" lon="5.52223">
        <ele>702.3</ele>
        <time>2023-04-06T13:02:35Z</time>
      </trkpt>
      <trkpt lat="44.37147" lon="5.52228">
        <ele>702.6</ele>
        <time>2023-04-06T13:02:36Z</time>
      </trkpt>
      <trkpt lat="44.37149" lon="5.52232">
        <ele>702.9</ele>
        <time>2023-04-06T13:02:37Z</time>
      </trkpt>
      <trkpt lat="44.37152" lon="5.52237">
        <ele>703.2</ele>
        <time>2023-04-06T13:02:38Z</time>
      </trkpt>
      <trkpt lat="44.37155" lon="5.52241">
        <ele>703.5</ele>
        <time>2023-04-06T13:02:39Z</time>
      </trkpt>
      <trkpt lat="44.37157" lon="5.52246">
        <ele>703.9</ele>
        <time>2023-04-06T13:02:40Z</time>
      </trkpt>
      <trkpt lat="44.37159" lon="5.5225">
        <ele>704.2</ele>
        <time>2023-04-06T13:02:41Z</time>
      </trkpt>
      <trkpt lat="44.37162" lon="5.52255">
        <ele>704.5</ele>
        <time>2023-04-06T13:02:42Z</time>
      </trkpt>
      <trkpt lat="44.37164" lon="5.52258">
        <ele>704.8</ele>
        <time>2023-04-06T13:02:43Z</time>
      </trkpt>
      <trkpt lat="44.37166" lon="5.52262">
        <ele>705</ele>
        <time>2023-04-06T13:02:44Z</time>
      </trkpt>
      <trkpt lat="44.37169" lon="5.52265">
        <ele>705.3</ele>
        <time>2023-04-06T13:02:45Z</time>
      </trkpt>
      <trkpt lat="44.37171" lon="5.52268">
        <ele>705.6</ele>
        <time>2023-04-06T13:02:46Z</time>
      </trkpt>
      <trkpt lat="44.37174" lon="5.52272">
        <ele>705.9</ele>
        <time>2023-04-06T13:02:47Z</time>
      </trkpt>
      <trkpt lat="44.37177" lon="5.52276">
        <ele>706.2</ele>
        <time>2023-04-06T13:02:48Z</time>
      </trkpt>
      <trkpt lat="44.37179" lon="5.5228">
        <ele>706.5</ele>
        <time>2023-04-06T13:02:49Z</time>
      </trkpt>
      <trkpt lat="44.37181" lon="5.52283">
        <ele>706.7</ele>
        <time>2023-04-06T13:02:50Z</time>
      </trkpt>
      <trkpt lat="44.37184" lon="5.52285">
        <ele>706.9</ele>
        <time>2023-04-06T13:02:51Z</time>
      </trkpt>
      <trkpt lat="44.37187" lon="5.52285">
        <ele>707.6</ele>
        <time>2023-04-06T13:02:52Z</time>
      </trkpt>
      <trkpt lat="44.3719" lon="5.52284">
        <ele>707.6</ele>
        <time>2023-04-06T13:02:53Z</time>
      </trkpt>
      <trkpt lat="44.37193" lon="5.52283">
        <ele>707.6</ele>
        <time>2023-04-06T13:02:54Z</time>
      </trkpt>
      <trkpt lat="44.37196" lon="5.52281">
        <ele>707.7</ele>
        <time>2023-04-06T13:02:55Z</time>
      </trkpt>
      <trkpt lat="44.372" lon="5.52279">
        <ele>707.7</ele>
        <time>2023-04-06T13:02:56Z</time>
      </trkpt>
      <trkpt lat="44.37204" lon="5.52275">
        <ele>707.8</ele>
        <time>2023-04-06T13:02:57Z</time>
      </trkpt>
      <trkpt lat="44.37208" lon="5.52271">
        <ele>707.8</ele>
        <time>2023-04-06T13:02:58Z</time>
      </trkpt>
      <trkpt lat="44.37212" lon="5.52267">
        <ele>707.9</ele>
        <time>2023-04-06T13:02:59Z</time>
      </trkpt>
      <trkpt lat="44.37216" lon="5.52262">
        <ele>707.9</ele>
        <time>2023-04-06T13:03:00Z</time>
      </trkpt>
      <trkpt lat="44.37221" lon="5.52257">
        <ele>708</ele>
        <time>2023-04-06T13:03:01Z</time>
      </trkpt>
      <trkpt lat="44.37229" lon="5.52246">
        <ele>708</ele>
        <time>2023-04-06T13:03:03Z</time>
      </trkpt>
      <trkpt lat="44.37233" lon="5.52239">
        <ele>708.1</ele>
        <time>2023-04-06T13:03:04Z</time>
      </trkpt>
      <trkpt lat="44.3724" lon="5.52225">
        <ele>708.2</ele>
        <time>2023-04-06T13:03:06Z</time>
      </trkpt>
      <trkpt lat="44.37243" lon="5.52218">
        <ele>708.3</ele>
        <time>2023-04-06T13:03:07Z</time>
      </trkpt>
      <trkpt lat="44.37246" lon="5.5221">
        <ele>708.3</ele>
        <time>2023-04-06T13:03:08Z</time>
      </trkpt>
      <trkpt lat="44.3725" lon="5.52203">
        <ele>708.4</ele>
        <time>2023-04-06T13:03:09Z</time>
      </trkpt>
      <trkpt lat="44.37254" lon="5.52196">
        <ele>708.4</ele>
        <time>2023-04-06T13:03:10Z</time>
      </trkpt>
      <trkpt lat="44.37257" lon="5.52189">
        <ele>708.5</ele>
        <time>2023-04-06T13:03:11Z</time>
      </trkpt>
      <trkpt lat="44.3726" lon="5.52181">
        <ele>708.6</ele>
        <time>2023-04-06T13:03:12Z</time>
      </trkpt>
      <trkpt lat="44.37263" lon="5.52174">
        <ele>708.6</ele>
        <time>2023-04-06T13:03:13Z</time>
      </trkpt>
      <trkpt lat="44.3727" lon="5.5216">
        <ele>708.8</ele>
        <time>2023-04-06T13:03:15Z</time>
      </trkpt>
      <trkpt lat="44.37273" lon="5.52153">
        <ele>708.8</ele>
        <time>2023-04-06T13:03:16Z</time>
      </trkpt>
      <trkpt lat="44.37277" lon="5.52146">
        <ele>708.9</ele>
        <time>2023-04-06T13:03:17Z</time>
      </trkpt>
      <trkpt lat="44.3728" lon="5.52139">
        <ele>709</ele>
        <time>2023-04-06T13:03:18Z</time>
      </trkpt>
      <trkpt lat="44.37283" lon="5.52132">
        <ele>709.1</ele>
        <time>2023-04-06T13:03:19Z</time>
      </trkpt>
      <trkpt lat="44.37286" lon="5.52124">
        <ele>709.3</ele>
        <time>2023-04-06T13:03:20Z</time>
      </trkpt>
      <trkpt lat="44.3729" lon="5.52116">
        <ele>709.4</ele>
        <time>2023-04-06T13:03:21Z</time>
      </trkpt>
      <trkpt lat="44.37294" lon="5.52109">
        <ele>709.5</ele>
        <time>2023-04-06T13:03:22Z</time>
      </trkpt>
      <trkpt lat="44.37298" lon="5.52103">
        <ele>709.6</ele>
        <time>2023-04-06T13:03:23Z</time>
      </trkpt>
      <trkpt lat="44.37302" lon="5.52096">
        <ele>709.8</ele>
        <time>2023-04-06T13:03:24Z</time>
      </trkpt>
      <trkpt lat="44.37305" lon="5.5209">
        <ele>709.9</ele>
        <time>2023-04-06T13:03:26Z</time>
      </trkpt>
      <trkpt lat="44.37312" lon="5.52077">
        <ele>710.2</ele>
        <time>2023-04-06T13:03:27Z</time>
      </trkpt>
      <trkpt lat="44.37316" lon="5.52071">
        <ele>710.3</ele>
        <time>2023-04-06T13:03:28Z</time>
      </trkpt>
      <trkpt lat="44.37321" lon="5.52066">
        <ele>710.4</ele>
        <time>2023-04-06T13:03:29Z</time>
      </trkpt>
      <trkpt lat="44.37325" lon="5.52061">
        <ele>710.5</ele>
        <time>2023-04-06T13:03:30Z</time>
      </trkpt>
      <trkpt lat="44.3733" lon="5.52056">
        <ele>710.6</ele>
        <time>2023-04-06T13:03:31Z</time>
      </trkpt>
      <trkpt lat="44.37334" lon="5.52052">
        <ele>710.7</ele>
        <time>2023-04-06T13:03:32Z</time>
      </trkpt>
      <trkpt lat="44.37338" lon="5.52048">
        <ele>710.8</ele>
        <time>2023-04-06T13:03:33Z</time>
      </trkpt>
      <trkpt lat="44.37343" lon="5.52043">
        <ele>710.9</ele>
        <time>2023-04-06T13:03:34Z</time>
      </trkpt>
      <trkpt lat="44.37348" lon="5.52037">
        <ele>711</ele>
        <time>2023-04-06T13:03:35Z</time>
      </trkpt>
      <trkpt lat="44.37357" lon="5.52027">
        <ele>711.1</ele>
        <time>2023-04-06T13:03:37Z</time>
      </trkpt>
      <trkpt lat="44.37362" lon="5.52022">
        <ele>711.2</ele>
        <time>2023-04-06T13:03:38Z</time>
      </trkpt>
      <trkpt lat="44.37367" lon="5.52017">
        <ele>711.2</ele>
        <time>2023-04-06T13:03:39Z</time>
      </trkpt>
      <trkpt lat="44.37372" lon="5.52012">
        <ele>711.3</ele>
        <time>2023-04-06T13:03:40Z</time>
      </trkpt>
      <trkpt lat="44.37377" lon="5.52006">
        <ele>711.5</ele>
        <time>2023-04-06T13:03:41Z</time>
      </trkpt>
      <trkpt lat="44.37382" lon="5.52001">
        <ele>711.6</ele>
        <time>2023-04-06T13:03:42Z</time>
      </trkpt>
      <trkpt lat="44.37387" lon="5.51997">
        <ele>711.7</ele>
        <time>2023-04-06T13:03:43Z</time>
      </trkpt>
      <trkpt lat="44.37391" lon="5.51992">
        <ele>711.7</ele>
        <time>2023-04-06T13:03:44Z</time>
      </trkpt>
      <trkpt lat="44.37396" lon="5.51987">
        <ele>711.8</ele>
        <time>2023-04-06T13:03:45Z</time>
      </trkpt>
      <trkpt lat="44.37401" lon="5.51982">
        <ele>711.9</ele>
        <time>2023-04-06T13:03:46Z</time>
      </trkpt>
      <trkpt lat="44.37409" lon="5.51971">
        <ele>712.2</ele>
        <time>2023-04-06T13:03:48Z</time>
      </trkpt>
      <trkpt lat="44.37414" lon="5.51966">
        <ele>712.4</ele>
        <time>2023-04-06T13:03:49Z</time>
      </trkpt>
      <trkpt lat="44.37419" lon="5.5196">
        <ele>712.6</ele>
        <time>2023-04-06T13:03:50Z</time>
      </trkpt>
      <trkpt lat="44.37423" lon="5.51955">
        <ele>712.8</ele>
        <time>2023-04-06T13:03:51Z</time>
      </trkpt>
      <trkpt lat="44.37428" lon="5.51949">
        <ele>713.1</ele>
        <time>2023-04-06T13:03:52Z</time>
      </trkpt>
      <trkpt lat="44.37433" lon="5.51944">
        <ele>713.4</ele>
        <time>2023-04-06T13:03:53Z</time>
      </trkpt>
      <trkpt lat="44.37437" lon="5.51939">
        <ele>713.7</ele>
        <time>2023-04-06T13:03:54Z</time>
      </trkpt>
      <trkpt lat="44.37441" lon="5.51933">
        <ele>714</ele>
        <time>2023-04-06T13:03:55Z</time>
      </trkpt>
      <trkpt lat="44.37445" lon="5.51927">
        <ele>714.3</ele>
        <time>2023-04-06T13:03:56Z</time>
      </trkpt>
      <trkpt lat="44.3745" lon="5.51921">
        <ele>714.6</ele>
        <time>2023-04-06T13:03:57Z</time>
      </trkpt>
      <trkpt lat="44.37459" lon="5.5191">
        <ele>715.2</ele>
        <time>2023-04-06T13:03:59Z</time>
      </trkpt>
      <trkpt lat="44.37463" lon="5.51904">
        <ele>715.6</ele>
        <time>2023-04-06T13:04:00Z</time>
      </trkpt>
      <trkpt lat="44.37467" lon="5.51899">
        <ele>715.9</ele>
        <time>2023-04-06T13:04:01Z</time>
      </trkpt>
      <trkpt lat="44.37471" lon="5.51893">
        <ele>716.2</ele>
        <time>2023-04-06T13:04:02Z</time>
      </trkpt>
      <trkpt lat="44.37476" lon="5.51888">
        <ele>716.5</ele>
        <time>2023-04-06T13:04:03Z</time>
      </trkpt>
      <trkpt lat="44.3748" lon="5.51882">
        <ele>716.9</ele>
        <time>2023-04-06T13:04:04Z</time>
      </trkpt>
      <trkpt lat="44.37484" lon="5.51876">
        <ele>717.2</ele>
        <time>2023-04-06T13:04:05Z</time>
      </trkpt>
      <trkpt lat="44.37489" lon="5.5187">
        <ele>717.5</ele>
        <time>2023-04-06T13:04:06Z</time>
      </trkpt>
      <trkpt lat="44.37493" lon="5.51864">
        <ele>717.8</ele>
        <time>2023-04-06T13:04:07Z</time>
      </trkpt>
      <trkpt lat="44.37497" lon="5.51858">
        <ele>718.1</ele>
        <time>2023-04-06T13:04:08Z</time>
      </trkpt>
      <trkpt lat="44.37506" lon="5.51847">
        <ele>718.8</ele>
        <time>2023-04-06T13:04:10Z</time>
      </trkpt>
      <trkpt lat="44.3751" lon="5.51842">
        <ele>719.1</ele>
        <time>2023-04-06T13:04:11Z</time>
      </trkpt>
      <trkpt lat="44.37514" lon="5.51836">
        <ele>719.3</ele>
        <time>2023-04-06T13:04:12Z</time>
      </trkpt>
      <trkpt lat="44.37518" lon="5.51831">
        <ele>719.6</ele>
        <time>2023-04-06T13:04:13Z</time>
      </trkpt>
      <trkpt lat="44.37521" lon="5.51826">
        <ele>719.8</ele>
        <time>2023-04-06T13:04:14Z</time>
      </trkpt>
      <trkpt lat="44.37529" lon="5.51815">
        <ele>720.3</ele>
        <time>2023-04-06T13:04:16Z</time>
      </trkpt>
      <trkpt lat="44.37533" lon="5.5181">
        <ele>720.5</ele>
        <time>2023-04-06T13:04:17Z</time>
      </trkpt>
      <trkpt lat="44.37537" lon="5.51805">
        <ele>720.8</ele>
        <time>2023-04-06T13:04:18Z</time>
      </trkpt>
      <trkpt lat="44.37541" lon="5.51799">
        <ele>721</ele>
        <time>2023-04-06T13:04:19Z</time>
      </trkpt>
      <trkpt lat="44.37545" lon="5.51793">
        <ele>721.3</ele>
        <time>2023-04-06T13:04:20Z</time>
      </trkpt>
      <trkpt lat="44.37549" lon="5.51788">
        <ele>721.5</ele>
        <time>2023-04-06T13:04:21Z</time>
      </trkpt>
      <trkpt lat="44.37553" lon="5.51782">
        <ele>721.7</ele>
        <time>2023-04-06T13:04:22Z</time>
      </trkpt>
      <trkpt lat="44.37557" lon="5.51776">
        <ele>721.9</ele>
        <time>2023-04-06T13:04:23Z</time>
      </trkpt>
      <trkpt lat="44.37561" lon="5.5177">
        <ele>722.1</ele>
        <time>2023-04-06T13:04:24Z</time>
      </trkpt>
      <trkpt lat="44.37564" lon="5.51763">
        <ele>722.3</ele>
        <time>2023-04-06T13:04:25Z</time>
      </trkpt>
      <trkpt lat="44.37568" lon="5.51757">
        <ele>722.5</ele>
        <time>2023-04-06T13:04:26Z</time>
      </trkpt>
      <trkpt lat="44.37572" lon="5.5175">
        <ele>722.7</ele>
        <time>2023-04-06T13:04:27Z</time>
      </trkpt>
      <trkpt lat="44.37575" lon="5.51742">
        <ele>722.9</ele>
        <time>2023-04-06T13:04:28Z</time>
      </trkpt>
      <trkpt lat="44.37578" lon="5.51735">
        <ele>723.1</ele>
        <time>2023-04-06T13:04:29Z</time>
      </trkpt>
      <trkpt lat="44.37581" lon="5.51728">
        <ele>723.3</ele>
        <time>2023-04-06T13:04:30Z</time>
      </trkpt>
      <trkpt lat="44.37587" lon="5.51715">
        <ele>723.6</ele>
        <time>2023-04-06T13:04:32Z</time>
      </trkpt>
      <trkpt lat="44.37591" lon="5.51708">
        <ele>723.8</ele>
        <time>2023-04-06T13:04:33Z</time>
      </trkpt>
      <trkpt lat="44.37593" lon="5.517">
        <ele>723.9</ele>
        <time>2023-04-06T13:04:34Z</time>
      </trkpt>
      <trkpt lat="44.37596" lon="5.51693">
        <ele>724.1</ele>
        <time>2023-04-06T13:04:35Z</time>
      </trkpt>
      <trkpt lat="44.37599" lon="5.51686">
        <ele>724.3</ele>
        <time>2023-04-06T13:04:36Z</time>
      </trkpt>
      <trkpt lat="44.37602" lon="5.51679">
        <ele>724.4</ele>
        <time>2023-04-06T13:04:37Z</time>
      </trkpt>
      <trkpt lat="44.37605" lon="5.51671">
        <ele>724.6</ele>
        <time>2023-04-06T13:04:38Z</time>
      </trkpt>
      <trkpt lat="44.37608" lon="5.51664">
        <ele>724.8</ele>
        <time>2023-04-06T13:04:39Z</time>
      </trkpt>
      <trkpt lat="44.37611" lon="5.51656">
        <ele>725</ele>
        <time>2023-04-06T13:04:40Z</time>
      </trkpt>
      <trkpt lat="44.37614" lon="5.51649">
        <ele>725.2</ele>
        <time>2023-04-06T13:04:41Z</time>
      </trkpt>
      <trkpt lat="44.37619" lon="5.51635">
        <ele>725.6</ele>
        <time>2023-04-06T13:04:43Z</time>
      </trkpt>
      <trkpt lat="44.37622" lon="5.51627">
        <ele>725.8</ele>
        <time>2023-04-06T13:04:44Z</time>
      </trkpt>
      <trkpt lat="44.37625" lon="5.5162">
        <ele>726</ele>
        <time>2023-04-06T13:04:45Z</time>
      </trkpt>
      <trkpt lat="44.37627" lon="5.51613">
        <ele>726.2</ele>
        <time>2023-04-06T13:04:46Z</time>
      </trkpt>
      <trkpt lat="44.3763" lon="5.51606">
        <ele>726.4</ele>
        <time>2023-04-06T13:04:47Z</time>
      </trkpt>
      <trkpt lat="44.37632" lon="5.516">
        <ele>726.6</ele>
        <time>2023-04-06T13:04:48Z</time>
      </trkpt>
      <trkpt lat="44.37635" lon="5.51593">
        <ele>726.9</ele>
        <time>2023-04-06T13:04:49Z</time>
      </trkpt>
      <trkpt lat="44.37637" lon="5.51587">
        <ele>727.1</ele>
        <time>2023-04-06T13:04:50Z</time>
      </trkpt>
      <trkpt lat="44.3764" lon="5.5158">
        <ele>727.3</ele>
        <time>2023-04-06T13:04:51Z</time>
      </trkpt>
      <trkpt lat="44.37643" lon="5.51573">
        <ele>727.6</ele>
        <time>2023-04-06T13:04:52Z</time>
      </trkpt>
      <trkpt lat="44.37645" lon="5.51566">
        <ele>727.9</ele>
        <time>2023-04-06T13:04:53Z</time>
      </trkpt>
      <trkpt lat="44.37648" lon="5.51558">
        <ele>728.1</ele>
        <time>2023-04-06T13:04:54Z</time>
      </trkpt>
      <trkpt lat="44.3765" lon="5.51551">
        <ele>728.4</ele>
        <time>2023-04-06T13:04:55Z</time>
      </trkpt>
      <trkpt lat="44.37652" lon="5.51545">
        <ele>728.6</ele>
        <time>2023-04-06T13:04:56Z</time>
      </trkpt>
      <trkpt lat="44.37655" lon="5.51538">
        <ele>728.9</ele>
        <time>2023-04-06T13:04:57Z</time>
      </trkpt>
      <trkpt lat="44.37661" lon="5.51524">
        <ele>729.5</ele>
        <time>2023-04-06T13:04:59Z</time>
      </trkpt>
      <trkpt lat="44.37664" lon="5.51517">
        <ele>729.7</ele>
        <time>2023-04-06T13:05:00Z</time>
      </trkpt>
      <trkpt lat="44.37667" lon="5.5151">
        <ele>730</ele>
        <time>2023-04-06T13:05:01Z</time>
      </trkpt>
      <trkpt lat="44.3767" lon="5.51503">
        <ele>730.3</ele>
        <time>2023-04-06T13:05:02Z</time>
      </trkpt>
      <trkpt lat="44.37672" lon="5.51496">
        <ele>730.6</ele>
        <time>2023-04-06T13:05:03Z</time>
      </trkpt>
      <trkpt lat="44.37675" lon="5.5149">
        <ele>730.8</ele>
        <time>2023-04-06T13:05:04Z</time>
      </trkpt>
      <trkpt lat="44.37677" lon="5.51483">
        <ele>731.1</ele>
        <time>2023-04-06T13:05:05Z</time>
      </trkpt>
      <trkpt lat="44.3768" lon="5.51476">
        <ele>731.4</ele>
        <time>2023-04-06T13:05:06Z</time>
      </trkpt>
      <trkpt lat="44.37682" lon="5.5147">
        <ele>731.7</ele>
        <time>2023-04-06T13:05:07Z</time>
      </trkpt>
      <trkpt lat="44.37685" lon="5.51463">
        <ele>732</ele>
        <time>2023-04-06T13:05:08Z</time>
      </trkpt>
      <trkpt lat="44.3769" lon="5.51451">
        <ele>732.4</ele>
        <time>2023-04-06T13:05:10Z</time>
      </trkpt>
      <trkpt lat="44.37692" lon="5.51445">
        <ele>732.5</ele>
        <time>2023-04-06T13:05:11Z</time>
      </trkpt>
      <trkpt lat="44.37695" lon="5.51439">
        <ele>732.6</ele>
        <time>2023-04-06T13:05:12Z</time>
      </trkpt>
      <trkpt lat="44.37698" lon="5.51433">
        <ele>732.6</ele>
        <time>2023-04-06T13:05:13Z</time>
      </trkpt>
      <trkpt lat="44.37701" lon="5.51427">
        <ele>732.7</ele>
        <time>2023-04-06T13:05:14Z</time>
      </trkpt>
      <trkpt lat="44.37708" lon="5.51415">
        <ele>732.9</ele>
        <time>2023-04-06T13:05:16Z</time>
      </trkpt>
      <trkpt lat="44.37711" lon="5.51408">
        <ele>733</ele>
        <time>2023-04-06T13:05:17Z</time>
      </trkpt>
      <trkpt lat="44.37714" lon="5.51402">
        <ele>733</ele>
        <time>2023-04-06T13:05:18Z</time>
      </trkpt>
      <trkpt lat="44.37716" lon="5.51395">
        <ele>733.1</ele>
        <time>2023-04-06T13:05:19Z</time>
      </trkpt>
      <trkpt lat="44.37718" lon="5.51389">
        <ele>733.1</ele>
        <time>2023-04-06T13:05:20Z</time>
      </trkpt>
      <trkpt lat="44.3772" lon="5.51384">
        <ele>733.1</ele>
        <time>2023-04-06T13:05:21Z</time>
      </trkpt>
      <trkpt lat="44.37722" lon="5.51379">
        <ele>733.2</ele>
        <time>2023-04-06T13:05:22Z</time>
      </trkpt>
      <trkpt lat="44.37725" lon="5.51374">
        <ele>733.2</ele>
        <time>2023-04-06T13:05:23Z</time>
      </trkpt>
      <trkpt lat="44.37728" lon="5.51368">
        <ele>733.2</ele>
        <time>2023-04-06T13:05:24Z</time>
      </trkpt>
      <trkpt lat="44.37731" lon="5.51364">
        <ele>733.2</ele>
        <time>2023-04-06T13:05:25Z</time>
      </trkpt>
      <trkpt lat="44.37735" lon="5.51361">
        <ele>733.2</ele>
        <time>2023-04-06T13:05:26Z</time>
      </trkpt>
      <trkpt lat="44.37738" lon="5.51359">
        <ele>733.2</ele>
        <time>2023-04-06T13:05:27Z</time>
      </trkpt>
      <trkpt lat="44.37743" lon="5.51357">
        <ele>733.2</ele>
        <time>2023-04-06T13:05:28Z</time>
      </trkpt>
      <trkpt lat="44.37747" lon="5.51355">
        <ele>733.2</ele>
        <time>2023-04-06T13:05:29Z</time>
      </trkpt>
      <trkpt lat="44.37751" lon="5.51353">
        <ele>733.2</ele>
        <time>2023-04-06T13:05:30Z</time>
      </trkpt>
      <trkpt lat="44.37755" lon="5.51351">
        <ele>733.2</ele>
        <time>2023-04-06T13:05:31Z</time>
      </trkpt>
      <trkpt lat="44.37759" lon="5.51348">
        <ele>733.1</ele>
        <time>2023-04-06T13:05:32Z</time>
      </trkpt>
      <trkpt lat="44.37762" lon="5.51346">
        <ele>733.1</ele>
        <time>2023-04-06T13:05:33Z</time>
      </trkpt>
      <trkpt lat="44.37764" lon="5.51343">
        <ele>733.1</ele>
        <time>2023-04-06T13:05:34Z</time>
      </trkpt>
      <trkpt lat="44.37765" lon="5.51342">
        <ele>733.1</ele>
        <time>2023-04-06T13:05:35Z</time>
      </trkpt>
      <trkpt lat="44.37766" lon="5.5134">
        <ele>733</ele>
        <time>2023-04-06T13:05:36Z</time>
      </trkpt>
      <trkpt lat="44.37766" lon="5.51339">
        <ele>733</ele>
        <time>2023-04-06T13:05:37Z</time>
      </trkpt>
      <trkpt lat="44.37766" lon="5.51338">
        <ele>733</ele>
        <time>2023-04-06T13:05:38Z</time>
      </trkpt>
      <trkpt lat="44.37767" lon="5.51334">
        <ele>733</ele>
        <time>2023-04-06T13:05:39Z</time>
      </trkpt>
      <trkpt lat="44.37768" lon="5.51326">
        <ele>732.9</ele>
        <time>2023-04-06T13:05:40Z</time>
      </trkpt>
      <trkpt lat="44.37771" lon="5.51321">
        <ele>732.9</ele>
        <time>2023-04-06T13:05:41Z</time>
      </trkpt>
      <trkpt lat="44.37773" lon="5.51315">
        <ele>732.8</ele>
        <time>2023-04-06T13:05:42Z</time>
      </trkpt>
      <trkpt lat="44.37775" lon="5.51309">
        <ele>732.8</ele>
        <time>2023-04-06T13:05:43Z</time>
      </trkpt>
      <trkpt lat="44.37776" lon="5.51302">
        <ele>732.7</ele>
        <time>2023-04-06T13:05:44Z</time>
      </trkpt>
      <trkpt lat="44.37774" lon="5.51296">
        <ele>732.7</ele>
        <time>2023-04-06T13:05:45Z</time>
      </trkpt>
      <trkpt lat="44.37771" lon="5.5129">
        <ele>732.6</ele>
        <time>2023-04-06T13:05:46Z</time>
      </trkpt>
      <trkpt lat="44.37766" lon="5.51285">
        <ele>732.6</ele>
        <time>2023-04-06T13:05:47Z</time>
      </trkpt>
      <trkpt lat="44.37762" lon="5.51281">
        <ele>732.5</ele>
        <time>2023-04-06T13:05:48Z</time>
      </trkpt>
      <trkpt lat="44.37757" lon="5.51278">
        <ele>732.5</ele>
        <time>2023-04-06T13:05:49Z</time>
      </trkpt>
      <trkpt lat="44.37752" lon="5.51275">
        <ele>732.4</ele>
        <time>2023-04-06T13:05:50Z</time>
      </trkpt>
      <trkpt lat="44.37748" lon="5.51273">
        <ele>732.4</ele>
        <time>2023-04-06T13:05:51Z</time>
      </trkpt>
      <trkpt lat="44.37745" lon="5.51272">
        <ele>732.3</ele>
        <time>2023-04-06T13:05:52Z</time>
      </trkpt>
      <trkpt lat="44.37742" lon="5.51271">
        <ele>732.3</ele>
        <time>2023-04-06T13:05:53Z</time>
      </trkpt>
      <trkpt lat="44.37739" lon="5.51271">
        <ele>732.3</ele>
        <time>2023-04-06T13:05:54Z</time>
      </trkpt>
      <trkpt lat="44.37737" lon="5.51271">
        <ele>732.3</ele>
        <time>2023-04-06T13:05:55Z</time>
      </trkpt>
      <trkpt lat="44.37734" lon="5.51274">
        <ele>732.2</ele>
        <time>2023-04-06T13:05:56Z</time>
      </trkpt>
      <trkpt lat="44.37734" lon="5.51279">
        <ele>732.2</ele>
        <time>2023-04-06T13:05:57Z</time>
      </trkpt>
      <trkpt lat="44.37734" lon="5.51283">
        <ele>732.2</ele>
        <time>2023-04-06T13:05:58Z</time>
      </trkpt>
      <trkpt lat="44.37734" lon="5.51289">
        <ele>732.1</ele>
        <time>2023-04-06T13:05:59Z</time>
      </trkpt>
      <trkpt lat="44.37735" lon="5.51293">
        <ele>732.1</ele>
        <time>2023-04-06T13:06:00Z</time>
      </trkpt>
      <trkpt lat="44.37736" lon="5.51297">
        <ele>732.1</ele>
        <time>2023-04-06T13:06:01Z</time>
      </trkpt>
      <trkpt lat="44.37737" lon="5.51301">
        <ele>732</ele>
        <time>2023-04-06T13:06:02Z</time>
      </trkpt>
      <trkpt lat="44.3774" lon="5.51303">
        <ele>732</ele>
        <time>2023-04-06T13:06:03Z</time>
      </trkpt>
      <trkpt lat="44.37741" lon="5.51304">
        <ele>732</ele>
        <time>2023-04-06T13:06:04Z</time>
      </trkpt>
      <trkpt lat="44.37742" lon="5.51305">
        <ele>732</ele>
        <time>2023-04-06T13:06:05Z</time>
      </trkpt>
      <trkpt lat="44.37743" lon="5.51305">
        <ele>732</ele>
        <time>2023-04-06T13:06:06Z</time>
      </trkpt>
      <trkpt lat="44.37742" lon="5.51305">
        <ele>732</ele>
        <time>2023-04-06T13:06:07Z</time>
      </trkpt>
      <trkpt lat="44.37742" lon="5.51305">
        <ele>732</ele>
        <time>2023-04-06T13:06:08Z</time>
      </trkpt>
      <trkpt lat="44.37741" lon="5.51305">
        <ele>732</ele>
        <time>2023-04-06T13:06:09Z</time>
      </trkpt>
      <trkpt lat="44.37741" lon="5.51305">
        <ele>732</ele>
        <time>2023-04-06T13:06:10Z</time>
      </trkpt>
      <trkpt lat="44.37741" lon="5.51305">
        <ele>732</ele>
        <time>2023-04-06T13:06:11Z</time>
      </trkpt>
      <trkpt lat="44.37741" lon="5.51305">
        <ele>732</ele>
        <time>2023-04-06T13:06:12Z</time>
      </trkpt>
      <trkpt lat="44.37741" lon="5.51306">
        <ele>732</ele>
        <time>2023-04-06T13:06:13Z</time>
      </trkpt>
      <trkpt lat="44.37741" lon="5.51305">
        <ele>732</ele>
        <time>2023-04-06T13:06:14Z</time>
      </trkpt>
      <trkpt lat="44.37741" lon="5.51305">
        <ele>732</ele>
        <time>2023-04-06T13:06:15Z</time>
      </trkpt>
      <trkpt lat="44.37741" lon="5.51305">
        <ele>732</ele>
        <time>2023-04-06T13:06:16Z</time>
      </trkpt>
      <trkpt lat="44.37741" lon="5.51305">
        <ele>732</ele>
        <time>2023-04-06T13:06:17Z</time>
      </trkpt>
      <trkpt lat="44.37741" lon="5.51305">
        <ele>732</ele>
        <time>2023-04-06T13:06:18Z</time>
      </trkpt>
      <trkpt lat="44.37741" lon="5.51305">
        <ele>732</ele>
        <time>2023-04-06T13:06:19Z</time>
      </trkpt>
      <trkpt lat="44.37736" lon="5.51293">
        <ele>731.9</ele>
        <time>2023-04-06T13:07:48Z</time>
      </trkpt>
      <trkpt lat="44.37732" lon="5.51284">
        <ele>731.8</ele>
        <time>2023-04-06T13:08:01Z</time>
      </trkpt>
      <trkpt lat="44.37739" lon="5.51293">
        <ele>731.8</ele>
        <time>2023-04-06T13:08:06Z</time>
      </trkpt>
      <trkpt lat="44.37737" lon="5.51294">
        <ele>731.8</ele>
        <time>2023-04-06T13:08:10Z</time>
      </trkpt>
      <trkpt lat="44.37737" lon="5.51295">
        <ele>731.8</ele>
        <time>2023-04-06T13:08:11Z</time>
      </trkpt>
      <trkpt lat="44.37739" lon="5.51302">
        <ele>731.8</ele>
        <time>2023-04-06T13:08:28Z</time>
      </trkpt>
      <trkpt lat="44.37739" lon="5.51303">
        <ele>731.8</ele>
        <time>2023-04-06T13:08:29Z</time>
      </trkpt>
      <trkpt lat="44.37739" lon="5.51303">
        <ele>731.8</ele>
        <time>2023-04-06T13:08:30Z</time>
      </trkpt>
      <trkpt lat="44.37739" lon="5.51303">
        <ele>731.8</ele>
        <time>2023-04-06T13:08:31Z</time>
      </trkpt>
      <trkpt lat="44.37739" lon="5.51303">
        <ele>731.8</ele>
        <time>2023-04-06T13:08:32Z</time>
      </trkpt>
      <trkpt lat="44.37739" lon="5.51303">
        <ele>731.8</ele>
        <time>2023-04-06T13:08:33Z</time>
      </trkpt>
      <trkpt lat="44.37739" lon="5.51303">
        <ele>731.8</ele>
        <time>2023-04-06T13:08:34Z</time>
      </trkpt>
      <trkpt lat="44.37739" lon="5.51303">
        <ele>731.8</ele>
        <time>2023-04-06T13:08:37Z</time>
      </trkpt>
      <trkpt lat="44.37739" lon="5.51303">
        <ele>731.8</ele>
        <time>2023-04-06T13:08:38Z</time>
      </trkpt>
      <trkpt lat="44.37739" lon="5.51304">
        <ele>731.8</ele>
        <time>2023-04-06T13:08:39Z</time>
      </trkpt>
      <trkpt lat="44.37739" lon="5.51304">
        <ele>731.8</ele>
        <time>2023-04-06T13:08:40Z</time>
      </trkpt>
      <trkpt lat="44.37739" lon="5.51305">
        <ele>731.8</ele>
        <time>2023-04-06T13:08:43Z</time>
      </trkpt>
      <trkpt lat="44.37739" lon="5.51305">
        <ele>731.8</ele>
        <time>2023-04-06T13:08:44Z</time>
      </trkpt>
      <trkpt lat="44.37739" lon="5.51305">
        <ele>731.8</ele>
        <time>2023-04-06T13:08:45Z</time>
      </trkpt>
    </trkseg>
  </trk>
</gpx>